<?xml version="1.0" encoding="UTF-8" standalone="no" ?>
<gpx xmlns="http://www.topografix.com/GPX/1/1" xmlns:xsi="http://www.w3.org/2001/XMLSchema-instance" xsi:schemaLocation="http://www.topografix.com/GPX/1/1 http://www.topografix.com/GPX/1/1/gpx.xsd" version="1.1" creator="VisuGPX - https://www.visugpx.com">
  <metadata>
    <name>3 Becs depuis le Col de la Chaudière</name>
    <desc><![CDATA[Très jolie boucle sur les 3 Becs, dans la Drôme, sur le massif de la forêt de Saou.
Malheureusement amputée du 3ième bec (la Roche Courbe) et de l\'arche de la Roche de la Laveuse à cause d\'une zone protégée pour la faune,du 15 mai au 15 juillet. J\'y retournerai en septembre pour faire les 3 Becs (Seyou, Signal et Roche Courbe donc)]]></desc>
  </metadata>
  <trk>
    <name><![CDATA[Trace 1779699080000]]></name>
    <trkseg>
      <trkpt lat="44.62935" lon="5.20506">
        <ele>1082</ele>
        <time>2026-05-25T08:51:20.000Z</time>
      </trkpt>
      <trkpt lat="44.62935" lon="5.20506">
        <ele>1082</ele>
        <time>2026-05-25T08:51:21.000Z</time>
      </trkpt>
      <trkpt lat="44.62934" lon="5.20505">
        <ele>1082</ele>
        <time>2026-05-25T08:51:22.000Z</time>
      </trkpt>
      <trkpt lat="44.62934" lon="5.20503">
        <ele>1081</ele>
        <time>2026-05-25T08:51:23.000Z</time>
      </trkpt>
      <trkpt lat="44.62933" lon="5.20502">
        <ele>1081</ele>
        <time>2026-05-25T08:51:24.000Z</time>
      </trkpt>
      <trkpt lat="44.62932" lon="5.205">
        <ele>1081</ele>
        <time>2026-05-25T08:51:25.000Z</time>
      </trkpt>
      <trkpt lat="44.62932" lon="5.20499">
        <ele>1081</ele>
        <time>2026-05-25T08:51:26.000Z</time>
      </trkpt>
      <trkpt lat="44.62931" lon="5.20498">
        <ele>1082</ele>
        <time>2026-05-25T08:51:27.000Z</time>
      </trkpt>
      <trkpt lat="44.6293" lon="5.20497">
        <ele>1082</ele>
        <time>2026-05-25T08:51:28.000Z</time>
      </trkpt>
      <trkpt lat="44.62929" lon="5.20495">
        <ele>1082</ele>
        <time>2026-05-25T08:51:29.000Z</time>
      </trkpt>
      <trkpt lat="44.62927" lon="5.20494">
        <ele>1082</ele>
        <time>2026-05-25T08:51:30.000Z</time>
      </trkpt>
      <trkpt lat="44.62926" lon="5.20493">
        <ele>1082</ele>
        <time>2026-05-25T08:51:31.000Z</time>
      </trkpt>
      <trkpt lat="44.62925" lon="5.20491">
        <ele>1082</ele>
        <time>2026-05-25T08:51:32.000Z</time>
      </trkpt>
      <trkpt lat="44.62924" lon="5.2049">
        <ele>1083</ele>
        <time>2026-05-25T08:51:33.000Z</time>
      </trkpt>
      <trkpt lat="44.62923" lon="5.20489">
        <ele>1083</ele>
        <time>2026-05-25T08:51:34.000Z</time>
      </trkpt>
      <trkpt lat="44.62923" lon="5.20487">
        <ele>1083</ele>
        <time>2026-05-25T08:51:35.000Z</time>
      </trkpt>
      <trkpt lat="44.62922" lon="5.20485">
        <ele>1083</ele>
        <time>2026-05-25T08:51:36.000Z</time>
      </trkpt>
      <trkpt lat="44.62922" lon="5.20483">
        <ele>1083</ele>
        <time>2026-05-25T08:51:37.000Z</time>
      </trkpt>
      <trkpt lat="44.62922" lon="5.20481">
        <ele>1083</ele>
        <time>2026-05-25T08:51:38.000Z</time>
      </trkpt>
      <trkpt lat="44.62923" lon="5.20479">
        <ele>1083</ele>
        <time>2026-05-25T08:51:39.000Z</time>
      </trkpt>
      <trkpt lat="44.62923" lon="5.20476">
        <ele>1083</ele>
        <time>2026-05-25T08:51:40.000Z</time>
      </trkpt>
      <trkpt lat="44.62923" lon="5.20475">
        <ele>1083</ele>
        <time>2026-05-25T08:51:41.000Z</time>
      </trkpt>
      <trkpt lat="44.62923" lon="5.20472">
        <ele>1083</ele>
        <time>2026-05-25T08:51:42.000Z</time>
      </trkpt>
      <trkpt lat="44.62923" lon="5.2047">
        <ele>1083</ele>
        <time>2026-05-25T08:51:43.000Z</time>
      </trkpt>
      <trkpt lat="44.62923" lon="5.20469">
        <ele>1082</ele>
        <time>2026-05-25T08:51:44.000Z</time>
      </trkpt>
      <trkpt lat="44.62922" lon="5.20467">
        <ele>1082</ele>
        <time>2026-05-25T08:51:45.000Z</time>
      </trkpt>
      <trkpt lat="44.62922" lon="5.20464">
        <ele>1082</ele>
        <time>2026-05-25T08:51:46.000Z</time>
      </trkpt>
      <trkpt lat="44.62922" lon="5.20463">
        <ele>1082</ele>
        <time>2026-05-25T08:51:47.000Z</time>
      </trkpt>
      <trkpt lat="44.62922" lon="5.20461">
        <ele>1083</ele>
        <time>2026-05-25T08:51:48.000Z</time>
      </trkpt>
      <trkpt lat="44.62922" lon="5.20459">
        <ele>1083</ele>
        <time>2026-05-25T08:51:49.000Z</time>
      </trkpt>
      <trkpt lat="44.62921" lon="5.20458">
        <ele>1083</ele>
        <time>2026-05-25T08:51:50.000Z</time>
      </trkpt>
      <trkpt lat="44.62921" lon="5.20456">
        <ele>1083</ele>
        <time>2026-05-25T08:51:51.000Z</time>
      </trkpt>
      <trkpt lat="44.62921" lon="5.20455">
        <ele>1083</ele>
        <time>2026-05-25T08:51:52.000Z</time>
      </trkpt>
      <trkpt lat="44.62921" lon="5.20452">
        <ele>1082</ele>
        <time>2026-05-25T08:51:53.000Z</time>
      </trkpt>
      <trkpt lat="44.62922" lon="5.20451">
        <ele>1082</ele>
        <time>2026-05-25T08:51:54.000Z</time>
      </trkpt>
      <trkpt lat="44.62922" lon="5.2045">
        <ele>1082</ele>
        <time>2026-05-25T08:51:55.000Z</time>
      </trkpt>
      <trkpt lat="44.62922" lon="5.2045">
        <ele>1082</ele>
        <time>2026-05-25T08:51:56.000Z</time>
      </trkpt>
      <trkpt lat="44.62923" lon="5.20451">
        <ele>1082</ele>
        <time>2026-05-25T08:51:57.000Z</time>
      </trkpt>
      <trkpt lat="44.62924" lon="5.20451">
        <ele>1082</ele>
        <time>2026-05-25T08:51:58.000Z</time>
      </trkpt>
      <trkpt lat="44.62925" lon="5.20451">
        <ele>1082</ele>
        <time>2026-05-25T08:51:59.000Z</time>
      </trkpt>
      <trkpt lat="44.62927" lon="5.2045">
        <ele>1083</ele>
        <time>2026-05-25T08:52:00.000Z</time>
      </trkpt>
      <trkpt lat="44.62928" lon="5.20449">
        <ele>1083</ele>
        <time>2026-05-25T08:52:01.000Z</time>
      </trkpt>
      <trkpt lat="44.62929" lon="5.20448">
        <ele>1083</ele>
        <time>2026-05-25T08:52:02.000Z</time>
      </trkpt>
      <trkpt lat="44.62929" lon="5.20447">
        <ele>1083</ele>
        <time>2026-05-25T08:52:03.000Z</time>
      </trkpt>
      <trkpt lat="44.6293" lon="5.20445">
        <ele>1083</ele>
        <time>2026-05-25T08:52:04.000Z</time>
      </trkpt>
      <trkpt lat="44.6293" lon="5.20444">
        <ele>1083</ele>
        <time>2026-05-25T08:52:05.000Z</time>
      </trkpt>
      <trkpt lat="44.62931" lon="5.20443">
        <ele>1083</ele>
        <time>2026-05-25T08:52:06.000Z</time>
      </trkpt>
      <trkpt lat="44.62931" lon="5.20443">
        <ele>1084</ele>
        <time>2026-05-25T08:52:07.000Z</time>
      </trkpt>
      <trkpt lat="44.62931" lon="5.20443">
        <ele>1084</ele>
        <time>2026-05-25T08:52:08.000Z</time>
      </trkpt>
      <trkpt lat="44.62931" lon="5.20443">
        <ele>1084</ele>
        <time>2026-05-25T08:52:09.000Z</time>
      </trkpt>
      <trkpt lat="44.62931" lon="5.20443">
        <ele>1084</ele>
        <time>2026-05-25T08:52:10.000Z</time>
      </trkpt>
      <trkpt lat="44.62931" lon="5.20443">
        <ele>1084</ele>
        <time>2026-05-25T08:52:11.000Z</time>
      </trkpt>
      <trkpt lat="44.62931" lon="5.20443">
        <ele>1084</ele>
        <time>2026-05-25T08:52:12.000Z</time>
      </trkpt>
      <trkpt lat="44.62931" lon="5.20443">
        <ele>1084</ele>
        <time>2026-05-25T08:52:13.000Z</time>
      </trkpt>
      <trkpt lat="44.62931" lon="5.20443">
        <ele>1084</ele>
        <time>2026-05-25T08:52:14.000Z</time>
      </trkpt>
      <trkpt lat="44.62931" lon="5.20443">
        <ele>1084</ele>
        <time>2026-05-25T08:52:15.000Z</time>
      </trkpt>
      <trkpt lat="44.62931" lon="5.20443">
        <ele>1084</ele>
        <time>2026-05-25T08:52:16.000Z</time>
      </trkpt>
      <trkpt lat="44.62931" lon="5.20443">
        <ele>1084</ele>
        <time>2026-05-25T08:52:17.000Z</time>
      </trkpt>
      <trkpt lat="44.62931" lon="5.20443">
        <ele>1084</ele>
        <time>2026-05-25T08:52:18.000Z</time>
      </trkpt>
      <trkpt lat="44.62931" lon="5.20443">
        <ele>1084</ele>
        <time>2026-05-25T08:52:19.000Z</time>
      </trkpt>
      <trkpt lat="44.62931" lon="5.20443">
        <ele>1084</ele>
        <time>2026-05-25T08:52:20.000Z</time>
      </trkpt>
      <trkpt lat="44.62931" lon="5.20443">
        <ele>1084</ele>
        <time>2026-05-25T08:52:21.000Z</time>
      </trkpt>
      <trkpt lat="44.62931" lon="5.20443">
        <ele>1084</ele>
        <time>2026-05-25T08:52:22.000Z</time>
      </trkpt>
      <trkpt lat="44.62931" lon="5.20443">
        <ele>1084</ele>
        <time>2026-05-25T08:52:23.000Z</time>
      </trkpt>
      <trkpt lat="44.62931" lon="5.20443">
        <ele>1084</ele>
        <time>2026-05-25T08:52:24.000Z</time>
      </trkpt>
      <trkpt lat="44.62931" lon="5.20443">
        <ele>1084</ele>
        <time>2026-05-25T08:52:25.000Z</time>
      </trkpt>
      <trkpt lat="44.62931" lon="5.20443">
        <ele>1084</ele>
        <time>2026-05-25T08:52:26.000Z</time>
      </trkpt>
      <trkpt lat="44.62931" lon="5.20443">
        <ele>1084</ele>
        <time>2026-05-25T08:52:27.000Z</time>
      </trkpt>
      <trkpt lat="44.62931" lon="5.20443">
        <ele>1084</ele>
        <time>2026-05-25T08:52:28.000Z</time>
      </trkpt>
      <trkpt lat="44.62931" lon="5.20443">
        <ele>1083</ele>
        <time>2026-05-25T08:52:29.000Z</time>
      </trkpt>
      <trkpt lat="44.62932" lon="5.20444">
        <ele>1083</ele>
        <time>2026-05-25T08:52:30.000Z</time>
      </trkpt>
      <trkpt lat="44.62933" lon="5.20445">
        <ele>1083</ele>
        <time>2026-05-25T08:52:31.000Z</time>
      </trkpt>
      <trkpt lat="44.62934" lon="5.20446">
        <ele>1083</ele>
        <time>2026-05-25T08:52:32.000Z</time>
      </trkpt>
      <trkpt lat="44.62935" lon="5.20446">
        <ele>1083</ele>
        <time>2026-05-25T08:52:33.000Z</time>
      </trkpt>
      <trkpt lat="44.62936" lon="5.20446">
        <ele>1083</ele>
        <time>2026-05-25T08:52:34.000Z</time>
      </trkpt>
      <trkpt lat="44.62937" lon="5.20446">
        <ele>1084</ele>
        <time>2026-05-25T08:52:35.000Z</time>
      </trkpt>
      <trkpt lat="44.62938" lon="5.20447">
        <ele>1084</ele>
        <time>2026-05-25T08:52:36.000Z</time>
      </trkpt>
      <trkpt lat="44.62939" lon="5.20447">
        <ele>1084</ele>
        <time>2026-05-25T08:52:37.000Z</time>
      </trkpt>
      <trkpt lat="44.6294" lon="5.20447">
        <ele>1084</ele>
        <time>2026-05-25T08:52:38.000Z</time>
      </trkpt>
      <trkpt lat="44.62941" lon="5.20447">
        <ele>1085</ele>
        <time>2026-05-25T08:52:39.000Z</time>
      </trkpt>
      <trkpt lat="44.62942" lon="5.20448">
        <ele>1086</ele>
        <time>2026-05-25T08:52:40.000Z</time>
      </trkpt>
      <trkpt lat="44.62943" lon="5.20448">
        <ele>1086</ele>
        <time>2026-05-25T08:52:41.000Z</time>
      </trkpt>
      <trkpt lat="44.62944" lon="5.20448">
        <ele>1086</ele>
        <time>2026-05-25T08:52:42.000Z</time>
      </trkpt>
      <trkpt lat="44.62945" lon="5.20449">
        <ele>1086</ele>
        <time>2026-05-25T08:52:43.000Z</time>
      </trkpt>
      <trkpt lat="44.62946" lon="5.20449">
        <ele>1086</ele>
        <time>2026-05-25T08:52:44.000Z</time>
      </trkpt>
      <trkpt lat="44.62947" lon="5.2045">
        <ele>1086</ele>
        <time>2026-05-25T08:52:45.000Z</time>
      </trkpt>
      <trkpt lat="44.62947" lon="5.20451">
        <ele>1086</ele>
        <time>2026-05-25T08:52:46.000Z</time>
      </trkpt>
      <trkpt lat="44.62948" lon="5.20452">
        <ele>1086</ele>
        <time>2026-05-25T08:52:47.000Z</time>
      </trkpt>
      <trkpt lat="44.62949" lon="5.20452">
        <ele>1087</ele>
        <time>2026-05-25T08:52:48.000Z</time>
      </trkpt>
      <trkpt lat="44.6295" lon="5.20454">
        <ele>1088</ele>
        <time>2026-05-25T08:52:49.000Z</time>
      </trkpt>
      <trkpt lat="44.62951" lon="5.20455">
        <ele>1088</ele>
        <time>2026-05-25T08:52:50.000Z</time>
      </trkpt>
      <trkpt lat="44.62952" lon="5.20456">
        <ele>1088</ele>
        <time>2026-05-25T08:52:51.000Z</time>
      </trkpt>
      <trkpt lat="44.62953" lon="5.20457">
        <ele>1087</ele>
        <time>2026-05-25T08:52:52.000Z</time>
      </trkpt>
      <trkpt lat="44.62954" lon="5.20458">
        <ele>1087</ele>
        <time>2026-05-25T08:52:53.000Z</time>
      </trkpt>
      <trkpt lat="44.62954" lon="5.20459">
        <ele>1087</ele>
        <time>2026-05-25T08:52:54.000Z</time>
      </trkpt>
      <trkpt lat="44.62955" lon="5.20462">
        <ele>1087</ele>
        <time>2026-05-25T08:52:55.000Z</time>
      </trkpt>
      <trkpt lat="44.62955" lon="5.20464">
        <ele>1088</ele>
        <time>2026-05-25T08:52:56.000Z</time>
      </trkpt>
      <trkpt lat="44.62956" lon="5.20465">
        <ele>1088</ele>
        <time>2026-05-25T08:52:57.000Z</time>
      </trkpt>
      <trkpt lat="44.62958" lon="5.20466">
        <ele>1088</ele>
        <time>2026-05-25T08:52:58.000Z</time>
      </trkpt>
      <trkpt lat="44.62959" lon="5.20467">
        <ele>1087</ele>
        <time>2026-05-25T08:52:59.000Z</time>
      </trkpt>
      <trkpt lat="44.62959" lon="5.20468">
        <ele>1088</ele>
        <time>2026-05-25T08:53:00.000Z</time>
      </trkpt>
      <trkpt lat="44.6296" lon="5.2047">
        <ele>1088</ele>
        <time>2026-05-25T08:53:01.000Z</time>
      </trkpt>
      <trkpt lat="44.62961" lon="5.20471">
        <ele>1087</ele>
        <time>2026-05-25T08:53:02.000Z</time>
      </trkpt>
      <trkpt lat="44.62962" lon="5.20472">
        <ele>1087</ele>
        <time>2026-05-25T08:53:03.000Z</time>
      </trkpt>
      <trkpt lat="44.62963" lon="5.20473">
        <ele>1086</ele>
        <time>2026-05-25T08:53:04.000Z</time>
      </trkpt>
      <trkpt lat="44.62964" lon="5.20474">
        <ele>1086</ele>
        <time>2026-05-25T08:53:05.000Z</time>
      </trkpt>
      <trkpt lat="44.62965" lon="5.20475">
        <ele>1085</ele>
        <time>2026-05-25T08:53:06.000Z</time>
      </trkpt>
      <trkpt lat="44.62966" lon="5.20477">
        <ele>1086</ele>
        <time>2026-05-25T08:53:07.000Z</time>
      </trkpt>
      <trkpt lat="44.62967" lon="5.20478">
        <ele>1086</ele>
        <time>2026-05-25T08:53:08.000Z</time>
      </trkpt>
      <trkpt lat="44.62968" lon="5.20479">
        <ele>1086</ele>
        <time>2026-05-25T08:53:09.000Z</time>
      </trkpt>
      <trkpt lat="44.62969" lon="5.2048">
        <ele>1086</ele>
        <time>2026-05-25T08:53:10.000Z</time>
      </trkpt>
      <trkpt lat="44.6297" lon="5.20481">
        <ele>1086</ele>
        <time>2026-05-25T08:53:11.000Z</time>
      </trkpt>
      <trkpt lat="44.62971" lon="5.20482">
        <ele>1086</ele>
        <time>2026-05-25T08:53:12.000Z</time>
      </trkpt>
      <trkpt lat="44.62972" lon="5.20483">
        <ele>1086</ele>
        <time>2026-05-25T08:53:13.000Z</time>
      </trkpt>
      <trkpt lat="44.62973" lon="5.20483">
        <ele>1086</ele>
        <time>2026-05-25T08:53:14.000Z</time>
      </trkpt>
      <trkpt lat="44.62974" lon="5.20483">
        <ele>1086</ele>
        <time>2026-05-25T08:53:15.000Z</time>
      </trkpt>
      <trkpt lat="44.62975" lon="5.20482">
        <ele>1087</ele>
        <time>2026-05-25T08:53:16.000Z</time>
      </trkpt>
      <trkpt lat="44.62975" lon="5.20481">
        <ele>1087</ele>
        <time>2026-05-25T08:53:17.000Z</time>
      </trkpt>
      <trkpt lat="44.62975" lon="5.2048">
        <ele>1088</ele>
        <time>2026-05-25T08:53:18.000Z</time>
      </trkpt>
      <trkpt lat="44.62975" lon="5.20478">
        <ele>1088</ele>
        <time>2026-05-25T08:53:19.000Z</time>
      </trkpt>
      <trkpt lat="44.62975" lon="5.20476">
        <ele>1089</ele>
        <time>2026-05-25T08:53:20.000Z</time>
      </trkpt>
      <trkpt lat="44.62975" lon="5.20474">
        <ele>1089</ele>
        <time>2026-05-25T08:53:21.000Z</time>
      </trkpt>
      <trkpt lat="44.62975" lon="5.20472">
        <ele>1090</ele>
        <time>2026-05-25T08:53:22.000Z</time>
      </trkpt>
      <trkpt lat="44.62975" lon="5.2047">
        <ele>1091</ele>
        <time>2026-05-25T08:53:23.000Z</time>
      </trkpt>
      <trkpt lat="44.62975" lon="5.20469">
        <ele>1091</ele>
        <time>2026-05-25T08:53:24.000Z</time>
      </trkpt>
      <trkpt lat="44.62976" lon="5.20468">
        <ele>1091</ele>
        <time>2026-05-25T08:53:25.000Z</time>
      </trkpt>
      <trkpt lat="44.62976" lon="5.20467">
        <ele>1091</ele>
        <time>2026-05-25T08:53:26.000Z</time>
      </trkpt>
      <trkpt lat="44.62977" lon="5.20467">
        <ele>1090</ele>
        <time>2026-05-25T08:53:27.000Z</time>
      </trkpt>
      <trkpt lat="44.62978" lon="5.20466">
        <ele>1090</ele>
        <time>2026-05-25T08:53:28.000Z</time>
      </trkpt>
      <trkpt lat="44.62979" lon="5.20466">
        <ele>1090</ele>
        <time>2026-05-25T08:53:29.000Z</time>
      </trkpt>
      <trkpt lat="44.6298" lon="5.20465">
        <ele>1089</ele>
        <time>2026-05-25T08:53:30.000Z</time>
      </trkpt>
      <trkpt lat="44.62981" lon="5.20465">
        <ele>1089</ele>
        <time>2026-05-25T08:53:31.000Z</time>
      </trkpt>
      <trkpt lat="44.62982" lon="5.20464">
        <ele>1089</ele>
        <time>2026-05-25T08:53:32.000Z</time>
      </trkpt>
      <trkpt lat="44.62983" lon="5.20464">
        <ele>1090</ele>
        <time>2026-05-25T08:53:33.000Z</time>
      </trkpt>
      <trkpt lat="44.62984" lon="5.20462">
        <ele>1090</ele>
        <time>2026-05-25T08:53:34.000Z</time>
      </trkpt>
      <trkpt lat="44.62986" lon="5.20462">
        <ele>1090</ele>
        <time>2026-05-25T08:53:35.000Z</time>
      </trkpt>
      <trkpt lat="44.62987" lon="5.20462">
        <ele>1089</ele>
        <time>2026-05-25T08:53:36.000Z</time>
      </trkpt>
      <trkpt lat="44.62988" lon="5.20462">
        <ele>1089</ele>
        <time>2026-05-25T08:53:37.000Z</time>
      </trkpt>
      <trkpt lat="44.62989" lon="5.20463">
        <ele>1089</ele>
        <time>2026-05-25T08:53:38.000Z</time>
      </trkpt>
      <trkpt lat="44.62989" lon="5.20463">
        <ele>1089</ele>
        <time>2026-05-25T08:53:39.000Z</time>
      </trkpt>
      <trkpt lat="44.6299" lon="5.20462">
        <ele>1089</ele>
        <time>2026-05-25T08:53:40.000Z</time>
      </trkpt>
      <trkpt lat="44.6299" lon="5.20462">
        <ele>1089</ele>
        <time>2026-05-25T08:53:41.000Z</time>
      </trkpt>
      <trkpt lat="44.62991" lon="5.20462">
        <ele>1090</ele>
        <time>2026-05-25T08:53:42.000Z</time>
      </trkpt>
      <trkpt lat="44.62992" lon="5.20461">
        <ele>1090</ele>
        <time>2026-05-25T08:53:43.000Z</time>
      </trkpt>
      <trkpt lat="44.62992" lon="5.20461">
        <ele>1090</ele>
        <time>2026-05-25T08:53:44.000Z</time>
      </trkpt>
      <trkpt lat="44.62992" lon="5.20461">
        <ele>1090</ele>
        <time>2026-05-25T08:53:45.000Z</time>
      </trkpt>
      <trkpt lat="44.62993" lon="5.20462">
        <ele>1091</ele>
        <time>2026-05-25T08:53:46.000Z</time>
      </trkpt>
      <trkpt lat="44.62993" lon="5.20462">
        <ele>1091</ele>
        <time>2026-05-25T08:53:47.000Z</time>
      </trkpt>
      <trkpt lat="44.62994" lon="5.20462">
        <ele>1092</ele>
        <time>2026-05-25T08:53:48.000Z</time>
      </trkpt>
      <trkpt lat="44.62995" lon="5.20462">
        <ele>1091</ele>
        <time>2026-05-25T08:53:49.000Z</time>
      </trkpt>
      <trkpt lat="44.62996" lon="5.20461">
        <ele>1092</ele>
        <time>2026-05-25T08:53:50.000Z</time>
      </trkpt>
      <trkpt lat="44.62997" lon="5.20462">
        <ele>1092</ele>
        <time>2026-05-25T08:53:51.000Z</time>
      </trkpt>
      <trkpt lat="44.62998" lon="5.20463">
        <ele>1092</ele>
        <time>2026-05-25T08:53:52.000Z</time>
      </trkpt>
      <trkpt lat="44.62999" lon="5.20464">
        <ele>1093</ele>
        <time>2026-05-25T08:53:53.000Z</time>
      </trkpt>
      <trkpt lat="44.63" lon="5.20465">
        <ele>1093</ele>
        <time>2026-05-25T08:53:54.000Z</time>
      </trkpt>
      <trkpt lat="44.63001" lon="5.20465">
        <ele>1093</ele>
        <time>2026-05-25T08:53:55.000Z</time>
      </trkpt>
      <trkpt lat="44.63001" lon="5.20465">
        <ele>1093</ele>
        <time>2026-05-25T08:53:56.000Z</time>
      </trkpt>
      <trkpt lat="44.63002" lon="5.20465">
        <ele>1093</ele>
        <time>2026-05-25T08:53:57.000Z</time>
      </trkpt>
      <trkpt lat="44.63003" lon="5.20465">
        <ele>1093</ele>
        <time>2026-05-25T08:53:58.000Z</time>
      </trkpt>
      <trkpt lat="44.63004" lon="5.20465">
        <ele>1093</ele>
        <time>2026-05-25T08:53:59.000Z</time>
      </trkpt>
      <trkpt lat="44.63005" lon="5.20465">
        <ele>1093</ele>
        <time>2026-05-25T08:54:00.000Z</time>
      </trkpt>
      <trkpt lat="44.63005" lon="5.20465">
        <ele>1093</ele>
        <time>2026-05-25T08:54:01.000Z</time>
      </trkpt>
      <trkpt lat="44.63005" lon="5.20465">
        <ele>1093</ele>
        <time>2026-05-25T08:54:02.000Z</time>
      </trkpt>
      <trkpt lat="44.63005" lon="5.20465">
        <ele>1094</ele>
        <time>2026-05-25T08:54:03.000Z</time>
      </trkpt>
      <trkpt lat="44.63005" lon="5.20465">
        <ele>1094</ele>
        <time>2026-05-25T08:54:04.000Z</time>
      </trkpt>
      <trkpt lat="44.63006" lon="5.20465">
        <ele>1093</ele>
        <time>2026-05-25T08:54:05.000Z</time>
      </trkpt>
      <trkpt lat="44.63007" lon="5.20464">
        <ele>1093</ele>
        <time>2026-05-25T08:54:06.000Z</time>
      </trkpt>
      <trkpt lat="44.63007" lon="5.20464">
        <ele>1093</ele>
        <time>2026-05-25T08:54:07.000Z</time>
      </trkpt>
      <trkpt lat="44.63008" lon="5.20465">
        <ele>1093</ele>
        <time>2026-05-25T08:54:08.000Z</time>
      </trkpt>
      <trkpt lat="44.63008" lon="5.20465">
        <ele>1095</ele>
        <time>2026-05-25T08:54:09.000Z</time>
      </trkpt>
      <trkpt lat="44.63007" lon="5.20465">
        <ele>1097</ele>
        <time>2026-05-25T08:54:10.000Z</time>
      </trkpt>
      <trkpt lat="44.63007" lon="5.20465">
        <ele>1098</ele>
        <time>2026-05-25T08:54:11.000Z</time>
      </trkpt>
      <trkpt lat="44.63007" lon="5.20465">
        <ele>1098</ele>
        <time>2026-05-25T08:54:12.000Z</time>
      </trkpt>
      <trkpt lat="44.63007" lon="5.20465">
        <ele>1098</ele>
        <time>2026-05-25T08:54:13.000Z</time>
      </trkpt>
      <trkpt lat="44.63007" lon="5.20465">
        <ele>1098</ele>
        <time>2026-05-25T08:54:14.000Z</time>
      </trkpt>
      <trkpt lat="44.63007" lon="5.20465">
        <ele>1098</ele>
        <time>2026-05-25T08:54:15.000Z</time>
      </trkpt>
      <trkpt lat="44.63007" lon="5.20465">
        <ele>1098</ele>
        <time>2026-05-25T08:54:16.000Z</time>
      </trkpt>
      <trkpt lat="44.63007" lon="5.20465">
        <ele>1098</ele>
        <time>2026-05-25T08:54:17.000Z</time>
      </trkpt>
      <trkpt lat="44.63007" lon="5.20465">
        <ele>1098</ele>
        <time>2026-05-25T08:54:18.000Z</time>
      </trkpt>
      <trkpt lat="44.63007" lon="5.20465">
        <ele>1098</ele>
        <time>2026-05-25T08:54:19.000Z</time>
      </trkpt>
      <trkpt lat="44.63007" lon="5.20465">
        <ele>1098</ele>
        <time>2026-05-25T08:54:20.000Z</time>
      </trkpt>
      <trkpt lat="44.63007" lon="5.20465">
        <ele>1098</ele>
        <time>2026-05-25T08:54:21.000Z</time>
      </trkpt>
      <trkpt lat="44.63007" lon="5.20465">
        <ele>1098</ele>
        <time>2026-05-25T08:54:22.000Z</time>
      </trkpt>
      <trkpt lat="44.63007" lon="5.20465">
        <ele>1098</ele>
        <time>2026-05-25T08:54:23.000Z</time>
      </trkpt>
      <trkpt lat="44.63007" lon="5.20465">
        <ele>1098</ele>
        <time>2026-05-25T08:54:24.000Z</time>
      </trkpt>
      <trkpt lat="44.63007" lon="5.20465">
        <ele>1098</ele>
        <time>2026-05-25T08:54:25.000Z</time>
      </trkpt>
      <trkpt lat="44.63007" lon="5.20465">
        <ele>1098</ele>
        <time>2026-05-25T08:54:26.000Z</time>
      </trkpt>
      <trkpt lat="44.63007" lon="5.20465">
        <ele>1098</ele>
        <time>2026-05-25T08:54:27.000Z</time>
      </trkpt>
      <trkpt lat="44.63007" lon="5.20465">
        <ele>1098</ele>
        <time>2026-05-25T08:54:28.000Z</time>
      </trkpt>
      <trkpt lat="44.63007" lon="5.20465">
        <ele>1098</ele>
        <time>2026-05-25T08:54:29.000Z</time>
      </trkpt>
      <trkpt lat="44.63007" lon="5.20466">
        <ele>1098</ele>
        <time>2026-05-25T08:54:30.000Z</time>
      </trkpt>
      <trkpt lat="44.63008" lon="5.20467">
        <ele>1098</ele>
        <time>2026-05-25T08:54:31.000Z</time>
      </trkpt>
      <trkpt lat="44.6301" lon="5.20466">
        <ele>1098</ele>
        <time>2026-05-25T08:54:32.000Z</time>
      </trkpt>
      <trkpt lat="44.63011" lon="5.20465">
        <ele>1098</ele>
        <time>2026-05-25T08:54:33.000Z</time>
      </trkpt>
      <trkpt lat="44.63012" lon="5.20465">
        <ele>1098</ele>
        <time>2026-05-25T08:54:34.000Z</time>
      </trkpt>
      <trkpt lat="44.63013" lon="5.20466">
        <ele>1098</ele>
        <time>2026-05-25T08:54:35.000Z</time>
      </trkpt>
      <trkpt lat="44.63015" lon="5.20467">
        <ele>1098</ele>
        <time>2026-05-25T08:54:36.000Z</time>
      </trkpt>
      <trkpt lat="44.63015" lon="5.20467">
        <ele>1098</ele>
        <time>2026-05-25T08:54:37.000Z</time>
      </trkpt>
      <trkpt lat="44.63016" lon="5.20467">
        <ele>1097</ele>
        <time>2026-05-25T08:54:38.000Z</time>
      </trkpt>
      <trkpt lat="44.63016" lon="5.20468">
        <ele>1096</ele>
        <time>2026-05-25T08:54:39.000Z</time>
      </trkpt>
      <trkpt lat="44.63018" lon="5.20469">
        <ele>1097</ele>
        <time>2026-05-25T08:54:40.000Z</time>
      </trkpt>
      <trkpt lat="44.63017" lon="5.20469">
        <ele>1097</ele>
        <time>2026-05-25T08:54:41.000Z</time>
      </trkpt>
      <trkpt lat="44.63018" lon="5.20468">
        <ele>1098</ele>
        <time>2026-05-25T08:54:42.000Z</time>
      </trkpt>
      <trkpt lat="44.63017" lon="5.20468">
        <ele>1099</ele>
        <time>2026-05-25T08:54:43.000Z</time>
      </trkpt>
      <trkpt lat="44.63019" lon="5.20468">
        <ele>1100</ele>
        <time>2026-05-25T08:54:44.000Z</time>
      </trkpt>
      <trkpt lat="44.63019" lon="5.20467">
        <ele>1101</ele>
        <time>2026-05-25T08:54:45.000Z</time>
      </trkpt>
      <trkpt lat="44.63018" lon="5.20467">
        <ele>1101</ele>
        <time>2026-05-25T08:54:46.000Z</time>
      </trkpt>
      <trkpt lat="44.63018" lon="5.20466">
        <ele>1102</ele>
        <time>2026-05-25T08:54:47.000Z</time>
      </trkpt>
      <trkpt lat="44.63016" lon="5.20464">
        <ele>1104</ele>
        <time>2026-05-25T08:54:48.000Z</time>
      </trkpt>
      <trkpt lat="44.63015" lon="5.20464">
        <ele>1104</ele>
        <time>2026-05-25T08:54:49.000Z</time>
      </trkpt>
      <trkpt lat="44.63014" lon="5.20463">
        <ele>1104</ele>
        <time>2026-05-25T08:54:50.000Z</time>
      </trkpt>
      <trkpt lat="44.63014" lon="5.20462">
        <ele>1105</ele>
        <time>2026-05-25T08:54:51.000Z</time>
      </trkpt>
      <trkpt lat="44.63013" lon="5.20461">
        <ele>1105</ele>
        <time>2026-05-25T08:54:52.000Z</time>
      </trkpt>
      <trkpt lat="44.63012" lon="5.2046">
        <ele>1105</ele>
        <time>2026-05-25T08:54:53.000Z</time>
      </trkpt>
      <trkpt lat="44.63012" lon="5.20458">
        <ele>1105</ele>
        <time>2026-05-25T08:54:54.000Z</time>
      </trkpt>
      <trkpt lat="44.63012" lon="5.20456">
        <ele>1105</ele>
        <time>2026-05-25T08:54:55.000Z</time>
      </trkpt>
      <trkpt lat="44.63012" lon="5.20455">
        <ele>1105</ele>
        <time>2026-05-25T08:54:56.000Z</time>
      </trkpt>
      <trkpt lat="44.63011" lon="5.20454">
        <ele>1105</ele>
        <time>2026-05-25T08:54:57.000Z</time>
      </trkpt>
      <trkpt lat="44.63011" lon="5.20454">
        <ele>1106</ele>
        <time>2026-05-25T08:54:58.000Z</time>
      </trkpt>
      <trkpt lat="44.6301" lon="5.20454">
        <ele>1105</ele>
        <time>2026-05-25T08:54:59.000Z</time>
      </trkpt>
      <trkpt lat="44.63009" lon="5.20454">
        <ele>1106</ele>
        <time>2026-05-25T08:55:00.000Z</time>
      </trkpt>
      <trkpt lat="44.63009" lon="5.20454">
        <ele>1106</ele>
        <time>2026-05-25T08:55:01.000Z</time>
      </trkpt>
      <trkpt lat="44.63009" lon="5.20454">
        <ele>1105</ele>
        <time>2026-05-25T08:55:02.000Z</time>
      </trkpt>
      <trkpt lat="44.6301" lon="5.20454">
        <ele>1105</ele>
        <time>2026-05-25T08:55:03.000Z</time>
      </trkpt>
      <trkpt lat="44.63011" lon="5.20453">
        <ele>1104</ele>
        <time>2026-05-25T08:55:04.000Z</time>
      </trkpt>
      <trkpt lat="44.63012" lon="5.20451">
        <ele>1103</ele>
        <time>2026-05-25T08:55:05.000Z</time>
      </trkpt>
      <trkpt lat="44.63013" lon="5.2045">
        <ele>1104</ele>
        <time>2026-05-25T08:55:06.000Z</time>
      </trkpt>
      <trkpt lat="44.63014" lon="5.2045">
        <ele>1104</ele>
        <time>2026-05-25T08:55:07.000Z</time>
      </trkpt>
      <trkpt lat="44.63015" lon="5.20449">
        <ele>1104</ele>
        <time>2026-05-25T08:55:08.000Z</time>
      </trkpt>
      <trkpt lat="44.63015" lon="5.20448">
        <ele>1104</ele>
        <time>2026-05-25T08:55:09.000Z</time>
      </trkpt>
      <trkpt lat="44.63016" lon="5.20448">
        <ele>1104</ele>
        <time>2026-05-25T08:55:10.000Z</time>
      </trkpt>
      <trkpt lat="44.63017" lon="5.20448">
        <ele>1105</ele>
        <time>2026-05-25T08:55:11.000Z</time>
      </trkpt>
      <trkpt lat="44.63017" lon="5.20448">
        <ele>1104</ele>
        <time>2026-05-25T08:55:12.000Z</time>
      </trkpt>
      <trkpt lat="44.63018" lon="5.20447">
        <ele>1104</ele>
        <time>2026-05-25T08:55:13.000Z</time>
      </trkpt>
      <trkpt lat="44.63018" lon="5.20447">
        <ele>1104</ele>
        <time>2026-05-25T08:55:14.000Z</time>
      </trkpt>
      <trkpt lat="44.63019" lon="5.20447">
        <ele>1105</ele>
        <time>2026-05-25T08:55:15.000Z</time>
      </trkpt>
      <trkpt lat="44.63019" lon="5.20446">
        <ele>1105</ele>
        <time>2026-05-25T08:55:16.000Z</time>
      </trkpt>
      <trkpt lat="44.63019" lon="5.20444">
        <ele>1105</ele>
        <time>2026-05-25T08:55:17.000Z</time>
      </trkpt>
      <trkpt lat="44.63019" lon="5.20444">
        <ele>1105</ele>
        <time>2026-05-25T08:55:18.000Z</time>
      </trkpt>
      <trkpt lat="44.6302" lon="5.20443">
        <ele>1105</ele>
        <time>2026-05-25T08:55:19.000Z</time>
      </trkpt>
      <trkpt lat="44.63021" lon="5.20443">
        <ele>1106</ele>
        <time>2026-05-25T08:55:20.000Z</time>
      </trkpt>
      <trkpt lat="44.63022" lon="5.20443">
        <ele>1107</ele>
        <time>2026-05-25T08:55:21.000Z</time>
      </trkpt>
      <trkpt lat="44.63023" lon="5.20442">
        <ele>1107</ele>
        <time>2026-05-25T08:55:22.000Z</time>
      </trkpt>
      <trkpt lat="44.63023" lon="5.20441">
        <ele>1107</ele>
        <time>2026-05-25T08:55:23.000Z</time>
      </trkpt>
      <trkpt lat="44.63024" lon="5.2044">
        <ele>1108</ele>
        <time>2026-05-25T08:55:24.000Z</time>
      </trkpt>
      <trkpt lat="44.63025" lon="5.20439">
        <ele>1108</ele>
        <time>2026-05-25T08:55:25.000Z</time>
      </trkpt>
      <trkpt lat="44.63026" lon="5.20439">
        <ele>1109</ele>
        <time>2026-05-25T08:55:26.000Z</time>
      </trkpt>
      <trkpt lat="44.63026" lon="5.20439">
        <ele>1109</ele>
        <time>2026-05-25T08:55:27.000Z</time>
      </trkpt>
      <trkpt lat="44.63026" lon="5.20437">
        <ele>1109</ele>
        <time>2026-05-25T08:55:28.000Z</time>
      </trkpt>
      <trkpt lat="44.63027" lon="5.20435">
        <ele>1112</ele>
        <time>2026-05-25T08:55:29.000Z</time>
      </trkpt>
      <trkpt lat="44.63027" lon="5.20434">
        <ele>1111</ele>
        <time>2026-05-25T08:55:30.000Z</time>
      </trkpt>
      <trkpt lat="44.63026" lon="5.20433">
        <ele>1111</ele>
        <time>2026-05-25T08:55:31.000Z</time>
      </trkpt>
      <trkpt lat="44.63025" lon="5.20435">
        <ele>1111</ele>
        <time>2026-05-25T08:55:32.000Z</time>
      </trkpt>
      <trkpt lat="44.63023" lon="5.20436">
        <ele>1112</ele>
        <time>2026-05-25T08:55:33.000Z</time>
      </trkpt>
      <trkpt lat="44.63021" lon="5.20436">
        <ele>1112</ele>
        <time>2026-05-25T08:55:34.000Z</time>
      </trkpt>
      <trkpt lat="44.6302" lon="5.20437">
        <ele>1112</ele>
        <time>2026-05-25T08:55:35.000Z</time>
      </trkpt>
      <trkpt lat="44.63018" lon="5.20438">
        <ele>1112</ele>
        <time>2026-05-25T08:55:36.000Z</time>
      </trkpt>
      <trkpt lat="44.63017" lon="5.20439">
        <ele>1111</ele>
        <time>2026-05-25T08:55:37.000Z</time>
      </trkpt>
      <trkpt lat="44.63016" lon="5.20439">
        <ele>1111</ele>
        <time>2026-05-25T08:55:38.000Z</time>
      </trkpt>
      <trkpt lat="44.63015" lon="5.20439">
        <ele>1111</ele>
        <time>2026-05-25T08:55:39.000Z</time>
      </trkpt>
      <trkpt lat="44.63014" lon="5.20439">
        <ele>1112</ele>
        <time>2026-05-25T08:55:40.000Z</time>
      </trkpt>
      <trkpt lat="44.63014" lon="5.20438">
        <ele>1112</ele>
        <time>2026-05-25T08:55:41.000Z</time>
      </trkpt>
      <trkpt lat="44.63013" lon="5.20437">
        <ele>1112</ele>
        <time>2026-05-25T08:55:42.000Z</time>
      </trkpt>
      <trkpt lat="44.63014" lon="5.20437">
        <ele>1112</ele>
        <time>2026-05-25T08:55:43.000Z</time>
      </trkpt>
      <trkpt lat="44.63015" lon="5.20436">
        <ele>1112</ele>
        <time>2026-05-25T08:55:44.000Z</time>
      </trkpt>
      <trkpt lat="44.63016" lon="5.20436">
        <ele>1113</ele>
        <time>2026-05-25T08:55:45.000Z</time>
      </trkpt>
      <trkpt lat="44.63017" lon="5.20435">
        <ele>1113</ele>
        <time>2026-05-25T08:55:46.000Z</time>
      </trkpt>
      <trkpt lat="44.63018" lon="5.20435">
        <ele>1113</ele>
        <time>2026-05-25T08:55:47.000Z</time>
      </trkpt>
      <trkpt lat="44.63018" lon="5.20435">
        <ele>1113</ele>
        <time>2026-05-25T08:55:48.000Z</time>
      </trkpt>
      <trkpt lat="44.63019" lon="5.20435">
        <ele>1113</ele>
        <time>2026-05-25T08:55:49.000Z</time>
      </trkpt>
      <trkpt lat="44.6302" lon="5.20433">
        <ele>1114</ele>
        <time>2026-05-25T08:55:50.000Z</time>
      </trkpt>
      <trkpt lat="44.63021" lon="5.20432">
        <ele>1114</ele>
        <time>2026-05-25T08:55:51.000Z</time>
      </trkpt>
      <trkpt lat="44.63021" lon="5.20432">
        <ele>1114</ele>
        <time>2026-05-25T08:55:52.000Z</time>
      </trkpt>
      <trkpt lat="44.63021" lon="5.20431">
        <ele>1113</ele>
        <time>2026-05-25T08:55:53.000Z</time>
      </trkpt>
      <trkpt lat="44.63022" lon="5.20431">
        <ele>1113</ele>
        <time>2026-05-25T08:55:54.000Z</time>
      </trkpt>
      <trkpt lat="44.63022" lon="5.20431">
        <ele>1113</ele>
        <time>2026-05-25T08:55:55.000Z</time>
      </trkpt>
      <trkpt lat="44.63022" lon="5.20431">
        <ele>1113</ele>
        <time>2026-05-25T08:55:56.000Z</time>
      </trkpt>
      <trkpt lat="44.63022" lon="5.20431">
        <ele>1113</ele>
        <time>2026-05-25T08:55:57.000Z</time>
      </trkpt>
      <trkpt lat="44.63022" lon="5.2043">
        <ele>1112</ele>
        <time>2026-05-25T08:55:58.000Z</time>
      </trkpt>
      <trkpt lat="44.63022" lon="5.2043">
        <ele>1112</ele>
        <time>2026-05-25T08:55:59.000Z</time>
      </trkpt>
      <trkpt lat="44.63023" lon="5.20429">
        <ele>1112</ele>
        <time>2026-05-25T08:56:00.000Z</time>
      </trkpt>
      <trkpt lat="44.63023" lon="5.20428">
        <ele>1112</ele>
        <time>2026-05-25T08:56:01.000Z</time>
      </trkpt>
      <trkpt lat="44.63024" lon="5.20427">
        <ele>1112</ele>
        <time>2026-05-25T08:56:02.000Z</time>
      </trkpt>
      <trkpt lat="44.63025" lon="5.20426">
        <ele>1112</ele>
        <time>2026-05-25T08:56:03.000Z</time>
      </trkpt>
      <trkpt lat="44.63026" lon="5.20425">
        <ele>1113</ele>
        <time>2026-05-25T08:56:04.000Z</time>
      </trkpt>
      <trkpt lat="44.63027" lon="5.20426">
        <ele>1112</ele>
        <time>2026-05-25T08:56:05.000Z</time>
      </trkpt>
      <trkpt lat="44.63028" lon="5.20425">
        <ele>1112</ele>
        <time>2026-05-25T08:56:06.000Z</time>
      </trkpt>
      <trkpt lat="44.63029" lon="5.20424">
        <ele>1112</ele>
        <time>2026-05-25T08:56:07.000Z</time>
      </trkpt>
      <trkpt lat="44.63029" lon="5.20423">
        <ele>1112</ele>
        <time>2026-05-25T08:56:08.000Z</time>
      </trkpt>
      <trkpt lat="44.6303" lon="5.20423">
        <ele>1112</ele>
        <time>2026-05-25T08:56:09.000Z</time>
      </trkpt>
      <trkpt lat="44.6303" lon="5.20422">
        <ele>1113</ele>
        <time>2026-05-25T08:56:10.000Z</time>
      </trkpt>
      <trkpt lat="44.63031" lon="5.20421">
        <ele>1113</ele>
        <time>2026-05-25T08:56:11.000Z</time>
      </trkpt>
      <trkpt lat="44.63032" lon="5.20421">
        <ele>1113</ele>
        <time>2026-05-25T08:56:12.000Z</time>
      </trkpt>
      <trkpt lat="44.63032" lon="5.2042">
        <ele>1114</ele>
        <time>2026-05-25T08:56:13.000Z</time>
      </trkpt>
      <trkpt lat="44.63033" lon="5.20419">
        <ele>1114</ele>
        <time>2026-05-25T08:56:14.000Z</time>
      </trkpt>
      <trkpt lat="44.63033" lon="5.20418">
        <ele>1115</ele>
        <time>2026-05-25T08:56:15.000Z</time>
      </trkpt>
      <trkpt lat="44.63033" lon="5.20417">
        <ele>1115</ele>
        <time>2026-05-25T08:56:16.000Z</time>
      </trkpt>
      <trkpt lat="44.63034" lon="5.20416">
        <ele>1115</ele>
        <time>2026-05-25T08:56:17.000Z</time>
      </trkpt>
      <trkpt lat="44.63034" lon="5.20415">
        <ele>1116</ele>
        <time>2026-05-25T08:56:18.000Z</time>
      </trkpt>
      <trkpt lat="44.63035" lon="5.20415">
        <ele>1115</ele>
        <time>2026-05-25T08:56:19.000Z</time>
      </trkpt>
      <trkpt lat="44.63035" lon="5.20415">
        <ele>1115</ele>
        <time>2026-05-25T08:56:20.000Z</time>
      </trkpt>
      <trkpt lat="44.63036" lon="5.20415">
        <ele>1116</ele>
        <time>2026-05-25T08:56:21.000Z</time>
      </trkpt>
      <trkpt lat="44.63037" lon="5.20415">
        <ele>1116</ele>
        <time>2026-05-25T08:56:22.000Z</time>
      </trkpt>
      <trkpt lat="44.63038" lon="5.20415">
        <ele>1115</ele>
        <time>2026-05-25T08:56:23.000Z</time>
      </trkpt>
      <trkpt lat="44.63038" lon="5.20414">
        <ele>1114</ele>
        <time>2026-05-25T08:56:24.000Z</time>
      </trkpt>
      <trkpt lat="44.63039" lon="5.20413">
        <ele>1115</ele>
        <time>2026-05-25T08:56:25.000Z</time>
      </trkpt>
      <trkpt lat="44.63039" lon="5.20413">
        <ele>1115</ele>
        <time>2026-05-25T08:56:26.000Z</time>
      </trkpt>
      <trkpt lat="44.63039" lon="5.20412">
        <ele>1117</ele>
        <time>2026-05-25T08:56:27.000Z</time>
      </trkpt>
      <trkpt lat="44.6304" lon="5.20412">
        <ele>1117</ele>
        <time>2026-05-25T08:56:28.000Z</time>
      </trkpt>
      <trkpt lat="44.63041" lon="5.20411">
        <ele>1117</ele>
        <time>2026-05-25T08:56:29.000Z</time>
      </trkpt>
      <trkpt lat="44.63041" lon="5.20411">
        <ele>1118</ele>
        <time>2026-05-25T08:56:30.000Z</time>
      </trkpt>
      <trkpt lat="44.63041" lon="5.20411">
        <ele>1118</ele>
        <time>2026-05-25T08:56:31.000Z</time>
      </trkpt>
      <trkpt lat="44.6304" lon="5.20411">
        <ele>1118</ele>
        <time>2026-05-25T08:56:32.000Z</time>
      </trkpt>
      <trkpt lat="44.63039" lon="5.20412">
        <ele>1118</ele>
        <time>2026-05-25T08:56:33.000Z</time>
      </trkpt>
      <trkpt lat="44.63039" lon="5.20413">
        <ele>1118</ele>
        <time>2026-05-25T08:56:34.000Z</time>
      </trkpt>
      <trkpt lat="44.63038" lon="5.20413">
        <ele>1117</ele>
        <time>2026-05-25T08:56:35.000Z</time>
      </trkpt>
      <trkpt lat="44.63038" lon="5.20412">
        <ele>1117</ele>
        <time>2026-05-25T08:56:36.000Z</time>
      </trkpt>
      <trkpt lat="44.63038" lon="5.20412">
        <ele>1117</ele>
        <time>2026-05-25T08:56:37.000Z</time>
      </trkpt>
      <trkpt lat="44.63038" lon="5.20412">
        <ele>1117</ele>
        <time>2026-05-25T08:56:38.000Z</time>
      </trkpt>
      <trkpt lat="44.63038" lon="5.20412">
        <ele>1117</ele>
        <time>2026-05-25T08:56:39.000Z</time>
      </trkpt>
      <trkpt lat="44.63038" lon="5.20412">
        <ele>1117</ele>
        <time>2026-05-25T08:56:40.000Z</time>
      </trkpt>
      <trkpt lat="44.63038" lon="5.20412">
        <ele>1117</ele>
        <time>2026-05-25T08:56:41.000Z</time>
      </trkpt>
      <trkpt lat="44.63038" lon="5.20412">
        <ele>1117</ele>
        <time>2026-05-25T08:56:42.000Z</time>
      </trkpt>
      <trkpt lat="44.63038" lon="5.20412">
        <ele>1117</ele>
        <time>2026-05-25T08:56:43.000Z</time>
      </trkpt>
      <trkpt lat="44.63038" lon="5.20412">
        <ele>1117</ele>
        <time>2026-05-25T08:56:44.000Z</time>
      </trkpt>
      <trkpt lat="44.63038" lon="5.20412">
        <ele>1117</ele>
        <time>2026-05-25T08:56:45.000Z</time>
      </trkpt>
      <trkpt lat="44.63037" lon="5.20412">
        <ele>1117</ele>
        <time>2026-05-25T08:56:46.000Z</time>
      </trkpt>
      <trkpt lat="44.63038" lon="5.20413">
        <ele>1117</ele>
        <time>2026-05-25T08:56:47.000Z</time>
      </trkpt>
      <trkpt lat="44.63038" lon="5.20412">
        <ele>1117</ele>
        <time>2026-05-25T08:56:48.000Z</time>
      </trkpt>
      <trkpt lat="44.6304" lon="5.20411">
        <ele>1118</ele>
        <time>2026-05-25T08:56:49.000Z</time>
      </trkpt>
      <trkpt lat="44.63041" lon="5.20412">
        <ele>1118</ele>
        <time>2026-05-25T08:56:50.000Z</time>
      </trkpt>
      <trkpt lat="44.63042" lon="5.20412">
        <ele>1118</ele>
        <time>2026-05-25T08:56:51.000Z</time>
      </trkpt>
      <trkpt lat="44.63044" lon="5.20412">
        <ele>1118</ele>
        <time>2026-05-25T08:56:52.000Z</time>
      </trkpt>
      <trkpt lat="44.63045" lon="5.20411">
        <ele>1119</ele>
        <time>2026-05-25T08:56:53.000Z</time>
      </trkpt>
      <trkpt lat="44.63044" lon="5.2041">
        <ele>1119</ele>
        <time>2026-05-25T08:56:54.000Z</time>
      </trkpt>
      <trkpt lat="44.63044" lon="5.2041">
        <ele>1119</ele>
        <time>2026-05-25T08:56:55.000Z</time>
      </trkpt>
      <trkpt lat="44.63044" lon="5.2041">
        <ele>1120</ele>
        <time>2026-05-25T08:56:56.000Z</time>
      </trkpt>
      <trkpt lat="44.63044" lon="5.2041">
        <ele>1120</ele>
        <time>2026-05-25T08:56:57.000Z</time>
      </trkpt>
      <trkpt lat="44.63045" lon="5.2041">
        <ele>1119</ele>
        <time>2026-05-25T08:56:58.000Z</time>
      </trkpt>
      <trkpt lat="44.63047" lon="5.2041">
        <ele>1119</ele>
        <time>2026-05-25T08:56:59.000Z</time>
      </trkpt>
      <trkpt lat="44.63047" lon="5.20409">
        <ele>1120</ele>
        <time>2026-05-25T08:57:00.000Z</time>
      </trkpt>
      <trkpt lat="44.63049" lon="5.20409">
        <ele>1120</ele>
        <time>2026-05-25T08:57:01.000Z</time>
      </trkpt>
      <trkpt lat="44.6305" lon="5.20408">
        <ele>1119</ele>
        <time>2026-05-25T08:57:02.000Z</time>
      </trkpt>
      <trkpt lat="44.63051" lon="5.20408">
        <ele>1119</ele>
        <time>2026-05-25T08:57:03.000Z</time>
      </trkpt>
      <trkpt lat="44.63052" lon="5.20407">
        <ele>1119</ele>
        <time>2026-05-25T08:57:04.000Z</time>
      </trkpt>
      <trkpt lat="44.63052" lon="5.20407">
        <ele>1119</ele>
        <time>2026-05-25T08:57:05.000Z</time>
      </trkpt>
      <trkpt lat="44.63053" lon="5.20406">
        <ele>1119</ele>
        <time>2026-05-25T08:57:06.000Z</time>
      </trkpt>
      <trkpt lat="44.63054" lon="5.20405">
        <ele>1119</ele>
        <time>2026-05-25T08:57:07.000Z</time>
      </trkpt>
      <trkpt lat="44.63054" lon="5.20404">
        <ele>1119</ele>
        <time>2026-05-25T08:57:08.000Z</time>
      </trkpt>
      <trkpt lat="44.63055" lon="5.20403">
        <ele>1118</ele>
        <time>2026-05-25T08:57:09.000Z</time>
      </trkpt>
      <trkpt lat="44.63056" lon="5.20403">
        <ele>1118</ele>
        <time>2026-05-25T08:57:10.000Z</time>
      </trkpt>
      <trkpt lat="44.63057" lon="5.20402">
        <ele>1119</ele>
        <time>2026-05-25T08:57:11.000Z</time>
      </trkpt>
      <trkpt lat="44.63058" lon="5.20402">
        <ele>1119</ele>
        <time>2026-05-25T08:57:12.000Z</time>
      </trkpt>
      <trkpt lat="44.63059" lon="5.20402">
        <ele>1119</ele>
        <time>2026-05-25T08:57:13.000Z</time>
      </trkpt>
      <trkpt lat="44.63059" lon="5.20402">
        <ele>1119</ele>
        <time>2026-05-25T08:57:14.000Z</time>
      </trkpt>
      <trkpt lat="44.63061" lon="5.20402">
        <ele>1119</ele>
        <time>2026-05-25T08:57:15.000Z</time>
      </trkpt>
      <trkpt lat="44.63061" lon="5.20402">
        <ele>1119</ele>
        <time>2026-05-25T08:57:16.000Z</time>
      </trkpt>
      <trkpt lat="44.63063" lon="5.20401">
        <ele>1120</ele>
        <time>2026-05-25T08:57:17.000Z</time>
      </trkpt>
      <trkpt lat="44.63063" lon="5.20401">
        <ele>1120</ele>
        <time>2026-05-25T08:57:18.000Z</time>
      </trkpt>
      <trkpt lat="44.63064" lon="5.20402">
        <ele>1120</ele>
        <time>2026-05-25T08:57:19.000Z</time>
      </trkpt>
      <trkpt lat="44.63065" lon="5.20401">
        <ele>1121</ele>
        <time>2026-05-25T08:57:20.000Z</time>
      </trkpt>
      <trkpt lat="44.63066" lon="5.20401">
        <ele>1121</ele>
        <time>2026-05-25T08:57:21.000Z</time>
      </trkpt>
      <trkpt lat="44.63067" lon="5.204">
        <ele>1121</ele>
        <time>2026-05-25T08:57:22.000Z</time>
      </trkpt>
      <trkpt lat="44.63068" lon="5.204">
        <ele>1120</ele>
        <time>2026-05-25T08:57:23.000Z</time>
      </trkpt>
      <trkpt lat="44.63069" lon="5.204">
        <ele>1120</ele>
        <time>2026-05-25T08:57:24.000Z</time>
      </trkpt>
      <trkpt lat="44.6307" lon="5.20399">
        <ele>1121</ele>
        <time>2026-05-25T08:57:25.000Z</time>
      </trkpt>
      <trkpt lat="44.63071" lon="5.20398">
        <ele>1121</ele>
        <time>2026-05-25T08:57:26.000Z</time>
      </trkpt>
      <trkpt lat="44.63071" lon="5.20398">
        <ele>1120</ele>
        <time>2026-05-25T08:57:27.000Z</time>
      </trkpt>
      <trkpt lat="44.63072" lon="5.20398">
        <ele>1120</ele>
        <time>2026-05-25T08:57:28.000Z</time>
      </trkpt>
      <trkpt lat="44.63072" lon="5.20399">
        <ele>1121</ele>
        <time>2026-05-25T08:57:29.000Z</time>
      </trkpt>
      <trkpt lat="44.63073" lon="5.20399">
        <ele>1121</ele>
        <time>2026-05-25T08:57:30.000Z</time>
      </trkpt>
      <trkpt lat="44.63074" lon="5.20399">
        <ele>1120</ele>
        <time>2026-05-25T08:57:31.000Z</time>
      </trkpt>
      <trkpt lat="44.63075" lon="5.204">
        <ele>1120</ele>
        <time>2026-05-25T08:57:32.000Z</time>
      </trkpt>
      <trkpt lat="44.63075" lon="5.204">
        <ele>1121</ele>
        <time>2026-05-25T08:57:33.000Z</time>
      </trkpt>
      <trkpt lat="44.63076" lon="5.204">
        <ele>1120</ele>
        <time>2026-05-25T08:57:34.000Z</time>
      </trkpt>
      <trkpt lat="44.63077" lon="5.20401">
        <ele>1120</ele>
        <time>2026-05-25T08:57:35.000Z</time>
      </trkpt>
      <trkpt lat="44.63078" lon="5.20401">
        <ele>1120</ele>
        <time>2026-05-25T08:57:36.000Z</time>
      </trkpt>
      <trkpt lat="44.63079" lon="5.20401">
        <ele>1120</ele>
        <time>2026-05-25T08:57:37.000Z</time>
      </trkpt>
      <trkpt lat="44.63079" lon="5.20401">
        <ele>1120</ele>
        <time>2026-05-25T08:57:38.000Z</time>
      </trkpt>
      <trkpt lat="44.6308" lon="5.20402">
        <ele>1121</ele>
        <time>2026-05-25T08:57:39.000Z</time>
      </trkpt>
      <trkpt lat="44.63081" lon="5.20402">
        <ele>1120</ele>
        <time>2026-05-25T08:57:40.000Z</time>
      </trkpt>
      <trkpt lat="44.63081" lon="5.20402">
        <ele>1120</ele>
        <time>2026-05-25T08:57:41.000Z</time>
      </trkpt>
      <trkpt lat="44.63082" lon="5.20403">
        <ele>1120</ele>
        <time>2026-05-25T08:57:42.000Z</time>
      </trkpt>
      <trkpt lat="44.63083" lon="5.20403">
        <ele>1120</ele>
        <time>2026-05-25T08:57:43.000Z</time>
      </trkpt>
      <trkpt lat="44.63084" lon="5.20403">
        <ele>1120</ele>
        <time>2026-05-25T08:57:44.000Z</time>
      </trkpt>
      <trkpt lat="44.63085" lon="5.20403">
        <ele>1120</ele>
        <time>2026-05-25T08:57:45.000Z</time>
      </trkpt>
      <trkpt lat="44.63085" lon="5.20404">
        <ele>1121</ele>
        <time>2026-05-25T08:57:46.000Z</time>
      </trkpt>
      <trkpt lat="44.63086" lon="5.20404">
        <ele>1121</ele>
        <time>2026-05-25T08:57:47.000Z</time>
      </trkpt>
      <trkpt lat="44.63086" lon="5.20404">
        <ele>1121</ele>
        <time>2026-05-25T08:57:48.000Z</time>
      </trkpt>
      <trkpt lat="44.63086" lon="5.20404">
        <ele>1121</ele>
        <time>2026-05-25T08:57:49.000Z</time>
      </trkpt>
      <trkpt lat="44.63086" lon="5.20403">
        <ele>1121</ele>
        <time>2026-05-25T08:57:50.000Z</time>
      </trkpt>
      <trkpt lat="44.63086" lon="5.20401">
        <ele>1123</ele>
        <time>2026-05-25T08:57:51.000Z</time>
      </trkpt>
      <trkpt lat="44.63086" lon="5.20401">
        <ele>1123</ele>
        <time>2026-05-25T08:57:52.000Z</time>
      </trkpt>
      <trkpt lat="44.63086" lon="5.20401">
        <ele>1123</ele>
        <time>2026-05-25T08:57:53.000Z</time>
      </trkpt>
      <trkpt lat="44.63086" lon="5.20402">
        <ele>1124</ele>
        <time>2026-05-25T08:57:54.000Z</time>
      </trkpt>
      <trkpt lat="44.63086" lon="5.20401">
        <ele>1124</ele>
        <time>2026-05-25T08:57:55.000Z</time>
      </trkpt>
      <trkpt lat="44.63086" lon="5.204">
        <ele>1125</ele>
        <time>2026-05-25T08:57:56.000Z</time>
      </trkpt>
      <trkpt lat="44.63086" lon="5.20399">
        <ele>1125</ele>
        <time>2026-05-25T08:57:57.000Z</time>
      </trkpt>
      <trkpt lat="44.63086" lon="5.20398">
        <ele>1126</ele>
        <time>2026-05-25T08:57:58.000Z</time>
      </trkpt>
      <trkpt lat="44.63086" lon="5.20396">
        <ele>1126</ele>
        <time>2026-05-25T08:57:59.000Z</time>
      </trkpt>
      <trkpt lat="44.63086" lon="5.20395">
        <ele>1128</ele>
        <time>2026-05-25T08:58:00.000Z</time>
      </trkpt>
      <trkpt lat="44.63085" lon="5.20394">
        <ele>1128</ele>
        <time>2026-05-25T08:58:01.000Z</time>
      </trkpt>
      <trkpt lat="44.63085" lon="5.20393">
        <ele>1129</ele>
        <time>2026-05-25T08:58:02.000Z</time>
      </trkpt>
      <trkpt lat="44.63085" lon="5.20393">
        <ele>1128</ele>
        <time>2026-05-25T08:58:03.000Z</time>
      </trkpt>
      <trkpt lat="44.63085" lon="5.20393">
        <ele>1128</ele>
        <time>2026-05-25T08:58:04.000Z</time>
      </trkpt>
      <trkpt lat="44.63086" lon="5.20393">
        <ele>1128</ele>
        <time>2026-05-25T08:58:05.000Z</time>
      </trkpt>
      <trkpt lat="44.63086" lon="5.20393">
        <ele>1128</ele>
        <time>2026-05-25T08:58:06.000Z</time>
      </trkpt>
      <trkpt lat="44.63087" lon="5.20393">
        <ele>1127</ele>
        <time>2026-05-25T08:58:07.000Z</time>
      </trkpt>
      <trkpt lat="44.63088" lon="5.20393">
        <ele>1126</ele>
        <time>2026-05-25T08:58:08.000Z</time>
      </trkpt>
      <trkpt lat="44.63089" lon="5.20394">
        <ele>1126</ele>
        <time>2026-05-25T08:58:09.000Z</time>
      </trkpt>
      <trkpt lat="44.63089" lon="5.20394">
        <ele>1127</ele>
        <time>2026-05-25T08:58:10.000Z</time>
      </trkpt>
      <trkpt lat="44.6309" lon="5.20393">
        <ele>1127</ele>
        <time>2026-05-25T08:58:11.000Z</time>
      </trkpt>
      <trkpt lat="44.6309" lon="5.20392">
        <ele>1127</ele>
        <time>2026-05-25T08:58:12.000Z</time>
      </trkpt>
      <trkpt lat="44.6309" lon="5.20391">
        <ele>1127</ele>
        <time>2026-05-25T08:58:13.000Z</time>
      </trkpt>
      <trkpt lat="44.63089" lon="5.2039">
        <ele>1128</ele>
        <time>2026-05-25T08:58:14.000Z</time>
      </trkpt>
      <trkpt lat="44.63089" lon="5.20389">
        <ele>1129</ele>
        <time>2026-05-25T08:58:15.000Z</time>
      </trkpt>
      <trkpt lat="44.63088" lon="5.20389">
        <ele>1130</ele>
        <time>2026-05-25T08:58:16.000Z</time>
      </trkpt>
      <trkpt lat="44.63088" lon="5.20388">
        <ele>1130</ele>
        <time>2026-05-25T08:58:17.000Z</time>
      </trkpt>
      <trkpt lat="44.63088" lon="5.20387">
        <ele>1130</ele>
        <time>2026-05-25T08:58:18.000Z</time>
      </trkpt>
      <trkpt lat="44.63087" lon="5.20385">
        <ele>1131</ele>
        <time>2026-05-25T08:58:19.000Z</time>
      </trkpt>
      <trkpt lat="44.63087" lon="5.20384">
        <ele>1131</ele>
        <time>2026-05-25T08:58:20.000Z</time>
      </trkpt>
      <trkpt lat="44.63087" lon="5.20383">
        <ele>1131</ele>
        <time>2026-05-25T08:58:21.000Z</time>
      </trkpt>
      <trkpt lat="44.63087" lon="5.20383">
        <ele>1131</ele>
        <time>2026-05-25T08:58:22.000Z</time>
      </trkpt>
      <trkpt lat="44.63087" lon="5.20381">
        <ele>1131</ele>
        <time>2026-05-25T08:58:23.000Z</time>
      </trkpt>
      <trkpt lat="44.63087" lon="5.20381">
        <ele>1130</ele>
        <time>2026-05-25T08:58:24.000Z</time>
      </trkpt>
      <trkpt lat="44.63087" lon="5.20379">
        <ele>1130</ele>
        <time>2026-05-25T08:58:25.000Z</time>
      </trkpt>
      <trkpt lat="44.63087" lon="5.20378">
        <ele>1131</ele>
        <time>2026-05-25T08:58:26.000Z</time>
      </trkpt>
      <trkpt lat="44.63086" lon="5.20377">
        <ele>1132</ele>
        <time>2026-05-25T08:58:27.000Z</time>
      </trkpt>
      <trkpt lat="44.63086" lon="5.20375">
        <ele>1131</ele>
        <time>2026-05-25T08:58:28.000Z</time>
      </trkpt>
      <trkpt lat="44.63086" lon="5.20375">
        <ele>1131</ele>
        <time>2026-05-25T08:58:29.000Z</time>
      </trkpt>
      <trkpt lat="44.63085" lon="5.20372">
        <ele>1132</ele>
        <time>2026-05-25T08:58:30.000Z</time>
      </trkpt>
      <trkpt lat="44.63085" lon="5.20372">
        <ele>1132</ele>
        <time>2026-05-25T08:58:31.000Z</time>
      </trkpt>
      <trkpt lat="44.63085" lon="5.20372">
        <ele>1132</ele>
        <time>2026-05-25T08:58:32.000Z</time>
      </trkpt>
      <trkpt lat="44.63084" lon="5.20372">
        <ele>1131</ele>
        <time>2026-05-25T08:58:33.000Z</time>
      </trkpt>
      <trkpt lat="44.63083" lon="5.20372">
        <ele>1132</ele>
        <time>2026-05-25T08:58:34.000Z</time>
      </trkpt>
      <trkpt lat="44.63083" lon="5.20371">
        <ele>1133</ele>
        <time>2026-05-25T08:58:35.000Z</time>
      </trkpt>
      <trkpt lat="44.63083" lon="5.20369">
        <ele>1133</ele>
        <time>2026-05-25T08:58:36.000Z</time>
      </trkpt>
      <trkpt lat="44.63084" lon="5.20368">
        <ele>1134</ele>
        <time>2026-05-25T08:58:37.000Z</time>
      </trkpt>
      <trkpt lat="44.63083" lon="5.20367">
        <ele>1135</ele>
        <time>2026-05-25T08:58:38.000Z</time>
      </trkpt>
      <trkpt lat="44.63083" lon="5.20366">
        <ele>1136</ele>
        <time>2026-05-25T08:58:39.000Z</time>
      </trkpt>
      <trkpt lat="44.63083" lon="5.20365">
        <ele>1137</ele>
        <time>2026-05-25T08:58:40.000Z</time>
      </trkpt>
      <trkpt lat="44.63082" lon="5.20364">
        <ele>1137</ele>
        <time>2026-05-25T08:58:41.000Z</time>
      </trkpt>
      <trkpt lat="44.63083" lon="5.20363">
        <ele>1137</ele>
        <time>2026-05-25T08:58:42.000Z</time>
      </trkpt>
      <trkpt lat="44.63083" lon="5.20362">
        <ele>1137</ele>
        <time>2026-05-25T08:58:43.000Z</time>
      </trkpt>
      <trkpt lat="44.63083" lon="5.20361">
        <ele>1137</ele>
        <time>2026-05-25T08:58:44.000Z</time>
      </trkpt>
      <trkpt lat="44.63082" lon="5.20359">
        <ele>1137</ele>
        <time>2026-05-25T08:58:45.000Z</time>
      </trkpt>
      <trkpt lat="44.63082" lon="5.20357">
        <ele>1137</ele>
        <time>2026-05-25T08:58:46.000Z</time>
      </trkpt>
      <trkpt lat="44.63082" lon="5.20356">
        <ele>1137</ele>
        <time>2026-05-25T08:58:47.000Z</time>
      </trkpt>
      <trkpt lat="44.63081" lon="5.20354">
        <ele>1137</ele>
        <time>2026-05-25T08:58:48.000Z</time>
      </trkpt>
      <trkpt lat="44.6308" lon="5.20353">
        <ele>1137</ele>
        <time>2026-05-25T08:58:49.000Z</time>
      </trkpt>
      <trkpt lat="44.6308" lon="5.20352">
        <ele>1136</ele>
        <time>2026-05-25T08:58:50.000Z</time>
      </trkpt>
      <trkpt lat="44.6308" lon="5.20353">
        <ele>1134</ele>
        <time>2026-05-25T08:58:51.000Z</time>
      </trkpt>
      <trkpt lat="44.6308" lon="5.20353">
        <ele>1134</ele>
        <time>2026-05-25T08:58:52.000Z</time>
      </trkpt>
      <trkpt lat="44.6308" lon="5.20353">
        <ele>1134</ele>
        <time>2026-05-25T08:58:53.000Z</time>
      </trkpt>
      <trkpt lat="44.6308" lon="5.20353">
        <ele>1134</ele>
        <time>2026-05-25T08:58:54.000Z</time>
      </trkpt>
      <trkpt lat="44.6308" lon="5.20353">
        <ele>1134</ele>
        <time>2026-05-25T08:58:55.000Z</time>
      </trkpt>
      <trkpt lat="44.6308" lon="5.20353">
        <ele>1134</ele>
        <time>2026-05-25T08:58:56.000Z</time>
      </trkpt>
      <trkpt lat="44.6308" lon="5.20353">
        <ele>1134</ele>
        <time>2026-05-25T08:58:57.000Z</time>
      </trkpt>
      <trkpt lat="44.6308" lon="5.20353">
        <ele>1134</ele>
        <time>2026-05-25T08:58:58.000Z</time>
      </trkpt>
      <trkpt lat="44.6308" lon="5.20353">
        <ele>1134</ele>
        <time>2026-05-25T08:58:59.000Z</time>
      </trkpt>
      <trkpt lat="44.6308" lon="5.20353">
        <ele>1134</ele>
        <time>2026-05-25T08:59:00.000Z</time>
      </trkpt>
      <trkpt lat="44.6308" lon="5.20353">
        <ele>1134</ele>
        <time>2026-05-25T08:59:01.000Z</time>
      </trkpt>
      <trkpt lat="44.6308" lon="5.20353">
        <ele>1134</ele>
        <time>2026-05-25T08:59:02.000Z</time>
      </trkpt>
      <trkpt lat="44.6308" lon="5.20353">
        <ele>1134</ele>
        <time>2026-05-25T08:59:03.000Z</time>
      </trkpt>
      <trkpt lat="44.6308" lon="5.20353">
        <ele>1134</ele>
        <time>2026-05-25T08:59:04.000Z</time>
      </trkpt>
      <trkpt lat="44.6308" lon="5.20352">
        <ele>1135</ele>
        <time>2026-05-25T08:59:05.000Z</time>
      </trkpt>
      <trkpt lat="44.6308" lon="5.20351">
        <ele>1136</ele>
        <time>2026-05-25T08:59:06.000Z</time>
      </trkpt>
      <trkpt lat="44.6308" lon="5.20351">
        <ele>1136</ele>
        <time>2026-05-25T08:59:07.000Z</time>
      </trkpt>
      <trkpt lat="44.63081" lon="5.2035">
        <ele>1136</ele>
        <time>2026-05-25T08:59:08.000Z</time>
      </trkpt>
      <trkpt lat="44.63082" lon="5.20349">
        <ele>1136</ele>
        <time>2026-05-25T08:59:09.000Z</time>
      </trkpt>
      <trkpt lat="44.63083" lon="5.20348">
        <ele>1136</ele>
        <time>2026-05-25T08:59:10.000Z</time>
      </trkpt>
      <trkpt lat="44.63084" lon="5.20349">
        <ele>1136</ele>
        <time>2026-05-25T08:59:11.000Z</time>
      </trkpt>
      <trkpt lat="44.63085" lon="5.2035">
        <ele>1136</ele>
        <time>2026-05-25T08:59:12.000Z</time>
      </trkpt>
      <trkpt lat="44.63086" lon="5.2035">
        <ele>1135</ele>
        <time>2026-05-25T08:59:13.000Z</time>
      </trkpt>
      <trkpt lat="44.63087" lon="5.2035">
        <ele>1135</ele>
        <time>2026-05-25T08:59:14.000Z</time>
      </trkpt>
      <trkpt lat="44.63087" lon="5.20351">
        <ele>1135</ele>
        <time>2026-05-25T08:59:15.000Z</time>
      </trkpt>
      <trkpt lat="44.63088" lon="5.20351">
        <ele>1135</ele>
        <time>2026-05-25T08:59:16.000Z</time>
      </trkpt>
      <trkpt lat="44.63088" lon="5.2035">
        <ele>1135</ele>
        <time>2026-05-25T08:59:17.000Z</time>
      </trkpt>
      <trkpt lat="44.63088" lon="5.20349">
        <ele>1136</ele>
        <time>2026-05-25T08:59:18.000Z</time>
      </trkpt>
      <trkpt lat="44.63089" lon="5.20348">
        <ele>1136</ele>
        <time>2026-05-25T08:59:19.000Z</time>
      </trkpt>
      <trkpt lat="44.63089" lon="5.20347">
        <ele>1136</ele>
        <time>2026-05-25T08:59:20.000Z</time>
      </trkpt>
      <trkpt lat="44.63088" lon="5.20344">
        <ele>1137</ele>
        <time>2026-05-25T08:59:21.000Z</time>
      </trkpt>
      <trkpt lat="44.63088" lon="5.20344">
        <ele>1137</ele>
        <time>2026-05-25T08:59:22.000Z</time>
      </trkpt>
      <trkpt lat="44.63088" lon="5.20343">
        <ele>1137</ele>
        <time>2026-05-25T08:59:23.000Z</time>
      </trkpt>
      <trkpt lat="44.63088" lon="5.20341">
        <ele>1138</ele>
        <time>2026-05-25T08:59:24.000Z</time>
      </trkpt>
      <trkpt lat="44.63088" lon="5.20341">
        <ele>1137</ele>
        <time>2026-05-25T08:59:25.000Z</time>
      </trkpt>
      <trkpt lat="44.63088" lon="5.2034">
        <ele>1137</ele>
        <time>2026-05-25T08:59:26.000Z</time>
      </trkpt>
      <trkpt lat="44.63088" lon="5.20339">
        <ele>1138</ele>
        <time>2026-05-25T08:59:27.000Z</time>
      </trkpt>
      <trkpt lat="44.63088" lon="5.20338">
        <ele>1138</ele>
        <time>2026-05-25T08:59:28.000Z</time>
      </trkpt>
      <trkpt lat="44.63088" lon="5.20337">
        <ele>1138</ele>
        <time>2026-05-25T08:59:29.000Z</time>
      </trkpt>
      <trkpt lat="44.63089" lon="5.20336">
        <ele>1139</ele>
        <time>2026-05-25T08:59:30.000Z</time>
      </trkpt>
      <trkpt lat="44.63089" lon="5.20336">
        <ele>1139</ele>
        <time>2026-05-25T08:59:31.000Z</time>
      </trkpt>
      <trkpt lat="44.6309" lon="5.20333">
        <ele>1140</ele>
        <time>2026-05-25T08:59:32.000Z</time>
      </trkpt>
      <trkpt lat="44.63089" lon="5.20333">
        <ele>1140</ele>
        <time>2026-05-25T08:59:33.000Z</time>
      </trkpt>
      <trkpt lat="44.63089" lon="5.20331">
        <ele>1140</ele>
        <time>2026-05-25T08:59:34.000Z</time>
      </trkpt>
      <trkpt lat="44.63089" lon="5.2033">
        <ele>1140</ele>
        <time>2026-05-25T08:59:35.000Z</time>
      </trkpt>
      <trkpt lat="44.63089" lon="5.20329">
        <ele>1140</ele>
        <time>2026-05-25T08:59:36.000Z</time>
      </trkpt>
      <trkpt lat="44.63088" lon="5.20328">
        <ele>1139</ele>
        <time>2026-05-25T08:59:37.000Z</time>
      </trkpt>
      <trkpt lat="44.63088" lon="5.20327">
        <ele>1139</ele>
        <time>2026-05-25T08:59:38.000Z</time>
      </trkpt>
      <trkpt lat="44.63087" lon="5.20326">
        <ele>1139</ele>
        <time>2026-05-25T08:59:39.000Z</time>
      </trkpt>
      <trkpt lat="44.63087" lon="5.20325">
        <ele>1139</ele>
        <time>2026-05-25T08:59:40.000Z</time>
      </trkpt>
      <trkpt lat="44.63087" lon="5.20324">
        <ele>1139</ele>
        <time>2026-05-25T08:59:41.000Z</time>
      </trkpt>
      <trkpt lat="44.63087" lon="5.20324">
        <ele>1139</ele>
        <time>2026-05-25T08:59:42.000Z</time>
      </trkpt>
      <trkpt lat="44.63087" lon="5.20323">
        <ele>1140</ele>
        <time>2026-05-25T08:59:43.000Z</time>
      </trkpt>
      <trkpt lat="44.63086" lon="5.20323">
        <ele>1141</ele>
        <time>2026-05-25T08:59:44.000Z</time>
      </trkpt>
      <trkpt lat="44.63086" lon="5.20322">
        <ele>1141</ele>
        <time>2026-05-25T08:59:45.000Z</time>
      </trkpt>
      <trkpt lat="44.63086" lon="5.2032">
        <ele>1141</ele>
        <time>2026-05-25T08:59:46.000Z</time>
      </trkpt>
      <trkpt lat="44.63086" lon="5.2032">
        <ele>1141</ele>
        <time>2026-05-25T08:59:47.000Z</time>
      </trkpt>
      <trkpt lat="44.63086" lon="5.2032">
        <ele>1141</ele>
        <time>2026-05-25T08:59:48.000Z</time>
      </trkpt>
      <trkpt lat="44.63085" lon="5.20318">
        <ele>1142</ele>
        <time>2026-05-25T08:59:49.000Z</time>
      </trkpt>
      <trkpt lat="44.63085" lon="5.20318">
        <ele>1142</ele>
        <time>2026-05-25T08:59:50.000Z</time>
      </trkpt>
      <trkpt lat="44.63085" lon="5.20319">
        <ele>1144</ele>
        <time>2026-05-25T08:59:51.000Z</time>
      </trkpt>
      <trkpt lat="44.63085" lon="5.20319">
        <ele>1144</ele>
        <time>2026-05-25T08:59:52.000Z</time>
      </trkpt>
      <trkpt lat="44.63085" lon="5.20319">
        <ele>1143</ele>
        <time>2026-05-25T08:59:53.000Z</time>
      </trkpt>
      <trkpt lat="44.63085" lon="5.20319">
        <ele>1143</ele>
        <time>2026-05-25T08:59:54.000Z</time>
      </trkpt>
      <trkpt lat="44.63085" lon="5.20319">
        <ele>1143</ele>
        <time>2026-05-25T08:59:55.000Z</time>
      </trkpt>
      <trkpt lat="44.63085" lon="5.20319">
        <ele>1143</ele>
        <time>2026-05-25T08:59:56.000Z</time>
      </trkpt>
      <trkpt lat="44.63085" lon="5.20319">
        <ele>1143</ele>
        <time>2026-05-25T08:59:57.000Z</time>
      </trkpt>
      <trkpt lat="44.63085" lon="5.20319">
        <ele>1143</ele>
        <time>2026-05-25T08:59:58.000Z</time>
      </trkpt>
      <trkpt lat="44.63085" lon="5.20319">
        <ele>1143</ele>
        <time>2026-05-25T08:59:59.000Z</time>
      </trkpt>
      <trkpt lat="44.63085" lon="5.20319">
        <ele>1143</ele>
        <time>2026-05-25T09:00:00.000Z</time>
      </trkpt>
      <trkpt lat="44.63085" lon="5.20319">
        <ele>1143</ele>
        <time>2026-05-25T09:00:01.000Z</time>
      </trkpt>
      <trkpt lat="44.63087" lon="5.20319">
        <ele>1143</ele>
        <time>2026-05-25T09:00:02.000Z</time>
      </trkpt>
      <trkpt lat="44.63088" lon="5.20319">
        <ele>1142</ele>
        <time>2026-05-25T09:00:03.000Z</time>
      </trkpt>
      <trkpt lat="44.63088" lon="5.2032">
        <ele>1142</ele>
        <time>2026-05-25T09:00:04.000Z</time>
      </trkpt>
      <trkpt lat="44.63089" lon="5.20321">
        <ele>1142</ele>
        <time>2026-05-25T09:00:05.000Z</time>
      </trkpt>
      <trkpt lat="44.6309" lon="5.20321">
        <ele>1142</ele>
        <time>2026-05-25T09:00:06.000Z</time>
      </trkpt>
      <trkpt lat="44.63091" lon="5.20321">
        <ele>1142</ele>
        <time>2026-05-25T09:00:07.000Z</time>
      </trkpt>
      <trkpt lat="44.63091" lon="5.20322">
        <ele>1141</ele>
        <time>2026-05-25T09:00:08.000Z</time>
      </trkpt>
      <trkpt lat="44.63092" lon="5.20323">
        <ele>1141</ele>
        <time>2026-05-25T09:00:09.000Z</time>
      </trkpt>
      <trkpt lat="44.63093" lon="5.20324">
        <ele>1141</ele>
        <time>2026-05-25T09:00:10.000Z</time>
      </trkpt>
      <trkpt lat="44.63094" lon="5.20325">
        <ele>1141</ele>
        <time>2026-05-25T09:00:11.000Z</time>
      </trkpt>
      <trkpt lat="44.63094" lon="5.20326">
        <ele>1141</ele>
        <time>2026-05-25T09:00:12.000Z</time>
      </trkpt>
      <trkpt lat="44.63095" lon="5.20327">
        <ele>1141</ele>
        <time>2026-05-25T09:00:13.000Z</time>
      </trkpt>
      <trkpt lat="44.63096" lon="5.20328">
        <ele>1141</ele>
        <time>2026-05-25T09:00:14.000Z</time>
      </trkpt>
      <trkpt lat="44.63097" lon="5.20328">
        <ele>1140</ele>
        <time>2026-05-25T09:00:15.000Z</time>
      </trkpt>
      <trkpt lat="44.63098" lon="5.20328">
        <ele>1141</ele>
        <time>2026-05-25T09:00:16.000Z</time>
      </trkpt>
      <trkpt lat="44.63099" lon="5.20328">
        <ele>1141</ele>
        <time>2026-05-25T09:00:17.000Z</time>
      </trkpt>
      <trkpt lat="44.63099" lon="5.20326">
        <ele>1142</ele>
        <time>2026-05-25T09:00:18.000Z</time>
      </trkpt>
      <trkpt lat="44.63099" lon="5.20324">
        <ele>1142</ele>
        <time>2026-05-25T09:00:19.000Z</time>
      </trkpt>
      <trkpt lat="44.63099" lon="5.20324">
        <ele>1142</ele>
        <time>2026-05-25T09:00:20.000Z</time>
      </trkpt>
      <trkpt lat="44.63098" lon="5.20323">
        <ele>1143</ele>
        <time>2026-05-25T09:00:21.000Z</time>
      </trkpt>
      <trkpt lat="44.63098" lon="5.20322">
        <ele>1143</ele>
        <time>2026-05-25T09:00:22.000Z</time>
      </trkpt>
      <trkpt lat="44.63098" lon="5.20321">
        <ele>1143</ele>
        <time>2026-05-25T09:00:23.000Z</time>
      </trkpt>
      <trkpt lat="44.63098" lon="5.20321">
        <ele>1143</ele>
        <time>2026-05-25T09:00:24.000Z</time>
      </trkpt>
      <trkpt lat="44.63098" lon="5.20321">
        <ele>1143</ele>
        <time>2026-05-25T09:00:25.000Z</time>
      </trkpt>
      <trkpt lat="44.63097" lon="5.20319">
        <ele>1144</ele>
        <time>2026-05-25T09:00:26.000Z</time>
      </trkpt>
      <trkpt lat="44.63096" lon="5.20319">
        <ele>1144</ele>
        <time>2026-05-25T09:00:27.000Z</time>
      </trkpt>
      <trkpt lat="44.63096" lon="5.20319">
        <ele>1145</ele>
        <time>2026-05-25T09:00:28.000Z</time>
      </trkpt>
      <trkpt lat="44.63095" lon="5.20318">
        <ele>1145</ele>
        <time>2026-05-25T09:00:29.000Z</time>
      </trkpt>
      <trkpt lat="44.63095" lon="5.20316">
        <ele>1146</ele>
        <time>2026-05-25T09:00:30.000Z</time>
      </trkpt>
      <trkpt lat="44.63095" lon="5.20315">
        <ele>1146</ele>
        <time>2026-05-25T09:00:31.000Z</time>
      </trkpt>
      <trkpt lat="44.63095" lon="5.20313">
        <ele>1147</ele>
        <time>2026-05-25T09:00:32.000Z</time>
      </trkpt>
      <trkpt lat="44.63095" lon="5.20312">
        <ele>1147</ele>
        <time>2026-05-25T09:00:33.000Z</time>
      </trkpt>
      <trkpt lat="44.63095" lon="5.20311">
        <ele>1147</ele>
        <time>2026-05-25T09:00:34.000Z</time>
      </trkpt>
      <trkpt lat="44.63094" lon="5.2031">
        <ele>1147</ele>
        <time>2026-05-25T09:00:35.000Z</time>
      </trkpt>
      <trkpt lat="44.63094" lon="5.20308">
        <ele>1147</ele>
        <time>2026-05-25T09:00:36.000Z</time>
      </trkpt>
      <trkpt lat="44.63094" lon="5.20308">
        <ele>1147</ele>
        <time>2026-05-25T09:00:37.000Z</time>
      </trkpt>
      <trkpt lat="44.63094" lon="5.20307">
        <ele>1147</ele>
        <time>2026-05-25T09:00:38.000Z</time>
      </trkpt>
      <trkpt lat="44.63094" lon="5.20306">
        <ele>1147</ele>
        <time>2026-05-25T09:00:39.000Z</time>
      </trkpt>
      <trkpt lat="44.63095" lon="5.20304">
        <ele>1148</ele>
        <time>2026-05-25T09:00:40.000Z</time>
      </trkpt>
      <trkpt lat="44.63095" lon="5.20303">
        <ele>1147</ele>
        <time>2026-05-25T09:00:41.000Z</time>
      </trkpt>
      <trkpt lat="44.63095" lon="5.20303">
        <ele>1148</ele>
        <time>2026-05-25T09:00:42.000Z</time>
      </trkpt>
      <trkpt lat="44.63095" lon="5.20303">
        <ele>1148</ele>
        <time>2026-05-25T09:00:43.000Z</time>
      </trkpt>
      <trkpt lat="44.63095" lon="5.20303">
        <ele>1148</ele>
        <time>2026-05-25T09:00:44.000Z</time>
      </trkpt>
      <trkpt lat="44.63096" lon="5.203">
        <ele>1149</ele>
        <time>2026-05-25T09:00:45.000Z</time>
      </trkpt>
      <trkpt lat="44.63096" lon="5.20299">
        <ele>1149</ele>
        <time>2026-05-25T09:00:46.000Z</time>
      </trkpt>
      <trkpt lat="44.63097" lon="5.20298">
        <ele>1149</ele>
        <time>2026-05-25T09:00:47.000Z</time>
      </trkpt>
      <trkpt lat="44.63097" lon="5.20297">
        <ele>1150</ele>
        <time>2026-05-25T09:00:48.000Z</time>
      </trkpt>
      <trkpt lat="44.63097" lon="5.20295">
        <ele>1150</ele>
        <time>2026-05-25T09:00:49.000Z</time>
      </trkpt>
      <trkpt lat="44.63097" lon="5.20294">
        <ele>1149</ele>
        <time>2026-05-25T09:00:50.000Z</time>
      </trkpt>
      <trkpt lat="44.63097" lon="5.20293">
        <ele>1150</ele>
        <time>2026-05-25T09:00:51.000Z</time>
      </trkpt>
      <trkpt lat="44.63097" lon="5.20291">
        <ele>1150</ele>
        <time>2026-05-25T09:00:52.000Z</time>
      </trkpt>
      <trkpt lat="44.63097" lon="5.2029">
        <ele>1151</ele>
        <time>2026-05-25T09:00:53.000Z</time>
      </trkpt>
      <trkpt lat="44.63097" lon="5.20288">
        <ele>1151</ele>
        <time>2026-05-25T09:00:54.000Z</time>
      </trkpt>
      <trkpt lat="44.63097" lon="5.20288">
        <ele>1151</ele>
        <time>2026-05-25T09:00:55.000Z</time>
      </trkpt>
      <trkpt lat="44.63097" lon="5.20287">
        <ele>1151</ele>
        <time>2026-05-25T09:00:56.000Z</time>
      </trkpt>
      <trkpt lat="44.63097" lon="5.20286">
        <ele>1151</ele>
        <time>2026-05-25T09:00:57.000Z</time>
      </trkpt>
      <trkpt lat="44.63097" lon="5.20285">
        <ele>1151</ele>
        <time>2026-05-25T09:00:58.000Z</time>
      </trkpt>
      <trkpt lat="44.63097" lon="5.20284">
        <ele>1151</ele>
        <time>2026-05-25T09:00:59.000Z</time>
      </trkpt>
      <trkpt lat="44.63097" lon="5.20283">
        <ele>1151</ele>
        <time>2026-05-25T09:01:00.000Z</time>
      </trkpt>
      <trkpt lat="44.63096" lon="5.20282">
        <ele>1151</ele>
        <time>2026-05-25T09:01:01.000Z</time>
      </trkpt>
      <trkpt lat="44.63096" lon="5.20281">
        <ele>1152</ele>
        <time>2026-05-25T09:01:02.000Z</time>
      </trkpt>
      <trkpt lat="44.63096" lon="5.20281">
        <ele>1152</ele>
        <time>2026-05-25T09:01:03.000Z</time>
      </trkpt>
      <trkpt lat="44.63096" lon="5.20281">
        <ele>1152</ele>
        <time>2026-05-25T09:01:04.000Z</time>
      </trkpt>
      <trkpt lat="44.63096" lon="5.20281">
        <ele>1152</ele>
        <time>2026-05-25T09:01:05.000Z</time>
      </trkpt>
      <trkpt lat="44.63096" lon="5.20281">
        <ele>1152</ele>
        <time>2026-05-25T09:01:06.000Z</time>
      </trkpt>
      <trkpt lat="44.63096" lon="5.20281">
        <ele>1152</ele>
        <time>2026-05-25T09:01:07.000Z</time>
      </trkpt>
      <trkpt lat="44.63096" lon="5.20281">
        <ele>1152</ele>
        <time>2026-05-25T09:01:08.000Z</time>
      </trkpt>
      <trkpt lat="44.63098" lon="5.2028">
        <ele>1152</ele>
        <time>2026-05-25T09:01:09.000Z</time>
      </trkpt>
      <trkpt lat="44.63099" lon="5.20281">
        <ele>1152</ele>
        <time>2026-05-25T09:01:10.000Z</time>
      </trkpt>
      <trkpt lat="44.631" lon="5.20282">
        <ele>1151</ele>
        <time>2026-05-25T09:01:11.000Z</time>
      </trkpt>
      <trkpt lat="44.631" lon="5.20283">
        <ele>1151</ele>
        <time>2026-05-25T09:01:12.000Z</time>
      </trkpt>
      <trkpt lat="44.63101" lon="5.20284">
        <ele>1151</ele>
        <time>2026-05-25T09:01:13.000Z</time>
      </trkpt>
      <trkpt lat="44.63102" lon="5.20285">
        <ele>1151</ele>
        <time>2026-05-25T09:01:14.000Z</time>
      </trkpt>
      <trkpt lat="44.63103" lon="5.20285">
        <ele>1151</ele>
        <time>2026-05-25T09:01:15.000Z</time>
      </trkpt>
      <trkpt lat="44.63104" lon="5.20286">
        <ele>1151</ele>
        <time>2026-05-25T09:01:16.000Z</time>
      </trkpt>
      <trkpt lat="44.63104" lon="5.20287">
        <ele>1152</ele>
        <time>2026-05-25T09:01:17.000Z</time>
      </trkpt>
      <trkpt lat="44.63105" lon="5.20288">
        <ele>1152</ele>
        <time>2026-05-25T09:01:18.000Z</time>
      </trkpt>
      <trkpt lat="44.63106" lon="5.20289">
        <ele>1151</ele>
        <time>2026-05-25T09:01:19.000Z</time>
      </trkpt>
      <trkpt lat="44.63107" lon="5.2029">
        <ele>1151</ele>
        <time>2026-05-25T09:01:20.000Z</time>
      </trkpt>
      <trkpt lat="44.63107" lon="5.20291">
        <ele>1152</ele>
        <time>2026-05-25T09:01:21.000Z</time>
      </trkpt>
      <trkpt lat="44.63108" lon="5.20292">
        <ele>1152</ele>
        <time>2026-05-25T09:01:22.000Z</time>
      </trkpt>
      <trkpt lat="44.63108" lon="5.20293">
        <ele>1151</ele>
        <time>2026-05-25T09:01:23.000Z</time>
      </trkpt>
      <trkpt lat="44.63109" lon="5.20294">
        <ele>1151</ele>
        <time>2026-05-25T09:01:24.000Z</time>
      </trkpt>
      <trkpt lat="44.63109" lon="5.20295">
        <ele>1151</ele>
        <time>2026-05-25T09:01:25.000Z</time>
      </trkpt>
      <trkpt lat="44.6311" lon="5.20295">
        <ele>1151</ele>
        <time>2026-05-25T09:01:26.000Z</time>
      </trkpt>
      <trkpt lat="44.63111" lon="5.20296">
        <ele>1151</ele>
        <time>2026-05-25T09:01:27.000Z</time>
      </trkpt>
      <trkpt lat="44.63111" lon="5.20295">
        <ele>1152</ele>
        <time>2026-05-25T09:01:28.000Z</time>
      </trkpt>
      <trkpt lat="44.63111" lon="5.20294">
        <ele>1153</ele>
        <time>2026-05-25T09:01:29.000Z</time>
      </trkpt>
      <trkpt lat="44.63111" lon="5.20293">
        <ele>1154</ele>
        <time>2026-05-25T09:01:30.000Z</time>
      </trkpt>
      <trkpt lat="44.63111" lon="5.2029">
        <ele>1154</ele>
        <time>2026-05-25T09:01:31.000Z</time>
      </trkpt>
      <trkpt lat="44.63111" lon="5.20289">
        <ele>1155</ele>
        <time>2026-05-25T09:01:32.000Z</time>
      </trkpt>
      <trkpt lat="44.63111" lon="5.20288">
        <ele>1155</ele>
        <time>2026-05-25T09:01:33.000Z</time>
      </trkpt>
      <trkpt lat="44.63111" lon="5.20286">
        <ele>1155</ele>
        <time>2026-05-25T09:01:34.000Z</time>
      </trkpt>
      <trkpt lat="44.63111" lon="5.20285">
        <ele>1155</ele>
        <time>2026-05-25T09:01:35.000Z</time>
      </trkpt>
      <trkpt lat="44.63111" lon="5.20284">
        <ele>1155</ele>
        <time>2026-05-25T09:01:36.000Z</time>
      </trkpt>
      <trkpt lat="44.6311" lon="5.20283">
        <ele>1155</ele>
        <time>2026-05-25T09:01:37.000Z</time>
      </trkpt>
      <trkpt lat="44.63109" lon="5.20282">
        <ele>1156</ele>
        <time>2026-05-25T09:01:38.000Z</time>
      </trkpt>
      <trkpt lat="44.63109" lon="5.2028">
        <ele>1156</ele>
        <time>2026-05-25T09:01:39.000Z</time>
      </trkpt>
      <trkpt lat="44.63108" lon="5.20279">
        <ele>1157</ele>
        <time>2026-05-25T09:01:40.000Z</time>
      </trkpt>
      <trkpt lat="44.63107" lon="5.20277">
        <ele>1158</ele>
        <time>2026-05-25T09:01:41.000Z</time>
      </trkpt>
      <trkpt lat="44.63107" lon="5.20276">
        <ele>1159</ele>
        <time>2026-05-25T09:01:42.000Z</time>
      </trkpt>
      <trkpt lat="44.63106" lon="5.20275">
        <ele>1159</ele>
        <time>2026-05-25T09:01:43.000Z</time>
      </trkpt>
      <trkpt lat="44.63106" lon="5.20274">
        <ele>1159</ele>
        <time>2026-05-25T09:01:44.000Z</time>
      </trkpt>
      <trkpt lat="44.63105" lon="5.20273">
        <ele>1159</ele>
        <time>2026-05-25T09:01:45.000Z</time>
      </trkpt>
      <trkpt lat="44.63105" lon="5.20272">
        <ele>1159</ele>
        <time>2026-05-25T09:01:46.000Z</time>
      </trkpt>
      <trkpt lat="44.63104" lon="5.20271">
        <ele>1159</ele>
        <time>2026-05-25T09:01:47.000Z</time>
      </trkpt>
      <trkpt lat="44.63104" lon="5.20271">
        <ele>1159</ele>
        <time>2026-05-25T09:01:48.000Z</time>
      </trkpt>
      <trkpt lat="44.63104" lon="5.20271">
        <ele>1159</ele>
        <time>2026-05-25T09:01:49.000Z</time>
      </trkpt>
      <trkpt lat="44.63104" lon="5.20271">
        <ele>1159</ele>
        <time>2026-05-25T09:01:50.000Z</time>
      </trkpt>
      <trkpt lat="44.63104" lon="5.20271">
        <ele>1159</ele>
        <time>2026-05-25T09:01:51.000Z</time>
      </trkpt>
      <trkpt lat="44.63104" lon="5.20271">
        <ele>1159</ele>
        <time>2026-05-25T09:01:52.000Z</time>
      </trkpt>
      <trkpt lat="44.63104" lon="5.20271">
        <ele>1159</ele>
        <time>2026-05-25T09:01:53.000Z</time>
      </trkpt>
      <trkpt lat="44.63104" lon="5.20271">
        <ele>1159</ele>
        <time>2026-05-25T09:01:54.000Z</time>
      </trkpt>
      <trkpt lat="44.63104" lon="5.20271">
        <ele>1159</ele>
        <time>2026-05-25T09:01:55.000Z</time>
      </trkpt>
      <trkpt lat="44.63104" lon="5.20271">
        <ele>1159</ele>
        <time>2026-05-25T09:01:56.000Z</time>
      </trkpt>
      <trkpt lat="44.63104" lon="5.20271">
        <ele>1159</ele>
        <time>2026-05-25T09:01:57.000Z</time>
      </trkpt>
      <trkpt lat="44.63104" lon="5.20271">
        <ele>1159</ele>
        <time>2026-05-25T09:01:58.000Z</time>
      </trkpt>
      <trkpt lat="44.63104" lon="5.20271">
        <ele>1159</ele>
        <time>2026-05-25T09:01:59.000Z</time>
      </trkpt>
      <trkpt lat="44.63104" lon="5.20271">
        <ele>1159</ele>
        <time>2026-05-25T09:02:00.000Z</time>
      </trkpt>
      <trkpt lat="44.63104" lon="5.20271">
        <ele>1159</ele>
        <time>2026-05-25T09:02:01.000Z</time>
      </trkpt>
      <trkpt lat="44.63104" lon="5.20271">
        <ele>1159</ele>
        <time>2026-05-25T09:02:02.000Z</time>
      </trkpt>
      <trkpt lat="44.63104" lon="5.20271">
        <ele>1159</ele>
        <time>2026-05-25T09:02:03.000Z</time>
      </trkpt>
      <trkpt lat="44.63104" lon="5.20271">
        <ele>1159</ele>
        <time>2026-05-25T09:02:04.000Z</time>
      </trkpt>
      <trkpt lat="44.63104" lon="5.20271">
        <ele>1159</ele>
        <time>2026-05-25T09:02:05.000Z</time>
      </trkpt>
      <trkpt lat="44.63104" lon="5.20271">
        <ele>1159</ele>
        <time>2026-05-25T09:02:06.000Z</time>
      </trkpt>
      <trkpt lat="44.63104" lon="5.20271">
        <ele>1159</ele>
        <time>2026-05-25T09:02:07.000Z</time>
      </trkpt>
      <trkpt lat="44.63104" lon="5.20271">
        <ele>1159</ele>
        <time>2026-05-25T09:02:08.000Z</time>
      </trkpt>
      <trkpt lat="44.63104" lon="5.20271">
        <ele>1159</ele>
        <time>2026-05-25T09:02:09.000Z</time>
      </trkpt>
      <trkpt lat="44.63104" lon="5.20271">
        <ele>1159</ele>
        <time>2026-05-25T09:02:10.000Z</time>
      </trkpt>
      <trkpt lat="44.63104" lon="5.20271">
        <ele>1159</ele>
        <time>2026-05-25T09:02:11.000Z</time>
      </trkpt>
      <trkpt lat="44.63104" lon="5.20271">
        <ele>1159</ele>
        <time>2026-05-25T09:02:12.000Z</time>
      </trkpt>
      <trkpt lat="44.63104" lon="5.20268">
        <ele>1158</ele>
        <time>2026-05-25T09:02:13.000Z</time>
      </trkpt>
      <trkpt lat="44.63104" lon="5.20267">
        <ele>1158</ele>
        <time>2026-05-25T09:02:14.000Z</time>
      </trkpt>
      <trkpt lat="44.63104" lon="5.20266">
        <ele>1158</ele>
        <time>2026-05-25T09:02:15.000Z</time>
      </trkpt>
      <trkpt lat="44.63104" lon="5.20264">
        <ele>1159</ele>
        <time>2026-05-25T09:02:16.000Z</time>
      </trkpt>
      <trkpt lat="44.63104" lon="5.20263">
        <ele>1159</ele>
        <time>2026-05-25T09:02:17.000Z</time>
      </trkpt>
      <trkpt lat="44.63104" lon="5.20262">
        <ele>1159</ele>
        <time>2026-05-25T09:02:18.000Z</time>
      </trkpt>
      <trkpt lat="44.63103" lon="5.20262">
        <ele>1158</ele>
        <time>2026-05-25T09:02:19.000Z</time>
      </trkpt>
      <trkpt lat="44.63104" lon="5.20262">
        <ele>1158</ele>
        <time>2026-05-25T09:02:20.000Z</time>
      </trkpt>
      <trkpt lat="44.63105" lon="5.20262">
        <ele>1159</ele>
        <time>2026-05-25T09:02:21.000Z</time>
      </trkpt>
      <trkpt lat="44.63105" lon="5.20263">
        <ele>1158</ele>
        <time>2026-05-25T09:02:22.000Z</time>
      </trkpt>
      <trkpt lat="44.63106" lon="5.20264">
        <ele>1157</ele>
        <time>2026-05-25T09:02:23.000Z</time>
      </trkpt>
      <trkpt lat="44.63106" lon="5.20264">
        <ele>1157</ele>
        <time>2026-05-25T09:02:24.000Z</time>
      </trkpt>
      <trkpt lat="44.63107" lon="5.20265">
        <ele>1157</ele>
        <time>2026-05-25T09:02:25.000Z</time>
      </trkpt>
      <trkpt lat="44.63108" lon="5.20266">
        <ele>1156</ele>
        <time>2026-05-25T09:02:26.000Z</time>
      </trkpt>
      <trkpt lat="44.63108" lon="5.20267">
        <ele>1156</ele>
        <time>2026-05-25T09:02:27.000Z</time>
      </trkpt>
      <trkpt lat="44.63109" lon="5.20268">
        <ele>1157</ele>
        <time>2026-05-25T09:02:28.000Z</time>
      </trkpt>
      <trkpt lat="44.63109" lon="5.20269">
        <ele>1157</ele>
        <time>2026-05-25T09:02:29.000Z</time>
      </trkpt>
      <trkpt lat="44.6311" lon="5.2027">
        <ele>1157</ele>
        <time>2026-05-25T09:02:30.000Z</time>
      </trkpt>
      <trkpt lat="44.6311" lon="5.20271">
        <ele>1157</ele>
        <time>2026-05-25T09:02:31.000Z</time>
      </trkpt>
      <trkpt lat="44.6311" lon="5.20272">
        <ele>1157</ele>
        <time>2026-05-25T09:02:32.000Z</time>
      </trkpt>
      <trkpt lat="44.63111" lon="5.20272">
        <ele>1158</ele>
        <time>2026-05-25T09:02:33.000Z</time>
      </trkpt>
      <trkpt lat="44.63112" lon="5.20273">
        <ele>1158</ele>
        <time>2026-05-25T09:02:34.000Z</time>
      </trkpt>
      <trkpt lat="44.63113" lon="5.20272">
        <ele>1158</ele>
        <time>2026-05-25T09:02:35.000Z</time>
      </trkpt>
      <trkpt lat="44.63113" lon="5.20271">
        <ele>1159</ele>
        <time>2026-05-25T09:02:36.000Z</time>
      </trkpt>
      <trkpt lat="44.63113" lon="5.20269">
        <ele>1160</ele>
        <time>2026-05-25T09:02:37.000Z</time>
      </trkpt>
      <trkpt lat="44.63113" lon="5.20267">
        <ele>1160</ele>
        <time>2026-05-25T09:02:38.000Z</time>
      </trkpt>
      <trkpt lat="44.63113" lon="5.20265">
        <ele>1160</ele>
        <time>2026-05-25T09:02:39.000Z</time>
      </trkpt>
      <trkpt lat="44.63112" lon="5.20264">
        <ele>1160</ele>
        <time>2026-05-25T09:02:40.000Z</time>
      </trkpt>
      <trkpt lat="44.63113" lon="5.20263">
        <ele>1160</ele>
        <time>2026-05-25T09:02:41.000Z</time>
      </trkpt>
      <trkpt lat="44.63113" lon="5.20261">
        <ele>1160</ele>
        <time>2026-05-25T09:02:42.000Z</time>
      </trkpt>
      <trkpt lat="44.63113" lon="5.2026">
        <ele>1160</ele>
        <time>2026-05-25T09:02:43.000Z</time>
      </trkpt>
      <trkpt lat="44.63113" lon="5.20259">
        <ele>1159</ele>
        <time>2026-05-25T09:02:44.000Z</time>
      </trkpt>
      <trkpt lat="44.63113" lon="5.20258">
        <ele>1159</ele>
        <time>2026-05-25T09:02:45.000Z</time>
      </trkpt>
      <trkpt lat="44.63113" lon="5.20257">
        <ele>1159</ele>
        <time>2026-05-25T09:02:46.000Z</time>
      </trkpt>
      <trkpt lat="44.63113" lon="5.20257">
        <ele>1159</ele>
        <time>2026-05-25T09:02:47.000Z</time>
      </trkpt>
      <trkpt lat="44.63113" lon="5.20256">
        <ele>1160</ele>
        <time>2026-05-25T09:02:48.000Z</time>
      </trkpt>
      <trkpt lat="44.63113" lon="5.20255">
        <ele>1160</ele>
        <time>2026-05-25T09:02:49.000Z</time>
      </trkpt>
      <trkpt lat="44.63113" lon="5.20255">
        <ele>1160</ele>
        <time>2026-05-25T09:02:50.000Z</time>
      </trkpt>
      <trkpt lat="44.63113" lon="5.20255">
        <ele>1160</ele>
        <time>2026-05-25T09:02:51.000Z</time>
      </trkpt>
      <trkpt lat="44.63112" lon="5.20253">
        <ele>1161</ele>
        <time>2026-05-25T09:02:52.000Z</time>
      </trkpt>
      <trkpt lat="44.63112" lon="5.20253">
        <ele>1160</ele>
        <time>2026-05-25T09:02:53.000Z</time>
      </trkpt>
      <trkpt lat="44.63112" lon="5.20251">
        <ele>1161</ele>
        <time>2026-05-25T09:02:54.000Z</time>
      </trkpt>
      <trkpt lat="44.63113" lon="5.2025">
        <ele>1160</ele>
        <time>2026-05-25T09:02:55.000Z</time>
      </trkpt>
      <trkpt lat="44.63113" lon="5.2025">
        <ele>1160</ele>
        <time>2026-05-25T09:02:56.000Z</time>
      </trkpt>
      <trkpt lat="44.63113" lon="5.2025">
        <ele>1160</ele>
        <time>2026-05-25T09:02:57.000Z</time>
      </trkpt>
      <trkpt lat="44.63113" lon="5.20249">
        <ele>1161</ele>
        <time>2026-05-25T09:02:58.000Z</time>
      </trkpt>
      <trkpt lat="44.63114" lon="5.20248">
        <ele>1161</ele>
        <time>2026-05-25T09:02:59.000Z</time>
      </trkpt>
      <trkpt lat="44.63115" lon="5.20248">
        <ele>1161</ele>
        <time>2026-05-25T09:03:00.000Z</time>
      </trkpt>
      <trkpt lat="44.63115" lon="5.20248">
        <ele>1160</ele>
        <time>2026-05-25T09:03:01.000Z</time>
      </trkpt>
      <trkpt lat="44.63115" lon="5.20248">
        <ele>1160</ele>
        <time>2026-05-25T09:03:02.000Z</time>
      </trkpt>
      <trkpt lat="44.63116" lon="5.20249">
        <ele>1161</ele>
        <time>2026-05-25T09:03:03.000Z</time>
      </trkpt>
      <trkpt lat="44.63117" lon="5.2025">
        <ele>1161</ele>
        <time>2026-05-25T09:03:04.000Z</time>
      </trkpt>
      <trkpt lat="44.63117" lon="5.20251">
        <ele>1161</ele>
        <time>2026-05-25T09:03:05.000Z</time>
      </trkpt>
      <trkpt lat="44.63117" lon="5.20252">
        <ele>1161</ele>
        <time>2026-05-25T09:03:06.000Z</time>
      </trkpt>
      <trkpt lat="44.63118" lon="5.20253">
        <ele>1161</ele>
        <time>2026-05-25T09:03:07.000Z</time>
      </trkpt>
      <trkpt lat="44.63118" lon="5.20254">
        <ele>1162</ele>
        <time>2026-05-25T09:03:08.000Z</time>
      </trkpt>
      <trkpt lat="44.63119" lon="5.20255">
        <ele>1162</ele>
        <time>2026-05-25T09:03:09.000Z</time>
      </trkpt>
      <trkpt lat="44.63119" lon="5.20256">
        <ele>1163</ele>
        <time>2026-05-25T09:03:10.000Z</time>
      </trkpt>
      <trkpt lat="44.63119" lon="5.20257">
        <ele>1163</ele>
        <time>2026-05-25T09:03:11.000Z</time>
      </trkpt>
      <trkpt lat="44.63119" lon="5.20257">
        <ele>1163</ele>
        <time>2026-05-25T09:03:12.000Z</time>
      </trkpt>
      <trkpt lat="44.63119" lon="5.20257">
        <ele>1163</ele>
        <time>2026-05-25T09:03:13.000Z</time>
      </trkpt>
      <trkpt lat="44.63119" lon="5.20257">
        <ele>1163</ele>
        <time>2026-05-25T09:03:14.000Z</time>
      </trkpt>
      <trkpt lat="44.63121" lon="5.2026">
        <ele>1163</ele>
        <time>2026-05-25T09:03:15.000Z</time>
      </trkpt>
      <trkpt lat="44.63122" lon="5.2026">
        <ele>1163</ele>
        <time>2026-05-25T09:03:16.000Z</time>
      </trkpt>
      <trkpt lat="44.63122" lon="5.2026">
        <ele>1164</ele>
        <time>2026-05-25T09:03:17.000Z</time>
      </trkpt>
      <trkpt lat="44.63123" lon="5.2026">
        <ele>1164</ele>
        <time>2026-05-25T09:03:18.000Z</time>
      </trkpt>
      <trkpt lat="44.63123" lon="5.2026">
        <ele>1164</ele>
        <time>2026-05-25T09:03:19.000Z</time>
      </trkpt>
      <trkpt lat="44.63124" lon="5.2026">
        <ele>1164</ele>
        <time>2026-05-25T09:03:20.000Z</time>
      </trkpt>
      <trkpt lat="44.63124" lon="5.2026">
        <ele>1164</ele>
        <time>2026-05-25T09:03:21.000Z</time>
      </trkpt>
      <trkpt lat="44.63124" lon="5.20259">
        <ele>1165</ele>
        <time>2026-05-25T09:03:22.000Z</time>
      </trkpt>
      <trkpt lat="44.63124" lon="5.20259">
        <ele>1165</ele>
        <time>2026-05-25T09:03:23.000Z</time>
      </trkpt>
      <trkpt lat="44.63124" lon="5.20259">
        <ele>1165</ele>
        <time>2026-05-25T09:03:24.000Z</time>
      </trkpt>
      <trkpt lat="44.63124" lon="5.20259">
        <ele>1165</ele>
        <time>2026-05-25T09:03:25.000Z</time>
      </trkpt>
      <trkpt lat="44.63124" lon="5.20259">
        <ele>1165</ele>
        <time>2026-05-25T09:03:26.000Z</time>
      </trkpt>
      <trkpt lat="44.63124" lon="5.20259">
        <ele>1165</ele>
        <time>2026-05-25T09:03:27.000Z</time>
      </trkpt>
      <trkpt lat="44.63124" lon="5.20259">
        <ele>1165</ele>
        <time>2026-05-25T09:03:28.000Z</time>
      </trkpt>
      <trkpt lat="44.63124" lon="5.20259">
        <ele>1165</ele>
        <time>2026-05-25T09:03:29.000Z</time>
      </trkpt>
      <trkpt lat="44.63124" lon="5.20259">
        <ele>1165</ele>
        <time>2026-05-25T09:03:30.000Z</time>
      </trkpt>
      <trkpt lat="44.63124" lon="5.20259">
        <ele>1165</ele>
        <time>2026-05-25T09:03:31.000Z</time>
      </trkpt>
      <trkpt lat="44.63124" lon="5.20259">
        <ele>1165</ele>
        <time>2026-05-25T09:03:32.000Z</time>
      </trkpt>
      <trkpt lat="44.63124" lon="5.20259">
        <ele>1165</ele>
        <time>2026-05-25T09:03:33.000Z</time>
      </trkpt>
      <trkpt lat="44.63124" lon="5.20259">
        <ele>1165</ele>
        <time>2026-05-25T09:03:34.000Z</time>
      </trkpt>
      <trkpt lat="44.63124" lon="5.20259">
        <ele>1165</ele>
        <time>2026-05-25T09:03:35.000Z</time>
      </trkpt>
      <trkpt lat="44.63124" lon="5.20259">
        <ele>1165</ele>
        <time>2026-05-25T09:03:36.000Z</time>
      </trkpt>
      <trkpt lat="44.63124" lon="5.20259">
        <ele>1165</ele>
        <time>2026-05-25T09:03:37.000Z</time>
      </trkpt>
      <trkpt lat="44.63124" lon="5.20259">
        <ele>1165</ele>
        <time>2026-05-25T09:03:38.000Z</time>
      </trkpt>
      <trkpt lat="44.63124" lon="5.20259">
        <ele>1165</ele>
        <time>2026-05-25T09:03:39.000Z</time>
      </trkpt>
      <trkpt lat="44.63124" lon="5.20259">
        <ele>1165</ele>
        <time>2026-05-25T09:03:40.000Z</time>
      </trkpt>
      <trkpt lat="44.63124" lon="5.20259">
        <ele>1165</ele>
        <time>2026-05-25T09:03:41.000Z</time>
      </trkpt>
      <trkpt lat="44.63124" lon="5.20259">
        <ele>1165</ele>
        <time>2026-05-25T09:03:42.000Z</time>
      </trkpt>
      <trkpt lat="44.63125" lon="5.20262">
        <ele>1163</ele>
        <time>2026-05-25T09:03:43.000Z</time>
      </trkpt>
      <trkpt lat="44.63125" lon="5.20263">
        <ele>1164</ele>
        <time>2026-05-25T09:03:44.000Z</time>
      </trkpt>
      <trkpt lat="44.63125" lon="5.20264">
        <ele>1164</ele>
        <time>2026-05-25T09:03:45.000Z</time>
      </trkpt>
      <trkpt lat="44.63125" lon="5.20265">
        <ele>1164</ele>
        <time>2026-05-25T09:03:46.000Z</time>
      </trkpt>
      <trkpt lat="44.63125" lon="5.20265">
        <ele>1164</ele>
        <time>2026-05-25T09:03:47.000Z</time>
      </trkpt>
      <trkpt lat="44.63125" lon="5.20265">
        <ele>1164</ele>
        <time>2026-05-25T09:03:48.000Z</time>
      </trkpt>
      <trkpt lat="44.63127" lon="5.20269">
        <ele>1165</ele>
        <time>2026-05-25T09:03:49.000Z</time>
      </trkpt>
      <trkpt lat="44.63128" lon="5.20271">
        <ele>1165</ele>
        <time>2026-05-25T09:03:50.000Z</time>
      </trkpt>
      <trkpt lat="44.63128" lon="5.20271">
        <ele>1165</ele>
        <time>2026-05-25T09:03:51.000Z</time>
      </trkpt>
      <trkpt lat="44.63129" lon="5.20271">
        <ele>1166</ele>
        <time>2026-05-25T09:03:52.000Z</time>
      </trkpt>
      <trkpt lat="44.63129" lon="5.20271">
        <ele>1166</ele>
        <time>2026-05-25T09:03:53.000Z</time>
      </trkpt>
      <trkpt lat="44.63129" lon="5.20271">
        <ele>1166</ele>
        <time>2026-05-25T09:03:54.000Z</time>
      </trkpt>
      <trkpt lat="44.6313" lon="5.20273">
        <ele>1168</ele>
        <time>2026-05-25T09:03:55.000Z</time>
      </trkpt>
      <trkpt lat="44.6313" lon="5.20273">
        <ele>1168</ele>
        <time>2026-05-25T09:03:56.000Z</time>
      </trkpt>
      <trkpt lat="44.63131" lon="5.20274">
        <ele>1168</ele>
        <time>2026-05-25T09:03:57.000Z</time>
      </trkpt>
      <trkpt lat="44.63131" lon="5.20274">
        <ele>1169</ele>
        <time>2026-05-25T09:03:58.000Z</time>
      </trkpt>
      <trkpt lat="44.63131" lon="5.20274">
        <ele>1169</ele>
        <time>2026-05-25T09:03:59.000Z</time>
      </trkpt>
      <trkpt lat="44.63131" lon="5.20274">
        <ele>1169</ele>
        <time>2026-05-25T09:04:00.000Z</time>
      </trkpt>
      <trkpt lat="44.63133" lon="5.20274">
        <ele>1171</ele>
        <time>2026-05-25T09:04:01.000Z</time>
      </trkpt>
      <trkpt lat="44.63134" lon="5.20275">
        <ele>1171</ele>
        <time>2026-05-25T09:04:02.000Z</time>
      </trkpt>
      <trkpt lat="44.63134" lon="5.20276">
        <ele>1171</ele>
        <time>2026-05-25T09:04:03.000Z</time>
      </trkpt>
      <trkpt lat="44.63135" lon="5.20276">
        <ele>1171</ele>
        <time>2026-05-25T09:04:04.000Z</time>
      </trkpt>
      <trkpt lat="44.63135" lon="5.20276">
        <ele>1171</ele>
        <time>2026-05-25T09:04:05.000Z</time>
      </trkpt>
      <trkpt lat="44.63137" lon="5.20277">
        <ele>1171</ele>
        <time>2026-05-25T09:04:06.000Z</time>
      </trkpt>
      <trkpt lat="44.63137" lon="5.20278">
        <ele>1171</ele>
        <time>2026-05-25T09:04:07.000Z</time>
      </trkpt>
      <trkpt lat="44.63138" lon="5.20278">
        <ele>1172</ele>
        <time>2026-05-25T09:04:08.000Z</time>
      </trkpt>
      <trkpt lat="44.63138" lon="5.20277">
        <ele>1173</ele>
        <time>2026-05-25T09:04:09.000Z</time>
      </trkpt>
      <trkpt lat="44.63139" lon="5.20276">
        <ele>1173</ele>
        <time>2026-05-25T09:04:10.000Z</time>
      </trkpt>
      <trkpt lat="44.63139" lon="5.20277">
        <ele>1174</ele>
        <time>2026-05-25T09:04:11.000Z</time>
      </trkpt>
      <trkpt lat="44.63139" lon="5.20277">
        <ele>1174</ele>
        <time>2026-05-25T09:04:12.000Z</time>
      </trkpt>
      <trkpt lat="44.63141" lon="5.20277">
        <ele>1174</ele>
        <time>2026-05-25T09:04:13.000Z</time>
      </trkpt>
      <trkpt lat="44.63142" lon="5.20277">
        <ele>1174</ele>
        <time>2026-05-25T09:04:14.000Z</time>
      </trkpt>
      <trkpt lat="44.63142" lon="5.20277">
        <ele>1174</ele>
        <time>2026-05-25T09:04:15.000Z</time>
      </trkpt>
      <trkpt lat="44.63143" lon="5.20277">
        <ele>1174</ele>
        <time>2026-05-25T09:04:16.000Z</time>
      </trkpt>
      <trkpt lat="44.63143" lon="5.20276">
        <ele>1174</ele>
        <time>2026-05-25T09:04:17.000Z</time>
      </trkpt>
      <trkpt lat="44.63144" lon="5.20277">
        <ele>1173</ele>
        <time>2026-05-25T09:04:18.000Z</time>
      </trkpt>
      <trkpt lat="44.63145" lon="5.20276">
        <ele>1174</ele>
        <time>2026-05-25T09:04:19.000Z</time>
      </trkpt>
      <trkpt lat="44.63146" lon="5.20276">
        <ele>1173</ele>
        <time>2026-05-25T09:04:20.000Z</time>
      </trkpt>
      <trkpt lat="44.63146" lon="5.20277">
        <ele>1173</ele>
        <time>2026-05-25T09:04:21.000Z</time>
      </trkpt>
      <trkpt lat="44.63147" lon="5.20277">
        <ele>1173</ele>
        <time>2026-05-25T09:04:22.000Z</time>
      </trkpt>
      <trkpt lat="44.63148" lon="5.20278">
        <ele>1173</ele>
        <time>2026-05-25T09:04:23.000Z</time>
      </trkpt>
      <trkpt lat="44.63149" lon="5.2028">
        <ele>1174</ele>
        <time>2026-05-25T09:04:24.000Z</time>
      </trkpt>
      <trkpt lat="44.6315" lon="5.2028">
        <ele>1174</ele>
        <time>2026-05-25T09:04:25.000Z</time>
      </trkpt>
      <trkpt lat="44.63151" lon="5.2028">
        <ele>1175</ele>
        <time>2026-05-25T09:04:26.000Z</time>
      </trkpt>
      <trkpt lat="44.63151" lon="5.20281">
        <ele>1175</ele>
        <time>2026-05-25T09:04:27.000Z</time>
      </trkpt>
      <trkpt lat="44.63151" lon="5.20282">
        <ele>1175</ele>
        <time>2026-05-25T09:04:28.000Z</time>
      </trkpt>
      <trkpt lat="44.63152" lon="5.20282">
        <ele>1174</ele>
        <time>2026-05-25T09:04:29.000Z</time>
      </trkpt>
      <trkpt lat="44.63153" lon="5.20283">
        <ele>1174</ele>
        <time>2026-05-25T09:04:30.000Z</time>
      </trkpt>
      <trkpt lat="44.63153" lon="5.20283">
        <ele>1174</ele>
        <time>2026-05-25T09:04:31.000Z</time>
      </trkpt>
      <trkpt lat="44.63153" lon="5.20283">
        <ele>1175</ele>
        <time>2026-05-25T09:04:32.000Z</time>
      </trkpt>
      <trkpt lat="44.63153" lon="5.20284">
        <ele>1175</ele>
        <time>2026-05-25T09:04:33.000Z</time>
      </trkpt>
      <trkpt lat="44.63153" lon="5.20284">
        <ele>1175</ele>
        <time>2026-05-25T09:04:34.000Z</time>
      </trkpt>
      <trkpt lat="44.63153" lon="5.20284">
        <ele>1175</ele>
        <time>2026-05-25T09:04:35.000Z</time>
      </trkpt>
      <trkpt lat="44.63153" lon="5.20286">
        <ele>1176</ele>
        <time>2026-05-25T09:04:36.000Z</time>
      </trkpt>
      <trkpt lat="44.63152" lon="5.20287">
        <ele>1176</ele>
        <time>2026-05-25T09:04:37.000Z</time>
      </trkpt>
      <trkpt lat="44.63153" lon="5.20289">
        <ele>1177</ele>
        <time>2026-05-25T09:04:38.000Z</time>
      </trkpt>
      <trkpt lat="44.63153" lon="5.2029">
        <ele>1176</ele>
        <time>2026-05-25T09:04:39.000Z</time>
      </trkpt>
      <trkpt lat="44.63153" lon="5.20291">
        <ele>1176</ele>
        <time>2026-05-25T09:04:40.000Z</time>
      </trkpt>
      <trkpt lat="44.63154" lon="5.20291">
        <ele>1178</ele>
        <time>2026-05-25T09:04:41.000Z</time>
      </trkpt>
      <trkpt lat="44.63154" lon="5.20292">
        <ele>1177</ele>
        <time>2026-05-25T09:04:42.000Z</time>
      </trkpt>
      <trkpt lat="44.63154" lon="5.20293">
        <ele>1178</ele>
        <time>2026-05-25T09:04:43.000Z</time>
      </trkpt>
      <trkpt lat="44.63154" lon="5.20293">
        <ele>1178</ele>
        <time>2026-05-25T09:04:44.000Z</time>
      </trkpt>
      <trkpt lat="44.63154" lon="5.20293">
        <ele>1178</ele>
        <time>2026-05-25T09:04:45.000Z</time>
      </trkpt>
      <trkpt lat="44.63156" lon="5.20293">
        <ele>1179</ele>
        <time>2026-05-25T09:04:46.000Z</time>
      </trkpt>
      <trkpt lat="44.63156" lon="5.20294">
        <ele>1179</ele>
        <time>2026-05-25T09:04:47.000Z</time>
      </trkpt>
      <trkpt lat="44.63156" lon="5.20295">
        <ele>1179</ele>
        <time>2026-05-25T09:04:48.000Z</time>
      </trkpt>
      <trkpt lat="44.63156" lon="5.20295">
        <ele>1180</ele>
        <time>2026-05-25T09:04:49.000Z</time>
      </trkpt>
      <trkpt lat="44.63157" lon="5.20296">
        <ele>1180</ele>
        <time>2026-05-25T09:04:50.000Z</time>
      </trkpt>
      <trkpt lat="44.63157" lon="5.20296">
        <ele>1180</ele>
        <time>2026-05-25T09:04:51.000Z</time>
      </trkpt>
      <trkpt lat="44.63157" lon="5.20296">
        <ele>1180</ele>
        <time>2026-05-25T09:04:52.000Z</time>
      </trkpt>
      <trkpt lat="44.63159" lon="5.20296">
        <ele>1182</ele>
        <time>2026-05-25T09:04:53.000Z</time>
      </trkpt>
      <trkpt lat="44.63159" lon="5.20297">
        <ele>1182</ele>
        <time>2026-05-25T09:04:54.000Z</time>
      </trkpt>
      <trkpt lat="44.6316" lon="5.20298">
        <ele>1182</ele>
        <time>2026-05-25T09:04:55.000Z</time>
      </trkpt>
      <trkpt lat="44.63161" lon="5.20299">
        <ele>1182</ele>
        <time>2026-05-25T09:04:56.000Z</time>
      </trkpt>
      <trkpt lat="44.63162" lon="5.203">
        <ele>1182</ele>
        <time>2026-05-25T09:04:57.000Z</time>
      </trkpt>
      <trkpt lat="44.63163" lon="5.203">
        <ele>1182</ele>
        <time>2026-05-25T09:04:58.000Z</time>
      </trkpt>
      <trkpt lat="44.63163" lon="5.20301">
        <ele>1182</ele>
        <time>2026-05-25T09:04:59.000Z</time>
      </trkpt>
      <trkpt lat="44.63163" lon="5.20301">
        <ele>1182</ele>
        <time>2026-05-25T09:05:00.000Z</time>
      </trkpt>
      <trkpt lat="44.63164" lon="5.20302">
        <ele>1182</ele>
        <time>2026-05-25T09:05:01.000Z</time>
      </trkpt>
      <trkpt lat="44.63164" lon="5.20302">
        <ele>1183</ele>
        <time>2026-05-25T09:05:02.000Z</time>
      </trkpt>
      <trkpt lat="44.63164" lon="5.20303">
        <ele>1183</ele>
        <time>2026-05-25T09:05:03.000Z</time>
      </trkpt>
      <trkpt lat="44.63164" lon="5.20304">
        <ele>1183</ele>
        <time>2026-05-25T09:05:04.000Z</time>
      </trkpt>
      <trkpt lat="44.63164" lon="5.20304">
        <ele>1183</ele>
        <time>2026-05-25T09:05:05.000Z</time>
      </trkpt>
      <trkpt lat="44.63164" lon="5.20304">
        <ele>1183</ele>
        <time>2026-05-25T09:05:06.000Z</time>
      </trkpt>
      <trkpt lat="44.63164" lon="5.20304">
        <ele>1183</ele>
        <time>2026-05-25T09:05:07.000Z</time>
      </trkpt>
      <trkpt lat="44.63164" lon="5.20304">
        <ele>1183</ele>
        <time>2026-05-25T09:05:08.000Z</time>
      </trkpt>
      <trkpt lat="44.63165" lon="5.20306">
        <ele>1184</ele>
        <time>2026-05-25T09:05:09.000Z</time>
      </trkpt>
      <trkpt lat="44.63165" lon="5.20307">
        <ele>1184</ele>
        <time>2026-05-25T09:05:10.000Z</time>
      </trkpt>
      <trkpt lat="44.63165" lon="5.20308">
        <ele>1185</ele>
        <time>2026-05-25T09:05:11.000Z</time>
      </trkpt>
      <trkpt lat="44.63166" lon="5.20309">
        <ele>1185</ele>
        <time>2026-05-25T09:05:12.000Z</time>
      </trkpt>
      <trkpt lat="44.63167" lon="5.2031">
        <ele>1185</ele>
        <time>2026-05-25T09:05:13.000Z</time>
      </trkpt>
      <trkpt lat="44.63168" lon="5.2031">
        <ele>1186</ele>
        <time>2026-05-25T09:05:14.000Z</time>
      </trkpt>
      <trkpt lat="44.63169" lon="5.20311">
        <ele>1186</ele>
        <time>2026-05-25T09:05:15.000Z</time>
      </trkpt>
      <trkpt lat="44.6317" lon="5.2031">
        <ele>1185</ele>
        <time>2026-05-25T09:05:16.000Z</time>
      </trkpt>
      <trkpt lat="44.6317" lon="5.20309">
        <ele>1186</ele>
        <time>2026-05-25T09:05:17.000Z</time>
      </trkpt>
      <trkpt lat="44.6317" lon="5.20308">
        <ele>1186</ele>
        <time>2026-05-25T09:05:18.000Z</time>
      </trkpt>
      <trkpt lat="44.6317" lon="5.20307">
        <ele>1187</ele>
        <time>2026-05-25T09:05:19.000Z</time>
      </trkpt>
      <trkpt lat="44.6317" lon="5.20305">
        <ele>1188</ele>
        <time>2026-05-25T09:05:20.000Z</time>
      </trkpt>
      <trkpt lat="44.6317" lon="5.20303">
        <ele>1188</ele>
        <time>2026-05-25T09:05:21.000Z</time>
      </trkpt>
      <trkpt lat="44.6317" lon="5.20302">
        <ele>1188</ele>
        <time>2026-05-25T09:05:22.000Z</time>
      </trkpt>
      <trkpt lat="44.6317" lon="5.20301">
        <ele>1189</ele>
        <time>2026-05-25T09:05:23.000Z</time>
      </trkpt>
      <trkpt lat="44.6317" lon="5.203">
        <ele>1189</ele>
        <time>2026-05-25T09:05:24.000Z</time>
      </trkpt>
      <trkpt lat="44.6317" lon="5.20299">
        <ele>1189</ele>
        <time>2026-05-25T09:05:25.000Z</time>
      </trkpt>
      <trkpt lat="44.6317" lon="5.20298">
        <ele>1188</ele>
        <time>2026-05-25T09:05:26.000Z</time>
      </trkpt>
      <trkpt lat="44.63171" lon="5.20297">
        <ele>1188</ele>
        <time>2026-05-25T09:05:27.000Z</time>
      </trkpt>
      <trkpt lat="44.63171" lon="5.20297">
        <ele>1188</ele>
        <time>2026-05-25T09:05:28.000Z</time>
      </trkpt>
      <trkpt lat="44.63171" lon="5.20297">
        <ele>1188</ele>
        <time>2026-05-25T09:05:29.000Z</time>
      </trkpt>
      <trkpt lat="44.63171" lon="5.20295">
        <ele>1189</ele>
        <time>2026-05-25T09:05:30.000Z</time>
      </trkpt>
      <trkpt lat="44.63171" lon="5.20294">
        <ele>1189</ele>
        <time>2026-05-25T09:05:31.000Z</time>
      </trkpt>
      <trkpt lat="44.63171" lon="5.20292">
        <ele>1189</ele>
        <time>2026-05-25T09:05:32.000Z</time>
      </trkpt>
      <trkpt lat="44.63171" lon="5.20291">
        <ele>1190</ele>
        <time>2026-05-25T09:05:33.000Z</time>
      </trkpt>
      <trkpt lat="44.63171" lon="5.20291">
        <ele>1190</ele>
        <time>2026-05-25T09:05:34.000Z</time>
      </trkpt>
      <trkpt lat="44.63171" lon="5.20291">
        <ele>1190</ele>
        <time>2026-05-25T09:05:35.000Z</time>
      </trkpt>
      <trkpt lat="44.63171" lon="5.20289">
        <ele>1190</ele>
        <time>2026-05-25T09:05:36.000Z</time>
      </trkpt>
      <trkpt lat="44.63171" lon="5.20289">
        <ele>1190</ele>
        <time>2026-05-25T09:05:37.000Z</time>
      </trkpt>
      <trkpt lat="44.63171" lon="5.20289">
        <ele>1190</ele>
        <time>2026-05-25T09:05:38.000Z</time>
      </trkpt>
      <trkpt lat="44.63171" lon="5.20289">
        <ele>1190</ele>
        <time>2026-05-25T09:05:39.000Z</time>
      </trkpt>
      <trkpt lat="44.63171" lon="5.20289">
        <ele>1190</ele>
        <time>2026-05-25T09:05:40.000Z</time>
      </trkpt>
      <trkpt lat="44.63171" lon="5.20289">
        <ele>1190</ele>
        <time>2026-05-25T09:05:41.000Z</time>
      </trkpt>
      <trkpt lat="44.63171" lon="5.20289">
        <ele>1190</ele>
        <time>2026-05-25T09:05:42.000Z</time>
      </trkpt>
      <trkpt lat="44.63171" lon="5.20289">
        <ele>1190</ele>
        <time>2026-05-25T09:05:43.000Z</time>
      </trkpt>
      <trkpt lat="44.63171" lon="5.20289">
        <ele>1190</ele>
        <time>2026-05-25T09:05:44.000Z</time>
      </trkpt>
      <trkpt lat="44.63171" lon="5.20289">
        <ele>1190</ele>
        <time>2026-05-25T09:05:45.000Z</time>
      </trkpt>
      <trkpt lat="44.63171" lon="5.20289">
        <ele>1190</ele>
        <time>2026-05-25T09:05:46.000Z</time>
      </trkpt>
      <trkpt lat="44.63171" lon="5.20289">
        <ele>1190</ele>
        <time>2026-05-25T09:05:47.000Z</time>
      </trkpt>
      <trkpt lat="44.63171" lon="5.20289">
        <ele>1190</ele>
        <time>2026-05-25T09:05:48.000Z</time>
      </trkpt>
      <trkpt lat="44.63171" lon="5.20289">
        <ele>1190</ele>
        <time>2026-05-25T09:05:49.000Z</time>
      </trkpt>
      <trkpt lat="44.63171" lon="5.20289">
        <ele>1190</ele>
        <time>2026-05-25T09:05:50.000Z</time>
      </trkpt>
      <trkpt lat="44.63171" lon="5.20289">
        <ele>1190</ele>
        <time>2026-05-25T09:05:51.000Z</time>
      </trkpt>
      <trkpt lat="44.63171" lon="5.20289">
        <ele>1190</ele>
        <time>2026-05-25T09:05:52.000Z</time>
      </trkpt>
      <trkpt lat="44.63171" lon="5.20289">
        <ele>1190</ele>
        <time>2026-05-25T09:05:53.000Z</time>
      </trkpt>
      <trkpt lat="44.63171" lon="5.20289">
        <ele>1190</ele>
        <time>2026-05-25T09:05:54.000Z</time>
      </trkpt>
      <trkpt lat="44.63171" lon="5.20289">
        <ele>1190</ele>
        <time>2026-05-25T09:05:55.000Z</time>
      </trkpt>
      <trkpt lat="44.63171" lon="5.20289">
        <ele>1190</ele>
        <time>2026-05-25T09:05:56.000Z</time>
      </trkpt>
      <trkpt lat="44.63171" lon="5.20289">
        <ele>1190</ele>
        <time>2026-05-25T09:05:57.000Z</time>
      </trkpt>
      <trkpt lat="44.63171" lon="5.20289">
        <ele>1190</ele>
        <time>2026-05-25T09:05:58.000Z</time>
      </trkpt>
      <trkpt lat="44.63171" lon="5.20289">
        <ele>1190</ele>
        <time>2026-05-25T09:05:59.000Z</time>
      </trkpt>
      <trkpt lat="44.63171" lon="5.20289">
        <ele>1190</ele>
        <time>2026-05-25T09:06:00.000Z</time>
      </trkpt>
      <trkpt lat="44.63171" lon="5.20289">
        <ele>1190</ele>
        <time>2026-05-25T09:06:01.000Z</time>
      </trkpt>
      <trkpt lat="44.63171" lon="5.20289">
        <ele>1190</ele>
        <time>2026-05-25T09:06:02.000Z</time>
      </trkpt>
      <trkpt lat="44.63171" lon="5.20289">
        <ele>1190</ele>
        <time>2026-05-25T09:06:03.000Z</time>
      </trkpt>
      <trkpt lat="44.63171" lon="5.20289">
        <ele>1190</ele>
        <time>2026-05-25T09:06:04.000Z</time>
      </trkpt>
      <trkpt lat="44.63171" lon="5.20289">
        <ele>1190</ele>
        <time>2026-05-25T09:06:05.000Z</time>
      </trkpt>
      <trkpt lat="44.63171" lon="5.20289">
        <ele>1190</ele>
        <time>2026-05-25T09:06:06.000Z</time>
      </trkpt>
      <trkpt lat="44.63171" lon="5.20289">
        <ele>1190</ele>
        <time>2026-05-25T09:06:07.000Z</time>
      </trkpt>
      <trkpt lat="44.63171" lon="5.20289">
        <ele>1190</ele>
        <time>2026-05-25T09:06:08.000Z</time>
      </trkpt>
      <trkpt lat="44.63171" lon="5.20289">
        <ele>1190</ele>
        <time>2026-05-25T09:06:09.000Z</time>
      </trkpt>
      <trkpt lat="44.63171" lon="5.20289">
        <ele>1190</ele>
        <time>2026-05-25T09:06:10.000Z</time>
      </trkpt>
      <trkpt lat="44.63171" lon="5.20289">
        <ele>1190</ele>
        <time>2026-05-25T09:06:11.000Z</time>
      </trkpt>
      <trkpt lat="44.63171" lon="5.20289">
        <ele>1190</ele>
        <time>2026-05-25T09:06:12.000Z</time>
      </trkpt>
      <trkpt lat="44.63171" lon="5.20289">
        <ele>1190</ele>
        <time>2026-05-25T09:06:13.000Z</time>
      </trkpt>
      <trkpt lat="44.63171" lon="5.20289">
        <ele>1190</ele>
        <time>2026-05-25T09:06:14.000Z</time>
      </trkpt>
      <trkpt lat="44.63171" lon="5.20289">
        <ele>1190</ele>
        <time>2026-05-25T09:06:15.000Z</time>
      </trkpt>
      <trkpt lat="44.63171" lon="5.20289">
        <ele>1190</ele>
        <time>2026-05-25T09:06:16.000Z</time>
      </trkpt>
      <trkpt lat="44.63171" lon="5.20289">
        <ele>1190</ele>
        <time>2026-05-25T09:06:17.000Z</time>
      </trkpt>
      <trkpt lat="44.63171" lon="5.20289">
        <ele>1190</ele>
        <time>2026-05-25T09:06:18.000Z</time>
      </trkpt>
      <trkpt lat="44.63171" lon="5.20289">
        <ele>1190</ele>
        <time>2026-05-25T09:06:19.000Z</time>
      </trkpt>
      <trkpt lat="44.63171" lon="5.20289">
        <ele>1190</ele>
        <time>2026-05-25T09:06:20.000Z</time>
      </trkpt>
      <trkpt lat="44.63171" lon="5.20289">
        <ele>1190</ele>
        <time>2026-05-25T09:06:21.000Z</time>
      </trkpt>
      <trkpt lat="44.63173" lon="5.20293">
        <ele>1191</ele>
        <time>2026-05-25T09:06:22.000Z</time>
      </trkpt>
      <trkpt lat="44.63174" lon="5.20293">
        <ele>1192</ele>
        <time>2026-05-25T09:06:23.000Z</time>
      </trkpt>
      <trkpt lat="44.63175" lon="5.20294">
        <ele>1192</ele>
        <time>2026-05-25T09:06:24.000Z</time>
      </trkpt>
      <trkpt lat="44.63176" lon="5.20296">
        <ele>1192</ele>
        <time>2026-05-25T09:06:25.000Z</time>
      </trkpt>
      <trkpt lat="44.63177" lon="5.20297">
        <ele>1192</ele>
        <time>2026-05-25T09:06:26.000Z</time>
      </trkpt>
      <trkpt lat="44.63177" lon="5.20298">
        <ele>1192</ele>
        <time>2026-05-25T09:06:27.000Z</time>
      </trkpt>
      <trkpt lat="44.63178" lon="5.20298">
        <ele>1192</ele>
        <time>2026-05-25T09:06:28.000Z</time>
      </trkpt>
      <trkpt lat="44.63179" lon="5.20299">
        <ele>1192</ele>
        <time>2026-05-25T09:06:29.000Z</time>
      </trkpt>
      <trkpt lat="44.6318" lon="5.203">
        <ele>1192</ele>
        <time>2026-05-25T09:06:30.000Z</time>
      </trkpt>
      <trkpt lat="44.63181" lon="5.20301">
        <ele>1192</ele>
        <time>2026-05-25T09:06:31.000Z</time>
      </trkpt>
      <trkpt lat="44.63182" lon="5.20302">
        <ele>1193</ele>
        <time>2026-05-25T09:06:32.000Z</time>
      </trkpt>
      <trkpt lat="44.63182" lon="5.20303">
        <ele>1193</ele>
        <time>2026-05-25T09:06:33.000Z</time>
      </trkpt>
      <trkpt lat="44.63183" lon="5.20303">
        <ele>1193</ele>
        <time>2026-05-25T09:06:34.000Z</time>
      </trkpt>
      <trkpt lat="44.63183" lon="5.20302">
        <ele>1193</ele>
        <time>2026-05-25T09:06:35.000Z</time>
      </trkpt>
      <trkpt lat="44.63183" lon="5.20301">
        <ele>1193</ele>
        <time>2026-05-25T09:06:36.000Z</time>
      </trkpt>
      <trkpt lat="44.63182" lon="5.20298">
        <ele>1194</ele>
        <time>2026-05-25T09:06:37.000Z</time>
      </trkpt>
      <trkpt lat="44.63183" lon="5.20297">
        <ele>1194</ele>
        <time>2026-05-25T09:06:38.000Z</time>
      </trkpt>
      <trkpt lat="44.63183" lon="5.20296">
        <ele>1194</ele>
        <time>2026-05-25T09:06:39.000Z</time>
      </trkpt>
      <trkpt lat="44.63183" lon="5.20296">
        <ele>1195</ele>
        <time>2026-05-25T09:06:40.000Z</time>
      </trkpt>
      <trkpt lat="44.63182" lon="5.20294">
        <ele>1195</ele>
        <time>2026-05-25T09:06:41.000Z</time>
      </trkpt>
      <trkpt lat="44.63182" lon="5.20293">
        <ele>1194</ele>
        <time>2026-05-25T09:06:42.000Z</time>
      </trkpt>
      <trkpt lat="44.63182" lon="5.20292">
        <ele>1194</ele>
        <time>2026-05-25T09:06:43.000Z</time>
      </trkpt>
      <trkpt lat="44.63182" lon="5.20291">
        <ele>1195</ele>
        <time>2026-05-25T09:06:44.000Z</time>
      </trkpt>
      <trkpt lat="44.63181" lon="5.20291">
        <ele>1195</ele>
        <time>2026-05-25T09:06:45.000Z</time>
      </trkpt>
      <trkpt lat="44.63181" lon="5.2029">
        <ele>1195</ele>
        <time>2026-05-25T09:06:46.000Z</time>
      </trkpt>
      <trkpt lat="44.63181" lon="5.20288">
        <ele>1195</ele>
        <time>2026-05-25T09:06:47.000Z</time>
      </trkpt>
      <trkpt lat="44.6318" lon="5.20287">
        <ele>1195</ele>
        <time>2026-05-25T09:06:48.000Z</time>
      </trkpt>
      <trkpt lat="44.6318" lon="5.20286">
        <ele>1196</ele>
        <time>2026-05-25T09:06:49.000Z</time>
      </trkpt>
      <trkpt lat="44.6318" lon="5.20285">
        <ele>1196</ele>
        <time>2026-05-25T09:06:50.000Z</time>
      </trkpt>
      <trkpt lat="44.63179" lon="5.20284">
        <ele>1196</ele>
        <time>2026-05-25T09:06:51.000Z</time>
      </trkpt>
      <trkpt lat="44.63178" lon="5.20282">
        <ele>1196</ele>
        <time>2026-05-25T09:06:52.000Z</time>
      </trkpt>
      <trkpt lat="44.63178" lon="5.20282">
        <ele>1196</ele>
        <time>2026-05-25T09:06:53.000Z</time>
      </trkpt>
      <trkpt lat="44.63178" lon="5.20281">
        <ele>1195</ele>
        <time>2026-05-25T09:06:54.000Z</time>
      </trkpt>
      <trkpt lat="44.63179" lon="5.2028">
        <ele>1195</ele>
        <time>2026-05-25T09:06:55.000Z</time>
      </trkpt>
      <trkpt lat="44.63179" lon="5.20278">
        <ele>1196</ele>
        <time>2026-05-25T09:06:56.000Z</time>
      </trkpt>
      <trkpt lat="44.63179" lon="5.20278">
        <ele>1196</ele>
        <time>2026-05-25T09:06:57.000Z</time>
      </trkpt>
      <trkpt lat="44.63179" lon="5.20278">
        <ele>1196</ele>
        <time>2026-05-25T09:06:58.000Z</time>
      </trkpt>
      <trkpt lat="44.63179" lon="5.20275">
        <ele>1197</ele>
        <time>2026-05-25T09:06:59.000Z</time>
      </trkpt>
      <trkpt lat="44.63179" lon="5.20274">
        <ele>1197</ele>
        <time>2026-05-25T09:07:00.000Z</time>
      </trkpt>
      <trkpt lat="44.63179" lon="5.20273">
        <ele>1197</ele>
        <time>2026-05-25T09:07:01.000Z</time>
      </trkpt>
      <trkpt lat="44.63179" lon="5.20273">
        <ele>1198</ele>
        <time>2026-05-25T09:07:02.000Z</time>
      </trkpt>
      <trkpt lat="44.63179" lon="5.20273">
        <ele>1198</ele>
        <time>2026-05-25T09:07:03.000Z</time>
      </trkpt>
      <trkpt lat="44.63179" lon="5.20273">
        <ele>1198</ele>
        <time>2026-05-25T09:07:04.000Z</time>
      </trkpt>
      <trkpt lat="44.6318" lon="5.20275">
        <ele>1197</ele>
        <time>2026-05-25T09:07:05.000Z</time>
      </trkpt>
      <trkpt lat="44.63181" lon="5.20275">
        <ele>1197</ele>
        <time>2026-05-25T09:07:06.000Z</time>
      </trkpt>
      <trkpt lat="44.63182" lon="5.20275">
        <ele>1197</ele>
        <time>2026-05-25T09:07:07.000Z</time>
      </trkpt>
      <trkpt lat="44.63182" lon="5.20276">
        <ele>1197</ele>
        <time>2026-05-25T09:07:08.000Z</time>
      </trkpt>
      <trkpt lat="44.63182" lon="5.20276">
        <ele>1197</ele>
        <time>2026-05-25T09:07:09.000Z</time>
      </trkpt>
      <trkpt lat="44.63182" lon="5.20276">
        <ele>1197</ele>
        <time>2026-05-25T09:07:10.000Z</time>
      </trkpt>
      <trkpt lat="44.63182" lon="5.20276">
        <ele>1197</ele>
        <time>2026-05-25T09:07:11.000Z</time>
      </trkpt>
      <trkpt lat="44.63182" lon="5.20276">
        <ele>1197</ele>
        <time>2026-05-25T09:07:12.000Z</time>
      </trkpt>
      <trkpt lat="44.63182" lon="5.20276">
        <ele>1197</ele>
        <time>2026-05-25T09:07:13.000Z</time>
      </trkpt>
      <trkpt lat="44.63182" lon="5.20276">
        <ele>1197</ele>
        <time>2026-05-25T09:07:14.000Z</time>
      </trkpt>
      <trkpt lat="44.63182" lon="5.20276">
        <ele>1197</ele>
        <time>2026-05-25T09:07:15.000Z</time>
      </trkpt>
      <trkpt lat="44.63182" lon="5.20276">
        <ele>1197</ele>
        <time>2026-05-25T09:07:16.000Z</time>
      </trkpt>
      <trkpt lat="44.63182" lon="5.20276">
        <ele>1197</ele>
        <time>2026-05-25T09:07:17.000Z</time>
      </trkpt>
      <trkpt lat="44.63182" lon="5.20276">
        <ele>1197</ele>
        <time>2026-05-25T09:07:18.000Z</time>
      </trkpt>
      <trkpt lat="44.63182" lon="5.20276">
        <ele>1197</ele>
        <time>2026-05-25T09:07:19.000Z</time>
      </trkpt>
      <trkpt lat="44.63182" lon="5.20276">
        <ele>1197</ele>
        <time>2026-05-25T09:07:20.000Z</time>
      </trkpt>
      <trkpt lat="44.63182" lon="5.20276">
        <ele>1197</ele>
        <time>2026-05-25T09:07:21.000Z</time>
      </trkpt>
      <trkpt lat="44.63182" lon="5.20276">
        <ele>1197</ele>
        <time>2026-05-25T09:07:22.000Z</time>
      </trkpt>
      <trkpt lat="44.63182" lon="5.20276">
        <ele>1197</ele>
        <time>2026-05-25T09:07:23.000Z</time>
      </trkpt>
      <trkpt lat="44.63182" lon="5.20276">
        <ele>1197</ele>
        <time>2026-05-25T09:07:24.000Z</time>
      </trkpt>
      <trkpt lat="44.63182" lon="5.20276">
        <ele>1197</ele>
        <time>2026-05-25T09:07:25.000Z</time>
      </trkpt>
      <trkpt lat="44.63182" lon="5.20276">
        <ele>1197</ele>
        <time>2026-05-25T09:07:26.000Z</time>
      </trkpt>
      <trkpt lat="44.63182" lon="5.20276">
        <ele>1197</ele>
        <time>2026-05-25T09:07:27.000Z</time>
      </trkpt>
      <trkpt lat="44.63182" lon="5.20276">
        <ele>1197</ele>
        <time>2026-05-25T09:07:28.000Z</time>
      </trkpt>
      <trkpt lat="44.63182" lon="5.20276">
        <ele>1197</ele>
        <time>2026-05-25T09:07:29.000Z</time>
      </trkpt>
      <trkpt lat="44.63182" lon="5.20276">
        <ele>1197</ele>
        <time>2026-05-25T09:07:30.000Z</time>
      </trkpt>
      <trkpt lat="44.63182" lon="5.20276">
        <ele>1197</ele>
        <time>2026-05-25T09:07:31.000Z</time>
      </trkpt>
      <trkpt lat="44.63182" lon="5.20276">
        <ele>1197</ele>
        <time>2026-05-25T09:07:32.000Z</time>
      </trkpt>
      <trkpt lat="44.63182" lon="5.20276">
        <ele>1197</ele>
        <time>2026-05-25T09:07:33.000Z</time>
      </trkpt>
      <trkpt lat="44.63182" lon="5.20276">
        <ele>1197</ele>
        <time>2026-05-25T09:07:34.000Z</time>
      </trkpt>
      <trkpt lat="44.63182" lon="5.20276">
        <ele>1197</ele>
        <time>2026-05-25T09:07:35.000Z</time>
      </trkpt>
      <trkpt lat="44.63182" lon="5.20276">
        <ele>1197</ele>
        <time>2026-05-25T09:07:36.000Z</time>
      </trkpt>
      <trkpt lat="44.63182" lon="5.20276">
        <ele>1197</ele>
        <time>2026-05-25T09:07:37.000Z</time>
      </trkpt>
      <trkpt lat="44.63182" lon="5.20276">
        <ele>1197</ele>
        <time>2026-05-25T09:07:38.000Z</time>
      </trkpt>
      <trkpt lat="44.63182" lon="5.20276">
        <ele>1197</ele>
        <time>2026-05-25T09:07:39.000Z</time>
      </trkpt>
      <trkpt lat="44.63182" lon="5.20276">
        <ele>1197</ele>
        <time>2026-05-25T09:07:40.000Z</time>
      </trkpt>
      <trkpt lat="44.63182" lon="5.20276">
        <ele>1197</ele>
        <time>2026-05-25T09:07:41.000Z</time>
      </trkpt>
      <trkpt lat="44.63182" lon="5.20276">
        <ele>1197</ele>
        <time>2026-05-25T09:07:42.000Z</time>
      </trkpt>
      <trkpt lat="44.63182" lon="5.20276">
        <ele>1197</ele>
        <time>2026-05-25T09:07:43.000Z</time>
      </trkpt>
      <trkpt lat="44.63182" lon="5.20276">
        <ele>1197</ele>
        <time>2026-05-25T09:07:44.000Z</time>
      </trkpt>
      <trkpt lat="44.63182" lon="5.20276">
        <ele>1197</ele>
        <time>2026-05-25T09:07:45.000Z</time>
      </trkpt>
      <trkpt lat="44.63182" lon="5.20276">
        <ele>1197</ele>
        <time>2026-05-25T09:07:46.000Z</time>
      </trkpt>
      <trkpt lat="44.63182" lon="5.20276">
        <ele>1197</ele>
        <time>2026-05-25T09:07:47.000Z</time>
      </trkpt>
      <trkpt lat="44.63182" lon="5.20276">
        <ele>1197</ele>
        <time>2026-05-25T09:07:48.000Z</time>
      </trkpt>
      <trkpt lat="44.63182" lon="5.20276">
        <ele>1197</ele>
        <time>2026-05-25T09:07:49.000Z</time>
      </trkpt>
      <trkpt lat="44.63182" lon="5.20276">
        <ele>1197</ele>
        <time>2026-05-25T09:07:50.000Z</time>
      </trkpt>
      <trkpt lat="44.63182" lon="5.20276">
        <ele>1197</ele>
        <time>2026-05-25T09:07:51.000Z</time>
      </trkpt>
      <trkpt lat="44.63182" lon="5.20276">
        <ele>1197</ele>
        <time>2026-05-25T09:07:52.000Z</time>
      </trkpt>
      <trkpt lat="44.63182" lon="5.20276">
        <ele>1197</ele>
        <time>2026-05-25T09:07:53.000Z</time>
      </trkpt>
      <trkpt lat="44.63182" lon="5.20276">
        <ele>1197</ele>
        <time>2026-05-25T09:07:54.000Z</time>
      </trkpt>
      <trkpt lat="44.63182" lon="5.20276">
        <ele>1197</ele>
        <time>2026-05-25T09:07:55.000Z</time>
      </trkpt>
      <trkpt lat="44.63182" lon="5.20276">
        <ele>1197</ele>
        <time>2026-05-25T09:07:56.000Z</time>
      </trkpt>
      <trkpt lat="44.63182" lon="5.20276">
        <ele>1197</ele>
        <time>2026-05-25T09:07:57.000Z</time>
      </trkpt>
      <trkpt lat="44.63182" lon="5.20276">
        <ele>1197</ele>
        <time>2026-05-25T09:07:58.000Z</time>
      </trkpt>
      <trkpt lat="44.63182" lon="5.20278">
        <ele>1197</ele>
        <time>2026-05-25T09:07:59.000Z</time>
      </trkpt>
      <trkpt lat="44.63182" lon="5.20279">
        <ele>1197</ele>
        <time>2026-05-25T09:08:00.000Z</time>
      </trkpt>
      <trkpt lat="44.63183" lon="5.2028">
        <ele>1198</ele>
        <time>2026-05-25T09:08:01.000Z</time>
      </trkpt>
      <trkpt lat="44.63183" lon="5.20282">
        <ele>1199</ele>
        <time>2026-05-25T09:08:02.000Z</time>
      </trkpt>
      <trkpt lat="44.63184" lon="5.20282">
        <ele>1199</ele>
        <time>2026-05-25T09:08:03.000Z</time>
      </trkpt>
      <trkpt lat="44.63185" lon="5.20283">
        <ele>1199</ele>
        <time>2026-05-25T09:08:04.000Z</time>
      </trkpt>
      <trkpt lat="44.63185" lon="5.20285">
        <ele>1198</ele>
        <time>2026-05-25T09:08:05.000Z</time>
      </trkpt>
      <trkpt lat="44.63186" lon="5.20286">
        <ele>1198</ele>
        <time>2026-05-25T09:08:06.000Z</time>
      </trkpt>
      <trkpt lat="44.63186" lon="5.20287">
        <ele>1198</ele>
        <time>2026-05-25T09:08:07.000Z</time>
      </trkpt>
      <trkpt lat="44.63187" lon="5.20287">
        <ele>1198</ele>
        <time>2026-05-25T09:08:08.000Z</time>
      </trkpt>
      <trkpt lat="44.63188" lon="5.20288">
        <ele>1199</ele>
        <time>2026-05-25T09:08:09.000Z</time>
      </trkpt>
      <trkpt lat="44.63188" lon="5.20288">
        <ele>1199</ele>
        <time>2026-05-25T09:08:10.000Z</time>
      </trkpt>
      <trkpt lat="44.63189" lon="5.20289">
        <ele>1200</ele>
        <time>2026-05-25T09:08:11.000Z</time>
      </trkpt>
      <trkpt lat="44.63189" lon="5.2029">
        <ele>1200</ele>
        <time>2026-05-25T09:08:12.000Z</time>
      </trkpt>
      <trkpt lat="44.6319" lon="5.20291">
        <ele>1200</ele>
        <time>2026-05-25T09:08:13.000Z</time>
      </trkpt>
      <trkpt lat="44.6319" lon="5.20291">
        <ele>1201</ele>
        <time>2026-05-25T09:08:14.000Z</time>
      </trkpt>
      <trkpt lat="44.6319" lon="5.20291">
        <ele>1201</ele>
        <time>2026-05-25T09:08:15.000Z</time>
      </trkpt>
      <trkpt lat="44.6319" lon="5.2029">
        <ele>1203</ele>
        <time>2026-05-25T09:08:16.000Z</time>
      </trkpt>
      <trkpt lat="44.6319" lon="5.20288">
        <ele>1204</ele>
        <time>2026-05-25T09:08:17.000Z</time>
      </trkpt>
      <trkpt lat="44.63191" lon="5.20289">
        <ele>1205</ele>
        <time>2026-05-25T09:08:18.000Z</time>
      </trkpt>
      <trkpt lat="44.63192" lon="5.2029">
        <ele>1204</ele>
        <time>2026-05-25T09:08:19.000Z</time>
      </trkpt>
      <trkpt lat="44.63192" lon="5.2029">
        <ele>1204</ele>
        <time>2026-05-25T09:08:20.000Z</time>
      </trkpt>
      <trkpt lat="44.63193" lon="5.20291">
        <ele>1204</ele>
        <time>2026-05-25T09:08:21.000Z</time>
      </trkpt>
      <trkpt lat="44.63194" lon="5.20292">
        <ele>1203</ele>
        <time>2026-05-25T09:08:22.000Z</time>
      </trkpt>
      <trkpt lat="44.63195" lon="5.20292">
        <ele>1203</ele>
        <time>2026-05-25T09:08:23.000Z</time>
      </trkpt>
      <trkpt lat="44.63196" lon="5.20293">
        <ele>1203</ele>
        <time>2026-05-25T09:08:24.000Z</time>
      </trkpt>
      <trkpt lat="44.63196" lon="5.20293">
        <ele>1203</ele>
        <time>2026-05-25T09:08:25.000Z</time>
      </trkpt>
      <trkpt lat="44.63197" lon="5.20293">
        <ele>1203</ele>
        <time>2026-05-25T09:08:26.000Z</time>
      </trkpt>
      <trkpt lat="44.63198" lon="5.20294">
        <ele>1203</ele>
        <time>2026-05-25T09:08:27.000Z</time>
      </trkpt>
      <trkpt lat="44.63198" lon="5.20294">
        <ele>1203</ele>
        <time>2026-05-25T09:08:28.000Z</time>
      </trkpt>
      <trkpt lat="44.63198" lon="5.20292">
        <ele>1204</ele>
        <time>2026-05-25T09:08:29.000Z</time>
      </trkpt>
      <trkpt lat="44.63199" lon="5.20291">
        <ele>1204</ele>
        <time>2026-05-25T09:08:30.000Z</time>
      </trkpt>
      <trkpt lat="44.63198" lon="5.2029">
        <ele>1204</ele>
        <time>2026-05-25T09:08:31.000Z</time>
      </trkpt>
      <trkpt lat="44.63198" lon="5.20289">
        <ele>1205</ele>
        <time>2026-05-25T09:08:32.000Z</time>
      </trkpt>
      <trkpt lat="44.63197" lon="5.20287">
        <ele>1206</ele>
        <time>2026-05-25T09:08:33.000Z</time>
      </trkpt>
      <trkpt lat="44.63197" lon="5.20286">
        <ele>1206</ele>
        <time>2026-05-25T09:08:34.000Z</time>
      </trkpt>
      <trkpt lat="44.63196" lon="5.20286">
        <ele>1207</ele>
        <time>2026-05-25T09:08:35.000Z</time>
      </trkpt>
      <trkpt lat="44.63196" lon="5.20285">
        <ele>1206</ele>
        <time>2026-05-25T09:08:36.000Z</time>
      </trkpt>
      <trkpt lat="44.63196" lon="5.20283">
        <ele>1207</ele>
        <time>2026-05-25T09:08:37.000Z</time>
      </trkpt>
      <trkpt lat="44.63195" lon="5.20282">
        <ele>1207</ele>
        <time>2026-05-25T09:08:38.000Z</time>
      </trkpt>
      <trkpt lat="44.63195" lon="5.20281">
        <ele>1207</ele>
        <time>2026-05-25T09:08:39.000Z</time>
      </trkpt>
      <trkpt lat="44.63195" lon="5.2028">
        <ele>1207</ele>
        <time>2026-05-25T09:08:40.000Z</time>
      </trkpt>
      <trkpt lat="44.63195" lon="5.20279">
        <ele>1207</ele>
        <time>2026-05-25T09:08:41.000Z</time>
      </trkpt>
      <trkpt lat="44.63194" lon="5.20278">
        <ele>1207</ele>
        <time>2026-05-25T09:08:42.000Z</time>
      </trkpt>
      <trkpt lat="44.63194" lon="5.20277">
        <ele>1207</ele>
        <time>2026-05-25T09:08:43.000Z</time>
      </trkpt>
      <trkpt lat="44.63193" lon="5.20275">
        <ele>1207</ele>
        <time>2026-05-25T09:08:44.000Z</time>
      </trkpt>
      <trkpt lat="44.63193" lon="5.20274">
        <ele>1208</ele>
        <time>2026-05-25T09:08:45.000Z</time>
      </trkpt>
      <trkpt lat="44.63193" lon="5.20273">
        <ele>1208</ele>
        <time>2026-05-25T09:08:46.000Z</time>
      </trkpt>
      <trkpt lat="44.63193" lon="5.20272">
        <ele>1208</ele>
        <time>2026-05-25T09:08:47.000Z</time>
      </trkpt>
      <trkpt lat="44.63194" lon="5.20272">
        <ele>1208</ele>
        <time>2026-05-25T09:08:48.000Z</time>
      </trkpt>
      <trkpt lat="44.63194" lon="5.20272">
        <ele>1208</ele>
        <time>2026-05-25T09:08:49.000Z</time>
      </trkpt>
      <trkpt lat="44.63194" lon="5.20272">
        <ele>1208</ele>
        <time>2026-05-25T09:08:50.000Z</time>
      </trkpt>
      <trkpt lat="44.63194" lon="5.20272">
        <ele>1208</ele>
        <time>2026-05-25T09:08:51.000Z</time>
      </trkpt>
      <trkpt lat="44.63195" lon="5.20271">
        <ele>1208</ele>
        <time>2026-05-25T09:08:52.000Z</time>
      </trkpt>
      <trkpt lat="44.63196" lon="5.20272">
        <ele>1208</ele>
        <time>2026-05-25T09:08:53.000Z</time>
      </trkpt>
      <trkpt lat="44.63196" lon="5.20272">
        <ele>1208</ele>
        <time>2026-05-25T09:08:54.000Z</time>
      </trkpt>
      <trkpt lat="44.63196" lon="5.20273">
        <ele>1208</ele>
        <time>2026-05-25T09:08:55.000Z</time>
      </trkpt>
      <trkpt lat="44.63197" lon="5.20273">
        <ele>1208</ele>
        <time>2026-05-25T09:08:56.000Z</time>
      </trkpt>
      <trkpt lat="44.63197" lon="5.20273">
        <ele>1208</ele>
        <time>2026-05-25T09:08:57.000Z</time>
      </trkpt>
      <trkpt lat="44.63197" lon="5.20273">
        <ele>1208</ele>
        <time>2026-05-25T09:08:58.000Z</time>
      </trkpt>
      <trkpt lat="44.63198" lon="5.20274">
        <ele>1207</ele>
        <time>2026-05-25T09:08:59.000Z</time>
      </trkpt>
      <trkpt lat="44.63199" lon="5.20275">
        <ele>1207</ele>
        <time>2026-05-25T09:09:00.000Z</time>
      </trkpt>
      <trkpt lat="44.63198" lon="5.20275">
        <ele>1206</ele>
        <time>2026-05-25T09:09:01.000Z</time>
      </trkpt>
      <trkpt lat="44.63199" lon="5.20274">
        <ele>1206</ele>
        <time>2026-05-25T09:09:02.000Z</time>
      </trkpt>
      <trkpt lat="44.63199" lon="5.20274">
        <ele>1206</ele>
        <time>2026-05-25T09:09:03.000Z</time>
      </trkpt>
      <trkpt lat="44.63199" lon="5.20274">
        <ele>1206</ele>
        <time>2026-05-25T09:09:04.000Z</time>
      </trkpt>
      <trkpt lat="44.63199" lon="5.20274">
        <ele>1206</ele>
        <time>2026-05-25T09:09:05.000Z</time>
      </trkpt>
      <trkpt lat="44.63199" lon="5.20274">
        <ele>1206</ele>
        <time>2026-05-25T09:09:06.000Z</time>
      </trkpt>
      <trkpt lat="44.63199" lon="5.20274">
        <ele>1206</ele>
        <time>2026-05-25T09:09:07.000Z</time>
      </trkpt>
      <trkpt lat="44.63199" lon="5.20274">
        <ele>1206</ele>
        <time>2026-05-25T09:09:08.000Z</time>
      </trkpt>
      <trkpt lat="44.63199" lon="5.20274">
        <ele>1206</ele>
        <time>2026-05-25T09:09:09.000Z</time>
      </trkpt>
      <trkpt lat="44.63199" lon="5.20274">
        <ele>1206</ele>
        <time>2026-05-25T09:09:10.000Z</time>
      </trkpt>
      <trkpt lat="44.63198" lon="5.20275">
        <ele>1207</ele>
        <time>2026-05-25T09:09:11.000Z</time>
      </trkpt>
      <trkpt lat="44.63199" lon="5.20275">
        <ele>1207</ele>
        <time>2026-05-25T09:09:12.000Z</time>
      </trkpt>
      <trkpt lat="44.63199" lon="5.20275">
        <ele>1207</ele>
        <time>2026-05-25T09:09:13.000Z</time>
      </trkpt>
      <trkpt lat="44.63199" lon="5.20275">
        <ele>1207</ele>
        <time>2026-05-25T09:09:14.000Z</time>
      </trkpt>
      <trkpt lat="44.63199" lon="5.20275">
        <ele>1207</ele>
        <time>2026-05-25T09:09:15.000Z</time>
      </trkpt>
      <trkpt lat="44.63199" lon="5.20275">
        <ele>1207</ele>
        <time>2026-05-25T09:09:16.000Z</time>
      </trkpt>
      <trkpt lat="44.63199" lon="5.20275">
        <ele>1207</ele>
        <time>2026-05-25T09:09:17.000Z</time>
      </trkpt>
      <trkpt lat="44.63199" lon="5.20275">
        <ele>1207</ele>
        <time>2026-05-25T09:09:18.000Z</time>
      </trkpt>
      <trkpt lat="44.63199" lon="5.20275">
        <ele>1207</ele>
        <time>2026-05-25T09:09:19.000Z</time>
      </trkpt>
      <trkpt lat="44.63199" lon="5.20275">
        <ele>1207</ele>
        <time>2026-05-25T09:09:20.000Z</time>
      </trkpt>
      <trkpt lat="44.63199" lon="5.20275">
        <ele>1207</ele>
        <time>2026-05-25T09:09:21.000Z</time>
      </trkpt>
      <trkpt lat="44.63199" lon="5.20275">
        <ele>1207</ele>
        <time>2026-05-25T09:09:22.000Z</time>
      </trkpt>
      <trkpt lat="44.63199" lon="5.20275">
        <ele>1207</ele>
        <time>2026-05-25T09:09:23.000Z</time>
      </trkpt>
      <trkpt lat="44.63199" lon="5.20275">
        <ele>1207</ele>
        <time>2026-05-25T09:09:24.000Z</time>
      </trkpt>
      <trkpt lat="44.63199" lon="5.20275">
        <ele>1207</ele>
        <time>2026-05-25T09:09:25.000Z</time>
      </trkpt>
      <trkpt lat="44.63199" lon="5.20275">
        <ele>1207</ele>
        <time>2026-05-25T09:09:26.000Z</time>
      </trkpt>
      <trkpt lat="44.63199" lon="5.20275">
        <ele>1207</ele>
        <time>2026-05-25T09:09:27.000Z</time>
      </trkpt>
      <trkpt lat="44.63199" lon="5.20275">
        <ele>1207</ele>
        <time>2026-05-25T09:09:28.000Z</time>
      </trkpt>
      <trkpt lat="44.63199" lon="5.20275">
        <ele>1207</ele>
        <time>2026-05-25T09:09:29.000Z</time>
      </trkpt>
      <trkpt lat="44.63199" lon="5.20275">
        <ele>1207</ele>
        <time>2026-05-25T09:09:30.000Z</time>
      </trkpt>
      <trkpt lat="44.63199" lon="5.20275">
        <ele>1207</ele>
        <time>2026-05-25T09:09:31.000Z</time>
      </trkpt>
      <trkpt lat="44.63199" lon="5.20275">
        <ele>1207</ele>
        <time>2026-05-25T09:09:32.000Z</time>
      </trkpt>
      <trkpt lat="44.63199" lon="5.20275">
        <ele>1207</ele>
        <time>2026-05-25T09:09:33.000Z</time>
      </trkpt>
      <trkpt lat="44.63199" lon="5.20275">
        <ele>1207</ele>
        <time>2026-05-25T09:09:34.000Z</time>
      </trkpt>
      <trkpt lat="44.63199" lon="5.20275">
        <ele>1207</ele>
        <time>2026-05-25T09:09:35.000Z</time>
      </trkpt>
      <trkpt lat="44.63199" lon="5.20275">
        <ele>1207</ele>
        <time>2026-05-25T09:09:36.000Z</time>
      </trkpt>
      <trkpt lat="44.63199" lon="5.20275">
        <ele>1207</ele>
        <time>2026-05-25T09:09:37.000Z</time>
      </trkpt>
      <trkpt lat="44.63199" lon="5.20275">
        <ele>1207</ele>
        <time>2026-05-25T09:09:38.000Z</time>
      </trkpt>
      <trkpt lat="44.63199" lon="5.20275">
        <ele>1207</ele>
        <time>2026-05-25T09:09:39.000Z</time>
      </trkpt>
      <trkpt lat="44.63199" lon="5.20275">
        <ele>1207</ele>
        <time>2026-05-25T09:09:40.000Z</time>
      </trkpt>
      <trkpt lat="44.63199" lon="5.20275">
        <ele>1207</ele>
        <time>2026-05-25T09:09:41.000Z</time>
      </trkpt>
      <trkpt lat="44.63199" lon="5.20275">
        <ele>1207</ele>
        <time>2026-05-25T09:09:42.000Z</time>
      </trkpt>
      <trkpt lat="44.63199" lon="5.20275">
        <ele>1207</ele>
        <time>2026-05-25T09:09:43.000Z</time>
      </trkpt>
      <trkpt lat="44.63199" lon="5.20275">
        <ele>1207</ele>
        <time>2026-05-25T09:09:44.000Z</time>
      </trkpt>
      <trkpt lat="44.63199" lon="5.20275">
        <ele>1207</ele>
        <time>2026-05-25T09:09:45.000Z</time>
      </trkpt>
      <trkpt lat="44.63199" lon="5.20275">
        <ele>1207</ele>
        <time>2026-05-25T09:09:46.000Z</time>
      </trkpt>
      <trkpt lat="44.63199" lon="5.20275">
        <ele>1207</ele>
        <time>2026-05-25T09:09:47.000Z</time>
      </trkpt>
      <trkpt lat="44.632" lon="5.20275">
        <ele>1207</ele>
        <time>2026-05-25T09:09:48.000Z</time>
      </trkpt>
      <trkpt lat="44.63199" lon="5.20275">
        <ele>1207</ele>
        <time>2026-05-25T09:09:49.000Z</time>
      </trkpt>
      <trkpt lat="44.632" lon="5.20275">
        <ele>1206</ele>
        <time>2026-05-25T09:09:50.000Z</time>
      </trkpt>
      <trkpt lat="44.63201" lon="5.20275">
        <ele>1207</ele>
        <time>2026-05-25T09:09:51.000Z</time>
      </trkpt>
      <trkpt lat="44.63201" lon="5.20276">
        <ele>1206</ele>
        <time>2026-05-25T09:09:52.000Z</time>
      </trkpt>
      <trkpt lat="44.63201" lon="5.20276">
        <ele>1206</ele>
        <time>2026-05-25T09:09:53.000Z</time>
      </trkpt>
      <trkpt lat="44.63202" lon="5.20277">
        <ele>1206</ele>
        <time>2026-05-25T09:09:54.000Z</time>
      </trkpt>
      <trkpt lat="44.63202" lon="5.20277">
        <ele>1206</ele>
        <time>2026-05-25T09:09:55.000Z</time>
      </trkpt>
      <trkpt lat="44.63202" lon="5.20279">
        <ele>1207</ele>
        <time>2026-05-25T09:09:56.000Z</time>
      </trkpt>
      <trkpt lat="44.63203" lon="5.20277">
        <ele>1208</ele>
        <time>2026-05-25T09:09:57.000Z</time>
      </trkpt>
      <trkpt lat="44.63203" lon="5.20278">
        <ele>1208</ele>
        <time>2026-05-25T09:09:58.000Z</time>
      </trkpt>
      <trkpt lat="44.63203" lon="5.20278">
        <ele>1209</ele>
        <time>2026-05-25T09:09:59.000Z</time>
      </trkpt>
      <trkpt lat="44.63203" lon="5.20278">
        <ele>1209</ele>
        <time>2026-05-25T09:10:00.000Z</time>
      </trkpt>
      <trkpt lat="44.63203" lon="5.20278">
        <ele>1209</ele>
        <time>2026-05-25T09:10:01.000Z</time>
      </trkpt>
      <trkpt lat="44.63203" lon="5.20278">
        <ele>1209</ele>
        <time>2026-05-25T09:10:02.000Z</time>
      </trkpt>
      <trkpt lat="44.63203" lon="5.20278">
        <ele>1209</ele>
        <time>2026-05-25T09:10:03.000Z</time>
      </trkpt>
      <trkpt lat="44.63203" lon="5.20278">
        <ele>1209</ele>
        <time>2026-05-25T09:10:04.000Z</time>
      </trkpt>
      <trkpt lat="44.63203" lon="5.20278">
        <ele>1209</ele>
        <time>2026-05-25T09:10:05.000Z</time>
      </trkpt>
      <trkpt lat="44.63203" lon="5.20278">
        <ele>1209</ele>
        <time>2026-05-25T09:10:06.000Z</time>
      </trkpt>
      <trkpt lat="44.63203" lon="5.20278">
        <ele>1209</ele>
        <time>2026-05-25T09:10:07.000Z</time>
      </trkpt>
      <trkpt lat="44.63203" lon="5.20278">
        <ele>1209</ele>
        <time>2026-05-25T09:10:08.000Z</time>
      </trkpt>
      <trkpt lat="44.63203" lon="5.20278">
        <ele>1209</ele>
        <time>2026-05-25T09:10:09.000Z</time>
      </trkpt>
      <trkpt lat="44.63203" lon="5.20278">
        <ele>1209</ele>
        <time>2026-05-25T09:10:10.000Z</time>
      </trkpt>
      <trkpt lat="44.63203" lon="5.20278">
        <ele>1209</ele>
        <time>2026-05-25T09:10:11.000Z</time>
      </trkpt>
      <trkpt lat="44.63203" lon="5.20278">
        <ele>1209</ele>
        <time>2026-05-25T09:10:12.000Z</time>
      </trkpt>
      <trkpt lat="44.63203" lon="5.20278">
        <ele>1209</ele>
        <time>2026-05-25T09:10:13.000Z</time>
      </trkpt>
      <trkpt lat="44.63203" lon="5.20278">
        <ele>1209</ele>
        <time>2026-05-25T09:10:14.000Z</time>
      </trkpt>
      <trkpt lat="44.63203" lon="5.20278">
        <ele>1209</ele>
        <time>2026-05-25T09:10:15.000Z</time>
      </trkpt>
      <trkpt lat="44.63203" lon="5.20278">
        <ele>1209</ele>
        <time>2026-05-25T09:10:16.000Z</time>
      </trkpt>
      <trkpt lat="44.63203" lon="5.20278">
        <ele>1209</ele>
        <time>2026-05-25T09:10:17.000Z</time>
      </trkpt>
      <trkpt lat="44.63203" lon="5.20278">
        <ele>1209</ele>
        <time>2026-05-25T09:10:18.000Z</time>
      </trkpt>
      <trkpt lat="44.63203" lon="5.20278">
        <ele>1209</ele>
        <time>2026-05-25T09:10:19.000Z</time>
      </trkpt>
      <trkpt lat="44.63203" lon="5.20278">
        <ele>1209</ele>
        <time>2026-05-25T09:10:20.000Z</time>
      </trkpt>
      <trkpt lat="44.63203" lon="5.20278">
        <ele>1209</ele>
        <time>2026-05-25T09:10:21.000Z</time>
      </trkpt>
      <trkpt lat="44.63203" lon="5.20278">
        <ele>1209</ele>
        <time>2026-05-25T09:10:22.000Z</time>
      </trkpt>
      <trkpt lat="44.63203" lon="5.20278">
        <ele>1209</ele>
        <time>2026-05-25T09:10:23.000Z</time>
      </trkpt>
      <trkpt lat="44.63203" lon="5.20278">
        <ele>1209</ele>
        <time>2026-05-25T09:10:24.000Z</time>
      </trkpt>
      <trkpt lat="44.63203" lon="5.20278">
        <ele>1209</ele>
        <time>2026-05-25T09:10:25.000Z</time>
      </trkpt>
      <trkpt lat="44.63203" lon="5.20278">
        <ele>1209</ele>
        <time>2026-05-25T09:10:26.000Z</time>
      </trkpt>
      <trkpt lat="44.63203" lon="5.20278">
        <ele>1209</ele>
        <time>2026-05-25T09:10:27.000Z</time>
      </trkpt>
      <trkpt lat="44.63203" lon="5.20278">
        <ele>1209</ele>
        <time>2026-05-25T09:10:28.000Z</time>
      </trkpt>
      <trkpt lat="44.63203" lon="5.20278">
        <ele>1209</ele>
        <time>2026-05-25T09:10:29.000Z</time>
      </trkpt>
      <trkpt lat="44.63203" lon="5.20278">
        <ele>1209</ele>
        <time>2026-05-25T09:10:30.000Z</time>
      </trkpt>
      <trkpt lat="44.63203" lon="5.20278">
        <ele>1209</ele>
        <time>2026-05-25T09:10:31.000Z</time>
      </trkpt>
      <trkpt lat="44.63203" lon="5.20278">
        <ele>1209</ele>
        <time>2026-05-25T09:10:32.000Z</time>
      </trkpt>
      <trkpt lat="44.63203" lon="5.20278">
        <ele>1209</ele>
        <time>2026-05-25T09:10:33.000Z</time>
      </trkpt>
      <trkpt lat="44.63203" lon="5.20278">
        <ele>1209</ele>
        <time>2026-05-25T09:10:34.000Z</time>
      </trkpt>
      <trkpt lat="44.63203" lon="5.20278">
        <ele>1209</ele>
        <time>2026-05-25T09:10:35.000Z</time>
      </trkpt>
      <trkpt lat="44.63203" lon="5.20278">
        <ele>1209</ele>
        <time>2026-05-25T09:10:36.000Z</time>
      </trkpt>
      <trkpt lat="44.63203" lon="5.20278">
        <ele>1209</ele>
        <time>2026-05-25T09:10:37.000Z</time>
      </trkpt>
      <trkpt lat="44.63203" lon="5.20278">
        <ele>1209</ele>
        <time>2026-05-25T09:10:38.000Z</time>
      </trkpt>
      <trkpt lat="44.63203" lon="5.20278">
        <ele>1209</ele>
        <time>2026-05-25T09:10:39.000Z</time>
      </trkpt>
      <trkpt lat="44.63203" lon="5.20278">
        <ele>1209</ele>
        <time>2026-05-25T09:10:40.000Z</time>
      </trkpt>
      <trkpt lat="44.63203" lon="5.20278">
        <ele>1209</ele>
        <time>2026-05-25T09:10:41.000Z</time>
      </trkpt>
      <trkpt lat="44.63203" lon="5.20278">
        <ele>1209</ele>
        <time>2026-05-25T09:10:42.000Z</time>
      </trkpt>
      <trkpt lat="44.63203" lon="5.20278">
        <ele>1209</ele>
        <time>2026-05-25T09:10:43.000Z</time>
      </trkpt>
      <trkpt lat="44.63203" lon="5.20278">
        <ele>1209</ele>
        <time>2026-05-25T09:10:44.000Z</time>
      </trkpt>
      <trkpt lat="44.63203" lon="5.20278">
        <ele>1209</ele>
        <time>2026-05-25T09:10:45.000Z</time>
      </trkpt>
      <trkpt lat="44.63203" lon="5.20278">
        <ele>1209</ele>
        <time>2026-05-25T09:10:46.000Z</time>
      </trkpt>
      <trkpt lat="44.63203" lon="5.20278">
        <ele>1209</ele>
        <time>2026-05-25T09:10:47.000Z</time>
      </trkpt>
      <trkpt lat="44.63203" lon="5.20278">
        <ele>1209</ele>
        <time>2026-05-25T09:10:48.000Z</time>
      </trkpt>
      <trkpt lat="44.63203" lon="5.20278">
        <ele>1209</ele>
        <time>2026-05-25T09:10:49.000Z</time>
      </trkpt>
      <trkpt lat="44.63203" lon="5.20278">
        <ele>1209</ele>
        <time>2026-05-25T09:10:50.000Z</time>
      </trkpt>
      <trkpt lat="44.63203" lon="5.20278">
        <ele>1209</ele>
        <time>2026-05-25T09:10:51.000Z</time>
      </trkpt>
      <trkpt lat="44.63203" lon="5.20278">
        <ele>1209</ele>
        <time>2026-05-25T09:10:52.000Z</time>
      </trkpt>
      <trkpt lat="44.63203" lon="5.20278">
        <ele>1209</ele>
        <time>2026-05-25T09:10:53.000Z</time>
      </trkpt>
      <trkpt lat="44.63203" lon="5.20278">
        <ele>1209</ele>
        <time>2026-05-25T09:10:54.000Z</time>
      </trkpt>
      <trkpt lat="44.63203" lon="5.20278">
        <ele>1209</ele>
        <time>2026-05-25T09:10:55.000Z</time>
      </trkpt>
      <trkpt lat="44.63203" lon="5.20278">
        <ele>1209</ele>
        <time>2026-05-25T09:10:56.000Z</time>
      </trkpt>
      <trkpt lat="44.63203" lon="5.20278">
        <ele>1209</ele>
        <time>2026-05-25T09:10:57.000Z</time>
      </trkpt>
      <trkpt lat="44.63203" lon="5.20278">
        <ele>1209</ele>
        <time>2026-05-25T09:10:58.000Z</time>
      </trkpt>
      <trkpt lat="44.63203" lon="5.20278">
        <ele>1209</ele>
        <time>2026-05-25T09:10:59.000Z</time>
      </trkpt>
      <trkpt lat="44.63203" lon="5.20278">
        <ele>1209</ele>
        <time>2026-05-25T09:11:00.000Z</time>
      </trkpt>
      <trkpt lat="44.63203" lon="5.20278">
        <ele>1209</ele>
        <time>2026-05-25T09:11:01.000Z</time>
      </trkpt>
      <trkpt lat="44.63203" lon="5.20278">
        <ele>1209</ele>
        <time>2026-05-25T09:11:02.000Z</time>
      </trkpt>
      <trkpt lat="44.63203" lon="5.20278">
        <ele>1209</ele>
        <time>2026-05-25T09:11:03.000Z</time>
      </trkpt>
      <trkpt lat="44.63203" lon="5.20278">
        <ele>1209</ele>
        <time>2026-05-25T09:11:04.000Z</time>
      </trkpt>
      <trkpt lat="44.63203" lon="5.20278">
        <ele>1209</ele>
        <time>2026-05-25T09:11:05.000Z</time>
      </trkpt>
      <trkpt lat="44.63203" lon="5.20278">
        <ele>1209</ele>
        <time>2026-05-25T09:11:06.000Z</time>
      </trkpt>
      <trkpt lat="44.63203" lon="5.20278">
        <ele>1209</ele>
        <time>2026-05-25T09:11:07.000Z</time>
      </trkpt>
      <trkpt lat="44.63203" lon="5.20278">
        <ele>1209</ele>
        <time>2026-05-25T09:11:08.000Z</time>
      </trkpt>
      <trkpt lat="44.63203" lon="5.20278">
        <ele>1209</ele>
        <time>2026-05-25T09:11:09.000Z</time>
      </trkpt>
      <trkpt lat="44.63203" lon="5.20278">
        <ele>1209</ele>
        <time>2026-05-25T09:11:10.000Z</time>
      </trkpt>
      <trkpt lat="44.63203" lon="5.20278">
        <ele>1209</ele>
        <time>2026-05-25T09:11:11.000Z</time>
      </trkpt>
      <trkpt lat="44.63203" lon="5.20278">
        <ele>1209</ele>
        <time>2026-05-25T09:11:12.000Z</time>
      </trkpt>
      <trkpt lat="44.63203" lon="5.20278">
        <ele>1209</ele>
        <time>2026-05-25T09:11:13.000Z</time>
      </trkpt>
      <trkpt lat="44.63203" lon="5.20278">
        <ele>1209</ele>
        <time>2026-05-25T09:11:14.000Z</time>
      </trkpt>
      <trkpt lat="44.63203" lon="5.20278">
        <ele>1209</ele>
        <time>2026-05-25T09:11:15.000Z</time>
      </trkpt>
      <trkpt lat="44.63203" lon="5.20278">
        <ele>1209</ele>
        <time>2026-05-25T09:11:16.000Z</time>
      </trkpt>
      <trkpt lat="44.63203" lon="5.20278">
        <ele>1209</ele>
        <time>2026-05-25T09:11:17.000Z</time>
      </trkpt>
      <trkpt lat="44.63203" lon="5.20278">
        <ele>1209</ele>
        <time>2026-05-25T09:11:18.000Z</time>
      </trkpt>
      <trkpt lat="44.63203" lon="5.20278">
        <ele>1209</ele>
        <time>2026-05-25T09:11:19.000Z</time>
      </trkpt>
      <trkpt lat="44.63203" lon="5.20278">
        <ele>1209</ele>
        <time>2026-05-25T09:11:20.000Z</time>
      </trkpt>
      <trkpt lat="44.63203" lon="5.20278">
        <ele>1209</ele>
        <time>2026-05-25T09:11:21.000Z</time>
      </trkpt>
      <trkpt lat="44.63203" lon="5.20278">
        <ele>1209</ele>
        <time>2026-05-25T09:11:22.000Z</time>
      </trkpt>
      <trkpt lat="44.63203" lon="5.20278">
        <ele>1209</ele>
        <time>2026-05-25T09:11:23.000Z</time>
      </trkpt>
      <trkpt lat="44.63203" lon="5.20278">
        <ele>1209</ele>
        <time>2026-05-25T09:11:24.000Z</time>
      </trkpt>
      <trkpt lat="44.63203" lon="5.20278">
        <ele>1209</ele>
        <time>2026-05-25T09:11:25.000Z</time>
      </trkpt>
      <trkpt lat="44.63203" lon="5.20278">
        <ele>1209</ele>
        <time>2026-05-25T09:11:26.000Z</time>
      </trkpt>
      <trkpt lat="44.63203" lon="5.20278">
        <ele>1209</ele>
        <time>2026-05-25T09:11:27.000Z</time>
      </trkpt>
      <trkpt lat="44.63203" lon="5.20278">
        <ele>1209</ele>
        <time>2026-05-25T09:11:28.000Z</time>
      </trkpt>
      <trkpt lat="44.63203" lon="5.20278">
        <ele>1209</ele>
        <time>2026-05-25T09:11:29.000Z</time>
      </trkpt>
      <trkpt lat="44.63203" lon="5.20278">
        <ele>1209</ele>
        <time>2026-05-25T09:11:30.000Z</time>
      </trkpt>
      <trkpt lat="44.63203" lon="5.20278">
        <ele>1209</ele>
        <time>2026-05-25T09:11:31.000Z</time>
      </trkpt>
      <trkpt lat="44.63203" lon="5.20278">
        <ele>1209</ele>
        <time>2026-05-25T09:11:32.000Z</time>
      </trkpt>
      <trkpt lat="44.63203" lon="5.20278">
        <ele>1209</ele>
        <time>2026-05-25T09:11:33.000Z</time>
      </trkpt>
      <trkpt lat="44.63203" lon="5.20278">
        <ele>1209</ele>
        <time>2026-05-25T09:11:34.000Z</time>
      </trkpt>
      <trkpt lat="44.63203" lon="5.20278">
        <ele>1209</ele>
        <time>2026-05-25T09:11:35.000Z</time>
      </trkpt>
      <trkpt lat="44.63203" lon="5.20278">
        <ele>1209</ele>
        <time>2026-05-25T09:11:36.000Z</time>
      </trkpt>
      <trkpt lat="44.63203" lon="5.20278">
        <ele>1209</ele>
        <time>2026-05-25T09:11:37.000Z</time>
      </trkpt>
      <trkpt lat="44.63203" lon="5.20278">
        <ele>1209</ele>
        <time>2026-05-25T09:11:38.000Z</time>
      </trkpt>
      <trkpt lat="44.63203" lon="5.20278">
        <ele>1209</ele>
        <time>2026-05-25T09:11:39.000Z</time>
      </trkpt>
      <trkpt lat="44.63203" lon="5.20278">
        <ele>1209</ele>
        <time>2026-05-25T09:11:40.000Z</time>
      </trkpt>
      <trkpt lat="44.63203" lon="5.20278">
        <ele>1209</ele>
        <time>2026-05-25T09:11:41.000Z</time>
      </trkpt>
      <trkpt lat="44.63203" lon="5.20278">
        <ele>1209</ele>
        <time>2026-05-25T09:11:42.000Z</time>
      </trkpt>
      <trkpt lat="44.63203" lon="5.20278">
        <ele>1209</ele>
        <time>2026-05-25T09:11:43.000Z</time>
      </trkpt>
      <trkpt lat="44.63203" lon="5.20278">
        <ele>1209</ele>
        <time>2026-05-25T09:11:44.000Z</time>
      </trkpt>
      <trkpt lat="44.63203" lon="5.20278">
        <ele>1209</ele>
        <time>2026-05-25T09:11:45.000Z</time>
      </trkpt>
      <trkpt lat="44.63203" lon="5.20278">
        <ele>1209</ele>
        <time>2026-05-25T09:11:46.000Z</time>
      </trkpt>
      <trkpt lat="44.63203" lon="5.20278">
        <ele>1209</ele>
        <time>2026-05-25T09:11:47.000Z</time>
      </trkpt>
      <trkpt lat="44.63203" lon="5.20278">
        <ele>1209</ele>
        <time>2026-05-25T09:11:48.000Z</time>
      </trkpt>
      <trkpt lat="44.63203" lon="5.20278">
        <ele>1209</ele>
        <time>2026-05-25T09:11:49.000Z</time>
      </trkpt>
      <trkpt lat="44.63203" lon="5.20278">
        <ele>1209</ele>
        <time>2026-05-25T09:11:50.000Z</time>
      </trkpt>
      <trkpt lat="44.63203" lon="5.20278">
        <ele>1209</ele>
        <time>2026-05-25T09:11:51.000Z</time>
      </trkpt>
      <trkpt lat="44.63203" lon="5.20278">
        <ele>1209</ele>
        <time>2026-05-25T09:11:52.000Z</time>
      </trkpt>
      <trkpt lat="44.63203" lon="5.20278">
        <ele>1209</ele>
        <time>2026-05-25T09:11:53.000Z</time>
      </trkpt>
      <trkpt lat="44.63203" lon="5.20278">
        <ele>1209</ele>
        <time>2026-05-25T09:11:54.000Z</time>
      </trkpt>
      <trkpt lat="44.63203" lon="5.20278">
        <ele>1209</ele>
        <time>2026-05-25T09:11:55.000Z</time>
      </trkpt>
      <trkpt lat="44.63203" lon="5.20278">
        <ele>1209</ele>
        <time>2026-05-25T09:11:56.000Z</time>
      </trkpt>
      <trkpt lat="44.63203" lon="5.20278">
        <ele>1209</ele>
        <time>2026-05-25T09:11:57.000Z</time>
      </trkpt>
      <trkpt lat="44.63203" lon="5.20278">
        <ele>1209</ele>
        <time>2026-05-25T09:11:58.000Z</time>
      </trkpt>
      <trkpt lat="44.63203" lon="5.20278">
        <ele>1209</ele>
        <time>2026-05-25T09:11:59.000Z</time>
      </trkpt>
      <trkpt lat="44.63203" lon="5.20278">
        <ele>1209</ele>
        <time>2026-05-25T09:12:00.000Z</time>
      </trkpt>
      <trkpt lat="44.63203" lon="5.20278">
        <ele>1209</ele>
        <time>2026-05-25T09:12:01.000Z</time>
      </trkpt>
      <trkpt lat="44.63203" lon="5.20278">
        <ele>1209</ele>
        <time>2026-05-25T09:12:02.000Z</time>
      </trkpt>
      <trkpt lat="44.63203" lon="5.20278">
        <ele>1209</ele>
        <time>2026-05-25T09:12:03.000Z</time>
      </trkpt>
      <trkpt lat="44.63203" lon="5.20278">
        <ele>1209</ele>
        <time>2026-05-25T09:12:04.000Z</time>
      </trkpt>
      <trkpt lat="44.63203" lon="5.20278">
        <ele>1209</ele>
        <time>2026-05-25T09:12:05.000Z</time>
      </trkpt>
      <trkpt lat="44.63203" lon="5.20278">
        <ele>1209</ele>
        <time>2026-05-25T09:12:06.000Z</time>
      </trkpt>
      <trkpt lat="44.63203" lon="5.20278">
        <ele>1209</ele>
        <time>2026-05-25T09:12:07.000Z</time>
      </trkpt>
      <trkpt lat="44.63203" lon="5.20278">
        <ele>1209</ele>
        <time>2026-05-25T09:12:08.000Z</time>
      </trkpt>
      <trkpt lat="44.63203" lon="5.20278">
        <ele>1209</ele>
        <time>2026-05-25T09:12:09.000Z</time>
      </trkpt>
      <trkpt lat="44.63203" lon="5.20278">
        <ele>1209</ele>
        <time>2026-05-25T09:12:10.000Z</time>
      </trkpt>
      <trkpt lat="44.63203" lon="5.20278">
        <ele>1209</ele>
        <time>2026-05-25T09:12:11.000Z</time>
      </trkpt>
      <trkpt lat="44.63203" lon="5.20278">
        <ele>1209</ele>
        <time>2026-05-25T09:12:12.000Z</time>
      </trkpt>
      <trkpt lat="44.63203" lon="5.20278">
        <ele>1209</ele>
        <time>2026-05-25T09:12:13.000Z</time>
      </trkpt>
      <trkpt lat="44.63203" lon="5.20278">
        <ele>1209</ele>
        <time>2026-05-25T09:12:14.000Z</time>
      </trkpt>
      <trkpt lat="44.63203" lon="5.20278">
        <ele>1209</ele>
        <time>2026-05-25T09:12:15.000Z</time>
      </trkpt>
      <trkpt lat="44.63203" lon="5.20278">
        <ele>1209</ele>
        <time>2026-05-25T09:12:16.000Z</time>
      </trkpt>
      <trkpt lat="44.63203" lon="5.20278">
        <ele>1209</ele>
        <time>2026-05-25T09:12:17.000Z</time>
      </trkpt>
      <trkpt lat="44.63203" lon="5.20278">
        <ele>1209</ele>
        <time>2026-05-25T09:12:18.000Z</time>
      </trkpt>
      <trkpt lat="44.63203" lon="5.20278">
        <ele>1209</ele>
        <time>2026-05-25T09:12:19.000Z</time>
      </trkpt>
      <trkpt lat="44.63203" lon="5.20278">
        <ele>1209</ele>
        <time>2026-05-25T09:12:20.000Z</time>
      </trkpt>
      <trkpt lat="44.63203" lon="5.20278">
        <ele>1209</ele>
        <time>2026-05-25T09:12:21.000Z</time>
      </trkpt>
      <trkpt lat="44.63203" lon="5.20278">
        <ele>1209</ele>
        <time>2026-05-25T09:12:22.000Z</time>
      </trkpt>
      <trkpt lat="44.63203" lon="5.20278">
        <ele>1209</ele>
        <time>2026-05-25T09:12:23.000Z</time>
      </trkpt>
      <trkpt lat="44.63203" lon="5.20278">
        <ele>1209</ele>
        <time>2026-05-25T09:12:24.000Z</time>
      </trkpt>
      <trkpt lat="44.63203" lon="5.20278">
        <ele>1209</ele>
        <time>2026-05-25T09:12:25.000Z</time>
      </trkpt>
      <trkpt lat="44.63203" lon="5.20278">
        <ele>1209</ele>
        <time>2026-05-25T09:12:26.000Z</time>
      </trkpt>
      <trkpt lat="44.63203" lon="5.20278">
        <ele>1209</ele>
        <time>2026-05-25T09:12:27.000Z</time>
      </trkpt>
      <trkpt lat="44.63203" lon="5.20278">
        <ele>1209</ele>
        <time>2026-05-25T09:12:28.000Z</time>
      </trkpt>
      <trkpt lat="44.63203" lon="5.20278">
        <ele>1209</ele>
        <time>2026-05-25T09:12:29.000Z</time>
      </trkpt>
      <trkpt lat="44.63203" lon="5.20278">
        <ele>1209</ele>
        <time>2026-05-25T09:12:30.000Z</time>
      </trkpt>
      <trkpt lat="44.63203" lon="5.20278">
        <ele>1209</ele>
        <time>2026-05-25T09:12:31.000Z</time>
      </trkpt>
      <trkpt lat="44.63203" lon="5.20278">
        <ele>1209</ele>
        <time>2026-05-25T09:12:32.000Z</time>
      </trkpt>
      <trkpt lat="44.63203" lon="5.20278">
        <ele>1209</ele>
        <time>2026-05-25T09:12:33.000Z</time>
      </trkpt>
      <trkpt lat="44.63203" lon="5.20278">
        <ele>1209</ele>
        <time>2026-05-25T09:12:34.000Z</time>
      </trkpt>
      <trkpt lat="44.63203" lon="5.20278">
        <ele>1209</ele>
        <time>2026-05-25T09:12:35.000Z</time>
      </trkpt>
      <trkpt lat="44.63203" lon="5.20278">
        <ele>1209</ele>
        <time>2026-05-25T09:12:36.000Z</time>
      </trkpt>
      <trkpt lat="44.63203" lon="5.20278">
        <ele>1209</ele>
        <time>2026-05-25T09:12:37.000Z</time>
      </trkpt>
      <trkpt lat="44.63203" lon="5.20278">
        <ele>1209</ele>
        <time>2026-05-25T09:12:38.000Z</time>
      </trkpt>
      <trkpt lat="44.63203" lon="5.20278">
        <ele>1209</ele>
        <time>2026-05-25T09:12:39.000Z</time>
      </trkpt>
      <trkpt lat="44.63203" lon="5.20278">
        <ele>1209</ele>
        <time>2026-05-25T09:12:40.000Z</time>
      </trkpt>
      <trkpt lat="44.63203" lon="5.20278">
        <ele>1209</ele>
        <time>2026-05-25T09:12:41.000Z</time>
      </trkpt>
      <trkpt lat="44.63203" lon="5.20278">
        <ele>1209</ele>
        <time>2026-05-25T09:12:42.000Z</time>
      </trkpt>
      <trkpt lat="44.63203" lon="5.20278">
        <ele>1209</ele>
        <time>2026-05-25T09:12:43.000Z</time>
      </trkpt>
      <trkpt lat="44.63203" lon="5.20278">
        <ele>1209</ele>
        <time>2026-05-25T09:12:44.000Z</time>
      </trkpt>
      <trkpt lat="44.63203" lon="5.20278">
        <ele>1209</ele>
        <time>2026-05-25T09:12:45.000Z</time>
      </trkpt>
      <trkpt lat="44.63203" lon="5.20278">
        <ele>1209</ele>
        <time>2026-05-25T09:12:46.000Z</time>
      </trkpt>
      <trkpt lat="44.63203" lon="5.20278">
        <ele>1209</ele>
        <time>2026-05-25T09:12:47.000Z</time>
      </trkpt>
      <trkpt lat="44.63203" lon="5.20278">
        <ele>1209</ele>
        <time>2026-05-25T09:12:48.000Z</time>
      </trkpt>
      <trkpt lat="44.63203" lon="5.20278">
        <ele>1209</ele>
        <time>2026-05-25T09:12:49.000Z</time>
      </trkpt>
      <trkpt lat="44.63203" lon="5.20278">
        <ele>1209</ele>
        <time>2026-05-25T09:12:50.000Z</time>
      </trkpt>
      <trkpt lat="44.63203" lon="5.20278">
        <ele>1209</ele>
        <time>2026-05-25T09:12:51.000Z</time>
      </trkpt>
      <trkpt lat="44.63203" lon="5.20278">
        <ele>1209</ele>
        <time>2026-05-25T09:12:52.000Z</time>
      </trkpt>
      <trkpt lat="44.63203" lon="5.20278">
        <ele>1209</ele>
        <time>2026-05-25T09:12:53.000Z</time>
      </trkpt>
      <trkpt lat="44.63203" lon="5.20278">
        <ele>1209</ele>
        <time>2026-05-25T09:12:54.000Z</time>
      </trkpt>
      <trkpt lat="44.63203" lon="5.20278">
        <ele>1209</ele>
        <time>2026-05-25T09:12:55.000Z</time>
      </trkpt>
      <trkpt lat="44.63203" lon="5.20278">
        <ele>1209</ele>
        <time>2026-05-25T09:12:56.000Z</time>
      </trkpt>
      <trkpt lat="44.63203" lon="5.20278">
        <ele>1209</ele>
        <time>2026-05-25T09:12:57.000Z</time>
      </trkpt>
      <trkpt lat="44.63203" lon="5.20278">
        <ele>1209</ele>
        <time>2026-05-25T09:12:58.000Z</time>
      </trkpt>
      <trkpt lat="44.63203" lon="5.20278">
        <ele>1209</ele>
        <time>2026-05-25T09:12:59.000Z</time>
      </trkpt>
      <trkpt lat="44.63203" lon="5.20278">
        <ele>1209</ele>
        <time>2026-05-25T09:13:00.000Z</time>
      </trkpt>
      <trkpt lat="44.63203" lon="5.20278">
        <ele>1209</ele>
        <time>2026-05-25T09:13:01.000Z</time>
      </trkpt>
      <trkpt lat="44.63203" lon="5.20278">
        <ele>1209</ele>
        <time>2026-05-25T09:13:02.000Z</time>
      </trkpt>
      <trkpt lat="44.63203" lon="5.20278">
        <ele>1209</ele>
        <time>2026-05-25T09:13:03.000Z</time>
      </trkpt>
      <trkpt lat="44.63203" lon="5.20278">
        <ele>1209</ele>
        <time>2026-05-25T09:13:04.000Z</time>
      </trkpt>
      <trkpt lat="44.63203" lon="5.20278">
        <ele>1209</ele>
        <time>2026-05-25T09:13:05.000Z</time>
      </trkpt>
      <trkpt lat="44.63203" lon="5.20278">
        <ele>1209</ele>
        <time>2026-05-25T09:13:06.000Z</time>
      </trkpt>
      <trkpt lat="44.63203" lon="5.20278">
        <ele>1209</ele>
        <time>2026-05-25T09:13:07.000Z</time>
      </trkpt>
      <trkpt lat="44.63203" lon="5.20278">
        <ele>1209</ele>
        <time>2026-05-25T09:13:08.000Z</time>
      </trkpt>
      <trkpt lat="44.63203" lon="5.20278">
        <ele>1209</ele>
        <time>2026-05-25T09:13:09.000Z</time>
      </trkpt>
      <trkpt lat="44.63203" lon="5.20278">
        <ele>1209</ele>
        <time>2026-05-25T09:13:10.000Z</time>
      </trkpt>
      <trkpt lat="44.63203" lon="5.20278">
        <ele>1209</ele>
        <time>2026-05-25T09:13:11.000Z</time>
      </trkpt>
      <trkpt lat="44.63203" lon="5.20278">
        <ele>1209</ele>
        <time>2026-05-25T09:13:12.000Z</time>
      </trkpt>
      <trkpt lat="44.63203" lon="5.20278">
        <ele>1209</ele>
        <time>2026-05-25T09:13:13.000Z</time>
      </trkpt>
      <trkpt lat="44.63203" lon="5.20278">
        <ele>1209</ele>
        <time>2026-05-25T09:13:14.000Z</time>
      </trkpt>
      <trkpt lat="44.63203" lon="5.20278">
        <ele>1209</ele>
        <time>2026-05-25T09:13:15.000Z</time>
      </trkpt>
      <trkpt lat="44.63203" lon="5.20278">
        <ele>1209</ele>
        <time>2026-05-25T09:13:16.000Z</time>
      </trkpt>
      <trkpt lat="44.63203" lon="5.20278">
        <ele>1209</ele>
        <time>2026-05-25T09:13:17.000Z</time>
      </trkpt>
      <trkpt lat="44.63203" lon="5.20278">
        <ele>1209</ele>
        <time>2026-05-25T09:13:18.000Z</time>
      </trkpt>
      <trkpt lat="44.63203" lon="5.20278">
        <ele>1209</ele>
        <time>2026-05-25T09:13:19.000Z</time>
      </trkpt>
      <trkpt lat="44.63203" lon="5.20278">
        <ele>1209</ele>
        <time>2026-05-25T09:13:20.000Z</time>
      </trkpt>
      <trkpt lat="44.63203" lon="5.20278">
        <ele>1209</ele>
        <time>2026-05-25T09:13:21.000Z</time>
      </trkpt>
      <trkpt lat="44.63203" lon="5.20278">
        <ele>1209</ele>
        <time>2026-05-25T09:13:22.000Z</time>
      </trkpt>
      <trkpt lat="44.63203" lon="5.20278">
        <ele>1209</ele>
        <time>2026-05-25T09:13:23.000Z</time>
      </trkpt>
      <trkpt lat="44.63203" lon="5.20278">
        <ele>1209</ele>
        <time>2026-05-25T09:13:24.000Z</time>
      </trkpt>
      <trkpt lat="44.63203" lon="5.20278">
        <ele>1209</ele>
        <time>2026-05-25T09:13:25.000Z</time>
      </trkpt>
      <trkpt lat="44.63203" lon="5.20278">
        <ele>1209</ele>
        <time>2026-05-25T09:13:26.000Z</time>
      </trkpt>
      <trkpt lat="44.63203" lon="5.20278">
        <ele>1209</ele>
        <time>2026-05-25T09:13:27.000Z</time>
      </trkpt>
      <trkpt lat="44.63203" lon="5.20278">
        <ele>1209</ele>
        <time>2026-05-25T09:13:28.000Z</time>
      </trkpt>
      <trkpt lat="44.63203" lon="5.20278">
        <ele>1209</ele>
        <time>2026-05-25T09:13:29.000Z</time>
      </trkpt>
      <trkpt lat="44.63203" lon="5.20278">
        <ele>1209</ele>
        <time>2026-05-25T09:13:30.000Z</time>
      </trkpt>
      <trkpt lat="44.63203" lon="5.20278">
        <ele>1209</ele>
        <time>2026-05-25T09:13:31.000Z</time>
      </trkpt>
      <trkpt lat="44.63203" lon="5.20278">
        <ele>1209</ele>
        <time>2026-05-25T09:13:32.000Z</time>
      </trkpt>
      <trkpt lat="44.63203" lon="5.20278">
        <ele>1209</ele>
        <time>2026-05-25T09:13:33.000Z</time>
      </trkpt>
      <trkpt lat="44.63203" lon="5.20278">
        <ele>1209</ele>
        <time>2026-05-25T09:13:34.000Z</time>
      </trkpt>
      <trkpt lat="44.63203" lon="5.20278">
        <ele>1209</ele>
        <time>2026-05-25T09:13:35.000Z</time>
      </trkpt>
      <trkpt lat="44.63203" lon="5.20278">
        <ele>1209</ele>
        <time>2026-05-25T09:13:36.000Z</time>
      </trkpt>
      <trkpt lat="44.63203" lon="5.20278">
        <ele>1209</ele>
        <time>2026-05-25T09:13:37.000Z</time>
      </trkpt>
      <trkpt lat="44.63203" lon="5.20278">
        <ele>1209</ele>
        <time>2026-05-25T09:13:38.000Z</time>
      </trkpt>
      <trkpt lat="44.63203" lon="5.20278">
        <ele>1209</ele>
        <time>2026-05-25T09:13:39.000Z</time>
      </trkpt>
      <trkpt lat="44.63203" lon="5.20278">
        <ele>1209</ele>
        <time>2026-05-25T09:13:40.000Z</time>
      </trkpt>
      <trkpt lat="44.63203" lon="5.20278">
        <ele>1209</ele>
        <time>2026-05-25T09:13:41.000Z</time>
      </trkpt>
      <trkpt lat="44.63203" lon="5.20278">
        <ele>1209</ele>
        <time>2026-05-25T09:13:42.000Z</time>
      </trkpt>
      <trkpt lat="44.63203" lon="5.20278">
        <ele>1209</ele>
        <time>2026-05-25T09:13:43.000Z</time>
      </trkpt>
      <trkpt lat="44.63203" lon="5.20278">
        <ele>1209</ele>
        <time>2026-05-25T09:13:44.000Z</time>
      </trkpt>
      <trkpt lat="44.63203" lon="5.20278">
        <ele>1209</ele>
        <time>2026-05-25T09:13:45.000Z</time>
      </trkpt>
      <trkpt lat="44.63203" lon="5.20278">
        <ele>1209</ele>
        <time>2026-05-25T09:13:46.000Z</time>
      </trkpt>
      <trkpt lat="44.63203" lon="5.20278">
        <ele>1209</ele>
        <time>2026-05-25T09:13:47.000Z</time>
      </trkpt>
      <trkpt lat="44.63203" lon="5.20278">
        <ele>1209</ele>
        <time>2026-05-25T09:13:48.000Z</time>
      </trkpt>
      <trkpt lat="44.63203" lon="5.20278">
        <ele>1209</ele>
        <time>2026-05-25T09:13:49.000Z</time>
      </trkpt>
      <trkpt lat="44.63203" lon="5.20278">
        <ele>1209</ele>
        <time>2026-05-25T09:13:50.000Z</time>
      </trkpt>
      <trkpt lat="44.63203" lon="5.20278">
        <ele>1209</ele>
        <time>2026-05-25T09:13:51.000Z</time>
      </trkpt>
      <trkpt lat="44.63203" lon="5.20278">
        <ele>1209</ele>
        <time>2026-05-25T09:13:52.000Z</time>
      </trkpt>
      <trkpt lat="44.63203" lon="5.20278">
        <ele>1209</ele>
        <time>2026-05-25T09:13:53.000Z</time>
      </trkpt>
      <trkpt lat="44.63203" lon="5.20278">
        <ele>1209</ele>
        <time>2026-05-25T09:13:54.000Z</time>
      </trkpt>
      <trkpt lat="44.63203" lon="5.20278">
        <ele>1209</ele>
        <time>2026-05-25T09:13:55.000Z</time>
      </trkpt>
      <trkpt lat="44.63203" lon="5.20278">
        <ele>1209</ele>
        <time>2026-05-25T09:13:56.000Z</time>
      </trkpt>
      <trkpt lat="44.63203" lon="5.20278">
        <ele>1209</ele>
        <time>2026-05-25T09:13:57.000Z</time>
      </trkpt>
      <trkpt lat="44.63203" lon="5.20278">
        <ele>1209</ele>
        <time>2026-05-25T09:13:58.000Z</time>
      </trkpt>
      <trkpt lat="44.63203" lon="5.20278">
        <ele>1209</ele>
        <time>2026-05-25T09:13:59.000Z</time>
      </trkpt>
      <trkpt lat="44.63203" lon="5.20278">
        <ele>1209</ele>
        <time>2026-05-25T09:14:00.000Z</time>
      </trkpt>
      <trkpt lat="44.63203" lon="5.20278">
        <ele>1209</ele>
        <time>2026-05-25T09:14:01.000Z</time>
      </trkpt>
      <trkpt lat="44.63203" lon="5.20278">
        <ele>1209</ele>
        <time>2026-05-25T09:14:02.000Z</time>
      </trkpt>
      <trkpt lat="44.63203" lon="5.20278">
        <ele>1209</ele>
        <time>2026-05-25T09:14:03.000Z</time>
      </trkpt>
      <trkpt lat="44.63203" lon="5.20278">
        <ele>1209</ele>
        <time>2026-05-25T09:14:04.000Z</time>
      </trkpt>
      <trkpt lat="44.63203" lon="5.20278">
        <ele>1209</ele>
        <time>2026-05-25T09:14:05.000Z</time>
      </trkpt>
      <trkpt lat="44.63203" lon="5.20278">
        <ele>1209</ele>
        <time>2026-05-25T09:14:06.000Z</time>
      </trkpt>
      <trkpt lat="44.63203" lon="5.20278">
        <ele>1209</ele>
        <time>2026-05-25T09:14:07.000Z</time>
      </trkpt>
      <trkpt lat="44.63203" lon="5.20278">
        <ele>1209</ele>
        <time>2026-05-25T09:14:08.000Z</time>
      </trkpt>
      <trkpt lat="44.63203" lon="5.20278">
        <ele>1209</ele>
        <time>2026-05-25T09:14:09.000Z</time>
      </trkpt>
      <trkpt lat="44.63203" lon="5.20278">
        <ele>1209</ele>
        <time>2026-05-25T09:14:10.000Z</time>
      </trkpt>
      <trkpt lat="44.63203" lon="5.20278">
        <ele>1209</ele>
        <time>2026-05-25T09:14:11.000Z</time>
      </trkpt>
      <trkpt lat="44.63203" lon="5.20278">
        <ele>1209</ele>
        <time>2026-05-25T09:14:12.000Z</time>
      </trkpt>
      <trkpt lat="44.63203" lon="5.20278">
        <ele>1209</ele>
        <time>2026-05-25T09:14:13.000Z</time>
      </trkpt>
      <trkpt lat="44.63203" lon="5.20278">
        <ele>1209</ele>
        <time>2026-05-25T09:14:14.000Z</time>
      </trkpt>
      <trkpt lat="44.63203" lon="5.20278">
        <ele>1209</ele>
        <time>2026-05-25T09:14:15.000Z</time>
      </trkpt>
      <trkpt lat="44.63203" lon="5.20278">
        <ele>1209</ele>
        <time>2026-05-25T09:14:16.000Z</time>
      </trkpt>
      <trkpt lat="44.63203" lon="5.20278">
        <ele>1209</ele>
        <time>2026-05-25T09:14:17.000Z</time>
      </trkpt>
      <trkpt lat="44.63203" lon="5.20278">
        <ele>1209</ele>
        <time>2026-05-25T09:14:18.000Z</time>
      </trkpt>
      <trkpt lat="44.63203" lon="5.20278">
        <ele>1209</ele>
        <time>2026-05-25T09:14:19.000Z</time>
      </trkpt>
      <trkpt lat="44.63203" lon="5.20278">
        <ele>1209</ele>
        <time>2026-05-25T09:14:20.000Z</time>
      </trkpt>
      <trkpt lat="44.63203" lon="5.20278">
        <ele>1209</ele>
        <time>2026-05-25T09:14:21.000Z</time>
      </trkpt>
      <trkpt lat="44.63203" lon="5.20278">
        <ele>1209</ele>
        <time>2026-05-25T09:14:22.000Z</time>
      </trkpt>
      <trkpt lat="44.63203" lon="5.20278">
        <ele>1209</ele>
        <time>2026-05-25T09:14:23.000Z</time>
      </trkpt>
      <trkpt lat="44.63203" lon="5.20278">
        <ele>1209</ele>
        <time>2026-05-25T09:14:24.000Z</time>
      </trkpt>
      <trkpt lat="44.63203" lon="5.20278">
        <ele>1209</ele>
        <time>2026-05-25T09:14:25.000Z</time>
      </trkpt>
      <trkpt lat="44.63203" lon="5.20278">
        <ele>1209</ele>
        <time>2026-05-25T09:14:26.000Z</time>
      </trkpt>
      <trkpt lat="44.63203" lon="5.20277">
        <ele>1209</ele>
        <time>2026-05-25T09:14:27.000Z</time>
      </trkpt>
      <trkpt lat="44.63203" lon="5.20277">
        <ele>1209</ele>
        <time>2026-05-25T09:14:28.000Z</time>
      </trkpt>
      <trkpt lat="44.63203" lon="5.20277">
        <ele>1209</ele>
        <time>2026-05-25T09:14:29.000Z</time>
      </trkpt>
      <trkpt lat="44.63203" lon="5.20277">
        <ele>1209</ele>
        <time>2026-05-25T09:14:30.000Z</time>
      </trkpt>
      <trkpt lat="44.63203" lon="5.20277">
        <ele>1209</ele>
        <time>2026-05-25T09:14:31.000Z</time>
      </trkpt>
      <trkpt lat="44.63203" lon="5.20277">
        <ele>1209</ele>
        <time>2026-05-25T09:14:32.000Z</time>
      </trkpt>
      <trkpt lat="44.63203" lon="5.20277">
        <ele>1209</ele>
        <time>2026-05-25T09:14:33.000Z</time>
      </trkpt>
      <trkpt lat="44.63203" lon="5.20277">
        <ele>1209</ele>
        <time>2026-05-25T09:14:34.000Z</time>
      </trkpt>
      <trkpt lat="44.63203" lon="5.20277">
        <ele>1209</ele>
        <time>2026-05-25T09:14:35.000Z</time>
      </trkpt>
      <trkpt lat="44.63203" lon="5.20277">
        <ele>1209</ele>
        <time>2026-05-25T09:14:36.000Z</time>
      </trkpt>
      <trkpt lat="44.63203" lon="5.20277">
        <ele>1209</ele>
        <time>2026-05-25T09:14:37.000Z</time>
      </trkpt>
      <trkpt lat="44.63203" lon="5.20277">
        <ele>1209</ele>
        <time>2026-05-25T09:14:38.000Z</time>
      </trkpt>
      <trkpt lat="44.63203" lon="5.20277">
        <ele>1209</ele>
        <time>2026-05-25T09:14:39.000Z</time>
      </trkpt>
      <trkpt lat="44.63203" lon="5.20277">
        <ele>1209</ele>
        <time>2026-05-25T09:14:40.000Z</time>
      </trkpt>
      <trkpt lat="44.63203" lon="5.20277">
        <ele>1209</ele>
        <time>2026-05-25T09:14:41.000Z</time>
      </trkpt>
      <trkpt lat="44.63203" lon="5.20277">
        <ele>1209</ele>
        <time>2026-05-25T09:14:42.000Z</time>
      </trkpt>
      <trkpt lat="44.63203" lon="5.20277">
        <ele>1209</ele>
        <time>2026-05-25T09:14:43.000Z</time>
      </trkpt>
      <trkpt lat="44.63203" lon="5.20277">
        <ele>1209</ele>
        <time>2026-05-25T09:14:44.000Z</time>
      </trkpt>
      <trkpt lat="44.63203" lon="5.20277">
        <ele>1209</ele>
        <time>2026-05-25T09:14:45.000Z</time>
      </trkpt>
      <trkpt lat="44.63203" lon="5.20277">
        <ele>1209</ele>
        <time>2026-05-25T09:14:46.000Z</time>
      </trkpt>
      <trkpt lat="44.63203" lon="5.20277">
        <ele>1209</ele>
        <time>2026-05-25T09:14:47.000Z</time>
      </trkpt>
      <trkpt lat="44.63203" lon="5.20277">
        <ele>1209</ele>
        <time>2026-05-25T09:14:48.000Z</time>
      </trkpt>
      <trkpt lat="44.63203" lon="5.20277">
        <ele>1209</ele>
        <time>2026-05-25T09:14:49.000Z</time>
      </trkpt>
      <trkpt lat="44.63203" lon="5.20277">
        <ele>1209</ele>
        <time>2026-05-25T09:14:50.000Z</time>
      </trkpt>
      <trkpt lat="44.63203" lon="5.20277">
        <ele>1209</ele>
        <time>2026-05-25T09:14:51.000Z</time>
      </trkpt>
      <trkpt lat="44.63203" lon="5.20277">
        <ele>1209</ele>
        <time>2026-05-25T09:14:52.000Z</time>
      </trkpt>
      <trkpt lat="44.63203" lon="5.20277">
        <ele>1209</ele>
        <time>2026-05-25T09:14:53.000Z</time>
      </trkpt>
      <trkpt lat="44.63203" lon="5.20277">
        <ele>1209</ele>
        <time>2026-05-25T09:14:54.000Z</time>
      </trkpt>
      <trkpt lat="44.63203" lon="5.20277">
        <ele>1209</ele>
        <time>2026-05-25T09:14:55.000Z</time>
      </trkpt>
      <trkpt lat="44.63203" lon="5.20277">
        <ele>1209</ele>
        <time>2026-05-25T09:14:56.000Z</time>
      </trkpt>
      <trkpt lat="44.63203" lon="5.20277">
        <ele>1209</ele>
        <time>2026-05-25T09:14:57.000Z</time>
      </trkpt>
      <trkpt lat="44.63203" lon="5.20277">
        <ele>1209</ele>
        <time>2026-05-25T09:14:58.000Z</time>
      </trkpt>
      <trkpt lat="44.63203" lon="5.20277">
        <ele>1209</ele>
        <time>2026-05-25T09:14:59.000Z</time>
      </trkpt>
      <trkpt lat="44.63203" lon="5.20277">
        <ele>1209</ele>
        <time>2026-05-25T09:15:00.000Z</time>
      </trkpt>
      <trkpt lat="44.63203" lon="5.20277">
        <ele>1209</ele>
        <time>2026-05-25T09:15:01.000Z</time>
      </trkpt>
      <trkpt lat="44.63203" lon="5.20277">
        <ele>1209</ele>
        <time>2026-05-25T09:15:02.000Z</time>
      </trkpt>
      <trkpt lat="44.63203" lon="5.20277">
        <ele>1209</ele>
        <time>2026-05-25T09:15:03.000Z</time>
      </trkpt>
      <trkpt lat="44.63203" lon="5.20277">
        <ele>1209</ele>
        <time>2026-05-25T09:15:04.000Z</time>
      </trkpt>
      <trkpt lat="44.63203" lon="5.20277">
        <ele>1209</ele>
        <time>2026-05-25T09:15:05.000Z</time>
      </trkpt>
      <trkpt lat="44.63202" lon="5.20276">
        <ele>1209</ele>
        <time>2026-05-25T09:15:06.000Z</time>
      </trkpt>
      <trkpt lat="44.63203" lon="5.20276">
        <ele>1209</ele>
        <time>2026-05-25T09:15:07.000Z</time>
      </trkpt>
      <trkpt lat="44.63203" lon="5.20276">
        <ele>1209</ele>
        <time>2026-05-25T09:15:08.000Z</time>
      </trkpt>
      <trkpt lat="44.63203" lon="5.20276">
        <ele>1209</ele>
        <time>2026-05-25T09:15:09.000Z</time>
      </trkpt>
      <trkpt lat="44.63203" lon="5.20276">
        <ele>1209</ele>
        <time>2026-05-25T09:15:10.000Z</time>
      </trkpt>
      <trkpt lat="44.63203" lon="5.20276">
        <ele>1209</ele>
        <time>2026-05-25T09:15:11.000Z</time>
      </trkpt>
      <trkpt lat="44.63203" lon="5.20276">
        <ele>1209</ele>
        <time>2026-05-25T09:15:12.000Z</time>
      </trkpt>
      <trkpt lat="44.63203" lon="5.20276">
        <ele>1209</ele>
        <time>2026-05-25T09:15:13.000Z</time>
      </trkpt>
      <trkpt lat="44.63203" lon="5.20276">
        <ele>1209</ele>
        <time>2026-05-25T09:15:14.000Z</time>
      </trkpt>
      <trkpt lat="44.63203" lon="5.20276">
        <ele>1209</ele>
        <time>2026-05-25T09:15:15.000Z</time>
      </trkpt>
      <trkpt lat="44.63203" lon="5.20276">
        <ele>1209</ele>
        <time>2026-05-25T09:15:16.000Z</time>
      </trkpt>
      <trkpt lat="44.63203" lon="5.20276">
        <ele>1209</ele>
        <time>2026-05-25T09:15:17.000Z</time>
      </trkpt>
      <trkpt lat="44.63203" lon="5.20276">
        <ele>1209</ele>
        <time>2026-05-25T09:15:18.000Z</time>
      </trkpt>
      <trkpt lat="44.63203" lon="5.20276">
        <ele>1209</ele>
        <time>2026-05-25T09:15:19.000Z</time>
      </trkpt>
      <trkpt lat="44.63203" lon="5.20276">
        <ele>1209</ele>
        <time>2026-05-25T09:15:20.000Z</time>
      </trkpt>
      <trkpt lat="44.63203" lon="5.20276">
        <ele>1209</ele>
        <time>2026-05-25T09:15:21.000Z</time>
      </trkpt>
      <trkpt lat="44.63203" lon="5.20276">
        <ele>1209</ele>
        <time>2026-05-25T09:15:22.000Z</time>
      </trkpt>
      <trkpt lat="44.63203" lon="5.20276">
        <ele>1209</ele>
        <time>2026-05-25T09:15:23.000Z</time>
      </trkpt>
      <trkpt lat="44.63203" lon="5.20276">
        <ele>1209</ele>
        <time>2026-05-25T09:15:24.000Z</time>
      </trkpt>
      <trkpt lat="44.63203" lon="5.20276">
        <ele>1209</ele>
        <time>2026-05-25T09:15:25.000Z</time>
      </trkpt>
      <trkpt lat="44.63203" lon="5.20276">
        <ele>1209</ele>
        <time>2026-05-25T09:15:26.000Z</time>
      </trkpt>
      <trkpt lat="44.63203" lon="5.20276">
        <ele>1209</ele>
        <time>2026-05-25T09:15:27.000Z</time>
      </trkpt>
      <trkpt lat="44.63203" lon="5.20276">
        <ele>1209</ele>
        <time>2026-05-25T09:15:28.000Z</time>
      </trkpt>
      <trkpt lat="44.63203" lon="5.20276">
        <ele>1209</ele>
        <time>2026-05-25T09:15:29.000Z</time>
      </trkpt>
      <trkpt lat="44.63203" lon="5.20276">
        <ele>1209</ele>
        <time>2026-05-25T09:15:30.000Z</time>
      </trkpt>
      <trkpt lat="44.63203" lon="5.20276">
        <ele>1209</ele>
        <time>2026-05-25T09:15:31.000Z</time>
      </trkpt>
      <trkpt lat="44.63203" lon="5.20276">
        <ele>1209</ele>
        <time>2026-05-25T09:15:32.000Z</time>
      </trkpt>
      <trkpt lat="44.63203" lon="5.20276">
        <ele>1209</ele>
        <time>2026-05-25T09:15:33.000Z</time>
      </trkpt>
      <trkpt lat="44.63203" lon="5.20276">
        <ele>1209</ele>
        <time>2026-05-25T09:15:34.000Z</time>
      </trkpt>
      <trkpt lat="44.63203" lon="5.20276">
        <ele>1209</ele>
        <time>2026-05-25T09:15:35.000Z</time>
      </trkpt>
      <trkpt lat="44.63203" lon="5.20276">
        <ele>1209</ele>
        <time>2026-05-25T09:15:36.000Z</time>
      </trkpt>
      <trkpt lat="44.63203" lon="5.20276">
        <ele>1209</ele>
        <time>2026-05-25T09:15:37.000Z</time>
      </trkpt>
      <trkpt lat="44.63203" lon="5.20276">
        <ele>1209</ele>
        <time>2026-05-25T09:15:38.000Z</time>
      </trkpt>
      <trkpt lat="44.63203" lon="5.20276">
        <ele>1209</ele>
        <time>2026-05-25T09:15:39.000Z</time>
      </trkpt>
      <trkpt lat="44.63203" lon="5.20276">
        <ele>1209</ele>
        <time>2026-05-25T09:15:40.000Z</time>
      </trkpt>
      <trkpt lat="44.63203" lon="5.20276">
        <ele>1209</ele>
        <time>2026-05-25T09:15:41.000Z</time>
      </trkpt>
      <trkpt lat="44.63203" lon="5.20276">
        <ele>1209</ele>
        <time>2026-05-25T09:15:42.000Z</time>
      </trkpt>
      <trkpt lat="44.63202" lon="5.20277">
        <ele>1209</ele>
        <time>2026-05-25T09:15:43.000Z</time>
      </trkpt>
      <trkpt lat="44.63202" lon="5.20277">
        <ele>1209</ele>
        <time>2026-05-25T09:15:44.000Z</time>
      </trkpt>
      <trkpt lat="44.63202" lon="5.20277">
        <ele>1208</ele>
        <time>2026-05-25T09:15:45.000Z</time>
      </trkpt>
      <trkpt lat="44.63202" lon="5.20277">
        <ele>1208</ele>
        <time>2026-05-25T09:15:46.000Z</time>
      </trkpt>
      <trkpt lat="44.63202" lon="5.20277">
        <ele>1208</ele>
        <time>2026-05-25T09:15:47.000Z</time>
      </trkpt>
      <trkpt lat="44.63202" lon="5.20277">
        <ele>1208</ele>
        <time>2026-05-25T09:15:48.000Z</time>
      </trkpt>
      <trkpt lat="44.63203" lon="5.20275">
        <ele>1210</ele>
        <time>2026-05-25T09:15:49.000Z</time>
      </trkpt>
      <trkpt lat="44.63202" lon="5.20274">
        <ele>1209</ele>
        <time>2026-05-25T09:15:50.000Z</time>
      </trkpt>
      <trkpt lat="44.63202" lon="5.20274">
        <ele>1209</ele>
        <time>2026-05-25T09:15:51.000Z</time>
      </trkpt>
      <trkpt lat="44.63201" lon="5.20273">
        <ele>1209</ele>
        <time>2026-05-25T09:15:52.000Z</time>
      </trkpt>
      <trkpt lat="44.63201" lon="5.20272">
        <ele>1209</ele>
        <time>2026-05-25T09:15:53.000Z</time>
      </trkpt>
      <trkpt lat="44.632" lon="5.20271">
        <ele>1209</ele>
        <time>2026-05-25T09:15:54.000Z</time>
      </trkpt>
      <trkpt lat="44.632" lon="5.20269">
        <ele>1209</ele>
        <time>2026-05-25T09:15:55.000Z</time>
      </trkpt>
      <trkpt lat="44.63201" lon="5.20269">
        <ele>1209</ele>
        <time>2026-05-25T09:15:56.000Z</time>
      </trkpt>
      <trkpt lat="44.63201" lon="5.20267">
        <ele>1209</ele>
        <time>2026-05-25T09:15:57.000Z</time>
      </trkpt>
      <trkpt lat="44.632" lon="5.20266">
        <ele>1209</ele>
        <time>2026-05-25T09:15:58.000Z</time>
      </trkpt>
      <trkpt lat="44.632" lon="5.20264">
        <ele>1210</ele>
        <time>2026-05-25T09:15:59.000Z</time>
      </trkpt>
      <trkpt lat="44.632" lon="5.20263">
        <ele>1211</ele>
        <time>2026-05-25T09:16:00.000Z</time>
      </trkpt>
      <trkpt lat="44.63199" lon="5.20262">
        <ele>1211</ele>
        <time>2026-05-25T09:16:01.000Z</time>
      </trkpt>
      <trkpt lat="44.63198" lon="5.20262">
        <ele>1211</ele>
        <time>2026-05-25T09:16:02.000Z</time>
      </trkpt>
      <trkpt lat="44.63198" lon="5.20262">
        <ele>1211</ele>
        <time>2026-05-25T09:16:03.000Z</time>
      </trkpt>
      <trkpt lat="44.63198" lon="5.20261">
        <ele>1211</ele>
        <time>2026-05-25T09:16:04.000Z</time>
      </trkpt>
      <trkpt lat="44.63197" lon="5.2026">
        <ele>1211</ele>
        <time>2026-05-25T09:16:05.000Z</time>
      </trkpt>
      <trkpt lat="44.63198" lon="5.20258">
        <ele>1212</ele>
        <time>2026-05-25T09:16:06.000Z</time>
      </trkpt>
      <trkpt lat="44.63197" lon="5.20257">
        <ele>1212</ele>
        <time>2026-05-25T09:16:07.000Z</time>
      </trkpt>
      <trkpt lat="44.63198" lon="5.20255">
        <ele>1213</ele>
        <time>2026-05-25T09:16:08.000Z</time>
      </trkpt>
      <trkpt lat="44.63197" lon="5.20252">
        <ele>1212</ele>
        <time>2026-05-25T09:16:09.000Z</time>
      </trkpt>
      <trkpt lat="44.63197" lon="5.20251">
        <ele>1212</ele>
        <time>2026-05-25T09:16:10.000Z</time>
      </trkpt>
      <trkpt lat="44.63197" lon="5.20249">
        <ele>1212</ele>
        <time>2026-05-25T09:16:11.000Z</time>
      </trkpt>
      <trkpt lat="44.63197" lon="5.20249">
        <ele>1212</ele>
        <time>2026-05-25T09:16:12.000Z</time>
      </trkpt>
      <trkpt lat="44.63197" lon="5.20248">
        <ele>1211</ele>
        <time>2026-05-25T09:16:13.000Z</time>
      </trkpt>
      <trkpt lat="44.63198" lon="5.20248">
        <ele>1211</ele>
        <time>2026-05-25T09:16:14.000Z</time>
      </trkpt>
      <trkpt lat="44.63198" lon="5.20247">
        <ele>1210</ele>
        <time>2026-05-25T09:16:15.000Z</time>
      </trkpt>
      <trkpt lat="44.63198" lon="5.20245">
        <ele>1210</ele>
        <time>2026-05-25T09:16:16.000Z</time>
      </trkpt>
      <trkpt lat="44.63198" lon="5.20244">
        <ele>1211</ele>
        <time>2026-05-25T09:16:17.000Z</time>
      </trkpt>
      <trkpt lat="44.63198" lon="5.20242">
        <ele>1211</ele>
        <time>2026-05-25T09:16:18.000Z</time>
      </trkpt>
      <trkpt lat="44.63198" lon="5.20242">
        <ele>1211</ele>
        <time>2026-05-25T09:16:19.000Z</time>
      </trkpt>
      <trkpt lat="44.63199" lon="5.20241">
        <ele>1211</ele>
        <time>2026-05-25T09:16:20.000Z</time>
      </trkpt>
      <trkpt lat="44.63199" lon="5.20241">
        <ele>1211</ele>
        <time>2026-05-25T09:16:21.000Z</time>
      </trkpt>
      <trkpt lat="44.63199" lon="5.2024">
        <ele>1211</ele>
        <time>2026-05-25T09:16:22.000Z</time>
      </trkpt>
      <trkpt lat="44.63199" lon="5.2024">
        <ele>1211</ele>
        <time>2026-05-25T09:16:23.000Z</time>
      </trkpt>
      <trkpt lat="44.63199" lon="5.20239">
        <ele>1211</ele>
        <time>2026-05-25T09:16:24.000Z</time>
      </trkpt>
      <trkpt lat="44.632" lon="5.20238">
        <ele>1212</ele>
        <time>2026-05-25T09:16:25.000Z</time>
      </trkpt>
      <trkpt lat="44.632" lon="5.20238">
        <ele>1212</ele>
        <time>2026-05-25T09:16:26.000Z</time>
      </trkpt>
      <trkpt lat="44.63201" lon="5.20239">
        <ele>1211</ele>
        <time>2026-05-25T09:16:27.000Z</time>
      </trkpt>
      <trkpt lat="44.63201" lon="5.2024">
        <ele>1210</ele>
        <time>2026-05-25T09:16:28.000Z</time>
      </trkpt>
      <trkpt lat="44.63202" lon="5.2024">
        <ele>1211</ele>
        <time>2026-05-25T09:16:29.000Z</time>
      </trkpt>
      <trkpt lat="44.63202" lon="5.20241">
        <ele>1211</ele>
        <time>2026-05-25T09:16:30.000Z</time>
      </trkpt>
      <trkpt lat="44.63203" lon="5.20242">
        <ele>1211</ele>
        <time>2026-05-25T09:16:31.000Z</time>
      </trkpt>
      <trkpt lat="44.63203" lon="5.20243">
        <ele>1212</ele>
        <time>2026-05-25T09:16:32.000Z</time>
      </trkpt>
      <trkpt lat="44.63204" lon="5.20244">
        <ele>1212</ele>
        <time>2026-05-25T09:16:33.000Z</time>
      </trkpt>
      <trkpt lat="44.63204" lon="5.20245">
        <ele>1213</ele>
        <time>2026-05-25T09:16:34.000Z</time>
      </trkpt>
      <trkpt lat="44.63205" lon="5.20246">
        <ele>1213</ele>
        <time>2026-05-25T09:16:35.000Z</time>
      </trkpt>
      <trkpt lat="44.63205" lon="5.20246">
        <ele>1214</ele>
        <time>2026-05-25T09:16:36.000Z</time>
      </trkpt>
      <trkpt lat="44.63206" lon="5.20246">
        <ele>1213</ele>
        <time>2026-05-25T09:16:37.000Z</time>
      </trkpt>
      <trkpt lat="44.63207" lon="5.20245">
        <ele>1212</ele>
        <time>2026-05-25T09:16:38.000Z</time>
      </trkpt>
      <trkpt lat="44.63207" lon="5.20244">
        <ele>1212</ele>
        <time>2026-05-25T09:16:39.000Z</time>
      </trkpt>
      <trkpt lat="44.63207" lon="5.20242">
        <ele>1213</ele>
        <time>2026-05-25T09:16:40.000Z</time>
      </trkpt>
      <trkpt lat="44.63207" lon="5.20241">
        <ele>1213</ele>
        <time>2026-05-25T09:16:41.000Z</time>
      </trkpt>
      <trkpt lat="44.63207" lon="5.20241">
        <ele>1213</ele>
        <time>2026-05-25T09:16:42.000Z</time>
      </trkpt>
      <trkpt lat="44.63207" lon="5.20241">
        <ele>1213</ele>
        <time>2026-05-25T09:16:43.000Z</time>
      </trkpt>
      <trkpt lat="44.63207" lon="5.20241">
        <ele>1213</ele>
        <time>2026-05-25T09:16:44.000Z</time>
      </trkpt>
      <trkpt lat="44.63207" lon="5.20241">
        <ele>1213</ele>
        <time>2026-05-25T09:16:45.000Z</time>
      </trkpt>
      <trkpt lat="44.63207" lon="5.20239">
        <ele>1214</ele>
        <time>2026-05-25T09:16:46.000Z</time>
      </trkpt>
      <trkpt lat="44.63206" lon="5.20238">
        <ele>1214</ele>
        <time>2026-05-25T09:16:47.000Z</time>
      </trkpt>
      <trkpt lat="44.63206" lon="5.20238">
        <ele>1215</ele>
        <time>2026-05-25T09:16:48.000Z</time>
      </trkpt>
      <trkpt lat="44.63206" lon="5.20236">
        <ele>1214</ele>
        <time>2026-05-25T09:16:49.000Z</time>
      </trkpt>
      <trkpt lat="44.63205" lon="5.20235">
        <ele>1214</ele>
        <time>2026-05-25T09:16:50.000Z</time>
      </trkpt>
      <trkpt lat="44.63205" lon="5.20235">
        <ele>1214</ele>
        <time>2026-05-25T09:16:51.000Z</time>
      </trkpt>
      <trkpt lat="44.63205" lon="5.20235">
        <ele>1214</ele>
        <time>2026-05-25T09:16:52.000Z</time>
      </trkpt>
      <trkpt lat="44.63206" lon="5.20232">
        <ele>1214</ele>
        <time>2026-05-25T09:16:53.000Z</time>
      </trkpt>
      <trkpt lat="44.63205" lon="5.20232">
        <ele>1215</ele>
        <time>2026-05-25T09:16:54.000Z</time>
      </trkpt>
      <trkpt lat="44.63205" lon="5.20231">
        <ele>1215</ele>
        <time>2026-05-25T09:16:55.000Z</time>
      </trkpt>
      <trkpt lat="44.63205" lon="5.2023">
        <ele>1215</ele>
        <time>2026-05-25T09:16:56.000Z</time>
      </trkpt>
      <trkpt lat="44.63206" lon="5.20229">
        <ele>1215</ele>
        <time>2026-05-25T09:16:57.000Z</time>
      </trkpt>
      <trkpt lat="44.63206" lon="5.2023">
        <ele>1216</ele>
        <time>2026-05-25T09:16:58.000Z</time>
      </trkpt>
      <trkpt lat="44.63206" lon="5.20229">
        <ele>1215</ele>
        <time>2026-05-25T09:16:59.000Z</time>
      </trkpt>
      <trkpt lat="44.63207" lon="5.20228">
        <ele>1216</ele>
        <time>2026-05-25T09:17:00.000Z</time>
      </trkpt>
      <trkpt lat="44.63207" lon="5.20228">
        <ele>1216</ele>
        <time>2026-05-25T09:17:01.000Z</time>
      </trkpt>
      <trkpt lat="44.63207" lon="5.20228">
        <ele>1216</ele>
        <time>2026-05-25T09:17:02.000Z</time>
      </trkpt>
      <trkpt lat="44.63208" lon="5.20229">
        <ele>1216</ele>
        <time>2026-05-25T09:17:03.000Z</time>
      </trkpt>
      <trkpt lat="44.63208" lon="5.20229">
        <ele>1216</ele>
        <time>2026-05-25T09:17:04.000Z</time>
      </trkpt>
      <trkpt lat="44.63208" lon="5.20228">
        <ele>1217</ele>
        <time>2026-05-25T09:17:05.000Z</time>
      </trkpt>
      <trkpt lat="44.63209" lon="5.20229">
        <ele>1218</ele>
        <time>2026-05-25T09:17:06.000Z</time>
      </trkpt>
      <trkpt lat="44.63209" lon="5.20229">
        <ele>1219</ele>
        <time>2026-05-25T09:17:07.000Z</time>
      </trkpt>
      <trkpt lat="44.63209" lon="5.20229">
        <ele>1219</ele>
        <time>2026-05-25T09:17:08.000Z</time>
      </trkpt>
      <trkpt lat="44.6321" lon="5.20229">
        <ele>1220</ele>
        <time>2026-05-25T09:17:09.000Z</time>
      </trkpt>
      <trkpt lat="44.6321" lon="5.2023">
        <ele>1221</ele>
        <time>2026-05-25T09:17:10.000Z</time>
      </trkpt>
      <trkpt lat="44.6321" lon="5.2023">
        <ele>1221</ele>
        <time>2026-05-25T09:17:11.000Z</time>
      </trkpt>
      <trkpt lat="44.6321" lon="5.2023">
        <ele>1221</ele>
        <time>2026-05-25T09:17:12.000Z</time>
      </trkpt>
      <trkpt lat="44.63211" lon="5.20228">
        <ele>1223</ele>
        <time>2026-05-25T09:17:13.000Z</time>
      </trkpt>
      <trkpt lat="44.63212" lon="5.20228">
        <ele>1223</ele>
        <time>2026-05-25T09:17:14.000Z</time>
      </trkpt>
      <trkpt lat="44.63212" lon="5.20228">
        <ele>1223</ele>
        <time>2026-05-25T09:17:15.000Z</time>
      </trkpt>
      <trkpt lat="44.63213" lon="5.20227">
        <ele>1224</ele>
        <time>2026-05-25T09:17:16.000Z</time>
      </trkpt>
      <trkpt lat="44.63213" lon="5.20226">
        <ele>1224</ele>
        <time>2026-05-25T09:17:17.000Z</time>
      </trkpt>
      <trkpt lat="44.63214" lon="5.20226">
        <ele>1225</ele>
        <time>2026-05-25T09:17:18.000Z</time>
      </trkpt>
      <trkpt lat="44.63214" lon="5.20225">
        <ele>1225</ele>
        <time>2026-05-25T09:17:19.000Z</time>
      </trkpt>
      <trkpt lat="44.63214" lon="5.20225">
        <ele>1225</ele>
        <time>2026-05-25T09:17:20.000Z</time>
      </trkpt>
      <trkpt lat="44.63214" lon="5.20225">
        <ele>1225</ele>
        <time>2026-05-25T09:17:21.000Z</time>
      </trkpt>
      <trkpt lat="44.63215" lon="5.20226">
        <ele>1226</ele>
        <time>2026-05-25T09:17:22.000Z</time>
      </trkpt>
      <trkpt lat="44.63215" lon="5.20227">
        <ele>1226</ele>
        <time>2026-05-25T09:17:23.000Z</time>
      </trkpt>
      <trkpt lat="44.63215" lon="5.20228">
        <ele>1227</ele>
        <time>2026-05-25T09:17:24.000Z</time>
      </trkpt>
      <trkpt lat="44.63216" lon="5.20228">
        <ele>1227</ele>
        <time>2026-05-25T09:17:25.000Z</time>
      </trkpt>
      <trkpt lat="44.63216" lon="5.20228">
        <ele>1227</ele>
        <time>2026-05-25T09:17:26.000Z</time>
      </trkpt>
      <trkpt lat="44.63216" lon="5.20228">
        <ele>1227</ele>
        <time>2026-05-25T09:17:27.000Z</time>
      </trkpt>
      <trkpt lat="44.63216" lon="5.20228">
        <ele>1227</ele>
        <time>2026-05-25T09:17:28.000Z</time>
      </trkpt>
      <trkpt lat="44.63216" lon="5.20228">
        <ele>1227</ele>
        <time>2026-05-25T09:17:29.000Z</time>
      </trkpt>
      <trkpt lat="44.63216" lon="5.20228">
        <ele>1227</ele>
        <time>2026-05-25T09:17:30.000Z</time>
      </trkpt>
      <trkpt lat="44.63216" lon="5.20228">
        <ele>1227</ele>
        <time>2026-05-25T09:17:31.000Z</time>
      </trkpt>
      <trkpt lat="44.63216" lon="5.20228">
        <ele>1227</ele>
        <time>2026-05-25T09:17:32.000Z</time>
      </trkpt>
      <trkpt lat="44.63216" lon="5.20228">
        <ele>1227</ele>
        <time>2026-05-25T09:17:33.000Z</time>
      </trkpt>
      <trkpt lat="44.63216" lon="5.20228">
        <ele>1227</ele>
        <time>2026-05-25T09:17:34.000Z</time>
      </trkpt>
      <trkpt lat="44.63216" lon="5.20228">
        <ele>1227</ele>
        <time>2026-05-25T09:17:35.000Z</time>
      </trkpt>
      <trkpt lat="44.63216" lon="5.20228">
        <ele>1227</ele>
        <time>2026-05-25T09:17:36.000Z</time>
      </trkpt>
      <trkpt lat="44.63216" lon="5.20228">
        <ele>1227</ele>
        <time>2026-05-25T09:17:37.000Z</time>
      </trkpt>
      <trkpt lat="44.63216" lon="5.20228">
        <ele>1227</ele>
        <time>2026-05-25T09:17:38.000Z</time>
      </trkpt>
      <trkpt lat="44.63216" lon="5.20228">
        <ele>1227</ele>
        <time>2026-05-25T09:17:39.000Z</time>
      </trkpt>
      <trkpt lat="44.63216" lon="5.20228">
        <ele>1227</ele>
        <time>2026-05-25T09:17:40.000Z</time>
      </trkpt>
      <trkpt lat="44.63216" lon="5.20228">
        <ele>1227</ele>
        <time>2026-05-25T09:17:41.000Z</time>
      </trkpt>
      <trkpt lat="44.63216" lon="5.20228">
        <ele>1227</ele>
        <time>2026-05-25T09:17:42.000Z</time>
      </trkpt>
      <trkpt lat="44.63215" lon="5.2023">
        <ele>1227</ele>
        <time>2026-05-25T09:17:43.000Z</time>
      </trkpt>
      <trkpt lat="44.63216" lon="5.20231">
        <ele>1227</ele>
        <time>2026-05-25T09:17:44.000Z</time>
      </trkpt>
      <trkpt lat="44.63216" lon="5.20232">
        <ele>1228</ele>
        <time>2026-05-25T09:17:45.000Z</time>
      </trkpt>
      <trkpt lat="44.63216" lon="5.20234">
        <ele>1228</ele>
        <time>2026-05-25T09:17:46.000Z</time>
      </trkpt>
      <trkpt lat="44.63216" lon="5.20235">
        <ele>1228</ele>
        <time>2026-05-25T09:17:47.000Z</time>
      </trkpt>
      <trkpt lat="44.63216" lon="5.20237">
        <ele>1228</ele>
        <time>2026-05-25T09:17:48.000Z</time>
      </trkpt>
      <trkpt lat="44.63216" lon="5.20238">
        <ele>1228</ele>
        <time>2026-05-25T09:17:49.000Z</time>
      </trkpt>
      <trkpt lat="44.63216" lon="5.2024">
        <ele>1229</ele>
        <time>2026-05-25T09:17:50.000Z</time>
      </trkpt>
      <trkpt lat="44.63216" lon="5.2024">
        <ele>1228</ele>
        <time>2026-05-25T09:17:51.000Z</time>
      </trkpt>
      <trkpt lat="44.63217" lon="5.20242">
        <ele>1229</ele>
        <time>2026-05-25T09:17:52.000Z</time>
      </trkpt>
      <trkpt lat="44.63217" lon="5.20241">
        <ele>1229</ele>
        <time>2026-05-25T09:17:53.000Z</time>
      </trkpt>
      <trkpt lat="44.63218" lon="5.2024">
        <ele>1229</ele>
        <time>2026-05-25T09:17:54.000Z</time>
      </trkpt>
      <trkpt lat="44.63218" lon="5.2024">
        <ele>1228</ele>
        <time>2026-05-25T09:17:55.000Z</time>
      </trkpt>
      <trkpt lat="44.63218" lon="5.20239">
        <ele>1230</ele>
        <time>2026-05-25T09:17:56.000Z</time>
      </trkpt>
      <trkpt lat="44.63218" lon="5.20238">
        <ele>1230</ele>
        <time>2026-05-25T09:17:57.000Z</time>
      </trkpt>
      <trkpt lat="44.63218" lon="5.20237">
        <ele>1231</ele>
        <time>2026-05-25T09:17:58.000Z</time>
      </trkpt>
      <trkpt lat="44.63218" lon="5.20237">
        <ele>1231</ele>
        <time>2026-05-25T09:17:59.000Z</time>
      </trkpt>
      <trkpt lat="44.63218" lon="5.20237">
        <ele>1231</ele>
        <time>2026-05-25T09:18:00.000Z</time>
      </trkpt>
      <trkpt lat="44.63218" lon="5.20237">
        <ele>1231</ele>
        <time>2026-05-25T09:18:01.000Z</time>
      </trkpt>
      <trkpt lat="44.63218" lon="5.20237">
        <ele>1231</ele>
        <time>2026-05-25T09:18:02.000Z</time>
      </trkpt>
      <trkpt lat="44.63218" lon="5.20237">
        <ele>1231</ele>
        <time>2026-05-25T09:18:03.000Z</time>
      </trkpt>
      <trkpt lat="44.63218" lon="5.20237">
        <ele>1231</ele>
        <time>2026-05-25T09:18:04.000Z</time>
      </trkpt>
      <trkpt lat="44.6322" lon="5.20238">
        <ele>1232</ele>
        <time>2026-05-25T09:18:05.000Z</time>
      </trkpt>
      <trkpt lat="44.63221" lon="5.20239">
        <ele>1232</ele>
        <time>2026-05-25T09:18:06.000Z</time>
      </trkpt>
      <trkpt lat="44.63222" lon="5.20239">
        <ele>1232</ele>
        <time>2026-05-25T09:18:07.000Z</time>
      </trkpt>
      <trkpt lat="44.63223" lon="5.2024">
        <ele>1232</ele>
        <time>2026-05-25T09:18:08.000Z</time>
      </trkpt>
      <trkpt lat="44.63224" lon="5.20241">
        <ele>1232</ele>
        <time>2026-05-25T09:18:09.000Z</time>
      </trkpt>
      <trkpt lat="44.63224" lon="5.20241">
        <ele>1232</ele>
        <time>2026-05-25T09:18:10.000Z</time>
      </trkpt>
      <trkpt lat="44.63225" lon="5.20242">
        <ele>1232</ele>
        <time>2026-05-25T09:18:11.000Z</time>
      </trkpt>
      <trkpt lat="44.63225" lon="5.20242">
        <ele>1232</ele>
        <time>2026-05-25T09:18:12.000Z</time>
      </trkpt>
      <trkpt lat="44.63225" lon="5.20243">
        <ele>1232</ele>
        <time>2026-05-25T09:18:13.000Z</time>
      </trkpt>
      <trkpt lat="44.63226" lon="5.20244">
        <ele>1232</ele>
        <time>2026-05-25T09:18:14.000Z</time>
      </trkpt>
      <trkpt lat="44.63227" lon="5.20244">
        <ele>1232</ele>
        <time>2026-05-25T09:18:15.000Z</time>
      </trkpt>
      <trkpt lat="44.63228" lon="5.20243">
        <ele>1233</ele>
        <time>2026-05-25T09:18:16.000Z</time>
      </trkpt>
      <trkpt lat="44.63228" lon="5.20242">
        <ele>1234</ele>
        <time>2026-05-25T09:18:17.000Z</time>
      </trkpt>
      <trkpt lat="44.63228" lon="5.20242">
        <ele>1234</ele>
        <time>2026-05-25T09:18:18.000Z</time>
      </trkpt>
      <trkpt lat="44.63228" lon="5.20242">
        <ele>1234</ele>
        <time>2026-05-25T09:18:19.000Z</time>
      </trkpt>
      <trkpt lat="44.63229" lon="5.20243">
        <ele>1233</ele>
        <time>2026-05-25T09:18:20.000Z</time>
      </trkpt>
      <trkpt lat="44.63229" lon="5.20243">
        <ele>1233</ele>
        <time>2026-05-25T09:18:21.000Z</time>
      </trkpt>
      <trkpt lat="44.63229" lon="5.20243">
        <ele>1233</ele>
        <time>2026-05-25T09:18:22.000Z</time>
      </trkpt>
      <trkpt lat="44.63229" lon="5.20243">
        <ele>1233</ele>
        <time>2026-05-25T09:18:23.000Z</time>
      </trkpt>
      <trkpt lat="44.63229" lon="5.20243">
        <ele>1233</ele>
        <time>2026-05-25T09:18:24.000Z</time>
      </trkpt>
      <trkpt lat="44.63229" lon="5.20243">
        <ele>1233</ele>
        <time>2026-05-25T09:18:25.000Z</time>
      </trkpt>
      <trkpt lat="44.63229" lon="5.20243">
        <ele>1233</ele>
        <time>2026-05-25T09:18:26.000Z</time>
      </trkpt>
      <trkpt lat="44.63229" lon="5.20243">
        <ele>1233</ele>
        <time>2026-05-25T09:18:27.000Z</time>
      </trkpt>
      <trkpt lat="44.63229" lon="5.20243">
        <ele>1233</ele>
        <time>2026-05-25T09:18:28.000Z</time>
      </trkpt>
      <trkpt lat="44.63229" lon="5.20243">
        <ele>1233</ele>
        <time>2026-05-25T09:18:29.000Z</time>
      </trkpt>
      <trkpt lat="44.63229" lon="5.20243">
        <ele>1233</ele>
        <time>2026-05-25T09:18:30.000Z</time>
      </trkpt>
      <trkpt lat="44.63231" lon="5.20239">
        <ele>1234</ele>
        <time>2026-05-25T09:18:31.000Z</time>
      </trkpt>
      <trkpt lat="44.63231" lon="5.20239">
        <ele>1233</ele>
        <time>2026-05-25T09:18:32.000Z</time>
      </trkpt>
      <trkpt lat="44.63232" lon="5.20239">
        <ele>1233</ele>
        <time>2026-05-25T09:18:33.000Z</time>
      </trkpt>
      <trkpt lat="44.63232" lon="5.2024">
        <ele>1234</ele>
        <time>2026-05-25T09:18:34.000Z</time>
      </trkpt>
      <trkpt lat="44.63232" lon="5.2024">
        <ele>1236</ele>
        <time>2026-05-25T09:18:35.000Z</time>
      </trkpt>
      <trkpt lat="44.63232" lon="5.2024">
        <ele>1236</ele>
        <time>2026-05-25T09:18:36.000Z</time>
      </trkpt>
      <trkpt lat="44.63232" lon="5.2024">
        <ele>1236</ele>
        <time>2026-05-25T09:18:37.000Z</time>
      </trkpt>
      <trkpt lat="44.63232" lon="5.2024">
        <ele>1236</ele>
        <time>2026-05-25T09:18:38.000Z</time>
      </trkpt>
      <trkpt lat="44.63234" lon="5.2024">
        <ele>1236</ele>
        <time>2026-05-25T09:18:39.000Z</time>
      </trkpt>
      <trkpt lat="44.63234" lon="5.2024">
        <ele>1237</ele>
        <time>2026-05-25T09:18:40.000Z</time>
      </trkpt>
      <trkpt lat="44.63234" lon="5.2024">
        <ele>1237</ele>
        <time>2026-05-25T09:18:41.000Z</time>
      </trkpt>
      <trkpt lat="44.63235" lon="5.20241">
        <ele>1237</ele>
        <time>2026-05-25T09:18:42.000Z</time>
      </trkpt>
      <trkpt lat="44.63235" lon="5.20241">
        <ele>1237</ele>
        <time>2026-05-25T09:18:43.000Z</time>
      </trkpt>
      <trkpt lat="44.63235" lon="5.20241">
        <ele>1237</ele>
        <time>2026-05-25T09:18:44.000Z</time>
      </trkpt>
      <trkpt lat="44.63237" lon="5.20242">
        <ele>1239</ele>
        <time>2026-05-25T09:18:45.000Z</time>
      </trkpt>
      <trkpt lat="44.63237" lon="5.20243">
        <ele>1240</ele>
        <time>2026-05-25T09:18:46.000Z</time>
      </trkpt>
      <trkpt lat="44.63238" lon="5.20243">
        <ele>1240</ele>
        <time>2026-05-25T09:18:47.000Z</time>
      </trkpt>
      <trkpt lat="44.63238" lon="5.20244">
        <ele>1240</ele>
        <time>2026-05-25T09:18:48.000Z</time>
      </trkpt>
      <trkpt lat="44.63238" lon="5.20245">
        <ele>1240</ele>
        <time>2026-05-25T09:18:49.000Z</time>
      </trkpt>
      <trkpt lat="44.63238" lon="5.20245">
        <ele>1240</ele>
        <time>2026-05-25T09:18:50.000Z</time>
      </trkpt>
      <trkpt lat="44.63238" lon="5.20245">
        <ele>1240</ele>
        <time>2026-05-25T09:18:51.000Z</time>
      </trkpt>
      <trkpt lat="44.63239" lon="5.20247">
        <ele>1241</ele>
        <time>2026-05-25T09:18:52.000Z</time>
      </trkpt>
      <trkpt lat="44.6324" lon="5.20247">
        <ele>1242</ele>
        <time>2026-05-25T09:18:53.000Z</time>
      </trkpt>
      <trkpt lat="44.6324" lon="5.20247">
        <ele>1243</ele>
        <time>2026-05-25T09:18:54.000Z</time>
      </trkpt>
      <trkpt lat="44.6324" lon="5.20247">
        <ele>1242</ele>
        <time>2026-05-25T09:18:55.000Z</time>
      </trkpt>
      <trkpt lat="44.6324" lon="5.20247">
        <ele>1242</ele>
        <time>2026-05-25T09:18:56.000Z</time>
      </trkpt>
      <trkpt lat="44.6324" lon="5.20247">
        <ele>1242</ele>
        <time>2026-05-25T09:18:57.000Z</time>
      </trkpt>
      <trkpt lat="44.6324" lon="5.20247">
        <ele>1242</ele>
        <time>2026-05-25T09:18:58.000Z</time>
      </trkpt>
      <trkpt lat="44.6324" lon="5.20247">
        <ele>1242</ele>
        <time>2026-05-25T09:18:59.000Z</time>
      </trkpt>
      <trkpt lat="44.6324" lon="5.20247">
        <ele>1242</ele>
        <time>2026-05-25T09:19:00.000Z</time>
      </trkpt>
      <trkpt lat="44.6324" lon="5.20247">
        <ele>1242</ele>
        <time>2026-05-25T09:19:01.000Z</time>
      </trkpt>
      <trkpt lat="44.6324" lon="5.20247">
        <ele>1242</ele>
        <time>2026-05-25T09:19:02.000Z</time>
      </trkpt>
      <trkpt lat="44.6324" lon="5.20247">
        <ele>1242</ele>
        <time>2026-05-25T09:19:03.000Z</time>
      </trkpt>
      <trkpt lat="44.6324" lon="5.20247">
        <ele>1242</ele>
        <time>2026-05-25T09:19:04.000Z</time>
      </trkpt>
      <trkpt lat="44.6324" lon="5.20247">
        <ele>1242</ele>
        <time>2026-05-25T09:19:05.000Z</time>
      </trkpt>
      <trkpt lat="44.6324" lon="5.20247">
        <ele>1242</ele>
        <time>2026-05-25T09:19:06.000Z</time>
      </trkpt>
      <trkpt lat="44.6324" lon="5.20247">
        <ele>1242</ele>
        <time>2026-05-25T09:19:07.000Z</time>
      </trkpt>
      <trkpt lat="44.6324" lon="5.20247">
        <ele>1242</ele>
        <time>2026-05-25T09:19:08.000Z</time>
      </trkpt>
      <trkpt lat="44.6324" lon="5.20247">
        <ele>1242</ele>
        <time>2026-05-25T09:19:09.000Z</time>
      </trkpt>
      <trkpt lat="44.6324" lon="5.20245">
        <ele>1241</ele>
        <time>2026-05-25T09:19:10.000Z</time>
      </trkpt>
      <trkpt lat="44.6324" lon="5.20244">
        <ele>1241</ele>
        <time>2026-05-25T09:19:11.000Z</time>
      </trkpt>
      <trkpt lat="44.6324" lon="5.20243">
        <ele>1241</ele>
        <time>2026-05-25T09:19:12.000Z</time>
      </trkpt>
      <trkpt lat="44.6324" lon="5.20242">
        <ele>1241</ele>
        <time>2026-05-25T09:19:13.000Z</time>
      </trkpt>
      <trkpt lat="44.6324" lon="5.20242">
        <ele>1241</ele>
        <time>2026-05-25T09:19:14.000Z</time>
      </trkpt>
      <trkpt lat="44.6324" lon="5.20242">
        <ele>1241</ele>
        <time>2026-05-25T09:19:15.000Z</time>
      </trkpt>
      <trkpt lat="44.6324" lon="5.2024">
        <ele>1241</ele>
        <time>2026-05-25T09:19:16.000Z</time>
      </trkpt>
      <trkpt lat="44.63239" lon="5.2024">
        <ele>1240</ele>
        <time>2026-05-25T09:19:17.000Z</time>
      </trkpt>
      <trkpt lat="44.6324" lon="5.20239">
        <ele>1241</ele>
        <time>2026-05-25T09:19:18.000Z</time>
      </trkpt>
      <trkpt lat="44.6324" lon="5.20238">
        <ele>1241</ele>
        <time>2026-05-25T09:19:19.000Z</time>
      </trkpt>
      <trkpt lat="44.6324" lon="5.20238">
        <ele>1241</ele>
        <time>2026-05-25T09:19:20.000Z</time>
      </trkpt>
      <trkpt lat="44.6324" lon="5.20238">
        <ele>1241</ele>
        <time>2026-05-25T09:19:21.000Z</time>
      </trkpt>
      <trkpt lat="44.63238" lon="5.20236">
        <ele>1241</ele>
        <time>2026-05-25T09:19:22.000Z</time>
      </trkpt>
      <trkpt lat="44.63238" lon="5.20235">
        <ele>1241</ele>
        <time>2026-05-25T09:19:23.000Z</time>
      </trkpt>
      <trkpt lat="44.63238" lon="5.20234">
        <ele>1241</ele>
        <time>2026-05-25T09:19:24.000Z</time>
      </trkpt>
      <trkpt lat="44.63238" lon="5.20233">
        <ele>1241</ele>
        <time>2026-05-25T09:19:25.000Z</time>
      </trkpt>
      <trkpt lat="44.63237" lon="5.20232">
        <ele>1241</ele>
        <time>2026-05-25T09:19:26.000Z</time>
      </trkpt>
      <trkpt lat="44.63237" lon="5.20232">
        <ele>1241</ele>
        <time>2026-05-25T09:19:27.000Z</time>
      </trkpt>
      <trkpt lat="44.63237" lon="5.20232">
        <ele>1241</ele>
        <time>2026-05-25T09:19:28.000Z</time>
      </trkpt>
      <trkpt lat="44.63237" lon="5.20229">
        <ele>1241</ele>
        <time>2026-05-25T09:19:29.000Z</time>
      </trkpt>
      <trkpt lat="44.63237" lon="5.20228">
        <ele>1242</ele>
        <time>2026-05-25T09:19:30.000Z</time>
      </trkpt>
      <trkpt lat="44.63237" lon="5.20228">
        <ele>1242</ele>
        <time>2026-05-25T09:19:31.000Z</time>
      </trkpt>
      <trkpt lat="44.63237" lon="5.20226">
        <ele>1244</ele>
        <time>2026-05-25T09:19:32.000Z</time>
      </trkpt>
      <trkpt lat="44.63237" lon="5.20226">
        <ele>1244</ele>
        <time>2026-05-25T09:19:33.000Z</time>
      </trkpt>
      <trkpt lat="44.63237" lon="5.20226">
        <ele>1244</ele>
        <time>2026-05-25T09:19:34.000Z</time>
      </trkpt>
      <trkpt lat="44.63236" lon="5.20224">
        <ele>1244</ele>
        <time>2026-05-25T09:19:35.000Z</time>
      </trkpt>
      <trkpt lat="44.63236" lon="5.20223">
        <ele>1243</ele>
        <time>2026-05-25T09:19:36.000Z</time>
      </trkpt>
      <trkpt lat="44.63236" lon="5.20223">
        <ele>1243</ele>
        <time>2026-05-25T09:19:37.000Z</time>
      </trkpt>
      <trkpt lat="44.63235" lon="5.20221">
        <ele>1243</ele>
        <time>2026-05-25T09:19:38.000Z</time>
      </trkpt>
      <trkpt lat="44.63235" lon="5.2022">
        <ele>1243</ele>
        <time>2026-05-25T09:19:39.000Z</time>
      </trkpt>
      <trkpt lat="44.63234" lon="5.20219">
        <ele>1242</ele>
        <time>2026-05-25T09:19:40.000Z</time>
      </trkpt>
      <trkpt lat="44.63234" lon="5.20218">
        <ele>1242</ele>
        <time>2026-05-25T09:19:41.000Z</time>
      </trkpt>
      <trkpt lat="44.63234" lon="5.20216">
        <ele>1241</ele>
        <time>2026-05-25T09:19:42.000Z</time>
      </trkpt>
      <trkpt lat="44.63233" lon="5.20215">
        <ele>1241</ele>
        <time>2026-05-25T09:19:43.000Z</time>
      </trkpt>
      <trkpt lat="44.63233" lon="5.20213">
        <ele>1241</ele>
        <time>2026-05-25T09:19:44.000Z</time>
      </trkpt>
      <trkpt lat="44.63233" lon="5.20212">
        <ele>1241</ele>
        <time>2026-05-25T09:19:45.000Z</time>
      </trkpt>
      <trkpt lat="44.63232" lon="5.20211">
        <ele>1242</ele>
        <time>2026-05-25T09:19:46.000Z</time>
      </trkpt>
      <trkpt lat="44.63232" lon="5.2021">
        <ele>1242</ele>
        <time>2026-05-25T09:19:47.000Z</time>
      </trkpt>
      <trkpt lat="44.63232" lon="5.20208">
        <ele>1241</ele>
        <time>2026-05-25T09:19:48.000Z</time>
      </trkpt>
      <trkpt lat="44.63232" lon="5.20208">
        <ele>1241</ele>
        <time>2026-05-25T09:19:49.000Z</time>
      </trkpt>
      <trkpt lat="44.63232" lon="5.20207">
        <ele>1241</ele>
        <time>2026-05-25T09:19:50.000Z</time>
      </trkpt>
      <trkpt lat="44.63232" lon="5.20206">
        <ele>1241</ele>
        <time>2026-05-25T09:19:51.000Z</time>
      </trkpt>
      <trkpt lat="44.63231" lon="5.20206">
        <ele>1241</ele>
        <time>2026-05-25T09:19:52.000Z</time>
      </trkpt>
      <trkpt lat="44.63231" lon="5.20206">
        <ele>1241</ele>
        <time>2026-05-25T09:19:53.000Z</time>
      </trkpt>
      <trkpt lat="44.63231" lon="5.20206">
        <ele>1241</ele>
        <time>2026-05-25T09:19:54.000Z</time>
      </trkpt>
      <trkpt lat="44.63231" lon="5.20206">
        <ele>1241</ele>
        <time>2026-05-25T09:19:55.000Z</time>
      </trkpt>
      <trkpt lat="44.63231" lon="5.20206">
        <ele>1241</ele>
        <time>2026-05-25T09:19:56.000Z</time>
      </trkpt>
      <trkpt lat="44.63231" lon="5.20206">
        <ele>1241</ele>
        <time>2026-05-25T09:19:57.000Z</time>
      </trkpt>
      <trkpt lat="44.63231" lon="5.20203">
        <ele>1243</ele>
        <time>2026-05-25T09:19:58.000Z</time>
      </trkpt>
      <trkpt lat="44.63231" lon="5.20203">
        <ele>1243</ele>
        <time>2026-05-25T09:19:59.000Z</time>
      </trkpt>
      <trkpt lat="44.63232" lon="5.20202">
        <ele>1244</ele>
        <time>2026-05-25T09:20:00.000Z</time>
      </trkpt>
      <trkpt lat="44.63232" lon="5.20201">
        <ele>1244</ele>
        <time>2026-05-25T09:20:01.000Z</time>
      </trkpt>
      <trkpt lat="44.63232" lon="5.20201">
        <ele>1244</ele>
        <time>2026-05-25T09:20:02.000Z</time>
      </trkpt>
      <trkpt lat="44.63232" lon="5.20201">
        <ele>1244</ele>
        <time>2026-05-25T09:20:03.000Z</time>
      </trkpt>
      <trkpt lat="44.63231" lon="5.20199">
        <ele>1245</ele>
        <time>2026-05-25T09:20:04.000Z</time>
      </trkpt>
      <trkpt lat="44.63231" lon="5.20198">
        <ele>1244</ele>
        <time>2026-05-25T09:20:05.000Z</time>
      </trkpt>
      <trkpt lat="44.6323" lon="5.20197">
        <ele>1244</ele>
        <time>2026-05-25T09:20:06.000Z</time>
      </trkpt>
      <trkpt lat="44.6323" lon="5.20196">
        <ele>1244</ele>
        <time>2026-05-25T09:20:07.000Z</time>
      </trkpt>
      <trkpt lat="44.6323" lon="5.20195">
        <ele>1244</ele>
        <time>2026-05-25T09:20:08.000Z</time>
      </trkpt>
      <trkpt lat="44.6323" lon="5.20194">
        <ele>1244</ele>
        <time>2026-05-25T09:20:09.000Z</time>
      </trkpt>
      <trkpt lat="44.6323" lon="5.20193">
        <ele>1245</ele>
        <time>2026-05-25T09:20:10.000Z</time>
      </trkpt>
      <trkpt lat="44.6323" lon="5.20192">
        <ele>1244</ele>
        <time>2026-05-25T09:20:11.000Z</time>
      </trkpt>
      <trkpt lat="44.63229" lon="5.20191">
        <ele>1244</ele>
        <time>2026-05-25T09:20:12.000Z</time>
      </trkpt>
      <trkpt lat="44.63228" lon="5.20191">
        <ele>1244</ele>
        <time>2026-05-25T09:20:13.000Z</time>
      </trkpt>
      <trkpt lat="44.63228" lon="5.2019">
        <ele>1244</ele>
        <time>2026-05-25T09:20:14.000Z</time>
      </trkpt>
      <trkpt lat="44.63227" lon="5.20189">
        <ele>1244</ele>
        <time>2026-05-25T09:20:15.000Z</time>
      </trkpt>
      <trkpt lat="44.63227" lon="5.20188">
        <ele>1244</ele>
        <time>2026-05-25T09:20:16.000Z</time>
      </trkpt>
      <trkpt lat="44.63227" lon="5.20187">
        <ele>1243</ele>
        <time>2026-05-25T09:20:17.000Z</time>
      </trkpt>
      <trkpt lat="44.63226" lon="5.20185">
        <ele>1243</ele>
        <time>2026-05-25T09:20:18.000Z</time>
      </trkpt>
      <trkpt lat="44.63226" lon="5.20184">
        <ele>1243</ele>
        <time>2026-05-25T09:20:19.000Z</time>
      </trkpt>
      <trkpt lat="44.63226" lon="5.20183">
        <ele>1244</ele>
        <time>2026-05-25T09:20:20.000Z</time>
      </trkpt>
      <trkpt lat="44.63226" lon="5.20182">
        <ele>1243</ele>
        <time>2026-05-25T09:20:21.000Z</time>
      </trkpt>
      <trkpt lat="44.63226" lon="5.20181">
        <ele>1243</ele>
        <time>2026-05-25T09:20:22.000Z</time>
      </trkpt>
      <trkpt lat="44.63226" lon="5.2018">
        <ele>1243</ele>
        <time>2026-05-25T09:20:23.000Z</time>
      </trkpt>
      <trkpt lat="44.63226" lon="5.2018">
        <ele>1243</ele>
        <time>2026-05-25T09:20:24.000Z</time>
      </trkpt>
      <trkpt lat="44.63226" lon="5.2018">
        <ele>1243</ele>
        <time>2026-05-25T09:20:25.000Z</time>
      </trkpt>
      <trkpt lat="44.63226" lon="5.2018">
        <ele>1243</ele>
        <time>2026-05-25T09:20:26.000Z</time>
      </trkpt>
      <trkpt lat="44.63226" lon="5.2018">
        <ele>1243</ele>
        <time>2026-05-25T09:20:27.000Z</time>
      </trkpt>
      <trkpt lat="44.63226" lon="5.2018">
        <ele>1243</ele>
        <time>2026-05-25T09:20:28.000Z</time>
      </trkpt>
      <trkpt lat="44.63226" lon="5.2018">
        <ele>1243</ele>
        <time>2026-05-25T09:20:29.000Z</time>
      </trkpt>
      <trkpt lat="44.63226" lon="5.2018">
        <ele>1243</ele>
        <time>2026-05-25T09:20:30.000Z</time>
      </trkpt>
      <trkpt lat="44.63226" lon="5.2018">
        <ele>1243</ele>
        <time>2026-05-25T09:20:31.000Z</time>
      </trkpt>
      <trkpt lat="44.63226" lon="5.2018">
        <ele>1243</ele>
        <time>2026-05-25T09:20:32.000Z</time>
      </trkpt>
      <trkpt lat="44.63226" lon="5.2018">
        <ele>1243</ele>
        <time>2026-05-25T09:20:33.000Z</time>
      </trkpt>
      <trkpt lat="44.63226" lon="5.2018">
        <ele>1243</ele>
        <time>2026-05-25T09:20:34.000Z</time>
      </trkpt>
      <trkpt lat="44.63226" lon="5.2018">
        <ele>1243</ele>
        <time>2026-05-25T09:20:35.000Z</time>
      </trkpt>
      <trkpt lat="44.63226" lon="5.2018">
        <ele>1243</ele>
        <time>2026-05-25T09:20:36.000Z</time>
      </trkpt>
      <trkpt lat="44.63226" lon="5.2018">
        <ele>1243</ele>
        <time>2026-05-25T09:20:37.000Z</time>
      </trkpt>
      <trkpt lat="44.63226" lon="5.20179">
        <ele>1243</ele>
        <time>2026-05-25T09:20:38.000Z</time>
      </trkpt>
      <trkpt lat="44.63226" lon="5.20178">
        <ele>1243</ele>
        <time>2026-05-25T09:20:39.000Z</time>
      </trkpt>
      <trkpt lat="44.63226" lon="5.20177">
        <ele>1243</ele>
        <time>2026-05-25T09:20:40.000Z</time>
      </trkpt>
      <trkpt lat="44.63226" lon="5.20175">
        <ele>1243</ele>
        <time>2026-05-25T09:20:41.000Z</time>
      </trkpt>
      <trkpt lat="44.63226" lon="5.20174">
        <ele>1243</ele>
        <time>2026-05-25T09:20:42.000Z</time>
      </trkpt>
      <trkpt lat="44.63227" lon="5.20173">
        <ele>1244</ele>
        <time>2026-05-25T09:20:43.000Z</time>
      </trkpt>
      <trkpt lat="44.63227" lon="5.20173">
        <ele>1244</ele>
        <time>2026-05-25T09:20:44.000Z</time>
      </trkpt>
      <trkpt lat="44.63227" lon="5.20173">
        <ele>1244</ele>
        <time>2026-05-25T09:20:45.000Z</time>
      </trkpt>
      <trkpt lat="44.63227" lon="5.20173">
        <ele>1244</ele>
        <time>2026-05-25T09:20:46.000Z</time>
      </trkpt>
      <trkpt lat="44.63228" lon="5.20171">
        <ele>1244</ele>
        <time>2026-05-25T09:20:47.000Z</time>
      </trkpt>
      <trkpt lat="44.63228" lon="5.2017">
        <ele>1245</ele>
        <time>2026-05-25T09:20:48.000Z</time>
      </trkpt>
      <trkpt lat="44.63228" lon="5.2017">
        <ele>1245</ele>
        <time>2026-05-25T09:20:49.000Z</time>
      </trkpt>
      <trkpt lat="44.63228" lon="5.20169">
        <ele>1246</ele>
        <time>2026-05-25T09:20:50.000Z</time>
      </trkpt>
      <trkpt lat="44.63228" lon="5.20168">
        <ele>1246</ele>
        <time>2026-05-25T09:20:51.000Z</time>
      </trkpt>
      <trkpt lat="44.63228" lon="5.20166">
        <ele>1246</ele>
        <time>2026-05-25T09:20:52.000Z</time>
      </trkpt>
      <trkpt lat="44.63228" lon="5.20166">
        <ele>1245</ele>
        <time>2026-05-25T09:20:53.000Z</time>
      </trkpt>
      <trkpt lat="44.63227" lon="5.20165">
        <ele>1245</ele>
        <time>2026-05-25T09:20:54.000Z</time>
      </trkpt>
      <trkpt lat="44.63227" lon="5.20165">
        <ele>1245</ele>
        <time>2026-05-25T09:20:55.000Z</time>
      </trkpt>
      <trkpt lat="44.63227" lon="5.20165">
        <ele>1245</ele>
        <time>2026-05-25T09:20:56.000Z</time>
      </trkpt>
      <trkpt lat="44.63227" lon="5.20164">
        <ele>1246</ele>
        <time>2026-05-25T09:20:57.000Z</time>
      </trkpt>
      <trkpt lat="44.63227" lon="5.20163">
        <ele>1246</ele>
        <time>2026-05-25T09:20:58.000Z</time>
      </trkpt>
      <trkpt lat="44.63227" lon="5.20161">
        <ele>1245</ele>
        <time>2026-05-25T09:20:59.000Z</time>
      </trkpt>
      <trkpt lat="44.63228" lon="5.20159">
        <ele>1246</ele>
        <time>2026-05-25T09:21:00.000Z</time>
      </trkpt>
      <trkpt lat="44.63227" lon="5.20159">
        <ele>1245</ele>
        <time>2026-05-25T09:21:01.000Z</time>
      </trkpt>
      <trkpt lat="44.63228" lon="5.20158">
        <ele>1246</ele>
        <time>2026-05-25T09:21:02.000Z</time>
      </trkpt>
      <trkpt lat="44.63228" lon="5.20157">
        <ele>1245</ele>
        <time>2026-05-25T09:21:03.000Z</time>
      </trkpt>
      <trkpt lat="44.63227" lon="5.20154">
        <ele>1245</ele>
        <time>2026-05-25T09:21:04.000Z</time>
      </trkpt>
      <trkpt lat="44.63227" lon="5.20152">
        <ele>1245</ele>
        <time>2026-05-25T09:21:05.000Z</time>
      </trkpt>
      <trkpt lat="44.63226" lon="5.20151">
        <ele>1246</ele>
        <time>2026-05-25T09:21:06.000Z</time>
      </trkpt>
      <trkpt lat="44.63225" lon="5.20149">
        <ele>1245</ele>
        <time>2026-05-25T09:21:07.000Z</time>
      </trkpt>
      <trkpt lat="44.63225" lon="5.20148">
        <ele>1246</ele>
        <time>2026-05-25T09:21:08.000Z</time>
      </trkpt>
      <trkpt lat="44.63225" lon="5.20147">
        <ele>1247</ele>
        <time>2026-05-25T09:21:09.000Z</time>
      </trkpt>
      <trkpt lat="44.63225" lon="5.20146">
        <ele>1248</ele>
        <time>2026-05-25T09:21:10.000Z</time>
      </trkpt>
      <trkpt lat="44.63225" lon="5.20146">
        <ele>1248</ele>
        <time>2026-05-25T09:21:11.000Z</time>
      </trkpt>
      <trkpt lat="44.63226" lon="5.20145">
        <ele>1248</ele>
        <time>2026-05-25T09:21:12.000Z</time>
      </trkpt>
      <trkpt lat="44.63227" lon="5.20144">
        <ele>1249</ele>
        <time>2026-05-25T09:21:13.000Z</time>
      </trkpt>
      <trkpt lat="44.63225" lon="5.20144">
        <ele>1250</ele>
        <time>2026-05-25T09:21:14.000Z</time>
      </trkpt>
      <trkpt lat="44.63224" lon="5.20143">
        <ele>1252</ele>
        <time>2026-05-25T09:21:15.000Z</time>
      </trkpt>
      <trkpt lat="44.63223" lon="5.20142">
        <ele>1252</ele>
        <time>2026-05-25T09:21:16.000Z</time>
      </trkpt>
      <trkpt lat="44.63222" lon="5.2014">
        <ele>1252</ele>
        <time>2026-05-25T09:21:17.000Z</time>
      </trkpt>
      <trkpt lat="44.63221" lon="5.20139">
        <ele>1253</ele>
        <time>2026-05-25T09:21:18.000Z</time>
      </trkpt>
      <trkpt lat="44.6322" lon="5.20139">
        <ele>1253</ele>
        <time>2026-05-25T09:21:19.000Z</time>
      </trkpt>
      <trkpt lat="44.6322" lon="5.20139">
        <ele>1254</ele>
        <time>2026-05-25T09:21:20.000Z</time>
      </trkpt>
      <trkpt lat="44.63219" lon="5.20138">
        <ele>1253</ele>
        <time>2026-05-25T09:21:21.000Z</time>
      </trkpt>
      <trkpt lat="44.63219" lon="5.20137">
        <ele>1252</ele>
        <time>2026-05-25T09:21:22.000Z</time>
      </trkpt>
      <trkpt lat="44.63219" lon="5.20137">
        <ele>1252</ele>
        <time>2026-05-25T09:21:23.000Z</time>
      </trkpt>
      <trkpt lat="44.63218" lon="5.20135">
        <ele>1253</ele>
        <time>2026-05-25T09:21:24.000Z</time>
      </trkpt>
      <trkpt lat="44.63219" lon="5.20134">
        <ele>1254</ele>
        <time>2026-05-25T09:21:25.000Z</time>
      </trkpt>
      <trkpt lat="44.63219" lon="5.20133">
        <ele>1256</ele>
        <time>2026-05-25T09:21:26.000Z</time>
      </trkpt>
      <trkpt lat="44.63219" lon="5.20133">
        <ele>1255</ele>
        <time>2026-05-25T09:21:27.000Z</time>
      </trkpt>
      <trkpt lat="44.63218" lon="5.20134">
        <ele>1255</ele>
        <time>2026-05-25T09:21:28.000Z</time>
      </trkpt>
      <trkpt lat="44.63217" lon="5.20133">
        <ele>1256</ele>
        <time>2026-05-25T09:21:29.000Z</time>
      </trkpt>
      <trkpt lat="44.63217" lon="5.20132">
        <ele>1255</ele>
        <time>2026-05-25T09:21:30.000Z</time>
      </trkpt>
      <trkpt lat="44.63216" lon="5.20129">
        <ele>1256</ele>
        <time>2026-05-25T09:21:31.000Z</time>
      </trkpt>
      <trkpt lat="44.63216" lon="5.20129">
        <ele>1256</ele>
        <time>2026-05-25T09:21:32.000Z</time>
      </trkpt>
      <trkpt lat="44.63218" lon="5.20129">
        <ele>1257</ele>
        <time>2026-05-25T09:21:33.000Z</time>
      </trkpt>
      <trkpt lat="44.63219" lon="5.20128">
        <ele>1256</ele>
        <time>2026-05-25T09:21:34.000Z</time>
      </trkpt>
      <trkpt lat="44.63219" lon="5.20127">
        <ele>1255</ele>
        <time>2026-05-25T09:21:35.000Z</time>
      </trkpt>
      <trkpt lat="44.63218" lon="5.20126">
        <ele>1256</ele>
        <time>2026-05-25T09:21:36.000Z</time>
      </trkpt>
      <trkpt lat="44.63217" lon="5.20127">
        <ele>1256</ele>
        <time>2026-05-25T09:21:37.000Z</time>
      </trkpt>
      <trkpt lat="44.63217" lon="5.20129">
        <ele>1257</ele>
        <time>2026-05-25T09:21:38.000Z</time>
      </trkpt>
      <trkpt lat="44.63217" lon="5.2013">
        <ele>1257</ele>
        <time>2026-05-25T09:21:39.000Z</time>
      </trkpt>
      <trkpt lat="44.63218" lon="5.2013">
        <ele>1257</ele>
        <time>2026-05-25T09:21:40.000Z</time>
      </trkpt>
      <trkpt lat="44.63218" lon="5.2013">
        <ele>1257</ele>
        <time>2026-05-25T09:21:41.000Z</time>
      </trkpt>
      <trkpt lat="44.63217" lon="5.20129">
        <ele>1257</ele>
        <time>2026-05-25T09:21:42.000Z</time>
      </trkpt>
      <trkpt lat="44.63217" lon="5.20128">
        <ele>1257</ele>
        <time>2026-05-25T09:21:43.000Z</time>
      </trkpt>
      <trkpt lat="44.63216" lon="5.20126">
        <ele>1257</ele>
        <time>2026-05-25T09:21:44.000Z</time>
      </trkpt>
      <trkpt lat="44.63214" lon="5.20123">
        <ele>1258</ele>
        <time>2026-05-25T09:21:45.000Z</time>
      </trkpt>
      <trkpt lat="44.63213" lon="5.20122">
        <ele>1258</ele>
        <time>2026-05-25T09:21:46.000Z</time>
      </trkpt>
      <trkpt lat="44.63212" lon="5.20119">
        <ele>1259</ele>
        <time>2026-05-25T09:21:47.000Z</time>
      </trkpt>
      <trkpt lat="44.63212" lon="5.20119">
        <ele>1260</ele>
        <time>2026-05-25T09:21:48.000Z</time>
      </trkpt>
      <trkpt lat="44.63212" lon="5.20118">
        <ele>1261</ele>
        <time>2026-05-25T09:21:49.000Z</time>
      </trkpt>
      <trkpt lat="44.63212" lon="5.20118">
        <ele>1261</ele>
        <time>2026-05-25T09:21:50.000Z</time>
      </trkpt>
      <trkpt lat="44.63212" lon="5.20118">
        <ele>1261</ele>
        <time>2026-05-25T09:21:51.000Z</time>
      </trkpt>
      <trkpt lat="44.63212" lon="5.20118">
        <ele>1261</ele>
        <time>2026-05-25T09:21:52.000Z</time>
      </trkpt>
      <trkpt lat="44.63212" lon="5.20118">
        <ele>1261</ele>
        <time>2026-05-25T09:21:53.000Z</time>
      </trkpt>
      <trkpt lat="44.63212" lon="5.20118">
        <ele>1261</ele>
        <time>2026-05-25T09:21:54.000Z</time>
      </trkpt>
      <trkpt lat="44.63212" lon="5.20118">
        <ele>1261</ele>
        <time>2026-05-25T09:21:55.000Z</time>
      </trkpt>
      <trkpt lat="44.63212" lon="5.20118">
        <ele>1261</ele>
        <time>2026-05-25T09:21:56.000Z</time>
      </trkpt>
      <trkpt lat="44.63211" lon="5.20114">
        <ele>1260</ele>
        <time>2026-05-25T09:21:57.000Z</time>
      </trkpt>
      <trkpt lat="44.63212" lon="5.20114">
        <ele>1260</ele>
        <time>2026-05-25T09:21:58.000Z</time>
      </trkpt>
      <trkpt lat="44.63213" lon="5.20113">
        <ele>1262</ele>
        <time>2026-05-25T09:21:59.000Z</time>
      </trkpt>
      <trkpt lat="44.63212" lon="5.20112">
        <ele>1261</ele>
        <time>2026-05-25T09:22:00.000Z</time>
      </trkpt>
      <trkpt lat="44.63212" lon="5.20111">
        <ele>1261</ele>
        <time>2026-05-25T09:22:01.000Z</time>
      </trkpt>
      <trkpt lat="44.63212" lon="5.2011">
        <ele>1261</ele>
        <time>2026-05-25T09:22:02.000Z</time>
      </trkpt>
      <trkpt lat="44.63211" lon="5.20109">
        <ele>1261</ele>
        <time>2026-05-25T09:22:03.000Z</time>
      </trkpt>
      <trkpt lat="44.63211" lon="5.20108">
        <ele>1262</ele>
        <time>2026-05-25T09:22:04.000Z</time>
      </trkpt>
      <trkpt lat="44.63212" lon="5.20106">
        <ele>1261</ele>
        <time>2026-05-25T09:22:05.000Z</time>
      </trkpt>
      <trkpt lat="44.63212" lon="5.20106">
        <ele>1261</ele>
        <time>2026-05-25T09:22:06.000Z</time>
      </trkpt>
      <trkpt lat="44.63212" lon="5.20106">
        <ele>1260</ele>
        <time>2026-05-25T09:22:07.000Z</time>
      </trkpt>
      <trkpt lat="44.63212" lon="5.20104">
        <ele>1260</ele>
        <time>2026-05-25T09:22:08.000Z</time>
      </trkpt>
      <trkpt lat="44.63212" lon="5.20103">
        <ele>1260</ele>
        <time>2026-05-25T09:22:09.000Z</time>
      </trkpt>
      <trkpt lat="44.63212" lon="5.20103">
        <ele>1260</ele>
        <time>2026-05-25T09:22:10.000Z</time>
      </trkpt>
      <trkpt lat="44.63212" lon="5.20103">
        <ele>1260</ele>
        <time>2026-05-25T09:22:11.000Z</time>
      </trkpt>
      <trkpt lat="44.63211" lon="5.20102">
        <ele>1262</ele>
        <time>2026-05-25T09:22:12.000Z</time>
      </trkpt>
      <trkpt lat="44.63211" lon="5.20103">
        <ele>1263</ele>
        <time>2026-05-25T09:22:13.000Z</time>
      </trkpt>
      <trkpt lat="44.63211" lon="5.20102">
        <ele>1263</ele>
        <time>2026-05-25T09:22:14.000Z</time>
      </trkpt>
      <trkpt lat="44.63211" lon="5.20101">
        <ele>1263</ele>
        <time>2026-05-25T09:22:15.000Z</time>
      </trkpt>
      <trkpt lat="44.63211" lon="5.20101">
        <ele>1264</ele>
        <time>2026-05-25T09:22:16.000Z</time>
      </trkpt>
      <trkpt lat="44.63211" lon="5.20099">
        <ele>1263</ele>
        <time>2026-05-25T09:22:17.000Z</time>
      </trkpt>
      <trkpt lat="44.63211" lon="5.201">
        <ele>1265</ele>
        <time>2026-05-25T09:22:18.000Z</time>
      </trkpt>
      <trkpt lat="44.63212" lon="5.201">
        <ele>1265</ele>
        <time>2026-05-25T09:22:19.000Z</time>
      </trkpt>
      <trkpt lat="44.63212" lon="5.201">
        <ele>1265</ele>
        <time>2026-05-25T09:22:20.000Z</time>
      </trkpt>
      <trkpt lat="44.63212" lon="5.20101">
        <ele>1264</ele>
        <time>2026-05-25T09:22:21.000Z</time>
      </trkpt>
      <trkpt lat="44.63213" lon="5.201">
        <ele>1263</ele>
        <time>2026-05-25T09:22:22.000Z</time>
      </trkpt>
      <trkpt lat="44.63213" lon="5.20098">
        <ele>1263</ele>
        <time>2026-05-25T09:22:23.000Z</time>
      </trkpt>
      <trkpt lat="44.63212" lon="5.20097">
        <ele>1264</ele>
        <time>2026-05-25T09:22:24.000Z</time>
      </trkpt>
      <trkpt lat="44.63211" lon="5.20097">
        <ele>1266</ele>
        <time>2026-05-25T09:22:25.000Z</time>
      </trkpt>
      <trkpt lat="44.63212" lon="5.20095">
        <ele>1266</ele>
        <time>2026-05-25T09:22:26.000Z</time>
      </trkpt>
      <trkpt lat="44.63212" lon="5.20096">
        <ele>1266</ele>
        <time>2026-05-25T09:22:27.000Z</time>
      </trkpt>
      <trkpt lat="44.63212" lon="5.20097">
        <ele>1265</ele>
        <time>2026-05-25T09:22:28.000Z</time>
      </trkpt>
      <trkpt lat="44.63213" lon="5.20098">
        <ele>1266</ele>
        <time>2026-05-25T09:22:29.000Z</time>
      </trkpt>
      <trkpt lat="44.63212" lon="5.20097">
        <ele>1267</ele>
        <time>2026-05-25T09:22:30.000Z</time>
      </trkpt>
      <trkpt lat="44.63212" lon="5.20095">
        <ele>1267</ele>
        <time>2026-05-25T09:22:31.000Z</time>
      </trkpt>
      <trkpt lat="44.63212" lon="5.20093">
        <ele>1267</ele>
        <time>2026-05-25T09:22:32.000Z</time>
      </trkpt>
      <trkpt lat="44.63212" lon="5.20093">
        <ele>1267</ele>
        <time>2026-05-25T09:22:33.000Z</time>
      </trkpt>
      <trkpt lat="44.63213" lon="5.20091">
        <ele>1267</ele>
        <time>2026-05-25T09:22:34.000Z</time>
      </trkpt>
      <trkpt lat="44.63213" lon="5.20091">
        <ele>1267</ele>
        <time>2026-05-25T09:22:35.000Z</time>
      </trkpt>
      <trkpt lat="44.63213" lon="5.20091">
        <ele>1267</ele>
        <time>2026-05-25T09:22:36.000Z</time>
      </trkpt>
      <trkpt lat="44.63213" lon="5.20091">
        <ele>1267</ele>
        <time>2026-05-25T09:22:37.000Z</time>
      </trkpt>
      <trkpt lat="44.63212" lon="5.20091">
        <ele>1268</ele>
        <time>2026-05-25T09:22:38.000Z</time>
      </trkpt>
      <trkpt lat="44.63211" lon="5.20091">
        <ele>1268</ele>
        <time>2026-05-25T09:22:39.000Z</time>
      </trkpt>
      <trkpt lat="44.63211" lon="5.20091">
        <ele>1269</ele>
        <time>2026-05-25T09:22:40.000Z</time>
      </trkpt>
      <trkpt lat="44.63213" lon="5.20091">
        <ele>1269</ele>
        <time>2026-05-25T09:22:41.000Z</time>
      </trkpt>
      <trkpt lat="44.63213" lon="5.2009">
        <ele>1268</ele>
        <time>2026-05-25T09:22:42.000Z</time>
      </trkpt>
      <trkpt lat="44.63213" lon="5.2009">
        <ele>1269</ele>
        <time>2026-05-25T09:22:43.000Z</time>
      </trkpt>
      <trkpt lat="44.63213" lon="5.2009">
        <ele>1269</ele>
        <time>2026-05-25T09:22:44.000Z</time>
      </trkpt>
      <trkpt lat="44.63213" lon="5.2009">
        <ele>1269</ele>
        <time>2026-05-25T09:22:45.000Z</time>
      </trkpt>
      <trkpt lat="44.63213" lon="5.2009">
        <ele>1269</ele>
        <time>2026-05-25T09:22:46.000Z</time>
      </trkpt>
      <trkpt lat="44.63213" lon="5.2009">
        <ele>1269</ele>
        <time>2026-05-25T09:22:47.000Z</time>
      </trkpt>
      <trkpt lat="44.63213" lon="5.2009">
        <ele>1269</ele>
        <time>2026-05-25T09:22:48.000Z</time>
      </trkpt>
      <trkpt lat="44.63213" lon="5.20085">
        <ele>1270</ele>
        <time>2026-05-25T09:22:49.000Z</time>
      </trkpt>
      <trkpt lat="44.63213" lon="5.20084">
        <ele>1270</ele>
        <time>2026-05-25T09:22:50.000Z</time>
      </trkpt>
      <trkpt lat="44.63213" lon="5.20082">
        <ele>1271</ele>
        <time>2026-05-25T09:22:51.000Z</time>
      </trkpt>
      <trkpt lat="44.63213" lon="5.20082">
        <ele>1270</ele>
        <time>2026-05-25T09:22:52.000Z</time>
      </trkpt>
      <trkpt lat="44.63213" lon="5.20081">
        <ele>1270</ele>
        <time>2026-05-25T09:22:53.000Z</time>
      </trkpt>
      <trkpt lat="44.63213" lon="5.20081">
        <ele>1271</ele>
        <time>2026-05-25T09:22:54.000Z</time>
      </trkpt>
      <trkpt lat="44.63213" lon="5.20081">
        <ele>1271</ele>
        <time>2026-05-25T09:22:55.000Z</time>
      </trkpt>
      <trkpt lat="44.63213" lon="5.20079">
        <ele>1271</ele>
        <time>2026-05-25T09:22:56.000Z</time>
      </trkpt>
      <trkpt lat="44.63213" lon="5.20078">
        <ele>1271</ele>
        <time>2026-05-25T09:22:57.000Z</time>
      </trkpt>
      <trkpt lat="44.63213" lon="5.20077">
        <ele>1272</ele>
        <time>2026-05-25T09:22:58.000Z</time>
      </trkpt>
      <trkpt lat="44.63213" lon="5.20077">
        <ele>1272</ele>
        <time>2026-05-25T09:22:59.000Z</time>
      </trkpt>
      <trkpt lat="44.63211" lon="5.20077">
        <ele>1272</ele>
        <time>2026-05-25T09:23:00.000Z</time>
      </trkpt>
      <trkpt lat="44.63209" lon="5.20078">
        <ele>1274</ele>
        <time>2026-05-25T09:23:01.000Z</time>
      </trkpt>
      <trkpt lat="44.63209" lon="5.20078">
        <ele>1275</ele>
        <time>2026-05-25T09:23:02.000Z</time>
      </trkpt>
      <trkpt lat="44.63208" lon="5.20078">
        <ele>1276</ele>
        <time>2026-05-25T09:23:03.000Z</time>
      </trkpt>
      <trkpt lat="44.63207" lon="5.20076">
        <ele>1276</ele>
        <time>2026-05-25T09:23:04.000Z</time>
      </trkpt>
      <trkpt lat="44.63207" lon="5.20076">
        <ele>1275</ele>
        <time>2026-05-25T09:23:05.000Z</time>
      </trkpt>
      <trkpt lat="44.63206" lon="5.20074">
        <ele>1274</ele>
        <time>2026-05-25T09:23:06.000Z</time>
      </trkpt>
      <trkpt lat="44.63205" lon="5.20073">
        <ele>1274</ele>
        <time>2026-05-25T09:23:07.000Z</time>
      </trkpt>
      <trkpt lat="44.63205" lon="5.20074">
        <ele>1275</ele>
        <time>2026-05-25T09:23:08.000Z</time>
      </trkpt>
      <trkpt lat="44.63205" lon="5.20073">
        <ele>1275</ele>
        <time>2026-05-25T09:23:09.000Z</time>
      </trkpt>
      <trkpt lat="44.63205" lon="5.20073">
        <ele>1275</ele>
        <time>2026-05-25T09:23:10.000Z</time>
      </trkpt>
      <trkpt lat="44.63204" lon="5.20071">
        <ele>1274</ele>
        <time>2026-05-25T09:23:11.000Z</time>
      </trkpt>
      <trkpt lat="44.63202" lon="5.20072">
        <ele>1274</ele>
        <time>2026-05-25T09:23:12.000Z</time>
      </trkpt>
      <trkpt lat="44.63202" lon="5.20071">
        <ele>1274</ele>
        <time>2026-05-25T09:23:13.000Z</time>
      </trkpt>
      <trkpt lat="44.63201" lon="5.2007">
        <ele>1275</ele>
        <time>2026-05-25T09:23:14.000Z</time>
      </trkpt>
      <trkpt lat="44.63201" lon="5.2007">
        <ele>1276</ele>
        <time>2026-05-25T09:23:15.000Z</time>
      </trkpt>
      <trkpt lat="44.632" lon="5.2007">
        <ele>1276</ele>
        <time>2026-05-25T09:23:16.000Z</time>
      </trkpt>
      <trkpt lat="44.63199" lon="5.20068">
        <ele>1276</ele>
        <time>2026-05-25T09:23:17.000Z</time>
      </trkpt>
      <trkpt lat="44.63199" lon="5.20069">
        <ele>1275</ele>
        <time>2026-05-25T09:23:18.000Z</time>
      </trkpt>
      <trkpt lat="44.63198" lon="5.20067">
        <ele>1275</ele>
        <time>2026-05-25T09:23:19.000Z</time>
      </trkpt>
      <trkpt lat="44.63197" lon="5.20067">
        <ele>1275</ele>
        <time>2026-05-25T09:23:20.000Z</time>
      </trkpt>
      <trkpt lat="44.63197" lon="5.20067">
        <ele>1275</ele>
        <time>2026-05-25T09:23:21.000Z</time>
      </trkpt>
      <trkpt lat="44.63196" lon="5.20066">
        <ele>1275</ele>
        <time>2026-05-25T09:23:22.000Z</time>
      </trkpt>
      <trkpt lat="44.63195" lon="5.20066">
        <ele>1274</ele>
        <time>2026-05-25T09:23:23.000Z</time>
      </trkpt>
      <trkpt lat="44.63195" lon="5.20065">
        <ele>1274</ele>
        <time>2026-05-25T09:23:24.000Z</time>
      </trkpt>
      <trkpt lat="44.63195" lon="5.20064">
        <ele>1274</ele>
        <time>2026-05-25T09:23:25.000Z</time>
      </trkpt>
      <trkpt lat="44.63195" lon="5.20063">
        <ele>1274</ele>
        <time>2026-05-25T09:23:26.000Z</time>
      </trkpt>
      <trkpt lat="44.63195" lon="5.20063">
        <ele>1274</ele>
        <time>2026-05-25T09:23:27.000Z</time>
      </trkpt>
      <trkpt lat="44.63195" lon="5.20061">
        <ele>1274</ele>
        <time>2026-05-25T09:23:28.000Z</time>
      </trkpt>
      <trkpt lat="44.63194" lon="5.2006">
        <ele>1276</ele>
        <time>2026-05-25T09:23:29.000Z</time>
      </trkpt>
      <trkpt lat="44.63194" lon="5.2006">
        <ele>1275</ele>
        <time>2026-05-25T09:23:30.000Z</time>
      </trkpt>
      <trkpt lat="44.63194" lon="5.2006">
        <ele>1275</ele>
        <time>2026-05-25T09:23:31.000Z</time>
      </trkpt>
      <trkpt lat="44.63194" lon="5.2006">
        <ele>1275</ele>
        <time>2026-05-25T09:23:32.000Z</time>
      </trkpt>
      <trkpt lat="44.63194" lon="5.2006">
        <ele>1275</ele>
        <time>2026-05-25T09:23:33.000Z</time>
      </trkpt>
      <trkpt lat="44.63194" lon="5.2006">
        <ele>1275</ele>
        <time>2026-05-25T09:23:34.000Z</time>
      </trkpt>
      <trkpt lat="44.63194" lon="5.2006">
        <ele>1275</ele>
        <time>2026-05-25T09:23:35.000Z</time>
      </trkpt>
      <trkpt lat="44.63194" lon="5.2006">
        <ele>1275</ele>
        <time>2026-05-25T09:23:36.000Z</time>
      </trkpt>
      <trkpt lat="44.63194" lon="5.2006">
        <ele>1275</ele>
        <time>2026-05-25T09:23:37.000Z</time>
      </trkpt>
      <trkpt lat="44.63193" lon="5.20061">
        <ele>1277</ele>
        <time>2026-05-25T09:23:38.000Z</time>
      </trkpt>
      <trkpt lat="44.63194" lon="5.20062">
        <ele>1278</ele>
        <time>2026-05-25T09:23:39.000Z</time>
      </trkpt>
      <trkpt lat="44.63194" lon="5.20062">
        <ele>1278</ele>
        <time>2026-05-25T09:23:40.000Z</time>
      </trkpt>
      <trkpt lat="44.63193" lon="5.20062">
        <ele>1278</ele>
        <time>2026-05-25T09:23:41.000Z</time>
      </trkpt>
      <trkpt lat="44.63193" lon="5.20061">
        <ele>1278</ele>
        <time>2026-05-25T09:23:42.000Z</time>
      </trkpt>
      <trkpt lat="44.63193" lon="5.20061">
        <ele>1278</ele>
        <time>2026-05-25T09:23:43.000Z</time>
      </trkpt>
      <trkpt lat="44.63193" lon="5.20061">
        <ele>1278</ele>
        <time>2026-05-25T09:23:44.000Z</time>
      </trkpt>
      <trkpt lat="44.63193" lon="5.20061">
        <ele>1278</ele>
        <time>2026-05-25T09:23:45.000Z</time>
      </trkpt>
      <trkpt lat="44.63193" lon="5.20061">
        <ele>1278</ele>
        <time>2026-05-25T09:23:46.000Z</time>
      </trkpt>
      <trkpt lat="44.63193" lon="5.20061">
        <ele>1278</ele>
        <time>2026-05-25T09:23:47.000Z</time>
      </trkpt>
      <trkpt lat="44.63193" lon="5.20061">
        <ele>1278</ele>
        <time>2026-05-25T09:23:48.000Z</time>
      </trkpt>
      <trkpt lat="44.63194" lon="5.2006">
        <ele>1277</ele>
        <time>2026-05-25T09:23:49.000Z</time>
      </trkpt>
      <trkpt lat="44.63195" lon="5.2006">
        <ele>1277</ele>
        <time>2026-05-25T09:23:50.000Z</time>
      </trkpt>
      <trkpt lat="44.63195" lon="5.2006">
        <ele>1278</ele>
        <time>2026-05-25T09:23:51.000Z</time>
      </trkpt>
      <trkpt lat="44.63196" lon="5.2006">
        <ele>1279</ele>
        <time>2026-05-25T09:23:52.000Z</time>
      </trkpt>
      <trkpt lat="44.63196" lon="5.2006">
        <ele>1279</ele>
        <time>2026-05-25T09:23:53.000Z</time>
      </trkpt>
      <trkpt lat="44.63196" lon="5.2006">
        <ele>1279</ele>
        <time>2026-05-25T09:23:54.000Z</time>
      </trkpt>
      <trkpt lat="44.63196" lon="5.2006">
        <ele>1279</ele>
        <time>2026-05-25T09:23:55.000Z</time>
      </trkpt>
      <trkpt lat="44.63196" lon="5.2006">
        <ele>1279</ele>
        <time>2026-05-25T09:23:56.000Z</time>
      </trkpt>
      <trkpt lat="44.63196" lon="5.2006">
        <ele>1279</ele>
        <time>2026-05-25T09:23:57.000Z</time>
      </trkpt>
      <trkpt lat="44.63196" lon="5.2006">
        <ele>1279</ele>
        <time>2026-05-25T09:23:58.000Z</time>
      </trkpt>
      <trkpt lat="44.63196" lon="5.2006">
        <ele>1279</ele>
        <time>2026-05-25T09:23:59.000Z</time>
      </trkpt>
      <trkpt lat="44.63196" lon="5.2006">
        <ele>1279</ele>
        <time>2026-05-25T09:24:00.000Z</time>
      </trkpt>
      <trkpt lat="44.63196" lon="5.2006">
        <ele>1279</ele>
        <time>2026-05-25T09:24:01.000Z</time>
      </trkpt>
      <trkpt lat="44.63196" lon="5.20061">
        <ele>1279</ele>
        <time>2026-05-25T09:24:02.000Z</time>
      </trkpt>
      <trkpt lat="44.63196" lon="5.20062">
        <ele>1280</ele>
        <time>2026-05-25T09:24:03.000Z</time>
      </trkpt>
      <trkpt lat="44.63196" lon="5.20061">
        <ele>1280</ele>
        <time>2026-05-25T09:24:04.000Z</time>
      </trkpt>
      <trkpt lat="44.63196" lon="5.20061">
        <ele>1280</ele>
        <time>2026-05-25T09:24:05.000Z</time>
      </trkpt>
      <trkpt lat="44.63196" lon="5.20061">
        <ele>1280</ele>
        <time>2026-05-25T09:24:06.000Z</time>
      </trkpt>
      <trkpt lat="44.63196" lon="5.20061">
        <ele>1280</ele>
        <time>2026-05-25T09:24:07.000Z</time>
      </trkpt>
      <trkpt lat="44.63196" lon="5.20061">
        <ele>1280</ele>
        <time>2026-05-25T09:24:08.000Z</time>
      </trkpt>
      <trkpt lat="44.63196" lon="5.20061">
        <ele>1280</ele>
        <time>2026-05-25T09:24:09.000Z</time>
      </trkpt>
      <trkpt lat="44.63196" lon="5.20061">
        <ele>1280</ele>
        <time>2026-05-25T09:24:10.000Z</time>
      </trkpt>
      <trkpt lat="44.63196" lon="5.20061">
        <ele>1280</ele>
        <time>2026-05-25T09:24:11.000Z</time>
      </trkpt>
      <trkpt lat="44.63196" lon="5.20061">
        <ele>1280</ele>
        <time>2026-05-25T09:24:12.000Z</time>
      </trkpt>
      <trkpt lat="44.63196" lon="5.20061">
        <ele>1280</ele>
        <time>2026-05-25T09:24:13.000Z</time>
      </trkpt>
      <trkpt lat="44.63196" lon="5.20061">
        <ele>1280</ele>
        <time>2026-05-25T09:24:14.000Z</time>
      </trkpt>
      <trkpt lat="44.63196" lon="5.20061">
        <ele>1280</ele>
        <time>2026-05-25T09:24:15.000Z</time>
      </trkpt>
      <trkpt lat="44.63196" lon="5.20061">
        <ele>1280</ele>
        <time>2026-05-25T09:24:16.000Z</time>
      </trkpt>
      <trkpt lat="44.63196" lon="5.20061">
        <ele>1280</ele>
        <time>2026-05-25T09:24:17.000Z</time>
      </trkpt>
      <trkpt lat="44.63196" lon="5.20061">
        <ele>1280</ele>
        <time>2026-05-25T09:24:18.000Z</time>
      </trkpt>
      <trkpt lat="44.63196" lon="5.20061">
        <ele>1280</ele>
        <time>2026-05-25T09:24:19.000Z</time>
      </trkpt>
      <trkpt lat="44.63196" lon="5.20061">
        <ele>1280</ele>
        <time>2026-05-25T09:24:20.000Z</time>
      </trkpt>
      <trkpt lat="44.63196" lon="5.20061">
        <ele>1280</ele>
        <time>2026-05-25T09:24:21.000Z</time>
      </trkpt>
      <trkpt lat="44.63196" lon="5.20061">
        <ele>1280</ele>
        <time>2026-05-25T09:24:22.000Z</time>
      </trkpt>
      <trkpt lat="44.63196" lon="5.20061">
        <ele>1280</ele>
        <time>2026-05-25T09:24:23.000Z</time>
      </trkpt>
      <trkpt lat="44.63196" lon="5.20061">
        <ele>1280</ele>
        <time>2026-05-25T09:24:24.000Z</time>
      </trkpt>
      <trkpt lat="44.63196" lon="5.20061">
        <ele>1280</ele>
        <time>2026-05-25T09:24:25.000Z</time>
      </trkpt>
      <trkpt lat="44.63196" lon="5.20061">
        <ele>1280</ele>
        <time>2026-05-25T09:24:26.000Z</time>
      </trkpt>
      <trkpt lat="44.63196" lon="5.20061">
        <ele>1280</ele>
        <time>2026-05-25T09:24:27.000Z</time>
      </trkpt>
      <trkpt lat="44.63196" lon="5.20061">
        <ele>1280</ele>
        <time>2026-05-25T09:24:28.000Z</time>
      </trkpt>
      <trkpt lat="44.63196" lon="5.20061">
        <ele>1280</ele>
        <time>2026-05-25T09:24:29.000Z</time>
      </trkpt>
      <trkpt lat="44.63196" lon="5.20061">
        <ele>1280</ele>
        <time>2026-05-25T09:24:30.000Z</time>
      </trkpt>
      <trkpt lat="44.63196" lon="5.20061">
        <ele>1280</ele>
        <time>2026-05-25T09:24:31.000Z</time>
      </trkpt>
      <trkpt lat="44.63196" lon="5.20061">
        <ele>1280</ele>
        <time>2026-05-25T09:24:32.000Z</time>
      </trkpt>
      <trkpt lat="44.63196" lon="5.20061">
        <ele>1280</ele>
        <time>2026-05-25T09:24:33.000Z</time>
      </trkpt>
      <trkpt lat="44.63196" lon="5.20061">
        <ele>1280</ele>
        <time>2026-05-25T09:24:34.000Z</time>
      </trkpt>
      <trkpt lat="44.63196" lon="5.20061">
        <ele>1280</ele>
        <time>2026-05-25T09:24:35.000Z</time>
      </trkpt>
      <trkpt lat="44.63196" lon="5.20061">
        <ele>1280</ele>
        <time>2026-05-25T09:24:36.000Z</time>
      </trkpt>
      <trkpt lat="44.63196" lon="5.20061">
        <ele>1280</ele>
        <time>2026-05-25T09:24:37.000Z</time>
      </trkpt>
      <trkpt lat="44.63196" lon="5.20061">
        <ele>1280</ele>
        <time>2026-05-25T09:24:38.000Z</time>
      </trkpt>
      <trkpt lat="44.63196" lon="5.20061">
        <ele>1280</ele>
        <time>2026-05-25T09:24:39.000Z</time>
      </trkpt>
      <trkpt lat="44.63196" lon="5.20061">
        <ele>1280</ele>
        <time>2026-05-25T09:24:40.000Z</time>
      </trkpt>
      <trkpt lat="44.63196" lon="5.20061">
        <ele>1280</ele>
        <time>2026-05-25T09:24:41.000Z</time>
      </trkpt>
      <trkpt lat="44.63196" lon="5.20061">
        <ele>1280</ele>
        <time>2026-05-25T09:24:42.000Z</time>
      </trkpt>
      <trkpt lat="44.63196" lon="5.20061">
        <ele>1280</ele>
        <time>2026-05-25T09:24:43.000Z</time>
      </trkpt>
      <trkpt lat="44.63196" lon="5.20061">
        <ele>1280</ele>
        <time>2026-05-25T09:24:44.000Z</time>
      </trkpt>
      <trkpt lat="44.63196" lon="5.20061">
        <ele>1280</ele>
        <time>2026-05-25T09:24:45.000Z</time>
      </trkpt>
      <trkpt lat="44.63196" lon="5.20061">
        <ele>1280</ele>
        <time>2026-05-25T09:24:46.000Z</time>
      </trkpt>
      <trkpt lat="44.63196" lon="5.20061">
        <ele>1280</ele>
        <time>2026-05-25T09:24:47.000Z</time>
      </trkpt>
      <trkpt lat="44.63196" lon="5.20061">
        <ele>1280</ele>
        <time>2026-05-25T09:24:48.000Z</time>
      </trkpt>
      <trkpt lat="44.63196" lon="5.20061">
        <ele>1280</ele>
        <time>2026-05-25T09:24:49.000Z</time>
      </trkpt>
      <trkpt lat="44.63196" lon="5.20061">
        <ele>1280</ele>
        <time>2026-05-25T09:24:50.000Z</time>
      </trkpt>
      <trkpt lat="44.63196" lon="5.20061">
        <ele>1280</ele>
        <time>2026-05-25T09:24:51.000Z</time>
      </trkpt>
      <trkpt lat="44.63196" lon="5.20061">
        <ele>1280</ele>
        <time>2026-05-25T09:24:52.000Z</time>
      </trkpt>
      <trkpt lat="44.63196" lon="5.20061">
        <ele>1280</ele>
        <time>2026-05-25T09:24:53.000Z</time>
      </trkpt>
      <trkpt lat="44.63196" lon="5.20061">
        <ele>1279</ele>
        <time>2026-05-25T09:24:54.000Z</time>
      </trkpt>
      <trkpt lat="44.63196" lon="5.20061">
        <ele>1278</ele>
        <time>2026-05-25T09:24:55.000Z</time>
      </trkpt>
      <trkpt lat="44.63196" lon="5.20061">
        <ele>1278</ele>
        <time>2026-05-25T09:24:56.000Z</time>
      </trkpt>
      <trkpt lat="44.63196" lon="5.20061">
        <ele>1278</ele>
        <time>2026-05-25T09:24:57.000Z</time>
      </trkpt>
      <trkpt lat="44.63196" lon="5.20061">
        <ele>1278</ele>
        <time>2026-05-25T09:24:58.000Z</time>
      </trkpt>
      <trkpt lat="44.63196" lon="5.20061">
        <ele>1278</ele>
        <time>2026-05-25T09:24:59.000Z</time>
      </trkpt>
      <trkpt lat="44.63196" lon="5.20061">
        <ele>1278</ele>
        <time>2026-05-25T09:25:00.000Z</time>
      </trkpt>
      <trkpt lat="44.63196" lon="5.20061">
        <ele>1278</ele>
        <time>2026-05-25T09:25:01.000Z</time>
      </trkpt>
      <trkpt lat="44.63196" lon="5.20061">
        <ele>1278</ele>
        <time>2026-05-25T09:25:02.000Z</time>
      </trkpt>
      <trkpt lat="44.63196" lon="5.20061">
        <ele>1278</ele>
        <time>2026-05-25T09:25:03.000Z</time>
      </trkpt>
      <trkpt lat="44.63196" lon="5.20061">
        <ele>1278</ele>
        <time>2026-05-25T09:25:04.000Z</time>
      </trkpt>
      <trkpt lat="44.63196" lon="5.20061">
        <ele>1278</ele>
        <time>2026-05-25T09:25:05.000Z</time>
      </trkpt>
      <trkpt lat="44.63196" lon="5.20061">
        <ele>1278</ele>
        <time>2026-05-25T09:25:06.000Z</time>
      </trkpt>
      <trkpt lat="44.63196" lon="5.20061">
        <ele>1278</ele>
        <time>2026-05-25T09:25:07.000Z</time>
      </trkpt>
      <trkpt lat="44.63196" lon="5.20061">
        <ele>1278</ele>
        <time>2026-05-25T09:25:08.000Z</time>
      </trkpt>
      <trkpt lat="44.63196" lon="5.20061">
        <ele>1278</ele>
        <time>2026-05-25T09:25:09.000Z</time>
      </trkpt>
      <trkpt lat="44.63196" lon="5.20061">
        <ele>1278</ele>
        <time>2026-05-25T09:25:10.000Z</time>
      </trkpt>
      <trkpt lat="44.63196" lon="5.20061">
        <ele>1278</ele>
        <time>2026-05-25T09:25:11.000Z</time>
      </trkpt>
      <trkpt lat="44.63196" lon="5.20061">
        <ele>1278</ele>
        <time>2026-05-25T09:25:12.000Z</time>
      </trkpt>
      <trkpt lat="44.63196" lon="5.20061">
        <ele>1278</ele>
        <time>2026-05-25T09:25:13.000Z</time>
      </trkpt>
      <trkpt lat="44.63196" lon="5.20061">
        <ele>1278</ele>
        <time>2026-05-25T09:25:14.000Z</time>
      </trkpt>
      <trkpt lat="44.63196" lon="5.20061">
        <ele>1278</ele>
        <time>2026-05-25T09:25:15.000Z</time>
      </trkpt>
      <trkpt lat="44.63196" lon="5.20061">
        <ele>1278</ele>
        <time>2026-05-25T09:25:16.000Z</time>
      </trkpt>
      <trkpt lat="44.63196" lon="5.20061">
        <ele>1278</ele>
        <time>2026-05-25T09:25:17.000Z</time>
      </trkpt>
      <trkpt lat="44.63196" lon="5.20061">
        <ele>1278</ele>
        <time>2026-05-25T09:25:18.000Z</time>
      </trkpt>
      <trkpt lat="44.63196" lon="5.20061">
        <ele>1278</ele>
        <time>2026-05-25T09:25:19.000Z</time>
      </trkpt>
      <trkpt lat="44.63197" lon="5.20061">
        <ele>1278</ele>
        <time>2026-05-25T09:25:20.000Z</time>
      </trkpt>
      <trkpt lat="44.63198" lon="5.20061">
        <ele>1279</ele>
        <time>2026-05-25T09:25:21.000Z</time>
      </trkpt>
      <trkpt lat="44.63199" lon="5.20062">
        <ele>1279</ele>
        <time>2026-05-25T09:25:22.000Z</time>
      </trkpt>
      <trkpt lat="44.632" lon="5.20062">
        <ele>1278</ele>
        <time>2026-05-25T09:25:23.000Z</time>
      </trkpt>
      <trkpt lat="44.63201" lon="5.20062">
        <ele>1278</ele>
        <time>2026-05-25T09:25:24.000Z</time>
      </trkpt>
      <trkpt lat="44.63201" lon="5.2006">
        <ele>1278</ele>
        <time>2026-05-25T09:25:25.000Z</time>
      </trkpt>
      <trkpt lat="44.63201" lon="5.20058">
        <ele>1277</ele>
        <time>2026-05-25T09:25:26.000Z</time>
      </trkpt>
      <trkpt lat="44.632" lon="5.20057">
        <ele>1277</ele>
        <time>2026-05-25T09:25:27.000Z</time>
      </trkpt>
      <trkpt lat="44.632" lon="5.20056">
        <ele>1277</ele>
        <time>2026-05-25T09:25:28.000Z</time>
      </trkpt>
      <trkpt lat="44.63199" lon="5.20056">
        <ele>1277</ele>
        <time>2026-05-25T09:25:29.000Z</time>
      </trkpt>
      <trkpt lat="44.632" lon="5.20055">
        <ele>1277</ele>
        <time>2026-05-25T09:25:30.000Z</time>
      </trkpt>
      <trkpt lat="44.632" lon="5.20055">
        <ele>1277</ele>
        <time>2026-05-25T09:25:31.000Z</time>
      </trkpt>
      <trkpt lat="44.63202" lon="5.20055">
        <ele>1278</ele>
        <time>2026-05-25T09:25:32.000Z</time>
      </trkpt>
      <trkpt lat="44.63203" lon="5.20055">
        <ele>1278</ele>
        <time>2026-05-25T09:25:33.000Z</time>
      </trkpt>
      <trkpt lat="44.63204" lon="5.20056">
        <ele>1278</ele>
        <time>2026-05-25T09:25:34.000Z</time>
      </trkpt>
      <trkpt lat="44.63205" lon="5.20055">
        <ele>1278</ele>
        <time>2026-05-25T09:25:35.000Z</time>
      </trkpt>
      <trkpt lat="44.63206" lon="5.20055">
        <ele>1278</ele>
        <time>2026-05-25T09:25:36.000Z</time>
      </trkpt>
      <trkpt lat="44.63207" lon="5.20054">
        <ele>1279</ele>
        <time>2026-05-25T09:25:37.000Z</time>
      </trkpt>
      <trkpt lat="44.63208" lon="5.20053">
        <ele>1279</ele>
        <time>2026-05-25T09:25:38.000Z</time>
      </trkpt>
      <trkpt lat="44.63208" lon="5.20052">
        <ele>1279</ele>
        <time>2026-05-25T09:25:39.000Z</time>
      </trkpt>
      <trkpt lat="44.63209" lon="5.20052">
        <ele>1279</ele>
        <time>2026-05-25T09:25:40.000Z</time>
      </trkpt>
      <trkpt lat="44.63209" lon="5.20051">
        <ele>1279</ele>
        <time>2026-05-25T09:25:41.000Z</time>
      </trkpt>
      <trkpt lat="44.63209" lon="5.2005">
        <ele>1279</ele>
        <time>2026-05-25T09:25:42.000Z</time>
      </trkpt>
      <trkpt lat="44.63209" lon="5.20049">
        <ele>1280</ele>
        <time>2026-05-25T09:25:43.000Z</time>
      </trkpt>
      <trkpt lat="44.6321" lon="5.20049">
        <ele>1281</ele>
        <time>2026-05-25T09:25:44.000Z</time>
      </trkpt>
      <trkpt lat="44.63211" lon="5.2005">
        <ele>1281</ele>
        <time>2026-05-25T09:25:45.000Z</time>
      </trkpt>
      <trkpt lat="44.63212" lon="5.2005">
        <ele>1281</ele>
        <time>2026-05-25T09:25:46.000Z</time>
      </trkpt>
      <trkpt lat="44.63213" lon="5.20051">
        <ele>1281</ele>
        <time>2026-05-25T09:25:47.000Z</time>
      </trkpt>
      <trkpt lat="44.63213" lon="5.20051">
        <ele>1281</ele>
        <time>2026-05-25T09:25:48.000Z</time>
      </trkpt>
      <trkpt lat="44.63214" lon="5.20051">
        <ele>1282</ele>
        <time>2026-05-25T09:25:49.000Z</time>
      </trkpt>
      <trkpt lat="44.63214" lon="5.20051">
        <ele>1282</ele>
        <time>2026-05-25T09:25:50.000Z</time>
      </trkpt>
      <trkpt lat="44.63214" lon="5.20049">
        <ele>1283</ele>
        <time>2026-05-25T09:25:51.000Z</time>
      </trkpt>
      <trkpt lat="44.63215" lon="5.20048">
        <ele>1283</ele>
        <time>2026-05-25T09:25:52.000Z</time>
      </trkpt>
      <trkpt lat="44.63215" lon="5.20047">
        <ele>1282</ele>
        <time>2026-05-25T09:25:53.000Z</time>
      </trkpt>
      <trkpt lat="44.63215" lon="5.20047">
        <ele>1283</ele>
        <time>2026-05-25T09:25:54.000Z</time>
      </trkpt>
      <trkpt lat="44.63216" lon="5.20047">
        <ele>1284</ele>
        <time>2026-05-25T09:25:55.000Z</time>
      </trkpt>
      <trkpt lat="44.63216" lon="5.20048">
        <ele>1284</ele>
        <time>2026-05-25T09:25:56.000Z</time>
      </trkpt>
      <trkpt lat="44.63217" lon="5.20049">
        <ele>1284</ele>
        <time>2026-05-25T09:25:57.000Z</time>
      </trkpt>
      <trkpt lat="44.63218" lon="5.20049">
        <ele>1284</ele>
        <time>2026-05-25T09:25:58.000Z</time>
      </trkpt>
      <trkpt lat="44.63219" lon="5.20048">
        <ele>1284</ele>
        <time>2026-05-25T09:25:59.000Z</time>
      </trkpt>
      <trkpt lat="44.63219" lon="5.20047">
        <ele>1285</ele>
        <time>2026-05-25T09:26:00.000Z</time>
      </trkpt>
      <trkpt lat="44.63219" lon="5.20046">
        <ele>1285</ele>
        <time>2026-05-25T09:26:01.000Z</time>
      </trkpt>
      <trkpt lat="44.6322" lon="5.20046">
        <ele>1286</ele>
        <time>2026-05-25T09:26:02.000Z</time>
      </trkpt>
      <trkpt lat="44.63221" lon="5.20047">
        <ele>1286</ele>
        <time>2026-05-25T09:26:03.000Z</time>
      </trkpt>
      <trkpt lat="44.63222" lon="5.20048">
        <ele>1286</ele>
        <time>2026-05-25T09:26:04.000Z</time>
      </trkpt>
      <trkpt lat="44.63223" lon="5.20048">
        <ele>1286</ele>
        <time>2026-05-25T09:26:05.000Z</time>
      </trkpt>
      <trkpt lat="44.63223" lon="5.20048">
        <ele>1287</ele>
        <time>2026-05-25T09:26:06.000Z</time>
      </trkpt>
      <trkpt lat="44.63223" lon="5.20047">
        <ele>1287</ele>
        <time>2026-05-25T09:26:07.000Z</time>
      </trkpt>
      <trkpt lat="44.63223" lon="5.20047">
        <ele>1287</ele>
        <time>2026-05-25T09:26:08.000Z</time>
      </trkpt>
      <trkpt lat="44.63223" lon="5.20047">
        <ele>1287</ele>
        <time>2026-05-25T09:26:09.000Z</time>
      </trkpt>
      <trkpt lat="44.63223" lon="5.20046">
        <ele>1287</ele>
        <time>2026-05-25T09:26:10.000Z</time>
      </trkpt>
      <trkpt lat="44.63223" lon="5.20046">
        <ele>1287</ele>
        <time>2026-05-25T09:26:11.000Z</time>
      </trkpt>
      <trkpt lat="44.63223" lon="5.20046">
        <ele>1287</ele>
        <time>2026-05-25T09:26:12.000Z</time>
      </trkpt>
      <trkpt lat="44.63225" lon="5.20045">
        <ele>1287</ele>
        <time>2026-05-25T09:26:13.000Z</time>
      </trkpt>
      <trkpt lat="44.63226" lon="5.20046">
        <ele>1287</ele>
        <time>2026-05-25T09:26:14.000Z</time>
      </trkpt>
      <trkpt lat="44.63226" lon="5.20046">
        <ele>1288</ele>
        <time>2026-05-25T09:26:15.000Z</time>
      </trkpt>
      <trkpt lat="44.63227" lon="5.20047">
        <ele>1288</ele>
        <time>2026-05-25T09:26:16.000Z</time>
      </trkpt>
      <trkpt lat="44.63227" lon="5.20047">
        <ele>1288</ele>
        <time>2026-05-25T09:26:17.000Z</time>
      </trkpt>
      <trkpt lat="44.63227" lon="5.20047">
        <ele>1288</ele>
        <time>2026-05-25T09:26:18.000Z</time>
      </trkpt>
      <trkpt lat="44.63227" lon="5.20047">
        <ele>1288</ele>
        <time>2026-05-25T09:26:19.000Z</time>
      </trkpt>
      <trkpt lat="44.63227" lon="5.20047">
        <ele>1288</ele>
        <time>2026-05-25T09:26:20.000Z</time>
      </trkpt>
      <trkpt lat="44.63228" lon="5.20044">
        <ele>1289</ele>
        <time>2026-05-25T09:26:21.000Z</time>
      </trkpt>
      <trkpt lat="44.63229" lon="5.20044">
        <ele>1289</ele>
        <time>2026-05-25T09:26:22.000Z</time>
      </trkpt>
      <trkpt lat="44.63229" lon="5.20045">
        <ele>1290</ele>
        <time>2026-05-25T09:26:23.000Z</time>
      </trkpt>
      <trkpt lat="44.6323" lon="5.20046">
        <ele>1290</ele>
        <time>2026-05-25T09:26:24.000Z</time>
      </trkpt>
      <trkpt lat="44.63229" lon="5.20047">
        <ele>1290</ele>
        <time>2026-05-25T09:26:25.000Z</time>
      </trkpt>
      <trkpt lat="44.63229" lon="5.20046">
        <ele>1290</ele>
        <time>2026-05-25T09:26:26.000Z</time>
      </trkpt>
      <trkpt lat="44.63229" lon="5.20045">
        <ele>1291</ele>
        <time>2026-05-25T09:26:27.000Z</time>
      </trkpt>
      <trkpt lat="44.6323" lon="5.20043">
        <ele>1291</ele>
        <time>2026-05-25T09:26:28.000Z</time>
      </trkpt>
      <trkpt lat="44.6323" lon="5.20043">
        <ele>1290</ele>
        <time>2026-05-25T09:26:29.000Z</time>
      </trkpt>
      <trkpt lat="44.6323" lon="5.20044">
        <ele>1290</ele>
        <time>2026-05-25T09:26:30.000Z</time>
      </trkpt>
      <trkpt lat="44.6323" lon="5.20044">
        <ele>1290</ele>
        <time>2026-05-25T09:26:31.000Z</time>
      </trkpt>
      <trkpt lat="44.6323" lon="5.20044">
        <ele>1290</ele>
        <time>2026-05-25T09:26:32.000Z</time>
      </trkpt>
      <trkpt lat="44.63232" lon="5.20043">
        <ele>1291</ele>
        <time>2026-05-25T09:26:33.000Z</time>
      </trkpt>
      <trkpt lat="44.63233" lon="5.20044">
        <ele>1292</ele>
        <time>2026-05-25T09:26:34.000Z</time>
      </trkpt>
      <trkpt lat="44.63234" lon="5.20045">
        <ele>1293</ele>
        <time>2026-05-25T09:26:35.000Z</time>
      </trkpt>
      <trkpt lat="44.63235" lon="5.20044">
        <ele>1293</ele>
        <time>2026-05-25T09:26:36.000Z</time>
      </trkpt>
      <trkpt lat="44.63235" lon="5.20044">
        <ele>1293</ele>
        <time>2026-05-25T09:26:37.000Z</time>
      </trkpt>
      <trkpt lat="44.63235" lon="5.20044">
        <ele>1293</ele>
        <time>2026-05-25T09:26:38.000Z</time>
      </trkpt>
      <trkpt lat="44.63235" lon="5.20044">
        <ele>1293</ele>
        <time>2026-05-25T09:26:39.000Z</time>
      </trkpt>
      <trkpt lat="44.63236" lon="5.20044">
        <ele>1293</ele>
        <time>2026-05-25T09:26:40.000Z</time>
      </trkpt>
      <trkpt lat="44.63236" lon="5.20044">
        <ele>1293</ele>
        <time>2026-05-25T09:26:41.000Z</time>
      </trkpt>
      <trkpt lat="44.63236" lon="5.20043">
        <ele>1293</ele>
        <time>2026-05-25T09:26:42.000Z</time>
      </trkpt>
      <trkpt lat="44.63236" lon="5.20042">
        <ele>1294</ele>
        <time>2026-05-25T09:26:43.000Z</time>
      </trkpt>
      <trkpt lat="44.63236" lon="5.20042">
        <ele>1294</ele>
        <time>2026-05-25T09:26:44.000Z</time>
      </trkpt>
      <trkpt lat="44.63236" lon="5.20042">
        <ele>1294</ele>
        <time>2026-05-25T09:26:45.000Z</time>
      </trkpt>
      <trkpt lat="44.63236" lon="5.20042">
        <ele>1294</ele>
        <time>2026-05-25T09:26:46.000Z</time>
      </trkpt>
      <trkpt lat="44.63237" lon="5.20042">
        <ele>1294</ele>
        <time>2026-05-25T09:26:47.000Z</time>
      </trkpt>
      <trkpt lat="44.63237" lon="5.20043">
        <ele>1294</ele>
        <time>2026-05-25T09:26:48.000Z</time>
      </trkpt>
      <trkpt lat="44.63236" lon="5.20043">
        <ele>1294</ele>
        <time>2026-05-25T09:26:49.000Z</time>
      </trkpt>
      <trkpt lat="44.63236" lon="5.20044">
        <ele>1295</ele>
        <time>2026-05-25T09:26:50.000Z</time>
      </trkpt>
      <trkpt lat="44.63237" lon="5.20044">
        <ele>1296</ele>
        <time>2026-05-25T09:26:51.000Z</time>
      </trkpt>
      <trkpt lat="44.63237" lon="5.20042">
        <ele>1297</ele>
        <time>2026-05-25T09:26:52.000Z</time>
      </trkpt>
      <trkpt lat="44.63237" lon="5.20041">
        <ele>1297</ele>
        <time>2026-05-25T09:26:53.000Z</time>
      </trkpt>
      <trkpt lat="44.63237" lon="5.2004">
        <ele>1298</ele>
        <time>2026-05-25T09:26:54.000Z</time>
      </trkpt>
      <trkpt lat="44.63237" lon="5.20039">
        <ele>1298</ele>
        <time>2026-05-25T09:26:55.000Z</time>
      </trkpt>
      <trkpt lat="44.63237" lon="5.20038">
        <ele>1298</ele>
        <time>2026-05-25T09:26:56.000Z</time>
      </trkpt>
      <trkpt lat="44.63237" lon="5.20038">
        <ele>1298</ele>
        <time>2026-05-25T09:26:57.000Z</time>
      </trkpt>
      <trkpt lat="44.63237" lon="5.20038">
        <ele>1298</ele>
        <time>2026-05-25T09:26:58.000Z</time>
      </trkpt>
      <trkpt lat="44.63237" lon="5.20038">
        <ele>1298</ele>
        <time>2026-05-25T09:26:59.000Z</time>
      </trkpt>
      <trkpt lat="44.63237" lon="5.20036">
        <ele>1296</ele>
        <time>2026-05-25T09:27:00.000Z</time>
      </trkpt>
      <trkpt lat="44.63237" lon="5.20035">
        <ele>1297</ele>
        <time>2026-05-25T09:27:01.000Z</time>
      </trkpt>
      <trkpt lat="44.63237" lon="5.20034">
        <ele>1297</ele>
        <time>2026-05-25T09:27:02.000Z</time>
      </trkpt>
      <trkpt lat="44.63237" lon="5.20034">
        <ele>1297</ele>
        <time>2026-05-25T09:27:03.000Z</time>
      </trkpt>
      <trkpt lat="44.63237" lon="5.20033">
        <ele>1297</ele>
        <time>2026-05-25T09:27:04.000Z</time>
      </trkpt>
      <trkpt lat="44.63237" lon="5.20033">
        <ele>1298</ele>
        <time>2026-05-25T09:27:05.000Z</time>
      </trkpt>
      <trkpt lat="44.63237" lon="5.20031">
        <ele>1298</ele>
        <time>2026-05-25T09:27:06.000Z</time>
      </trkpt>
      <trkpt lat="44.63237" lon="5.2003">
        <ele>1299</ele>
        <time>2026-05-25T09:27:07.000Z</time>
      </trkpt>
      <trkpt lat="44.63237" lon="5.20029">
        <ele>1299</ele>
        <time>2026-05-25T09:27:08.000Z</time>
      </trkpt>
      <trkpt lat="44.63237" lon="5.20028">
        <ele>1300</ele>
        <time>2026-05-25T09:27:09.000Z</time>
      </trkpt>
      <trkpt lat="44.63238" lon="5.20027">
        <ele>1300</ele>
        <time>2026-05-25T09:27:10.000Z</time>
      </trkpt>
      <trkpt lat="44.63239" lon="5.20026">
        <ele>1299</ele>
        <time>2026-05-25T09:27:11.000Z</time>
      </trkpt>
      <trkpt lat="44.63239" lon="5.20025">
        <ele>1300</ele>
        <time>2026-05-25T09:27:12.000Z</time>
      </trkpt>
      <trkpt lat="44.63239" lon="5.20024">
        <ele>1300</ele>
        <time>2026-05-25T09:27:13.000Z</time>
      </trkpt>
      <trkpt lat="44.63238" lon="5.20025">
        <ele>1301</ele>
        <time>2026-05-25T09:27:14.000Z</time>
      </trkpt>
      <trkpt lat="44.63239" lon="5.20025">
        <ele>1300</ele>
        <time>2026-05-25T09:27:15.000Z</time>
      </trkpt>
      <trkpt lat="44.63239" lon="5.20026">
        <ele>1299</ele>
        <time>2026-05-25T09:27:16.000Z</time>
      </trkpt>
      <trkpt lat="44.63239" lon="5.20026">
        <ele>1299</ele>
        <time>2026-05-25T09:27:17.000Z</time>
      </trkpt>
      <trkpt lat="44.63239" lon="5.20026">
        <ele>1299</ele>
        <time>2026-05-25T09:27:18.000Z</time>
      </trkpt>
      <trkpt lat="44.63239" lon="5.20027">
        <ele>1298</ele>
        <time>2026-05-25T09:27:19.000Z</time>
      </trkpt>
      <trkpt lat="44.63239" lon="5.20027">
        <ele>1298</ele>
        <time>2026-05-25T09:27:20.000Z</time>
      </trkpt>
      <trkpt lat="44.63239" lon="5.20027">
        <ele>1298</ele>
        <time>2026-05-25T09:27:21.000Z</time>
      </trkpt>
      <trkpt lat="44.63239" lon="5.20027">
        <ele>1298</ele>
        <time>2026-05-25T09:27:22.000Z</time>
      </trkpt>
      <trkpt lat="44.63239" lon="5.20027">
        <ele>1298</ele>
        <time>2026-05-25T09:27:23.000Z</time>
      </trkpt>
      <trkpt lat="44.63239" lon="5.20027">
        <ele>1298</ele>
        <time>2026-05-25T09:27:24.000Z</time>
      </trkpt>
      <trkpt lat="44.63239" lon="5.20027">
        <ele>1298</ele>
        <time>2026-05-25T09:27:25.000Z</time>
      </trkpt>
      <trkpt lat="44.63239" lon="5.20027">
        <ele>1297</ele>
        <time>2026-05-25T09:27:26.000Z</time>
      </trkpt>
      <trkpt lat="44.6324" lon="5.20027">
        <ele>1297</ele>
        <time>2026-05-25T09:27:27.000Z</time>
      </trkpt>
      <trkpt lat="44.6324" lon="5.20027">
        <ele>1297</ele>
        <time>2026-05-25T09:27:28.000Z</time>
      </trkpt>
      <trkpt lat="44.6324" lon="5.20027">
        <ele>1297</ele>
        <time>2026-05-25T09:27:29.000Z</time>
      </trkpt>
      <trkpt lat="44.6324" lon="5.20027">
        <ele>1297</ele>
        <time>2026-05-25T09:27:30.000Z</time>
      </trkpt>
      <trkpt lat="44.6324" lon="5.20027">
        <ele>1297</ele>
        <time>2026-05-25T09:27:31.000Z</time>
      </trkpt>
      <trkpt lat="44.6324" lon="5.20027">
        <ele>1297</ele>
        <time>2026-05-25T09:27:32.000Z</time>
      </trkpt>
      <trkpt lat="44.6324" lon="5.20027">
        <ele>1297</ele>
        <time>2026-05-25T09:27:33.000Z</time>
      </trkpt>
      <trkpt lat="44.6324" lon="5.20027">
        <ele>1297</ele>
        <time>2026-05-25T09:27:34.000Z</time>
      </trkpt>
      <trkpt lat="44.6324" lon="5.20027">
        <ele>1297</ele>
        <time>2026-05-25T09:27:35.000Z</time>
      </trkpt>
      <trkpt lat="44.6324" lon="5.20027">
        <ele>1297</ele>
        <time>2026-05-25T09:27:36.000Z</time>
      </trkpt>
      <trkpt lat="44.6324" lon="5.20027">
        <ele>1297</ele>
        <time>2026-05-25T09:27:37.000Z</time>
      </trkpt>
      <trkpt lat="44.63239" lon="5.20028">
        <ele>1299</ele>
        <time>2026-05-25T09:27:38.000Z</time>
      </trkpt>
      <trkpt lat="44.63239" lon="5.20028">
        <ele>1299</ele>
        <time>2026-05-25T09:27:39.000Z</time>
      </trkpt>
      <trkpt lat="44.63239" lon="5.20028">
        <ele>1299</ele>
        <time>2026-05-25T09:27:40.000Z</time>
      </trkpt>
      <trkpt lat="44.63239" lon="5.20028">
        <ele>1301</ele>
        <time>2026-05-25T09:27:41.000Z</time>
      </trkpt>
      <trkpt lat="44.63239" lon="5.20028">
        <ele>1301</ele>
        <time>2026-05-25T09:27:42.000Z</time>
      </trkpt>
      <trkpt lat="44.63239" lon="5.20028">
        <ele>1301</ele>
        <time>2026-05-25T09:27:43.000Z</time>
      </trkpt>
      <trkpt lat="44.63239" lon="5.20028">
        <ele>1301</ele>
        <time>2026-05-25T09:27:44.000Z</time>
      </trkpt>
      <trkpt lat="44.63239" lon="5.20028">
        <ele>1301</ele>
        <time>2026-05-25T09:27:45.000Z</time>
      </trkpt>
      <trkpt lat="44.63239" lon="5.20028">
        <ele>1301</ele>
        <time>2026-05-25T09:27:46.000Z</time>
      </trkpt>
      <trkpt lat="44.63239" lon="5.20028">
        <ele>1301</ele>
        <time>2026-05-25T09:27:47.000Z</time>
      </trkpt>
      <trkpt lat="44.63239" lon="5.20028">
        <ele>1301</ele>
        <time>2026-05-25T09:27:48.000Z</time>
      </trkpt>
      <trkpt lat="44.63239" lon="5.20028">
        <ele>1301</ele>
        <time>2026-05-25T09:27:49.000Z</time>
      </trkpt>
      <trkpt lat="44.63239" lon="5.20028">
        <ele>1301</ele>
        <time>2026-05-25T09:27:50.000Z</time>
      </trkpt>
      <trkpt lat="44.63239" lon="5.20028">
        <ele>1301</ele>
        <time>2026-05-25T09:27:51.000Z</time>
      </trkpt>
      <trkpt lat="44.63239" lon="5.20028">
        <ele>1301</ele>
        <time>2026-05-25T09:27:52.000Z</time>
      </trkpt>
      <trkpt lat="44.63239" lon="5.20028">
        <ele>1301</ele>
        <time>2026-05-25T09:27:53.000Z</time>
      </trkpt>
      <trkpt lat="44.63239" lon="5.20028">
        <ele>1301</ele>
        <time>2026-05-25T09:27:54.000Z</time>
      </trkpt>
      <trkpt lat="44.63239" lon="5.20028">
        <ele>1301</ele>
        <time>2026-05-25T09:27:55.000Z</time>
      </trkpt>
      <trkpt lat="44.63239" lon="5.20028">
        <ele>1301</ele>
        <time>2026-05-25T09:27:56.000Z</time>
      </trkpt>
      <trkpt lat="44.63239" lon="5.20028">
        <ele>1301</ele>
        <time>2026-05-25T09:27:57.000Z</time>
      </trkpt>
      <trkpt lat="44.63239" lon="5.20028">
        <ele>1301</ele>
        <time>2026-05-25T09:27:58.000Z</time>
      </trkpt>
      <trkpt lat="44.63239" lon="5.20028">
        <ele>1301</ele>
        <time>2026-05-25T09:27:59.000Z</time>
      </trkpt>
      <trkpt lat="44.63239" lon="5.20028">
        <ele>1301</ele>
        <time>2026-05-25T09:28:00.000Z</time>
      </trkpt>
      <trkpt lat="44.63239" lon="5.20028">
        <ele>1301</ele>
        <time>2026-05-25T09:28:01.000Z</time>
      </trkpt>
      <trkpt lat="44.63239" lon="5.20028">
        <ele>1301</ele>
        <time>2026-05-25T09:28:02.000Z</time>
      </trkpt>
      <trkpt lat="44.63239" lon="5.20028">
        <ele>1301</ele>
        <time>2026-05-25T09:28:03.000Z</time>
      </trkpt>
      <trkpt lat="44.63239" lon="5.20028">
        <ele>1301</ele>
        <time>2026-05-25T09:28:04.000Z</time>
      </trkpt>
      <trkpt lat="44.63239" lon="5.20028">
        <ele>1301</ele>
        <time>2026-05-25T09:28:05.000Z</time>
      </trkpt>
      <trkpt lat="44.63239" lon="5.20028">
        <ele>1301</ele>
        <time>2026-05-25T09:28:06.000Z</time>
      </trkpt>
      <trkpt lat="44.63239" lon="5.20028">
        <ele>1301</ele>
        <time>2026-05-25T09:28:07.000Z</time>
      </trkpt>
      <trkpt lat="44.63239" lon="5.20028">
        <ele>1301</ele>
        <time>2026-05-25T09:28:08.000Z</time>
      </trkpt>
      <trkpt lat="44.63239" lon="5.20028">
        <ele>1301</ele>
        <time>2026-05-25T09:28:09.000Z</time>
      </trkpt>
      <trkpt lat="44.63239" lon="5.20028">
        <ele>1301</ele>
        <time>2026-05-25T09:28:10.000Z</time>
      </trkpt>
      <trkpt lat="44.63239" lon="5.20028">
        <ele>1301</ele>
        <time>2026-05-25T09:28:11.000Z</time>
      </trkpt>
      <trkpt lat="44.63239" lon="5.20028">
        <ele>1301</ele>
        <time>2026-05-25T09:28:12.000Z</time>
      </trkpt>
      <trkpt lat="44.63239" lon="5.20028">
        <ele>1301</ele>
        <time>2026-05-25T09:28:13.000Z</time>
      </trkpt>
      <trkpt lat="44.63239" lon="5.20028">
        <ele>1301</ele>
        <time>2026-05-25T09:28:14.000Z</time>
      </trkpt>
      <trkpt lat="44.63239" lon="5.20028">
        <ele>1301</ele>
        <time>2026-05-25T09:28:15.000Z</time>
      </trkpt>
      <trkpt lat="44.63239" lon="5.20028">
        <ele>1301</ele>
        <time>2026-05-25T09:28:16.000Z</time>
      </trkpt>
      <trkpt lat="44.63239" lon="5.20028">
        <ele>1301</ele>
        <time>2026-05-25T09:28:17.000Z</time>
      </trkpt>
      <trkpt lat="44.63239" lon="5.20028">
        <ele>1301</ele>
        <time>2026-05-25T09:28:18.000Z</time>
      </trkpt>
      <trkpt lat="44.63241" lon="5.2003">
        <ele>1300</ele>
        <time>2026-05-25T09:28:19.000Z</time>
      </trkpt>
      <trkpt lat="44.63242" lon="5.20031">
        <ele>1300</ele>
        <time>2026-05-25T09:28:20.000Z</time>
      </trkpt>
      <trkpt lat="44.63242" lon="5.20032">
        <ele>1299</ele>
        <time>2026-05-25T09:28:21.000Z</time>
      </trkpt>
      <trkpt lat="44.63243" lon="5.20032">
        <ele>1300</ele>
        <time>2026-05-25T09:28:22.000Z</time>
      </trkpt>
      <trkpt lat="44.63242" lon="5.20032">
        <ele>1300</ele>
        <time>2026-05-25T09:28:23.000Z</time>
      </trkpt>
      <trkpt lat="44.63242" lon="5.20033">
        <ele>1300</ele>
        <time>2026-05-25T09:28:24.000Z</time>
      </trkpt>
      <trkpt lat="44.63243" lon="5.20033">
        <ele>1301</ele>
        <time>2026-05-25T09:28:25.000Z</time>
      </trkpt>
      <trkpt lat="44.63243" lon="5.20034">
        <ele>1300</ele>
        <time>2026-05-25T09:28:26.000Z</time>
      </trkpt>
      <trkpt lat="44.63244" lon="5.20035">
        <ele>1300</ele>
        <time>2026-05-25T09:28:27.000Z</time>
      </trkpt>
      <trkpt lat="44.63244" lon="5.20037">
        <ele>1299</ele>
        <time>2026-05-25T09:28:28.000Z</time>
      </trkpt>
      <trkpt lat="44.63245" lon="5.20038">
        <ele>1299</ele>
        <time>2026-05-25T09:28:29.000Z</time>
      </trkpt>
      <trkpt lat="44.63245" lon="5.20039">
        <ele>1300</ele>
        <time>2026-05-25T09:28:30.000Z</time>
      </trkpt>
      <trkpt lat="44.63245" lon="5.20039">
        <ele>1300</ele>
        <time>2026-05-25T09:28:31.000Z</time>
      </trkpt>
      <trkpt lat="44.63245" lon="5.2004">
        <ele>1300</ele>
        <time>2026-05-25T09:28:32.000Z</time>
      </trkpt>
      <trkpt lat="44.63245" lon="5.20042">
        <ele>1301</ele>
        <time>2026-05-25T09:28:33.000Z</time>
      </trkpt>
      <trkpt lat="44.63245" lon="5.20043">
        <ele>1303</ele>
        <time>2026-05-25T09:28:34.000Z</time>
      </trkpt>
      <trkpt lat="44.63246" lon="5.20044">
        <ele>1303</ele>
        <time>2026-05-25T09:28:35.000Z</time>
      </trkpt>
      <trkpt lat="44.63247" lon="5.20044">
        <ele>1304</ele>
        <time>2026-05-25T09:28:36.000Z</time>
      </trkpt>
      <trkpt lat="44.63247" lon="5.20042">
        <ele>1303</ele>
        <time>2026-05-25T09:28:37.000Z</time>
      </trkpt>
      <trkpt lat="44.63247" lon="5.2004">
        <ele>1302</ele>
        <time>2026-05-25T09:28:38.000Z</time>
      </trkpt>
      <trkpt lat="44.63246" lon="5.20037">
        <ele>1301</ele>
        <time>2026-05-25T09:28:39.000Z</time>
      </trkpt>
      <trkpt lat="44.63245" lon="5.20035">
        <ele>1301</ele>
        <time>2026-05-25T09:28:40.000Z</time>
      </trkpt>
      <trkpt lat="44.63245" lon="5.20035">
        <ele>1300</ele>
        <time>2026-05-25T09:28:41.000Z</time>
      </trkpt>
      <trkpt lat="44.63245" lon="5.20036">
        <ele>1300</ele>
        <time>2026-05-25T09:28:42.000Z</time>
      </trkpt>
      <trkpt lat="44.63246" lon="5.20035">
        <ele>1299</ele>
        <time>2026-05-25T09:28:43.000Z</time>
      </trkpt>
      <trkpt lat="44.63246" lon="5.20034">
        <ele>1300</ele>
        <time>2026-05-25T09:28:44.000Z</time>
      </trkpt>
      <trkpt lat="44.63246" lon="5.20033">
        <ele>1300</ele>
        <time>2026-05-25T09:28:45.000Z</time>
      </trkpt>
      <trkpt lat="44.63246" lon="5.20032">
        <ele>1300</ele>
        <time>2026-05-25T09:28:46.000Z</time>
      </trkpt>
      <trkpt lat="44.63245" lon="5.20031">
        <ele>1300</ele>
        <time>2026-05-25T09:28:47.000Z</time>
      </trkpt>
      <trkpt lat="44.63245" lon="5.2003">
        <ele>1300</ele>
        <time>2026-05-25T09:28:48.000Z</time>
      </trkpt>
      <trkpt lat="44.63245" lon="5.20029">
        <ele>1299</ele>
        <time>2026-05-25T09:28:49.000Z</time>
      </trkpt>
      <trkpt lat="44.63245" lon="5.20028">
        <ele>1299</ele>
        <time>2026-05-25T09:28:50.000Z</time>
      </trkpt>
      <trkpt lat="44.63244" lon="5.20027">
        <ele>1300</ele>
        <time>2026-05-25T09:28:51.000Z</time>
      </trkpt>
      <trkpt lat="44.63245" lon="5.20026">
        <ele>1301</ele>
        <time>2026-05-25T09:28:52.000Z</time>
      </trkpt>
      <trkpt lat="44.63245" lon="5.20025">
        <ele>1301</ele>
        <time>2026-05-25T09:28:53.000Z</time>
      </trkpt>
      <trkpt lat="44.63245" lon="5.20025">
        <ele>1302</ele>
        <time>2026-05-25T09:28:54.000Z</time>
      </trkpt>
      <trkpt lat="44.63245" lon="5.20023">
        <ele>1302</ele>
        <time>2026-05-25T09:28:55.000Z</time>
      </trkpt>
      <trkpt lat="44.63245" lon="5.20023">
        <ele>1301</ele>
        <time>2026-05-25T09:28:56.000Z</time>
      </trkpt>
      <trkpt lat="44.63245" lon="5.20023">
        <ele>1302</ele>
        <time>2026-05-25T09:28:57.000Z</time>
      </trkpt>
      <trkpt lat="44.63245" lon="5.20023">
        <ele>1302</ele>
        <time>2026-05-25T09:28:58.000Z</time>
      </trkpt>
      <trkpt lat="44.63245" lon="5.20023">
        <ele>1302</ele>
        <time>2026-05-25T09:28:59.000Z</time>
      </trkpt>
      <trkpt lat="44.63245" lon="5.20023">
        <ele>1302</ele>
        <time>2026-05-25T09:29:00.000Z</time>
      </trkpt>
      <trkpt lat="44.63245" lon="5.20023">
        <ele>1302</ele>
        <time>2026-05-25T09:29:01.000Z</time>
      </trkpt>
      <trkpt lat="44.63247" lon="5.20025">
        <ele>1303</ele>
        <time>2026-05-25T09:29:02.000Z</time>
      </trkpt>
      <trkpt lat="44.63246" lon="5.20027">
        <ele>1304</ele>
        <time>2026-05-25T09:29:03.000Z</time>
      </trkpt>
      <trkpt lat="44.63246" lon="5.20026">
        <ele>1304</ele>
        <time>2026-05-25T09:29:04.000Z</time>
      </trkpt>
      <trkpt lat="44.63246" lon="5.20025">
        <ele>1304</ele>
        <time>2026-05-25T09:29:05.000Z</time>
      </trkpt>
      <trkpt lat="44.63247" lon="5.20025">
        <ele>1304</ele>
        <time>2026-05-25T09:29:06.000Z</time>
      </trkpt>
      <trkpt lat="44.63246" lon="5.20024">
        <ele>1302</ele>
        <time>2026-05-25T09:29:07.000Z</time>
      </trkpt>
      <trkpt lat="44.63246" lon="5.20022">
        <ele>1302</ele>
        <time>2026-05-25T09:29:08.000Z</time>
      </trkpt>
      <trkpt lat="44.63246" lon="5.20021">
        <ele>1302</ele>
        <time>2026-05-25T09:29:09.000Z</time>
      </trkpt>
      <trkpt lat="44.63247" lon="5.2002">
        <ele>1302</ele>
        <time>2026-05-25T09:29:10.000Z</time>
      </trkpt>
      <trkpt lat="44.63247" lon="5.2002">
        <ele>1302</ele>
        <time>2026-05-25T09:29:11.000Z</time>
      </trkpt>
      <trkpt lat="44.63247" lon="5.20019">
        <ele>1303</ele>
        <time>2026-05-25T09:29:12.000Z</time>
      </trkpt>
      <trkpt lat="44.63248" lon="5.20019">
        <ele>1304</ele>
        <time>2026-05-25T09:29:13.000Z</time>
      </trkpt>
      <trkpt lat="44.6325" lon="5.20019">
        <ele>1303</ele>
        <time>2026-05-25T09:29:14.000Z</time>
      </trkpt>
      <trkpt lat="44.6325" lon="5.20018">
        <ele>1303</ele>
        <time>2026-05-25T09:29:15.000Z</time>
      </trkpt>
      <trkpt lat="44.63251" lon="5.20018">
        <ele>1302</ele>
        <time>2026-05-25T09:29:16.000Z</time>
      </trkpt>
      <trkpt lat="44.63251" lon="5.20018">
        <ele>1302</ele>
        <time>2026-05-25T09:29:17.000Z</time>
      </trkpt>
      <trkpt lat="44.63251" lon="5.20018">
        <ele>1302</ele>
        <time>2026-05-25T09:29:18.000Z</time>
      </trkpt>
      <trkpt lat="44.63252" lon="5.20016">
        <ele>1303</ele>
        <time>2026-05-25T09:29:19.000Z</time>
      </trkpt>
      <trkpt lat="44.63252" lon="5.20015">
        <ele>1304</ele>
        <time>2026-05-25T09:29:20.000Z</time>
      </trkpt>
      <trkpt lat="44.63253" lon="5.20014">
        <ele>1305</ele>
        <time>2026-05-25T09:29:21.000Z</time>
      </trkpt>
      <trkpt lat="44.63253" lon="5.20012">
        <ele>1305</ele>
        <time>2026-05-25T09:29:22.000Z</time>
      </trkpt>
      <trkpt lat="44.63253" lon="5.2001">
        <ele>1305</ele>
        <time>2026-05-25T09:29:23.000Z</time>
      </trkpt>
      <trkpt lat="44.63253" lon="5.2001">
        <ele>1305</ele>
        <time>2026-05-25T09:29:24.000Z</time>
      </trkpt>
      <trkpt lat="44.63254" lon="5.20009">
        <ele>1306</ele>
        <time>2026-05-25T09:29:25.000Z</time>
      </trkpt>
      <trkpt lat="44.63254" lon="5.20007">
        <ele>1305</ele>
        <time>2026-05-25T09:29:26.000Z</time>
      </trkpt>
      <trkpt lat="44.63254" lon="5.20006">
        <ele>1306</ele>
        <time>2026-05-25T09:29:27.000Z</time>
      </trkpt>
      <trkpt lat="44.63256" lon="5.20006">
        <ele>1305</ele>
        <time>2026-05-25T09:29:28.000Z</time>
      </trkpt>
      <trkpt lat="44.63256" lon="5.20005">
        <ele>1305</ele>
        <time>2026-05-25T09:29:29.000Z</time>
      </trkpt>
      <trkpt lat="44.63257" lon="5.20005">
        <ele>1305</ele>
        <time>2026-05-25T09:29:30.000Z</time>
      </trkpt>
      <trkpt lat="44.63258" lon="5.20005">
        <ele>1305</ele>
        <time>2026-05-25T09:29:31.000Z</time>
      </trkpt>
      <trkpt lat="44.63259" lon="5.20004">
        <ele>1305</ele>
        <time>2026-05-25T09:29:32.000Z</time>
      </trkpt>
      <trkpt lat="44.63261" lon="5.20001">
        <ele>1304</ele>
        <time>2026-05-25T09:29:33.000Z</time>
      </trkpt>
      <trkpt lat="44.63262" lon="5.20002">
        <ele>1303</ele>
        <time>2026-05-25T09:29:34.000Z</time>
      </trkpt>
      <trkpt lat="44.63263" lon="5.20001">
        <ele>1302</ele>
        <time>2026-05-25T09:29:35.000Z</time>
      </trkpt>
      <trkpt lat="44.63263" lon="5.2">
        <ele>1302</ele>
        <time>2026-05-25T09:29:36.000Z</time>
      </trkpt>
      <trkpt lat="44.63264" lon="5.2">
        <ele>1303</ele>
        <time>2026-05-25T09:29:37.000Z</time>
      </trkpt>
      <trkpt lat="44.63265" lon="5.19998">
        <ele>1302</ele>
        <time>2026-05-25T09:29:38.000Z</time>
      </trkpt>
      <trkpt lat="44.63265" lon="5.19998">
        <ele>1303</ele>
        <time>2026-05-25T09:29:39.000Z</time>
      </trkpt>
      <trkpt lat="44.63266" lon="5.19998">
        <ele>1303</ele>
        <time>2026-05-25T09:29:40.000Z</time>
      </trkpt>
      <trkpt lat="44.63265" lon="5.19997">
        <ele>1303</ele>
        <time>2026-05-25T09:29:41.000Z</time>
      </trkpt>
      <trkpt lat="44.63265" lon="5.19996">
        <ele>1303</ele>
        <time>2026-05-25T09:29:42.000Z</time>
      </trkpt>
      <trkpt lat="44.63266" lon="5.19995">
        <ele>1303</ele>
        <time>2026-05-25T09:29:43.000Z</time>
      </trkpt>
      <trkpt lat="44.63267" lon="5.19994">
        <ele>1305</ele>
        <time>2026-05-25T09:29:44.000Z</time>
      </trkpt>
      <trkpt lat="44.63268" lon="5.19993">
        <ele>1305</ele>
        <time>2026-05-25T09:29:45.000Z</time>
      </trkpt>
      <trkpt lat="44.63268" lon="5.19993">
        <ele>1304</ele>
        <time>2026-05-25T09:29:46.000Z</time>
      </trkpt>
      <trkpt lat="44.63268" lon="5.19993">
        <ele>1304</ele>
        <time>2026-05-25T09:29:47.000Z</time>
      </trkpt>
      <trkpt lat="44.63268" lon="5.19995">
        <ele>1304</ele>
        <time>2026-05-25T09:29:48.000Z</time>
      </trkpt>
      <trkpt lat="44.63268" lon="5.19995">
        <ele>1305</ele>
        <time>2026-05-25T09:29:49.000Z</time>
      </trkpt>
      <trkpt lat="44.6327" lon="5.19995">
        <ele>1306</ele>
        <time>2026-05-25T09:29:50.000Z</time>
      </trkpt>
      <trkpt lat="44.63271" lon="5.19995">
        <ele>1305</ele>
        <time>2026-05-25T09:29:51.000Z</time>
      </trkpt>
      <trkpt lat="44.63272" lon="5.19995">
        <ele>1304</ele>
        <time>2026-05-25T09:29:52.000Z</time>
      </trkpt>
      <trkpt lat="44.63274" lon="5.19995">
        <ele>1305</ele>
        <time>2026-05-25T09:29:53.000Z</time>
      </trkpt>
      <trkpt lat="44.63273" lon="5.19994">
        <ele>1306</ele>
        <time>2026-05-25T09:29:54.000Z</time>
      </trkpt>
      <trkpt lat="44.63272" lon="5.19994">
        <ele>1306</ele>
        <time>2026-05-25T09:29:55.000Z</time>
      </trkpt>
      <trkpt lat="44.63272" lon="5.19994">
        <ele>1306</ele>
        <time>2026-05-25T09:29:56.000Z</time>
      </trkpt>
      <trkpt lat="44.63272" lon="5.19994">
        <ele>1306</ele>
        <time>2026-05-25T09:29:57.000Z</time>
      </trkpt>
      <trkpt lat="44.63272" lon="5.19993">
        <ele>1305</ele>
        <time>2026-05-25T09:29:58.000Z</time>
      </trkpt>
      <trkpt lat="44.63272" lon="5.19993">
        <ele>1305</ele>
        <time>2026-05-25T09:29:59.000Z</time>
      </trkpt>
      <trkpt lat="44.63272" lon="5.19993">
        <ele>1305</ele>
        <time>2026-05-25T09:30:00.000Z</time>
      </trkpt>
      <trkpt lat="44.63272" lon="5.19993">
        <ele>1305</ele>
        <time>2026-05-25T09:30:01.000Z</time>
      </trkpt>
      <trkpt lat="44.63272" lon="5.19993">
        <ele>1305</ele>
        <time>2026-05-25T09:30:02.000Z</time>
      </trkpt>
      <trkpt lat="44.63272" lon="5.19993">
        <ele>1305</ele>
        <time>2026-05-25T09:30:03.000Z</time>
      </trkpt>
      <trkpt lat="44.63272" lon="5.19993">
        <ele>1305</ele>
        <time>2026-05-25T09:30:04.000Z</time>
      </trkpt>
      <trkpt lat="44.63273" lon="5.19993">
        <ele>1306</ele>
        <time>2026-05-25T09:30:05.000Z</time>
      </trkpt>
      <trkpt lat="44.63274" lon="5.19993">
        <ele>1306</ele>
        <time>2026-05-25T09:30:06.000Z</time>
      </trkpt>
      <trkpt lat="44.63273" lon="5.19992">
        <ele>1306</ele>
        <time>2026-05-25T09:30:07.000Z</time>
      </trkpt>
      <trkpt lat="44.63274" lon="5.19992">
        <ele>1306</ele>
        <time>2026-05-25T09:30:08.000Z</time>
      </trkpt>
      <trkpt lat="44.63274" lon="5.19991">
        <ele>1306</ele>
        <time>2026-05-25T09:30:09.000Z</time>
      </trkpt>
      <trkpt lat="44.63275" lon="5.1999">
        <ele>1306</ele>
        <time>2026-05-25T09:30:10.000Z</time>
      </trkpt>
      <trkpt lat="44.63276" lon="5.19989">
        <ele>1305</ele>
        <time>2026-05-25T09:30:11.000Z</time>
      </trkpt>
      <trkpt lat="44.63277" lon="5.19988">
        <ele>1305</ele>
        <time>2026-05-25T09:30:12.000Z</time>
      </trkpt>
      <trkpt lat="44.63277" lon="5.19987">
        <ele>1305</ele>
        <time>2026-05-25T09:30:13.000Z</time>
      </trkpt>
      <trkpt lat="44.63277" lon="5.19987">
        <ele>1305</ele>
        <time>2026-05-25T09:30:14.000Z</time>
      </trkpt>
      <trkpt lat="44.63278" lon="5.19986">
        <ele>1305</ele>
        <time>2026-05-25T09:30:15.000Z</time>
      </trkpt>
      <trkpt lat="44.63278" lon="5.19985">
        <ele>1305</ele>
        <time>2026-05-25T09:30:16.000Z</time>
      </trkpt>
      <trkpt lat="44.63278" lon="5.19985">
        <ele>1305</ele>
        <time>2026-05-25T09:30:17.000Z</time>
      </trkpt>
      <trkpt lat="44.63277" lon="5.19985">
        <ele>1306</ele>
        <time>2026-05-25T09:30:18.000Z</time>
      </trkpt>
      <trkpt lat="44.63277" lon="5.19984">
        <ele>1307</ele>
        <time>2026-05-25T09:30:19.000Z</time>
      </trkpt>
      <trkpt lat="44.63277" lon="5.19982">
        <ele>1307</ele>
        <time>2026-05-25T09:30:20.000Z</time>
      </trkpt>
      <trkpt lat="44.63276" lon="5.19981">
        <ele>1307</ele>
        <time>2026-05-25T09:30:21.000Z</time>
      </trkpt>
      <trkpt lat="44.63275" lon="5.19979">
        <ele>1307</ele>
        <time>2026-05-25T09:30:22.000Z</time>
      </trkpt>
      <trkpt lat="44.63276" lon="5.19978">
        <ele>1307</ele>
        <time>2026-05-25T09:30:23.000Z</time>
      </trkpt>
      <trkpt lat="44.63277" lon="5.19978">
        <ele>1307</ele>
        <time>2026-05-25T09:30:24.000Z</time>
      </trkpt>
      <trkpt lat="44.63277" lon="5.19977">
        <ele>1306</ele>
        <time>2026-05-25T09:30:25.000Z</time>
      </trkpt>
      <trkpt lat="44.63277" lon="5.19976">
        <ele>1307</ele>
        <time>2026-05-25T09:30:26.000Z</time>
      </trkpt>
      <trkpt lat="44.63277" lon="5.19976">
        <ele>1307</ele>
        <time>2026-05-25T09:30:27.000Z</time>
      </trkpt>
      <trkpt lat="44.63277" lon="5.19976">
        <ele>1307</ele>
        <time>2026-05-25T09:30:28.000Z</time>
      </trkpt>
      <trkpt lat="44.63278" lon="5.19976">
        <ele>1309</ele>
        <time>2026-05-25T09:30:29.000Z</time>
      </trkpt>
      <trkpt lat="44.63277" lon="5.19976">
        <ele>1310</ele>
        <time>2026-05-25T09:30:30.000Z</time>
      </trkpt>
      <trkpt lat="44.63276" lon="5.19976">
        <ele>1310</ele>
        <time>2026-05-25T09:30:31.000Z</time>
      </trkpt>
      <trkpt lat="44.63276" lon="5.19975">
        <ele>1311</ele>
        <time>2026-05-25T09:30:32.000Z</time>
      </trkpt>
      <trkpt lat="44.63276" lon="5.19972">
        <ele>1310</ele>
        <time>2026-05-25T09:30:33.000Z</time>
      </trkpt>
      <trkpt lat="44.63275" lon="5.19971">
        <ele>1310</ele>
        <time>2026-05-25T09:30:34.000Z</time>
      </trkpt>
      <trkpt lat="44.63276" lon="5.19969">
        <ele>1310</ele>
        <time>2026-05-25T09:30:35.000Z</time>
      </trkpt>
      <trkpt lat="44.63277" lon="5.19969">
        <ele>1311</ele>
        <time>2026-05-25T09:30:36.000Z</time>
      </trkpt>
      <trkpt lat="44.63277" lon="5.19969">
        <ele>1311</ele>
        <time>2026-05-25T09:30:37.000Z</time>
      </trkpt>
      <trkpt lat="44.63277" lon="5.19969">
        <ele>1311</ele>
        <time>2026-05-25T09:30:38.000Z</time>
      </trkpt>
      <trkpt lat="44.63277" lon="5.19966">
        <ele>1311</ele>
        <time>2026-05-25T09:30:39.000Z</time>
      </trkpt>
      <trkpt lat="44.63277" lon="5.19965">
        <ele>1312</ele>
        <time>2026-05-25T09:30:40.000Z</time>
      </trkpt>
      <trkpt lat="44.63276" lon="5.19964">
        <ele>1312</ele>
        <time>2026-05-25T09:30:41.000Z</time>
      </trkpt>
      <trkpt lat="44.63276" lon="5.19962">
        <ele>1312</ele>
        <time>2026-05-25T09:30:42.000Z</time>
      </trkpt>
      <trkpt lat="44.63277" lon="5.1996">
        <ele>1313</ele>
        <time>2026-05-25T09:30:43.000Z</time>
      </trkpt>
      <trkpt lat="44.63277" lon="5.1996">
        <ele>1313</ele>
        <time>2026-05-25T09:30:44.000Z</time>
      </trkpt>
      <trkpt lat="44.63277" lon="5.1996">
        <ele>1313</ele>
        <time>2026-05-25T09:30:45.000Z</time>
      </trkpt>
      <trkpt lat="44.63275" lon="5.19957">
        <ele>1313</ele>
        <time>2026-05-25T09:30:46.000Z</time>
      </trkpt>
      <trkpt lat="44.63274" lon="5.19956">
        <ele>1314</ele>
        <time>2026-05-25T09:30:47.000Z</time>
      </trkpt>
      <trkpt lat="44.63275" lon="5.19955">
        <ele>1315</ele>
        <time>2026-05-25T09:30:48.000Z</time>
      </trkpt>
      <trkpt lat="44.63275" lon="5.19954">
        <ele>1316</ele>
        <time>2026-05-25T09:30:49.000Z</time>
      </trkpt>
      <trkpt lat="44.63275" lon="5.19954">
        <ele>1316</ele>
        <time>2026-05-25T09:30:50.000Z</time>
      </trkpt>
      <trkpt lat="44.63273" lon="5.19952">
        <ele>1318</ele>
        <time>2026-05-25T09:30:51.000Z</time>
      </trkpt>
      <trkpt lat="44.63273" lon="5.19951">
        <ele>1318</ele>
        <time>2026-05-25T09:30:52.000Z</time>
      </trkpt>
      <trkpt lat="44.63272" lon="5.19951">
        <ele>1318</ele>
        <time>2026-05-25T09:30:53.000Z</time>
      </trkpt>
      <trkpt lat="44.63273" lon="5.1995">
        <ele>1318</ele>
        <time>2026-05-25T09:30:54.000Z</time>
      </trkpt>
      <trkpt lat="44.63274" lon="5.19952">
        <ele>1321</ele>
        <time>2026-05-25T09:30:55.000Z</time>
      </trkpt>
      <trkpt lat="44.63274" lon="5.19952">
        <ele>1321</ele>
        <time>2026-05-25T09:30:56.000Z</time>
      </trkpt>
      <trkpt lat="44.63274" lon="5.19952">
        <ele>1321</ele>
        <time>2026-05-25T09:30:57.000Z</time>
      </trkpt>
      <trkpt lat="44.63274" lon="5.19952">
        <ele>1321</ele>
        <time>2026-05-25T09:30:58.000Z</time>
      </trkpt>
      <trkpt lat="44.63274" lon="5.19952">
        <ele>1321</ele>
        <time>2026-05-25T09:30:59.000Z</time>
      </trkpt>
      <trkpt lat="44.63274" lon="5.19952">
        <ele>1321</ele>
        <time>2026-05-25T09:31:00.000Z</time>
      </trkpt>
      <trkpt lat="44.63274" lon="5.19952">
        <ele>1321</ele>
        <time>2026-05-25T09:31:01.000Z</time>
      </trkpt>
      <trkpt lat="44.63274" lon="5.19952">
        <ele>1321</ele>
        <time>2026-05-25T09:31:02.000Z</time>
      </trkpt>
      <trkpt lat="44.63274" lon="5.19952">
        <ele>1321</ele>
        <time>2026-05-25T09:31:03.000Z</time>
      </trkpt>
      <trkpt lat="44.63274" lon="5.19952">
        <ele>1321</ele>
        <time>2026-05-25T09:31:04.000Z</time>
      </trkpt>
      <trkpt lat="44.63274" lon="5.19952">
        <ele>1321</ele>
        <time>2026-05-25T09:31:05.000Z</time>
      </trkpt>
      <trkpt lat="44.63274" lon="5.19952">
        <ele>1321</ele>
        <time>2026-05-25T09:31:06.000Z</time>
      </trkpt>
      <trkpt lat="44.63274" lon="5.19952">
        <ele>1321</ele>
        <time>2026-05-25T09:31:07.000Z</time>
      </trkpt>
      <trkpt lat="44.63274" lon="5.19952">
        <ele>1321</ele>
        <time>2026-05-25T09:31:08.000Z</time>
      </trkpt>
      <trkpt lat="44.63274" lon="5.19952">
        <ele>1321</ele>
        <time>2026-05-25T09:31:09.000Z</time>
      </trkpt>
      <trkpt lat="44.63274" lon="5.19952">
        <ele>1321</ele>
        <time>2026-05-25T09:31:10.000Z</time>
      </trkpt>
      <trkpt lat="44.63274" lon="5.19952">
        <ele>1321</ele>
        <time>2026-05-25T09:31:11.000Z</time>
      </trkpt>
      <trkpt lat="44.63274" lon="5.19952">
        <ele>1321</ele>
        <time>2026-05-25T09:31:12.000Z</time>
      </trkpt>
      <trkpt lat="44.63274" lon="5.19952">
        <ele>1321</ele>
        <time>2026-05-25T09:31:13.000Z</time>
      </trkpt>
      <trkpt lat="44.63274" lon="5.19952">
        <ele>1321</ele>
        <time>2026-05-25T09:31:14.000Z</time>
      </trkpt>
      <trkpt lat="44.63274" lon="5.19952">
        <ele>1321</ele>
        <time>2026-05-25T09:31:15.000Z</time>
      </trkpt>
      <trkpt lat="44.63274" lon="5.19952">
        <ele>1321</ele>
        <time>2026-05-25T09:31:16.000Z</time>
      </trkpt>
      <trkpt lat="44.63274" lon="5.19952">
        <ele>1321</ele>
        <time>2026-05-25T09:31:17.000Z</time>
      </trkpt>
      <trkpt lat="44.63274" lon="5.19952">
        <ele>1321</ele>
        <time>2026-05-25T09:31:18.000Z</time>
      </trkpt>
      <trkpt lat="44.63274" lon="5.19952">
        <ele>1321</ele>
        <time>2026-05-25T09:31:19.000Z</time>
      </trkpt>
      <trkpt lat="44.63274" lon="5.19952">
        <ele>1321</ele>
        <time>2026-05-25T09:31:20.000Z</time>
      </trkpt>
      <trkpt lat="44.63274" lon="5.19952">
        <ele>1321</ele>
        <time>2026-05-25T09:31:21.000Z</time>
      </trkpt>
      <trkpt lat="44.63274" lon="5.19952">
        <ele>1321</ele>
        <time>2026-05-25T09:31:22.000Z</time>
      </trkpt>
      <trkpt lat="44.63274" lon="5.19952">
        <ele>1321</ele>
        <time>2026-05-25T09:31:23.000Z</time>
      </trkpt>
      <trkpt lat="44.63274" lon="5.19952">
        <ele>1321</ele>
        <time>2026-05-25T09:31:24.000Z</time>
      </trkpt>
      <trkpt lat="44.63274" lon="5.19952">
        <ele>1321</ele>
        <time>2026-05-25T09:31:25.000Z</time>
      </trkpt>
      <trkpt lat="44.63274" lon="5.19952">
        <ele>1321</ele>
        <time>2026-05-25T09:31:26.000Z</time>
      </trkpt>
      <trkpt lat="44.63274" lon="5.19952">
        <ele>1321</ele>
        <time>2026-05-25T09:31:27.000Z</time>
      </trkpt>
      <trkpt lat="44.63274" lon="5.19952">
        <ele>1321</ele>
        <time>2026-05-25T09:31:28.000Z</time>
      </trkpt>
      <trkpt lat="44.63274" lon="5.19952">
        <ele>1321</ele>
        <time>2026-05-25T09:31:29.000Z</time>
      </trkpt>
      <trkpt lat="44.63274" lon="5.19952">
        <ele>1321</ele>
        <time>2026-05-25T09:31:30.000Z</time>
      </trkpt>
      <trkpt lat="44.63274" lon="5.19952">
        <ele>1321</ele>
        <time>2026-05-25T09:31:31.000Z</time>
      </trkpt>
      <trkpt lat="44.63275" lon="5.19951">
        <ele>1321</ele>
        <time>2026-05-25T09:31:32.000Z</time>
      </trkpt>
      <trkpt lat="44.63276" lon="5.1995">
        <ele>1321</ele>
        <time>2026-05-25T09:31:33.000Z</time>
      </trkpt>
      <trkpt lat="44.63276" lon="5.19948">
        <ele>1320</ele>
        <time>2026-05-25T09:31:34.000Z</time>
      </trkpt>
      <trkpt lat="44.63276" lon="5.19947">
        <ele>1320</ele>
        <time>2026-05-25T09:31:35.000Z</time>
      </trkpt>
      <trkpt lat="44.63275" lon="5.19946">
        <ele>1321</ele>
        <time>2026-05-25T09:31:36.000Z</time>
      </trkpt>
      <trkpt lat="44.63274" lon="5.19944">
        <ele>1323</ele>
        <time>2026-05-25T09:31:37.000Z</time>
      </trkpt>
      <trkpt lat="44.63274" lon="5.19943">
        <ele>1322</ele>
        <time>2026-05-25T09:31:38.000Z</time>
      </trkpt>
      <trkpt lat="44.63273" lon="5.19943">
        <ele>1322</ele>
        <time>2026-05-25T09:31:39.000Z</time>
      </trkpt>
      <trkpt lat="44.63273" lon="5.19943">
        <ele>1321</ele>
        <time>2026-05-25T09:31:40.000Z</time>
      </trkpt>
      <trkpt lat="44.63274" lon="5.19943">
        <ele>1322</ele>
        <time>2026-05-25T09:31:41.000Z</time>
      </trkpt>
      <trkpt lat="44.63274" lon="5.19943">
        <ele>1322</ele>
        <time>2026-05-25T09:31:42.000Z</time>
      </trkpt>
      <trkpt lat="44.63274" lon="5.19943">
        <ele>1322</ele>
        <time>2026-05-25T09:31:43.000Z</time>
      </trkpt>
      <trkpt lat="44.63274" lon="5.19943">
        <ele>1322</ele>
        <time>2026-05-25T09:31:44.000Z</time>
      </trkpt>
      <trkpt lat="44.63274" lon="5.19943">
        <ele>1322</ele>
        <time>2026-05-25T09:31:45.000Z</time>
      </trkpt>
      <trkpt lat="44.63274" lon="5.19942">
        <ele>1323</ele>
        <time>2026-05-25T09:31:46.000Z</time>
      </trkpt>
      <trkpt lat="44.63274" lon="5.19941">
        <ele>1322</ele>
        <time>2026-05-25T09:31:47.000Z</time>
      </trkpt>
      <trkpt lat="44.63274" lon="5.1994">
        <ele>1321</ele>
        <time>2026-05-25T09:31:48.000Z</time>
      </trkpt>
      <trkpt lat="44.63273" lon="5.19939">
        <ele>1320</ele>
        <time>2026-05-25T09:31:49.000Z</time>
      </trkpt>
      <trkpt lat="44.63273" lon="5.19938">
        <ele>1321</ele>
        <time>2026-05-25T09:31:50.000Z</time>
      </trkpt>
      <trkpt lat="44.63273" lon="5.19937">
        <ele>1321</ele>
        <time>2026-05-25T09:31:51.000Z</time>
      </trkpt>
      <trkpt lat="44.63273" lon="5.19936">
        <ele>1321</ele>
        <time>2026-05-25T09:31:52.000Z</time>
      </trkpt>
      <trkpt lat="44.63272" lon="5.19935">
        <ele>1320</ele>
        <time>2026-05-25T09:31:53.000Z</time>
      </trkpt>
      <trkpt lat="44.63272" lon="5.19934">
        <ele>1320</ele>
        <time>2026-05-25T09:31:54.000Z</time>
      </trkpt>
      <trkpt lat="44.63272" lon="5.19934">
        <ele>1320</ele>
        <time>2026-05-25T09:31:55.000Z</time>
      </trkpt>
      <trkpt lat="44.63272" lon="5.19934">
        <ele>1320</ele>
        <time>2026-05-25T09:31:56.000Z</time>
      </trkpt>
      <trkpt lat="44.63272" lon="5.19934">
        <ele>1320</ele>
        <time>2026-05-25T09:31:57.000Z</time>
      </trkpt>
      <trkpt lat="44.63272" lon="5.19934">
        <ele>1320</ele>
        <time>2026-05-25T09:31:58.000Z</time>
      </trkpt>
      <trkpt lat="44.63272" lon="5.19934">
        <ele>1320</ele>
        <time>2026-05-25T09:31:59.000Z</time>
      </trkpt>
      <trkpt lat="44.63272" lon="5.19934">
        <ele>1320</ele>
        <time>2026-05-25T09:32:00.000Z</time>
      </trkpt>
      <trkpt lat="44.63272" lon="5.19934">
        <ele>1320</ele>
        <time>2026-05-25T09:32:01.000Z</time>
      </trkpt>
      <trkpt lat="44.63272" lon="5.19934">
        <ele>1320</ele>
        <time>2026-05-25T09:32:02.000Z</time>
      </trkpt>
      <trkpt lat="44.63272" lon="5.19934">
        <ele>1320</ele>
        <time>2026-05-25T09:32:03.000Z</time>
      </trkpt>
      <trkpt lat="44.63272" lon="5.19934">
        <ele>1320</ele>
        <time>2026-05-25T09:32:04.000Z</time>
      </trkpt>
      <trkpt lat="44.63271" lon="5.19933">
        <ele>1320</ele>
        <time>2026-05-25T09:32:05.000Z</time>
      </trkpt>
      <trkpt lat="44.63271" lon="5.19932">
        <ele>1320</ele>
        <time>2026-05-25T09:32:06.000Z</time>
      </trkpt>
      <trkpt lat="44.6327" lon="5.19931">
        <ele>1320</ele>
        <time>2026-05-25T09:32:07.000Z</time>
      </trkpt>
      <trkpt lat="44.6327" lon="5.19932">
        <ele>1320</ele>
        <time>2026-05-25T09:32:08.000Z</time>
      </trkpt>
      <trkpt lat="44.6327" lon="5.19932">
        <ele>1320</ele>
        <time>2026-05-25T09:32:09.000Z</time>
      </trkpt>
      <trkpt lat="44.6327" lon="5.19931">
        <ele>1320</ele>
        <time>2026-05-25T09:32:10.000Z</time>
      </trkpt>
      <trkpt lat="44.6327" lon="5.19931">
        <ele>1321</ele>
        <time>2026-05-25T09:32:11.000Z</time>
      </trkpt>
      <trkpt lat="44.63269" lon="5.19931">
        <ele>1321</ele>
        <time>2026-05-25T09:32:12.000Z</time>
      </trkpt>
      <trkpt lat="44.6327" lon="5.19931">
        <ele>1321</ele>
        <time>2026-05-25T09:32:13.000Z</time>
      </trkpt>
      <trkpt lat="44.6327" lon="5.1993">
        <ele>1322</ele>
        <time>2026-05-25T09:32:14.000Z</time>
      </trkpt>
      <trkpt lat="44.6327" lon="5.1993">
        <ele>1322</ele>
        <time>2026-05-25T09:32:15.000Z</time>
      </trkpt>
      <trkpt lat="44.6327" lon="5.1993">
        <ele>1322</ele>
        <time>2026-05-25T09:32:16.000Z</time>
      </trkpt>
      <trkpt lat="44.6327" lon="5.1993">
        <ele>1322</ele>
        <time>2026-05-25T09:32:17.000Z</time>
      </trkpt>
      <trkpt lat="44.6327" lon="5.1993">
        <ele>1322</ele>
        <time>2026-05-25T09:32:18.000Z</time>
      </trkpt>
      <trkpt lat="44.6327" lon="5.1993">
        <ele>1322</ele>
        <time>2026-05-25T09:32:19.000Z</time>
      </trkpt>
      <trkpt lat="44.6327" lon="5.1993">
        <ele>1322</ele>
        <time>2026-05-25T09:32:20.000Z</time>
      </trkpt>
      <trkpt lat="44.6327" lon="5.19931">
        <ele>1322</ele>
        <time>2026-05-25T09:32:21.000Z</time>
      </trkpt>
      <trkpt lat="44.6327" lon="5.1993">
        <ele>1322</ele>
        <time>2026-05-25T09:32:22.000Z</time>
      </trkpt>
      <trkpt lat="44.6327" lon="5.19929">
        <ele>1322</ele>
        <time>2026-05-25T09:32:23.000Z</time>
      </trkpt>
      <trkpt lat="44.6327" lon="5.19928">
        <ele>1322</ele>
        <time>2026-05-25T09:32:24.000Z</time>
      </trkpt>
      <trkpt lat="44.6327" lon="5.19928">
        <ele>1321</ele>
        <time>2026-05-25T09:32:25.000Z</time>
      </trkpt>
      <trkpt lat="44.63269" lon="5.19927">
        <ele>1321</ele>
        <time>2026-05-25T09:32:26.000Z</time>
      </trkpt>
      <trkpt lat="44.63269" lon="5.19926">
        <ele>1321</ele>
        <time>2026-05-25T09:32:27.000Z</time>
      </trkpt>
      <trkpt lat="44.63269" lon="5.19925">
        <ele>1321</ele>
        <time>2026-05-25T09:32:28.000Z</time>
      </trkpt>
      <trkpt lat="44.63269" lon="5.19925">
        <ele>1322</ele>
        <time>2026-05-25T09:32:29.000Z</time>
      </trkpt>
      <trkpt lat="44.63269" lon="5.19925">
        <ele>1322</ele>
        <time>2026-05-25T09:32:30.000Z</time>
      </trkpt>
      <trkpt lat="44.63268" lon="5.19925">
        <ele>1322</ele>
        <time>2026-05-25T09:32:31.000Z</time>
      </trkpt>
      <trkpt lat="44.63268" lon="5.19925">
        <ele>1322</ele>
        <time>2026-05-25T09:32:32.000Z</time>
      </trkpt>
      <trkpt lat="44.63268" lon="5.19925">
        <ele>1322</ele>
        <time>2026-05-25T09:32:33.000Z</time>
      </trkpt>
      <trkpt lat="44.63268" lon="5.19925">
        <ele>1322</ele>
        <time>2026-05-25T09:32:34.000Z</time>
      </trkpt>
      <trkpt lat="44.63268" lon="5.19925">
        <ele>1322</ele>
        <time>2026-05-25T09:32:35.000Z</time>
      </trkpt>
      <trkpt lat="44.63268" lon="5.19925">
        <ele>1322</ele>
        <time>2026-05-25T09:32:36.000Z</time>
      </trkpt>
      <trkpt lat="44.63267" lon="5.19923">
        <ele>1322</ele>
        <time>2026-05-25T09:32:37.000Z</time>
      </trkpt>
      <trkpt lat="44.63266" lon="5.19922">
        <ele>1322</ele>
        <time>2026-05-25T09:32:38.000Z</time>
      </trkpt>
      <trkpt lat="44.63265" lon="5.19919">
        <ele>1323</ele>
        <time>2026-05-25T09:32:39.000Z</time>
      </trkpt>
      <trkpt lat="44.63264" lon="5.19917">
        <ele>1323</ele>
        <time>2026-05-25T09:32:40.000Z</time>
      </trkpt>
      <trkpt lat="44.63263" lon="5.19915">
        <ele>1324</ele>
        <time>2026-05-25T09:32:41.000Z</time>
      </trkpt>
      <trkpt lat="44.63262" lon="5.19915">
        <ele>1323</ele>
        <time>2026-05-25T09:32:42.000Z</time>
      </trkpt>
      <trkpt lat="44.63262" lon="5.19914">
        <ele>1324</ele>
        <time>2026-05-25T09:32:43.000Z</time>
      </trkpt>
      <trkpt lat="44.6326" lon="5.19913">
        <ele>1325</ele>
        <time>2026-05-25T09:32:44.000Z</time>
      </trkpt>
      <trkpt lat="44.6326" lon="5.19913">
        <ele>1325</ele>
        <time>2026-05-25T09:32:45.000Z</time>
      </trkpt>
      <trkpt lat="44.63259" lon="5.19913">
        <ele>1325</ele>
        <time>2026-05-25T09:32:46.000Z</time>
      </trkpt>
      <trkpt lat="44.63258" lon="5.19912">
        <ele>1325</ele>
        <time>2026-05-25T09:32:47.000Z</time>
      </trkpt>
      <trkpt lat="44.63258" lon="5.1991">
        <ele>1325</ele>
        <time>2026-05-25T09:32:48.000Z</time>
      </trkpt>
      <trkpt lat="44.63257" lon="5.19908">
        <ele>1327</ele>
        <time>2026-05-25T09:32:49.000Z</time>
      </trkpt>
      <trkpt lat="44.63256" lon="5.19906">
        <ele>1326</ele>
        <time>2026-05-25T09:32:50.000Z</time>
      </trkpt>
      <trkpt lat="44.63256" lon="5.19904">
        <ele>1326</ele>
        <time>2026-05-25T09:32:51.000Z</time>
      </trkpt>
      <trkpt lat="44.63256" lon="5.19902">
        <ele>1326</ele>
        <time>2026-05-25T09:32:52.000Z</time>
      </trkpt>
      <trkpt lat="44.63256" lon="5.19901">
        <ele>1326</ele>
        <time>2026-05-25T09:32:53.000Z</time>
      </trkpt>
      <trkpt lat="44.63256" lon="5.19899">
        <ele>1325</ele>
        <time>2026-05-25T09:32:54.000Z</time>
      </trkpt>
      <trkpt lat="44.63256" lon="5.19897">
        <ele>1324</ele>
        <time>2026-05-25T09:32:55.000Z</time>
      </trkpt>
      <trkpt lat="44.63256" lon="5.19896">
        <ele>1324</ele>
        <time>2026-05-25T09:32:56.000Z</time>
      </trkpt>
      <trkpt lat="44.63256" lon="5.19896">
        <ele>1323</ele>
        <time>2026-05-25T09:32:57.000Z</time>
      </trkpt>
      <trkpt lat="44.63257" lon="5.19895">
        <ele>1322</ele>
        <time>2026-05-25T09:32:58.000Z</time>
      </trkpt>
      <trkpt lat="44.63257" lon="5.19894">
        <ele>1321</ele>
        <time>2026-05-25T09:32:59.000Z</time>
      </trkpt>
      <trkpt lat="44.63257" lon="5.19893">
        <ele>1321</ele>
        <time>2026-05-25T09:33:00.000Z</time>
      </trkpt>
      <trkpt lat="44.63257" lon="5.19892">
        <ele>1321</ele>
        <time>2026-05-25T09:33:01.000Z</time>
      </trkpt>
      <trkpt lat="44.63257" lon="5.19892">
        <ele>1320</ele>
        <time>2026-05-25T09:33:02.000Z</time>
      </trkpt>
      <trkpt lat="44.63257" lon="5.19891">
        <ele>1319</ele>
        <time>2026-05-25T09:33:03.000Z</time>
      </trkpt>
      <trkpt lat="44.63258" lon="5.1989">
        <ele>1319</ele>
        <time>2026-05-25T09:33:04.000Z</time>
      </trkpt>
      <trkpt lat="44.63258" lon="5.1989">
        <ele>1319</ele>
        <time>2026-05-25T09:33:05.000Z</time>
      </trkpt>
      <trkpt lat="44.63258" lon="5.19888">
        <ele>1320</ele>
        <time>2026-05-25T09:33:06.000Z</time>
      </trkpt>
      <trkpt lat="44.63259" lon="5.19888">
        <ele>1321</ele>
        <time>2026-05-25T09:33:07.000Z</time>
      </trkpt>
      <trkpt lat="44.6326" lon="5.19888">
        <ele>1321</ele>
        <time>2026-05-25T09:33:08.000Z</time>
      </trkpt>
      <trkpt lat="44.6326" lon="5.19887">
        <ele>1322</ele>
        <time>2026-05-25T09:33:09.000Z</time>
      </trkpt>
      <trkpt lat="44.63261" lon="5.19886">
        <ele>1322</ele>
        <time>2026-05-25T09:33:10.000Z</time>
      </trkpt>
      <trkpt lat="44.6326" lon="5.19886">
        <ele>1322</ele>
        <time>2026-05-25T09:33:11.000Z</time>
      </trkpt>
      <trkpt lat="44.6326" lon="5.19886">
        <ele>1322</ele>
        <time>2026-05-25T09:33:12.000Z</time>
      </trkpt>
      <trkpt lat="44.6326" lon="5.19886">
        <ele>1322</ele>
        <time>2026-05-25T09:33:13.000Z</time>
      </trkpt>
      <trkpt lat="44.6326" lon="5.19886">
        <ele>1323</ele>
        <time>2026-05-25T09:33:14.000Z</time>
      </trkpt>
      <trkpt lat="44.6326" lon="5.19884">
        <ele>1322</ele>
        <time>2026-05-25T09:33:15.000Z</time>
      </trkpt>
      <trkpt lat="44.63261" lon="5.19883">
        <ele>1323</ele>
        <time>2026-05-25T09:33:16.000Z</time>
      </trkpt>
      <trkpt lat="44.63262" lon="5.19881">
        <ele>1323</ele>
        <time>2026-05-25T09:33:17.000Z</time>
      </trkpt>
      <trkpt lat="44.63264" lon="5.19879">
        <ele>1323</ele>
        <time>2026-05-25T09:33:18.000Z</time>
      </trkpt>
      <trkpt lat="44.63265" lon="5.19879">
        <ele>1323</ele>
        <time>2026-05-25T09:33:19.000Z</time>
      </trkpt>
      <trkpt lat="44.63265" lon="5.19878">
        <ele>1323</ele>
        <time>2026-05-25T09:33:20.000Z</time>
      </trkpt>
      <trkpt lat="44.63265" lon="5.19877">
        <ele>1324</ele>
        <time>2026-05-25T09:33:21.000Z</time>
      </trkpt>
      <trkpt lat="44.63265" lon="5.19875">
        <ele>1324</ele>
        <time>2026-05-25T09:33:22.000Z</time>
      </trkpt>
      <trkpt lat="44.63266" lon="5.19874">
        <ele>1323</ele>
        <time>2026-05-25T09:33:23.000Z</time>
      </trkpt>
      <trkpt lat="44.63266" lon="5.19873">
        <ele>1322</ele>
        <time>2026-05-25T09:33:24.000Z</time>
      </trkpt>
      <trkpt lat="44.63267" lon="5.19873">
        <ele>1322</ele>
        <time>2026-05-25T09:33:25.000Z</time>
      </trkpt>
      <trkpt lat="44.63267" lon="5.19873">
        <ele>1322</ele>
        <time>2026-05-25T09:33:26.000Z</time>
      </trkpt>
      <trkpt lat="44.63267" lon="5.19873">
        <ele>1322</ele>
        <time>2026-05-25T09:33:27.000Z</time>
      </trkpt>
      <trkpt lat="44.63267" lon="5.19872">
        <ele>1323</ele>
        <time>2026-05-25T09:33:28.000Z</time>
      </trkpt>
      <trkpt lat="44.63267" lon="5.19871">
        <ele>1324</ele>
        <time>2026-05-25T09:33:29.000Z</time>
      </trkpt>
      <trkpt lat="44.63267" lon="5.1987">
        <ele>1325</ele>
        <time>2026-05-25T09:33:30.000Z</time>
      </trkpt>
      <trkpt lat="44.63267" lon="5.19869">
        <ele>1324</ele>
        <time>2026-05-25T09:33:31.000Z</time>
      </trkpt>
      <trkpt lat="44.63268" lon="5.19869">
        <ele>1325</ele>
        <time>2026-05-25T09:33:32.000Z</time>
      </trkpt>
      <trkpt lat="44.63268" lon="5.19869">
        <ele>1325</ele>
        <time>2026-05-25T09:33:33.000Z</time>
      </trkpt>
      <trkpt lat="44.63268" lon="5.19869">
        <ele>1325</ele>
        <time>2026-05-25T09:33:34.000Z</time>
      </trkpt>
      <trkpt lat="44.63269" lon="5.19867">
        <ele>1323</ele>
        <time>2026-05-25T09:33:35.000Z</time>
      </trkpt>
      <trkpt lat="44.6327" lon="5.19867">
        <ele>1324</ele>
        <time>2026-05-25T09:33:36.000Z</time>
      </trkpt>
      <trkpt lat="44.6327" lon="5.19866">
        <ele>1324</ele>
        <time>2026-05-25T09:33:37.000Z</time>
      </trkpt>
      <trkpt lat="44.6327" lon="5.19865">
        <ele>1324</ele>
        <time>2026-05-25T09:33:38.000Z</time>
      </trkpt>
      <trkpt lat="44.63271" lon="5.19864">
        <ele>1325</ele>
        <time>2026-05-25T09:33:39.000Z</time>
      </trkpt>
      <trkpt lat="44.63272" lon="5.19863">
        <ele>1325</ele>
        <time>2026-05-25T09:33:40.000Z</time>
      </trkpt>
      <trkpt lat="44.63272" lon="5.19863">
        <ele>1325</ele>
        <time>2026-05-25T09:33:41.000Z</time>
      </trkpt>
      <trkpt lat="44.63273" lon="5.19861">
        <ele>1325</ele>
        <time>2026-05-25T09:33:42.000Z</time>
      </trkpt>
      <trkpt lat="44.63273" lon="5.19861">
        <ele>1325</ele>
        <time>2026-05-25T09:33:43.000Z</time>
      </trkpt>
      <trkpt lat="44.63274" lon="5.19862">
        <ele>1325</ele>
        <time>2026-05-25T09:33:44.000Z</time>
      </trkpt>
      <trkpt lat="44.63274" lon="5.19862">
        <ele>1325</ele>
        <time>2026-05-25T09:33:45.000Z</time>
      </trkpt>
      <trkpt lat="44.63274" lon="5.19862">
        <ele>1325</ele>
        <time>2026-05-25T09:33:46.000Z</time>
      </trkpt>
      <trkpt lat="44.63275" lon="5.19862">
        <ele>1325</ele>
        <time>2026-05-25T09:33:47.000Z</time>
      </trkpt>
      <trkpt lat="44.63275" lon="5.19862">
        <ele>1325</ele>
        <time>2026-05-25T09:33:48.000Z</time>
      </trkpt>
      <trkpt lat="44.63277" lon="5.1986">
        <ele>1325</ele>
        <time>2026-05-25T09:33:49.000Z</time>
      </trkpt>
      <trkpt lat="44.63279" lon="5.19859">
        <ele>1325</ele>
        <time>2026-05-25T09:33:50.000Z</time>
      </trkpt>
      <trkpt lat="44.6328" lon="5.19859">
        <ele>1325</ele>
        <time>2026-05-25T09:33:51.000Z</time>
      </trkpt>
      <trkpt lat="44.63281" lon="5.19858">
        <ele>1325</ele>
        <time>2026-05-25T09:33:52.000Z</time>
      </trkpt>
      <trkpt lat="44.63282" lon="5.19859">
        <ele>1325</ele>
        <time>2026-05-25T09:33:53.000Z</time>
      </trkpt>
      <trkpt lat="44.63281" lon="5.19858">
        <ele>1324</ele>
        <time>2026-05-25T09:33:54.000Z</time>
      </trkpt>
      <trkpt lat="44.63282" lon="5.19857">
        <ele>1324</ele>
        <time>2026-05-25T09:33:55.000Z</time>
      </trkpt>
      <trkpt lat="44.63282" lon="5.19857">
        <ele>1323</ele>
        <time>2026-05-25T09:33:56.000Z</time>
      </trkpt>
      <trkpt lat="44.63283" lon="5.19856">
        <ele>1323</ele>
        <time>2026-05-25T09:33:57.000Z</time>
      </trkpt>
      <trkpt lat="44.63283" lon="5.19856">
        <ele>1325</ele>
        <time>2026-05-25T09:33:58.000Z</time>
      </trkpt>
      <trkpt lat="44.63284" lon="5.19855">
        <ele>1325</ele>
        <time>2026-05-25T09:33:59.000Z</time>
      </trkpt>
      <trkpt lat="44.63284" lon="5.19854">
        <ele>1326</ele>
        <time>2026-05-25T09:34:00.000Z</time>
      </trkpt>
      <trkpt lat="44.63284" lon="5.19853">
        <ele>1326</ele>
        <time>2026-05-25T09:34:01.000Z</time>
      </trkpt>
      <trkpt lat="44.63284" lon="5.19852">
        <ele>1326</ele>
        <time>2026-05-25T09:34:02.000Z</time>
      </trkpt>
      <trkpt lat="44.63284" lon="5.19851">
        <ele>1325</ele>
        <time>2026-05-25T09:34:03.000Z</time>
      </trkpt>
      <trkpt lat="44.63284" lon="5.1985">
        <ele>1324</ele>
        <time>2026-05-25T09:34:04.000Z</time>
      </trkpt>
      <trkpt lat="44.63283" lon="5.1985">
        <ele>1324</ele>
        <time>2026-05-25T09:34:05.000Z</time>
      </trkpt>
      <trkpt lat="44.63284" lon="5.19849">
        <ele>1325</ele>
        <time>2026-05-25T09:34:06.000Z</time>
      </trkpt>
      <trkpt lat="44.63284" lon="5.19849">
        <ele>1326</ele>
        <time>2026-05-25T09:34:07.000Z</time>
      </trkpt>
      <trkpt lat="44.63283" lon="5.19847">
        <ele>1327</ele>
        <time>2026-05-25T09:34:08.000Z</time>
      </trkpt>
      <trkpt lat="44.63283" lon="5.19846">
        <ele>1326</ele>
        <time>2026-05-25T09:34:09.000Z</time>
      </trkpt>
      <trkpt lat="44.63283" lon="5.19844">
        <ele>1328</ele>
        <time>2026-05-25T09:34:10.000Z</time>
      </trkpt>
      <trkpt lat="44.63282" lon="5.19842">
        <ele>1327</ele>
        <time>2026-05-25T09:34:11.000Z</time>
      </trkpt>
      <trkpt lat="44.63282" lon="5.19841">
        <ele>1327</ele>
        <time>2026-05-25T09:34:12.000Z</time>
      </trkpt>
      <trkpt lat="44.63283" lon="5.19839">
        <ele>1329</ele>
        <time>2026-05-25T09:34:13.000Z</time>
      </trkpt>
      <trkpt lat="44.63284" lon="5.19838">
        <ele>1328</ele>
        <time>2026-05-25T09:34:14.000Z</time>
      </trkpt>
      <trkpt lat="44.63283" lon="5.19837">
        <ele>1328</ele>
        <time>2026-05-25T09:34:15.000Z</time>
      </trkpt>
      <trkpt lat="44.63283" lon="5.19836">
        <ele>1329</ele>
        <time>2026-05-25T09:34:16.000Z</time>
      </trkpt>
      <trkpt lat="44.63283" lon="5.19836">
        <ele>1329</ele>
        <time>2026-05-25T09:34:17.000Z</time>
      </trkpt>
      <trkpt lat="44.63283" lon="5.19836">
        <ele>1329</ele>
        <time>2026-05-25T09:34:18.000Z</time>
      </trkpt>
      <trkpt lat="44.63283" lon="5.19836">
        <ele>1328</ele>
        <time>2026-05-25T09:34:19.000Z</time>
      </trkpt>
      <trkpt lat="44.63282" lon="5.19836">
        <ele>1329</ele>
        <time>2026-05-25T09:34:20.000Z</time>
      </trkpt>
      <trkpt lat="44.63283" lon="5.19835">
        <ele>1329</ele>
        <time>2026-05-25T09:34:21.000Z</time>
      </trkpt>
      <trkpt lat="44.63283" lon="5.19834">
        <ele>1329</ele>
        <time>2026-05-25T09:34:22.000Z</time>
      </trkpt>
      <trkpt lat="44.63283" lon="5.19834">
        <ele>1329</ele>
        <time>2026-05-25T09:34:23.000Z</time>
      </trkpt>
      <trkpt lat="44.63285" lon="5.19832">
        <ele>1329</ele>
        <time>2026-05-25T09:34:24.000Z</time>
      </trkpt>
      <trkpt lat="44.63286" lon="5.19831">
        <ele>1330</ele>
        <time>2026-05-25T09:34:25.000Z</time>
      </trkpt>
      <trkpt lat="44.63287" lon="5.1983">
        <ele>1330</ele>
        <time>2026-05-25T09:34:26.000Z</time>
      </trkpt>
      <trkpt lat="44.63288" lon="5.1983">
        <ele>1330</ele>
        <time>2026-05-25T09:34:27.000Z</time>
      </trkpt>
      <trkpt lat="44.63288" lon="5.1983">
        <ele>1330</ele>
        <time>2026-05-25T09:34:28.000Z</time>
      </trkpt>
      <trkpt lat="44.63289" lon="5.1983">
        <ele>1330</ele>
        <time>2026-05-25T09:34:29.000Z</time>
      </trkpt>
      <trkpt lat="44.63289" lon="5.19829">
        <ele>1330</ele>
        <time>2026-05-25T09:34:30.000Z</time>
      </trkpt>
      <trkpt lat="44.63289" lon="5.19828">
        <ele>1330</ele>
        <time>2026-05-25T09:34:31.000Z</time>
      </trkpt>
      <trkpt lat="44.63289" lon="5.19827">
        <ele>1330</ele>
        <time>2026-05-25T09:34:32.000Z</time>
      </trkpt>
      <trkpt lat="44.63289" lon="5.19827">
        <ele>1330</ele>
        <time>2026-05-25T09:34:33.000Z</time>
      </trkpt>
      <trkpt lat="44.6329" lon="5.19826">
        <ele>1329</ele>
        <time>2026-05-25T09:34:34.000Z</time>
      </trkpt>
      <trkpt lat="44.6329" lon="5.19826">
        <ele>1329</ele>
        <time>2026-05-25T09:34:35.000Z</time>
      </trkpt>
      <trkpt lat="44.6329" lon="5.19826">
        <ele>1329</ele>
        <time>2026-05-25T09:34:36.000Z</time>
      </trkpt>
      <trkpt lat="44.6329" lon="5.19823">
        <ele>1331</ele>
        <time>2026-05-25T09:34:37.000Z</time>
      </trkpt>
      <trkpt lat="44.6329" lon="5.19822">
        <ele>1332</ele>
        <time>2026-05-25T09:34:38.000Z</time>
      </trkpt>
      <trkpt lat="44.6329" lon="5.19822">
        <ele>1331</ele>
        <time>2026-05-25T09:34:39.000Z</time>
      </trkpt>
      <trkpt lat="44.63289" lon="5.1982">
        <ele>1332</ele>
        <time>2026-05-25T09:34:40.000Z</time>
      </trkpt>
      <trkpt lat="44.63289" lon="5.1982">
        <ele>1332</ele>
        <time>2026-05-25T09:34:41.000Z</time>
      </trkpt>
      <trkpt lat="44.63289" lon="5.1982">
        <ele>1332</ele>
        <time>2026-05-25T09:34:42.000Z</time>
      </trkpt>
      <trkpt lat="44.63292" lon="5.19819">
        <ele>1332</ele>
        <time>2026-05-25T09:34:43.000Z</time>
      </trkpt>
      <trkpt lat="44.63292" lon="5.19818">
        <ele>1333</ele>
        <time>2026-05-25T09:34:44.000Z</time>
      </trkpt>
      <trkpt lat="44.63292" lon="5.19817">
        <ele>1333</ele>
        <time>2026-05-25T09:34:45.000Z</time>
      </trkpt>
      <trkpt lat="44.63293" lon="5.19817">
        <ele>1332</ele>
        <time>2026-05-25T09:34:46.000Z</time>
      </trkpt>
      <trkpt lat="44.63293" lon="5.19816">
        <ele>1331</ele>
        <time>2026-05-25T09:34:47.000Z</time>
      </trkpt>
      <trkpt lat="44.63294" lon="5.19816">
        <ele>1332</ele>
        <time>2026-05-25T09:34:48.000Z</time>
      </trkpt>
      <trkpt lat="44.63295" lon="5.19815">
        <ele>1333</ele>
        <time>2026-05-25T09:34:49.000Z</time>
      </trkpt>
      <trkpt lat="44.63295" lon="5.19815">
        <ele>1333</ele>
        <time>2026-05-25T09:34:50.000Z</time>
      </trkpt>
      <trkpt lat="44.63295" lon="5.19815">
        <ele>1334</ele>
        <time>2026-05-25T09:34:51.000Z</time>
      </trkpt>
      <trkpt lat="44.63295" lon="5.19815">
        <ele>1334</ele>
        <time>2026-05-25T09:34:52.000Z</time>
      </trkpt>
      <trkpt lat="44.63295" lon="5.19815">
        <ele>1334</ele>
        <time>2026-05-25T09:34:53.000Z</time>
      </trkpt>
      <trkpt lat="44.63295" lon="5.19815">
        <ele>1334</ele>
        <time>2026-05-25T09:34:54.000Z</time>
      </trkpt>
      <trkpt lat="44.63295" lon="5.19815">
        <ele>1334</ele>
        <time>2026-05-25T09:34:55.000Z</time>
      </trkpt>
      <trkpt lat="44.63296" lon="5.19814">
        <ele>1336</ele>
        <time>2026-05-25T09:34:56.000Z</time>
      </trkpt>
      <trkpt lat="44.63296" lon="5.19813">
        <ele>1337</ele>
        <time>2026-05-25T09:34:57.000Z</time>
      </trkpt>
      <trkpt lat="44.63296" lon="5.19813">
        <ele>1336</ele>
        <time>2026-05-25T09:34:58.000Z</time>
      </trkpt>
      <trkpt lat="44.63295" lon="5.19813">
        <ele>1337</ele>
        <time>2026-05-25T09:34:59.000Z</time>
      </trkpt>
      <trkpt lat="44.63296" lon="5.19812">
        <ele>1337</ele>
        <time>2026-05-25T09:35:00.000Z</time>
      </trkpt>
      <trkpt lat="44.63296" lon="5.19811">
        <ele>1338</ele>
        <time>2026-05-25T09:35:01.000Z</time>
      </trkpt>
      <trkpt lat="44.63297" lon="5.19811">
        <ele>1338</ele>
        <time>2026-05-25T09:35:02.000Z</time>
      </trkpt>
      <trkpt lat="44.63298" lon="5.1981">
        <ele>1338</ele>
        <time>2026-05-25T09:35:03.000Z</time>
      </trkpt>
      <trkpt lat="44.63298" lon="5.1981">
        <ele>1338</ele>
        <time>2026-05-25T09:35:04.000Z</time>
      </trkpt>
      <trkpt lat="44.63297" lon="5.1981">
        <ele>1338</ele>
        <time>2026-05-25T09:35:05.000Z</time>
      </trkpt>
      <trkpt lat="44.63297" lon="5.19811">
        <ele>1339</ele>
        <time>2026-05-25T09:35:06.000Z</time>
      </trkpt>
      <trkpt lat="44.63297" lon="5.19811">
        <ele>1340</ele>
        <time>2026-05-25T09:35:07.000Z</time>
      </trkpt>
      <trkpt lat="44.63297" lon="5.19811">
        <ele>1339</ele>
        <time>2026-05-25T09:35:08.000Z</time>
      </trkpt>
      <trkpt lat="44.63297" lon="5.19811">
        <ele>1339</ele>
        <time>2026-05-25T09:35:09.000Z</time>
      </trkpt>
      <trkpt lat="44.63297" lon="5.19811">
        <ele>1339</ele>
        <time>2026-05-25T09:35:10.000Z</time>
      </trkpt>
      <trkpt lat="44.63298" lon="5.1981">
        <ele>1340</ele>
        <time>2026-05-25T09:35:11.000Z</time>
      </trkpt>
      <trkpt lat="44.63298" lon="5.19808">
        <ele>1340</ele>
        <time>2026-05-25T09:35:12.000Z</time>
      </trkpt>
      <trkpt lat="44.63298" lon="5.19807">
        <ele>1340</ele>
        <time>2026-05-25T09:35:13.000Z</time>
      </trkpt>
      <trkpt lat="44.63299" lon="5.19807">
        <ele>1341</ele>
        <time>2026-05-25T09:35:14.000Z</time>
      </trkpt>
      <trkpt lat="44.63299" lon="5.19807">
        <ele>1341</ele>
        <time>2026-05-25T09:35:15.000Z</time>
      </trkpt>
      <trkpt lat="44.63299" lon="5.19807">
        <ele>1341</ele>
        <time>2026-05-25T09:35:16.000Z</time>
      </trkpt>
      <trkpt lat="44.63299" lon="5.19808">
        <ele>1341</ele>
        <time>2026-05-25T09:35:17.000Z</time>
      </trkpt>
      <trkpt lat="44.633" lon="5.19808">
        <ele>1341</ele>
        <time>2026-05-25T09:35:18.000Z</time>
      </trkpt>
      <trkpt lat="44.633" lon="5.19807">
        <ele>1342</ele>
        <time>2026-05-25T09:35:19.000Z</time>
      </trkpt>
      <trkpt lat="44.63301" lon="5.19807">
        <ele>1342</ele>
        <time>2026-05-25T09:35:20.000Z</time>
      </trkpt>
      <trkpt lat="44.63302" lon="5.19807">
        <ele>1343</ele>
        <time>2026-05-25T09:35:21.000Z</time>
      </trkpt>
      <trkpt lat="44.63302" lon="5.19807">
        <ele>1343</ele>
        <time>2026-05-25T09:35:22.000Z</time>
      </trkpt>
      <trkpt lat="44.63302" lon="5.19807">
        <ele>1343</ele>
        <time>2026-05-25T09:35:23.000Z</time>
      </trkpt>
      <trkpt lat="44.63302" lon="5.19807">
        <ele>1343</ele>
        <time>2026-05-25T09:35:24.000Z</time>
      </trkpt>
      <trkpt lat="44.63302" lon="5.19807">
        <ele>1343</ele>
        <time>2026-05-25T09:35:25.000Z</time>
      </trkpt>
      <trkpt lat="44.63302" lon="5.19807">
        <ele>1343</ele>
        <time>2026-05-25T09:35:26.000Z</time>
      </trkpt>
      <trkpt lat="44.63302" lon="5.19807">
        <ele>1343</ele>
        <time>2026-05-25T09:35:27.000Z</time>
      </trkpt>
      <trkpt lat="44.63303" lon="5.19802">
        <ele>1344</ele>
        <time>2026-05-25T09:35:28.000Z</time>
      </trkpt>
      <trkpt lat="44.63303" lon="5.19801">
        <ele>1344</ele>
        <time>2026-05-25T09:35:29.000Z</time>
      </trkpt>
      <trkpt lat="44.63303" lon="5.198">
        <ele>1344</ele>
        <time>2026-05-25T09:35:30.000Z</time>
      </trkpt>
      <trkpt lat="44.63303" lon="5.19798">
        <ele>1343</ele>
        <time>2026-05-25T09:35:31.000Z</time>
      </trkpt>
      <trkpt lat="44.63304" lon="5.19798">
        <ele>1343</ele>
        <time>2026-05-25T09:35:32.000Z</time>
      </trkpt>
      <trkpt lat="44.63304" lon="5.19798">
        <ele>1341</ele>
        <time>2026-05-25T09:35:33.000Z</time>
      </trkpt>
      <trkpt lat="44.63305" lon="5.19798">
        <ele>1340</ele>
        <time>2026-05-25T09:35:34.000Z</time>
      </trkpt>
      <trkpt lat="44.63305" lon="5.19798">
        <ele>1340</ele>
        <time>2026-05-25T09:35:35.000Z</time>
      </trkpt>
      <trkpt lat="44.63305" lon="5.19798">
        <ele>1339</ele>
        <time>2026-05-25T09:35:36.000Z</time>
      </trkpt>
      <trkpt lat="44.63305" lon="5.19798">
        <ele>1342</ele>
        <time>2026-05-25T09:35:37.000Z</time>
      </trkpt>
      <trkpt lat="44.63306" lon="5.19798">
        <ele>1342</ele>
        <time>2026-05-25T09:35:38.000Z</time>
      </trkpt>
      <trkpt lat="44.63306" lon="5.19797">
        <ele>1343</ele>
        <time>2026-05-25T09:35:39.000Z</time>
      </trkpt>
      <trkpt lat="44.63306" lon="5.19797">
        <ele>1343</ele>
        <time>2026-05-25T09:35:40.000Z</time>
      </trkpt>
      <trkpt lat="44.63306" lon="5.19797">
        <ele>1343</ele>
        <time>2026-05-25T09:35:41.000Z</time>
      </trkpt>
      <trkpt lat="44.63306" lon="5.19797">
        <ele>1343</ele>
        <time>2026-05-25T09:35:42.000Z</time>
      </trkpt>
      <trkpt lat="44.63307" lon="5.19795">
        <ele>1344</ele>
        <time>2026-05-25T09:35:43.000Z</time>
      </trkpt>
      <trkpt lat="44.63308" lon="5.19795">
        <ele>1345</ele>
        <time>2026-05-25T09:35:44.000Z</time>
      </trkpt>
      <trkpt lat="44.63308" lon="5.19793">
        <ele>1345</ele>
        <time>2026-05-25T09:35:45.000Z</time>
      </trkpt>
      <trkpt lat="44.63309" lon="5.19792">
        <ele>1347</ele>
        <time>2026-05-25T09:35:46.000Z</time>
      </trkpt>
      <trkpt lat="44.6331" lon="5.19792">
        <ele>1346</ele>
        <time>2026-05-25T09:35:47.000Z</time>
      </trkpt>
      <trkpt lat="44.63309" lon="5.19793">
        <ele>1347</ele>
        <time>2026-05-25T09:35:48.000Z</time>
      </trkpt>
      <trkpt lat="44.63309" lon="5.19793">
        <ele>1346</ele>
        <time>2026-05-25T09:35:49.000Z</time>
      </trkpt>
      <trkpt lat="44.63308" lon="5.19793">
        <ele>1346</ele>
        <time>2026-05-25T09:35:50.000Z</time>
      </trkpt>
      <trkpt lat="44.63308" lon="5.19791">
        <ele>1345</ele>
        <time>2026-05-25T09:35:51.000Z</time>
      </trkpt>
      <trkpt lat="44.63308" lon="5.19791">
        <ele>1346</ele>
        <time>2026-05-25T09:35:52.000Z</time>
      </trkpt>
      <trkpt lat="44.63308" lon="5.19791">
        <ele>1346</ele>
        <time>2026-05-25T09:35:53.000Z</time>
      </trkpt>
      <trkpt lat="44.63308" lon="5.19791">
        <ele>1346</ele>
        <time>2026-05-25T09:35:54.000Z</time>
      </trkpt>
      <trkpt lat="44.63308" lon="5.19791">
        <ele>1346</ele>
        <time>2026-05-25T09:35:55.000Z</time>
      </trkpt>
      <trkpt lat="44.63308" lon="5.19791">
        <ele>1346</ele>
        <time>2026-05-25T09:35:56.000Z</time>
      </trkpt>
      <trkpt lat="44.63308" lon="5.19791">
        <ele>1347</ele>
        <time>2026-05-25T09:35:57.000Z</time>
      </trkpt>
      <trkpt lat="44.63309" lon="5.1979">
        <ele>1348</ele>
        <time>2026-05-25T09:35:58.000Z</time>
      </trkpt>
      <trkpt lat="44.63308" lon="5.1979">
        <ele>1347</ele>
        <time>2026-05-25T09:35:59.000Z</time>
      </trkpt>
      <trkpt lat="44.63309" lon="5.1979">
        <ele>1348</ele>
        <time>2026-05-25T09:36:00.000Z</time>
      </trkpt>
      <trkpt lat="44.63309" lon="5.19788">
        <ele>1348</ele>
        <time>2026-05-25T09:36:01.000Z</time>
      </trkpt>
      <trkpt lat="44.63309" lon="5.19788">
        <ele>1348</ele>
        <time>2026-05-25T09:36:02.000Z</time>
      </trkpt>
      <trkpt lat="44.63309" lon="5.19788">
        <ele>1348</ele>
        <time>2026-05-25T09:36:03.000Z</time>
      </trkpt>
      <trkpt lat="44.63309" lon="5.19788">
        <ele>1348</ele>
        <time>2026-05-25T09:36:04.000Z</time>
      </trkpt>
      <trkpt lat="44.63309" lon="5.19788">
        <ele>1348</ele>
        <time>2026-05-25T09:36:05.000Z</time>
      </trkpt>
      <trkpt lat="44.63309" lon="5.19788">
        <ele>1348</ele>
        <time>2026-05-25T09:36:06.000Z</time>
      </trkpt>
      <trkpt lat="44.63309" lon="5.19788">
        <ele>1348</ele>
        <time>2026-05-25T09:36:07.000Z</time>
      </trkpt>
      <trkpt lat="44.63309" lon="5.19788">
        <ele>1348</ele>
        <time>2026-05-25T09:36:08.000Z</time>
      </trkpt>
      <trkpt lat="44.63309" lon="5.19788">
        <ele>1348</ele>
        <time>2026-05-25T09:36:09.000Z</time>
      </trkpt>
      <trkpt lat="44.63309" lon="5.19788">
        <ele>1348</ele>
        <time>2026-05-25T09:36:10.000Z</time>
      </trkpt>
      <trkpt lat="44.63309" lon="5.19788">
        <ele>1348</ele>
        <time>2026-05-25T09:36:11.000Z</time>
      </trkpt>
      <trkpt lat="44.63309" lon="5.19788">
        <ele>1348</ele>
        <time>2026-05-25T09:36:12.000Z</time>
      </trkpt>
      <trkpt lat="44.63309" lon="5.19788">
        <ele>1348</ele>
        <time>2026-05-25T09:36:13.000Z</time>
      </trkpt>
      <trkpt lat="44.6331" lon="5.19786">
        <ele>1347</ele>
        <time>2026-05-25T09:36:14.000Z</time>
      </trkpt>
      <trkpt lat="44.6331" lon="5.19787">
        <ele>1348</ele>
        <time>2026-05-25T09:36:15.000Z</time>
      </trkpt>
      <trkpt lat="44.63311" lon="5.19786">
        <ele>1349</ele>
        <time>2026-05-25T09:36:16.000Z</time>
      </trkpt>
      <trkpt lat="44.63312" lon="5.19786">
        <ele>1350</ele>
        <time>2026-05-25T09:36:17.000Z</time>
      </trkpt>
      <trkpt lat="44.63312" lon="5.19787">
        <ele>1350</ele>
        <time>2026-05-25T09:36:18.000Z</time>
      </trkpt>
      <trkpt lat="44.63312" lon="5.19787">
        <ele>1350</ele>
        <time>2026-05-25T09:36:19.000Z</time>
      </trkpt>
      <trkpt lat="44.63312" lon="5.19787">
        <ele>1350</ele>
        <time>2026-05-25T09:36:20.000Z</time>
      </trkpt>
      <trkpt lat="44.63314" lon="5.19787">
        <ele>1349</ele>
        <time>2026-05-25T09:36:21.000Z</time>
      </trkpt>
      <trkpt lat="44.63314" lon="5.19786">
        <ele>1349</ele>
        <time>2026-05-25T09:36:22.000Z</time>
      </trkpt>
      <trkpt lat="44.63314" lon="5.19785">
        <ele>1348</ele>
        <time>2026-05-25T09:36:23.000Z</time>
      </trkpt>
      <trkpt lat="44.63315" lon="5.19785">
        <ele>1347</ele>
        <time>2026-05-25T09:36:24.000Z</time>
      </trkpt>
      <trkpt lat="44.63315" lon="5.19785">
        <ele>1347</ele>
        <time>2026-05-25T09:36:25.000Z</time>
      </trkpt>
      <trkpt lat="44.63315" lon="5.19785">
        <ele>1347</ele>
        <time>2026-05-25T09:36:26.000Z</time>
      </trkpt>
      <trkpt lat="44.63315" lon="5.19785">
        <ele>1347</ele>
        <time>2026-05-25T09:36:27.000Z</time>
      </trkpt>
      <trkpt lat="44.63315" lon="5.19785">
        <ele>1347</ele>
        <time>2026-05-25T09:36:28.000Z</time>
      </trkpt>
      <trkpt lat="44.63317" lon="5.19783">
        <ele>1348</ele>
        <time>2026-05-25T09:36:29.000Z</time>
      </trkpt>
      <trkpt lat="44.63317" lon="5.19782">
        <ele>1347</ele>
        <time>2026-05-25T09:36:30.000Z</time>
      </trkpt>
      <trkpt lat="44.63317" lon="5.19781">
        <ele>1348</ele>
        <time>2026-05-25T09:36:31.000Z</time>
      </trkpt>
      <trkpt lat="44.63317" lon="5.1978">
        <ele>1349</ele>
        <time>2026-05-25T09:36:32.000Z</time>
      </trkpt>
      <trkpt lat="44.63318" lon="5.1978">
        <ele>1351</ele>
        <time>2026-05-25T09:36:33.000Z</time>
      </trkpt>
      <trkpt lat="44.63318" lon="5.19779">
        <ele>1351</ele>
        <time>2026-05-25T09:36:34.000Z</time>
      </trkpt>
      <trkpt lat="44.63319" lon="5.19779">
        <ele>1352</ele>
        <time>2026-05-25T09:36:35.000Z</time>
      </trkpt>
      <trkpt lat="44.6332" lon="5.1978">
        <ele>1353</ele>
        <time>2026-05-25T09:36:36.000Z</time>
      </trkpt>
      <trkpt lat="44.6332" lon="5.19779">
        <ele>1354</ele>
        <time>2026-05-25T09:36:37.000Z</time>
      </trkpt>
      <trkpt lat="44.63322" lon="5.19779">
        <ele>1354</ele>
        <time>2026-05-25T09:36:38.000Z</time>
      </trkpt>
      <trkpt lat="44.63322" lon="5.19779">
        <ele>1355</ele>
        <time>2026-05-25T09:36:39.000Z</time>
      </trkpt>
      <trkpt lat="44.63322" lon="5.19779">
        <ele>1355</ele>
        <time>2026-05-25T09:36:40.000Z</time>
      </trkpt>
      <trkpt lat="44.63323" lon="5.19779">
        <ele>1355</ele>
        <time>2026-05-25T09:36:41.000Z</time>
      </trkpt>
      <trkpt lat="44.63322" lon="5.19778">
        <ele>1353</ele>
        <time>2026-05-25T09:36:42.000Z</time>
      </trkpt>
      <trkpt lat="44.63322" lon="5.19778">
        <ele>1353</ele>
        <time>2026-05-25T09:36:43.000Z</time>
      </trkpt>
      <trkpt lat="44.63322" lon="5.19778">
        <ele>1353</ele>
        <time>2026-05-25T09:36:44.000Z</time>
      </trkpt>
      <trkpt lat="44.63323" lon="5.19774">
        <ele>1353</ele>
        <time>2026-05-25T09:36:45.000Z</time>
      </trkpt>
      <trkpt lat="44.63322" lon="5.19773">
        <ele>1353</ele>
        <time>2026-05-25T09:36:46.000Z</time>
      </trkpt>
      <trkpt lat="44.63322" lon="5.19773">
        <ele>1353</ele>
        <time>2026-05-25T09:36:47.000Z</time>
      </trkpt>
      <trkpt lat="44.63323" lon="5.19772">
        <ele>1354</ele>
        <time>2026-05-25T09:36:48.000Z</time>
      </trkpt>
      <trkpt lat="44.63323" lon="5.19772">
        <ele>1354</ele>
        <time>2026-05-25T09:36:49.000Z</time>
      </trkpt>
      <trkpt lat="44.63323" lon="5.19772">
        <ele>1354</ele>
        <time>2026-05-25T09:36:50.000Z</time>
      </trkpt>
      <trkpt lat="44.63323" lon="5.19772">
        <ele>1354</ele>
        <time>2026-05-25T09:36:51.000Z</time>
      </trkpt>
      <trkpt lat="44.63324" lon="5.19768">
        <ele>1353</ele>
        <time>2026-05-25T09:36:52.000Z</time>
      </trkpt>
      <trkpt lat="44.63324" lon="5.19767">
        <ele>1354</ele>
        <time>2026-05-25T09:36:53.000Z</time>
      </trkpt>
      <trkpt lat="44.63324" lon="5.19767">
        <ele>1353</ele>
        <time>2026-05-25T09:36:54.000Z</time>
      </trkpt>
      <trkpt lat="44.63324" lon="5.19766">
        <ele>1352</ele>
        <time>2026-05-25T09:36:55.000Z</time>
      </trkpt>
      <trkpt lat="44.63324" lon="5.19764">
        <ele>1351</ele>
        <time>2026-05-25T09:36:56.000Z</time>
      </trkpt>
      <trkpt lat="44.63323" lon="5.19765">
        <ele>1353</ele>
        <time>2026-05-25T09:36:57.000Z</time>
      </trkpt>
      <trkpt lat="44.63324" lon="5.19764">
        <ele>1353</ele>
        <time>2026-05-25T09:36:58.000Z</time>
      </trkpt>
      <trkpt lat="44.63324" lon="5.19764">
        <ele>1353</ele>
        <time>2026-05-25T09:36:59.000Z</time>
      </trkpt>
      <trkpt lat="44.63324" lon="5.19764">
        <ele>1353</ele>
        <time>2026-05-25T09:37:00.000Z</time>
      </trkpt>
      <trkpt lat="44.63324" lon="5.19764">
        <ele>1353</ele>
        <time>2026-05-25T09:37:01.000Z</time>
      </trkpt>
      <trkpt lat="44.63324" lon="5.19764">
        <ele>1353</ele>
        <time>2026-05-25T09:37:02.000Z</time>
      </trkpt>
      <trkpt lat="44.63324" lon="5.19764">
        <ele>1353</ele>
        <time>2026-05-25T09:37:03.000Z</time>
      </trkpt>
      <trkpt lat="44.63324" lon="5.19764">
        <ele>1353</ele>
        <time>2026-05-25T09:37:04.000Z</time>
      </trkpt>
      <trkpt lat="44.63324" lon="5.19764">
        <ele>1353</ele>
        <time>2026-05-25T09:37:05.000Z</time>
      </trkpt>
      <trkpt lat="44.63324" lon="5.19764">
        <ele>1353</ele>
        <time>2026-05-25T09:37:06.000Z</time>
      </trkpt>
      <trkpt lat="44.63324" lon="5.19764">
        <ele>1353</ele>
        <time>2026-05-25T09:37:07.000Z</time>
      </trkpt>
      <trkpt lat="44.63324" lon="5.19764">
        <ele>1353</ele>
        <time>2026-05-25T09:37:08.000Z</time>
      </trkpt>
      <trkpt lat="44.63325" lon="5.19763">
        <ele>1355</ele>
        <time>2026-05-25T09:37:09.000Z</time>
      </trkpt>
      <trkpt lat="44.63326" lon="5.19763">
        <ele>1356</ele>
        <time>2026-05-25T09:37:10.000Z</time>
      </trkpt>
      <trkpt lat="44.63326" lon="5.19761">
        <ele>1356</ele>
        <time>2026-05-25T09:37:11.000Z</time>
      </trkpt>
      <trkpt lat="44.63327" lon="5.1976">
        <ele>1357</ele>
        <time>2026-05-25T09:37:12.000Z</time>
      </trkpt>
      <trkpt lat="44.63326" lon="5.1976">
        <ele>1357</ele>
        <time>2026-05-25T09:37:13.000Z</time>
      </trkpt>
      <trkpt lat="44.63325" lon="5.19759">
        <ele>1357</ele>
        <time>2026-05-25T09:37:14.000Z</time>
      </trkpt>
      <trkpt lat="44.63325" lon="5.19759">
        <ele>1357</ele>
        <time>2026-05-25T09:37:15.000Z</time>
      </trkpt>
      <trkpt lat="44.63325" lon="5.19758">
        <ele>1357</ele>
        <time>2026-05-25T09:37:16.000Z</time>
      </trkpt>
      <trkpt lat="44.63324" lon="5.19756">
        <ele>1358</ele>
        <time>2026-05-25T09:37:17.000Z</time>
      </trkpt>
      <trkpt lat="44.63324" lon="5.19756">
        <ele>1359</ele>
        <time>2026-05-25T09:37:18.000Z</time>
      </trkpt>
      <trkpt lat="44.63325" lon="5.19756">
        <ele>1360</ele>
        <time>2026-05-25T09:37:19.000Z</time>
      </trkpt>
      <trkpt lat="44.63324" lon="5.19755">
        <ele>1359</ele>
        <time>2026-05-25T09:37:20.000Z</time>
      </trkpt>
      <trkpt lat="44.63324" lon="5.19754">
        <ele>1359</ele>
        <time>2026-05-25T09:37:21.000Z</time>
      </trkpt>
      <trkpt lat="44.63325" lon="5.19754">
        <ele>1358</ele>
        <time>2026-05-25T09:37:22.000Z</time>
      </trkpt>
      <trkpt lat="44.63325" lon="5.19754">
        <ele>1358</ele>
        <time>2026-05-25T09:37:23.000Z</time>
      </trkpt>
      <trkpt lat="44.63325" lon="5.19754">
        <ele>1358</ele>
        <time>2026-05-25T09:37:24.000Z</time>
      </trkpt>
      <trkpt lat="44.63324" lon="5.19755">
        <ele>1356</ele>
        <time>2026-05-25T09:37:25.000Z</time>
      </trkpt>
      <trkpt lat="44.63324" lon="5.19755">
        <ele>1356</ele>
        <time>2026-05-25T09:37:26.000Z</time>
      </trkpt>
      <trkpt lat="44.63324" lon="5.19755">
        <ele>1356</ele>
        <time>2026-05-25T09:37:27.000Z</time>
      </trkpt>
      <trkpt lat="44.63324" lon="5.19755">
        <ele>1356</ele>
        <time>2026-05-25T09:37:28.000Z</time>
      </trkpt>
      <trkpt lat="44.63324" lon="5.19755">
        <ele>1356</ele>
        <time>2026-05-25T09:37:29.000Z</time>
      </trkpt>
      <trkpt lat="44.63324" lon="5.19755">
        <ele>1356</ele>
        <time>2026-05-25T09:37:30.000Z</time>
      </trkpt>
      <trkpt lat="44.63324" lon="5.19755">
        <ele>1356</ele>
        <time>2026-05-25T09:37:31.000Z</time>
      </trkpt>
      <trkpt lat="44.63324" lon="5.19755">
        <ele>1356</ele>
        <time>2026-05-25T09:37:32.000Z</time>
      </trkpt>
      <trkpt lat="44.63324" lon="5.19755">
        <ele>1356</ele>
        <time>2026-05-25T09:37:33.000Z</time>
      </trkpt>
      <trkpt lat="44.63324" lon="5.19755">
        <ele>1356</ele>
        <time>2026-05-25T09:37:34.000Z</time>
      </trkpt>
      <trkpt lat="44.63324" lon="5.19755">
        <ele>1356</ele>
        <time>2026-05-25T09:37:35.000Z</time>
      </trkpt>
      <trkpt lat="44.63324" lon="5.19755">
        <ele>1356</ele>
        <time>2026-05-25T09:37:36.000Z</time>
      </trkpt>
      <trkpt lat="44.63324" lon="5.19755">
        <ele>1356</ele>
        <time>2026-05-25T09:37:37.000Z</time>
      </trkpt>
      <trkpt lat="44.63324" lon="5.19755">
        <ele>1356</ele>
        <time>2026-05-25T09:37:38.000Z</time>
      </trkpt>
      <trkpt lat="44.63324" lon="5.19755">
        <ele>1356</ele>
        <time>2026-05-25T09:37:39.000Z</time>
      </trkpt>
      <trkpt lat="44.63324" lon="5.19755">
        <ele>1356</ele>
        <time>2026-05-25T09:37:40.000Z</time>
      </trkpt>
      <trkpt lat="44.63324" lon="5.19755">
        <ele>1356</ele>
        <time>2026-05-25T09:37:41.000Z</time>
      </trkpt>
      <trkpt lat="44.63324" lon="5.19755">
        <ele>1356</ele>
        <time>2026-05-25T09:37:42.000Z</time>
      </trkpt>
      <trkpt lat="44.63324" lon="5.19755">
        <ele>1356</ele>
        <time>2026-05-25T09:37:43.000Z</time>
      </trkpt>
      <trkpt lat="44.63324" lon="5.19755">
        <ele>1356</ele>
        <time>2026-05-25T09:37:44.000Z</time>
      </trkpt>
      <trkpt lat="44.63324" lon="5.19755">
        <ele>1356</ele>
        <time>2026-05-25T09:37:45.000Z</time>
      </trkpt>
      <trkpt lat="44.63324" lon="5.19755">
        <ele>1356</ele>
        <time>2026-05-25T09:37:46.000Z</time>
      </trkpt>
      <trkpt lat="44.63324" lon="5.19755">
        <ele>1356</ele>
        <time>2026-05-25T09:37:47.000Z</time>
      </trkpt>
      <trkpt lat="44.63324" lon="5.19752">
        <ele>1352</ele>
        <time>2026-05-25T09:37:48.000Z</time>
      </trkpt>
      <trkpt lat="44.63324" lon="5.19752">
        <ele>1351</ele>
        <time>2026-05-25T09:37:49.000Z</time>
      </trkpt>
      <trkpt lat="44.63325" lon="5.19751">
        <ele>1352</ele>
        <time>2026-05-25T09:37:50.000Z</time>
      </trkpt>
      <trkpt lat="44.63325" lon="5.19751">
        <ele>1353</ele>
        <time>2026-05-25T09:37:51.000Z</time>
      </trkpt>
      <trkpt lat="44.63325" lon="5.19751">
        <ele>1353</ele>
        <time>2026-05-25T09:37:52.000Z</time>
      </trkpt>
      <trkpt lat="44.63325" lon="5.19751">
        <ele>1353</ele>
        <time>2026-05-25T09:37:53.000Z</time>
      </trkpt>
      <trkpt lat="44.63326" lon="5.19749">
        <ele>1353</ele>
        <time>2026-05-25T09:37:54.000Z</time>
      </trkpt>
      <trkpt lat="44.63326" lon="5.19748">
        <ele>1353</ele>
        <time>2026-05-25T09:37:55.000Z</time>
      </trkpt>
      <trkpt lat="44.63326" lon="5.19747">
        <ele>1353</ele>
        <time>2026-05-25T09:37:56.000Z</time>
      </trkpt>
      <trkpt lat="44.63326" lon="5.19746">
        <ele>1354</ele>
        <time>2026-05-25T09:37:57.000Z</time>
      </trkpt>
      <trkpt lat="44.63326" lon="5.19745">
        <ele>1354</ele>
        <time>2026-05-25T09:37:58.000Z</time>
      </trkpt>
      <trkpt lat="44.63326" lon="5.19744">
        <ele>1354</ele>
        <time>2026-05-25T09:37:59.000Z</time>
      </trkpt>
      <trkpt lat="44.63327" lon="5.19744">
        <ele>1354</ele>
        <time>2026-05-25T09:38:00.000Z</time>
      </trkpt>
      <trkpt lat="44.63327" lon="5.19742">
        <ele>1354</ele>
        <time>2026-05-25T09:38:01.000Z</time>
      </trkpt>
      <trkpt lat="44.63327" lon="5.19741">
        <ele>1354</ele>
        <time>2026-05-25T09:38:02.000Z</time>
      </trkpt>
      <trkpt lat="44.63327" lon="5.19739">
        <ele>1355</ele>
        <time>2026-05-25T09:38:03.000Z</time>
      </trkpt>
      <trkpt lat="44.63327" lon="5.19738">
        <ele>1355</ele>
        <time>2026-05-25T09:38:04.000Z</time>
      </trkpt>
      <trkpt lat="44.63327" lon="5.19738">
        <ele>1356</ele>
        <time>2026-05-25T09:38:05.000Z</time>
      </trkpt>
      <trkpt lat="44.63327" lon="5.19738">
        <ele>1356</ele>
        <time>2026-05-25T09:38:06.000Z</time>
      </trkpt>
      <trkpt lat="44.63328" lon="5.19738">
        <ele>1357</ele>
        <time>2026-05-25T09:38:07.000Z</time>
      </trkpt>
      <trkpt lat="44.63328" lon="5.19737">
        <ele>1356</ele>
        <time>2026-05-25T09:38:08.000Z</time>
      </trkpt>
      <trkpt lat="44.63328" lon="5.19736">
        <ele>1356</ele>
        <time>2026-05-25T09:38:09.000Z</time>
      </trkpt>
      <trkpt lat="44.63328" lon="5.19734">
        <ele>1356</ele>
        <time>2026-05-25T09:38:10.000Z</time>
      </trkpt>
      <trkpt lat="44.63328" lon="5.19733">
        <ele>1356</ele>
        <time>2026-05-25T09:38:11.000Z</time>
      </trkpt>
      <trkpt lat="44.63328" lon="5.19732">
        <ele>1355</ele>
        <time>2026-05-25T09:38:12.000Z</time>
      </trkpt>
      <trkpt lat="44.63328" lon="5.19731">
        <ele>1355</ele>
        <time>2026-05-25T09:38:13.000Z</time>
      </trkpt>
      <trkpt lat="44.63328" lon="5.19731">
        <ele>1356</ele>
        <time>2026-05-25T09:38:14.000Z</time>
      </trkpt>
      <trkpt lat="44.63329" lon="5.19731">
        <ele>1356</ele>
        <time>2026-05-25T09:38:15.000Z</time>
      </trkpt>
      <trkpt lat="44.6333" lon="5.1973">
        <ele>1356</ele>
        <time>2026-05-25T09:38:16.000Z</time>
      </trkpt>
      <trkpt lat="44.6333" lon="5.1973">
        <ele>1356</ele>
        <time>2026-05-25T09:38:17.000Z</time>
      </trkpt>
      <trkpt lat="44.63331" lon="5.1973">
        <ele>1358</ele>
        <time>2026-05-25T09:38:18.000Z</time>
      </trkpt>
      <trkpt lat="44.63332" lon="5.19729">
        <ele>1357</ele>
        <time>2026-05-25T09:38:19.000Z</time>
      </trkpt>
      <trkpt lat="44.63332" lon="5.19729">
        <ele>1358</ele>
        <time>2026-05-25T09:38:20.000Z</time>
      </trkpt>
      <trkpt lat="44.63331" lon="5.19729">
        <ele>1359</ele>
        <time>2026-05-25T09:38:21.000Z</time>
      </trkpt>
      <trkpt lat="44.6333" lon="5.19727">
        <ele>1359</ele>
        <time>2026-05-25T09:38:22.000Z</time>
      </trkpt>
      <trkpt lat="44.63331" lon="5.19727">
        <ele>1359</ele>
        <time>2026-05-25T09:38:23.000Z</time>
      </trkpt>
      <trkpt lat="44.63331" lon="5.19727">
        <ele>1359</ele>
        <time>2026-05-25T09:38:24.000Z</time>
      </trkpt>
      <trkpt lat="44.63331" lon="5.19727">
        <ele>1359</ele>
        <time>2026-05-25T09:38:25.000Z</time>
      </trkpt>
      <trkpt lat="44.63331" lon="5.19727">
        <ele>1359</ele>
        <time>2026-05-25T09:38:26.000Z</time>
      </trkpt>
      <trkpt lat="44.63332" lon="5.19727">
        <ele>1359</ele>
        <time>2026-05-25T09:38:27.000Z</time>
      </trkpt>
      <trkpt lat="44.63333" lon="5.19728">
        <ele>1360</ele>
        <time>2026-05-25T09:38:28.000Z</time>
      </trkpt>
      <trkpt lat="44.63333" lon="5.19728">
        <ele>1359</ele>
        <time>2026-05-25T09:38:29.000Z</time>
      </trkpt>
      <trkpt lat="44.63333" lon="5.19728">
        <ele>1359</ele>
        <time>2026-05-25T09:38:30.000Z</time>
      </trkpt>
      <trkpt lat="44.63333" lon="5.19728">
        <ele>1359</ele>
        <time>2026-05-25T09:38:31.000Z</time>
      </trkpt>
      <trkpt lat="44.63334" lon="5.19729">
        <ele>1357</ele>
        <time>2026-05-25T09:38:32.000Z</time>
      </trkpt>
      <trkpt lat="44.63334" lon="5.19728">
        <ele>1357</ele>
        <time>2026-05-25T09:38:33.000Z</time>
      </trkpt>
      <trkpt lat="44.63334" lon="5.19728">
        <ele>1357</ele>
        <time>2026-05-25T09:38:34.000Z</time>
      </trkpt>
      <trkpt lat="44.63333" lon="5.19728">
        <ele>1358</ele>
        <time>2026-05-25T09:38:35.000Z</time>
      </trkpt>
      <trkpt lat="44.63334" lon="5.19728">
        <ele>1359</ele>
        <time>2026-05-25T09:38:36.000Z</time>
      </trkpt>
      <trkpt lat="44.63334" lon="5.19729">
        <ele>1358</ele>
        <time>2026-05-25T09:38:37.000Z</time>
      </trkpt>
      <trkpt lat="44.63335" lon="5.19729">
        <ele>1358</ele>
        <time>2026-05-25T09:38:38.000Z</time>
      </trkpt>
      <trkpt lat="44.63335" lon="5.19729">
        <ele>1358</ele>
        <time>2026-05-25T09:38:39.000Z</time>
      </trkpt>
      <trkpt lat="44.63335" lon="5.19729">
        <ele>1358</ele>
        <time>2026-05-25T09:38:40.000Z</time>
      </trkpt>
      <trkpt lat="44.63334" lon="5.19727">
        <ele>1359</ele>
        <time>2026-05-25T09:38:41.000Z</time>
      </trkpt>
      <trkpt lat="44.63334" lon="5.19727">
        <ele>1359</ele>
        <time>2026-05-25T09:38:42.000Z</time>
      </trkpt>
      <trkpt lat="44.63334" lon="5.19727">
        <ele>1359</ele>
        <time>2026-05-25T09:38:43.000Z</time>
      </trkpt>
      <trkpt lat="44.63335" lon="5.19724">
        <ele>1360</ele>
        <time>2026-05-25T09:38:44.000Z</time>
      </trkpt>
      <trkpt lat="44.63336" lon="5.19723">
        <ele>1359</ele>
        <time>2026-05-25T09:38:45.000Z</time>
      </trkpt>
      <trkpt lat="44.63337" lon="5.19725">
        <ele>1359</ele>
        <time>2026-05-25T09:38:46.000Z</time>
      </trkpt>
      <trkpt lat="44.63337" lon="5.19725">
        <ele>1359</ele>
        <time>2026-05-25T09:38:47.000Z</time>
      </trkpt>
      <trkpt lat="44.63337" lon="5.19724">
        <ele>1359</ele>
        <time>2026-05-25T09:38:48.000Z</time>
      </trkpt>
      <trkpt lat="44.63337" lon="5.19724">
        <ele>1358</ele>
        <time>2026-05-25T09:38:49.000Z</time>
      </trkpt>
      <trkpt lat="44.63337" lon="5.19724">
        <ele>1358</ele>
        <time>2026-05-25T09:38:50.000Z</time>
      </trkpt>
      <trkpt lat="44.63337" lon="5.19724">
        <ele>1358</ele>
        <time>2026-05-25T09:38:51.000Z</time>
      </trkpt>
      <trkpt lat="44.63337" lon="5.19724">
        <ele>1358</ele>
        <time>2026-05-25T09:38:52.000Z</time>
      </trkpt>
      <trkpt lat="44.63337" lon="5.19724">
        <ele>1358</ele>
        <time>2026-05-25T09:38:53.000Z</time>
      </trkpt>
      <trkpt lat="44.63337" lon="5.19724">
        <ele>1358</ele>
        <time>2026-05-25T09:38:54.000Z</time>
      </trkpt>
      <trkpt lat="44.63336" lon="5.19723">
        <ele>1359</ele>
        <time>2026-05-25T09:38:55.000Z</time>
      </trkpt>
      <trkpt lat="44.63336" lon="5.19724">
        <ele>1359</ele>
        <time>2026-05-25T09:38:56.000Z</time>
      </trkpt>
      <trkpt lat="44.63336" lon="5.19724">
        <ele>1359</ele>
        <time>2026-05-25T09:38:57.000Z</time>
      </trkpt>
      <trkpt lat="44.63336" lon="5.19724">
        <ele>1359</ele>
        <time>2026-05-25T09:38:58.000Z</time>
      </trkpt>
      <trkpt lat="44.63336" lon="5.19724">
        <ele>1359</ele>
        <time>2026-05-25T09:38:59.000Z</time>
      </trkpt>
      <trkpt lat="44.63336" lon="5.19724">
        <ele>1359</ele>
        <time>2026-05-25T09:39:00.000Z</time>
      </trkpt>
      <trkpt lat="44.63337" lon="5.19723">
        <ele>1360</ele>
        <time>2026-05-25T09:39:01.000Z</time>
      </trkpt>
      <trkpt lat="44.63337" lon="5.19722">
        <ele>1360</ele>
        <time>2026-05-25T09:39:02.000Z</time>
      </trkpt>
      <trkpt lat="44.63337" lon="5.19721">
        <ele>1359</ele>
        <time>2026-05-25T09:39:03.000Z</time>
      </trkpt>
      <trkpt lat="44.63337" lon="5.1972">
        <ele>1359</ele>
        <time>2026-05-25T09:39:04.000Z</time>
      </trkpt>
      <trkpt lat="44.63337" lon="5.19718">
        <ele>1357</ele>
        <time>2026-05-25T09:39:05.000Z</time>
      </trkpt>
      <trkpt lat="44.63337" lon="5.19718">
        <ele>1357</ele>
        <time>2026-05-25T09:39:06.000Z</time>
      </trkpt>
      <trkpt lat="44.63337" lon="5.19716">
        <ele>1356</ele>
        <time>2026-05-25T09:39:07.000Z</time>
      </trkpt>
      <trkpt lat="44.63337" lon="5.19715">
        <ele>1357</ele>
        <time>2026-05-25T09:39:08.000Z</time>
      </trkpt>
      <trkpt lat="44.63337" lon="5.19714">
        <ele>1359</ele>
        <time>2026-05-25T09:39:09.000Z</time>
      </trkpt>
      <trkpt lat="44.63337" lon="5.19713">
        <ele>1359</ele>
        <time>2026-05-25T09:39:10.000Z</time>
      </trkpt>
      <trkpt lat="44.63337" lon="5.19712">
        <ele>1358</ele>
        <time>2026-05-25T09:39:11.000Z</time>
      </trkpt>
      <trkpt lat="44.63338" lon="5.1971">
        <ele>1358</ele>
        <time>2026-05-25T09:39:12.000Z</time>
      </trkpt>
      <trkpt lat="44.63337" lon="5.19709">
        <ele>1357</ele>
        <time>2026-05-25T09:39:13.000Z</time>
      </trkpt>
      <trkpt lat="44.63338" lon="5.19707">
        <ele>1357</ele>
        <time>2026-05-25T09:39:14.000Z</time>
      </trkpt>
      <trkpt lat="44.63339" lon="5.19707">
        <ele>1356</ele>
        <time>2026-05-25T09:39:15.000Z</time>
      </trkpt>
      <trkpt lat="44.6334" lon="5.19706">
        <ele>1357</ele>
        <time>2026-05-25T09:39:16.000Z</time>
      </trkpt>
      <trkpt lat="44.63341" lon="5.19706">
        <ele>1357</ele>
        <time>2026-05-25T09:39:17.000Z</time>
      </trkpt>
      <trkpt lat="44.63342" lon="5.19704">
        <ele>1358</ele>
        <time>2026-05-25T09:39:18.000Z</time>
      </trkpt>
      <trkpt lat="44.63344" lon="5.19703">
        <ele>1357</ele>
        <time>2026-05-25T09:39:19.000Z</time>
      </trkpt>
      <trkpt lat="44.63344" lon="5.19702">
        <ele>1357</ele>
        <time>2026-05-25T09:39:20.000Z</time>
      </trkpt>
      <trkpt lat="44.63345" lon="5.19702">
        <ele>1357</ele>
        <time>2026-05-25T09:39:21.000Z</time>
      </trkpt>
      <trkpt lat="44.63346" lon="5.19701">
        <ele>1357</ele>
        <time>2026-05-25T09:39:22.000Z</time>
      </trkpt>
      <trkpt lat="44.63347" lon="5.19699">
        <ele>1356</ele>
        <time>2026-05-25T09:39:23.000Z</time>
      </trkpt>
      <trkpt lat="44.63348" lon="5.19698">
        <ele>1355</ele>
        <time>2026-05-25T09:39:24.000Z</time>
      </trkpt>
      <trkpt lat="44.63348" lon="5.19696">
        <ele>1356</ele>
        <time>2026-05-25T09:39:25.000Z</time>
      </trkpt>
      <trkpt lat="44.63348" lon="5.19695">
        <ele>1357</ele>
        <time>2026-05-25T09:39:26.000Z</time>
      </trkpt>
      <trkpt lat="44.63348" lon="5.19694">
        <ele>1356</ele>
        <time>2026-05-25T09:39:27.000Z</time>
      </trkpt>
      <trkpt lat="44.63348" lon="5.19694">
        <ele>1356</ele>
        <time>2026-05-25T09:39:28.000Z</time>
      </trkpt>
      <trkpt lat="44.63349" lon="5.19694">
        <ele>1357</ele>
        <time>2026-05-25T09:39:29.000Z</time>
      </trkpt>
      <trkpt lat="44.6335" lon="5.19695">
        <ele>1357</ele>
        <time>2026-05-25T09:39:30.000Z</time>
      </trkpt>
      <trkpt lat="44.6335" lon="5.19695">
        <ele>1357</ele>
        <time>2026-05-25T09:39:31.000Z</time>
      </trkpt>
      <trkpt lat="44.63351" lon="5.19695">
        <ele>1357</ele>
        <time>2026-05-25T09:39:32.000Z</time>
      </trkpt>
      <trkpt lat="44.63351" lon="5.19695">
        <ele>1357</ele>
        <time>2026-05-25T09:39:33.000Z</time>
      </trkpt>
      <trkpt lat="44.63353" lon="5.19694">
        <ele>1357</ele>
        <time>2026-05-25T09:39:34.000Z</time>
      </trkpt>
      <trkpt lat="44.63352" lon="5.19693">
        <ele>1358</ele>
        <time>2026-05-25T09:39:35.000Z</time>
      </trkpt>
      <trkpt lat="44.63351" lon="5.19691">
        <ele>1357</ele>
        <time>2026-05-25T09:39:36.000Z</time>
      </trkpt>
      <trkpt lat="44.63352" lon="5.19689">
        <ele>1358</ele>
        <time>2026-05-25T09:39:37.000Z</time>
      </trkpt>
      <trkpt lat="44.63352" lon="5.19688">
        <ele>1359</ele>
        <time>2026-05-25T09:39:38.000Z</time>
      </trkpt>
      <trkpt lat="44.63352" lon="5.19687">
        <ele>1358</ele>
        <time>2026-05-25T09:39:39.000Z</time>
      </trkpt>
      <trkpt lat="44.63352" lon="5.19686">
        <ele>1358</ele>
        <time>2026-05-25T09:39:40.000Z</time>
      </trkpt>
      <trkpt lat="44.63353" lon="5.19686">
        <ele>1358</ele>
        <time>2026-05-25T09:39:41.000Z</time>
      </trkpt>
      <trkpt lat="44.63353" lon="5.19685">
        <ele>1358</ele>
        <time>2026-05-25T09:39:42.000Z</time>
      </trkpt>
      <trkpt lat="44.63353" lon="5.19684">
        <ele>1357</ele>
        <time>2026-05-25T09:39:43.000Z</time>
      </trkpt>
      <trkpt lat="44.63354" lon="5.19682">
        <ele>1358</ele>
        <time>2026-05-25T09:39:44.000Z</time>
      </trkpt>
      <trkpt lat="44.63354" lon="5.19681">
        <ele>1359</ele>
        <time>2026-05-25T09:39:45.000Z</time>
      </trkpt>
      <trkpt lat="44.63353" lon="5.1968">
        <ele>1359</ele>
        <time>2026-05-25T09:39:46.000Z</time>
      </trkpt>
      <trkpt lat="44.63352" lon="5.19679">
        <ele>1359</ele>
        <time>2026-05-25T09:39:47.000Z</time>
      </trkpt>
      <trkpt lat="44.63351" lon="5.19678">
        <ele>1359</ele>
        <time>2026-05-25T09:39:48.000Z</time>
      </trkpt>
      <trkpt lat="44.6335" lon="5.19677">
        <ele>1359</ele>
        <time>2026-05-25T09:39:49.000Z</time>
      </trkpt>
      <trkpt lat="44.6335" lon="5.19675">
        <ele>1360</ele>
        <time>2026-05-25T09:39:50.000Z</time>
      </trkpt>
      <trkpt lat="44.6335" lon="5.19674">
        <ele>1361</ele>
        <time>2026-05-25T09:39:51.000Z</time>
      </trkpt>
      <trkpt lat="44.6335" lon="5.19674">
        <ele>1361</ele>
        <time>2026-05-25T09:39:52.000Z</time>
      </trkpt>
      <trkpt lat="44.6335" lon="5.19674">
        <ele>1361</ele>
        <time>2026-05-25T09:39:53.000Z</time>
      </trkpt>
      <trkpt lat="44.6335" lon="5.19672">
        <ele>1363</ele>
        <time>2026-05-25T09:39:54.000Z</time>
      </trkpt>
      <trkpt lat="44.63348" lon="5.19671">
        <ele>1364</ele>
        <time>2026-05-25T09:39:55.000Z</time>
      </trkpt>
      <trkpt lat="44.63349" lon="5.19668">
        <ele>1364</ele>
        <time>2026-05-25T09:39:56.000Z</time>
      </trkpt>
      <trkpt lat="44.63349" lon="5.19667">
        <ele>1362</ele>
        <time>2026-05-25T09:39:57.000Z</time>
      </trkpt>
      <trkpt lat="44.6335" lon="5.19667">
        <ele>1361</ele>
        <time>2026-05-25T09:39:58.000Z</time>
      </trkpt>
      <trkpt lat="44.63351" lon="5.1967">
        <ele>1360</ele>
        <time>2026-05-25T09:39:59.000Z</time>
      </trkpt>
      <trkpt lat="44.63352" lon="5.19669">
        <ele>1361</ele>
        <time>2026-05-25T09:40:00.000Z</time>
      </trkpt>
      <trkpt lat="44.63352" lon="5.19668">
        <ele>1362</ele>
        <time>2026-05-25T09:40:01.000Z</time>
      </trkpt>
      <trkpt lat="44.63352" lon="5.19667">
        <ele>1362</ele>
        <time>2026-05-25T09:40:02.000Z</time>
      </trkpt>
      <trkpt lat="44.63353" lon="5.19664">
        <ele>1362</ele>
        <time>2026-05-25T09:40:03.000Z</time>
      </trkpt>
      <trkpt lat="44.63353" lon="5.19664">
        <ele>1362</ele>
        <time>2026-05-25T09:40:04.000Z</time>
      </trkpt>
      <trkpt lat="44.63353" lon="5.19663">
        <ele>1363</ele>
        <time>2026-05-25T09:40:05.000Z</time>
      </trkpt>
      <trkpt lat="44.63353" lon="5.19662">
        <ele>1364</ele>
        <time>2026-05-25T09:40:06.000Z</time>
      </trkpt>
      <trkpt lat="44.63353" lon="5.19661">
        <ele>1367</ele>
        <time>2026-05-25T09:40:07.000Z</time>
      </trkpt>
      <trkpt lat="44.63353" lon="5.1966">
        <ele>1371</ele>
        <time>2026-05-25T09:40:08.000Z</time>
      </trkpt>
      <trkpt lat="44.63354" lon="5.19659">
        <ele>1373</ele>
        <time>2026-05-25T09:40:09.000Z</time>
      </trkpt>
      <trkpt lat="44.63353" lon="5.19657">
        <ele>1372</ele>
        <time>2026-05-25T09:40:10.000Z</time>
      </trkpt>
      <trkpt lat="44.63352" lon="5.19655">
        <ele>1372</ele>
        <time>2026-05-25T09:40:11.000Z</time>
      </trkpt>
      <trkpt lat="44.63351" lon="5.19654">
        <ele>1372</ele>
        <time>2026-05-25T09:40:12.000Z</time>
      </trkpt>
      <trkpt lat="44.6335" lon="5.19653">
        <ele>1372</ele>
        <time>2026-05-25T09:40:13.000Z</time>
      </trkpt>
      <trkpt lat="44.63349" lon="5.19651">
        <ele>1371</ele>
        <time>2026-05-25T09:40:14.000Z</time>
      </trkpt>
      <trkpt lat="44.63348" lon="5.1965">
        <ele>1370</ele>
        <time>2026-05-25T09:40:15.000Z</time>
      </trkpt>
      <trkpt lat="44.63348" lon="5.19649">
        <ele>1370</ele>
        <time>2026-05-25T09:40:16.000Z</time>
      </trkpt>
      <trkpt lat="44.63347" lon="5.19648">
        <ele>1370</ele>
        <time>2026-05-25T09:40:17.000Z</time>
      </trkpt>
      <trkpt lat="44.63347" lon="5.19648">
        <ele>1370</ele>
        <time>2026-05-25T09:40:18.000Z</time>
      </trkpt>
      <trkpt lat="44.63347" lon="5.19648">
        <ele>1370</ele>
        <time>2026-05-25T09:40:19.000Z</time>
      </trkpt>
      <trkpt lat="44.63347" lon="5.19648">
        <ele>1370</ele>
        <time>2026-05-25T09:40:20.000Z</time>
      </trkpt>
      <trkpt lat="44.63348" lon="5.19647">
        <ele>1370</ele>
        <time>2026-05-25T09:40:21.000Z</time>
      </trkpt>
      <trkpt lat="44.63347" lon="5.19646">
        <ele>1370</ele>
        <time>2026-05-25T09:40:22.000Z</time>
      </trkpt>
      <trkpt lat="44.63347" lon="5.19644">
        <ele>1370</ele>
        <time>2026-05-25T09:40:23.000Z</time>
      </trkpt>
      <trkpt lat="44.63347" lon="5.19642">
        <ele>1369</ele>
        <time>2026-05-25T09:40:24.000Z</time>
      </trkpt>
      <trkpt lat="44.63347" lon="5.1964">
        <ele>1369</ele>
        <time>2026-05-25T09:40:25.000Z</time>
      </trkpt>
      <trkpt lat="44.63346" lon="5.19638">
        <ele>1368</ele>
        <time>2026-05-25T09:40:26.000Z</time>
      </trkpt>
      <trkpt lat="44.63346" lon="5.19636">
        <ele>1370</ele>
        <time>2026-05-25T09:40:27.000Z</time>
      </trkpt>
      <trkpt lat="44.63346" lon="5.19635">
        <ele>1370</ele>
        <time>2026-05-25T09:40:28.000Z</time>
      </trkpt>
      <trkpt lat="44.63345" lon="5.19636">
        <ele>1368</ele>
        <time>2026-05-25T09:40:29.000Z</time>
      </trkpt>
      <trkpt lat="44.63344" lon="5.19635">
        <ele>1367</ele>
        <time>2026-05-25T09:40:30.000Z</time>
      </trkpt>
      <trkpt lat="44.63343" lon="5.19634">
        <ele>1366</ele>
        <time>2026-05-25T09:40:31.000Z</time>
      </trkpt>
      <trkpt lat="44.63343" lon="5.19634">
        <ele>1366</ele>
        <time>2026-05-25T09:40:32.000Z</time>
      </trkpt>
      <trkpt lat="44.63343" lon="5.19635">
        <ele>1367</ele>
        <time>2026-05-25T09:40:33.000Z</time>
      </trkpt>
      <trkpt lat="44.63343" lon="5.19635">
        <ele>1368</ele>
        <time>2026-05-25T09:40:34.000Z</time>
      </trkpt>
      <trkpt lat="44.63343" lon="5.19635">
        <ele>1368</ele>
        <time>2026-05-25T09:40:35.000Z</time>
      </trkpt>
      <trkpt lat="44.63343" lon="5.19635">
        <ele>1368</ele>
        <time>2026-05-25T09:40:36.000Z</time>
      </trkpt>
      <trkpt lat="44.63344" lon="5.19635">
        <ele>1368</ele>
        <time>2026-05-25T09:40:37.000Z</time>
      </trkpt>
      <trkpt lat="44.63344" lon="5.19636">
        <ele>1368</ele>
        <time>2026-05-25T09:40:38.000Z</time>
      </trkpt>
      <trkpt lat="44.63346" lon="5.19637">
        <ele>1367</ele>
        <time>2026-05-25T09:40:39.000Z</time>
      </trkpt>
      <trkpt lat="44.63346" lon="5.19637">
        <ele>1367</ele>
        <time>2026-05-25T09:40:40.000Z</time>
      </trkpt>
      <trkpt lat="44.63346" lon="5.19637">
        <ele>1368</ele>
        <time>2026-05-25T09:40:41.000Z</time>
      </trkpt>
      <trkpt lat="44.63346" lon="5.19637">
        <ele>1368</ele>
        <time>2026-05-25T09:40:42.000Z</time>
      </trkpt>
      <trkpt lat="44.63346" lon="5.19637">
        <ele>1368</ele>
        <time>2026-05-25T09:40:43.000Z</time>
      </trkpt>
      <trkpt lat="44.63346" lon="5.19637">
        <ele>1368</ele>
        <time>2026-05-25T09:40:44.000Z</time>
      </trkpt>
      <trkpt lat="44.63346" lon="5.19637">
        <ele>1368</ele>
        <time>2026-05-25T09:40:45.000Z</time>
      </trkpt>
      <trkpt lat="44.63346" lon="5.19637">
        <ele>1368</ele>
        <time>2026-05-25T09:40:46.000Z</time>
      </trkpt>
      <trkpt lat="44.63346" lon="5.19637">
        <ele>1368</ele>
        <time>2026-05-25T09:40:47.000Z</time>
      </trkpt>
      <trkpt lat="44.63346" lon="5.19637">
        <ele>1368</ele>
        <time>2026-05-25T09:40:48.000Z</time>
      </trkpt>
      <trkpt lat="44.63344" lon="5.19637">
        <ele>1366</ele>
        <time>2026-05-25T09:40:49.000Z</time>
      </trkpt>
      <trkpt lat="44.63344" lon="5.19636">
        <ele>1366</ele>
        <time>2026-05-25T09:40:50.000Z</time>
      </trkpt>
      <trkpt lat="44.63344" lon="5.19636">
        <ele>1366</ele>
        <time>2026-05-25T09:40:51.000Z</time>
      </trkpt>
      <trkpt lat="44.63344" lon="5.19636">
        <ele>1366</ele>
        <time>2026-05-25T09:40:52.000Z</time>
      </trkpt>
      <trkpt lat="44.63344" lon="5.19636">
        <ele>1366</ele>
        <time>2026-05-25T09:40:53.000Z</time>
      </trkpt>
      <trkpt lat="44.63344" lon="5.19636">
        <ele>1366</ele>
        <time>2026-05-25T09:40:54.000Z</time>
      </trkpt>
      <trkpt lat="44.63344" lon="5.19636">
        <ele>1366</ele>
        <time>2026-05-25T09:40:55.000Z</time>
      </trkpt>
      <trkpt lat="44.63344" lon="5.19636">
        <ele>1366</ele>
        <time>2026-05-25T09:40:56.000Z</time>
      </trkpt>
      <trkpt lat="44.63344" lon="5.19636">
        <ele>1366</ele>
        <time>2026-05-25T09:40:57.000Z</time>
      </trkpt>
      <trkpt lat="44.63344" lon="5.19636">
        <ele>1366</ele>
        <time>2026-05-25T09:40:58.000Z</time>
      </trkpt>
      <trkpt lat="44.63344" lon="5.19636">
        <ele>1366</ele>
        <time>2026-05-25T09:40:59.000Z</time>
      </trkpt>
      <trkpt lat="44.63344" lon="5.19636">
        <ele>1366</ele>
        <time>2026-05-25T09:41:00.000Z</time>
      </trkpt>
      <trkpt lat="44.63344" lon="5.19636">
        <ele>1366</ele>
        <time>2026-05-25T09:41:01.000Z</time>
      </trkpt>
      <trkpt lat="44.63344" lon="5.19636">
        <ele>1366</ele>
        <time>2026-05-25T09:41:02.000Z</time>
      </trkpt>
      <trkpt lat="44.63343" lon="5.19635">
        <ele>1365</ele>
        <time>2026-05-25T09:41:03.000Z</time>
      </trkpt>
      <trkpt lat="44.63343" lon="5.19635">
        <ele>1366</ele>
        <time>2026-05-25T09:41:04.000Z</time>
      </trkpt>
      <trkpt lat="44.63343" lon="5.19635">
        <ele>1366</ele>
        <time>2026-05-25T09:41:05.000Z</time>
      </trkpt>
      <trkpt lat="44.63343" lon="5.19635">
        <ele>1366</ele>
        <time>2026-05-25T09:41:06.000Z</time>
      </trkpt>
      <trkpt lat="44.63343" lon="5.19635">
        <ele>1366</ele>
        <time>2026-05-25T09:41:07.000Z</time>
      </trkpt>
      <trkpt lat="44.63343" lon="5.19635">
        <ele>1366</ele>
        <time>2026-05-25T09:41:08.000Z</time>
      </trkpt>
      <trkpt lat="44.63343" lon="5.19635">
        <ele>1366</ele>
        <time>2026-05-25T09:41:09.000Z</time>
      </trkpt>
      <trkpt lat="44.63343" lon="5.19635">
        <ele>1366</ele>
        <time>2026-05-25T09:41:10.000Z</time>
      </trkpt>
      <trkpt lat="44.63343" lon="5.19635">
        <ele>1366</ele>
        <time>2026-05-25T09:41:11.000Z</time>
      </trkpt>
      <trkpt lat="44.63343" lon="5.19635">
        <ele>1366</ele>
        <time>2026-05-25T09:41:12.000Z</time>
      </trkpt>
      <trkpt lat="44.63343" lon="5.19635">
        <ele>1366</ele>
        <time>2026-05-25T09:41:13.000Z</time>
      </trkpt>
      <trkpt lat="44.63343" lon="5.19635">
        <ele>1366</ele>
        <time>2026-05-25T09:41:14.000Z</time>
      </trkpt>
      <trkpt lat="44.63343" lon="5.19635">
        <ele>1366</ele>
        <time>2026-05-25T09:41:15.000Z</time>
      </trkpt>
      <trkpt lat="44.63343" lon="5.19635">
        <ele>1366</ele>
        <time>2026-05-25T09:41:16.000Z</time>
      </trkpt>
      <trkpt lat="44.63343" lon="5.19635">
        <ele>1366</ele>
        <time>2026-05-25T09:41:17.000Z</time>
      </trkpt>
      <trkpt lat="44.63343" lon="5.19635">
        <ele>1366</ele>
        <time>2026-05-25T09:41:18.000Z</time>
      </trkpt>
      <trkpt lat="44.63343" lon="5.19635">
        <ele>1366</ele>
        <time>2026-05-25T09:41:19.000Z</time>
      </trkpt>
      <trkpt lat="44.63343" lon="5.19635">
        <ele>1366</ele>
        <time>2026-05-25T09:41:20.000Z</time>
      </trkpt>
      <trkpt lat="44.63343" lon="5.19635">
        <ele>1366</ele>
        <time>2026-05-25T09:41:21.000Z</time>
      </trkpt>
      <trkpt lat="44.63343" lon="5.19632">
        <ele>1364</ele>
        <time>2026-05-25T09:41:22.000Z</time>
      </trkpt>
      <trkpt lat="44.63343" lon="5.1963">
        <ele>1365</ele>
        <time>2026-05-25T09:41:23.000Z</time>
      </trkpt>
      <trkpt lat="44.63342" lon="5.19628">
        <ele>1365</ele>
        <time>2026-05-25T09:41:24.000Z</time>
      </trkpt>
      <trkpt lat="44.63341" lon="5.19626">
        <ele>1365</ele>
        <time>2026-05-25T09:41:25.000Z</time>
      </trkpt>
      <trkpt lat="44.63341" lon="5.19624">
        <ele>1365</ele>
        <time>2026-05-25T09:41:26.000Z</time>
      </trkpt>
      <trkpt lat="44.6334" lon="5.19624">
        <ele>1364</ele>
        <time>2026-05-25T09:41:27.000Z</time>
      </trkpt>
      <trkpt lat="44.63339" lon="5.19624">
        <ele>1367</ele>
        <time>2026-05-25T09:41:28.000Z</time>
      </trkpt>
      <trkpt lat="44.63337" lon="5.19623">
        <ele>1368</ele>
        <time>2026-05-25T09:41:29.000Z</time>
      </trkpt>
      <trkpt lat="44.63337" lon="5.19622">
        <ele>1367</ele>
        <time>2026-05-25T09:41:30.000Z</time>
      </trkpt>
      <trkpt lat="44.63337" lon="5.19621">
        <ele>1367</ele>
        <time>2026-05-25T09:41:31.000Z</time>
      </trkpt>
      <trkpt lat="44.63337" lon="5.1962">
        <ele>1367</ele>
        <time>2026-05-25T09:41:32.000Z</time>
      </trkpt>
      <trkpt lat="44.63336" lon="5.19619">
        <ele>1368</ele>
        <time>2026-05-25T09:41:33.000Z</time>
      </trkpt>
      <trkpt lat="44.63336" lon="5.19616">
        <ele>1367</ele>
        <time>2026-05-25T09:41:34.000Z</time>
      </trkpt>
      <trkpt lat="44.63336" lon="5.19614">
        <ele>1367</ele>
        <time>2026-05-25T09:41:35.000Z</time>
      </trkpt>
      <trkpt lat="44.63336" lon="5.19614">
        <ele>1367</ele>
        <time>2026-05-25T09:41:36.000Z</time>
      </trkpt>
      <trkpt lat="44.63335" lon="5.19613">
        <ele>1367</ele>
        <time>2026-05-25T09:41:37.000Z</time>
      </trkpt>
      <trkpt lat="44.63335" lon="5.19612">
        <ele>1368</ele>
        <time>2026-05-25T09:41:38.000Z</time>
      </trkpt>
      <trkpt lat="44.63335" lon="5.19611">
        <ele>1367</ele>
        <time>2026-05-25T09:41:39.000Z</time>
      </trkpt>
      <trkpt lat="44.63335" lon="5.1961">
        <ele>1367</ele>
        <time>2026-05-25T09:41:40.000Z</time>
      </trkpt>
      <trkpt lat="44.63335" lon="5.1961">
        <ele>1366</ele>
        <time>2026-05-25T09:41:41.000Z</time>
      </trkpt>
      <trkpt lat="44.63336" lon="5.19609">
        <ele>1368</ele>
        <time>2026-05-25T09:41:42.000Z</time>
      </trkpt>
      <trkpt lat="44.63336" lon="5.19607">
        <ele>1366</ele>
        <time>2026-05-25T09:41:43.000Z</time>
      </trkpt>
      <trkpt lat="44.63336" lon="5.19606">
        <ele>1367</ele>
        <time>2026-05-25T09:41:44.000Z</time>
      </trkpt>
      <trkpt lat="44.63336" lon="5.19605">
        <ele>1367</ele>
        <time>2026-05-25T09:41:45.000Z</time>
      </trkpt>
      <trkpt lat="44.63336" lon="5.19605">
        <ele>1366</ele>
        <time>2026-05-25T09:41:46.000Z</time>
      </trkpt>
      <trkpt lat="44.63335" lon="5.19604">
        <ele>1366</ele>
        <time>2026-05-25T09:41:47.000Z</time>
      </trkpt>
      <trkpt lat="44.63335" lon="5.19604">
        <ele>1365</ele>
        <time>2026-05-25T09:41:48.000Z</time>
      </trkpt>
      <trkpt lat="44.63334" lon="5.19602">
        <ele>1364</ele>
        <time>2026-05-25T09:41:49.000Z</time>
      </trkpt>
      <trkpt lat="44.63334" lon="5.19601">
        <ele>1364</ele>
        <time>2026-05-25T09:41:50.000Z</time>
      </trkpt>
      <trkpt lat="44.63334" lon="5.196">
        <ele>1364</ele>
        <time>2026-05-25T09:41:51.000Z</time>
      </trkpt>
      <trkpt lat="44.63333" lon="5.19599">
        <ele>1364</ele>
        <time>2026-05-25T09:41:52.000Z</time>
      </trkpt>
      <trkpt lat="44.63333" lon="5.19598">
        <ele>1364</ele>
        <time>2026-05-25T09:41:53.000Z</time>
      </trkpt>
      <trkpt lat="44.63333" lon="5.19598">
        <ele>1364</ele>
        <time>2026-05-25T09:41:54.000Z</time>
      </trkpt>
      <trkpt lat="44.63333" lon="5.19598">
        <ele>1364</ele>
        <time>2026-05-25T09:41:55.000Z</time>
      </trkpt>
      <trkpt lat="44.63334" lon="5.19599">
        <ele>1364</ele>
        <time>2026-05-25T09:41:56.000Z</time>
      </trkpt>
      <trkpt lat="44.63334" lon="5.19599">
        <ele>1363</ele>
        <time>2026-05-25T09:41:57.000Z</time>
      </trkpt>
      <trkpt lat="44.63335" lon="5.196">
        <ele>1364</ele>
        <time>2026-05-25T09:41:58.000Z</time>
      </trkpt>
      <trkpt lat="44.63336" lon="5.196">
        <ele>1363</ele>
        <time>2026-05-25T09:41:59.000Z</time>
      </trkpt>
      <trkpt lat="44.63336" lon="5.19602">
        <ele>1363</ele>
        <time>2026-05-25T09:42:00.000Z</time>
      </trkpt>
      <trkpt lat="44.63336" lon="5.19604">
        <ele>1364</ele>
        <time>2026-05-25T09:42:01.000Z</time>
      </trkpt>
      <trkpt lat="44.63337" lon="5.19604">
        <ele>1364</ele>
        <time>2026-05-25T09:42:02.000Z</time>
      </trkpt>
      <trkpt lat="44.63337" lon="5.19606">
        <ele>1363</ele>
        <time>2026-05-25T09:42:03.000Z</time>
      </trkpt>
      <trkpt lat="44.63338" lon="5.19606">
        <ele>1364</ele>
        <time>2026-05-25T09:42:04.000Z</time>
      </trkpt>
      <trkpt lat="44.63338" lon="5.19606">
        <ele>1365</ele>
        <time>2026-05-25T09:42:05.000Z</time>
      </trkpt>
      <trkpt lat="44.63338" lon="5.19605">
        <ele>1366</ele>
        <time>2026-05-25T09:42:06.000Z</time>
      </trkpt>
      <trkpt lat="44.63338" lon="5.19603">
        <ele>1364</ele>
        <time>2026-05-25T09:42:07.000Z</time>
      </trkpt>
      <trkpt lat="44.63339" lon="5.19602">
        <ele>1364</ele>
        <time>2026-05-25T09:42:08.000Z</time>
      </trkpt>
      <trkpt lat="44.6334" lon="5.19602">
        <ele>1363</ele>
        <time>2026-05-25T09:42:09.000Z</time>
      </trkpt>
      <trkpt lat="44.6334" lon="5.19602">
        <ele>1363</ele>
        <time>2026-05-25T09:42:10.000Z</time>
      </trkpt>
      <trkpt lat="44.6334" lon="5.19601">
        <ele>1363</ele>
        <time>2026-05-25T09:42:11.000Z</time>
      </trkpt>
      <trkpt lat="44.63339" lon="5.19599">
        <ele>1363</ele>
        <time>2026-05-25T09:42:12.000Z</time>
      </trkpt>
      <trkpt lat="44.63339" lon="5.19598">
        <ele>1364</ele>
        <time>2026-05-25T09:42:13.000Z</time>
      </trkpt>
      <trkpt lat="44.6334" lon="5.19597">
        <ele>1365</ele>
        <time>2026-05-25T09:42:14.000Z</time>
      </trkpt>
      <trkpt lat="44.6334" lon="5.19595">
        <ele>1366</ele>
        <time>2026-05-25T09:42:15.000Z</time>
      </trkpt>
      <trkpt lat="44.6334" lon="5.19594">
        <ele>1366</ele>
        <time>2026-05-25T09:42:16.000Z</time>
      </trkpt>
      <trkpt lat="44.63339" lon="5.19593">
        <ele>1366</ele>
        <time>2026-05-25T09:42:17.000Z</time>
      </trkpt>
      <trkpt lat="44.63339" lon="5.19591">
        <ele>1367</ele>
        <time>2026-05-25T09:42:18.000Z</time>
      </trkpt>
      <trkpt lat="44.63339" lon="5.1959">
        <ele>1366</ele>
        <time>2026-05-25T09:42:19.000Z</time>
      </trkpt>
      <trkpt lat="44.63338" lon="5.19589">
        <ele>1367</ele>
        <time>2026-05-25T09:42:20.000Z</time>
      </trkpt>
      <trkpt lat="44.63337" lon="5.19588">
        <ele>1368</ele>
        <time>2026-05-25T09:42:21.000Z</time>
      </trkpt>
      <trkpt lat="44.63337" lon="5.19587">
        <ele>1369</ele>
        <time>2026-05-25T09:42:22.000Z</time>
      </trkpt>
      <trkpt lat="44.63336" lon="5.19585">
        <ele>1369</ele>
        <time>2026-05-25T09:42:23.000Z</time>
      </trkpt>
      <trkpt lat="44.63336" lon="5.19584">
        <ele>1370</ele>
        <time>2026-05-25T09:42:24.000Z</time>
      </trkpt>
      <trkpt lat="44.63336" lon="5.19583">
        <ele>1369</ele>
        <time>2026-05-25T09:42:25.000Z</time>
      </trkpt>
      <trkpt lat="44.63336" lon="5.19581">
        <ele>1368</ele>
        <time>2026-05-25T09:42:26.000Z</time>
      </trkpt>
      <trkpt lat="44.63336" lon="5.19579">
        <ele>1370</ele>
        <time>2026-05-25T09:42:27.000Z</time>
      </trkpt>
      <trkpt lat="44.63337" lon="5.19577">
        <ele>1369</ele>
        <time>2026-05-25T09:42:28.000Z</time>
      </trkpt>
      <trkpt lat="44.63337" lon="5.19576">
        <ele>1369</ele>
        <time>2026-05-25T09:42:29.000Z</time>
      </trkpt>
      <trkpt lat="44.63337" lon="5.19575">
        <ele>1369</ele>
        <time>2026-05-25T09:42:30.000Z</time>
      </trkpt>
      <trkpt lat="44.63337" lon="5.19573">
        <ele>1369</ele>
        <time>2026-05-25T09:42:31.000Z</time>
      </trkpt>
      <trkpt lat="44.63337" lon="5.19574">
        <ele>1368</ele>
        <time>2026-05-25T09:42:32.000Z</time>
      </trkpt>
      <trkpt lat="44.63337" lon="5.19574">
        <ele>1368</ele>
        <time>2026-05-25T09:42:33.000Z</time>
      </trkpt>
      <trkpt lat="44.63337" lon="5.19574">
        <ele>1367</ele>
        <time>2026-05-25T09:42:34.000Z</time>
      </trkpt>
      <trkpt lat="44.63337" lon="5.19575">
        <ele>1367</ele>
        <time>2026-05-25T09:42:35.000Z</time>
      </trkpt>
      <trkpt lat="44.63337" lon="5.19573">
        <ele>1366</ele>
        <time>2026-05-25T09:42:36.000Z</time>
      </trkpt>
      <trkpt lat="44.63337" lon="5.19572">
        <ele>1366</ele>
        <time>2026-05-25T09:42:37.000Z</time>
      </trkpt>
      <trkpt lat="44.63336" lon="5.1957">
        <ele>1366</ele>
        <time>2026-05-25T09:42:38.000Z</time>
      </trkpt>
      <trkpt lat="44.63336" lon="5.19567">
        <ele>1366</ele>
        <time>2026-05-25T09:42:39.000Z</time>
      </trkpt>
      <trkpt lat="44.63335" lon="5.19564">
        <ele>1366</ele>
        <time>2026-05-25T09:42:40.000Z</time>
      </trkpt>
      <trkpt lat="44.63334" lon="5.19561">
        <ele>1366</ele>
        <time>2026-05-25T09:42:41.000Z</time>
      </trkpt>
      <trkpt lat="44.63334" lon="5.19561">
        <ele>1366</ele>
        <time>2026-05-25T09:42:42.000Z</time>
      </trkpt>
      <trkpt lat="44.63334" lon="5.1956">
        <ele>1365</ele>
        <time>2026-05-25T09:42:43.000Z</time>
      </trkpt>
      <trkpt lat="44.63334" lon="5.1956">
        <ele>1365</ele>
        <time>2026-05-25T09:42:44.000Z</time>
      </trkpt>
      <trkpt lat="44.63333" lon="5.19558">
        <ele>1364</ele>
        <time>2026-05-25T09:42:45.000Z</time>
      </trkpt>
      <trkpt lat="44.63334" lon="5.19557">
        <ele>1364</ele>
        <time>2026-05-25T09:42:46.000Z</time>
      </trkpt>
      <trkpt lat="44.63334" lon="5.19555">
        <ele>1364</ele>
        <time>2026-05-25T09:42:47.000Z</time>
      </trkpt>
      <trkpt lat="44.63334" lon="5.19553">
        <ele>1363</ele>
        <time>2026-05-25T09:42:48.000Z</time>
      </trkpt>
      <trkpt lat="44.63334" lon="5.19552">
        <ele>1363</ele>
        <time>2026-05-25T09:42:49.000Z</time>
      </trkpt>
      <trkpt lat="44.63335" lon="5.1955">
        <ele>1363</ele>
        <time>2026-05-25T09:42:50.000Z</time>
      </trkpt>
      <trkpt lat="44.63335" lon="5.19549">
        <ele>1363</ele>
        <time>2026-05-25T09:42:51.000Z</time>
      </trkpt>
      <trkpt lat="44.63337" lon="5.19547">
        <ele>1362</ele>
        <time>2026-05-25T09:42:52.000Z</time>
      </trkpt>
      <trkpt lat="44.63338" lon="5.19547">
        <ele>1362</ele>
        <time>2026-05-25T09:42:53.000Z</time>
      </trkpt>
      <trkpt lat="44.63339" lon="5.19547">
        <ele>1362</ele>
        <time>2026-05-25T09:42:54.000Z</time>
      </trkpt>
      <trkpt lat="44.6334" lon="5.19548">
        <ele>1364</ele>
        <time>2026-05-25T09:42:55.000Z</time>
      </trkpt>
      <trkpt lat="44.6334" lon="5.19548">
        <ele>1365</ele>
        <time>2026-05-25T09:42:56.000Z</time>
      </trkpt>
      <trkpt lat="44.6334" lon="5.19548">
        <ele>1364</ele>
        <time>2026-05-25T09:42:57.000Z</time>
      </trkpt>
      <trkpt lat="44.6334" lon="5.19547">
        <ele>1362</ele>
        <time>2026-05-25T09:42:58.000Z</time>
      </trkpt>
      <trkpt lat="44.63339" lon="5.19546">
        <ele>1361</ele>
        <time>2026-05-25T09:42:59.000Z</time>
      </trkpt>
      <trkpt lat="44.63339" lon="5.19547">
        <ele>1360</ele>
        <time>2026-05-25T09:43:00.000Z</time>
      </trkpt>
      <trkpt lat="44.63339" lon="5.19547">
        <ele>1360</ele>
        <time>2026-05-25T09:43:01.000Z</time>
      </trkpt>
      <trkpt lat="44.63339" lon="5.19547">
        <ele>1360</ele>
        <time>2026-05-25T09:43:02.000Z</time>
      </trkpt>
      <trkpt lat="44.63339" lon="5.19547">
        <ele>1360</ele>
        <time>2026-05-25T09:43:03.000Z</time>
      </trkpt>
      <trkpt lat="44.63339" lon="5.19547">
        <ele>1360</ele>
        <time>2026-05-25T09:43:04.000Z</time>
      </trkpt>
      <trkpt lat="44.63339" lon="5.19547">
        <ele>1360</ele>
        <time>2026-05-25T09:43:05.000Z</time>
      </trkpt>
      <trkpt lat="44.63339" lon="5.19547">
        <ele>1360</ele>
        <time>2026-05-25T09:43:06.000Z</time>
      </trkpt>
      <trkpt lat="44.63339" lon="5.19547">
        <ele>1360</ele>
        <time>2026-05-25T09:43:07.000Z</time>
      </trkpt>
      <trkpt lat="44.63339" lon="5.19547">
        <ele>1360</ele>
        <time>2026-05-25T09:43:08.000Z</time>
      </trkpt>
      <trkpt lat="44.63339" lon="5.19547">
        <ele>1360</ele>
        <time>2026-05-25T09:43:09.000Z</time>
      </trkpt>
      <trkpt lat="44.63339" lon="5.19547">
        <ele>1360</ele>
        <time>2026-05-25T09:43:10.000Z</time>
      </trkpt>
      <trkpt lat="44.63339" lon="5.19547">
        <ele>1360</ele>
        <time>2026-05-25T09:43:11.000Z</time>
      </trkpt>
      <trkpt lat="44.63339" lon="5.19547">
        <ele>1360</ele>
        <time>2026-05-25T09:43:12.000Z</time>
      </trkpt>
      <trkpt lat="44.63339" lon="5.19547">
        <ele>1360</ele>
        <time>2026-05-25T09:43:13.000Z</time>
      </trkpt>
      <trkpt lat="44.63339" lon="5.19547">
        <ele>1360</ele>
        <time>2026-05-25T09:43:14.000Z</time>
      </trkpt>
      <trkpt lat="44.63339" lon="5.19547">
        <ele>1360</ele>
        <time>2026-05-25T09:43:15.000Z</time>
      </trkpt>
      <trkpt lat="44.63339" lon="5.19547">
        <ele>1360</ele>
        <time>2026-05-25T09:43:16.000Z</time>
      </trkpt>
      <trkpt lat="44.63339" lon="5.19547">
        <ele>1360</ele>
        <time>2026-05-25T09:43:17.000Z</time>
      </trkpt>
      <trkpt lat="44.63339" lon="5.19547">
        <ele>1360</ele>
        <time>2026-05-25T09:43:18.000Z</time>
      </trkpt>
      <trkpt lat="44.63339" lon="5.19547">
        <ele>1360</ele>
        <time>2026-05-25T09:43:19.000Z</time>
      </trkpt>
      <trkpt lat="44.63342" lon="5.19547">
        <ele>1364</ele>
        <time>2026-05-25T09:43:20.000Z</time>
      </trkpt>
      <trkpt lat="44.63342" lon="5.19547">
        <ele>1365</ele>
        <time>2026-05-25T09:43:21.000Z</time>
      </trkpt>
      <trkpt lat="44.63342" lon="5.19547">
        <ele>1365</ele>
        <time>2026-05-25T09:43:22.000Z</time>
      </trkpt>
      <trkpt lat="44.63342" lon="5.19547">
        <ele>1366</ele>
        <time>2026-05-25T09:43:23.000Z</time>
      </trkpt>
      <trkpt lat="44.63342" lon="5.19547">
        <ele>1366</ele>
        <time>2026-05-25T09:43:24.000Z</time>
      </trkpt>
      <trkpt lat="44.63342" lon="5.19547">
        <ele>1366</ele>
        <time>2026-05-25T09:43:25.000Z</time>
      </trkpt>
      <trkpt lat="44.63342" lon="5.19547">
        <ele>1366</ele>
        <time>2026-05-25T09:43:26.000Z</time>
      </trkpt>
      <trkpt lat="44.63342" lon="5.19547">
        <ele>1366</ele>
        <time>2026-05-25T09:43:27.000Z</time>
      </trkpt>
      <trkpt lat="44.63342" lon="5.19547">
        <ele>1366</ele>
        <time>2026-05-25T09:43:28.000Z</time>
      </trkpt>
      <trkpt lat="44.63342" lon="5.19547">
        <ele>1366</ele>
        <time>2026-05-25T09:43:29.000Z</time>
      </trkpt>
      <trkpt lat="44.63342" lon="5.19547">
        <ele>1366</ele>
        <time>2026-05-25T09:43:30.000Z</time>
      </trkpt>
      <trkpt lat="44.63342" lon="5.19547">
        <ele>1367</ele>
        <time>2026-05-25T09:43:31.000Z</time>
      </trkpt>
      <trkpt lat="44.63342" lon="5.19547">
        <ele>1367</ele>
        <time>2026-05-25T09:43:32.000Z</time>
      </trkpt>
      <trkpt lat="44.63342" lon="5.19547">
        <ele>1367</ele>
        <time>2026-05-25T09:43:33.000Z</time>
      </trkpt>
      <trkpt lat="44.63342" lon="5.19547">
        <ele>1367</ele>
        <time>2026-05-25T09:43:34.000Z</time>
      </trkpt>
      <trkpt lat="44.63342" lon="5.19547">
        <ele>1367</ele>
        <time>2026-05-25T09:43:35.000Z</time>
      </trkpt>
      <trkpt lat="44.63342" lon="5.19547">
        <ele>1367</ele>
        <time>2026-05-25T09:43:36.000Z</time>
      </trkpt>
      <trkpt lat="44.63342" lon="5.19547">
        <ele>1367</ele>
        <time>2026-05-25T09:43:37.000Z</time>
      </trkpt>
      <trkpt lat="44.63342" lon="5.19547">
        <ele>1367</ele>
        <time>2026-05-25T09:43:38.000Z</time>
      </trkpt>
      <trkpt lat="44.63342" lon="5.19547">
        <ele>1368</ele>
        <time>2026-05-25T09:43:39.000Z</time>
      </trkpt>
      <trkpt lat="44.63342" lon="5.19548">
        <ele>1368</ele>
        <time>2026-05-25T09:43:40.000Z</time>
      </trkpt>
      <trkpt lat="44.63342" lon="5.19548">
        <ele>1368</ele>
        <time>2026-05-25T09:43:41.000Z</time>
      </trkpt>
      <trkpt lat="44.63342" lon="5.19549">
        <ele>1368</ele>
        <time>2026-05-25T09:43:42.000Z</time>
      </trkpt>
      <trkpt lat="44.63341" lon="5.19549">
        <ele>1368</ele>
        <time>2026-05-25T09:43:43.000Z</time>
      </trkpt>
      <trkpt lat="44.63341" lon="5.19549">
        <ele>1368</ele>
        <time>2026-05-25T09:43:44.000Z</time>
      </trkpt>
      <trkpt lat="44.63341" lon="5.19548">
        <ele>1368</ele>
        <time>2026-05-25T09:43:45.000Z</time>
      </trkpt>
      <trkpt lat="44.63341" lon="5.19548">
        <ele>1368</ele>
        <time>2026-05-25T09:43:46.000Z</time>
      </trkpt>
      <trkpt lat="44.63342" lon="5.19548">
        <ele>1367</ele>
        <time>2026-05-25T09:43:47.000Z</time>
      </trkpt>
      <trkpt lat="44.63342" lon="5.19548">
        <ele>1367</ele>
        <time>2026-05-25T09:43:48.000Z</time>
      </trkpt>
      <trkpt lat="44.63342" lon="5.19548">
        <ele>1367</ele>
        <time>2026-05-25T09:43:49.000Z</time>
      </trkpt>
      <trkpt lat="44.63342" lon="5.19548">
        <ele>1367</ele>
        <time>2026-05-25T09:43:50.000Z</time>
      </trkpt>
      <trkpt lat="44.63342" lon="5.19548">
        <ele>1367</ele>
        <time>2026-05-25T09:43:51.000Z</time>
      </trkpt>
      <trkpt lat="44.63342" lon="5.19548">
        <ele>1367</ele>
        <time>2026-05-25T09:43:52.000Z</time>
      </trkpt>
      <trkpt lat="44.63342" lon="5.19548">
        <ele>1367</ele>
        <time>2026-05-25T09:43:53.000Z</time>
      </trkpt>
      <trkpt lat="44.63342" lon="5.19548">
        <ele>1367</ele>
        <time>2026-05-25T09:43:54.000Z</time>
      </trkpt>
      <trkpt lat="44.63342" lon="5.19548">
        <ele>1367</ele>
        <time>2026-05-25T09:43:55.000Z</time>
      </trkpt>
      <trkpt lat="44.63342" lon="5.19548">
        <ele>1367</ele>
        <time>2026-05-25T09:43:56.000Z</time>
      </trkpt>
      <trkpt lat="44.63342" lon="5.19548">
        <ele>1367</ele>
        <time>2026-05-25T09:43:57.000Z</time>
      </trkpt>
      <trkpt lat="44.63342" lon="5.19548">
        <ele>1367</ele>
        <time>2026-05-25T09:43:58.000Z</time>
      </trkpt>
      <trkpt lat="44.63342" lon="5.19548">
        <ele>1367</ele>
        <time>2026-05-25T09:43:59.000Z</time>
      </trkpt>
      <trkpt lat="44.63342" lon="5.19548">
        <ele>1367</ele>
        <time>2026-05-25T09:44:00.000Z</time>
      </trkpt>
      <trkpt lat="44.63342" lon="5.19548">
        <ele>1367</ele>
        <time>2026-05-25T09:44:01.000Z</time>
      </trkpt>
      <trkpt lat="44.63342" lon="5.19548">
        <ele>1367</ele>
        <time>2026-05-25T09:44:02.000Z</time>
      </trkpt>
      <trkpt lat="44.63342" lon="5.19548">
        <ele>1367</ele>
        <time>2026-05-25T09:44:03.000Z</time>
      </trkpt>
      <trkpt lat="44.63342" lon="5.19548">
        <ele>1367</ele>
        <time>2026-05-25T09:44:04.000Z</time>
      </trkpt>
      <trkpt lat="44.63342" lon="5.19548">
        <ele>1367</ele>
        <time>2026-05-25T09:44:05.000Z</time>
      </trkpt>
      <trkpt lat="44.63342" lon="5.19548">
        <ele>1367</ele>
        <time>2026-05-25T09:44:06.000Z</time>
      </trkpt>
      <trkpt lat="44.63342" lon="5.19548">
        <ele>1367</ele>
        <time>2026-05-25T09:44:07.000Z</time>
      </trkpt>
      <trkpt lat="44.63342" lon="5.19548">
        <ele>1367</ele>
        <time>2026-05-25T09:44:08.000Z</time>
      </trkpt>
      <trkpt lat="44.63342" lon="5.19548">
        <ele>1367</ele>
        <time>2026-05-25T09:44:09.000Z</time>
      </trkpt>
      <trkpt lat="44.63342" lon="5.19548">
        <ele>1367</ele>
        <time>2026-05-25T09:44:10.000Z</time>
      </trkpt>
      <trkpt lat="44.63342" lon="5.19548">
        <ele>1367</ele>
        <time>2026-05-25T09:44:11.000Z</time>
      </trkpt>
      <trkpt lat="44.63342" lon="5.19548">
        <ele>1367</ele>
        <time>2026-05-25T09:44:12.000Z</time>
      </trkpt>
      <trkpt lat="44.63342" lon="5.19548">
        <ele>1367</ele>
        <time>2026-05-25T09:44:13.000Z</time>
      </trkpt>
      <trkpt lat="44.63342" lon="5.19548">
        <ele>1367</ele>
        <time>2026-05-25T09:44:14.000Z</time>
      </trkpt>
      <trkpt lat="44.63342" lon="5.19548">
        <ele>1367</ele>
        <time>2026-05-25T09:44:15.000Z</time>
      </trkpt>
      <trkpt lat="44.63342" lon="5.19548">
        <ele>1367</ele>
        <time>2026-05-25T09:44:16.000Z</time>
      </trkpt>
      <trkpt lat="44.63342" lon="5.19548">
        <ele>1367</ele>
        <time>2026-05-25T09:44:17.000Z</time>
      </trkpt>
      <trkpt lat="44.63341" lon="5.19546">
        <ele>1366</ele>
        <time>2026-05-25T09:44:18.000Z</time>
      </trkpt>
      <trkpt lat="44.63341" lon="5.19546">
        <ele>1366</ele>
        <time>2026-05-25T09:44:19.000Z</time>
      </trkpt>
      <trkpt lat="44.63341" lon="5.19545">
        <ele>1366</ele>
        <time>2026-05-25T09:44:20.000Z</time>
      </trkpt>
      <trkpt lat="44.63341" lon="5.19545">
        <ele>1366</ele>
        <time>2026-05-25T09:44:21.000Z</time>
      </trkpt>
      <trkpt lat="44.63341" lon="5.19545">
        <ele>1366</ele>
        <time>2026-05-25T09:44:22.000Z</time>
      </trkpt>
      <trkpt lat="44.63341" lon="5.19545">
        <ele>1366</ele>
        <time>2026-05-25T09:44:23.000Z</time>
      </trkpt>
      <trkpt lat="44.63341" lon="5.19545">
        <ele>1366</ele>
        <time>2026-05-25T09:44:24.000Z</time>
      </trkpt>
      <trkpt lat="44.63341" lon="5.19545">
        <ele>1366</ele>
        <time>2026-05-25T09:44:25.000Z</time>
      </trkpt>
      <trkpt lat="44.63341" lon="5.19545">
        <ele>1366</ele>
        <time>2026-05-25T09:44:26.000Z</time>
      </trkpt>
      <trkpt lat="44.63341" lon="5.19545">
        <ele>1366</ele>
        <time>2026-05-25T09:44:27.000Z</time>
      </trkpt>
      <trkpt lat="44.63341" lon="5.19545">
        <ele>1366</ele>
        <time>2026-05-25T09:44:28.000Z</time>
      </trkpt>
      <trkpt lat="44.63341" lon="5.19545">
        <ele>1366</ele>
        <time>2026-05-25T09:44:29.000Z</time>
      </trkpt>
      <trkpt lat="44.63341" lon="5.19545">
        <ele>1366</ele>
        <time>2026-05-25T09:44:30.000Z</time>
      </trkpt>
      <trkpt lat="44.63341" lon="5.19545">
        <ele>1366</ele>
        <time>2026-05-25T09:44:31.000Z</time>
      </trkpt>
      <trkpt lat="44.63341" lon="5.19545">
        <ele>1366</ele>
        <time>2026-05-25T09:44:32.000Z</time>
      </trkpt>
      <trkpt lat="44.63341" lon="5.19545">
        <ele>1366</ele>
        <time>2026-05-25T09:44:33.000Z</time>
      </trkpt>
      <trkpt lat="44.63341" lon="5.19545">
        <ele>1366</ele>
        <time>2026-05-25T09:44:34.000Z</time>
      </trkpt>
      <trkpt lat="44.63341" lon="5.19545">
        <ele>1366</ele>
        <time>2026-05-25T09:44:35.000Z</time>
      </trkpt>
      <trkpt lat="44.63341" lon="5.19545">
        <ele>1366</ele>
        <time>2026-05-25T09:44:36.000Z</time>
      </trkpt>
      <trkpt lat="44.63341" lon="5.19545">
        <ele>1366</ele>
        <time>2026-05-25T09:44:37.000Z</time>
      </trkpt>
      <trkpt lat="44.63341" lon="5.19545">
        <ele>1366</ele>
        <time>2026-05-25T09:44:38.000Z</time>
      </trkpt>
      <trkpt lat="44.63341" lon="5.19545">
        <ele>1366</ele>
        <time>2026-05-25T09:44:39.000Z</time>
      </trkpt>
      <trkpt lat="44.63341" lon="5.19545">
        <ele>1366</ele>
        <time>2026-05-25T09:44:40.000Z</time>
      </trkpt>
      <trkpt lat="44.63341" lon="5.19545">
        <ele>1366</ele>
        <time>2026-05-25T09:44:41.000Z</time>
      </trkpt>
      <trkpt lat="44.63341" lon="5.19545">
        <ele>1366</ele>
        <time>2026-05-25T09:44:42.000Z</time>
      </trkpt>
      <trkpt lat="44.63341" lon="5.19545">
        <ele>1366</ele>
        <time>2026-05-25T09:44:43.000Z</time>
      </trkpt>
      <trkpt lat="44.63341" lon="5.19545">
        <ele>1366</ele>
        <time>2026-05-25T09:44:44.000Z</time>
      </trkpt>
      <trkpt lat="44.63341" lon="5.19545">
        <ele>1366</ele>
        <time>2026-05-25T09:44:45.000Z</time>
      </trkpt>
      <trkpt lat="44.63341" lon="5.19545">
        <ele>1366</ele>
        <time>2026-05-25T09:44:46.000Z</time>
      </trkpt>
      <trkpt lat="44.63341" lon="5.19545">
        <ele>1366</ele>
        <time>2026-05-25T09:44:47.000Z</time>
      </trkpt>
      <trkpt lat="44.63341" lon="5.19545">
        <ele>1366</ele>
        <time>2026-05-25T09:44:48.000Z</time>
      </trkpt>
      <trkpt lat="44.63341" lon="5.19545">
        <ele>1366</ele>
        <time>2026-05-25T09:44:49.000Z</time>
      </trkpt>
      <trkpt lat="44.63341" lon="5.19545">
        <ele>1366</ele>
        <time>2026-05-25T09:44:50.000Z</time>
      </trkpt>
      <trkpt lat="44.63341" lon="5.19545">
        <ele>1366</ele>
        <time>2026-05-25T09:44:51.000Z</time>
      </trkpt>
      <trkpt lat="44.63341" lon="5.19545">
        <ele>1366</ele>
        <time>2026-05-25T09:44:52.000Z</time>
      </trkpt>
      <trkpt lat="44.63341" lon="5.19545">
        <ele>1366</ele>
        <time>2026-05-25T09:44:53.000Z</time>
      </trkpt>
      <trkpt lat="44.63341" lon="5.19545">
        <ele>1366</ele>
        <time>2026-05-25T09:44:54.000Z</time>
      </trkpt>
      <trkpt lat="44.63341" lon="5.19545">
        <ele>1366</ele>
        <time>2026-05-25T09:44:55.000Z</time>
      </trkpt>
      <trkpt lat="44.63341" lon="5.19545">
        <ele>1366</ele>
        <time>2026-05-25T09:44:56.000Z</time>
      </trkpt>
      <trkpt lat="44.63341" lon="5.19545">
        <ele>1366</ele>
        <time>2026-05-25T09:44:57.000Z</time>
      </trkpt>
      <trkpt lat="44.63341" lon="5.19545">
        <ele>1366</ele>
        <time>2026-05-25T09:44:58.000Z</time>
      </trkpt>
      <trkpt lat="44.63341" lon="5.19545">
        <ele>1366</ele>
        <time>2026-05-25T09:44:59.000Z</time>
      </trkpt>
      <trkpt lat="44.63341" lon="5.19545">
        <ele>1366</ele>
        <time>2026-05-25T09:45:00.000Z</time>
      </trkpt>
      <trkpt lat="44.63341" lon="5.19545">
        <ele>1366</ele>
        <time>2026-05-25T09:45:01.000Z</time>
      </trkpt>
      <trkpt lat="44.63341" lon="5.19545">
        <ele>1366</ele>
        <time>2026-05-25T09:45:02.000Z</time>
      </trkpt>
      <trkpt lat="44.63341" lon="5.19545">
        <ele>1366</ele>
        <time>2026-05-25T09:45:03.000Z</time>
      </trkpt>
      <trkpt lat="44.63341" lon="5.19545">
        <ele>1366</ele>
        <time>2026-05-25T09:45:04.000Z</time>
      </trkpt>
      <trkpt lat="44.63341" lon="5.19545">
        <ele>1366</ele>
        <time>2026-05-25T09:45:05.000Z</time>
      </trkpt>
      <trkpt lat="44.63341" lon="5.19545">
        <ele>1366</ele>
        <time>2026-05-25T09:45:06.000Z</time>
      </trkpt>
      <trkpt lat="44.63341" lon="5.19545">
        <ele>1366</ele>
        <time>2026-05-25T09:45:07.000Z</time>
      </trkpt>
      <trkpt lat="44.63341" lon="5.19545">
        <ele>1366</ele>
        <time>2026-05-25T09:45:08.000Z</time>
      </trkpt>
      <trkpt lat="44.63341" lon="5.19545">
        <ele>1366</ele>
        <time>2026-05-25T09:45:09.000Z</time>
      </trkpt>
      <trkpt lat="44.63341" lon="5.19545">
        <ele>1366</ele>
        <time>2026-05-25T09:45:10.000Z</time>
      </trkpt>
      <trkpt lat="44.63341" lon="5.19545">
        <ele>1366</ele>
        <time>2026-05-25T09:45:11.000Z</time>
      </trkpt>
      <trkpt lat="44.63341" lon="5.19545">
        <ele>1366</ele>
        <time>2026-05-25T09:45:12.000Z</time>
      </trkpt>
      <trkpt lat="44.63341" lon="5.19545">
        <ele>1366</ele>
        <time>2026-05-25T09:45:13.000Z</time>
      </trkpt>
      <trkpt lat="44.63341" lon="5.19545">
        <ele>1366</ele>
        <time>2026-05-25T09:45:14.000Z</time>
      </trkpt>
      <trkpt lat="44.63341" lon="5.19545">
        <ele>1366</ele>
        <time>2026-05-25T09:45:15.000Z</time>
      </trkpt>
      <trkpt lat="44.63341" lon="5.19545">
        <ele>1366</ele>
        <time>2026-05-25T09:45:16.000Z</time>
      </trkpt>
      <trkpt lat="44.63341" lon="5.19545">
        <ele>1366</ele>
        <time>2026-05-25T09:45:17.000Z</time>
      </trkpt>
      <trkpt lat="44.63341" lon="5.19545">
        <ele>1366</ele>
        <time>2026-05-25T09:45:18.000Z</time>
      </trkpt>
      <trkpt lat="44.63341" lon="5.19545">
        <ele>1366</ele>
        <time>2026-05-25T09:45:19.000Z</time>
      </trkpt>
      <trkpt lat="44.63341" lon="5.19545">
        <ele>1366</ele>
        <time>2026-05-25T09:45:20.000Z</time>
      </trkpt>
      <trkpt lat="44.63341" lon="5.19545">
        <ele>1366</ele>
        <time>2026-05-25T09:45:21.000Z</time>
      </trkpt>
      <trkpt lat="44.63341" lon="5.19545">
        <ele>1366</ele>
        <time>2026-05-25T09:45:22.000Z</time>
      </trkpt>
      <trkpt lat="44.63341" lon="5.19545">
        <ele>1366</ele>
        <time>2026-05-25T09:45:23.000Z</time>
      </trkpt>
      <trkpt lat="44.63341" lon="5.19545">
        <ele>1366</ele>
        <time>2026-05-25T09:45:24.000Z</time>
      </trkpt>
      <trkpt lat="44.63341" lon="5.19545">
        <ele>1366</ele>
        <time>2026-05-25T09:45:25.000Z</time>
      </trkpt>
      <trkpt lat="44.63341" lon="5.19545">
        <ele>1366</ele>
        <time>2026-05-25T09:45:26.000Z</time>
      </trkpt>
      <trkpt lat="44.63341" lon="5.19545">
        <ele>1366</ele>
        <time>2026-05-25T09:45:27.000Z</time>
      </trkpt>
      <trkpt lat="44.63341" lon="5.19545">
        <ele>1366</ele>
        <time>2026-05-25T09:45:28.000Z</time>
      </trkpt>
      <trkpt lat="44.63341" lon="5.19545">
        <ele>1366</ele>
        <time>2026-05-25T09:45:29.000Z</time>
      </trkpt>
      <trkpt lat="44.63341" lon="5.19545">
        <ele>1366</ele>
        <time>2026-05-25T09:45:30.000Z</time>
      </trkpt>
      <trkpt lat="44.63341" lon="5.19545">
        <ele>1366</ele>
        <time>2026-05-25T09:45:31.000Z</time>
      </trkpt>
      <trkpt lat="44.63341" lon="5.19545">
        <ele>1366</ele>
        <time>2026-05-25T09:45:32.000Z</time>
      </trkpt>
      <trkpt lat="44.63341" lon="5.19545">
        <ele>1366</ele>
        <time>2026-05-25T09:45:33.000Z</time>
      </trkpt>
      <trkpt lat="44.63341" lon="5.19545">
        <ele>1366</ele>
        <time>2026-05-25T09:45:34.000Z</time>
      </trkpt>
      <trkpt lat="44.63341" lon="5.19545">
        <ele>1366</ele>
        <time>2026-05-25T09:45:35.000Z</time>
      </trkpt>
      <trkpt lat="44.63341" lon="5.19545">
        <ele>1366</ele>
        <time>2026-05-25T09:45:36.000Z</time>
      </trkpt>
      <trkpt lat="44.63341" lon="5.19545">
        <ele>1366</ele>
        <time>2026-05-25T09:45:37.000Z</time>
      </trkpt>
      <trkpt lat="44.63341" lon="5.19545">
        <ele>1366</ele>
        <time>2026-05-25T09:45:38.000Z</time>
      </trkpt>
      <trkpt lat="44.63341" lon="5.19545">
        <ele>1366</ele>
        <time>2026-05-25T09:45:39.000Z</time>
      </trkpt>
      <trkpt lat="44.63341" lon="5.19545">
        <ele>1366</ele>
        <time>2026-05-25T09:45:40.000Z</time>
      </trkpt>
      <trkpt lat="44.63341" lon="5.19545">
        <ele>1366</ele>
        <time>2026-05-25T09:45:41.000Z</time>
      </trkpt>
      <trkpt lat="44.63341" lon="5.19545">
        <ele>1366</ele>
        <time>2026-05-25T09:45:42.000Z</time>
      </trkpt>
      <trkpt lat="44.63341" lon="5.19545">
        <ele>1366</ele>
        <time>2026-05-25T09:45:43.000Z</time>
      </trkpt>
      <trkpt lat="44.63341" lon="5.19545">
        <ele>1366</ele>
        <time>2026-05-25T09:45:44.000Z</time>
      </trkpt>
      <trkpt lat="44.63341" lon="5.19545">
        <ele>1366</ele>
        <time>2026-05-25T09:45:45.000Z</time>
      </trkpt>
      <trkpt lat="44.63341" lon="5.19545">
        <ele>1366</ele>
        <time>2026-05-25T09:45:46.000Z</time>
      </trkpt>
      <trkpt lat="44.63341" lon="5.19545">
        <ele>1366</ele>
        <time>2026-05-25T09:45:47.000Z</time>
      </trkpt>
      <trkpt lat="44.63341" lon="5.19545">
        <ele>1366</ele>
        <time>2026-05-25T09:45:48.000Z</time>
      </trkpt>
      <trkpt lat="44.63341" lon="5.19545">
        <ele>1366</ele>
        <time>2026-05-25T09:45:49.000Z</time>
      </trkpt>
      <trkpt lat="44.63341" lon="5.19545">
        <ele>1366</ele>
        <time>2026-05-25T09:45:50.000Z</time>
      </trkpt>
      <trkpt lat="44.63341" lon="5.19545">
        <ele>1366</ele>
        <time>2026-05-25T09:45:51.000Z</time>
      </trkpt>
      <trkpt lat="44.63341" lon="5.19545">
        <ele>1366</ele>
        <time>2026-05-25T09:45:52.000Z</time>
      </trkpt>
      <trkpt lat="44.63341" lon="5.19545">
        <ele>1366</ele>
        <time>2026-05-25T09:45:53.000Z</time>
      </trkpt>
      <trkpt lat="44.63341" lon="5.19545">
        <ele>1366</ele>
        <time>2026-05-25T09:45:54.000Z</time>
      </trkpt>
      <trkpt lat="44.63341" lon="5.19545">
        <ele>1366</ele>
        <time>2026-05-25T09:45:55.000Z</time>
      </trkpt>
      <trkpt lat="44.63341" lon="5.19545">
        <ele>1366</ele>
        <time>2026-05-25T09:45:56.000Z</time>
      </trkpt>
      <trkpt lat="44.63341" lon="5.19545">
        <ele>1366</ele>
        <time>2026-05-25T09:45:57.000Z</time>
      </trkpt>
      <trkpt lat="44.63341" lon="5.19545">
        <ele>1366</ele>
        <time>2026-05-25T09:45:58.000Z</time>
      </trkpt>
      <trkpt lat="44.63341" lon="5.19545">
        <ele>1366</ele>
        <time>2026-05-25T09:45:59.000Z</time>
      </trkpt>
      <trkpt lat="44.63341" lon="5.19545">
        <ele>1366</ele>
        <time>2026-05-25T09:46:00.000Z</time>
      </trkpt>
      <trkpt lat="44.63341" lon="5.19545">
        <ele>1366</ele>
        <time>2026-05-25T09:46:01.000Z</time>
      </trkpt>
      <trkpt lat="44.63341" lon="5.19545">
        <ele>1366</ele>
        <time>2026-05-25T09:46:02.000Z</time>
      </trkpt>
      <trkpt lat="44.63341" lon="5.19545">
        <ele>1366</ele>
        <time>2026-05-25T09:46:03.000Z</time>
      </trkpt>
      <trkpt lat="44.63339" lon="5.19544">
        <ele>1367</ele>
        <time>2026-05-25T09:46:04.000Z</time>
      </trkpt>
      <trkpt lat="44.63339" lon="5.19544">
        <ele>1367</ele>
        <time>2026-05-25T09:46:05.000Z</time>
      </trkpt>
      <trkpt lat="44.63339" lon="5.19544">
        <ele>1367</ele>
        <time>2026-05-25T09:46:06.000Z</time>
      </trkpt>
      <trkpt lat="44.63339" lon="5.19544">
        <ele>1367</ele>
        <time>2026-05-25T09:46:07.000Z</time>
      </trkpt>
      <trkpt lat="44.63339" lon="5.19544">
        <ele>1367</ele>
        <time>2026-05-25T09:46:08.000Z</time>
      </trkpt>
      <trkpt lat="44.63339" lon="5.19544">
        <ele>1367</ele>
        <time>2026-05-25T09:46:09.000Z</time>
      </trkpt>
      <trkpt lat="44.63339" lon="5.19544">
        <ele>1367</ele>
        <time>2026-05-25T09:46:10.000Z</time>
      </trkpt>
      <trkpt lat="44.63339" lon="5.19544">
        <ele>1367</ele>
        <time>2026-05-25T09:46:11.000Z</time>
      </trkpt>
      <trkpt lat="44.63339" lon="5.19544">
        <ele>1367</ele>
        <time>2026-05-25T09:46:12.000Z</time>
      </trkpt>
      <trkpt lat="44.63339" lon="5.19544">
        <ele>1367</ele>
        <time>2026-05-25T09:46:13.000Z</time>
      </trkpt>
      <trkpt lat="44.63339" lon="5.19544">
        <ele>1367</ele>
        <time>2026-05-25T09:46:14.000Z</time>
      </trkpt>
      <trkpt lat="44.63339" lon="5.19544">
        <ele>1367</ele>
        <time>2026-05-25T09:46:15.000Z</time>
      </trkpt>
      <trkpt lat="44.63339" lon="5.19544">
        <ele>1367</ele>
        <time>2026-05-25T09:46:16.000Z</time>
      </trkpt>
      <trkpt lat="44.63339" lon="5.19544">
        <ele>1367</ele>
        <time>2026-05-25T09:46:17.000Z</time>
      </trkpt>
      <trkpt lat="44.63339" lon="5.19544">
        <ele>1367</ele>
        <time>2026-05-25T09:46:18.000Z</time>
      </trkpt>
      <trkpt lat="44.63339" lon="5.19544">
        <ele>1367</ele>
        <time>2026-05-25T09:46:19.000Z</time>
      </trkpt>
      <trkpt lat="44.63339" lon="5.19544">
        <ele>1367</ele>
        <time>2026-05-25T09:46:20.000Z</time>
      </trkpt>
      <trkpt lat="44.63339" lon="5.19544">
        <ele>1367</ele>
        <time>2026-05-25T09:46:21.000Z</time>
      </trkpt>
      <trkpt lat="44.63339" lon="5.19544">
        <ele>1367</ele>
        <time>2026-05-25T09:46:22.000Z</time>
      </trkpt>
      <trkpt lat="44.63339" lon="5.19544">
        <ele>1367</ele>
        <time>2026-05-25T09:46:23.000Z</time>
      </trkpt>
      <trkpt lat="44.63339" lon="5.19544">
        <ele>1367</ele>
        <time>2026-05-25T09:46:24.000Z</time>
      </trkpt>
      <trkpt lat="44.63339" lon="5.19544">
        <ele>1367</ele>
        <time>2026-05-25T09:46:25.000Z</time>
      </trkpt>
      <trkpt lat="44.63339" lon="5.19544">
        <ele>1367</ele>
        <time>2026-05-25T09:46:26.000Z</time>
      </trkpt>
      <trkpt lat="44.63339" lon="5.19544">
        <ele>1367</ele>
        <time>2026-05-25T09:46:27.000Z</time>
      </trkpt>
      <trkpt lat="44.63339" lon="5.19544">
        <ele>1367</ele>
        <time>2026-05-25T09:46:28.000Z</time>
      </trkpt>
      <trkpt lat="44.63339" lon="5.19544">
        <ele>1367</ele>
        <time>2026-05-25T09:46:29.000Z</time>
      </trkpt>
      <trkpt lat="44.63339" lon="5.19544">
        <ele>1367</ele>
        <time>2026-05-25T09:46:30.000Z</time>
      </trkpt>
      <trkpt lat="44.63339" lon="5.19544">
        <ele>1367</ele>
        <time>2026-05-25T09:46:31.000Z</time>
      </trkpt>
      <trkpt lat="44.63339" lon="5.19544">
        <ele>1367</ele>
        <time>2026-05-25T09:46:32.000Z</time>
      </trkpt>
      <trkpt lat="44.63339" lon="5.19544">
        <ele>1366</ele>
        <time>2026-05-25T09:46:33.000Z</time>
      </trkpt>
      <trkpt lat="44.63339" lon="5.19545">
        <ele>1367</ele>
        <time>2026-05-25T09:46:34.000Z</time>
      </trkpt>
      <trkpt lat="44.63339" lon="5.19545">
        <ele>1367</ele>
        <time>2026-05-25T09:46:35.000Z</time>
      </trkpt>
      <trkpt lat="44.63339" lon="5.19545">
        <ele>1367</ele>
        <time>2026-05-25T09:46:36.000Z</time>
      </trkpt>
      <trkpt lat="44.63339" lon="5.19545">
        <ele>1367</ele>
        <time>2026-05-25T09:46:37.000Z</time>
      </trkpt>
      <trkpt lat="44.63339" lon="5.19545">
        <ele>1367</ele>
        <time>2026-05-25T09:46:38.000Z</time>
      </trkpt>
      <trkpt lat="44.63339" lon="5.19545">
        <ele>1367</ele>
        <time>2026-05-25T09:46:39.000Z</time>
      </trkpt>
      <trkpt lat="44.63339" lon="5.19544">
        <ele>1365</ele>
        <time>2026-05-25T09:46:40.000Z</time>
      </trkpt>
      <trkpt lat="44.63339" lon="5.19544">
        <ele>1365</ele>
        <time>2026-05-25T09:46:41.000Z</time>
      </trkpt>
      <trkpt lat="44.63339" lon="5.19544">
        <ele>1365</ele>
        <time>2026-05-25T09:46:42.000Z</time>
      </trkpt>
      <trkpt lat="44.63339" lon="5.19544">
        <ele>1365</ele>
        <time>2026-05-25T09:46:43.000Z</time>
      </trkpt>
      <trkpt lat="44.63339" lon="5.19544">
        <ele>1365</ele>
        <time>2026-05-25T09:46:44.000Z</time>
      </trkpt>
      <trkpt lat="44.63339" lon="5.19544">
        <ele>1365</ele>
        <time>2026-05-25T09:46:45.000Z</time>
      </trkpt>
      <trkpt lat="44.63339" lon="5.19544">
        <ele>1365</ele>
        <time>2026-05-25T09:46:46.000Z</time>
      </trkpt>
      <trkpt lat="44.63339" lon="5.19544">
        <ele>1365</ele>
        <time>2026-05-25T09:46:47.000Z</time>
      </trkpt>
      <trkpt lat="44.63339" lon="5.19544">
        <ele>1365</ele>
        <time>2026-05-25T09:46:48.000Z</time>
      </trkpt>
      <trkpt lat="44.63339" lon="5.19544">
        <ele>1365</ele>
        <time>2026-05-25T09:46:49.000Z</time>
      </trkpt>
      <trkpt lat="44.63339" lon="5.19544">
        <ele>1365</ele>
        <time>2026-05-25T09:46:50.000Z</time>
      </trkpt>
      <trkpt lat="44.63339" lon="5.19544">
        <ele>1365</ele>
        <time>2026-05-25T09:46:51.000Z</time>
      </trkpt>
      <trkpt lat="44.63339" lon="5.19544">
        <ele>1365</ele>
        <time>2026-05-25T09:46:52.000Z</time>
      </trkpt>
      <trkpt lat="44.63339" lon="5.19544">
        <ele>1365</ele>
        <time>2026-05-25T09:46:53.000Z</time>
      </trkpt>
      <trkpt lat="44.63339" lon="5.19544">
        <ele>1365</ele>
        <time>2026-05-25T09:46:54.000Z</time>
      </trkpt>
      <trkpt lat="44.63339" lon="5.19544">
        <ele>1365</ele>
        <time>2026-05-25T09:46:55.000Z</time>
      </trkpt>
      <trkpt lat="44.63339" lon="5.19544">
        <ele>1365</ele>
        <time>2026-05-25T09:46:56.000Z</time>
      </trkpt>
      <trkpt lat="44.63339" lon="5.19544">
        <ele>1365</ele>
        <time>2026-05-25T09:46:57.000Z</time>
      </trkpt>
      <trkpt lat="44.63339" lon="5.19544">
        <ele>1365</ele>
        <time>2026-05-25T09:46:58.000Z</time>
      </trkpt>
      <trkpt lat="44.63339" lon="5.19544">
        <ele>1365</ele>
        <time>2026-05-25T09:46:59.000Z</time>
      </trkpt>
      <trkpt lat="44.63339" lon="5.19544">
        <ele>1365</ele>
        <time>2026-05-25T09:47:00.000Z</time>
      </trkpt>
      <trkpt lat="44.63339" lon="5.19544">
        <ele>1365</ele>
        <time>2026-05-25T09:47:01.000Z</time>
      </trkpt>
      <trkpt lat="44.63339" lon="5.19544">
        <ele>1365</ele>
        <time>2026-05-25T09:47:02.000Z</time>
      </trkpt>
      <trkpt lat="44.63339" lon="5.19544">
        <ele>1365</ele>
        <time>2026-05-25T09:47:03.000Z</time>
      </trkpt>
      <trkpt lat="44.63339" lon="5.19544">
        <ele>1365</ele>
        <time>2026-05-25T09:47:04.000Z</time>
      </trkpt>
      <trkpt lat="44.63339" lon="5.19544">
        <ele>1365</ele>
        <time>2026-05-25T09:47:05.000Z</time>
      </trkpt>
      <trkpt lat="44.63339" lon="5.19544">
        <ele>1365</ele>
        <time>2026-05-25T09:47:06.000Z</time>
      </trkpt>
      <trkpt lat="44.63339" lon="5.19544">
        <ele>1365</ele>
        <time>2026-05-25T09:47:07.000Z</time>
      </trkpt>
      <trkpt lat="44.63339" lon="5.19544">
        <ele>1365</ele>
        <time>2026-05-25T09:47:08.000Z</time>
      </trkpt>
      <trkpt lat="44.63339" lon="5.19544">
        <ele>1365</ele>
        <time>2026-05-25T09:47:09.000Z</time>
      </trkpt>
      <trkpt lat="44.63339" lon="5.19544">
        <ele>1365</ele>
        <time>2026-05-25T09:47:10.000Z</time>
      </trkpt>
      <trkpt lat="44.63339" lon="5.19544">
        <ele>1365</ele>
        <time>2026-05-25T09:47:11.000Z</time>
      </trkpt>
      <trkpt lat="44.63339" lon="5.19544">
        <ele>1365</ele>
        <time>2026-05-25T09:47:12.000Z</time>
      </trkpt>
      <trkpt lat="44.63339" lon="5.19544">
        <ele>1365</ele>
        <time>2026-05-25T09:47:13.000Z</time>
      </trkpt>
      <trkpt lat="44.63339" lon="5.19544">
        <ele>1365</ele>
        <time>2026-05-25T09:47:14.000Z</time>
      </trkpt>
      <trkpt lat="44.63339" lon="5.19544">
        <ele>1365</ele>
        <time>2026-05-25T09:47:15.000Z</time>
      </trkpt>
      <trkpt lat="44.63339" lon="5.19544">
        <ele>1365</ele>
        <time>2026-05-25T09:47:16.000Z</time>
      </trkpt>
      <trkpt lat="44.63339" lon="5.19544">
        <ele>1365</ele>
        <time>2026-05-25T09:47:17.000Z</time>
      </trkpt>
      <trkpt lat="44.63339" lon="5.19544">
        <ele>1365</ele>
        <time>2026-05-25T09:47:18.000Z</time>
      </trkpt>
      <trkpt lat="44.63339" lon="5.19544">
        <ele>1365</ele>
        <time>2026-05-25T09:47:19.000Z</time>
      </trkpt>
      <trkpt lat="44.63339" lon="5.19544">
        <ele>1365</ele>
        <time>2026-05-25T09:47:20.000Z</time>
      </trkpt>
      <trkpt lat="44.63339" lon="5.19544">
        <ele>1365</ele>
        <time>2026-05-25T09:47:21.000Z</time>
      </trkpt>
      <trkpt lat="44.63339" lon="5.19544">
        <ele>1365</ele>
        <time>2026-05-25T09:47:22.000Z</time>
      </trkpt>
      <trkpt lat="44.63339" lon="5.19544">
        <ele>1365</ele>
        <time>2026-05-25T09:47:23.000Z</time>
      </trkpt>
      <trkpt lat="44.63339" lon="5.19544">
        <ele>1365</ele>
        <time>2026-05-25T09:47:24.000Z</time>
      </trkpt>
      <trkpt lat="44.63339" lon="5.19544">
        <ele>1365</ele>
        <time>2026-05-25T09:47:25.000Z</time>
      </trkpt>
      <trkpt lat="44.63339" lon="5.19544">
        <ele>1365</ele>
        <time>2026-05-25T09:47:26.000Z</time>
      </trkpt>
      <trkpt lat="44.63339" lon="5.19544">
        <ele>1365</ele>
        <time>2026-05-25T09:47:27.000Z</time>
      </trkpt>
      <trkpt lat="44.63339" lon="5.19544">
        <ele>1365</ele>
        <time>2026-05-25T09:47:28.000Z</time>
      </trkpt>
      <trkpt lat="44.63339" lon="5.19544">
        <ele>1365</ele>
        <time>2026-05-25T09:47:29.000Z</time>
      </trkpt>
      <trkpt lat="44.63339" lon="5.19544">
        <ele>1365</ele>
        <time>2026-05-25T09:47:30.000Z</time>
      </trkpt>
      <trkpt lat="44.63339" lon="5.19544">
        <ele>1365</ele>
        <time>2026-05-25T09:47:31.000Z</time>
      </trkpt>
      <trkpt lat="44.63339" lon="5.19544">
        <ele>1365</ele>
        <time>2026-05-25T09:47:32.000Z</time>
      </trkpt>
      <trkpt lat="44.63339" lon="5.19544">
        <ele>1365</ele>
        <time>2026-05-25T09:47:33.000Z</time>
      </trkpt>
      <trkpt lat="44.63339" lon="5.19544">
        <ele>1365</ele>
        <time>2026-05-25T09:47:34.000Z</time>
      </trkpt>
      <trkpt lat="44.63339" lon="5.19544">
        <ele>1365</ele>
        <time>2026-05-25T09:47:35.000Z</time>
      </trkpt>
      <trkpt lat="44.63339" lon="5.19544">
        <ele>1365</ele>
        <time>2026-05-25T09:47:36.000Z</time>
      </trkpt>
      <trkpt lat="44.63339" lon="5.19544">
        <ele>1365</ele>
        <time>2026-05-25T09:47:37.000Z</time>
      </trkpt>
      <trkpt lat="44.63339" lon="5.19544">
        <ele>1365</ele>
        <time>2026-05-25T09:47:38.000Z</time>
      </trkpt>
      <trkpt lat="44.63339" lon="5.19544">
        <ele>1365</ele>
        <time>2026-05-25T09:47:39.000Z</time>
      </trkpt>
      <trkpt lat="44.63339" lon="5.19544">
        <ele>1365</ele>
        <time>2026-05-25T09:47:40.000Z</time>
      </trkpt>
      <trkpt lat="44.63339" lon="5.19544">
        <ele>1365</ele>
        <time>2026-05-25T09:47:41.000Z</time>
      </trkpt>
      <trkpt lat="44.63339" lon="5.19544">
        <ele>1365</ele>
        <time>2026-05-25T09:47:42.000Z</time>
      </trkpt>
      <trkpt lat="44.63339" lon="5.19544">
        <ele>1365</ele>
        <time>2026-05-25T09:47:43.000Z</time>
      </trkpt>
      <trkpt lat="44.63339" lon="5.19544">
        <ele>1365</ele>
        <time>2026-05-25T09:47:44.000Z</time>
      </trkpt>
      <trkpt lat="44.63339" lon="5.19544">
        <ele>1365</ele>
        <time>2026-05-25T09:47:45.000Z</time>
      </trkpt>
      <trkpt lat="44.63339" lon="5.19544">
        <ele>1365</ele>
        <time>2026-05-25T09:47:46.000Z</time>
      </trkpt>
      <trkpt lat="44.63339" lon="5.19544">
        <ele>1365</ele>
        <time>2026-05-25T09:47:47.000Z</time>
      </trkpt>
      <trkpt lat="44.63339" lon="5.19544">
        <ele>1365</ele>
        <time>2026-05-25T09:47:48.000Z</time>
      </trkpt>
      <trkpt lat="44.63339" lon="5.19544">
        <ele>1365</ele>
        <time>2026-05-25T09:47:49.000Z</time>
      </trkpt>
      <trkpt lat="44.63339" lon="5.19544">
        <ele>1365</ele>
        <time>2026-05-25T09:47:50.000Z</time>
      </trkpt>
      <trkpt lat="44.63339" lon="5.19544">
        <ele>1365</ele>
        <time>2026-05-25T09:47:51.000Z</time>
      </trkpt>
      <trkpt lat="44.63339" lon="5.19544">
        <ele>1365</ele>
        <time>2026-05-25T09:47:52.000Z</time>
      </trkpt>
      <trkpt lat="44.63339" lon="5.19544">
        <ele>1365</ele>
        <time>2026-05-25T09:47:53.000Z</time>
      </trkpt>
      <trkpt lat="44.63339" lon="5.19544">
        <ele>1365</ele>
        <time>2026-05-25T09:47:54.000Z</time>
      </trkpt>
      <trkpt lat="44.63339" lon="5.19544">
        <ele>1365</ele>
        <time>2026-05-25T09:47:55.000Z</time>
      </trkpt>
      <trkpt lat="44.63339" lon="5.19544">
        <ele>1365</ele>
        <time>2026-05-25T09:47:56.000Z</time>
      </trkpt>
      <trkpt lat="44.63339" lon="5.19544">
        <ele>1365</ele>
        <time>2026-05-25T09:47:57.000Z</time>
      </trkpt>
      <trkpt lat="44.63339" lon="5.19544">
        <ele>1365</ele>
        <time>2026-05-25T09:47:58.000Z</time>
      </trkpt>
      <trkpt lat="44.63339" lon="5.19544">
        <ele>1365</ele>
        <time>2026-05-25T09:47:59.000Z</time>
      </trkpt>
      <trkpt lat="44.63339" lon="5.19544">
        <ele>1365</ele>
        <time>2026-05-25T09:48:00.000Z</time>
      </trkpt>
      <trkpt lat="44.63339" lon="5.19544">
        <ele>1365</ele>
        <time>2026-05-25T09:48:01.000Z</time>
      </trkpt>
      <trkpt lat="44.63339" lon="5.19544">
        <ele>1365</ele>
        <time>2026-05-25T09:48:02.000Z</time>
      </trkpt>
      <trkpt lat="44.63339" lon="5.19544">
        <ele>1365</ele>
        <time>2026-05-25T09:48:03.000Z</time>
      </trkpt>
      <trkpt lat="44.63339" lon="5.19544">
        <ele>1365</ele>
        <time>2026-05-25T09:48:04.000Z</time>
      </trkpt>
      <trkpt lat="44.63339" lon="5.19544">
        <ele>1365</ele>
        <time>2026-05-25T09:48:05.000Z</time>
      </trkpt>
      <trkpt lat="44.63339" lon="5.19544">
        <ele>1365</ele>
        <time>2026-05-25T09:48:06.000Z</time>
      </trkpt>
      <trkpt lat="44.63339" lon="5.19544">
        <ele>1365</ele>
        <time>2026-05-25T09:48:07.000Z</time>
      </trkpt>
      <trkpt lat="44.63339" lon="5.19544">
        <ele>1365</ele>
        <time>2026-05-25T09:48:08.000Z</time>
      </trkpt>
      <trkpt lat="44.63339" lon="5.19544">
        <ele>1365</ele>
        <time>2026-05-25T09:48:09.000Z</time>
      </trkpt>
      <trkpt lat="44.63339" lon="5.19544">
        <ele>1365</ele>
        <time>2026-05-25T09:48:10.000Z</time>
      </trkpt>
      <trkpt lat="44.63339" lon="5.19544">
        <ele>1365</ele>
        <time>2026-05-25T09:48:11.000Z</time>
      </trkpt>
      <trkpt lat="44.63339" lon="5.19544">
        <ele>1365</ele>
        <time>2026-05-25T09:48:12.000Z</time>
      </trkpt>
      <trkpt lat="44.63339" lon="5.19544">
        <ele>1365</ele>
        <time>2026-05-25T09:48:13.000Z</time>
      </trkpt>
      <trkpt lat="44.63339" lon="5.19544">
        <ele>1365</ele>
        <time>2026-05-25T09:48:14.000Z</time>
      </trkpt>
      <trkpt lat="44.63339" lon="5.19544">
        <ele>1365</ele>
        <time>2026-05-25T09:48:15.000Z</time>
      </trkpt>
      <trkpt lat="44.63339" lon="5.19544">
        <ele>1365</ele>
        <time>2026-05-25T09:48:16.000Z</time>
      </trkpt>
      <trkpt lat="44.63339" lon="5.19544">
        <ele>1365</ele>
        <time>2026-05-25T09:48:17.000Z</time>
      </trkpt>
      <trkpt lat="44.6334" lon="5.19546">
        <ele>1366</ele>
        <time>2026-05-25T09:48:18.000Z</time>
      </trkpt>
      <trkpt lat="44.6334" lon="5.19546">
        <ele>1366</ele>
        <time>2026-05-25T09:48:19.000Z</time>
      </trkpt>
      <trkpt lat="44.6334" lon="5.19546">
        <ele>1366</ele>
        <time>2026-05-25T09:48:20.000Z</time>
      </trkpt>
      <trkpt lat="44.6334" lon="5.19546">
        <ele>1366</ele>
        <time>2026-05-25T09:48:21.000Z</time>
      </trkpt>
      <trkpt lat="44.6334" lon="5.19546">
        <ele>1366</ele>
        <time>2026-05-25T09:48:22.000Z</time>
      </trkpt>
      <trkpt lat="44.6334" lon="5.19546">
        <ele>1366</ele>
        <time>2026-05-25T09:48:23.000Z</time>
      </trkpt>
      <trkpt lat="44.6334" lon="5.19546">
        <ele>1366</ele>
        <time>2026-05-25T09:48:24.000Z</time>
      </trkpt>
      <trkpt lat="44.6334" lon="5.19546">
        <ele>1366</ele>
        <time>2026-05-25T09:48:25.000Z</time>
      </trkpt>
      <trkpt lat="44.6334" lon="5.19546">
        <ele>1366</ele>
        <time>2026-05-25T09:48:26.000Z</time>
      </trkpt>
      <trkpt lat="44.6334" lon="5.19546">
        <ele>1366</ele>
        <time>2026-05-25T09:48:27.000Z</time>
      </trkpt>
      <trkpt lat="44.6334" lon="5.19546">
        <ele>1366</ele>
        <time>2026-05-25T09:48:28.000Z</time>
      </trkpt>
      <trkpt lat="44.6334" lon="5.19546">
        <ele>1366</ele>
        <time>2026-05-25T09:48:29.000Z</time>
      </trkpt>
      <trkpt lat="44.6334" lon="5.19546">
        <ele>1366</ele>
        <time>2026-05-25T09:48:30.000Z</time>
      </trkpt>
      <trkpt lat="44.6334" lon="5.19546">
        <ele>1366</ele>
        <time>2026-05-25T09:48:31.000Z</time>
      </trkpt>
      <trkpt lat="44.6334" lon="5.19546">
        <ele>1366</ele>
        <time>2026-05-25T09:48:32.000Z</time>
      </trkpt>
      <trkpt lat="44.6334" lon="5.19546">
        <ele>1366</ele>
        <time>2026-05-25T09:48:33.000Z</time>
      </trkpt>
      <trkpt lat="44.6334" lon="5.19546">
        <ele>1366</ele>
        <time>2026-05-25T09:48:34.000Z</time>
      </trkpt>
      <trkpt lat="44.6334" lon="5.19546">
        <ele>1366</ele>
        <time>2026-05-25T09:48:35.000Z</time>
      </trkpt>
      <trkpt lat="44.6334" lon="5.19546">
        <ele>1366</ele>
        <time>2026-05-25T09:48:36.000Z</time>
      </trkpt>
      <trkpt lat="44.6334" lon="5.19546">
        <ele>1366</ele>
        <time>2026-05-25T09:48:37.000Z</time>
      </trkpt>
      <trkpt lat="44.6334" lon="5.19546">
        <ele>1366</ele>
        <time>2026-05-25T09:48:38.000Z</time>
      </trkpt>
      <trkpt lat="44.6334" lon="5.19546">
        <ele>1366</ele>
        <time>2026-05-25T09:48:39.000Z</time>
      </trkpt>
      <trkpt lat="44.6334" lon="5.19546">
        <ele>1366</ele>
        <time>2026-05-25T09:48:40.000Z</time>
      </trkpt>
      <trkpt lat="44.6334" lon="5.19546">
        <ele>1366</ele>
        <time>2026-05-25T09:48:41.000Z</time>
      </trkpt>
      <trkpt lat="44.6334" lon="5.19546">
        <ele>1366</ele>
        <time>2026-05-25T09:48:42.000Z</time>
      </trkpt>
      <trkpt lat="44.6334" lon="5.19546">
        <ele>1366</ele>
        <time>2026-05-25T09:48:43.000Z</time>
      </trkpt>
      <trkpt lat="44.6334" lon="5.19546">
        <ele>1366</ele>
        <time>2026-05-25T09:48:44.000Z</time>
      </trkpt>
      <trkpt lat="44.6334" lon="5.19546">
        <ele>1366</ele>
        <time>2026-05-25T09:48:45.000Z</time>
      </trkpt>
      <trkpt lat="44.6334" lon="5.19546">
        <ele>1366</ele>
        <time>2026-05-25T09:48:46.000Z</time>
      </trkpt>
      <trkpt lat="44.6334" lon="5.19546">
        <ele>1366</ele>
        <time>2026-05-25T09:48:47.000Z</time>
      </trkpt>
      <trkpt lat="44.6334" lon="5.19546">
        <ele>1366</ele>
        <time>2026-05-25T09:48:48.000Z</time>
      </trkpt>
      <trkpt lat="44.6334" lon="5.19546">
        <ele>1366</ele>
        <time>2026-05-25T09:48:49.000Z</time>
      </trkpt>
      <trkpt lat="44.6334" lon="5.19546">
        <ele>1366</ele>
        <time>2026-05-25T09:48:50.000Z</time>
      </trkpt>
      <trkpt lat="44.6334" lon="5.19546">
        <ele>1366</ele>
        <time>2026-05-25T09:48:51.000Z</time>
      </trkpt>
      <trkpt lat="44.6334" lon="5.19546">
        <ele>1366</ele>
        <time>2026-05-25T09:48:52.000Z</time>
      </trkpt>
      <trkpt lat="44.6334" lon="5.19546">
        <ele>1366</ele>
        <time>2026-05-25T09:48:53.000Z</time>
      </trkpt>
      <trkpt lat="44.6334" lon="5.19546">
        <ele>1366</ele>
        <time>2026-05-25T09:48:54.000Z</time>
      </trkpt>
      <trkpt lat="44.6334" lon="5.19546">
        <ele>1366</ele>
        <time>2026-05-25T09:48:55.000Z</time>
      </trkpt>
      <trkpt lat="44.6334" lon="5.19546">
        <ele>1366</ele>
        <time>2026-05-25T09:48:56.000Z</time>
      </trkpt>
      <trkpt lat="44.6334" lon="5.19546">
        <ele>1366</ele>
        <time>2026-05-25T09:48:57.000Z</time>
      </trkpt>
      <trkpt lat="44.6334" lon="5.19546">
        <ele>1366</ele>
        <time>2026-05-25T09:48:58.000Z</time>
      </trkpt>
      <trkpt lat="44.6334" lon="5.19546">
        <ele>1366</ele>
        <time>2026-05-25T09:48:59.000Z</time>
      </trkpt>
      <trkpt lat="44.6334" lon="5.19546">
        <ele>1366</ele>
        <time>2026-05-25T09:49:00.000Z</time>
      </trkpt>
      <trkpt lat="44.6334" lon="5.19546">
        <ele>1366</ele>
        <time>2026-05-25T09:49:01.000Z</time>
      </trkpt>
      <trkpt lat="44.6334" lon="5.19546">
        <ele>1366</ele>
        <time>2026-05-25T09:49:02.000Z</time>
      </trkpt>
      <trkpt lat="44.6334" lon="5.19546">
        <ele>1366</ele>
        <time>2026-05-25T09:49:03.000Z</time>
      </trkpt>
      <trkpt lat="44.6334" lon="5.19546">
        <ele>1366</ele>
        <time>2026-05-25T09:49:04.000Z</time>
      </trkpt>
      <trkpt lat="44.6334" lon="5.19546">
        <ele>1366</ele>
        <time>2026-05-25T09:49:05.000Z</time>
      </trkpt>
      <trkpt lat="44.6334" lon="5.19546">
        <ele>1366</ele>
        <time>2026-05-25T09:49:06.000Z</time>
      </trkpt>
      <trkpt lat="44.6334" lon="5.19546">
        <ele>1366</ele>
        <time>2026-05-25T09:49:07.000Z</time>
      </trkpt>
      <trkpt lat="44.6334" lon="5.19546">
        <ele>1366</ele>
        <time>2026-05-25T09:49:08.000Z</time>
      </trkpt>
      <trkpt lat="44.6334" lon="5.19546">
        <ele>1366</ele>
        <time>2026-05-25T09:49:09.000Z</time>
      </trkpt>
      <trkpt lat="44.6334" lon="5.19546">
        <ele>1366</ele>
        <time>2026-05-25T09:49:10.000Z</time>
      </trkpt>
      <trkpt lat="44.6334" lon="5.19546">
        <ele>1366</ele>
        <time>2026-05-25T09:49:11.000Z</time>
      </trkpt>
      <trkpt lat="44.6334" lon="5.19546">
        <ele>1366</ele>
        <time>2026-05-25T09:49:12.000Z</time>
      </trkpt>
      <trkpt lat="44.6334" lon="5.19546">
        <ele>1366</ele>
        <time>2026-05-25T09:49:13.000Z</time>
      </trkpt>
      <trkpt lat="44.6334" lon="5.19546">
        <ele>1366</ele>
        <time>2026-05-25T09:49:14.000Z</time>
      </trkpt>
      <trkpt lat="44.6334" lon="5.19546">
        <ele>1366</ele>
        <time>2026-05-25T09:49:15.000Z</time>
      </trkpt>
      <trkpt lat="44.6334" lon="5.19546">
        <ele>1366</ele>
        <time>2026-05-25T09:49:16.000Z</time>
      </trkpt>
      <trkpt lat="44.6334" lon="5.19546">
        <ele>1366</ele>
        <time>2026-05-25T09:49:17.000Z</time>
      </trkpt>
      <trkpt lat="44.6334" lon="5.19546">
        <ele>1366</ele>
        <time>2026-05-25T09:49:18.000Z</time>
      </trkpt>
      <trkpt lat="44.6334" lon="5.19546">
        <ele>1366</ele>
        <time>2026-05-25T09:49:19.000Z</time>
      </trkpt>
      <trkpt lat="44.6334" lon="5.19546">
        <ele>1366</ele>
        <time>2026-05-25T09:49:20.000Z</time>
      </trkpt>
      <trkpt lat="44.6334" lon="5.19546">
        <ele>1366</ele>
        <time>2026-05-25T09:49:21.000Z</time>
      </trkpt>
      <trkpt lat="44.6334" lon="5.19546">
        <ele>1366</ele>
        <time>2026-05-25T09:49:22.000Z</time>
      </trkpt>
      <trkpt lat="44.6334" lon="5.19546">
        <ele>1366</ele>
        <time>2026-05-25T09:49:23.000Z</time>
      </trkpt>
      <trkpt lat="44.6334" lon="5.19546">
        <ele>1366</ele>
        <time>2026-05-25T09:49:24.000Z</time>
      </trkpt>
      <trkpt lat="44.6334" lon="5.19546">
        <ele>1366</ele>
        <time>2026-05-25T09:49:25.000Z</time>
      </trkpt>
      <trkpt lat="44.6334" lon="5.19546">
        <ele>1366</ele>
        <time>2026-05-25T09:49:26.000Z</time>
      </trkpt>
      <trkpt lat="44.6334" lon="5.19546">
        <ele>1366</ele>
        <time>2026-05-25T09:49:27.000Z</time>
      </trkpt>
      <trkpt lat="44.6334" lon="5.19546">
        <ele>1365</ele>
        <time>2026-05-25T09:49:28.000Z</time>
      </trkpt>
      <trkpt lat="44.63339" lon="5.19545">
        <ele>1365</ele>
        <time>2026-05-25T09:49:29.000Z</time>
      </trkpt>
      <trkpt lat="44.63339" lon="5.19545">
        <ele>1366</ele>
        <time>2026-05-25T09:49:30.000Z</time>
      </trkpt>
      <trkpt lat="44.63339" lon="5.19545">
        <ele>1366</ele>
        <time>2026-05-25T09:49:31.000Z</time>
      </trkpt>
      <trkpt lat="44.63339" lon="5.19545">
        <ele>1366</ele>
        <time>2026-05-25T09:49:32.000Z</time>
      </trkpt>
      <trkpt lat="44.63339" lon="5.19545">
        <ele>1366</ele>
        <time>2026-05-25T09:49:33.000Z</time>
      </trkpt>
      <trkpt lat="44.63339" lon="5.19545">
        <ele>1366</ele>
        <time>2026-05-25T09:49:34.000Z</time>
      </trkpt>
      <trkpt lat="44.63339" lon="5.19545">
        <ele>1366</ele>
        <time>2026-05-25T09:49:35.000Z</time>
      </trkpt>
      <trkpt lat="44.63339" lon="5.19545">
        <ele>1366</ele>
        <time>2026-05-25T09:49:36.000Z</time>
      </trkpt>
      <trkpt lat="44.63339" lon="5.19545">
        <ele>1366</ele>
        <time>2026-05-25T09:49:37.000Z</time>
      </trkpt>
      <trkpt lat="44.63339" lon="5.19545">
        <ele>1366</ele>
        <time>2026-05-25T09:49:38.000Z</time>
      </trkpt>
      <trkpt lat="44.63339" lon="5.19545">
        <ele>1366</ele>
        <time>2026-05-25T09:49:39.000Z</time>
      </trkpt>
      <trkpt lat="44.63339" lon="5.19545">
        <ele>1366</ele>
        <time>2026-05-25T09:49:40.000Z</time>
      </trkpt>
      <trkpt lat="44.63339" lon="5.19545">
        <ele>1366</ele>
        <time>2026-05-25T09:49:41.000Z</time>
      </trkpt>
      <trkpt lat="44.63339" lon="5.19545">
        <ele>1366</ele>
        <time>2026-05-25T09:49:42.000Z</time>
      </trkpt>
      <trkpt lat="44.63339" lon="5.19545">
        <ele>1366</ele>
        <time>2026-05-25T09:49:43.000Z</time>
      </trkpt>
      <trkpt lat="44.63339" lon="5.19545">
        <ele>1366</ele>
        <time>2026-05-25T09:49:44.000Z</time>
      </trkpt>
      <trkpt lat="44.63339" lon="5.19545">
        <ele>1366</ele>
        <time>2026-05-25T09:49:45.000Z</time>
      </trkpt>
      <trkpt lat="44.63339" lon="5.19545">
        <ele>1366</ele>
        <time>2026-05-25T09:49:46.000Z</time>
      </trkpt>
      <trkpt lat="44.63339" lon="5.19545">
        <ele>1366</ele>
        <time>2026-05-25T09:49:47.000Z</time>
      </trkpt>
      <trkpt lat="44.63339" lon="5.19545">
        <ele>1366</ele>
        <time>2026-05-25T09:49:48.000Z</time>
      </trkpt>
      <trkpt lat="44.63339" lon="5.19545">
        <ele>1366</ele>
        <time>2026-05-25T09:49:49.000Z</time>
      </trkpt>
      <trkpt lat="44.63339" lon="5.19545">
        <ele>1366</ele>
        <time>2026-05-25T09:49:50.000Z</time>
      </trkpt>
      <trkpt lat="44.63339" lon="5.19545">
        <ele>1366</ele>
        <time>2026-05-25T09:49:51.000Z</time>
      </trkpt>
      <trkpt lat="44.63339" lon="5.19545">
        <ele>1366</ele>
        <time>2026-05-25T09:49:52.000Z</time>
      </trkpt>
      <trkpt lat="44.63339" lon="5.19545">
        <ele>1366</ele>
        <time>2026-05-25T09:49:53.000Z</time>
      </trkpt>
      <trkpt lat="44.63339" lon="5.19545">
        <ele>1366</ele>
        <time>2026-05-25T09:49:54.000Z</time>
      </trkpt>
      <trkpt lat="44.63339" lon="5.19545">
        <ele>1366</ele>
        <time>2026-05-25T09:49:55.000Z</time>
      </trkpt>
      <trkpt lat="44.63339" lon="5.19545">
        <ele>1366</ele>
        <time>2026-05-25T09:49:56.000Z</time>
      </trkpt>
      <trkpt lat="44.63339" lon="5.19545">
        <ele>1366</ele>
        <time>2026-05-25T09:49:57.000Z</time>
      </trkpt>
      <trkpt lat="44.63339" lon="5.19545">
        <ele>1366</ele>
        <time>2026-05-25T09:49:58.000Z</time>
      </trkpt>
      <trkpt lat="44.63339" lon="5.19545">
        <ele>1366</ele>
        <time>2026-05-25T09:49:59.000Z</time>
      </trkpt>
      <trkpt lat="44.63339" lon="5.19545">
        <ele>1366</ele>
        <time>2026-05-25T09:50:00.000Z</time>
      </trkpt>
      <trkpt lat="44.63339" lon="5.19545">
        <ele>1366</ele>
        <time>2026-05-25T09:50:01.000Z</time>
      </trkpt>
      <trkpt lat="44.63339" lon="5.19545">
        <ele>1366</ele>
        <time>2026-05-25T09:50:02.000Z</time>
      </trkpt>
      <trkpt lat="44.63339" lon="5.19545">
        <ele>1366</ele>
        <time>2026-05-25T09:50:03.000Z</time>
      </trkpt>
      <trkpt lat="44.63339" lon="5.19545">
        <ele>1366</ele>
        <time>2026-05-25T09:50:04.000Z</time>
      </trkpt>
      <trkpt lat="44.63339" lon="5.19545">
        <ele>1366</ele>
        <time>2026-05-25T09:50:05.000Z</time>
      </trkpt>
      <trkpt lat="44.63339" lon="5.19545">
        <ele>1366</ele>
        <time>2026-05-25T09:50:06.000Z</time>
      </trkpt>
      <trkpt lat="44.63339" lon="5.19545">
        <ele>1366</ele>
        <time>2026-05-25T09:50:07.000Z</time>
      </trkpt>
      <trkpt lat="44.63339" lon="5.19545">
        <ele>1366</ele>
        <time>2026-05-25T09:50:08.000Z</time>
      </trkpt>
      <trkpt lat="44.63339" lon="5.19545">
        <ele>1366</ele>
        <time>2026-05-25T09:50:09.000Z</time>
      </trkpt>
      <trkpt lat="44.63339" lon="5.19545">
        <ele>1366</ele>
        <time>2026-05-25T09:50:10.000Z</time>
      </trkpt>
      <trkpt lat="44.63339" lon="5.19545">
        <ele>1366</ele>
        <time>2026-05-25T09:50:11.000Z</time>
      </trkpt>
      <trkpt lat="44.63339" lon="5.19545">
        <ele>1366</ele>
        <time>2026-05-25T09:50:12.000Z</time>
      </trkpt>
      <trkpt lat="44.63339" lon="5.19545">
        <ele>1366</ele>
        <time>2026-05-25T09:50:13.000Z</time>
      </trkpt>
      <trkpt lat="44.63339" lon="5.19545">
        <ele>1366</ele>
        <time>2026-05-25T09:50:14.000Z</time>
      </trkpt>
      <trkpt lat="44.63339" lon="5.19545">
        <ele>1366</ele>
        <time>2026-05-25T09:50:15.000Z</time>
      </trkpt>
      <trkpt lat="44.63339" lon="5.19545">
        <ele>1366</ele>
        <time>2026-05-25T09:50:16.000Z</time>
      </trkpt>
      <trkpt lat="44.63339" lon="5.19545">
        <ele>1366</ele>
        <time>2026-05-25T09:50:17.000Z</time>
      </trkpt>
      <trkpt lat="44.63339" lon="5.19545">
        <ele>1366</ele>
        <time>2026-05-25T09:50:18.000Z</time>
      </trkpt>
      <trkpt lat="44.63339" lon="5.19545">
        <ele>1366</ele>
        <time>2026-05-25T09:50:19.000Z</time>
      </trkpt>
      <trkpt lat="44.63339" lon="5.19545">
        <ele>1366</ele>
        <time>2026-05-25T09:50:20.000Z</time>
      </trkpt>
      <trkpt lat="44.63339" lon="5.19545">
        <ele>1366</ele>
        <time>2026-05-25T09:50:21.000Z</time>
      </trkpt>
      <trkpt lat="44.63339" lon="5.19545">
        <ele>1366</ele>
        <time>2026-05-25T09:50:22.000Z</time>
      </trkpt>
      <trkpt lat="44.63339" lon="5.19545">
        <ele>1366</ele>
        <time>2026-05-25T09:50:23.000Z</time>
      </trkpt>
      <trkpt lat="44.63339" lon="5.19545">
        <ele>1366</ele>
        <time>2026-05-25T09:50:24.000Z</time>
      </trkpt>
      <trkpt lat="44.63339" lon="5.19545">
        <ele>1366</ele>
        <time>2026-05-25T09:50:25.000Z</time>
      </trkpt>
      <trkpt lat="44.63339" lon="5.19545">
        <ele>1366</ele>
        <time>2026-05-25T09:50:26.000Z</time>
      </trkpt>
      <trkpt lat="44.63339" lon="5.19545">
        <ele>1366</ele>
        <time>2026-05-25T09:50:27.000Z</time>
      </trkpt>
      <trkpt lat="44.63339" lon="5.19545">
        <ele>1366</ele>
        <time>2026-05-25T09:50:28.000Z</time>
      </trkpt>
      <trkpt lat="44.63339" lon="5.19545">
        <ele>1366</ele>
        <time>2026-05-25T09:50:29.000Z</time>
      </trkpt>
      <trkpt lat="44.63339" lon="5.19545">
        <ele>1366</ele>
        <time>2026-05-25T09:50:30.000Z</time>
      </trkpt>
      <trkpt lat="44.63339" lon="5.19545">
        <ele>1366</ele>
        <time>2026-05-25T09:50:31.000Z</time>
      </trkpt>
      <trkpt lat="44.63339" lon="5.19545">
        <ele>1366</ele>
        <time>2026-05-25T09:50:32.000Z</time>
      </trkpt>
      <trkpt lat="44.63339" lon="5.19545">
        <ele>1366</ele>
        <time>2026-05-25T09:50:33.000Z</time>
      </trkpt>
      <trkpt lat="44.63339" lon="5.19545">
        <ele>1366</ele>
        <time>2026-05-25T09:50:34.000Z</time>
      </trkpt>
      <trkpt lat="44.63339" lon="5.19545">
        <ele>1366</ele>
        <time>2026-05-25T09:50:35.000Z</time>
      </trkpt>
      <trkpt lat="44.63339" lon="5.19545">
        <ele>1366</ele>
        <time>2026-05-25T09:50:36.000Z</time>
      </trkpt>
      <trkpt lat="44.63339" lon="5.19545">
        <ele>1366</ele>
        <time>2026-05-25T09:50:37.000Z</time>
      </trkpt>
      <trkpt lat="44.63339" lon="5.19545">
        <ele>1366</ele>
        <time>2026-05-25T09:50:38.000Z</time>
      </trkpt>
      <trkpt lat="44.63339" lon="5.19545">
        <ele>1366</ele>
        <time>2026-05-25T09:50:39.000Z</time>
      </trkpt>
      <trkpt lat="44.63339" lon="5.19545">
        <ele>1366</ele>
        <time>2026-05-25T09:50:40.000Z</time>
      </trkpt>
      <trkpt lat="44.63339" lon="5.19545">
        <ele>1366</ele>
        <time>2026-05-25T09:50:41.000Z</time>
      </trkpt>
      <trkpt lat="44.63339" lon="5.19545">
        <ele>1366</ele>
        <time>2026-05-25T09:50:42.000Z</time>
      </trkpt>
      <trkpt lat="44.63339" lon="5.19545">
        <ele>1366</ele>
        <time>2026-05-25T09:50:43.000Z</time>
      </trkpt>
      <trkpt lat="44.63339" lon="5.19545">
        <ele>1366</ele>
        <time>2026-05-25T09:50:44.000Z</time>
      </trkpt>
      <trkpt lat="44.63339" lon="5.19545">
        <ele>1366</ele>
        <time>2026-05-25T09:50:45.000Z</time>
      </trkpt>
      <trkpt lat="44.63339" lon="5.19545">
        <ele>1366</ele>
        <time>2026-05-25T09:50:46.000Z</time>
      </trkpt>
      <trkpt lat="44.63339" lon="5.19545">
        <ele>1366</ele>
        <time>2026-05-25T09:50:47.000Z</time>
      </trkpt>
      <trkpt lat="44.63339" lon="5.19545">
        <ele>1366</ele>
        <time>2026-05-25T09:50:48.000Z</time>
      </trkpt>
      <trkpt lat="44.63339" lon="5.19545">
        <ele>1366</ele>
        <time>2026-05-25T09:50:49.000Z</time>
      </trkpt>
      <trkpt lat="44.63339" lon="5.19545">
        <ele>1366</ele>
        <time>2026-05-25T09:50:50.000Z</time>
      </trkpt>
      <trkpt lat="44.63339" lon="5.19546">
        <ele>1366</ele>
        <time>2026-05-25T09:50:51.000Z</time>
      </trkpt>
      <trkpt lat="44.63338" lon="5.19546">
        <ele>1366</ele>
        <time>2026-05-25T09:50:52.000Z</time>
      </trkpt>
      <trkpt lat="44.63339" lon="5.19547">
        <ele>1367</ele>
        <time>2026-05-25T09:50:53.000Z</time>
      </trkpt>
      <trkpt lat="44.63339" lon="5.19547">
        <ele>1367</ele>
        <time>2026-05-25T09:50:54.000Z</time>
      </trkpt>
      <trkpt lat="44.63339" lon="5.19547">
        <ele>1367</ele>
        <time>2026-05-25T09:50:55.000Z</time>
      </trkpt>
      <trkpt lat="44.63339" lon="5.19547">
        <ele>1367</ele>
        <time>2026-05-25T09:50:56.000Z</time>
      </trkpt>
      <trkpt lat="44.63339" lon="5.19547">
        <ele>1367</ele>
        <time>2026-05-25T09:50:57.000Z</time>
      </trkpt>
      <trkpt lat="44.63339" lon="5.19547">
        <ele>1367</ele>
        <time>2026-05-25T09:50:58.000Z</time>
      </trkpt>
      <trkpt lat="44.6334" lon="5.19547">
        <ele>1368</ele>
        <time>2026-05-25T09:50:59.000Z</time>
      </trkpt>
      <trkpt lat="44.6334" lon="5.19546">
        <ele>1368</ele>
        <time>2026-05-25T09:51:00.000Z</time>
      </trkpt>
      <trkpt lat="44.63341" lon="5.19546">
        <ele>1368</ele>
        <time>2026-05-25T09:51:01.000Z</time>
      </trkpt>
      <trkpt lat="44.63342" lon="5.19546">
        <ele>1369</ele>
        <time>2026-05-25T09:51:02.000Z</time>
      </trkpt>
      <trkpt lat="44.63343" lon="5.19546">
        <ele>1369</ele>
        <time>2026-05-25T09:51:03.000Z</time>
      </trkpt>
      <trkpt lat="44.63344" lon="5.19546">
        <ele>1369</ele>
        <time>2026-05-25T09:51:04.000Z</time>
      </trkpt>
      <trkpt lat="44.63345" lon="5.19546">
        <ele>1369</ele>
        <time>2026-05-25T09:51:05.000Z</time>
      </trkpt>
      <trkpt lat="44.63346" lon="5.19546">
        <ele>1370</ele>
        <time>2026-05-25T09:51:06.000Z</time>
      </trkpt>
      <trkpt lat="44.63346" lon="5.19546">
        <ele>1370</ele>
        <time>2026-05-25T09:51:07.000Z</time>
      </trkpt>
      <trkpt lat="44.63347" lon="5.19546">
        <ele>1370</ele>
        <time>2026-05-25T09:51:08.000Z</time>
      </trkpt>
      <trkpt lat="44.63348" lon="5.19546">
        <ele>1370</ele>
        <time>2026-05-25T09:51:09.000Z</time>
      </trkpt>
      <trkpt lat="44.63349" lon="5.19546">
        <ele>1370</ele>
        <time>2026-05-25T09:51:10.000Z</time>
      </trkpt>
      <trkpt lat="44.6335" lon="5.19546">
        <ele>1371</ele>
        <time>2026-05-25T09:51:11.000Z</time>
      </trkpt>
      <trkpt lat="44.63351" lon="5.19546">
        <ele>1371</ele>
        <time>2026-05-25T09:51:12.000Z</time>
      </trkpt>
      <trkpt lat="44.63351" lon="5.19546">
        <ele>1371</ele>
        <time>2026-05-25T09:51:13.000Z</time>
      </trkpt>
      <trkpt lat="44.63352" lon="5.19546">
        <ele>1372</ele>
        <time>2026-05-25T09:51:14.000Z</time>
      </trkpt>
      <trkpt lat="44.63353" lon="5.19546">
        <ele>1372</ele>
        <time>2026-05-25T09:51:15.000Z</time>
      </trkpt>
      <trkpt lat="44.63354" lon="5.19547">
        <ele>1372</ele>
        <time>2026-05-25T09:51:16.000Z</time>
      </trkpt>
      <trkpt lat="44.63355" lon="5.19546">
        <ele>1372</ele>
        <time>2026-05-25T09:51:17.000Z</time>
      </trkpt>
      <trkpt lat="44.63356" lon="5.19547">
        <ele>1372</ele>
        <time>2026-05-25T09:51:18.000Z</time>
      </trkpt>
      <trkpt lat="44.63356" lon="5.19547">
        <ele>1373</ele>
        <time>2026-05-25T09:51:19.000Z</time>
      </trkpt>
      <trkpt lat="44.63357" lon="5.19547">
        <ele>1373</ele>
        <time>2026-05-25T09:51:20.000Z</time>
      </trkpt>
      <trkpt lat="44.63358" lon="5.19547">
        <ele>1373</ele>
        <time>2026-05-25T09:51:21.000Z</time>
      </trkpt>
      <trkpt lat="44.63359" lon="5.19547">
        <ele>1373</ele>
        <time>2026-05-25T09:51:22.000Z</time>
      </trkpt>
      <trkpt lat="44.6336" lon="5.19547">
        <ele>1373</ele>
        <time>2026-05-25T09:51:23.000Z</time>
      </trkpt>
      <trkpt lat="44.63361" lon="5.19547">
        <ele>1373</ele>
        <time>2026-05-25T09:51:24.000Z</time>
      </trkpt>
      <trkpt lat="44.63361" lon="5.19547">
        <ele>1373</ele>
        <time>2026-05-25T09:51:25.000Z</time>
      </trkpt>
      <trkpt lat="44.63362" lon="5.19547">
        <ele>1374</ele>
        <time>2026-05-25T09:51:26.000Z</time>
      </trkpt>
      <trkpt lat="44.63363" lon="5.19548">
        <ele>1374</ele>
        <time>2026-05-25T09:51:27.000Z</time>
      </trkpt>
      <trkpt lat="44.63364" lon="5.19548">
        <ele>1374</ele>
        <time>2026-05-25T09:51:28.000Z</time>
      </trkpt>
      <trkpt lat="44.63365" lon="5.19549">
        <ele>1374</ele>
        <time>2026-05-25T09:51:29.000Z</time>
      </trkpt>
      <trkpt lat="44.63365" lon="5.19549">
        <ele>1374</ele>
        <time>2026-05-25T09:51:30.000Z</time>
      </trkpt>
      <trkpt lat="44.63366" lon="5.19549">
        <ele>1374</ele>
        <time>2026-05-25T09:51:31.000Z</time>
      </trkpt>
      <trkpt lat="44.63367" lon="5.1955">
        <ele>1374</ele>
        <time>2026-05-25T09:51:32.000Z</time>
      </trkpt>
      <trkpt lat="44.63368" lon="5.1955">
        <ele>1373</ele>
        <time>2026-05-25T09:51:33.000Z</time>
      </trkpt>
      <trkpt lat="44.63368" lon="5.1955">
        <ele>1373</ele>
        <time>2026-05-25T09:51:34.000Z</time>
      </trkpt>
      <trkpt lat="44.63369" lon="5.1955">
        <ele>1374</ele>
        <time>2026-05-25T09:51:35.000Z</time>
      </trkpt>
      <trkpt lat="44.6337" lon="5.19551">
        <ele>1374</ele>
        <time>2026-05-25T09:51:36.000Z</time>
      </trkpt>
      <trkpt lat="44.6337" lon="5.19551">
        <ele>1374</ele>
        <time>2026-05-25T09:51:37.000Z</time>
      </trkpt>
      <trkpt lat="44.63371" lon="5.19551">
        <ele>1374</ele>
        <time>2026-05-25T09:51:38.000Z</time>
      </trkpt>
      <trkpt lat="44.63372" lon="5.1955">
        <ele>1374</ele>
        <time>2026-05-25T09:51:39.000Z</time>
      </trkpt>
      <trkpt lat="44.63373" lon="5.19551">
        <ele>1374</ele>
        <time>2026-05-25T09:51:40.000Z</time>
      </trkpt>
      <trkpt lat="44.63374" lon="5.19551">
        <ele>1373</ele>
        <time>2026-05-25T09:51:41.000Z</time>
      </trkpt>
      <trkpt lat="44.63375" lon="5.19552">
        <ele>1374</ele>
        <time>2026-05-25T09:51:42.000Z</time>
      </trkpt>
      <trkpt lat="44.63377" lon="5.19552">
        <ele>1373</ele>
        <time>2026-05-25T09:51:43.000Z</time>
      </trkpt>
      <trkpt lat="44.63378" lon="5.19552">
        <ele>1374</ele>
        <time>2026-05-25T09:51:44.000Z</time>
      </trkpt>
      <trkpt lat="44.63379" lon="5.19553">
        <ele>1374</ele>
        <time>2026-05-25T09:51:45.000Z</time>
      </trkpt>
      <trkpt lat="44.6338" lon="5.19553">
        <ele>1374</ele>
        <time>2026-05-25T09:51:46.000Z</time>
      </trkpt>
      <trkpt lat="44.63381" lon="5.19554">
        <ele>1374</ele>
        <time>2026-05-25T09:51:47.000Z</time>
      </trkpt>
      <trkpt lat="44.63381" lon="5.19554">
        <ele>1374</ele>
        <time>2026-05-25T09:51:48.000Z</time>
      </trkpt>
      <trkpt lat="44.63383" lon="5.19554">
        <ele>1375</ele>
        <time>2026-05-25T09:51:49.000Z</time>
      </trkpt>
      <trkpt lat="44.63384" lon="5.19555">
        <ele>1375</ele>
        <time>2026-05-25T09:51:50.000Z</time>
      </trkpt>
      <trkpt lat="44.63385" lon="5.19556">
        <ele>1375</ele>
        <time>2026-05-25T09:51:51.000Z</time>
      </trkpt>
      <trkpt lat="44.63386" lon="5.19556">
        <ele>1375</ele>
        <time>2026-05-25T09:51:52.000Z</time>
      </trkpt>
      <trkpt lat="44.63387" lon="5.19556">
        <ele>1376</ele>
        <time>2026-05-25T09:51:53.000Z</time>
      </trkpt>
      <trkpt lat="44.63388" lon="5.19555">
        <ele>1377</ele>
        <time>2026-05-25T09:51:54.000Z</time>
      </trkpt>
      <trkpt lat="44.63389" lon="5.19556">
        <ele>1377</ele>
        <time>2026-05-25T09:51:55.000Z</time>
      </trkpt>
      <trkpt lat="44.6339" lon="5.19557">
        <ele>1377</ele>
        <time>2026-05-25T09:51:56.000Z</time>
      </trkpt>
      <trkpt lat="44.63391" lon="5.19557">
        <ele>1378</ele>
        <time>2026-05-25T09:51:57.000Z</time>
      </trkpt>
      <trkpt lat="44.63392" lon="5.19558">
        <ele>1379</ele>
        <time>2026-05-25T09:51:58.000Z</time>
      </trkpt>
      <trkpt lat="44.63394" lon="5.19557">
        <ele>1378</ele>
        <time>2026-05-25T09:51:59.000Z</time>
      </trkpt>
      <trkpt lat="44.63394" lon="5.19558">
        <ele>1378</ele>
        <time>2026-05-25T09:52:00.000Z</time>
      </trkpt>
      <trkpt lat="44.63395" lon="5.19559">
        <ele>1378</ele>
        <time>2026-05-25T09:52:01.000Z</time>
      </trkpt>
      <trkpt lat="44.63395" lon="5.19558">
        <ele>1378</ele>
        <time>2026-05-25T09:52:02.000Z</time>
      </trkpt>
      <trkpt lat="44.63397" lon="5.19558">
        <ele>1378</ele>
        <time>2026-05-25T09:52:03.000Z</time>
      </trkpt>
      <trkpt lat="44.63398" lon="5.19558">
        <ele>1378</ele>
        <time>2026-05-25T09:52:04.000Z</time>
      </trkpt>
      <trkpt lat="44.63398" lon="5.19558">
        <ele>1378</ele>
        <time>2026-05-25T09:52:05.000Z</time>
      </trkpt>
      <trkpt lat="44.63399" lon="5.19558">
        <ele>1377</ele>
        <time>2026-05-25T09:52:06.000Z</time>
      </trkpt>
      <trkpt lat="44.63399" lon="5.19558">
        <ele>1377</ele>
        <time>2026-05-25T09:52:07.000Z</time>
      </trkpt>
      <trkpt lat="44.63399" lon="5.19558">
        <ele>1377</ele>
        <time>2026-05-25T09:52:08.000Z</time>
      </trkpt>
      <trkpt lat="44.634" lon="5.19559">
        <ele>1377</ele>
        <time>2026-05-25T09:52:09.000Z</time>
      </trkpt>
      <trkpt lat="44.63401" lon="5.19558">
        <ele>1378</ele>
        <time>2026-05-25T09:52:10.000Z</time>
      </trkpt>
      <trkpt lat="44.63402" lon="5.19558">
        <ele>1378</ele>
        <time>2026-05-25T09:52:11.000Z</time>
      </trkpt>
      <trkpt lat="44.63403" lon="5.19558">
        <ele>1378</ele>
        <time>2026-05-25T09:52:12.000Z</time>
      </trkpt>
      <trkpt lat="44.63403" lon="5.19559">
        <ele>1378</ele>
        <time>2026-05-25T09:52:13.000Z</time>
      </trkpt>
      <trkpt lat="44.63403" lon="5.1956">
        <ele>1378</ele>
        <time>2026-05-25T09:52:14.000Z</time>
      </trkpt>
      <trkpt lat="44.63404" lon="5.1956">
        <ele>1378</ele>
        <time>2026-05-25T09:52:15.000Z</time>
      </trkpt>
      <trkpt lat="44.63405" lon="5.1956">
        <ele>1378</ele>
        <time>2026-05-25T09:52:16.000Z</time>
      </trkpt>
      <trkpt lat="44.63406" lon="5.1956">
        <ele>1378</ele>
        <time>2026-05-25T09:52:17.000Z</time>
      </trkpt>
      <trkpt lat="44.63407" lon="5.1956">
        <ele>1378</ele>
        <time>2026-05-25T09:52:18.000Z</time>
      </trkpt>
      <trkpt lat="44.63408" lon="5.19561">
        <ele>1380</ele>
        <time>2026-05-25T09:52:19.000Z</time>
      </trkpt>
      <trkpt lat="44.63409" lon="5.19561">
        <ele>1380</ele>
        <time>2026-05-25T09:52:20.000Z</time>
      </trkpt>
      <trkpt lat="44.6341" lon="5.19561">
        <ele>1379</ele>
        <time>2026-05-25T09:52:21.000Z</time>
      </trkpt>
      <trkpt lat="44.6341" lon="5.19561">
        <ele>1379</ele>
        <time>2026-05-25T09:52:22.000Z</time>
      </trkpt>
      <trkpt lat="44.63411" lon="5.19561">
        <ele>1379</ele>
        <time>2026-05-25T09:52:23.000Z</time>
      </trkpt>
      <trkpt lat="44.63412" lon="5.19562">
        <ele>1380</ele>
        <time>2026-05-25T09:52:24.000Z</time>
      </trkpt>
      <trkpt lat="44.63412" lon="5.19562">
        <ele>1380</ele>
        <time>2026-05-25T09:52:25.000Z</time>
      </trkpt>
      <trkpt lat="44.63412" lon="5.19561">
        <ele>1381</ele>
        <time>2026-05-25T09:52:26.000Z</time>
      </trkpt>
      <trkpt lat="44.63413" lon="5.19561">
        <ele>1381</ele>
        <time>2026-05-25T09:52:27.000Z</time>
      </trkpt>
      <trkpt lat="44.63414" lon="5.1956">
        <ele>1381</ele>
        <time>2026-05-25T09:52:28.000Z</time>
      </trkpt>
      <trkpt lat="44.63415" lon="5.1956">
        <ele>1382</ele>
        <time>2026-05-25T09:52:29.000Z</time>
      </trkpt>
      <trkpt lat="44.63415" lon="5.1956">
        <ele>1383</ele>
        <time>2026-05-25T09:52:30.000Z</time>
      </trkpt>
      <trkpt lat="44.63415" lon="5.19561">
        <ele>1383</ele>
        <time>2026-05-25T09:52:31.000Z</time>
      </trkpt>
      <trkpt lat="44.63415" lon="5.19561">
        <ele>1385</ele>
        <time>2026-05-25T09:52:32.000Z</time>
      </trkpt>
      <trkpt lat="44.63416" lon="5.19561">
        <ele>1385</ele>
        <time>2026-05-25T09:52:33.000Z</time>
      </trkpt>
      <trkpt lat="44.63417" lon="5.19561">
        <ele>1386</ele>
        <time>2026-05-25T09:52:34.000Z</time>
      </trkpt>
      <trkpt lat="44.63418" lon="5.19561">
        <ele>1387</ele>
        <time>2026-05-25T09:52:35.000Z</time>
      </trkpt>
      <trkpt lat="44.63419" lon="5.19561">
        <ele>1387</ele>
        <time>2026-05-25T09:52:36.000Z</time>
      </trkpt>
      <trkpt lat="44.63419" lon="5.19562">
        <ele>1387</ele>
        <time>2026-05-25T09:52:37.000Z</time>
      </trkpt>
      <trkpt lat="44.6342" lon="5.19562">
        <ele>1386</ele>
        <time>2026-05-25T09:52:38.000Z</time>
      </trkpt>
      <trkpt lat="44.63421" lon="5.19562">
        <ele>1386</ele>
        <time>2026-05-25T09:52:39.000Z</time>
      </trkpt>
      <trkpt lat="44.63421" lon="5.19562">
        <ele>1386</ele>
        <time>2026-05-25T09:52:40.000Z</time>
      </trkpt>
      <trkpt lat="44.63421" lon="5.19562">
        <ele>1385</ele>
        <time>2026-05-25T09:52:41.000Z</time>
      </trkpt>
      <trkpt lat="44.63421" lon="5.19562">
        <ele>1385</ele>
        <time>2026-05-25T09:52:42.000Z</time>
      </trkpt>
      <trkpt lat="44.63421" lon="5.19562">
        <ele>1386</ele>
        <time>2026-05-25T09:52:43.000Z</time>
      </trkpt>
      <trkpt lat="44.63422" lon="5.19561">
        <ele>1385</ele>
        <time>2026-05-25T09:52:44.000Z</time>
      </trkpt>
      <trkpt lat="44.63423" lon="5.1956">
        <ele>1385</ele>
        <time>2026-05-25T09:52:45.000Z</time>
      </trkpt>
      <trkpt lat="44.63424" lon="5.1956">
        <ele>1385</ele>
        <time>2026-05-25T09:52:46.000Z</time>
      </trkpt>
      <trkpt lat="44.63424" lon="5.1956">
        <ele>1385</ele>
        <time>2026-05-25T09:52:47.000Z</time>
      </trkpt>
      <trkpt lat="44.63424" lon="5.1956">
        <ele>1386</ele>
        <time>2026-05-25T09:52:48.000Z</time>
      </trkpt>
      <trkpt lat="44.63424" lon="5.1956">
        <ele>1387</ele>
        <time>2026-05-25T09:52:49.000Z</time>
      </trkpt>
      <trkpt lat="44.63424" lon="5.1956">
        <ele>1388</ele>
        <time>2026-05-25T09:52:50.000Z</time>
      </trkpt>
      <trkpt lat="44.63424" lon="5.1956">
        <ele>1386</ele>
        <time>2026-05-25T09:52:51.000Z</time>
      </trkpt>
      <trkpt lat="44.63425" lon="5.19561">
        <ele>1386</ele>
        <time>2026-05-25T09:52:52.000Z</time>
      </trkpt>
      <trkpt lat="44.63426" lon="5.19561">
        <ele>1386</ele>
        <time>2026-05-25T09:52:53.000Z</time>
      </trkpt>
      <trkpt lat="44.63427" lon="5.19561">
        <ele>1385</ele>
        <time>2026-05-25T09:52:54.000Z</time>
      </trkpt>
      <trkpt lat="44.63428" lon="5.19561">
        <ele>1385</ele>
        <time>2026-05-25T09:52:55.000Z</time>
      </trkpt>
      <trkpt lat="44.63429" lon="5.19561">
        <ele>1386</ele>
        <time>2026-05-25T09:52:56.000Z</time>
      </trkpt>
      <trkpt lat="44.63429" lon="5.19561">
        <ele>1386</ele>
        <time>2026-05-25T09:52:57.000Z</time>
      </trkpt>
      <trkpt lat="44.6343" lon="5.19561">
        <ele>1387</ele>
        <time>2026-05-25T09:52:58.000Z</time>
      </trkpt>
      <trkpt lat="44.6343" lon="5.19562">
        <ele>1387</ele>
        <time>2026-05-25T09:52:59.000Z</time>
      </trkpt>
      <trkpt lat="44.6343" lon="5.19562">
        <ele>1388</ele>
        <time>2026-05-25T09:53:00.000Z</time>
      </trkpt>
      <trkpt lat="44.63431" lon="5.19562">
        <ele>1389</ele>
        <time>2026-05-25T09:53:01.000Z</time>
      </trkpt>
      <trkpt lat="44.63432" lon="5.19562">
        <ele>1388</ele>
        <time>2026-05-25T09:53:02.000Z</time>
      </trkpt>
      <trkpt lat="44.63434" lon="5.19562">
        <ele>1389</ele>
        <time>2026-05-25T09:53:03.000Z</time>
      </trkpt>
      <trkpt lat="44.63435" lon="5.19563">
        <ele>1388</ele>
        <time>2026-05-25T09:53:04.000Z</time>
      </trkpt>
      <trkpt lat="44.63435" lon="5.19563">
        <ele>1388</ele>
        <time>2026-05-25T09:53:05.000Z</time>
      </trkpt>
      <trkpt lat="44.63436" lon="5.19563">
        <ele>1390</ele>
        <time>2026-05-25T09:53:06.000Z</time>
      </trkpt>
      <trkpt lat="44.63436" lon="5.19563">
        <ele>1389</ele>
        <time>2026-05-25T09:53:07.000Z</time>
      </trkpt>
      <trkpt lat="44.63438" lon="5.19564">
        <ele>1390</ele>
        <time>2026-05-25T09:53:08.000Z</time>
      </trkpt>
      <trkpt lat="44.63438" lon="5.19564">
        <ele>1390</ele>
        <time>2026-05-25T09:53:09.000Z</time>
      </trkpt>
      <trkpt lat="44.6344" lon="5.19564">
        <ele>1390</ele>
        <time>2026-05-25T09:53:10.000Z</time>
      </trkpt>
      <trkpt lat="44.63441" lon="5.19564">
        <ele>1390</ele>
        <time>2026-05-25T09:53:11.000Z</time>
      </trkpt>
      <trkpt lat="44.63443" lon="5.19563">
        <ele>1391</ele>
        <time>2026-05-25T09:53:12.000Z</time>
      </trkpt>
      <trkpt lat="44.63443" lon="5.19562">
        <ele>1391</ele>
        <time>2026-05-25T09:53:13.000Z</time>
      </trkpt>
      <trkpt lat="44.63443" lon="5.19561">
        <ele>1391</ele>
        <time>2026-05-25T09:53:14.000Z</time>
      </trkpt>
      <trkpt lat="44.63445" lon="5.19562">
        <ele>1390</ele>
        <time>2026-05-25T09:53:15.000Z</time>
      </trkpt>
      <trkpt lat="44.63445" lon="5.19562">
        <ele>1390</ele>
        <time>2026-05-25T09:53:16.000Z</time>
      </trkpt>
      <trkpt lat="44.63446" lon="5.19562">
        <ele>1390</ele>
        <time>2026-05-25T09:53:17.000Z</time>
      </trkpt>
      <trkpt lat="44.63445" lon="5.19562">
        <ele>1391</ele>
        <time>2026-05-25T09:53:18.000Z</time>
      </trkpt>
      <trkpt lat="44.63447" lon="5.19561">
        <ele>1390</ele>
        <time>2026-05-25T09:53:19.000Z</time>
      </trkpt>
      <trkpt lat="44.63448" lon="5.19561">
        <ele>1390</ele>
        <time>2026-05-25T09:53:20.000Z</time>
      </trkpt>
      <trkpt lat="44.6345" lon="5.19561">
        <ele>1389</ele>
        <time>2026-05-25T09:53:21.000Z</time>
      </trkpt>
      <trkpt lat="44.63451" lon="5.1956">
        <ele>1390</ele>
        <time>2026-05-25T09:53:22.000Z</time>
      </trkpt>
      <trkpt lat="44.63452" lon="5.1956">
        <ele>1390</ele>
        <time>2026-05-25T09:53:23.000Z</time>
      </trkpt>
      <trkpt lat="44.63452" lon="5.1956">
        <ele>1391</ele>
        <time>2026-05-25T09:53:24.000Z</time>
      </trkpt>
      <trkpt lat="44.63453" lon="5.19559">
        <ele>1392</ele>
        <time>2026-05-25T09:53:25.000Z</time>
      </trkpt>
      <trkpt lat="44.63454" lon="5.19559">
        <ele>1393</ele>
        <time>2026-05-25T09:53:26.000Z</time>
      </trkpt>
      <trkpt lat="44.63455" lon="5.1956">
        <ele>1392</ele>
        <time>2026-05-25T09:53:27.000Z</time>
      </trkpt>
      <trkpt lat="44.63456" lon="5.1956">
        <ele>1392</ele>
        <time>2026-05-25T09:53:28.000Z</time>
      </trkpt>
      <trkpt lat="44.63456" lon="5.19559">
        <ele>1392</ele>
        <time>2026-05-25T09:53:29.000Z</time>
      </trkpt>
      <trkpt lat="44.63457" lon="5.19559">
        <ele>1392</ele>
        <time>2026-05-25T09:53:30.000Z</time>
      </trkpt>
      <trkpt lat="44.63458" lon="5.19559">
        <ele>1391</ele>
        <time>2026-05-25T09:53:31.000Z</time>
      </trkpt>
      <trkpt lat="44.63458" lon="5.19559">
        <ele>1391</ele>
        <time>2026-05-25T09:53:32.000Z</time>
      </trkpt>
      <trkpt lat="44.63459" lon="5.19559">
        <ele>1392</ele>
        <time>2026-05-25T09:53:33.000Z</time>
      </trkpt>
      <trkpt lat="44.6346" lon="5.19559">
        <ele>1391</ele>
        <time>2026-05-25T09:53:34.000Z</time>
      </trkpt>
      <trkpt lat="44.63461" lon="5.19561">
        <ele>1392</ele>
        <time>2026-05-25T09:53:35.000Z</time>
      </trkpt>
      <trkpt lat="44.63462" lon="5.1956">
        <ele>1393</ele>
        <time>2026-05-25T09:53:36.000Z</time>
      </trkpt>
      <trkpt lat="44.63462" lon="5.19562">
        <ele>1392</ele>
        <time>2026-05-25T09:53:37.000Z</time>
      </trkpt>
      <trkpt lat="44.63463" lon="5.19562">
        <ele>1392</ele>
        <time>2026-05-25T09:53:38.000Z</time>
      </trkpt>
      <trkpt lat="44.63464" lon="5.19562">
        <ele>1392</ele>
        <time>2026-05-25T09:53:39.000Z</time>
      </trkpt>
      <trkpt lat="44.63466" lon="5.1956">
        <ele>1392</ele>
        <time>2026-05-25T09:53:40.000Z</time>
      </trkpt>
      <trkpt lat="44.63466" lon="5.1956">
        <ele>1392</ele>
        <time>2026-05-25T09:53:41.000Z</time>
      </trkpt>
      <trkpt lat="44.63469" lon="5.19558">
        <ele>1395</ele>
        <time>2026-05-25T09:53:42.000Z</time>
      </trkpt>
      <trkpt lat="44.6347" lon="5.19558">
        <ele>1395</ele>
        <time>2026-05-25T09:53:43.000Z</time>
      </trkpt>
      <trkpt lat="44.63471" lon="5.19556">
        <ele>1396</ele>
        <time>2026-05-25T09:53:44.000Z</time>
      </trkpt>
      <trkpt lat="44.63472" lon="5.19555">
        <ele>1396</ele>
        <time>2026-05-25T09:53:45.000Z</time>
      </trkpt>
      <trkpt lat="44.63473" lon="5.19555">
        <ele>1397</ele>
        <time>2026-05-25T09:53:46.000Z</time>
      </trkpt>
      <trkpt lat="44.63473" lon="5.19556">
        <ele>1397</ele>
        <time>2026-05-25T09:53:47.000Z</time>
      </trkpt>
      <trkpt lat="44.63474" lon="5.19556">
        <ele>1398</ele>
        <time>2026-05-25T09:53:48.000Z</time>
      </trkpt>
      <trkpt lat="44.63474" lon="5.19556">
        <ele>1398</ele>
        <time>2026-05-25T09:53:49.000Z</time>
      </trkpt>
      <trkpt lat="44.63475" lon="5.19556">
        <ele>1399</ele>
        <time>2026-05-25T09:53:50.000Z</time>
      </trkpt>
      <trkpt lat="44.63476" lon="5.19555">
        <ele>1400</ele>
        <time>2026-05-25T09:53:51.000Z</time>
      </trkpt>
      <trkpt lat="44.63476" lon="5.19555">
        <ele>1401</ele>
        <time>2026-05-25T09:53:52.000Z</time>
      </trkpt>
      <trkpt lat="44.63477" lon="5.19553">
        <ele>1401</ele>
        <time>2026-05-25T09:53:53.000Z</time>
      </trkpt>
      <trkpt lat="44.63477" lon="5.19554">
        <ele>1402</ele>
        <time>2026-05-25T09:53:54.000Z</time>
      </trkpt>
      <trkpt lat="44.63479" lon="5.19555">
        <ele>1401</ele>
        <time>2026-05-25T09:53:55.000Z</time>
      </trkpt>
      <trkpt lat="44.6348" lon="5.19555">
        <ele>1401</ele>
        <time>2026-05-25T09:53:56.000Z</time>
      </trkpt>
      <trkpt lat="44.63481" lon="5.19556">
        <ele>1401</ele>
        <time>2026-05-25T09:53:57.000Z</time>
      </trkpt>
      <trkpt lat="44.63481" lon="5.19556">
        <ele>1400</ele>
        <time>2026-05-25T09:53:58.000Z</time>
      </trkpt>
      <trkpt lat="44.63482" lon="5.19557">
        <ele>1401</ele>
        <time>2026-05-25T09:53:59.000Z</time>
      </trkpt>
      <trkpt lat="44.63483" lon="5.19557">
        <ele>1402</ele>
        <time>2026-05-25T09:54:00.000Z</time>
      </trkpt>
      <trkpt lat="44.63485" lon="5.19557">
        <ele>1401</ele>
        <time>2026-05-25T09:54:01.000Z</time>
      </trkpt>
      <trkpt lat="44.63485" lon="5.19557">
        <ele>1400</ele>
        <time>2026-05-25T09:54:02.000Z</time>
      </trkpt>
      <trkpt lat="44.63486" lon="5.19557">
        <ele>1401</ele>
        <time>2026-05-25T09:54:03.000Z</time>
      </trkpt>
      <trkpt lat="44.63487" lon="5.19556">
        <ele>1401</ele>
        <time>2026-05-25T09:54:04.000Z</time>
      </trkpt>
      <trkpt lat="44.63488" lon="5.19555">
        <ele>1402</ele>
        <time>2026-05-25T09:54:05.000Z</time>
      </trkpt>
      <trkpt lat="44.6349" lon="5.19555">
        <ele>1402</ele>
        <time>2026-05-25T09:54:06.000Z</time>
      </trkpt>
      <trkpt lat="44.63491" lon="5.19554">
        <ele>1402</ele>
        <time>2026-05-25T09:54:07.000Z</time>
      </trkpt>
      <trkpt lat="44.63492" lon="5.19555">
        <ele>1402</ele>
        <time>2026-05-25T09:54:08.000Z</time>
      </trkpt>
      <trkpt lat="44.63492" lon="5.19555">
        <ele>1402</ele>
        <time>2026-05-25T09:54:09.000Z</time>
      </trkpt>
      <trkpt lat="44.63492" lon="5.19556">
        <ele>1401</ele>
        <time>2026-05-25T09:54:10.000Z</time>
      </trkpt>
      <trkpt lat="44.63493" lon="5.19555">
        <ele>1402</ele>
        <time>2026-05-25T09:54:11.000Z</time>
      </trkpt>
      <trkpt lat="44.63494" lon="5.19554">
        <ele>1402</ele>
        <time>2026-05-25T09:54:12.000Z</time>
      </trkpt>
      <trkpt lat="44.63495" lon="5.19554">
        <ele>1402</ele>
        <time>2026-05-25T09:54:13.000Z</time>
      </trkpt>
      <trkpt lat="44.63496" lon="5.19553">
        <ele>1402</ele>
        <time>2026-05-25T09:54:14.000Z</time>
      </trkpt>
      <trkpt lat="44.63498" lon="5.19554">
        <ele>1403</ele>
        <time>2026-05-25T09:54:15.000Z</time>
      </trkpt>
      <trkpt lat="44.63499" lon="5.19554">
        <ele>1403</ele>
        <time>2026-05-25T09:54:16.000Z</time>
      </trkpt>
      <trkpt lat="44.635" lon="5.19554">
        <ele>1403</ele>
        <time>2026-05-25T09:54:17.000Z</time>
      </trkpt>
      <trkpt lat="44.635" lon="5.19554">
        <ele>1403</ele>
        <time>2026-05-25T09:54:18.000Z</time>
      </trkpt>
      <trkpt lat="44.63501" lon="5.19553">
        <ele>1404</ele>
        <time>2026-05-25T09:54:19.000Z</time>
      </trkpt>
      <trkpt lat="44.63502" lon="5.19553">
        <ele>1404</ele>
        <time>2026-05-25T09:54:20.000Z</time>
      </trkpt>
      <trkpt lat="44.63502" lon="5.19553">
        <ele>1406</ele>
        <time>2026-05-25T09:54:21.000Z</time>
      </trkpt>
      <trkpt lat="44.63504" lon="5.19552">
        <ele>1406</ele>
        <time>2026-05-25T09:54:22.000Z</time>
      </trkpt>
      <trkpt lat="44.63505" lon="5.19552">
        <ele>1405</ele>
        <time>2026-05-25T09:54:23.000Z</time>
      </trkpt>
      <trkpt lat="44.63506" lon="5.19553">
        <ele>1406</ele>
        <time>2026-05-25T09:54:24.000Z</time>
      </trkpt>
      <trkpt lat="44.63506" lon="5.19553">
        <ele>1406</ele>
        <time>2026-05-25T09:54:25.000Z</time>
      </trkpt>
      <trkpt lat="44.63507" lon="5.19553">
        <ele>1406</ele>
        <time>2026-05-25T09:54:26.000Z</time>
      </trkpt>
      <trkpt lat="44.63508" lon="5.19552">
        <ele>1406</ele>
        <time>2026-05-25T09:54:27.000Z</time>
      </trkpt>
      <trkpt lat="44.63509" lon="5.19552">
        <ele>1406</ele>
        <time>2026-05-25T09:54:28.000Z</time>
      </trkpt>
      <trkpt lat="44.6351" lon="5.19552">
        <ele>1406</ele>
        <time>2026-05-25T09:54:29.000Z</time>
      </trkpt>
      <trkpt lat="44.6351" lon="5.19552">
        <ele>1406</ele>
        <time>2026-05-25T09:54:30.000Z</time>
      </trkpt>
      <trkpt lat="44.6351" lon="5.19552">
        <ele>1406</ele>
        <time>2026-05-25T09:54:31.000Z</time>
      </trkpt>
      <trkpt lat="44.63511" lon="5.19551">
        <ele>1407</ele>
        <time>2026-05-25T09:54:32.000Z</time>
      </trkpt>
      <trkpt lat="44.63512" lon="5.19551">
        <ele>1408</ele>
        <time>2026-05-25T09:54:33.000Z</time>
      </trkpt>
      <trkpt lat="44.63513" lon="5.19551">
        <ele>1408</ele>
        <time>2026-05-25T09:54:34.000Z</time>
      </trkpt>
      <trkpt lat="44.63513" lon="5.19551">
        <ele>1408</ele>
        <time>2026-05-25T09:54:35.000Z</time>
      </trkpt>
      <trkpt lat="44.63514" lon="5.19551">
        <ele>1408</ele>
        <time>2026-05-25T09:54:36.000Z</time>
      </trkpt>
      <trkpt lat="44.63516" lon="5.19551">
        <ele>1409</ele>
        <time>2026-05-25T09:54:37.000Z</time>
      </trkpt>
      <trkpt lat="44.63517" lon="5.1955">
        <ele>1408</ele>
        <time>2026-05-25T09:54:38.000Z</time>
      </trkpt>
      <trkpt lat="44.63518" lon="5.1955">
        <ele>1409</ele>
        <time>2026-05-25T09:54:39.000Z</time>
      </trkpt>
      <trkpt lat="44.63518" lon="5.1955">
        <ele>1408</ele>
        <time>2026-05-25T09:54:40.000Z</time>
      </trkpt>
      <trkpt lat="44.63519" lon="5.1955">
        <ele>1409</ele>
        <time>2026-05-25T09:54:41.000Z</time>
      </trkpt>
      <trkpt lat="44.63518" lon="5.1955">
        <ele>1410</ele>
        <time>2026-05-25T09:54:42.000Z</time>
      </trkpt>
      <trkpt lat="44.63517" lon="5.19551">
        <ele>1409</ele>
        <time>2026-05-25T09:54:43.000Z</time>
      </trkpt>
      <trkpt lat="44.63519" lon="5.19551">
        <ele>1409</ele>
        <time>2026-05-25T09:54:44.000Z</time>
      </trkpt>
      <trkpt lat="44.6352" lon="5.19551">
        <ele>1410</ele>
        <time>2026-05-25T09:54:45.000Z</time>
      </trkpt>
      <trkpt lat="44.63522" lon="5.19551">
        <ele>1410</ele>
        <time>2026-05-25T09:54:46.000Z</time>
      </trkpt>
      <trkpt lat="44.63523" lon="5.1955">
        <ele>1410</ele>
        <time>2026-05-25T09:54:47.000Z</time>
      </trkpt>
      <trkpt lat="44.63524" lon="5.19551">
        <ele>1410</ele>
        <time>2026-05-25T09:54:48.000Z</time>
      </trkpt>
      <trkpt lat="44.63525" lon="5.19551">
        <ele>1412</ele>
        <time>2026-05-25T09:54:49.000Z</time>
      </trkpt>
      <trkpt lat="44.63526" lon="5.19551">
        <ele>1412</ele>
        <time>2026-05-25T09:54:50.000Z</time>
      </trkpt>
      <trkpt lat="44.63527" lon="5.19551">
        <ele>1411</ele>
        <time>2026-05-25T09:54:51.000Z</time>
      </trkpt>
      <trkpt lat="44.63528" lon="5.19551">
        <ele>1412</ele>
        <time>2026-05-25T09:54:52.000Z</time>
      </trkpt>
      <trkpt lat="44.6353" lon="5.19551">
        <ele>1412</ele>
        <time>2026-05-25T09:54:53.000Z</time>
      </trkpt>
      <trkpt lat="44.63531" lon="5.1955">
        <ele>1412</ele>
        <time>2026-05-25T09:54:54.000Z</time>
      </trkpt>
      <trkpt lat="44.63531" lon="5.19551">
        <ele>1412</ele>
        <time>2026-05-25T09:54:55.000Z</time>
      </trkpt>
      <trkpt lat="44.63532" lon="5.19551">
        <ele>1413</ele>
        <time>2026-05-25T09:54:56.000Z</time>
      </trkpt>
      <trkpt lat="44.63533" lon="5.19551">
        <ele>1413</ele>
        <time>2026-05-25T09:54:57.000Z</time>
      </trkpt>
      <trkpt lat="44.63534" lon="5.19551">
        <ele>1413</ele>
        <time>2026-05-25T09:54:58.000Z</time>
      </trkpt>
      <trkpt lat="44.63535" lon="5.19552">
        <ele>1413</ele>
        <time>2026-05-25T09:54:59.000Z</time>
      </trkpt>
      <trkpt lat="44.63536" lon="5.19552">
        <ele>1414</ele>
        <time>2026-05-25T09:55:00.000Z</time>
      </trkpt>
      <trkpt lat="44.63536" lon="5.19552">
        <ele>1414</ele>
        <time>2026-05-25T09:55:01.000Z</time>
      </trkpt>
      <trkpt lat="44.63537" lon="5.19551">
        <ele>1415</ele>
        <time>2026-05-25T09:55:02.000Z</time>
      </trkpt>
      <trkpt lat="44.63538" lon="5.19551">
        <ele>1414</ele>
        <time>2026-05-25T09:55:03.000Z</time>
      </trkpt>
      <trkpt lat="44.6354" lon="5.19552">
        <ele>1413</ele>
        <time>2026-05-25T09:55:04.000Z</time>
      </trkpt>
      <trkpt lat="44.6354" lon="5.19552">
        <ele>1414</ele>
        <time>2026-05-25T09:55:05.000Z</time>
      </trkpt>
      <trkpt lat="44.6354" lon="5.19552">
        <ele>1415</ele>
        <time>2026-05-25T09:55:06.000Z</time>
      </trkpt>
      <trkpt lat="44.63541" lon="5.19552">
        <ele>1415</ele>
        <time>2026-05-25T09:55:07.000Z</time>
      </trkpt>
      <trkpt lat="44.63542" lon="5.19551">
        <ele>1416</ele>
        <time>2026-05-25T09:55:08.000Z</time>
      </trkpt>
      <trkpt lat="44.63543" lon="5.19551">
        <ele>1416</ele>
        <time>2026-05-25T09:55:09.000Z</time>
      </trkpt>
      <trkpt lat="44.63543" lon="5.19551">
        <ele>1417</ele>
        <time>2026-05-25T09:55:10.000Z</time>
      </trkpt>
      <trkpt lat="44.63544" lon="5.19551">
        <ele>1418</ele>
        <time>2026-05-25T09:55:11.000Z</time>
      </trkpt>
      <trkpt lat="44.63546" lon="5.19551">
        <ele>1417</ele>
        <time>2026-05-25T09:55:12.000Z</time>
      </trkpt>
      <trkpt lat="44.63547" lon="5.19551">
        <ele>1418</ele>
        <time>2026-05-25T09:55:13.000Z</time>
      </trkpt>
      <trkpt lat="44.63548" lon="5.19551">
        <ele>1418</ele>
        <time>2026-05-25T09:55:14.000Z</time>
      </trkpt>
      <trkpt lat="44.63548" lon="5.1955">
        <ele>1418</ele>
        <time>2026-05-25T09:55:15.000Z</time>
      </trkpt>
      <trkpt lat="44.63549" lon="5.19549">
        <ele>1417</ele>
        <time>2026-05-25T09:55:16.000Z</time>
      </trkpt>
      <trkpt lat="44.63551" lon="5.19548">
        <ele>1418</ele>
        <time>2026-05-25T09:55:17.000Z</time>
      </trkpt>
      <trkpt lat="44.63551" lon="5.19549">
        <ele>1418</ele>
        <time>2026-05-25T09:55:18.000Z</time>
      </trkpt>
      <trkpt lat="44.63553" lon="5.19549">
        <ele>1418</ele>
        <time>2026-05-25T09:55:19.000Z</time>
      </trkpt>
      <trkpt lat="44.63553" lon="5.19549">
        <ele>1419</ele>
        <time>2026-05-25T09:55:20.000Z</time>
      </trkpt>
      <trkpt lat="44.63554" lon="5.19549">
        <ele>1419</ele>
        <time>2026-05-25T09:55:21.000Z</time>
      </trkpt>
      <trkpt lat="44.63556" lon="5.19549">
        <ele>1419</ele>
        <time>2026-05-25T09:55:22.000Z</time>
      </trkpt>
      <trkpt lat="44.63557" lon="5.19548">
        <ele>1420</ele>
        <time>2026-05-25T09:55:23.000Z</time>
      </trkpt>
      <trkpt lat="44.63558" lon="5.19547">
        <ele>1420</ele>
        <time>2026-05-25T09:55:24.000Z</time>
      </trkpt>
      <trkpt lat="44.63558" lon="5.19547">
        <ele>1420</ele>
        <time>2026-05-25T09:55:25.000Z</time>
      </trkpt>
      <trkpt lat="44.63559" lon="5.19546">
        <ele>1420</ele>
        <time>2026-05-25T09:55:26.000Z</time>
      </trkpt>
      <trkpt lat="44.6356" lon="5.19546">
        <ele>1420</ele>
        <time>2026-05-25T09:55:27.000Z</time>
      </trkpt>
      <trkpt lat="44.63561" lon="5.19547">
        <ele>1421</ele>
        <time>2026-05-25T09:55:28.000Z</time>
      </trkpt>
      <trkpt lat="44.63562" lon="5.19548">
        <ele>1421</ele>
        <time>2026-05-25T09:55:29.000Z</time>
      </trkpt>
      <trkpt lat="44.63562" lon="5.19547">
        <ele>1422</ele>
        <time>2026-05-25T09:55:30.000Z</time>
      </trkpt>
      <trkpt lat="44.63563" lon="5.19547">
        <ele>1421</ele>
        <time>2026-05-25T09:55:31.000Z</time>
      </trkpt>
      <trkpt lat="44.63565" lon="5.19548">
        <ele>1421</ele>
        <time>2026-05-25T09:55:32.000Z</time>
      </trkpt>
      <trkpt lat="44.63566" lon="5.19548">
        <ele>1421</ele>
        <time>2026-05-25T09:55:33.000Z</time>
      </trkpt>
      <trkpt lat="44.63567" lon="5.19548">
        <ele>1421</ele>
        <time>2026-05-25T09:55:34.000Z</time>
      </trkpt>
      <trkpt lat="44.63568" lon="5.19549">
        <ele>1421</ele>
        <time>2026-05-25T09:55:35.000Z</time>
      </trkpt>
      <trkpt lat="44.63568" lon="5.1955">
        <ele>1422</ele>
        <time>2026-05-25T09:55:36.000Z</time>
      </trkpt>
      <trkpt lat="44.63569" lon="5.1955">
        <ele>1422</ele>
        <time>2026-05-25T09:55:37.000Z</time>
      </trkpt>
      <trkpt lat="44.63569" lon="5.1955">
        <ele>1422</ele>
        <time>2026-05-25T09:55:38.000Z</time>
      </trkpt>
      <trkpt lat="44.6357" lon="5.1955">
        <ele>1422</ele>
        <time>2026-05-25T09:55:39.000Z</time>
      </trkpt>
      <trkpt lat="44.63571" lon="5.19549">
        <ele>1422</ele>
        <time>2026-05-25T09:55:40.000Z</time>
      </trkpt>
      <trkpt lat="44.63572" lon="5.19549">
        <ele>1423</ele>
        <time>2026-05-25T09:55:41.000Z</time>
      </trkpt>
      <trkpt lat="44.63573" lon="5.19548">
        <ele>1422</ele>
        <time>2026-05-25T09:55:42.000Z</time>
      </trkpt>
      <trkpt lat="44.63574" lon="5.19548">
        <ele>1422</ele>
        <time>2026-05-25T09:55:43.000Z</time>
      </trkpt>
      <trkpt lat="44.63575" lon="5.19548">
        <ele>1422</ele>
        <time>2026-05-25T09:55:44.000Z</time>
      </trkpt>
      <trkpt lat="44.63576" lon="5.19547">
        <ele>1422</ele>
        <time>2026-05-25T09:55:45.000Z</time>
      </trkpt>
      <trkpt lat="44.63576" lon="5.19547">
        <ele>1422</ele>
        <time>2026-05-25T09:55:46.000Z</time>
      </trkpt>
      <trkpt lat="44.63578" lon="5.19548">
        <ele>1425</ele>
        <time>2026-05-25T09:55:47.000Z</time>
      </trkpt>
      <trkpt lat="44.6358" lon="5.19548">
        <ele>1426</ele>
        <time>2026-05-25T09:55:48.000Z</time>
      </trkpt>
      <trkpt lat="44.6358" lon="5.19547">
        <ele>1426</ele>
        <time>2026-05-25T09:55:49.000Z</time>
      </trkpt>
      <trkpt lat="44.63581" lon="5.19547">
        <ele>1426</ele>
        <time>2026-05-25T09:55:50.000Z</time>
      </trkpt>
      <trkpt lat="44.63582" lon="5.19547">
        <ele>1426</ele>
        <time>2026-05-25T09:55:51.000Z</time>
      </trkpt>
      <trkpt lat="44.63582" lon="5.19547">
        <ele>1426</ele>
        <time>2026-05-25T09:55:52.000Z</time>
      </trkpt>
      <trkpt lat="44.63583" lon="5.19547">
        <ele>1426</ele>
        <time>2026-05-25T09:55:53.000Z</time>
      </trkpt>
      <trkpt lat="44.63584" lon="5.19547">
        <ele>1426</ele>
        <time>2026-05-25T09:55:54.000Z</time>
      </trkpt>
      <trkpt lat="44.63584" lon="5.19547">
        <ele>1426</ele>
        <time>2026-05-25T09:55:55.000Z</time>
      </trkpt>
      <trkpt lat="44.63585" lon="5.19547">
        <ele>1426</ele>
        <time>2026-05-25T09:55:56.000Z</time>
      </trkpt>
      <trkpt lat="44.63586" lon="5.19546">
        <ele>1426</ele>
        <time>2026-05-25T09:55:57.000Z</time>
      </trkpt>
      <trkpt lat="44.63586" lon="5.19546">
        <ele>1427</ele>
        <time>2026-05-25T09:55:58.000Z</time>
      </trkpt>
      <trkpt lat="44.63587" lon="5.19546">
        <ele>1427</ele>
        <time>2026-05-25T09:55:59.000Z</time>
      </trkpt>
      <trkpt lat="44.63588" lon="5.19546">
        <ele>1428</ele>
        <time>2026-05-25T09:56:00.000Z</time>
      </trkpt>
      <trkpt lat="44.63588" lon="5.19546">
        <ele>1428</ele>
        <time>2026-05-25T09:56:01.000Z</time>
      </trkpt>
      <trkpt lat="44.6359" lon="5.19545">
        <ele>1428</ele>
        <time>2026-05-25T09:56:02.000Z</time>
      </trkpt>
      <trkpt lat="44.6359" lon="5.19545">
        <ele>1428</ele>
        <time>2026-05-25T09:56:03.000Z</time>
      </trkpt>
      <trkpt lat="44.63591" lon="5.19546">
        <ele>1428</ele>
        <time>2026-05-25T09:56:04.000Z</time>
      </trkpt>
      <trkpt lat="44.63592" lon="5.19546">
        <ele>1428</ele>
        <time>2026-05-25T09:56:05.000Z</time>
      </trkpt>
      <trkpt lat="44.63593" lon="5.19546">
        <ele>1428</ele>
        <time>2026-05-25T09:56:06.000Z</time>
      </trkpt>
      <trkpt lat="44.63594" lon="5.19546">
        <ele>1428</ele>
        <time>2026-05-25T09:56:07.000Z</time>
      </trkpt>
      <trkpt lat="44.63595" lon="5.19546">
        <ele>1429</ele>
        <time>2026-05-25T09:56:08.000Z</time>
      </trkpt>
      <trkpt lat="44.63595" lon="5.19546">
        <ele>1430</ele>
        <time>2026-05-25T09:56:09.000Z</time>
      </trkpt>
      <trkpt lat="44.63596" lon="5.19546">
        <ele>1429</ele>
        <time>2026-05-25T09:56:10.000Z</time>
      </trkpt>
      <trkpt lat="44.63596" lon="5.19545">
        <ele>1431</ele>
        <time>2026-05-25T09:56:11.000Z</time>
      </trkpt>
      <trkpt lat="44.63597" lon="5.19545">
        <ele>1430</ele>
        <time>2026-05-25T09:56:12.000Z</time>
      </trkpt>
      <trkpt lat="44.63598" lon="5.19546">
        <ele>1430</ele>
        <time>2026-05-25T09:56:13.000Z</time>
      </trkpt>
      <trkpt lat="44.63599" lon="5.19546">
        <ele>1431</ele>
        <time>2026-05-25T09:56:14.000Z</time>
      </trkpt>
      <trkpt lat="44.636" lon="5.19545">
        <ele>1431</ele>
        <time>2026-05-25T09:56:15.000Z</time>
      </trkpt>
      <trkpt lat="44.636" lon="5.19545">
        <ele>1432</ele>
        <time>2026-05-25T09:56:16.000Z</time>
      </trkpt>
      <trkpt lat="44.63601" lon="5.19545">
        <ele>1432</ele>
        <time>2026-05-25T09:56:17.000Z</time>
      </trkpt>
      <trkpt lat="44.63602" lon="5.19544">
        <ele>1431</ele>
        <time>2026-05-25T09:56:18.000Z</time>
      </trkpt>
      <trkpt lat="44.63603" lon="5.19545">
        <ele>1431</ele>
        <time>2026-05-25T09:56:19.000Z</time>
      </trkpt>
      <trkpt lat="44.63604" lon="5.19545">
        <ele>1431</ele>
        <time>2026-05-25T09:56:20.000Z</time>
      </trkpt>
      <trkpt lat="44.63606" lon="5.19545">
        <ele>1431</ele>
        <time>2026-05-25T09:56:21.000Z</time>
      </trkpt>
      <trkpt lat="44.63607" lon="5.19545">
        <ele>1431</ele>
        <time>2026-05-25T09:56:22.000Z</time>
      </trkpt>
      <trkpt lat="44.63607" lon="5.19545">
        <ele>1432</ele>
        <time>2026-05-25T09:56:23.000Z</time>
      </trkpt>
      <trkpt lat="44.63607" lon="5.19545">
        <ele>1432</ele>
        <time>2026-05-25T09:56:24.000Z</time>
      </trkpt>
      <trkpt lat="44.63608" lon="5.19545">
        <ele>1432</ele>
        <time>2026-05-25T09:56:25.000Z</time>
      </trkpt>
      <trkpt lat="44.6361" lon="5.19545">
        <ele>1433</ele>
        <time>2026-05-25T09:56:26.000Z</time>
      </trkpt>
      <trkpt lat="44.63611" lon="5.19545">
        <ele>1433</ele>
        <time>2026-05-25T09:56:27.000Z</time>
      </trkpt>
      <trkpt lat="44.63613" lon="5.19545">
        <ele>1433</ele>
        <time>2026-05-25T09:56:28.000Z</time>
      </trkpt>
      <trkpt lat="44.63614" lon="5.19546">
        <ele>1432</ele>
        <time>2026-05-25T09:56:29.000Z</time>
      </trkpt>
      <trkpt lat="44.63615" lon="5.19546">
        <ele>1432</ele>
        <time>2026-05-25T09:56:30.000Z</time>
      </trkpt>
      <trkpt lat="44.63615" lon="5.19545">
        <ele>1433</ele>
        <time>2026-05-25T09:56:31.000Z</time>
      </trkpt>
      <trkpt lat="44.63615" lon="5.19545">
        <ele>1432</ele>
        <time>2026-05-25T09:56:32.000Z</time>
      </trkpt>
      <trkpt lat="44.63615" lon="5.19544">
        <ele>1432</ele>
        <time>2026-05-25T09:56:33.000Z</time>
      </trkpt>
      <trkpt lat="44.63616" lon="5.19541">
        <ele>1433</ele>
        <time>2026-05-25T09:56:34.000Z</time>
      </trkpt>
      <trkpt lat="44.63617" lon="5.19542">
        <ele>1433</ele>
        <time>2026-05-25T09:56:35.000Z</time>
      </trkpt>
      <trkpt lat="44.63619" lon="5.19542">
        <ele>1434</ele>
        <time>2026-05-25T09:56:36.000Z</time>
      </trkpt>
      <trkpt lat="44.6362" lon="5.19543">
        <ele>1433</ele>
        <time>2026-05-25T09:56:37.000Z</time>
      </trkpt>
      <trkpt lat="44.6362" lon="5.19543">
        <ele>1434</ele>
        <time>2026-05-25T09:56:38.000Z</time>
      </trkpt>
      <trkpt lat="44.63621" lon="5.19543">
        <ele>1434</ele>
        <time>2026-05-25T09:56:39.000Z</time>
      </trkpt>
      <trkpt lat="44.63622" lon="5.19542">
        <ele>1435</ele>
        <time>2026-05-25T09:56:40.000Z</time>
      </trkpt>
      <trkpt lat="44.63622" lon="5.19542">
        <ele>1435</ele>
        <time>2026-05-25T09:56:41.000Z</time>
      </trkpt>
      <trkpt lat="44.63622" lon="5.19542">
        <ele>1435</ele>
        <time>2026-05-25T09:56:42.000Z</time>
      </trkpt>
      <trkpt lat="44.63622" lon="5.19542">
        <ele>1435</ele>
        <time>2026-05-25T09:56:43.000Z</time>
      </trkpt>
      <trkpt lat="44.63622" lon="5.19542">
        <ele>1435</ele>
        <time>2026-05-25T09:56:44.000Z</time>
      </trkpt>
      <trkpt lat="44.63622" lon="5.19543">
        <ele>1435</ele>
        <time>2026-05-25T09:56:45.000Z</time>
      </trkpt>
      <trkpt lat="44.63623" lon="5.19542">
        <ele>1435</ele>
        <time>2026-05-25T09:56:46.000Z</time>
      </trkpt>
      <trkpt lat="44.63624" lon="5.19542">
        <ele>1436</ele>
        <time>2026-05-25T09:56:47.000Z</time>
      </trkpt>
      <trkpt lat="44.63624" lon="5.19541">
        <ele>1436</ele>
        <time>2026-05-25T09:56:48.000Z</time>
      </trkpt>
      <trkpt lat="44.63626" lon="5.19541">
        <ele>1436</ele>
        <time>2026-05-25T09:56:49.000Z</time>
      </trkpt>
      <trkpt lat="44.63626" lon="5.19541">
        <ele>1436</ele>
        <time>2026-05-25T09:56:50.000Z</time>
      </trkpt>
      <trkpt lat="44.63626" lon="5.19541">
        <ele>1436</ele>
        <time>2026-05-25T09:56:51.000Z</time>
      </trkpt>
      <trkpt lat="44.63626" lon="5.1954">
        <ele>1436</ele>
        <time>2026-05-25T09:56:52.000Z</time>
      </trkpt>
      <trkpt lat="44.63626" lon="5.1954">
        <ele>1436</ele>
        <time>2026-05-25T09:56:53.000Z</time>
      </trkpt>
      <trkpt lat="44.63626" lon="5.1954">
        <ele>1436</ele>
        <time>2026-05-25T09:56:54.000Z</time>
      </trkpt>
      <trkpt lat="44.63626" lon="5.1954">
        <ele>1436</ele>
        <time>2026-05-25T09:56:55.000Z</time>
      </trkpt>
      <trkpt lat="44.63627" lon="5.1954">
        <ele>1437</ele>
        <time>2026-05-25T09:56:56.000Z</time>
      </trkpt>
      <trkpt lat="44.63628" lon="5.1954">
        <ele>1437</ele>
        <time>2026-05-25T09:56:57.000Z</time>
      </trkpt>
      <trkpt lat="44.63629" lon="5.1954">
        <ele>1437</ele>
        <time>2026-05-25T09:56:58.000Z</time>
      </trkpt>
      <trkpt lat="44.6363" lon="5.1954">
        <ele>1437</ele>
        <time>2026-05-25T09:56:59.000Z</time>
      </trkpt>
      <trkpt lat="44.63631" lon="5.1954">
        <ele>1437</ele>
        <time>2026-05-25T09:57:00.000Z</time>
      </trkpt>
      <trkpt lat="44.63633" lon="5.1954">
        <ele>1437</ele>
        <time>2026-05-25T09:57:01.000Z</time>
      </trkpt>
      <trkpt lat="44.63634" lon="5.1954">
        <ele>1437</ele>
        <time>2026-05-25T09:57:02.000Z</time>
      </trkpt>
      <trkpt lat="44.63635" lon="5.19539">
        <ele>1436</ele>
        <time>2026-05-25T09:57:03.000Z</time>
      </trkpt>
      <trkpt lat="44.63636" lon="5.19538">
        <ele>1438</ele>
        <time>2026-05-25T09:57:04.000Z</time>
      </trkpt>
      <trkpt lat="44.63636" lon="5.19538">
        <ele>1438</ele>
        <time>2026-05-25T09:57:05.000Z</time>
      </trkpt>
      <trkpt lat="44.63637" lon="5.19537">
        <ele>1438</ele>
        <time>2026-05-25T09:57:06.000Z</time>
      </trkpt>
      <trkpt lat="44.63638" lon="5.19537">
        <ele>1438</ele>
        <time>2026-05-25T09:57:07.000Z</time>
      </trkpt>
      <trkpt lat="44.63638" lon="5.19537">
        <ele>1438</ele>
        <time>2026-05-25T09:57:08.000Z</time>
      </trkpt>
      <trkpt lat="44.63639" lon="5.19536">
        <ele>1438</ele>
        <time>2026-05-25T09:57:09.000Z</time>
      </trkpt>
      <trkpt lat="44.6364" lon="5.19536">
        <ele>1438</ele>
        <time>2026-05-25T09:57:10.000Z</time>
      </trkpt>
      <trkpt lat="44.6364" lon="5.19536">
        <ele>1438</ele>
        <time>2026-05-25T09:57:11.000Z</time>
      </trkpt>
      <trkpt lat="44.63641" lon="5.19536">
        <ele>1438</ele>
        <time>2026-05-25T09:57:12.000Z</time>
      </trkpt>
      <trkpt lat="44.63643" lon="5.19535">
        <ele>1438</ele>
        <time>2026-05-25T09:57:13.000Z</time>
      </trkpt>
      <trkpt lat="44.63644" lon="5.19535">
        <ele>1438</ele>
        <time>2026-05-25T09:57:14.000Z</time>
      </trkpt>
      <trkpt lat="44.63646" lon="5.19535">
        <ele>1438</ele>
        <time>2026-05-25T09:57:15.000Z</time>
      </trkpt>
      <trkpt lat="44.63647" lon="5.19536">
        <ele>1438</ele>
        <time>2026-05-25T09:57:16.000Z</time>
      </trkpt>
      <trkpt lat="44.63648" lon="5.19536">
        <ele>1439</ele>
        <time>2026-05-25T09:57:17.000Z</time>
      </trkpt>
      <trkpt lat="44.63649" lon="5.19536">
        <ele>1439</ele>
        <time>2026-05-25T09:57:18.000Z</time>
      </trkpt>
      <trkpt lat="44.6365" lon="5.19536">
        <ele>1439</ele>
        <time>2026-05-25T09:57:19.000Z</time>
      </trkpt>
      <trkpt lat="44.6365" lon="5.19536">
        <ele>1439</ele>
        <time>2026-05-25T09:57:20.000Z</time>
      </trkpt>
      <trkpt lat="44.6365" lon="5.19536">
        <ele>1439</ele>
        <time>2026-05-25T09:57:21.000Z</time>
      </trkpt>
      <trkpt lat="44.63651" lon="5.19536">
        <ele>1439</ele>
        <time>2026-05-25T09:57:22.000Z</time>
      </trkpt>
      <trkpt lat="44.63652" lon="5.19535">
        <ele>1440</ele>
        <time>2026-05-25T09:57:23.000Z</time>
      </trkpt>
      <trkpt lat="44.63654" lon="5.19533">
        <ele>1441</ele>
        <time>2026-05-25T09:57:24.000Z</time>
      </trkpt>
      <trkpt lat="44.63655" lon="5.19532">
        <ele>1442</ele>
        <time>2026-05-25T09:57:25.000Z</time>
      </trkpt>
      <trkpt lat="44.63657" lon="5.19533">
        <ele>1442</ele>
        <time>2026-05-25T09:57:26.000Z</time>
      </trkpt>
      <trkpt lat="44.63658" lon="5.19532">
        <ele>1442</ele>
        <time>2026-05-25T09:57:27.000Z</time>
      </trkpt>
      <trkpt lat="44.63659" lon="5.19532">
        <ele>1441</ele>
        <time>2026-05-25T09:57:28.000Z</time>
      </trkpt>
      <trkpt lat="44.6366" lon="5.19533">
        <ele>1441</ele>
        <time>2026-05-25T09:57:29.000Z</time>
      </trkpt>
      <trkpt lat="44.63661" lon="5.19534">
        <ele>1441</ele>
        <time>2026-05-25T09:57:30.000Z</time>
      </trkpt>
      <trkpt lat="44.63662" lon="5.19533">
        <ele>1441</ele>
        <time>2026-05-25T09:57:31.000Z</time>
      </trkpt>
      <trkpt lat="44.63661" lon="5.19533">
        <ele>1441</ele>
        <time>2026-05-25T09:57:32.000Z</time>
      </trkpt>
      <trkpt lat="44.63661" lon="5.19534">
        <ele>1441</ele>
        <time>2026-05-25T09:57:33.000Z</time>
      </trkpt>
      <trkpt lat="44.63663" lon="5.19534">
        <ele>1440</ele>
        <time>2026-05-25T09:57:34.000Z</time>
      </trkpt>
      <trkpt lat="44.63666" lon="5.19534">
        <ele>1441</ele>
        <time>2026-05-25T09:57:35.000Z</time>
      </trkpt>
      <trkpt lat="44.63666" lon="5.19534">
        <ele>1441</ele>
        <time>2026-05-25T09:57:36.000Z</time>
      </trkpt>
      <trkpt lat="44.63668" lon="5.19534">
        <ele>1441</ele>
        <time>2026-05-25T09:57:37.000Z</time>
      </trkpt>
      <trkpt lat="44.63669" lon="5.19533">
        <ele>1442</ele>
        <time>2026-05-25T09:57:38.000Z</time>
      </trkpt>
      <trkpt lat="44.6367" lon="5.19532">
        <ele>1442</ele>
        <time>2026-05-25T09:57:39.000Z</time>
      </trkpt>
      <trkpt lat="44.6367" lon="5.19533">
        <ele>1442</ele>
        <time>2026-05-25T09:57:40.000Z</time>
      </trkpt>
      <trkpt lat="44.63671" lon="5.19533">
        <ele>1442</ele>
        <time>2026-05-25T09:57:41.000Z</time>
      </trkpt>
      <trkpt lat="44.63672" lon="5.19533">
        <ele>1442</ele>
        <time>2026-05-25T09:57:42.000Z</time>
      </trkpt>
      <trkpt lat="44.63673" lon="5.19531">
        <ele>1442</ele>
        <time>2026-05-25T09:57:43.000Z</time>
      </trkpt>
      <trkpt lat="44.63674" lon="5.19531">
        <ele>1442</ele>
        <time>2026-05-25T09:57:44.000Z</time>
      </trkpt>
      <trkpt lat="44.63674" lon="5.19531">
        <ele>1443</ele>
        <time>2026-05-25T09:57:45.000Z</time>
      </trkpt>
      <trkpt lat="44.63674" lon="5.19532">
        <ele>1444</ele>
        <time>2026-05-25T09:57:46.000Z</time>
      </trkpt>
      <trkpt lat="44.63674" lon="5.19532">
        <ele>1444</ele>
        <time>2026-05-25T09:57:47.000Z</time>
      </trkpt>
      <trkpt lat="44.63674" lon="5.19532">
        <ele>1444</ele>
        <time>2026-05-25T09:57:48.000Z</time>
      </trkpt>
      <trkpt lat="44.63674" lon="5.19532">
        <ele>1444</ele>
        <time>2026-05-25T09:57:49.000Z</time>
      </trkpt>
      <trkpt lat="44.63674" lon="5.19532">
        <ele>1444</ele>
        <time>2026-05-25T09:57:50.000Z</time>
      </trkpt>
      <trkpt lat="44.63674" lon="5.19532">
        <ele>1444</ele>
        <time>2026-05-25T09:57:51.000Z</time>
      </trkpt>
      <trkpt lat="44.63674" lon="5.19532">
        <ele>1444</ele>
        <time>2026-05-25T09:57:52.000Z</time>
      </trkpt>
      <trkpt lat="44.63674" lon="5.19532">
        <ele>1444</ele>
        <time>2026-05-25T09:57:53.000Z</time>
      </trkpt>
      <trkpt lat="44.63674" lon="5.19532">
        <ele>1444</ele>
        <time>2026-05-25T09:57:54.000Z</time>
      </trkpt>
      <trkpt lat="44.63674" lon="5.19532">
        <ele>1444</ele>
        <time>2026-05-25T09:57:55.000Z</time>
      </trkpt>
      <trkpt lat="44.63674" lon="5.19532">
        <ele>1444</ele>
        <time>2026-05-25T09:57:56.000Z</time>
      </trkpt>
      <trkpt lat="44.63674" lon="5.19532">
        <ele>1444</ele>
        <time>2026-05-25T09:57:57.000Z</time>
      </trkpt>
      <trkpt lat="44.63674" lon="5.19532">
        <ele>1444</ele>
        <time>2026-05-25T09:57:58.000Z</time>
      </trkpt>
      <trkpt lat="44.63674" lon="5.19532">
        <ele>1444</ele>
        <time>2026-05-25T09:57:59.000Z</time>
      </trkpt>
      <trkpt lat="44.63674" lon="5.19532">
        <ele>1444</ele>
        <time>2026-05-25T09:58:00.000Z</time>
      </trkpt>
      <trkpt lat="44.63674" lon="5.19532">
        <ele>1444</ele>
        <time>2026-05-25T09:58:01.000Z</time>
      </trkpt>
      <trkpt lat="44.63674" lon="5.19532">
        <ele>1444</ele>
        <time>2026-05-25T09:58:02.000Z</time>
      </trkpt>
      <trkpt lat="44.63674" lon="5.19532">
        <ele>1444</ele>
        <time>2026-05-25T09:58:03.000Z</time>
      </trkpt>
      <trkpt lat="44.63674" lon="5.19532">
        <ele>1444</ele>
        <time>2026-05-25T09:58:04.000Z</time>
      </trkpt>
      <trkpt lat="44.63674" lon="5.19532">
        <ele>1444</ele>
        <time>2026-05-25T09:58:05.000Z</time>
      </trkpt>
      <trkpt lat="44.63674" lon="5.19532">
        <ele>1444</ele>
        <time>2026-05-25T09:58:06.000Z</time>
      </trkpt>
      <trkpt lat="44.63674" lon="5.19532">
        <ele>1444</ele>
        <time>2026-05-25T09:58:07.000Z</time>
      </trkpt>
      <trkpt lat="44.63674" lon="5.19532">
        <ele>1444</ele>
        <time>2026-05-25T09:58:08.000Z</time>
      </trkpt>
      <trkpt lat="44.63674" lon="5.19532">
        <ele>1444</ele>
        <time>2026-05-25T09:58:09.000Z</time>
      </trkpt>
      <trkpt lat="44.63674" lon="5.19532">
        <ele>1444</ele>
        <time>2026-05-25T09:58:10.000Z</time>
      </trkpt>
      <trkpt lat="44.63674" lon="5.19532">
        <ele>1444</ele>
        <time>2026-05-25T09:58:11.000Z</time>
      </trkpt>
      <trkpt lat="44.63674" lon="5.19532">
        <ele>1444</ele>
        <time>2026-05-25T09:58:12.000Z</time>
      </trkpt>
      <trkpt lat="44.63674" lon="5.19532">
        <ele>1444</ele>
        <time>2026-05-25T09:58:13.000Z</time>
      </trkpt>
      <trkpt lat="44.63674" lon="5.19532">
        <ele>1444</ele>
        <time>2026-05-25T09:58:14.000Z</time>
      </trkpt>
      <trkpt lat="44.63674" lon="5.19532">
        <ele>1444</ele>
        <time>2026-05-25T09:58:15.000Z</time>
      </trkpt>
      <trkpt lat="44.63674" lon="5.19532">
        <ele>1444</ele>
        <time>2026-05-25T09:58:16.000Z</time>
      </trkpt>
      <trkpt lat="44.63674" lon="5.19532">
        <ele>1444</ele>
        <time>2026-05-25T09:58:17.000Z</time>
      </trkpt>
      <trkpt lat="44.63674" lon="5.19532">
        <ele>1444</ele>
        <time>2026-05-25T09:58:18.000Z</time>
      </trkpt>
      <trkpt lat="44.63674" lon="5.19532">
        <ele>1444</ele>
        <time>2026-05-25T09:58:19.000Z</time>
      </trkpt>
      <trkpt lat="44.63674" lon="5.19532">
        <ele>1444</ele>
        <time>2026-05-25T09:58:20.000Z</time>
      </trkpt>
      <trkpt lat="44.63674" lon="5.19532">
        <ele>1444</ele>
        <time>2026-05-25T09:58:21.000Z</time>
      </trkpt>
      <trkpt lat="44.63674" lon="5.19532">
        <ele>1444</ele>
        <time>2026-05-25T09:58:22.000Z</time>
      </trkpt>
      <trkpt lat="44.63674" lon="5.19532">
        <ele>1444</ele>
        <time>2026-05-25T09:58:23.000Z</time>
      </trkpt>
      <trkpt lat="44.63674" lon="5.19532">
        <ele>1444</ele>
        <time>2026-05-25T09:58:24.000Z</time>
      </trkpt>
      <trkpt lat="44.63674" lon="5.19532">
        <ele>1444</ele>
        <time>2026-05-25T09:58:25.000Z</time>
      </trkpt>
      <trkpt lat="44.63674" lon="5.19532">
        <ele>1444</ele>
        <time>2026-05-25T09:58:26.000Z</time>
      </trkpt>
      <trkpt lat="44.63674" lon="5.19532">
        <ele>1444</ele>
        <time>2026-05-25T09:58:27.000Z</time>
      </trkpt>
      <trkpt lat="44.63674" lon="5.19532">
        <ele>1444</ele>
        <time>2026-05-25T09:58:28.000Z</time>
      </trkpt>
      <trkpt lat="44.63674" lon="5.19532">
        <ele>1444</ele>
        <time>2026-05-25T09:58:29.000Z</time>
      </trkpt>
      <trkpt lat="44.63674" lon="5.19532">
        <ele>1444</ele>
        <time>2026-05-25T09:58:30.000Z</time>
      </trkpt>
      <trkpt lat="44.63674" lon="5.19532">
        <ele>1444</ele>
        <time>2026-05-25T09:58:31.000Z</time>
      </trkpt>
      <trkpt lat="44.63674" lon="5.19532">
        <ele>1444</ele>
        <time>2026-05-25T09:58:32.000Z</time>
      </trkpt>
      <trkpt lat="44.63674" lon="5.19532">
        <ele>1444</ele>
        <time>2026-05-25T09:58:33.000Z</time>
      </trkpt>
      <trkpt lat="44.63674" lon="5.19532">
        <ele>1444</ele>
        <time>2026-05-25T09:58:34.000Z</time>
      </trkpt>
      <trkpt lat="44.63674" lon="5.19532">
        <ele>1444</ele>
        <time>2026-05-25T09:58:35.000Z</time>
      </trkpt>
      <trkpt lat="44.63674" lon="5.19532">
        <ele>1444</ele>
        <time>2026-05-25T09:58:36.000Z</time>
      </trkpt>
      <trkpt lat="44.63674" lon="5.19532">
        <ele>1444</ele>
        <time>2026-05-25T09:58:37.000Z</time>
      </trkpt>
      <trkpt lat="44.63674" lon="5.19532">
        <ele>1444</ele>
        <time>2026-05-25T09:58:38.000Z</time>
      </trkpt>
      <trkpt lat="44.63674" lon="5.19532">
        <ele>1444</ele>
        <time>2026-05-25T09:58:39.000Z</time>
      </trkpt>
      <trkpt lat="44.63674" lon="5.19532">
        <ele>1444</ele>
        <time>2026-05-25T09:58:40.000Z</time>
      </trkpt>
      <trkpt lat="44.63674" lon="5.19532">
        <ele>1444</ele>
        <time>2026-05-25T09:58:41.000Z</time>
      </trkpt>
      <trkpt lat="44.63674" lon="5.19532">
        <ele>1444</ele>
        <time>2026-05-25T09:58:42.000Z</time>
      </trkpt>
      <trkpt lat="44.63674" lon="5.19532">
        <ele>1444</ele>
        <time>2026-05-25T09:58:43.000Z</time>
      </trkpt>
      <trkpt lat="44.63674" lon="5.19532">
        <ele>1444</ele>
        <time>2026-05-25T09:58:44.000Z</time>
      </trkpt>
      <trkpt lat="44.63674" lon="5.19532">
        <ele>1444</ele>
        <time>2026-05-25T09:58:45.000Z</time>
      </trkpt>
      <trkpt lat="44.63674" lon="5.19532">
        <ele>1444</ele>
        <time>2026-05-25T09:58:46.000Z</time>
      </trkpt>
      <trkpt lat="44.63674" lon="5.19532">
        <ele>1444</ele>
        <time>2026-05-25T09:58:47.000Z</time>
      </trkpt>
      <trkpt lat="44.63674" lon="5.19532">
        <ele>1444</ele>
        <time>2026-05-25T09:58:48.000Z</time>
      </trkpt>
      <trkpt lat="44.63674" lon="5.19532">
        <ele>1444</ele>
        <time>2026-05-25T09:58:49.000Z</time>
      </trkpt>
      <trkpt lat="44.63674" lon="5.19532">
        <ele>1444</ele>
        <time>2026-05-25T09:58:50.000Z</time>
      </trkpt>
      <trkpt lat="44.63674" lon="5.19532">
        <ele>1444</ele>
        <time>2026-05-25T09:58:51.000Z</time>
      </trkpt>
      <trkpt lat="44.63674" lon="5.19532">
        <ele>1444</ele>
        <time>2026-05-25T09:58:52.000Z</time>
      </trkpt>
      <trkpt lat="44.63674" lon="5.19532">
        <ele>1444</ele>
        <time>2026-05-25T09:58:53.000Z</time>
      </trkpt>
      <trkpt lat="44.63674" lon="5.19532">
        <ele>1444</ele>
        <time>2026-05-25T09:58:54.000Z</time>
      </trkpt>
      <trkpt lat="44.63674" lon="5.19532">
        <ele>1444</ele>
        <time>2026-05-25T09:58:55.000Z</time>
      </trkpt>
      <trkpt lat="44.63674" lon="5.19532">
        <ele>1444</ele>
        <time>2026-05-25T09:58:56.000Z</time>
      </trkpt>
      <trkpt lat="44.63674" lon="5.19532">
        <ele>1444</ele>
        <time>2026-05-25T09:58:57.000Z</time>
      </trkpt>
      <trkpt lat="44.63674" lon="5.19532">
        <ele>1444</ele>
        <time>2026-05-25T09:58:58.000Z</time>
      </trkpt>
      <trkpt lat="44.63674" lon="5.19532">
        <ele>1444</ele>
        <time>2026-05-25T09:58:59.000Z</time>
      </trkpt>
      <trkpt lat="44.63674" lon="5.19532">
        <ele>1444</ele>
        <time>2026-05-25T09:59:00.000Z</time>
      </trkpt>
      <trkpt lat="44.63674" lon="5.19532">
        <ele>1444</ele>
        <time>2026-05-25T09:59:01.000Z</time>
      </trkpt>
      <trkpt lat="44.63674" lon="5.19532">
        <ele>1444</ele>
        <time>2026-05-25T09:59:02.000Z</time>
      </trkpt>
      <trkpt lat="44.63674" lon="5.19532">
        <ele>1444</ele>
        <time>2026-05-25T09:59:03.000Z</time>
      </trkpt>
      <trkpt lat="44.63674" lon="5.19532">
        <ele>1444</ele>
        <time>2026-05-25T09:59:04.000Z</time>
      </trkpt>
      <trkpt lat="44.63674" lon="5.19532">
        <ele>1444</ele>
        <time>2026-05-25T09:59:05.000Z</time>
      </trkpt>
      <trkpt lat="44.63674" lon="5.19532">
        <ele>1444</ele>
        <time>2026-05-25T09:59:06.000Z</time>
      </trkpt>
      <trkpt lat="44.63674" lon="5.19532">
        <ele>1444</ele>
        <time>2026-05-25T09:59:07.000Z</time>
      </trkpt>
      <trkpt lat="44.63674" lon="5.19532">
        <ele>1444</ele>
        <time>2026-05-25T09:59:08.000Z</time>
      </trkpt>
      <trkpt lat="44.63674" lon="5.19532">
        <ele>1444</ele>
        <time>2026-05-25T09:59:09.000Z</time>
      </trkpt>
      <trkpt lat="44.63674" lon="5.19532">
        <ele>1444</ele>
        <time>2026-05-25T09:59:10.000Z</time>
      </trkpt>
      <trkpt lat="44.63674" lon="5.19532">
        <ele>1444</ele>
        <time>2026-05-25T09:59:11.000Z</time>
      </trkpt>
      <trkpt lat="44.63674" lon="5.19532">
        <ele>1444</ele>
        <time>2026-05-25T09:59:12.000Z</time>
      </trkpt>
      <trkpt lat="44.63674" lon="5.19532">
        <ele>1444</ele>
        <time>2026-05-25T09:59:13.000Z</time>
      </trkpt>
      <trkpt lat="44.63674" lon="5.19532">
        <ele>1444</ele>
        <time>2026-05-25T09:59:14.000Z</time>
      </trkpt>
      <trkpt lat="44.63674" lon="5.19532">
        <ele>1444</ele>
        <time>2026-05-25T09:59:15.000Z</time>
      </trkpt>
      <trkpt lat="44.63674" lon="5.19532">
        <ele>1444</ele>
        <time>2026-05-25T09:59:16.000Z</time>
      </trkpt>
      <trkpt lat="44.63674" lon="5.19532">
        <ele>1444</ele>
        <time>2026-05-25T09:59:17.000Z</time>
      </trkpt>
      <trkpt lat="44.63674" lon="5.19532">
        <ele>1444</ele>
        <time>2026-05-25T09:59:18.000Z</time>
      </trkpt>
      <trkpt lat="44.63674" lon="5.19532">
        <ele>1444</ele>
        <time>2026-05-25T09:59:19.000Z</time>
      </trkpt>
      <trkpt lat="44.63674" lon="5.19532">
        <ele>1444</ele>
        <time>2026-05-25T09:59:20.000Z</time>
      </trkpt>
      <trkpt lat="44.63674" lon="5.19532">
        <ele>1444</ele>
        <time>2026-05-25T09:59:21.000Z</time>
      </trkpt>
      <trkpt lat="44.63674" lon="5.19532">
        <ele>1444</ele>
        <time>2026-05-25T09:59:22.000Z</time>
      </trkpt>
      <trkpt lat="44.63674" lon="5.19532">
        <ele>1444</ele>
        <time>2026-05-25T09:59:23.000Z</time>
      </trkpt>
      <trkpt lat="44.63674" lon="5.19532">
        <ele>1444</ele>
        <time>2026-05-25T09:59:24.000Z</time>
      </trkpt>
      <trkpt lat="44.63674" lon="5.19532">
        <ele>1444</ele>
        <time>2026-05-25T09:59:25.000Z</time>
      </trkpt>
      <trkpt lat="44.63674" lon="5.19532">
        <ele>1444</ele>
        <time>2026-05-25T09:59:26.000Z</time>
      </trkpt>
      <trkpt lat="44.63674" lon="5.19532">
        <ele>1444</ele>
        <time>2026-05-25T09:59:27.000Z</time>
      </trkpt>
      <trkpt lat="44.63674" lon="5.19532">
        <ele>1444</ele>
        <time>2026-05-25T09:59:28.000Z</time>
      </trkpt>
      <trkpt lat="44.63674" lon="5.19532">
        <ele>1444</ele>
        <time>2026-05-25T09:59:29.000Z</time>
      </trkpt>
      <trkpt lat="44.63674" lon="5.19532">
        <ele>1444</ele>
        <time>2026-05-25T09:59:30.000Z</time>
      </trkpt>
      <trkpt lat="44.63674" lon="5.19532">
        <ele>1444</ele>
        <time>2026-05-25T09:59:31.000Z</time>
      </trkpt>
      <trkpt lat="44.63674" lon="5.19532">
        <ele>1444</ele>
        <time>2026-05-25T09:59:32.000Z</time>
      </trkpt>
      <trkpt lat="44.63674" lon="5.19532">
        <ele>1444</ele>
        <time>2026-05-25T09:59:33.000Z</time>
      </trkpt>
      <trkpt lat="44.63674" lon="5.19532">
        <ele>1444</ele>
        <time>2026-05-25T09:59:34.000Z</time>
      </trkpt>
      <trkpt lat="44.63674" lon="5.19532">
        <ele>1444</ele>
        <time>2026-05-25T09:59:35.000Z</time>
      </trkpt>
      <trkpt lat="44.63674" lon="5.19532">
        <ele>1444</ele>
        <time>2026-05-25T09:59:36.000Z</time>
      </trkpt>
      <trkpt lat="44.63674" lon="5.19532">
        <ele>1444</ele>
        <time>2026-05-25T09:59:37.000Z</time>
      </trkpt>
      <trkpt lat="44.63674" lon="5.19532">
        <ele>1444</ele>
        <time>2026-05-25T09:59:38.000Z</time>
      </trkpt>
      <trkpt lat="44.63674" lon="5.19532">
        <ele>1444</ele>
        <time>2026-05-25T09:59:39.000Z</time>
      </trkpt>
      <trkpt lat="44.63674" lon="5.19532">
        <ele>1444</ele>
        <time>2026-05-25T09:59:40.000Z</time>
      </trkpt>
      <trkpt lat="44.63674" lon="5.19532">
        <ele>1444</ele>
        <time>2026-05-25T09:59:41.000Z</time>
      </trkpt>
      <trkpt lat="44.63674" lon="5.19532">
        <ele>1444</ele>
        <time>2026-05-25T09:59:42.000Z</time>
      </trkpt>
      <trkpt lat="44.63674" lon="5.19532">
        <ele>1444</ele>
        <time>2026-05-25T09:59:43.000Z</time>
      </trkpt>
      <trkpt lat="44.63674" lon="5.19532">
        <ele>1444</ele>
        <time>2026-05-25T09:59:44.000Z</time>
      </trkpt>
      <trkpt lat="44.63674" lon="5.19532">
        <ele>1444</ele>
        <time>2026-05-25T09:59:45.000Z</time>
      </trkpt>
      <trkpt lat="44.63674" lon="5.19532">
        <ele>1444</ele>
        <time>2026-05-25T09:59:46.000Z</time>
      </trkpt>
      <trkpt lat="44.63674" lon="5.19532">
        <ele>1444</ele>
        <time>2026-05-25T09:59:47.000Z</time>
      </trkpt>
      <trkpt lat="44.63674" lon="5.19532">
        <ele>1444</ele>
        <time>2026-05-25T09:59:48.000Z</time>
      </trkpt>
      <trkpt lat="44.63674" lon="5.19532">
        <ele>1444</ele>
        <time>2026-05-25T09:59:49.000Z</time>
      </trkpt>
      <trkpt lat="44.63674" lon="5.19532">
        <ele>1444</ele>
        <time>2026-05-25T09:59:50.000Z</time>
      </trkpt>
      <trkpt lat="44.63674" lon="5.19532">
        <ele>1444</ele>
        <time>2026-05-25T09:59:51.000Z</time>
      </trkpt>
      <trkpt lat="44.63674" lon="5.19532">
        <ele>1444</ele>
        <time>2026-05-25T09:59:52.000Z</time>
      </trkpt>
      <trkpt lat="44.63674" lon="5.19532">
        <ele>1444</ele>
        <time>2026-05-25T09:59:53.000Z</time>
      </trkpt>
      <trkpt lat="44.63674" lon="5.19532">
        <ele>1444</ele>
        <time>2026-05-25T09:59:54.000Z</time>
      </trkpt>
      <trkpt lat="44.63674" lon="5.19532">
        <ele>1444</ele>
        <time>2026-05-25T09:59:55.000Z</time>
      </trkpt>
      <trkpt lat="44.63674" lon="5.19532">
        <ele>1444</ele>
        <time>2026-05-25T09:59:56.000Z</time>
      </trkpt>
      <trkpt lat="44.63674" lon="5.19532">
        <ele>1444</ele>
        <time>2026-05-25T09:59:57.000Z</time>
      </trkpt>
      <trkpt lat="44.63674" lon="5.19532">
        <ele>1444</ele>
        <time>2026-05-25T09:59:58.000Z</time>
      </trkpt>
      <trkpt lat="44.63674" lon="5.19532">
        <ele>1444</ele>
        <time>2026-05-25T09:59:59.000Z</time>
      </trkpt>
      <trkpt lat="44.63674" lon="5.19532">
        <ele>1444</ele>
        <time>2026-05-25T10:00:00.000Z</time>
      </trkpt>
      <trkpt lat="44.63674" lon="5.19532">
        <ele>1444</ele>
        <time>2026-05-25T10:00:01.000Z</time>
      </trkpt>
      <trkpt lat="44.63674" lon="5.19532">
        <ele>1444</ele>
        <time>2026-05-25T10:00:02.000Z</time>
      </trkpt>
      <trkpt lat="44.63674" lon="5.19532">
        <ele>1444</ele>
        <time>2026-05-25T10:00:03.000Z</time>
      </trkpt>
      <trkpt lat="44.63674" lon="5.19532">
        <ele>1444</ele>
        <time>2026-05-25T10:00:04.000Z</time>
      </trkpt>
      <trkpt lat="44.63674" lon="5.19532">
        <ele>1444</ele>
        <time>2026-05-25T10:00:05.000Z</time>
      </trkpt>
      <trkpt lat="44.63674" lon="5.19532">
        <ele>1444</ele>
        <time>2026-05-25T10:00:06.000Z</time>
      </trkpt>
      <trkpt lat="44.63674" lon="5.19532">
        <ele>1444</ele>
        <time>2026-05-25T10:00:07.000Z</time>
      </trkpt>
      <trkpt lat="44.63674" lon="5.19532">
        <ele>1444</ele>
        <time>2026-05-25T10:00:08.000Z</time>
      </trkpt>
      <trkpt lat="44.63674" lon="5.19532">
        <ele>1444</ele>
        <time>2026-05-25T10:00:09.000Z</time>
      </trkpt>
      <trkpt lat="44.63674" lon="5.19532">
        <ele>1444</ele>
        <time>2026-05-25T10:00:10.000Z</time>
      </trkpt>
      <trkpt lat="44.63674" lon="5.19532">
        <ele>1444</ele>
        <time>2026-05-25T10:00:11.000Z</time>
      </trkpt>
      <trkpt lat="44.63674" lon="5.19532">
        <ele>1444</ele>
        <time>2026-05-25T10:00:12.000Z</time>
      </trkpt>
      <trkpt lat="44.63674" lon="5.19532">
        <ele>1444</ele>
        <time>2026-05-25T10:00:13.000Z</time>
      </trkpt>
      <trkpt lat="44.63674" lon="5.19532">
        <ele>1444</ele>
        <time>2026-05-25T10:00:14.000Z</time>
      </trkpt>
      <trkpt lat="44.63674" lon="5.19532">
        <ele>1444</ele>
        <time>2026-05-25T10:00:15.000Z</time>
      </trkpt>
      <trkpt lat="44.63674" lon="5.19532">
        <ele>1444</ele>
        <time>2026-05-25T10:00:16.000Z</time>
      </trkpt>
      <trkpt lat="44.63674" lon="5.19532">
        <ele>1444</ele>
        <time>2026-05-25T10:00:17.000Z</time>
      </trkpt>
      <trkpt lat="44.63674" lon="5.19532">
        <ele>1444</ele>
        <time>2026-05-25T10:00:18.000Z</time>
      </trkpt>
      <trkpt lat="44.63674" lon="5.19532">
        <ele>1444</ele>
        <time>2026-05-25T10:00:19.000Z</time>
      </trkpt>
      <trkpt lat="44.63674" lon="5.19532">
        <ele>1444</ele>
        <time>2026-05-25T10:00:20.000Z</time>
      </trkpt>
      <trkpt lat="44.63674" lon="5.19532">
        <ele>1444</ele>
        <time>2026-05-25T10:00:21.000Z</time>
      </trkpt>
      <trkpt lat="44.63674" lon="5.19532">
        <ele>1444</ele>
        <time>2026-05-25T10:00:22.000Z</time>
      </trkpt>
      <trkpt lat="44.63674" lon="5.19532">
        <ele>1444</ele>
        <time>2026-05-25T10:00:23.000Z</time>
      </trkpt>
      <trkpt lat="44.63674" lon="5.19532">
        <ele>1444</ele>
        <time>2026-05-25T10:00:24.000Z</time>
      </trkpt>
      <trkpt lat="44.63674" lon="5.19532">
        <ele>1444</ele>
        <time>2026-05-25T10:00:25.000Z</time>
      </trkpt>
      <trkpt lat="44.63674" lon="5.19532">
        <ele>1444</ele>
        <time>2026-05-25T10:00:26.000Z</time>
      </trkpt>
      <trkpt lat="44.63674" lon="5.19532">
        <ele>1444</ele>
        <time>2026-05-25T10:00:27.000Z</time>
      </trkpt>
      <trkpt lat="44.63674" lon="5.19532">
        <ele>1444</ele>
        <time>2026-05-25T10:00:28.000Z</time>
      </trkpt>
      <trkpt lat="44.63674" lon="5.19532">
        <ele>1444</ele>
        <time>2026-05-25T10:00:29.000Z</time>
      </trkpt>
      <trkpt lat="44.63674" lon="5.19532">
        <ele>1444</ele>
        <time>2026-05-25T10:00:30.000Z</time>
      </trkpt>
      <trkpt lat="44.63674" lon="5.19532">
        <ele>1444</ele>
        <time>2026-05-25T10:00:31.000Z</time>
      </trkpt>
      <trkpt lat="44.63674" lon="5.19532">
        <ele>1444</ele>
        <time>2026-05-25T10:00:32.000Z</time>
      </trkpt>
      <trkpt lat="44.63674" lon="5.19532">
        <ele>1444</ele>
        <time>2026-05-25T10:00:33.000Z</time>
      </trkpt>
      <trkpt lat="44.63674" lon="5.19532">
        <ele>1444</ele>
        <time>2026-05-25T10:00:34.000Z</time>
      </trkpt>
      <trkpt lat="44.63674" lon="5.19532">
        <ele>1444</ele>
        <time>2026-05-25T10:00:35.000Z</time>
      </trkpt>
      <trkpt lat="44.63674" lon="5.19532">
        <ele>1444</ele>
        <time>2026-05-25T10:00:36.000Z</time>
      </trkpt>
      <trkpt lat="44.63674" lon="5.19532">
        <ele>1444</ele>
        <time>2026-05-25T10:00:37.000Z</time>
      </trkpt>
      <trkpt lat="44.63674" lon="5.19532">
        <ele>1444</ele>
        <time>2026-05-25T10:00:38.000Z</time>
      </trkpt>
      <trkpt lat="44.63674" lon="5.19532">
        <ele>1444</ele>
        <time>2026-05-25T10:00:39.000Z</time>
      </trkpt>
      <trkpt lat="44.63674" lon="5.19532">
        <ele>1444</ele>
        <time>2026-05-25T10:00:40.000Z</time>
      </trkpt>
      <trkpt lat="44.63674" lon="5.19532">
        <ele>1444</ele>
        <time>2026-05-25T10:00:41.000Z</time>
      </trkpt>
      <trkpt lat="44.63674" lon="5.19532">
        <ele>1444</ele>
        <time>2026-05-25T10:00:42.000Z</time>
      </trkpt>
      <trkpt lat="44.63674" lon="5.19532">
        <ele>1444</ele>
        <time>2026-05-25T10:00:43.000Z</time>
      </trkpt>
      <trkpt lat="44.63674" lon="5.19532">
        <ele>1444</ele>
        <time>2026-05-25T10:00:44.000Z</time>
      </trkpt>
      <trkpt lat="44.63674" lon="5.19532">
        <ele>1444</ele>
        <time>2026-05-25T10:00:45.000Z</time>
      </trkpt>
      <trkpt lat="44.63674" lon="5.19532">
        <ele>1444</ele>
        <time>2026-05-25T10:00:46.000Z</time>
      </trkpt>
      <trkpt lat="44.63674" lon="5.19532">
        <ele>1444</ele>
        <time>2026-05-25T10:00:47.000Z</time>
      </trkpt>
      <trkpt lat="44.63674" lon="5.19532">
        <ele>1444</ele>
        <time>2026-05-25T10:00:48.000Z</time>
      </trkpt>
      <trkpt lat="44.63674" lon="5.19532">
        <ele>1444</ele>
        <time>2026-05-25T10:00:49.000Z</time>
      </trkpt>
      <trkpt lat="44.63674" lon="5.19532">
        <ele>1444</ele>
        <time>2026-05-25T10:00:50.000Z</time>
      </trkpt>
      <trkpt lat="44.63674" lon="5.19532">
        <ele>1444</ele>
        <time>2026-05-25T10:00:51.000Z</time>
      </trkpt>
      <trkpt lat="44.63674" lon="5.19532">
        <ele>1444</ele>
        <time>2026-05-25T10:00:52.000Z</time>
      </trkpt>
      <trkpt lat="44.63674" lon="5.19532">
        <ele>1444</ele>
        <time>2026-05-25T10:00:53.000Z</time>
      </trkpt>
      <trkpt lat="44.63674" lon="5.19532">
        <ele>1444</ele>
        <time>2026-05-25T10:00:54.000Z</time>
      </trkpt>
      <trkpt lat="44.63674" lon="5.19532">
        <ele>1444</ele>
        <time>2026-05-25T10:00:55.000Z</time>
      </trkpt>
      <trkpt lat="44.63674" lon="5.19532">
        <ele>1444</ele>
        <time>2026-05-25T10:00:56.000Z</time>
      </trkpt>
      <trkpt lat="44.63674" lon="5.19532">
        <ele>1444</ele>
        <time>2026-05-25T10:00:57.000Z</time>
      </trkpt>
      <trkpt lat="44.63674" lon="5.19532">
        <ele>1444</ele>
        <time>2026-05-25T10:00:58.000Z</time>
      </trkpt>
      <trkpt lat="44.63674" lon="5.19532">
        <ele>1444</ele>
        <time>2026-05-25T10:00:59.000Z</time>
      </trkpt>
      <trkpt lat="44.63674" lon="5.19532">
        <ele>1444</ele>
        <time>2026-05-25T10:01:00.000Z</time>
      </trkpt>
      <trkpt lat="44.63674" lon="5.19532">
        <ele>1444</ele>
        <time>2026-05-25T10:01:01.000Z</time>
      </trkpt>
      <trkpt lat="44.63674" lon="5.19532">
        <ele>1444</ele>
        <time>2026-05-25T10:01:02.000Z</time>
      </trkpt>
      <trkpt lat="44.63674" lon="5.19532">
        <ele>1444</ele>
        <time>2026-05-25T10:01:03.000Z</time>
      </trkpt>
      <trkpt lat="44.63674" lon="5.19532">
        <ele>1444</ele>
        <time>2026-05-25T10:01:04.000Z</time>
      </trkpt>
      <trkpt lat="44.63674" lon="5.19532">
        <ele>1444</ele>
        <time>2026-05-25T10:01:05.000Z</time>
      </trkpt>
      <trkpt lat="44.63674" lon="5.19532">
        <ele>1444</ele>
        <time>2026-05-25T10:01:06.000Z</time>
      </trkpt>
      <trkpt lat="44.63674" lon="5.19532">
        <ele>1444</ele>
        <time>2026-05-25T10:01:07.000Z</time>
      </trkpt>
      <trkpt lat="44.63674" lon="5.19532">
        <ele>1444</ele>
        <time>2026-05-25T10:01:08.000Z</time>
      </trkpt>
      <trkpt lat="44.63674" lon="5.19532">
        <ele>1444</ele>
        <time>2026-05-25T10:01:09.000Z</time>
      </trkpt>
      <trkpt lat="44.63674" lon="5.19532">
        <ele>1444</ele>
        <time>2026-05-25T10:01:10.000Z</time>
      </trkpt>
      <trkpt lat="44.63674" lon="5.19532">
        <ele>1444</ele>
        <time>2026-05-25T10:01:11.000Z</time>
      </trkpt>
      <trkpt lat="44.63674" lon="5.19532">
        <ele>1444</ele>
        <time>2026-05-25T10:01:12.000Z</time>
      </trkpt>
      <trkpt lat="44.63674" lon="5.19532">
        <ele>1444</ele>
        <time>2026-05-25T10:01:13.000Z</time>
      </trkpt>
      <trkpt lat="44.63674" lon="5.19532">
        <ele>1444</ele>
        <time>2026-05-25T10:01:14.000Z</time>
      </trkpt>
      <trkpt lat="44.63674" lon="5.19532">
        <ele>1444</ele>
        <time>2026-05-25T10:01:15.000Z</time>
      </trkpt>
      <trkpt lat="44.63674" lon="5.19532">
        <ele>1444</ele>
        <time>2026-05-25T10:01:16.000Z</time>
      </trkpt>
      <trkpt lat="44.63674" lon="5.19532">
        <ele>1444</ele>
        <time>2026-05-25T10:01:17.000Z</time>
      </trkpt>
      <trkpt lat="44.63674" lon="5.19532">
        <ele>1444</ele>
        <time>2026-05-25T10:01:18.000Z</time>
      </trkpt>
      <trkpt lat="44.63674" lon="5.19532">
        <ele>1444</ele>
        <time>2026-05-25T10:01:19.000Z</time>
      </trkpt>
      <trkpt lat="44.63674" lon="5.19532">
        <ele>1444</ele>
        <time>2026-05-25T10:01:20.000Z</time>
      </trkpt>
      <trkpt lat="44.63674" lon="5.19532">
        <ele>1444</ele>
        <time>2026-05-25T10:01:21.000Z</time>
      </trkpt>
      <trkpt lat="44.63674" lon="5.19532">
        <ele>1444</ele>
        <time>2026-05-25T10:01:22.000Z</time>
      </trkpt>
      <trkpt lat="44.63674" lon="5.19532">
        <ele>1444</ele>
        <time>2026-05-25T10:01:23.000Z</time>
      </trkpt>
      <trkpt lat="44.63674" lon="5.19532">
        <ele>1444</ele>
        <time>2026-05-25T10:01:24.000Z</time>
      </trkpt>
      <trkpt lat="44.63674" lon="5.19532">
        <ele>1444</ele>
        <time>2026-05-25T10:01:25.000Z</time>
      </trkpt>
      <trkpt lat="44.63674" lon="5.19532">
        <ele>1444</ele>
        <time>2026-05-25T10:01:26.000Z</time>
      </trkpt>
      <trkpt lat="44.63674" lon="5.19532">
        <ele>1444</ele>
        <time>2026-05-25T10:01:27.000Z</time>
      </trkpt>
      <trkpt lat="44.63674" lon="5.19532">
        <ele>1444</ele>
        <time>2026-05-25T10:01:28.000Z</time>
      </trkpt>
      <trkpt lat="44.63674" lon="5.19532">
        <ele>1444</ele>
        <time>2026-05-25T10:01:29.000Z</time>
      </trkpt>
      <trkpt lat="44.63674" lon="5.19532">
        <ele>1444</ele>
        <time>2026-05-25T10:01:30.000Z</time>
      </trkpt>
      <trkpt lat="44.63674" lon="5.19532">
        <ele>1444</ele>
        <time>2026-05-25T10:01:31.000Z</time>
      </trkpt>
      <trkpt lat="44.63674" lon="5.19532">
        <ele>1444</ele>
        <time>2026-05-25T10:01:32.000Z</time>
      </trkpt>
      <trkpt lat="44.63674" lon="5.19532">
        <ele>1444</ele>
        <time>2026-05-25T10:01:33.000Z</time>
      </trkpt>
      <trkpt lat="44.63674" lon="5.19532">
        <ele>1444</ele>
        <time>2026-05-25T10:01:34.000Z</time>
      </trkpt>
      <trkpt lat="44.63674" lon="5.19532">
        <ele>1444</ele>
        <time>2026-05-25T10:01:35.000Z</time>
      </trkpt>
      <trkpt lat="44.63674" lon="5.19532">
        <ele>1444</ele>
        <time>2026-05-25T10:01:36.000Z</time>
      </trkpt>
      <trkpt lat="44.63674" lon="5.19532">
        <ele>1444</ele>
        <time>2026-05-25T10:01:37.000Z</time>
      </trkpt>
      <trkpt lat="44.63674" lon="5.19532">
        <ele>1444</ele>
        <time>2026-05-25T10:01:38.000Z</time>
      </trkpt>
      <trkpt lat="44.63674" lon="5.19532">
        <ele>1444</ele>
        <time>2026-05-25T10:01:39.000Z</time>
      </trkpt>
      <trkpt lat="44.63674" lon="5.19532">
        <ele>1444</ele>
        <time>2026-05-25T10:01:40.000Z</time>
      </trkpt>
      <trkpt lat="44.63674" lon="5.19532">
        <ele>1444</ele>
        <time>2026-05-25T10:01:41.000Z</time>
      </trkpt>
      <trkpt lat="44.63674" lon="5.19532">
        <ele>1444</ele>
        <time>2026-05-25T10:01:42.000Z</time>
      </trkpt>
      <trkpt lat="44.63674" lon="5.19532">
        <ele>1444</ele>
        <time>2026-05-25T10:01:43.000Z</time>
      </trkpt>
      <trkpt lat="44.63674" lon="5.19532">
        <ele>1444</ele>
        <time>2026-05-25T10:01:44.000Z</time>
      </trkpt>
      <trkpt lat="44.63674" lon="5.19532">
        <ele>1444</ele>
        <time>2026-05-25T10:01:45.000Z</time>
      </trkpt>
      <trkpt lat="44.63674" lon="5.19532">
        <ele>1444</ele>
        <time>2026-05-25T10:01:46.000Z</time>
      </trkpt>
      <trkpt lat="44.63674" lon="5.19532">
        <ele>1444</ele>
        <time>2026-05-25T10:01:47.000Z</time>
      </trkpt>
      <trkpt lat="44.63674" lon="5.19532">
        <ele>1444</ele>
        <time>2026-05-25T10:01:48.000Z</time>
      </trkpt>
      <trkpt lat="44.63674" lon="5.19532">
        <ele>1444</ele>
        <time>2026-05-25T10:01:49.000Z</time>
      </trkpt>
      <trkpt lat="44.63674" lon="5.19532">
        <ele>1444</ele>
        <time>2026-05-25T10:01:50.000Z</time>
      </trkpt>
      <trkpt lat="44.63674" lon="5.19532">
        <ele>1444</ele>
        <time>2026-05-25T10:01:51.000Z</time>
      </trkpt>
      <trkpt lat="44.63674" lon="5.19532">
        <ele>1444</ele>
        <time>2026-05-25T10:01:52.000Z</time>
      </trkpt>
      <trkpt lat="44.63674" lon="5.19532">
        <ele>1444</ele>
        <time>2026-05-25T10:01:53.000Z</time>
      </trkpt>
      <trkpt lat="44.63674" lon="5.19532">
        <ele>1444</ele>
        <time>2026-05-25T10:01:54.000Z</time>
      </trkpt>
      <trkpt lat="44.63674" lon="5.19532">
        <ele>1444</ele>
        <time>2026-05-25T10:01:55.000Z</time>
      </trkpt>
      <trkpt lat="44.63674" lon="5.19532">
        <ele>1444</ele>
        <time>2026-05-25T10:01:56.000Z</time>
      </trkpt>
      <trkpt lat="44.63674" lon="5.19532">
        <ele>1444</ele>
        <time>2026-05-25T10:01:57.000Z</time>
      </trkpt>
      <trkpt lat="44.63674" lon="5.19532">
        <ele>1444</ele>
        <time>2026-05-25T10:01:58.000Z</time>
      </trkpt>
      <trkpt lat="44.63674" lon="5.19532">
        <ele>1444</ele>
        <time>2026-05-25T10:01:59.000Z</time>
      </trkpt>
      <trkpt lat="44.63674" lon="5.19532">
        <ele>1444</ele>
        <time>2026-05-25T10:02:00.000Z</time>
      </trkpt>
      <trkpt lat="44.63674" lon="5.19532">
        <ele>1444</ele>
        <time>2026-05-25T10:02:01.000Z</time>
      </trkpt>
      <trkpt lat="44.63674" lon="5.19532">
        <ele>1444</ele>
        <time>2026-05-25T10:02:02.000Z</time>
      </trkpt>
      <trkpt lat="44.63674" lon="5.19532">
        <ele>1444</ele>
        <time>2026-05-25T10:02:03.000Z</time>
      </trkpt>
      <trkpt lat="44.63674" lon="5.19532">
        <ele>1444</ele>
        <time>2026-05-25T10:02:04.000Z</time>
      </trkpt>
      <trkpt lat="44.63674" lon="5.19532">
        <ele>1444</ele>
        <time>2026-05-25T10:02:05.000Z</time>
      </trkpt>
      <trkpt lat="44.63674" lon="5.19532">
        <ele>1444</ele>
        <time>2026-05-25T10:02:06.000Z</time>
      </trkpt>
      <trkpt lat="44.63674" lon="5.19532">
        <ele>1444</ele>
        <time>2026-05-25T10:02:07.000Z</time>
      </trkpt>
      <trkpt lat="44.63674" lon="5.19532">
        <ele>1444</ele>
        <time>2026-05-25T10:02:08.000Z</time>
      </trkpt>
      <trkpt lat="44.63674" lon="5.19532">
        <ele>1444</ele>
        <time>2026-05-25T10:02:09.000Z</time>
      </trkpt>
      <trkpt lat="44.63674" lon="5.19532">
        <ele>1444</ele>
        <time>2026-05-25T10:02:10.000Z</time>
      </trkpt>
      <trkpt lat="44.63674" lon="5.19532">
        <ele>1444</ele>
        <time>2026-05-25T10:02:11.000Z</time>
      </trkpt>
      <trkpt lat="44.63674" lon="5.19532">
        <ele>1444</ele>
        <time>2026-05-25T10:02:12.000Z</time>
      </trkpt>
      <trkpt lat="44.63674" lon="5.19532">
        <ele>1444</ele>
        <time>2026-05-25T10:02:13.000Z</time>
      </trkpt>
      <trkpt lat="44.63674" lon="5.19532">
        <ele>1444</ele>
        <time>2026-05-25T10:02:14.000Z</time>
      </trkpt>
      <trkpt lat="44.63674" lon="5.19532">
        <ele>1444</ele>
        <time>2026-05-25T10:02:15.000Z</time>
      </trkpt>
      <trkpt lat="44.63674" lon="5.19532">
        <ele>1444</ele>
        <time>2026-05-25T10:02:16.000Z</time>
      </trkpt>
      <trkpt lat="44.63674" lon="5.19532">
        <ele>1444</ele>
        <time>2026-05-25T10:02:17.000Z</time>
      </trkpt>
      <trkpt lat="44.63674" lon="5.19532">
        <ele>1444</ele>
        <time>2026-05-25T10:02:18.000Z</time>
      </trkpt>
      <trkpt lat="44.63674" lon="5.19532">
        <ele>1444</ele>
        <time>2026-05-25T10:02:19.000Z</time>
      </trkpt>
      <trkpt lat="44.63674" lon="5.19532">
        <ele>1444</ele>
        <time>2026-05-25T10:02:20.000Z</time>
      </trkpt>
      <trkpt lat="44.63674" lon="5.19532">
        <ele>1444</ele>
        <time>2026-05-25T10:02:21.000Z</time>
      </trkpt>
      <trkpt lat="44.63674" lon="5.19532">
        <ele>1444</ele>
        <time>2026-05-25T10:02:22.000Z</time>
      </trkpt>
      <trkpt lat="44.63674" lon="5.19532">
        <ele>1444</ele>
        <time>2026-05-25T10:02:23.000Z</time>
      </trkpt>
      <trkpt lat="44.63674" lon="5.19532">
        <ele>1444</ele>
        <time>2026-05-25T10:02:24.000Z</time>
      </trkpt>
      <trkpt lat="44.63674" lon="5.19532">
        <ele>1444</ele>
        <time>2026-05-25T10:02:25.000Z</time>
      </trkpt>
      <trkpt lat="44.63674" lon="5.19532">
        <ele>1444</ele>
        <time>2026-05-25T10:02:26.000Z</time>
      </trkpt>
      <trkpt lat="44.63674" lon="5.19532">
        <ele>1444</ele>
        <time>2026-05-25T10:02:27.000Z</time>
      </trkpt>
      <trkpt lat="44.63674" lon="5.19532">
        <ele>1444</ele>
        <time>2026-05-25T10:02:28.000Z</time>
      </trkpt>
      <trkpt lat="44.63674" lon="5.19532">
        <ele>1444</ele>
        <time>2026-05-25T10:02:29.000Z</time>
      </trkpt>
      <trkpt lat="44.63674" lon="5.19532">
        <ele>1444</ele>
        <time>2026-05-25T10:02:30.000Z</time>
      </trkpt>
      <trkpt lat="44.63674" lon="5.19532">
        <ele>1444</ele>
        <time>2026-05-25T10:02:31.000Z</time>
      </trkpt>
      <trkpt lat="44.63674" lon="5.19532">
        <ele>1444</ele>
        <time>2026-05-25T10:02:32.000Z</time>
      </trkpt>
      <trkpt lat="44.63674" lon="5.19532">
        <ele>1444</ele>
        <time>2026-05-25T10:02:33.000Z</time>
      </trkpt>
      <trkpt lat="44.63674" lon="5.19532">
        <ele>1444</ele>
        <time>2026-05-25T10:02:34.000Z</time>
      </trkpt>
      <trkpt lat="44.63674" lon="5.19532">
        <ele>1444</ele>
        <time>2026-05-25T10:02:35.000Z</time>
      </trkpt>
      <trkpt lat="44.63674" lon="5.19532">
        <ele>1444</ele>
        <time>2026-05-25T10:02:36.000Z</time>
      </trkpt>
      <trkpt lat="44.63674" lon="5.19532">
        <ele>1444</ele>
        <time>2026-05-25T10:02:37.000Z</time>
      </trkpt>
      <trkpt lat="44.63674" lon="5.19532">
        <ele>1444</ele>
        <time>2026-05-25T10:02:38.000Z</time>
      </trkpt>
      <trkpt lat="44.63674" lon="5.19532">
        <ele>1444</ele>
        <time>2026-05-25T10:02:39.000Z</time>
      </trkpt>
      <trkpt lat="44.63674" lon="5.19532">
        <ele>1444</ele>
        <time>2026-05-25T10:02:40.000Z</time>
      </trkpt>
      <trkpt lat="44.63674" lon="5.19532">
        <ele>1444</ele>
        <time>2026-05-25T10:02:41.000Z</time>
      </trkpt>
      <trkpt lat="44.63674" lon="5.19532">
        <ele>1444</ele>
        <time>2026-05-25T10:02:42.000Z</time>
      </trkpt>
      <trkpt lat="44.63674" lon="5.19532">
        <ele>1444</ele>
        <time>2026-05-25T10:02:43.000Z</time>
      </trkpt>
      <trkpt lat="44.63674" lon="5.19532">
        <ele>1444</ele>
        <time>2026-05-25T10:02:44.000Z</time>
      </trkpt>
      <trkpt lat="44.63674" lon="5.19532">
        <ele>1444</ele>
        <time>2026-05-25T10:02:45.000Z</time>
      </trkpt>
      <trkpt lat="44.63674" lon="5.19532">
        <ele>1444</ele>
        <time>2026-05-25T10:02:46.000Z</time>
      </trkpt>
      <trkpt lat="44.63674" lon="5.19532">
        <ele>1444</ele>
        <time>2026-05-25T10:02:47.000Z</time>
      </trkpt>
      <trkpt lat="44.63674" lon="5.19532">
        <ele>1444</ele>
        <time>2026-05-25T10:02:48.000Z</time>
      </trkpt>
      <trkpt lat="44.63674" lon="5.19532">
        <ele>1444</ele>
        <time>2026-05-25T10:02:49.000Z</time>
      </trkpt>
      <trkpt lat="44.63674" lon="5.19532">
        <ele>1444</ele>
        <time>2026-05-25T10:02:50.000Z</time>
      </trkpt>
      <trkpt lat="44.63674" lon="5.19532">
        <ele>1444</ele>
        <time>2026-05-25T10:02:51.000Z</time>
      </trkpt>
      <trkpt lat="44.63674" lon="5.19532">
        <ele>1444</ele>
        <time>2026-05-25T10:02:52.000Z</time>
      </trkpt>
      <trkpt lat="44.63674" lon="5.19532">
        <ele>1444</ele>
        <time>2026-05-25T10:02:53.000Z</time>
      </trkpt>
      <trkpt lat="44.63674" lon="5.19532">
        <ele>1444</ele>
        <time>2026-05-25T10:02:54.000Z</time>
      </trkpt>
      <trkpt lat="44.63674" lon="5.19532">
        <ele>1444</ele>
        <time>2026-05-25T10:02:55.000Z</time>
      </trkpt>
      <trkpt lat="44.63674" lon="5.19532">
        <ele>1444</ele>
        <time>2026-05-25T10:02:56.000Z</time>
      </trkpt>
      <trkpt lat="44.63674" lon="5.19532">
        <ele>1444</ele>
        <time>2026-05-25T10:02:57.000Z</time>
      </trkpt>
      <trkpt lat="44.63674" lon="5.19532">
        <ele>1444</ele>
        <time>2026-05-25T10:02:58.000Z</time>
      </trkpt>
      <trkpt lat="44.63674" lon="5.19532">
        <ele>1444</ele>
        <time>2026-05-25T10:02:59.000Z</time>
      </trkpt>
      <trkpt lat="44.63674" lon="5.19532">
        <ele>1444</ele>
        <time>2026-05-25T10:03:00.000Z</time>
      </trkpt>
      <trkpt lat="44.63674" lon="5.19532">
        <ele>1444</ele>
        <time>2026-05-25T10:03:01.000Z</time>
      </trkpt>
      <trkpt lat="44.63674" lon="5.19532">
        <ele>1444</ele>
        <time>2026-05-25T10:03:02.000Z</time>
      </trkpt>
      <trkpt lat="44.63674" lon="5.19532">
        <ele>1444</ele>
        <time>2026-05-25T10:03:03.000Z</time>
      </trkpt>
      <trkpt lat="44.63674" lon="5.19532">
        <ele>1444</ele>
        <time>2026-05-25T10:03:04.000Z</time>
      </trkpt>
      <trkpt lat="44.63674" lon="5.19532">
        <ele>1444</ele>
        <time>2026-05-25T10:03:05.000Z</time>
      </trkpt>
      <trkpt lat="44.63674" lon="5.19532">
        <ele>1444</ele>
        <time>2026-05-25T10:03:06.000Z</time>
      </trkpt>
      <trkpt lat="44.63674" lon="5.19532">
        <ele>1444</ele>
        <time>2026-05-25T10:03:07.000Z</time>
      </trkpt>
      <trkpt lat="44.63674" lon="5.19532">
        <ele>1444</ele>
        <time>2026-05-25T10:03:08.000Z</time>
      </trkpt>
      <trkpt lat="44.63674" lon="5.19532">
        <ele>1444</ele>
        <time>2026-05-25T10:03:09.000Z</time>
      </trkpt>
      <trkpt lat="44.63674" lon="5.19532">
        <ele>1444</ele>
        <time>2026-05-25T10:03:10.000Z</time>
      </trkpt>
      <trkpt lat="44.63674" lon="5.19532">
        <ele>1444</ele>
        <time>2026-05-25T10:03:11.000Z</time>
      </trkpt>
      <trkpt lat="44.63674" lon="5.19532">
        <ele>1444</ele>
        <time>2026-05-25T10:03:12.000Z</time>
      </trkpt>
      <trkpt lat="44.63674" lon="5.19532">
        <ele>1444</ele>
        <time>2026-05-25T10:03:13.000Z</time>
      </trkpt>
      <trkpt lat="44.63674" lon="5.19532">
        <ele>1444</ele>
        <time>2026-05-25T10:03:14.000Z</time>
      </trkpt>
      <trkpt lat="44.63674" lon="5.19532">
        <ele>1444</ele>
        <time>2026-05-25T10:03:15.000Z</time>
      </trkpt>
      <trkpt lat="44.63674" lon="5.19532">
        <ele>1444</ele>
        <time>2026-05-25T10:03:16.000Z</time>
      </trkpt>
      <trkpt lat="44.63674" lon="5.19532">
        <ele>1444</ele>
        <time>2026-05-25T10:03:17.000Z</time>
      </trkpt>
      <trkpt lat="44.63674" lon="5.19532">
        <ele>1444</ele>
        <time>2026-05-25T10:03:18.000Z</time>
      </trkpt>
      <trkpt lat="44.63674" lon="5.19532">
        <ele>1444</ele>
        <time>2026-05-25T10:03:19.000Z</time>
      </trkpt>
      <trkpt lat="44.63674" lon="5.19532">
        <ele>1444</ele>
        <time>2026-05-25T10:03:20.000Z</time>
      </trkpt>
      <trkpt lat="44.63674" lon="5.19532">
        <ele>1444</ele>
        <time>2026-05-25T10:03:21.000Z</time>
      </trkpt>
      <trkpt lat="44.63674" lon="5.19532">
        <ele>1444</ele>
        <time>2026-05-25T10:03:22.000Z</time>
      </trkpt>
      <trkpt lat="44.63674" lon="5.19532">
        <ele>1444</ele>
        <time>2026-05-25T10:03:23.000Z</time>
      </trkpt>
      <trkpt lat="44.63674" lon="5.19532">
        <ele>1444</ele>
        <time>2026-05-25T10:03:24.000Z</time>
      </trkpt>
      <trkpt lat="44.63674" lon="5.19532">
        <ele>1444</ele>
        <time>2026-05-25T10:03:25.000Z</time>
      </trkpt>
      <trkpt lat="44.63674" lon="5.19532">
        <ele>1444</ele>
        <time>2026-05-25T10:03:26.000Z</time>
      </trkpt>
      <trkpt lat="44.63674" lon="5.19532">
        <ele>1444</ele>
        <time>2026-05-25T10:03:27.000Z</time>
      </trkpt>
      <trkpt lat="44.63674" lon="5.19532">
        <ele>1444</ele>
        <time>2026-05-25T10:03:28.000Z</time>
      </trkpt>
      <trkpt lat="44.63674" lon="5.19532">
        <ele>1444</ele>
        <time>2026-05-25T10:03:29.000Z</time>
      </trkpt>
      <trkpt lat="44.63674" lon="5.19532">
        <ele>1444</ele>
        <time>2026-05-25T10:03:30.000Z</time>
      </trkpt>
      <trkpt lat="44.63674" lon="5.19532">
        <ele>1444</ele>
        <time>2026-05-25T10:03:31.000Z</time>
      </trkpt>
      <trkpt lat="44.63674" lon="5.19532">
        <ele>1444</ele>
        <time>2026-05-25T10:03:32.000Z</time>
      </trkpt>
      <trkpt lat="44.63674" lon="5.19532">
        <ele>1444</ele>
        <time>2026-05-25T10:03:33.000Z</time>
      </trkpt>
      <trkpt lat="44.63674" lon="5.19532">
        <ele>1444</ele>
        <time>2026-05-25T10:03:34.000Z</time>
      </trkpt>
      <trkpt lat="44.63674" lon="5.19532">
        <ele>1444</ele>
        <time>2026-05-25T10:03:35.000Z</time>
      </trkpt>
      <trkpt lat="44.63674" lon="5.19532">
        <ele>1444</ele>
        <time>2026-05-25T10:03:36.000Z</time>
      </trkpt>
      <trkpt lat="44.63674" lon="5.19532">
        <ele>1444</ele>
        <time>2026-05-25T10:03:37.000Z</time>
      </trkpt>
      <trkpt lat="44.63674" lon="5.19532">
        <ele>1444</ele>
        <time>2026-05-25T10:03:38.000Z</time>
      </trkpt>
      <trkpt lat="44.63674" lon="5.19532">
        <ele>1444</ele>
        <time>2026-05-25T10:03:39.000Z</time>
      </trkpt>
      <trkpt lat="44.63674" lon="5.19532">
        <ele>1444</ele>
        <time>2026-05-25T10:03:40.000Z</time>
      </trkpt>
      <trkpt lat="44.63674" lon="5.19532">
        <ele>1444</ele>
        <time>2026-05-25T10:03:41.000Z</time>
      </trkpt>
      <trkpt lat="44.63674" lon="5.19532">
        <ele>1444</ele>
        <time>2026-05-25T10:03:42.000Z</time>
      </trkpt>
      <trkpt lat="44.63674" lon="5.19532">
        <ele>1444</ele>
        <time>2026-05-25T10:03:43.000Z</time>
      </trkpt>
      <trkpt lat="44.63674" lon="5.19532">
        <ele>1444</ele>
        <time>2026-05-25T10:03:44.000Z</time>
      </trkpt>
      <trkpt lat="44.63674" lon="5.19532">
        <ele>1444</ele>
        <time>2026-05-25T10:03:45.000Z</time>
      </trkpt>
      <trkpt lat="44.63674" lon="5.19532">
        <ele>1444</ele>
        <time>2026-05-25T10:03:46.000Z</time>
      </trkpt>
      <trkpt lat="44.63674" lon="5.19532">
        <ele>1444</ele>
        <time>2026-05-25T10:03:47.000Z</time>
      </trkpt>
      <trkpt lat="44.63674" lon="5.19532">
        <ele>1444</ele>
        <time>2026-05-25T10:03:48.000Z</time>
      </trkpt>
      <trkpt lat="44.63674" lon="5.19533">
        <ele>1444</ele>
        <time>2026-05-25T10:03:49.000Z</time>
      </trkpt>
      <trkpt lat="44.63673" lon="5.19535">
        <ele>1444</ele>
        <time>2026-05-25T10:03:50.000Z</time>
      </trkpt>
      <trkpt lat="44.63673" lon="5.19536">
        <ele>1444</ele>
        <time>2026-05-25T10:03:51.000Z</time>
      </trkpt>
      <trkpt lat="44.63673" lon="5.19537">
        <ele>1444</ele>
        <time>2026-05-25T10:03:52.000Z</time>
      </trkpt>
      <trkpt lat="44.63673" lon="5.19538">
        <ele>1444</ele>
        <time>2026-05-25T10:03:53.000Z</time>
      </trkpt>
      <trkpt lat="44.63672" lon="5.19537">
        <ele>1444</ele>
        <time>2026-05-25T10:03:54.000Z</time>
      </trkpt>
      <trkpt lat="44.63672" lon="5.19537">
        <ele>1444</ele>
        <time>2026-05-25T10:03:55.000Z</time>
      </trkpt>
      <trkpt lat="44.63671" lon="5.19536">
        <ele>1444</ele>
        <time>2026-05-25T10:03:56.000Z</time>
      </trkpt>
      <trkpt lat="44.63671" lon="5.19537">
        <ele>1445</ele>
        <time>2026-05-25T10:03:57.000Z</time>
      </trkpt>
      <trkpt lat="44.6367" lon="5.19538">
        <ele>1445</ele>
        <time>2026-05-25T10:03:58.000Z</time>
      </trkpt>
      <trkpt lat="44.6367" lon="5.19539">
        <ele>1445</ele>
        <time>2026-05-25T10:03:59.000Z</time>
      </trkpt>
      <trkpt lat="44.63669" lon="5.1954">
        <ele>1446</ele>
        <time>2026-05-25T10:04:00.000Z</time>
      </trkpt>
      <trkpt lat="44.63668" lon="5.1954">
        <ele>1447</ele>
        <time>2026-05-25T10:04:01.000Z</time>
      </trkpt>
      <trkpt lat="44.63668" lon="5.19541">
        <ele>1447</ele>
        <time>2026-05-25T10:04:02.000Z</time>
      </trkpt>
      <trkpt lat="44.63667" lon="5.19542">
        <ele>1447</ele>
        <time>2026-05-25T10:04:03.000Z</time>
      </trkpt>
      <trkpt lat="44.63666" lon="5.19542">
        <ele>1448</ele>
        <time>2026-05-25T10:04:04.000Z</time>
      </trkpt>
      <trkpt lat="44.63665" lon="5.19543">
        <ele>1448</ele>
        <time>2026-05-25T10:04:05.000Z</time>
      </trkpt>
      <trkpt lat="44.63664" lon="5.19544">
        <ele>1448</ele>
        <time>2026-05-25T10:04:06.000Z</time>
      </trkpt>
      <trkpt lat="44.63664" lon="5.19545">
        <ele>1448</ele>
        <time>2026-05-25T10:04:07.000Z</time>
      </trkpt>
      <trkpt lat="44.63663" lon="5.19546">
        <ele>1448</ele>
        <time>2026-05-25T10:04:08.000Z</time>
      </trkpt>
      <trkpt lat="44.63663" lon="5.19547">
        <ele>1448</ele>
        <time>2026-05-25T10:04:09.000Z</time>
      </trkpt>
      <trkpt lat="44.63663" lon="5.19548">
        <ele>1449</ele>
        <time>2026-05-25T10:04:10.000Z</time>
      </trkpt>
      <trkpt lat="44.63662" lon="5.19548">
        <ele>1449</ele>
        <time>2026-05-25T10:04:11.000Z</time>
      </trkpt>
      <trkpt lat="44.63662" lon="5.19549">
        <ele>1449</ele>
        <time>2026-05-25T10:04:12.000Z</time>
      </trkpt>
      <trkpt lat="44.63662" lon="5.1955">
        <ele>1449</ele>
        <time>2026-05-25T10:04:13.000Z</time>
      </trkpt>
      <trkpt lat="44.63661" lon="5.19551">
        <ele>1450</ele>
        <time>2026-05-25T10:04:14.000Z</time>
      </trkpt>
      <trkpt lat="44.63661" lon="5.19552">
        <ele>1450</ele>
        <time>2026-05-25T10:04:15.000Z</time>
      </trkpt>
      <trkpt lat="44.6366" lon="5.19553">
        <ele>1450</ele>
        <time>2026-05-25T10:04:16.000Z</time>
      </trkpt>
      <trkpt lat="44.6366" lon="5.19553">
        <ele>1450</ele>
        <time>2026-05-25T10:04:17.000Z</time>
      </trkpt>
      <trkpt lat="44.63659" lon="5.19554">
        <ele>1451</ele>
        <time>2026-05-25T10:04:18.000Z</time>
      </trkpt>
      <trkpt lat="44.63659" lon="5.19554">
        <ele>1451</ele>
        <time>2026-05-25T10:04:19.000Z</time>
      </trkpt>
      <trkpt lat="44.63658" lon="5.19555">
        <ele>1451</ele>
        <time>2026-05-25T10:04:20.000Z</time>
      </trkpt>
      <trkpt lat="44.63657" lon="5.19556">
        <ele>1451</ele>
        <time>2026-05-25T10:04:21.000Z</time>
      </trkpt>
      <trkpt lat="44.63657" lon="5.19556">
        <ele>1451</ele>
        <time>2026-05-25T10:04:22.000Z</time>
      </trkpt>
      <trkpt lat="44.63656" lon="5.19557">
        <ele>1451</ele>
        <time>2026-05-25T10:04:23.000Z</time>
      </trkpt>
      <trkpt lat="44.63656" lon="5.19557">
        <ele>1451</ele>
        <time>2026-05-25T10:04:24.000Z</time>
      </trkpt>
      <trkpt lat="44.63656" lon="5.19558">
        <ele>1451</ele>
        <time>2026-05-25T10:04:25.000Z</time>
      </trkpt>
      <trkpt lat="44.63656" lon="5.19558">
        <ele>1451</ele>
        <time>2026-05-25T10:04:26.000Z</time>
      </trkpt>
      <trkpt lat="44.63656" lon="5.1956">
        <ele>1451</ele>
        <time>2026-05-25T10:04:27.000Z</time>
      </trkpt>
      <trkpt lat="44.63655" lon="5.19561">
        <ele>1452</ele>
        <time>2026-05-25T10:04:28.000Z</time>
      </trkpt>
      <trkpt lat="44.63653" lon="5.19561">
        <ele>1452</ele>
        <time>2026-05-25T10:04:29.000Z</time>
      </trkpt>
      <trkpt lat="44.63653" lon="5.19561">
        <ele>1452</ele>
        <time>2026-05-25T10:04:30.000Z</time>
      </trkpt>
      <trkpt lat="44.63652" lon="5.19561">
        <ele>1453</ele>
        <time>2026-05-25T10:04:31.000Z</time>
      </trkpt>
      <trkpt lat="44.63652" lon="5.19562">
        <ele>1453</ele>
        <time>2026-05-25T10:04:32.000Z</time>
      </trkpt>
      <trkpt lat="44.63651" lon="5.19562">
        <ele>1453</ele>
        <time>2026-05-25T10:04:33.000Z</time>
      </trkpt>
      <trkpt lat="44.6365" lon="5.19563">
        <ele>1452</ele>
        <time>2026-05-25T10:04:34.000Z</time>
      </trkpt>
      <trkpt lat="44.63649" lon="5.19562">
        <ele>1452</ele>
        <time>2026-05-25T10:04:35.000Z</time>
      </trkpt>
      <trkpt lat="44.63648" lon="5.19563">
        <ele>1452</ele>
        <time>2026-05-25T10:04:36.000Z</time>
      </trkpt>
      <trkpt lat="44.63647" lon="5.19564">
        <ele>1453</ele>
        <time>2026-05-25T10:04:37.000Z</time>
      </trkpt>
      <trkpt lat="44.63647" lon="5.19564">
        <ele>1454</ele>
        <time>2026-05-25T10:04:38.000Z</time>
      </trkpt>
      <trkpt lat="44.63647" lon="5.19565">
        <ele>1453</ele>
        <time>2026-05-25T10:04:39.000Z</time>
      </trkpt>
      <trkpt lat="44.63646" lon="5.19566">
        <ele>1454</ele>
        <time>2026-05-25T10:04:40.000Z</time>
      </trkpt>
      <trkpt lat="44.63645" lon="5.19568">
        <ele>1454</ele>
        <time>2026-05-25T10:04:41.000Z</time>
      </trkpt>
      <trkpt lat="44.63645" lon="5.19569">
        <ele>1454</ele>
        <time>2026-05-25T10:04:42.000Z</time>
      </trkpt>
      <trkpt lat="44.63645" lon="5.1957">
        <ele>1454</ele>
        <time>2026-05-25T10:04:43.000Z</time>
      </trkpt>
      <trkpt lat="44.63644" lon="5.19571">
        <ele>1453</ele>
        <time>2026-05-25T10:04:44.000Z</time>
      </trkpt>
      <trkpt lat="44.63644" lon="5.19572">
        <ele>1453</ele>
        <time>2026-05-25T10:04:45.000Z</time>
      </trkpt>
      <trkpt lat="44.63644" lon="5.19573">
        <ele>1453</ele>
        <time>2026-05-25T10:04:46.000Z</time>
      </trkpt>
      <trkpt lat="44.63642" lon="5.19574">
        <ele>1453</ele>
        <time>2026-05-25T10:04:47.000Z</time>
      </trkpt>
      <trkpt lat="44.63641" lon="5.19575">
        <ele>1454</ele>
        <time>2026-05-25T10:04:48.000Z</time>
      </trkpt>
      <trkpt lat="44.6364" lon="5.19575">
        <ele>1454</ele>
        <time>2026-05-25T10:04:49.000Z</time>
      </trkpt>
      <trkpt lat="44.63639" lon="5.19576">
        <ele>1454</ele>
        <time>2026-05-25T10:04:50.000Z</time>
      </trkpt>
      <trkpt lat="44.63638" lon="5.19576">
        <ele>1455</ele>
        <time>2026-05-25T10:04:51.000Z</time>
      </trkpt>
      <trkpt lat="44.63637" lon="5.19577">
        <ele>1455</ele>
        <time>2026-05-25T10:04:52.000Z</time>
      </trkpt>
      <trkpt lat="44.63637" lon="5.19578">
        <ele>1455</ele>
        <time>2026-05-25T10:04:53.000Z</time>
      </trkpt>
      <trkpt lat="44.63637" lon="5.19578">
        <ele>1456</ele>
        <time>2026-05-25T10:04:54.000Z</time>
      </trkpt>
      <trkpt lat="44.63635" lon="5.19579">
        <ele>1457</ele>
        <time>2026-05-25T10:04:55.000Z</time>
      </trkpt>
      <trkpt lat="44.63636" lon="5.1958">
        <ele>1457</ele>
        <time>2026-05-25T10:04:56.000Z</time>
      </trkpt>
      <trkpt lat="44.63636" lon="5.19581">
        <ele>1457</ele>
        <time>2026-05-25T10:04:57.000Z</time>
      </trkpt>
      <trkpt lat="44.63636" lon="5.19582">
        <ele>1457</ele>
        <time>2026-05-25T10:04:58.000Z</time>
      </trkpt>
      <trkpt lat="44.63636" lon="5.19584">
        <ele>1457</ele>
        <time>2026-05-25T10:04:59.000Z</time>
      </trkpt>
      <trkpt lat="44.63635" lon="5.19585">
        <ele>1457</ele>
        <time>2026-05-25T10:05:00.000Z</time>
      </trkpt>
      <trkpt lat="44.63635" lon="5.19587">
        <ele>1456</ele>
        <time>2026-05-25T10:05:01.000Z</time>
      </trkpt>
      <trkpt lat="44.63634" lon="5.19587">
        <ele>1457</ele>
        <time>2026-05-25T10:05:02.000Z</time>
      </trkpt>
      <trkpt lat="44.63633" lon="5.19588">
        <ele>1457</ele>
        <time>2026-05-25T10:05:03.000Z</time>
      </trkpt>
      <trkpt lat="44.63633" lon="5.19589">
        <ele>1457</ele>
        <time>2026-05-25T10:05:04.000Z</time>
      </trkpt>
      <trkpt lat="44.63633" lon="5.19591">
        <ele>1457</ele>
        <time>2026-05-25T10:05:05.000Z</time>
      </trkpt>
      <trkpt lat="44.63633" lon="5.19592">
        <ele>1457</ele>
        <time>2026-05-25T10:05:06.000Z</time>
      </trkpt>
      <trkpt lat="44.63632" lon="5.19592">
        <ele>1457</ele>
        <time>2026-05-25T10:05:07.000Z</time>
      </trkpt>
      <trkpt lat="44.63631" lon="5.19594">
        <ele>1457</ele>
        <time>2026-05-25T10:05:08.000Z</time>
      </trkpt>
      <trkpt lat="44.63631" lon="5.19594">
        <ele>1458</ele>
        <time>2026-05-25T10:05:09.000Z</time>
      </trkpt>
      <trkpt lat="44.6363" lon="5.19594">
        <ele>1459</ele>
        <time>2026-05-25T10:05:10.000Z</time>
      </trkpt>
      <trkpt lat="44.63629" lon="5.19595">
        <ele>1460</ele>
        <time>2026-05-25T10:05:11.000Z</time>
      </trkpt>
      <trkpt lat="44.63629" lon="5.19597">
        <ele>1460</ele>
        <time>2026-05-25T10:05:12.000Z</time>
      </trkpt>
      <trkpt lat="44.63628" lon="5.19598">
        <ele>1460</ele>
        <time>2026-05-25T10:05:13.000Z</time>
      </trkpt>
      <trkpt lat="44.63628" lon="5.19598">
        <ele>1459</ele>
        <time>2026-05-25T10:05:14.000Z</time>
      </trkpt>
      <trkpt lat="44.63627" lon="5.19599">
        <ele>1459</ele>
        <time>2026-05-25T10:05:15.000Z</time>
      </trkpt>
      <trkpt lat="44.63627" lon="5.196">
        <ele>1460</ele>
        <time>2026-05-25T10:05:16.000Z</time>
      </trkpt>
      <trkpt lat="44.63626" lon="5.196">
        <ele>1460</ele>
        <time>2026-05-25T10:05:17.000Z</time>
      </trkpt>
      <trkpt lat="44.63625" lon="5.19601">
        <ele>1460</ele>
        <time>2026-05-25T10:05:18.000Z</time>
      </trkpt>
      <trkpt lat="44.63623" lon="5.19602">
        <ele>1460</ele>
        <time>2026-05-25T10:05:19.000Z</time>
      </trkpt>
      <trkpt lat="44.63622" lon="5.19603">
        <ele>1461</ele>
        <time>2026-05-25T10:05:20.000Z</time>
      </trkpt>
      <trkpt lat="44.63622" lon="5.19603">
        <ele>1462</ele>
        <time>2026-05-25T10:05:21.000Z</time>
      </trkpt>
      <trkpt lat="44.63622" lon="5.19604">
        <ele>1461</ele>
        <time>2026-05-25T10:05:22.000Z</time>
      </trkpt>
      <trkpt lat="44.63622" lon="5.19605">
        <ele>1462</ele>
        <time>2026-05-25T10:05:23.000Z</time>
      </trkpt>
      <trkpt lat="44.63622" lon="5.19605">
        <ele>1462</ele>
        <time>2026-05-25T10:05:24.000Z</time>
      </trkpt>
      <trkpt lat="44.63623" lon="5.19606">
        <ele>1462</ele>
        <time>2026-05-25T10:05:25.000Z</time>
      </trkpt>
      <trkpt lat="44.63622" lon="5.19608">
        <ele>1462</ele>
        <time>2026-05-25T10:05:26.000Z</time>
      </trkpt>
      <trkpt lat="44.6362" lon="5.19609">
        <ele>1462</ele>
        <time>2026-05-25T10:05:27.000Z</time>
      </trkpt>
      <trkpt lat="44.63619" lon="5.1961">
        <ele>1462</ele>
        <time>2026-05-25T10:05:28.000Z</time>
      </trkpt>
      <trkpt lat="44.63618" lon="5.19611">
        <ele>1463</ele>
        <time>2026-05-25T10:05:29.000Z</time>
      </trkpt>
      <trkpt lat="44.63617" lon="5.19611">
        <ele>1464</ele>
        <time>2026-05-25T10:05:30.000Z</time>
      </trkpt>
      <trkpt lat="44.63616" lon="5.19611">
        <ele>1466</ele>
        <time>2026-05-25T10:05:31.000Z</time>
      </trkpt>
      <trkpt lat="44.63616" lon="5.19613">
        <ele>1465</ele>
        <time>2026-05-25T10:05:32.000Z</time>
      </trkpt>
      <trkpt lat="44.63615" lon="5.19614">
        <ele>1465</ele>
        <time>2026-05-25T10:05:33.000Z</time>
      </trkpt>
      <trkpt lat="44.63614" lon="5.19614">
        <ele>1466</ele>
        <time>2026-05-25T10:05:34.000Z</time>
      </trkpt>
      <trkpt lat="44.63613" lon="5.19615">
        <ele>1465</ele>
        <time>2026-05-25T10:05:35.000Z</time>
      </trkpt>
      <trkpt lat="44.63612" lon="5.19616">
        <ele>1465</ele>
        <time>2026-05-25T10:05:36.000Z</time>
      </trkpt>
      <trkpt lat="44.63612" lon="5.19618">
        <ele>1466</ele>
        <time>2026-05-25T10:05:37.000Z</time>
      </trkpt>
      <trkpt lat="44.63613" lon="5.19619">
        <ele>1466</ele>
        <time>2026-05-25T10:05:38.000Z</time>
      </trkpt>
      <trkpt lat="44.63612" lon="5.1962">
        <ele>1467</ele>
        <time>2026-05-25T10:05:39.000Z</time>
      </trkpt>
      <trkpt lat="44.63612" lon="5.19623">
        <ele>1467</ele>
        <time>2026-05-25T10:05:40.000Z</time>
      </trkpt>
      <trkpt lat="44.63613" lon="5.19623">
        <ele>1467</ele>
        <time>2026-05-25T10:05:41.000Z</time>
      </trkpt>
      <trkpt lat="44.63613" lon="5.19622">
        <ele>1467</ele>
        <time>2026-05-25T10:05:42.000Z</time>
      </trkpt>
      <trkpt lat="44.63612" lon="5.19623">
        <ele>1468</ele>
        <time>2026-05-25T10:05:43.000Z</time>
      </trkpt>
      <trkpt lat="44.63611" lon="5.19623">
        <ele>1468</ele>
        <time>2026-05-25T10:05:44.000Z</time>
      </trkpt>
      <trkpt lat="44.63611" lon="5.19625">
        <ele>1469</ele>
        <time>2026-05-25T10:05:45.000Z</time>
      </trkpt>
      <trkpt lat="44.63609" lon="5.19625">
        <ele>1468</ele>
        <time>2026-05-25T10:05:46.000Z</time>
      </trkpt>
      <trkpt lat="44.63609" lon="5.19627">
        <ele>1467</ele>
        <time>2026-05-25T10:05:47.000Z</time>
      </trkpt>
      <trkpt lat="44.63609" lon="5.19628">
        <ele>1466</ele>
        <time>2026-05-25T10:05:48.000Z</time>
      </trkpt>
      <trkpt lat="44.63609" lon="5.19629">
        <ele>1466</ele>
        <time>2026-05-25T10:05:49.000Z</time>
      </trkpt>
      <trkpt lat="44.63609" lon="5.1963">
        <ele>1465</ele>
        <time>2026-05-25T10:05:50.000Z</time>
      </trkpt>
      <trkpt lat="44.63609" lon="5.1963">
        <ele>1465</ele>
        <time>2026-05-25T10:05:51.000Z</time>
      </trkpt>
      <trkpt lat="44.63609" lon="5.1963">
        <ele>1465</ele>
        <time>2026-05-25T10:05:52.000Z</time>
      </trkpt>
      <trkpt lat="44.63609" lon="5.1963">
        <ele>1465</ele>
        <time>2026-05-25T10:05:53.000Z</time>
      </trkpt>
      <trkpt lat="44.63609" lon="5.1963">
        <ele>1465</ele>
        <time>2026-05-25T10:05:54.000Z</time>
      </trkpt>
      <trkpt lat="44.63609" lon="5.1963">
        <ele>1465</ele>
        <time>2026-05-25T10:05:55.000Z</time>
      </trkpt>
      <trkpt lat="44.63609" lon="5.1963">
        <ele>1465</ele>
        <time>2026-05-25T10:05:56.000Z</time>
      </trkpt>
      <trkpt lat="44.63609" lon="5.1963">
        <ele>1465</ele>
        <time>2026-05-25T10:05:57.000Z</time>
      </trkpt>
      <trkpt lat="44.63607" lon="5.19628">
        <ele>1467</ele>
        <time>2026-05-25T10:05:58.000Z</time>
      </trkpt>
      <trkpt lat="44.63606" lon="5.19628">
        <ele>1468</ele>
        <time>2026-05-25T10:05:59.000Z</time>
      </trkpt>
      <trkpt lat="44.63606" lon="5.19629">
        <ele>1467</ele>
        <time>2026-05-25T10:06:00.000Z</time>
      </trkpt>
      <trkpt lat="44.63605" lon="5.1963">
        <ele>1468</ele>
        <time>2026-05-25T10:06:01.000Z</time>
      </trkpt>
      <trkpt lat="44.63604" lon="5.19631">
        <ele>1468</ele>
        <time>2026-05-25T10:06:02.000Z</time>
      </trkpt>
      <trkpt lat="44.63604" lon="5.19633">
        <ele>1468</ele>
        <time>2026-05-25T10:06:03.000Z</time>
      </trkpt>
      <trkpt lat="44.63603" lon="5.19633">
        <ele>1468</ele>
        <time>2026-05-25T10:06:04.000Z</time>
      </trkpt>
      <trkpt lat="44.63603" lon="5.19633">
        <ele>1468</ele>
        <time>2026-05-25T10:06:05.000Z</time>
      </trkpt>
      <trkpt lat="44.63603" lon="5.19634">
        <ele>1469</ele>
        <time>2026-05-25T10:06:06.000Z</time>
      </trkpt>
      <trkpt lat="44.63603" lon="5.19634">
        <ele>1470</ele>
        <time>2026-05-25T10:06:07.000Z</time>
      </trkpt>
      <trkpt lat="44.63602" lon="5.19634">
        <ele>1471</ele>
        <time>2026-05-25T10:06:08.000Z</time>
      </trkpt>
      <trkpt lat="44.63602" lon="5.19634">
        <ele>1470</ele>
        <time>2026-05-25T10:06:09.000Z</time>
      </trkpt>
      <trkpt lat="44.63601" lon="5.19633">
        <ele>1471</ele>
        <time>2026-05-25T10:06:10.000Z</time>
      </trkpt>
      <trkpt lat="44.63601" lon="5.19633">
        <ele>1469</ele>
        <time>2026-05-25T10:06:11.000Z</time>
      </trkpt>
      <trkpt lat="44.63601" lon="5.19633">
        <ele>1469</ele>
        <time>2026-05-25T10:06:12.000Z</time>
      </trkpt>
      <trkpt lat="44.63601" lon="5.19635">
        <ele>1471</ele>
        <time>2026-05-25T10:06:13.000Z</time>
      </trkpt>
      <trkpt lat="44.63601" lon="5.19636">
        <ele>1472</ele>
        <time>2026-05-25T10:06:14.000Z</time>
      </trkpt>
      <trkpt lat="44.63601" lon="5.19638">
        <ele>1472</ele>
        <time>2026-05-25T10:06:15.000Z</time>
      </trkpt>
      <trkpt lat="44.63601" lon="5.19638">
        <ele>1472</ele>
        <time>2026-05-25T10:06:16.000Z</time>
      </trkpt>
      <trkpt lat="44.636" lon="5.19639">
        <ele>1473</ele>
        <time>2026-05-25T10:06:17.000Z</time>
      </trkpt>
      <trkpt lat="44.63599" lon="5.19641">
        <ele>1473</ele>
        <time>2026-05-25T10:06:18.000Z</time>
      </trkpt>
      <trkpt lat="44.63599" lon="5.19643">
        <ele>1473</ele>
        <time>2026-05-25T10:06:19.000Z</time>
      </trkpt>
      <trkpt lat="44.63598" lon="5.19644">
        <ele>1473</ele>
        <time>2026-05-25T10:06:20.000Z</time>
      </trkpt>
      <trkpt lat="44.63597" lon="5.19645">
        <ele>1473</ele>
        <time>2026-05-25T10:06:21.000Z</time>
      </trkpt>
      <trkpt lat="44.63598" lon="5.19645">
        <ele>1473</ele>
        <time>2026-05-25T10:06:22.000Z</time>
      </trkpt>
      <trkpt lat="44.63597" lon="5.19644">
        <ele>1473</ele>
        <time>2026-05-25T10:06:23.000Z</time>
      </trkpt>
      <trkpt lat="44.63597" lon="5.19645">
        <ele>1473</ele>
        <time>2026-05-25T10:06:24.000Z</time>
      </trkpt>
      <trkpt lat="44.63598" lon="5.19646">
        <ele>1472</ele>
        <time>2026-05-25T10:06:25.000Z</time>
      </trkpt>
      <trkpt lat="44.63597" lon="5.19647">
        <ele>1472</ele>
        <time>2026-05-25T10:06:26.000Z</time>
      </trkpt>
      <trkpt lat="44.63595" lon="5.19648">
        <ele>1472</ele>
        <time>2026-05-25T10:06:27.000Z</time>
      </trkpt>
      <trkpt lat="44.63595" lon="5.1965">
        <ele>1473</ele>
        <time>2026-05-25T10:06:28.000Z</time>
      </trkpt>
      <trkpt lat="44.63594" lon="5.19652">
        <ele>1473</ele>
        <time>2026-05-25T10:06:29.000Z</time>
      </trkpt>
      <trkpt lat="44.63593" lon="5.19653">
        <ele>1474</ele>
        <time>2026-05-25T10:06:30.000Z</time>
      </trkpt>
      <trkpt lat="44.63593" lon="5.19654">
        <ele>1474</ele>
        <time>2026-05-25T10:06:31.000Z</time>
      </trkpt>
      <trkpt lat="44.63593" lon="5.19655">
        <ele>1475</ele>
        <time>2026-05-25T10:06:32.000Z</time>
      </trkpt>
      <trkpt lat="44.63592" lon="5.19657">
        <ele>1475</ele>
        <time>2026-05-25T10:06:33.000Z</time>
      </trkpt>
      <trkpt lat="44.63591" lon="5.19657">
        <ele>1475</ele>
        <time>2026-05-25T10:06:34.000Z</time>
      </trkpt>
      <trkpt lat="44.63591" lon="5.19659">
        <ele>1476</ele>
        <time>2026-05-25T10:06:35.000Z</time>
      </trkpt>
      <trkpt lat="44.63591" lon="5.1966">
        <ele>1477</ele>
        <time>2026-05-25T10:06:36.000Z</time>
      </trkpt>
      <trkpt lat="44.6359" lon="5.1966">
        <ele>1478</ele>
        <time>2026-05-25T10:06:37.000Z</time>
      </trkpt>
      <trkpt lat="44.6359" lon="5.19662">
        <ele>1478</ele>
        <time>2026-05-25T10:06:38.000Z</time>
      </trkpt>
      <trkpt lat="44.63589" lon="5.19662">
        <ele>1477</ele>
        <time>2026-05-25T10:06:39.000Z</time>
      </trkpt>
      <trkpt lat="44.63588" lon="5.19663">
        <ele>1477</ele>
        <time>2026-05-25T10:06:40.000Z</time>
      </trkpt>
      <trkpt lat="44.63587" lon="5.19664">
        <ele>1478</ele>
        <time>2026-05-25T10:06:41.000Z</time>
      </trkpt>
      <trkpt lat="44.63586" lon="5.19665">
        <ele>1479</ele>
        <time>2026-05-25T10:06:42.000Z</time>
      </trkpt>
      <trkpt lat="44.63585" lon="5.19666">
        <ele>1479</ele>
        <time>2026-05-25T10:06:43.000Z</time>
      </trkpt>
      <trkpt lat="44.63585" lon="5.19667">
        <ele>1478</ele>
        <time>2026-05-25T10:06:44.000Z</time>
      </trkpt>
      <trkpt lat="44.63585" lon="5.19668">
        <ele>1478</ele>
        <time>2026-05-25T10:06:45.000Z</time>
      </trkpt>
      <trkpt lat="44.63584" lon="5.1967">
        <ele>1477</ele>
        <time>2026-05-25T10:06:46.000Z</time>
      </trkpt>
      <trkpt lat="44.63583" lon="5.19671">
        <ele>1478</ele>
        <time>2026-05-25T10:06:47.000Z</time>
      </trkpt>
      <trkpt lat="44.63583" lon="5.19673">
        <ele>1478</ele>
        <time>2026-05-25T10:06:48.000Z</time>
      </trkpt>
      <trkpt lat="44.63582" lon="5.19674">
        <ele>1478</ele>
        <time>2026-05-25T10:06:49.000Z</time>
      </trkpt>
      <trkpt lat="44.63582" lon="5.19675">
        <ele>1479</ele>
        <time>2026-05-25T10:06:50.000Z</time>
      </trkpt>
      <trkpt lat="44.63581" lon="5.19676">
        <ele>1479</ele>
        <time>2026-05-25T10:06:51.000Z</time>
      </trkpt>
      <trkpt lat="44.63581" lon="5.19676">
        <ele>1480</ele>
        <time>2026-05-25T10:06:52.000Z</time>
      </trkpt>
      <trkpt lat="44.63579" lon="5.19677">
        <ele>1480</ele>
        <time>2026-05-25T10:06:53.000Z</time>
      </trkpt>
      <trkpt lat="44.63578" lon="5.19678">
        <ele>1480</ele>
        <time>2026-05-25T10:06:54.000Z</time>
      </trkpt>
      <trkpt lat="44.63577" lon="5.19679">
        <ele>1481</ele>
        <time>2026-05-25T10:06:55.000Z</time>
      </trkpt>
      <trkpt lat="44.63576" lon="5.1968">
        <ele>1481</ele>
        <time>2026-05-25T10:06:56.000Z</time>
      </trkpt>
      <trkpt lat="44.63575" lon="5.19681">
        <ele>1481</ele>
        <time>2026-05-25T10:06:57.000Z</time>
      </trkpt>
      <trkpt lat="44.63574" lon="5.19682">
        <ele>1481</ele>
        <time>2026-05-25T10:06:58.000Z</time>
      </trkpt>
      <trkpt lat="44.63572" lon="5.19682">
        <ele>1481</ele>
        <time>2026-05-25T10:06:59.000Z</time>
      </trkpt>
      <trkpt lat="44.63572" lon="5.19684">
        <ele>1481</ele>
        <time>2026-05-25T10:07:00.000Z</time>
      </trkpt>
      <trkpt lat="44.63572" lon="5.19685">
        <ele>1481</ele>
        <time>2026-05-25T10:07:01.000Z</time>
      </trkpt>
      <trkpt lat="44.63571" lon="5.19686">
        <ele>1482</ele>
        <time>2026-05-25T10:07:02.000Z</time>
      </trkpt>
      <trkpt lat="44.63571" lon="5.19687">
        <ele>1482</ele>
        <time>2026-05-25T10:07:03.000Z</time>
      </trkpt>
      <trkpt lat="44.6357" lon="5.19687">
        <ele>1483</ele>
        <time>2026-05-25T10:07:04.000Z</time>
      </trkpt>
      <trkpt lat="44.63569" lon="5.19688">
        <ele>1483</ele>
        <time>2026-05-25T10:07:05.000Z</time>
      </trkpt>
      <trkpt lat="44.63569" lon="5.1969">
        <ele>1482</ele>
        <time>2026-05-25T10:07:06.000Z</time>
      </trkpt>
      <trkpt lat="44.63569" lon="5.19692">
        <ele>1483</ele>
        <time>2026-05-25T10:07:07.000Z</time>
      </trkpt>
      <trkpt lat="44.63569" lon="5.19694">
        <ele>1483</ele>
        <time>2026-05-25T10:07:08.000Z</time>
      </trkpt>
      <trkpt lat="44.63568" lon="5.19695">
        <ele>1483</ele>
        <time>2026-05-25T10:07:09.000Z</time>
      </trkpt>
      <trkpt lat="44.63567" lon="5.19696">
        <ele>1483</ele>
        <time>2026-05-25T10:07:10.000Z</time>
      </trkpt>
      <trkpt lat="44.63567" lon="5.19698">
        <ele>1483</ele>
        <time>2026-05-25T10:07:11.000Z</time>
      </trkpt>
      <trkpt lat="44.63566" lon="5.19699">
        <ele>1483</ele>
        <time>2026-05-25T10:07:12.000Z</time>
      </trkpt>
      <trkpt lat="44.63565" lon="5.197">
        <ele>1484</ele>
        <time>2026-05-25T10:07:13.000Z</time>
      </trkpt>
      <trkpt lat="44.63565" lon="5.197">
        <ele>1485</ele>
        <time>2026-05-25T10:07:14.000Z</time>
      </trkpt>
      <trkpt lat="44.63565" lon="5.19701">
        <ele>1485</ele>
        <time>2026-05-25T10:07:15.000Z</time>
      </trkpt>
      <trkpt lat="44.63565" lon="5.19701">
        <ele>1485</ele>
        <time>2026-05-25T10:07:16.000Z</time>
      </trkpt>
      <trkpt lat="44.63565" lon="5.19701">
        <ele>1485</ele>
        <time>2026-05-25T10:07:17.000Z</time>
      </trkpt>
      <trkpt lat="44.63565" lon="5.19701">
        <ele>1485</ele>
        <time>2026-05-25T10:07:18.000Z</time>
      </trkpt>
      <trkpt lat="44.63565" lon="5.19701">
        <ele>1485</ele>
        <time>2026-05-25T10:07:19.000Z</time>
      </trkpt>
      <trkpt lat="44.63565" lon="5.19701">
        <ele>1485</ele>
        <time>2026-05-25T10:07:20.000Z</time>
      </trkpt>
      <trkpt lat="44.63565" lon="5.19701">
        <ele>1485</ele>
        <time>2026-05-25T10:07:21.000Z</time>
      </trkpt>
      <trkpt lat="44.63565" lon="5.19701">
        <ele>1485</ele>
        <time>2026-05-25T10:07:22.000Z</time>
      </trkpt>
      <trkpt lat="44.63565" lon="5.19701">
        <ele>1485</ele>
        <time>2026-05-25T10:07:23.000Z</time>
      </trkpt>
      <trkpt lat="44.63565" lon="5.19701">
        <ele>1485</ele>
        <time>2026-05-25T10:07:24.000Z</time>
      </trkpt>
      <trkpt lat="44.63565" lon="5.19701">
        <ele>1485</ele>
        <time>2026-05-25T10:07:25.000Z</time>
      </trkpt>
      <trkpt lat="44.63565" lon="5.19701">
        <ele>1485</ele>
        <time>2026-05-25T10:07:26.000Z</time>
      </trkpt>
      <trkpt lat="44.63565" lon="5.19701">
        <ele>1485</ele>
        <time>2026-05-25T10:07:27.000Z</time>
      </trkpt>
      <trkpt lat="44.63565" lon="5.19701">
        <ele>1485</ele>
        <time>2026-05-25T10:07:28.000Z</time>
      </trkpt>
      <trkpt lat="44.63565" lon="5.19701">
        <ele>1485</ele>
        <time>2026-05-25T10:07:29.000Z</time>
      </trkpt>
      <trkpt lat="44.63565" lon="5.19701">
        <ele>1485</ele>
        <time>2026-05-25T10:07:30.000Z</time>
      </trkpt>
      <trkpt lat="44.63565" lon="5.19701">
        <ele>1485</ele>
        <time>2026-05-25T10:07:31.000Z</time>
      </trkpt>
      <trkpt lat="44.63565" lon="5.19701">
        <ele>1485</ele>
        <time>2026-05-25T10:07:32.000Z</time>
      </trkpt>
      <trkpt lat="44.63565" lon="5.19701">
        <ele>1485</ele>
        <time>2026-05-25T10:07:33.000Z</time>
      </trkpt>
      <trkpt lat="44.63565" lon="5.19701">
        <ele>1485</ele>
        <time>2026-05-25T10:07:34.000Z</time>
      </trkpt>
      <trkpt lat="44.63565" lon="5.19701">
        <ele>1485</ele>
        <time>2026-05-25T10:07:35.000Z</time>
      </trkpt>
      <trkpt lat="44.63565" lon="5.19701">
        <ele>1485</ele>
        <time>2026-05-25T10:07:36.000Z</time>
      </trkpt>
      <trkpt lat="44.63565" lon="5.19701">
        <ele>1485</ele>
        <time>2026-05-25T10:07:37.000Z</time>
      </trkpt>
      <trkpt lat="44.63565" lon="5.19701">
        <ele>1485</ele>
        <time>2026-05-25T10:07:38.000Z</time>
      </trkpt>
      <trkpt lat="44.63565" lon="5.19701">
        <ele>1485</ele>
        <time>2026-05-25T10:07:39.000Z</time>
      </trkpt>
      <trkpt lat="44.63565" lon="5.19701">
        <ele>1485</ele>
        <time>2026-05-25T10:07:40.000Z</time>
      </trkpt>
      <trkpt lat="44.63565" lon="5.19701">
        <ele>1485</ele>
        <time>2026-05-25T10:07:41.000Z</time>
      </trkpt>
      <trkpt lat="44.63565" lon="5.19701">
        <ele>1485</ele>
        <time>2026-05-25T10:07:42.000Z</time>
      </trkpt>
      <trkpt lat="44.63565" lon="5.19701">
        <ele>1485</ele>
        <time>2026-05-25T10:07:43.000Z</time>
      </trkpt>
      <trkpt lat="44.63565" lon="5.19701">
        <ele>1485</ele>
        <time>2026-05-25T10:07:44.000Z</time>
      </trkpt>
      <trkpt lat="44.63565" lon="5.19701">
        <ele>1485</ele>
        <time>2026-05-25T10:07:45.000Z</time>
      </trkpt>
      <trkpt lat="44.63565" lon="5.19701">
        <ele>1485</ele>
        <time>2026-05-25T10:07:46.000Z</time>
      </trkpt>
      <trkpt lat="44.63565" lon="5.19701">
        <ele>1485</ele>
        <time>2026-05-25T10:07:47.000Z</time>
      </trkpt>
      <trkpt lat="44.63565" lon="5.19701">
        <ele>1485</ele>
        <time>2026-05-25T10:07:48.000Z</time>
      </trkpt>
      <trkpt lat="44.63565" lon="5.19701">
        <ele>1485</ele>
        <time>2026-05-25T10:07:49.000Z</time>
      </trkpt>
      <trkpt lat="44.63565" lon="5.19701">
        <ele>1485</ele>
        <time>2026-05-25T10:07:50.000Z</time>
      </trkpt>
      <trkpt lat="44.63565" lon="5.19701">
        <ele>1485</ele>
        <time>2026-05-25T10:07:51.000Z</time>
      </trkpt>
      <trkpt lat="44.63565" lon="5.19701">
        <ele>1485</ele>
        <time>2026-05-25T10:07:52.000Z</time>
      </trkpt>
      <trkpt lat="44.63565" lon="5.19701">
        <ele>1485</ele>
        <time>2026-05-25T10:07:53.000Z</time>
      </trkpt>
      <trkpt lat="44.63565" lon="5.19701">
        <ele>1485</ele>
        <time>2026-05-25T10:07:54.000Z</time>
      </trkpt>
      <trkpt lat="44.63565" lon="5.19701">
        <ele>1485</ele>
        <time>2026-05-25T10:07:55.000Z</time>
      </trkpt>
      <trkpt lat="44.63565" lon="5.19701">
        <ele>1485</ele>
        <time>2026-05-25T10:07:56.000Z</time>
      </trkpt>
      <trkpt lat="44.63565" lon="5.19701">
        <ele>1485</ele>
        <time>2026-05-25T10:07:57.000Z</time>
      </trkpt>
      <trkpt lat="44.63565" lon="5.19701">
        <ele>1485</ele>
        <time>2026-05-25T10:07:58.000Z</time>
      </trkpt>
      <trkpt lat="44.63565" lon="5.19701">
        <ele>1485</ele>
        <time>2026-05-25T10:07:59.000Z</time>
      </trkpt>
      <trkpt lat="44.63565" lon="5.19701">
        <ele>1485</ele>
        <time>2026-05-25T10:08:00.000Z</time>
      </trkpt>
      <trkpt lat="44.63565" lon="5.19701">
        <ele>1485</ele>
        <time>2026-05-25T10:08:01.000Z</time>
      </trkpt>
      <trkpt lat="44.63565" lon="5.19701">
        <ele>1485</ele>
        <time>2026-05-25T10:08:02.000Z</time>
      </trkpt>
      <trkpt lat="44.63565" lon="5.19701">
        <ele>1485</ele>
        <time>2026-05-25T10:08:03.000Z</time>
      </trkpt>
      <trkpt lat="44.63565" lon="5.19701">
        <ele>1485</ele>
        <time>2026-05-25T10:08:04.000Z</time>
      </trkpt>
      <trkpt lat="44.63565" lon="5.19701">
        <ele>1485</ele>
        <time>2026-05-25T10:08:05.000Z</time>
      </trkpt>
      <trkpt lat="44.63565" lon="5.19701">
        <ele>1485</ele>
        <time>2026-05-25T10:08:06.000Z</time>
      </trkpt>
      <trkpt lat="44.63565" lon="5.19701">
        <ele>1485</ele>
        <time>2026-05-25T10:08:07.000Z</time>
      </trkpt>
      <trkpt lat="44.63565" lon="5.19701">
        <ele>1485</ele>
        <time>2026-05-25T10:08:08.000Z</time>
      </trkpt>
      <trkpt lat="44.63565" lon="5.19701">
        <ele>1485</ele>
        <time>2026-05-25T10:08:09.000Z</time>
      </trkpt>
      <trkpt lat="44.63565" lon="5.19701">
        <ele>1485</ele>
        <time>2026-05-25T10:08:10.000Z</time>
      </trkpt>
      <trkpt lat="44.63565" lon="5.19701">
        <ele>1485</ele>
        <time>2026-05-25T10:08:11.000Z</time>
      </trkpt>
      <trkpt lat="44.63565" lon="5.19701">
        <ele>1485</ele>
        <time>2026-05-25T10:08:12.000Z</time>
      </trkpt>
      <trkpt lat="44.63565" lon="5.19701">
        <ele>1485</ele>
        <time>2026-05-25T10:08:13.000Z</time>
      </trkpt>
      <trkpt lat="44.63565" lon="5.19701">
        <ele>1485</ele>
        <time>2026-05-25T10:08:14.000Z</time>
      </trkpt>
      <trkpt lat="44.63565" lon="5.19701">
        <ele>1485</ele>
        <time>2026-05-25T10:08:15.000Z</time>
      </trkpt>
      <trkpt lat="44.63565" lon="5.19701">
        <ele>1485</ele>
        <time>2026-05-25T10:08:16.000Z</time>
      </trkpt>
      <trkpt lat="44.63565" lon="5.19701">
        <ele>1485</ele>
        <time>2026-05-25T10:08:17.000Z</time>
      </trkpt>
      <trkpt lat="44.63565" lon="5.19701">
        <ele>1485</ele>
        <time>2026-05-25T10:08:18.000Z</time>
      </trkpt>
      <trkpt lat="44.63565" lon="5.19701">
        <ele>1485</ele>
        <time>2026-05-25T10:08:19.000Z</time>
      </trkpt>
      <trkpt lat="44.63565" lon="5.19701">
        <ele>1485</ele>
        <time>2026-05-25T10:08:20.000Z</time>
      </trkpt>
      <trkpt lat="44.63565" lon="5.19701">
        <ele>1485</ele>
        <time>2026-05-25T10:08:21.000Z</time>
      </trkpt>
      <trkpt lat="44.63565" lon="5.19701">
        <ele>1485</ele>
        <time>2026-05-25T10:08:22.000Z</time>
      </trkpt>
      <trkpt lat="44.63565" lon="5.19701">
        <ele>1485</ele>
        <time>2026-05-25T10:08:23.000Z</time>
      </trkpt>
      <trkpt lat="44.63565" lon="5.19701">
        <ele>1485</ele>
        <time>2026-05-25T10:08:24.000Z</time>
      </trkpt>
      <trkpt lat="44.63565" lon="5.19701">
        <ele>1485</ele>
        <time>2026-05-25T10:08:25.000Z</time>
      </trkpt>
      <trkpt lat="44.63565" lon="5.19701">
        <ele>1485</ele>
        <time>2026-05-25T10:08:26.000Z</time>
      </trkpt>
      <trkpt lat="44.63565" lon="5.19701">
        <ele>1485</ele>
        <time>2026-05-25T10:08:27.000Z</time>
      </trkpt>
      <trkpt lat="44.63565" lon="5.19701">
        <ele>1485</ele>
        <time>2026-05-25T10:08:28.000Z</time>
      </trkpt>
      <trkpt lat="44.63565" lon="5.19701">
        <ele>1485</ele>
        <time>2026-05-25T10:08:29.000Z</time>
      </trkpt>
      <trkpt lat="44.63565" lon="5.19701">
        <ele>1485</ele>
        <time>2026-05-25T10:08:30.000Z</time>
      </trkpt>
      <trkpt lat="44.63565" lon="5.19701">
        <ele>1485</ele>
        <time>2026-05-25T10:08:31.000Z</time>
      </trkpt>
      <trkpt lat="44.63565" lon="5.19701">
        <ele>1485</ele>
        <time>2026-05-25T10:08:32.000Z</time>
      </trkpt>
      <trkpt lat="44.63565" lon="5.19701">
        <ele>1485</ele>
        <time>2026-05-25T10:08:33.000Z</time>
      </trkpt>
      <trkpt lat="44.63565" lon="5.19701">
        <ele>1485</ele>
        <time>2026-05-25T10:08:34.000Z</time>
      </trkpt>
      <trkpt lat="44.63565" lon="5.19701">
        <ele>1485</ele>
        <time>2026-05-25T10:08:35.000Z</time>
      </trkpt>
      <trkpt lat="44.63565" lon="5.19701">
        <ele>1485</ele>
        <time>2026-05-25T10:08:36.000Z</time>
      </trkpt>
      <trkpt lat="44.63565" lon="5.19701">
        <ele>1485</ele>
        <time>2026-05-25T10:08:37.000Z</time>
      </trkpt>
      <trkpt lat="44.63565" lon="5.19701">
        <ele>1485</ele>
        <time>2026-05-25T10:08:38.000Z</time>
      </trkpt>
      <trkpt lat="44.63565" lon="5.19701">
        <ele>1485</ele>
        <time>2026-05-25T10:08:39.000Z</time>
      </trkpt>
      <trkpt lat="44.63565" lon="5.19701">
        <ele>1485</ele>
        <time>2026-05-25T10:08:40.000Z</time>
      </trkpt>
      <trkpt lat="44.63565" lon="5.19701">
        <ele>1485</ele>
        <time>2026-05-25T10:08:41.000Z</time>
      </trkpt>
      <trkpt lat="44.63565" lon="5.19701">
        <ele>1485</ele>
        <time>2026-05-25T10:08:42.000Z</time>
      </trkpt>
      <trkpt lat="44.63565" lon="5.19701">
        <ele>1485</ele>
        <time>2026-05-25T10:08:43.000Z</time>
      </trkpt>
      <trkpt lat="44.63565" lon="5.19701">
        <ele>1485</ele>
        <time>2026-05-25T10:08:44.000Z</time>
      </trkpt>
      <trkpt lat="44.63565" lon="5.19701">
        <ele>1485</ele>
        <time>2026-05-25T10:08:45.000Z</time>
      </trkpt>
      <trkpt lat="44.63565" lon="5.19701">
        <ele>1485</ele>
        <time>2026-05-25T10:08:46.000Z</time>
      </trkpt>
      <trkpt lat="44.63565" lon="5.19701">
        <ele>1485</ele>
        <time>2026-05-25T10:08:47.000Z</time>
      </trkpt>
      <trkpt lat="44.63565" lon="5.19701">
        <ele>1485</ele>
        <time>2026-05-25T10:08:48.000Z</time>
      </trkpt>
      <trkpt lat="44.63565" lon="5.19701">
        <ele>1485</ele>
        <time>2026-05-25T10:08:49.000Z</time>
      </trkpt>
      <trkpt lat="44.63565" lon="5.19701">
        <ele>1485</ele>
        <time>2026-05-25T10:08:50.000Z</time>
      </trkpt>
      <trkpt lat="44.63565" lon="5.19701">
        <ele>1485</ele>
        <time>2026-05-25T10:08:51.000Z</time>
      </trkpt>
      <trkpt lat="44.63565" lon="5.19701">
        <ele>1485</ele>
        <time>2026-05-25T10:08:52.000Z</time>
      </trkpt>
      <trkpt lat="44.63565" lon="5.19701">
        <ele>1485</ele>
        <time>2026-05-25T10:08:53.000Z</time>
      </trkpt>
      <trkpt lat="44.63565" lon="5.19701">
        <ele>1485</ele>
        <time>2026-05-25T10:08:54.000Z</time>
      </trkpt>
      <trkpt lat="44.63565" lon="5.19701">
        <ele>1485</ele>
        <time>2026-05-25T10:08:55.000Z</time>
      </trkpt>
      <trkpt lat="44.63565" lon="5.19701">
        <ele>1485</ele>
        <time>2026-05-25T10:08:56.000Z</time>
      </trkpt>
      <trkpt lat="44.63565" lon="5.19701">
        <ele>1485</ele>
        <time>2026-05-25T10:08:57.000Z</time>
      </trkpt>
      <trkpt lat="44.63565" lon="5.19701">
        <ele>1485</ele>
        <time>2026-05-25T10:08:58.000Z</time>
      </trkpt>
      <trkpt lat="44.63565" lon="5.19701">
        <ele>1485</ele>
        <time>2026-05-25T10:08:59.000Z</time>
      </trkpt>
      <trkpt lat="44.63565" lon="5.19701">
        <ele>1485</ele>
        <time>2026-05-25T10:09:00.000Z</time>
      </trkpt>
      <trkpt lat="44.63565" lon="5.19701">
        <ele>1485</ele>
        <time>2026-05-25T10:09:01.000Z</time>
      </trkpt>
      <trkpt lat="44.63565" lon="5.19701">
        <ele>1485</ele>
        <time>2026-05-25T10:09:02.000Z</time>
      </trkpt>
      <trkpt lat="44.63565" lon="5.19701">
        <ele>1485</ele>
        <time>2026-05-25T10:09:03.000Z</time>
      </trkpt>
      <trkpt lat="44.63565" lon="5.19701">
        <ele>1485</ele>
        <time>2026-05-25T10:09:04.000Z</time>
      </trkpt>
      <trkpt lat="44.63565" lon="5.19701">
        <ele>1485</ele>
        <time>2026-05-25T10:09:05.000Z</time>
      </trkpt>
      <trkpt lat="44.63565" lon="5.19701">
        <ele>1485</ele>
        <time>2026-05-25T10:09:06.000Z</time>
      </trkpt>
      <trkpt lat="44.63565" lon="5.19701">
        <ele>1485</ele>
        <time>2026-05-25T10:09:07.000Z</time>
      </trkpt>
      <trkpt lat="44.63565" lon="5.19701">
        <ele>1485</ele>
        <time>2026-05-25T10:09:08.000Z</time>
      </trkpt>
      <trkpt lat="44.63565" lon="5.19701">
        <ele>1485</ele>
        <time>2026-05-25T10:09:09.000Z</time>
      </trkpt>
      <trkpt lat="44.63565" lon="5.19701">
        <ele>1485</ele>
        <time>2026-05-25T10:09:10.000Z</time>
      </trkpt>
      <trkpt lat="44.63565" lon="5.19701">
        <ele>1485</ele>
        <time>2026-05-25T10:09:11.000Z</time>
      </trkpt>
      <trkpt lat="44.63565" lon="5.19701">
        <ele>1485</ele>
        <time>2026-05-25T10:09:12.000Z</time>
      </trkpt>
      <trkpt lat="44.63565" lon="5.19701">
        <ele>1485</ele>
        <time>2026-05-25T10:09:13.000Z</time>
      </trkpt>
      <trkpt lat="44.63565" lon="5.19701">
        <ele>1485</ele>
        <time>2026-05-25T10:09:14.000Z</time>
      </trkpt>
      <trkpt lat="44.63565" lon="5.19701">
        <ele>1485</ele>
        <time>2026-05-25T10:09:15.000Z</time>
      </trkpt>
      <trkpt lat="44.63565" lon="5.19701">
        <ele>1485</ele>
        <time>2026-05-25T10:09:16.000Z</time>
      </trkpt>
      <trkpt lat="44.63565" lon="5.19701">
        <ele>1485</ele>
        <time>2026-05-25T10:09:17.000Z</time>
      </trkpt>
      <trkpt lat="44.63565" lon="5.19701">
        <ele>1485</ele>
        <time>2026-05-25T10:09:18.000Z</time>
      </trkpt>
      <trkpt lat="44.63565" lon="5.19701">
        <ele>1485</ele>
        <time>2026-05-25T10:09:19.000Z</time>
      </trkpt>
      <trkpt lat="44.63565" lon="5.19701">
        <ele>1485</ele>
        <time>2026-05-25T10:09:20.000Z</time>
      </trkpt>
      <trkpt lat="44.63565" lon="5.19701">
        <ele>1485</ele>
        <time>2026-05-25T10:09:21.000Z</time>
      </trkpt>
      <trkpt lat="44.63565" lon="5.19701">
        <ele>1485</ele>
        <time>2026-05-25T10:09:22.000Z</time>
      </trkpt>
      <trkpt lat="44.63565" lon="5.19701">
        <ele>1485</ele>
        <time>2026-05-25T10:09:23.000Z</time>
      </trkpt>
      <trkpt lat="44.63565" lon="5.19701">
        <ele>1485</ele>
        <time>2026-05-25T10:09:24.000Z</time>
      </trkpt>
      <trkpt lat="44.63565" lon="5.19701">
        <ele>1485</ele>
        <time>2026-05-25T10:09:25.000Z</time>
      </trkpt>
      <trkpt lat="44.63565" lon="5.19701">
        <ele>1485</ele>
        <time>2026-05-25T10:09:26.000Z</time>
      </trkpt>
      <trkpt lat="44.63565" lon="5.19701">
        <ele>1485</ele>
        <time>2026-05-25T10:09:27.000Z</time>
      </trkpt>
      <trkpt lat="44.63565" lon="5.19701">
        <ele>1485</ele>
        <time>2026-05-25T10:09:28.000Z</time>
      </trkpt>
      <trkpt lat="44.63565" lon="5.19701">
        <ele>1485</ele>
        <time>2026-05-25T10:09:29.000Z</time>
      </trkpt>
      <trkpt lat="44.63565" lon="5.19701">
        <ele>1485</ele>
        <time>2026-05-25T10:09:30.000Z</time>
      </trkpt>
      <trkpt lat="44.63565" lon="5.19701">
        <ele>1485</ele>
        <time>2026-05-25T10:09:31.000Z</time>
      </trkpt>
      <trkpt lat="44.63565" lon="5.19701">
        <ele>1485</ele>
        <time>2026-05-25T10:09:32.000Z</time>
      </trkpt>
      <trkpt lat="44.63565" lon="5.19701">
        <ele>1485</ele>
        <time>2026-05-25T10:09:33.000Z</time>
      </trkpt>
      <trkpt lat="44.63565" lon="5.19701">
        <ele>1485</ele>
        <time>2026-05-25T10:09:34.000Z</time>
      </trkpt>
      <trkpt lat="44.63565" lon="5.197">
        <ele>1484</ele>
        <time>2026-05-25T10:09:35.000Z</time>
      </trkpt>
      <trkpt lat="44.63566" lon="5.19699">
        <ele>1484</ele>
        <time>2026-05-25T10:09:36.000Z</time>
      </trkpt>
      <trkpt lat="44.63566" lon="5.19699">
        <ele>1484</ele>
        <time>2026-05-25T10:09:37.000Z</time>
      </trkpt>
      <trkpt lat="44.63566" lon="5.19699">
        <ele>1484</ele>
        <time>2026-05-25T10:09:38.000Z</time>
      </trkpt>
      <trkpt lat="44.63566" lon="5.19699">
        <ele>1484</ele>
        <time>2026-05-25T10:09:39.000Z</time>
      </trkpt>
      <trkpt lat="44.63566" lon="5.19699">
        <ele>1484</ele>
        <time>2026-05-25T10:09:40.000Z</time>
      </trkpt>
      <trkpt lat="44.63566" lon="5.19699">
        <ele>1484</ele>
        <time>2026-05-25T10:09:41.000Z</time>
      </trkpt>
      <trkpt lat="44.63566" lon="5.19699">
        <ele>1484</ele>
        <time>2026-05-25T10:09:42.000Z</time>
      </trkpt>
      <trkpt lat="44.63566" lon="5.19699">
        <ele>1484</ele>
        <time>2026-05-25T10:09:43.000Z</time>
      </trkpt>
      <trkpt lat="44.63566" lon="5.19699">
        <ele>1484</ele>
        <time>2026-05-25T10:09:44.000Z</time>
      </trkpt>
      <trkpt lat="44.63566" lon="5.19699">
        <ele>1484</ele>
        <time>2026-05-25T10:09:45.000Z</time>
      </trkpt>
      <trkpt lat="44.63566" lon="5.19699">
        <ele>1484</ele>
        <time>2026-05-25T10:09:46.000Z</time>
      </trkpt>
      <trkpt lat="44.63566" lon="5.19699">
        <ele>1484</ele>
        <time>2026-05-25T10:09:47.000Z</time>
      </trkpt>
      <trkpt lat="44.63566" lon="5.19699">
        <ele>1484</ele>
        <time>2026-05-25T10:09:48.000Z</time>
      </trkpt>
      <trkpt lat="44.63566" lon="5.19699">
        <ele>1484</ele>
        <time>2026-05-25T10:09:49.000Z</time>
      </trkpt>
      <trkpt lat="44.63566" lon="5.19699">
        <ele>1484</ele>
        <time>2026-05-25T10:09:50.000Z</time>
      </trkpt>
      <trkpt lat="44.63566" lon="5.19699">
        <ele>1484</ele>
        <time>2026-05-25T10:09:51.000Z</time>
      </trkpt>
      <trkpt lat="44.63566" lon="5.19699">
        <ele>1484</ele>
        <time>2026-05-25T10:09:52.000Z</time>
      </trkpt>
      <trkpt lat="44.63566" lon="5.19699">
        <ele>1484</ele>
        <time>2026-05-25T10:09:53.000Z</time>
      </trkpt>
      <trkpt lat="44.63566" lon="5.19699">
        <ele>1484</ele>
        <time>2026-05-25T10:09:54.000Z</time>
      </trkpt>
      <trkpt lat="44.63566" lon="5.19699">
        <ele>1484</ele>
        <time>2026-05-25T10:09:55.000Z</time>
      </trkpt>
      <trkpt lat="44.63566" lon="5.19699">
        <ele>1484</ele>
        <time>2026-05-25T10:09:56.000Z</time>
      </trkpt>
      <trkpt lat="44.63566" lon="5.19699">
        <ele>1484</ele>
        <time>2026-05-25T10:09:57.000Z</time>
      </trkpt>
      <trkpt lat="44.63566" lon="5.19699">
        <ele>1484</ele>
        <time>2026-05-25T10:09:58.000Z</time>
      </trkpt>
      <trkpt lat="44.63566" lon="5.19699">
        <ele>1484</ele>
        <time>2026-05-25T10:09:59.000Z</time>
      </trkpt>
      <trkpt lat="44.63566" lon="5.19699">
        <ele>1484</ele>
        <time>2026-05-25T10:10:00.000Z</time>
      </trkpt>
      <trkpt lat="44.63566" lon="5.19699">
        <ele>1484</ele>
        <time>2026-05-25T10:10:01.000Z</time>
      </trkpt>
      <trkpt lat="44.63566" lon="5.19699">
        <ele>1484</ele>
        <time>2026-05-25T10:10:02.000Z</time>
      </trkpt>
      <trkpt lat="44.63566" lon="5.19699">
        <ele>1484</ele>
        <time>2026-05-25T10:10:03.000Z</time>
      </trkpt>
      <trkpt lat="44.63566" lon="5.19699">
        <ele>1484</ele>
        <time>2026-05-25T10:10:04.000Z</time>
      </trkpt>
      <trkpt lat="44.63566" lon="5.19699">
        <ele>1484</ele>
        <time>2026-05-25T10:10:05.000Z</time>
      </trkpt>
      <trkpt lat="44.63566" lon="5.19699">
        <ele>1484</ele>
        <time>2026-05-25T10:10:06.000Z</time>
      </trkpt>
      <trkpt lat="44.63566" lon="5.19699">
        <ele>1484</ele>
        <time>2026-05-25T10:10:07.000Z</time>
      </trkpt>
      <trkpt lat="44.63566" lon="5.19699">
        <ele>1484</ele>
        <time>2026-05-25T10:10:08.000Z</time>
      </trkpt>
      <trkpt lat="44.63566" lon="5.19699">
        <ele>1484</ele>
        <time>2026-05-25T10:10:09.000Z</time>
      </trkpt>
      <trkpt lat="44.63566" lon="5.19699">
        <ele>1484</ele>
        <time>2026-05-25T10:10:10.000Z</time>
      </trkpt>
      <trkpt lat="44.63566" lon="5.19699">
        <ele>1484</ele>
        <time>2026-05-25T10:10:11.000Z</time>
      </trkpt>
      <trkpt lat="44.63566" lon="5.19699">
        <ele>1484</ele>
        <time>2026-05-25T10:10:12.000Z</time>
      </trkpt>
      <trkpt lat="44.63566" lon="5.19699">
        <ele>1484</ele>
        <time>2026-05-25T10:10:13.000Z</time>
      </trkpt>
      <trkpt lat="44.63566" lon="5.19699">
        <ele>1484</ele>
        <time>2026-05-25T10:10:14.000Z</time>
      </trkpt>
      <trkpt lat="44.63566" lon="5.19699">
        <ele>1484</ele>
        <time>2026-05-25T10:10:15.000Z</time>
      </trkpt>
      <trkpt lat="44.63566" lon="5.19699">
        <ele>1484</ele>
        <time>2026-05-25T10:10:16.000Z</time>
      </trkpt>
      <trkpt lat="44.63566" lon="5.19699">
        <ele>1484</ele>
        <time>2026-05-25T10:10:17.000Z</time>
      </trkpt>
      <trkpt lat="44.63566" lon="5.19699">
        <ele>1484</ele>
        <time>2026-05-25T10:10:18.000Z</time>
      </trkpt>
      <trkpt lat="44.63566" lon="5.19699">
        <ele>1484</ele>
        <time>2026-05-25T10:10:19.000Z</time>
      </trkpt>
      <trkpt lat="44.63566" lon="5.19699">
        <ele>1484</ele>
        <time>2026-05-25T10:10:20.000Z</time>
      </trkpt>
      <trkpt lat="44.63566" lon="5.19699">
        <ele>1484</ele>
        <time>2026-05-25T10:10:21.000Z</time>
      </trkpt>
      <trkpt lat="44.63566" lon="5.19699">
        <ele>1484</ele>
        <time>2026-05-25T10:10:22.000Z</time>
      </trkpt>
      <trkpt lat="44.63566" lon="5.19699">
        <ele>1484</ele>
        <time>2026-05-25T10:10:23.000Z</time>
      </trkpt>
      <trkpt lat="44.63566" lon="5.19699">
        <ele>1484</ele>
        <time>2026-05-25T10:10:24.000Z</time>
      </trkpt>
      <trkpt lat="44.63566" lon="5.19699">
        <ele>1484</ele>
        <time>2026-05-25T10:10:25.000Z</time>
      </trkpt>
      <trkpt lat="44.63567" lon="5.19698">
        <ele>1484</ele>
        <time>2026-05-25T10:10:26.000Z</time>
      </trkpt>
      <trkpt lat="44.63567" lon="5.19698">
        <ele>1484</ele>
        <time>2026-05-25T10:10:27.000Z</time>
      </trkpt>
      <trkpt lat="44.63568" lon="5.19698">
        <ele>1484</ele>
        <time>2026-05-25T10:10:28.000Z</time>
      </trkpt>
      <trkpt lat="44.63569" lon="5.19698">
        <ele>1484</ele>
        <time>2026-05-25T10:10:29.000Z</time>
      </trkpt>
      <trkpt lat="44.63568" lon="5.19698">
        <ele>1484</ele>
        <time>2026-05-25T10:10:30.000Z</time>
      </trkpt>
      <trkpt lat="44.63568" lon="5.19698">
        <ele>1484</ele>
        <time>2026-05-25T10:10:31.000Z</time>
      </trkpt>
      <trkpt lat="44.63568" lon="5.19698">
        <ele>1484</ele>
        <time>2026-05-25T10:10:32.000Z</time>
      </trkpt>
      <trkpt lat="44.63568" lon="5.19698">
        <ele>1484</ele>
        <time>2026-05-25T10:10:33.000Z</time>
      </trkpt>
      <trkpt lat="44.63568" lon="5.19698">
        <ele>1484</ele>
        <time>2026-05-25T10:10:34.000Z</time>
      </trkpt>
      <trkpt lat="44.63568" lon="5.19698">
        <ele>1484</ele>
        <time>2026-05-25T10:10:35.000Z</time>
      </trkpt>
      <trkpt lat="44.63568" lon="5.19698">
        <ele>1484</ele>
        <time>2026-05-25T10:10:36.000Z</time>
      </trkpt>
      <trkpt lat="44.63568" lon="5.19698">
        <ele>1484</ele>
        <time>2026-05-25T10:10:37.000Z</time>
      </trkpt>
      <trkpt lat="44.63568" lon="5.19698">
        <ele>1484</ele>
        <time>2026-05-25T10:10:38.000Z</time>
      </trkpt>
      <trkpt lat="44.63569" lon="5.19698">
        <ele>1484</ele>
        <time>2026-05-25T10:10:39.000Z</time>
      </trkpt>
      <trkpt lat="44.6357" lon="5.19698">
        <ele>1484</ele>
        <time>2026-05-25T10:10:40.000Z</time>
      </trkpt>
      <trkpt lat="44.6357" lon="5.19698">
        <ele>1484</ele>
        <time>2026-05-25T10:10:41.000Z</time>
      </trkpt>
      <trkpt lat="44.63571" lon="5.197">
        <ele>1484</ele>
        <time>2026-05-25T10:10:42.000Z</time>
      </trkpt>
      <trkpt lat="44.63571" lon="5.197">
        <ele>1484</ele>
        <time>2026-05-25T10:10:43.000Z</time>
      </trkpt>
      <trkpt lat="44.63571" lon="5.197">
        <ele>1484</ele>
        <time>2026-05-25T10:10:44.000Z</time>
      </trkpt>
      <trkpt lat="44.63571" lon="5.197">
        <ele>1484</ele>
        <time>2026-05-25T10:10:45.000Z</time>
      </trkpt>
      <trkpt lat="44.63571" lon="5.197">
        <ele>1484</ele>
        <time>2026-05-25T10:10:46.000Z</time>
      </trkpt>
      <trkpt lat="44.63571" lon="5.197">
        <ele>1484</ele>
        <time>2026-05-25T10:10:47.000Z</time>
      </trkpt>
      <trkpt lat="44.63571" lon="5.197">
        <ele>1484</ele>
        <time>2026-05-25T10:10:48.000Z</time>
      </trkpt>
      <trkpt lat="44.63571" lon="5.197">
        <ele>1484</ele>
        <time>2026-05-25T10:10:49.000Z</time>
      </trkpt>
      <trkpt lat="44.63572" lon="5.197">
        <ele>1485</ele>
        <time>2026-05-25T10:10:50.000Z</time>
      </trkpt>
      <trkpt lat="44.63572" lon="5.19701">
        <ele>1485</ele>
        <time>2026-05-25T10:10:51.000Z</time>
      </trkpt>
      <trkpt lat="44.63572" lon="5.197">
        <ele>1484</ele>
        <time>2026-05-25T10:10:52.000Z</time>
      </trkpt>
      <trkpt lat="44.63573" lon="5.19699">
        <ele>1485</ele>
        <time>2026-05-25T10:10:53.000Z</time>
      </trkpt>
      <trkpt lat="44.63573" lon="5.19698">
        <ele>1485</ele>
        <time>2026-05-25T10:10:54.000Z</time>
      </trkpt>
      <trkpt lat="44.63573" lon="5.19698">
        <ele>1485</ele>
        <time>2026-05-25T10:10:55.000Z</time>
      </trkpt>
      <trkpt lat="44.63573" lon="5.19698">
        <ele>1485</ele>
        <time>2026-05-25T10:10:56.000Z</time>
      </trkpt>
      <trkpt lat="44.63573" lon="5.19698">
        <ele>1485</ele>
        <time>2026-05-25T10:10:57.000Z</time>
      </trkpt>
      <trkpt lat="44.63575" lon="5.19699">
        <ele>1485</ele>
        <time>2026-05-25T10:10:58.000Z</time>
      </trkpt>
      <trkpt lat="44.63576" lon="5.19699">
        <ele>1484</ele>
        <time>2026-05-25T10:10:59.000Z</time>
      </trkpt>
      <trkpt lat="44.63577" lon="5.19699">
        <ele>1484</ele>
        <time>2026-05-25T10:11:00.000Z</time>
      </trkpt>
      <trkpt lat="44.63578" lon="5.19698">
        <ele>1485</ele>
        <time>2026-05-25T10:11:01.000Z</time>
      </trkpt>
      <trkpt lat="44.63578" lon="5.19698">
        <ele>1486</ele>
        <time>2026-05-25T10:11:02.000Z</time>
      </trkpt>
      <trkpt lat="44.63579" lon="5.19697">
        <ele>1486</ele>
        <time>2026-05-25T10:11:03.000Z</time>
      </trkpt>
      <trkpt lat="44.63579" lon="5.19697">
        <ele>1486</ele>
        <time>2026-05-25T10:11:04.000Z</time>
      </trkpt>
      <trkpt lat="44.6358" lon="5.19696">
        <ele>1487</ele>
        <time>2026-05-25T10:11:05.000Z</time>
      </trkpt>
      <trkpt lat="44.63581" lon="5.19695">
        <ele>1486</ele>
        <time>2026-05-25T10:11:06.000Z</time>
      </trkpt>
      <trkpt lat="44.63582" lon="5.19695">
        <ele>1486</ele>
        <time>2026-05-25T10:11:07.000Z</time>
      </trkpt>
      <trkpt lat="44.63582" lon="5.19696">
        <ele>1486</ele>
        <time>2026-05-25T10:11:08.000Z</time>
      </trkpt>
      <trkpt lat="44.63583" lon="5.19696">
        <ele>1486</ele>
        <time>2026-05-25T10:11:09.000Z</time>
      </trkpt>
      <trkpt lat="44.63584" lon="5.19696">
        <ele>1487</ele>
        <time>2026-05-25T10:11:10.000Z</time>
      </trkpt>
      <trkpt lat="44.63584" lon="5.19696">
        <ele>1487</ele>
        <time>2026-05-25T10:11:11.000Z</time>
      </trkpt>
      <trkpt lat="44.63585" lon="5.19696">
        <ele>1487</ele>
        <time>2026-05-25T10:11:12.000Z</time>
      </trkpt>
      <trkpt lat="44.63586" lon="5.19697">
        <ele>1487</ele>
        <time>2026-05-25T10:11:13.000Z</time>
      </trkpt>
      <trkpt lat="44.63586" lon="5.19696">
        <ele>1488</ele>
        <time>2026-05-25T10:11:14.000Z</time>
      </trkpt>
      <trkpt lat="44.63587" lon="5.19697">
        <ele>1489</ele>
        <time>2026-05-25T10:11:15.000Z</time>
      </trkpt>
      <trkpt lat="44.63588" lon="5.19697">
        <ele>1489</ele>
        <time>2026-05-25T10:11:16.000Z</time>
      </trkpt>
      <trkpt lat="44.63589" lon="5.19697">
        <ele>1489</ele>
        <time>2026-05-25T10:11:17.000Z</time>
      </trkpt>
      <trkpt lat="44.6359" lon="5.19696">
        <ele>1489</ele>
        <time>2026-05-25T10:11:18.000Z</time>
      </trkpt>
      <trkpt lat="44.63591" lon="5.19696">
        <ele>1489</ele>
        <time>2026-05-25T10:11:19.000Z</time>
      </trkpt>
      <trkpt lat="44.63592" lon="5.19695">
        <ele>1490</ele>
        <time>2026-05-25T10:11:20.000Z</time>
      </trkpt>
      <trkpt lat="44.63593" lon="5.19695">
        <ele>1490</ele>
        <time>2026-05-25T10:11:21.000Z</time>
      </trkpt>
      <trkpt lat="44.63594" lon="5.19695">
        <ele>1491</ele>
        <time>2026-05-25T10:11:22.000Z</time>
      </trkpt>
      <trkpt lat="44.63595" lon="5.19696">
        <ele>1491</ele>
        <time>2026-05-25T10:11:23.000Z</time>
      </trkpt>
      <trkpt lat="44.63595" lon="5.19697">
        <ele>1490</ele>
        <time>2026-05-25T10:11:24.000Z</time>
      </trkpt>
      <trkpt lat="44.63596" lon="5.19697">
        <ele>1490</ele>
        <time>2026-05-25T10:11:25.000Z</time>
      </trkpt>
      <trkpt lat="44.63597" lon="5.19697">
        <ele>1490</ele>
        <time>2026-05-25T10:11:26.000Z</time>
      </trkpt>
      <trkpt lat="44.63598" lon="5.19696">
        <ele>1491</ele>
        <time>2026-05-25T10:11:27.000Z</time>
      </trkpt>
      <trkpt lat="44.63599" lon="5.19697">
        <ele>1491</ele>
        <time>2026-05-25T10:11:28.000Z</time>
      </trkpt>
      <trkpt lat="44.636" lon="5.19697">
        <ele>1492</ele>
        <time>2026-05-25T10:11:29.000Z</time>
      </trkpt>
      <trkpt lat="44.636" lon="5.19697">
        <ele>1492</ele>
        <time>2026-05-25T10:11:30.000Z</time>
      </trkpt>
      <trkpt lat="44.63601" lon="5.19698">
        <ele>1492</ele>
        <time>2026-05-25T10:11:31.000Z</time>
      </trkpt>
      <trkpt lat="44.63602" lon="5.19697">
        <ele>1492</ele>
        <time>2026-05-25T10:11:32.000Z</time>
      </trkpt>
      <trkpt lat="44.63603" lon="5.19697">
        <ele>1492</ele>
        <time>2026-05-25T10:11:33.000Z</time>
      </trkpt>
      <trkpt lat="44.63604" lon="5.19698">
        <ele>1492</ele>
        <time>2026-05-25T10:11:34.000Z</time>
      </trkpt>
      <trkpt lat="44.63604" lon="5.19698">
        <ele>1493</ele>
        <time>2026-05-25T10:11:35.000Z</time>
      </trkpt>
      <trkpt lat="44.63605" lon="5.19698">
        <ele>1493</ele>
        <time>2026-05-25T10:11:36.000Z</time>
      </trkpt>
      <trkpt lat="44.63605" lon="5.19699">
        <ele>1493</ele>
        <time>2026-05-25T10:11:37.000Z</time>
      </trkpt>
      <trkpt lat="44.63606" lon="5.19699">
        <ele>1495</ele>
        <time>2026-05-25T10:11:38.000Z</time>
      </trkpt>
      <trkpt lat="44.63607" lon="5.19698">
        <ele>1495</ele>
        <time>2026-05-25T10:11:39.000Z</time>
      </trkpt>
      <trkpt lat="44.63607" lon="5.19698">
        <ele>1495</ele>
        <time>2026-05-25T10:11:40.000Z</time>
      </trkpt>
      <trkpt lat="44.63608" lon="5.19698">
        <ele>1496</ele>
        <time>2026-05-25T10:11:41.000Z</time>
      </trkpt>
      <trkpt lat="44.63609" lon="5.19699">
        <ele>1495</ele>
        <time>2026-05-25T10:11:42.000Z</time>
      </trkpt>
      <trkpt lat="44.6361" lon="5.19699">
        <ele>1495</ele>
        <time>2026-05-25T10:11:43.000Z</time>
      </trkpt>
      <trkpt lat="44.6361" lon="5.19698">
        <ele>1495</ele>
        <time>2026-05-25T10:11:44.000Z</time>
      </trkpt>
      <trkpt lat="44.63611" lon="5.19698">
        <ele>1495</ele>
        <time>2026-05-25T10:11:45.000Z</time>
      </trkpt>
      <trkpt lat="44.63612" lon="5.19699">
        <ele>1495</ele>
        <time>2026-05-25T10:11:46.000Z</time>
      </trkpt>
      <trkpt lat="44.63612" lon="5.19699">
        <ele>1496</ele>
        <time>2026-05-25T10:11:47.000Z</time>
      </trkpt>
      <trkpt lat="44.63613" lon="5.19699">
        <ele>1496</ele>
        <time>2026-05-25T10:11:48.000Z</time>
      </trkpt>
      <trkpt lat="44.63614" lon="5.19699">
        <ele>1496</ele>
        <time>2026-05-25T10:11:49.000Z</time>
      </trkpt>
      <trkpt lat="44.63614" lon="5.19699">
        <ele>1495</ele>
        <time>2026-05-25T10:11:50.000Z</time>
      </trkpt>
      <trkpt lat="44.63615" lon="5.19698">
        <ele>1495</ele>
        <time>2026-05-25T10:11:51.000Z</time>
      </trkpt>
      <trkpt lat="44.63616" lon="5.19699">
        <ele>1496</ele>
        <time>2026-05-25T10:11:52.000Z</time>
      </trkpt>
      <trkpt lat="44.63617" lon="5.19698">
        <ele>1497</ele>
        <time>2026-05-25T10:11:53.000Z</time>
      </trkpt>
      <trkpt lat="44.63618" lon="5.19698">
        <ele>1497</ele>
        <time>2026-05-25T10:11:54.000Z</time>
      </trkpt>
      <trkpt lat="44.63619" lon="5.19698">
        <ele>1498</ele>
        <time>2026-05-25T10:11:55.000Z</time>
      </trkpt>
      <trkpt lat="44.6362" lon="5.19698">
        <ele>1498</ele>
        <time>2026-05-25T10:11:56.000Z</time>
      </trkpt>
      <trkpt lat="44.6362" lon="5.19699">
        <ele>1498</ele>
        <time>2026-05-25T10:11:57.000Z</time>
      </trkpt>
      <trkpt lat="44.63621" lon="5.19698">
        <ele>1498</ele>
        <time>2026-05-25T10:11:58.000Z</time>
      </trkpt>
      <trkpt lat="44.63621" lon="5.19698">
        <ele>1499</ele>
        <time>2026-05-25T10:11:59.000Z</time>
      </trkpt>
      <trkpt lat="44.63622" lon="5.19698">
        <ele>1499</ele>
        <time>2026-05-25T10:12:00.000Z</time>
      </trkpt>
      <trkpt lat="44.63622" lon="5.19698">
        <ele>1499</ele>
        <time>2026-05-25T10:12:01.000Z</time>
      </trkpt>
      <trkpt lat="44.63623" lon="5.19697">
        <ele>1499</ele>
        <time>2026-05-25T10:12:02.000Z</time>
      </trkpt>
      <trkpt lat="44.63624" lon="5.19697">
        <ele>1499</ele>
        <time>2026-05-25T10:12:03.000Z</time>
      </trkpt>
      <trkpt lat="44.63625" lon="5.19697">
        <ele>1499</ele>
        <time>2026-05-25T10:12:04.000Z</time>
      </trkpt>
      <trkpt lat="44.63626" lon="5.19697">
        <ele>1500</ele>
        <time>2026-05-25T10:12:05.000Z</time>
      </trkpt>
      <trkpt lat="44.63627" lon="5.19697">
        <ele>1500</ele>
        <time>2026-05-25T10:12:06.000Z</time>
      </trkpt>
      <trkpt lat="44.63628" lon="5.19697">
        <ele>1500</ele>
        <time>2026-05-25T10:12:07.000Z</time>
      </trkpt>
      <trkpt lat="44.63629" lon="5.19697">
        <ele>1501</ele>
        <time>2026-05-25T10:12:08.000Z</time>
      </trkpt>
      <trkpt lat="44.6363" lon="5.19698">
        <ele>1500</ele>
        <time>2026-05-25T10:12:09.000Z</time>
      </trkpt>
      <trkpt lat="44.63631" lon="5.19697">
        <ele>1500</ele>
        <time>2026-05-25T10:12:10.000Z</time>
      </trkpt>
      <trkpt lat="44.63631" lon="5.19698">
        <ele>1501</ele>
        <time>2026-05-25T10:12:11.000Z</time>
      </trkpt>
      <trkpt lat="44.63632" lon="5.19699">
        <ele>1501</ele>
        <time>2026-05-25T10:12:12.000Z</time>
      </trkpt>
      <trkpt lat="44.63632" lon="5.19699">
        <ele>1502</ele>
        <time>2026-05-25T10:12:13.000Z</time>
      </trkpt>
      <trkpt lat="44.63633" lon="5.19699">
        <ele>1502</ele>
        <time>2026-05-25T10:12:14.000Z</time>
      </trkpt>
      <trkpt lat="44.63634" lon="5.19699">
        <ele>1502</ele>
        <time>2026-05-25T10:12:15.000Z</time>
      </trkpt>
      <trkpt lat="44.63635" lon="5.19699">
        <ele>1502</ele>
        <time>2026-05-25T10:12:16.000Z</time>
      </trkpt>
      <trkpt lat="44.63635" lon="5.19699">
        <ele>1502</ele>
        <time>2026-05-25T10:12:17.000Z</time>
      </trkpt>
      <trkpt lat="44.63636" lon="5.19699">
        <ele>1503</ele>
        <time>2026-05-25T10:12:18.000Z</time>
      </trkpt>
      <trkpt lat="44.63637" lon="5.197">
        <ele>1503</ele>
        <time>2026-05-25T10:12:19.000Z</time>
      </trkpt>
      <trkpt lat="44.63637" lon="5.197">
        <ele>1503</ele>
        <time>2026-05-25T10:12:20.000Z</time>
      </trkpt>
      <trkpt lat="44.63638" lon="5.197">
        <ele>1503</ele>
        <time>2026-05-25T10:12:21.000Z</time>
      </trkpt>
      <trkpt lat="44.6364" lon="5.197">
        <ele>1504</ele>
        <time>2026-05-25T10:12:22.000Z</time>
      </trkpt>
      <trkpt lat="44.63641" lon="5.197">
        <ele>1504</ele>
        <time>2026-05-25T10:12:23.000Z</time>
      </trkpt>
      <trkpt lat="44.63641" lon="5.197">
        <ele>1504</ele>
        <time>2026-05-25T10:12:24.000Z</time>
      </trkpt>
      <trkpt lat="44.63642" lon="5.19701">
        <ele>1503</ele>
        <time>2026-05-25T10:12:25.000Z</time>
      </trkpt>
      <trkpt lat="44.63642" lon="5.19701">
        <ele>1505</ele>
        <time>2026-05-25T10:12:26.000Z</time>
      </trkpt>
      <trkpt lat="44.63643" lon="5.19701">
        <ele>1505</ele>
        <time>2026-05-25T10:12:27.000Z</time>
      </trkpt>
      <trkpt lat="44.63643" lon="5.19702">
        <ele>1505</ele>
        <time>2026-05-25T10:12:28.000Z</time>
      </trkpt>
      <trkpt lat="44.63644" lon="5.19702">
        <ele>1506</ele>
        <time>2026-05-25T10:12:29.000Z</time>
      </trkpt>
      <trkpt lat="44.63644" lon="5.19702">
        <ele>1506</ele>
        <time>2026-05-25T10:12:30.000Z</time>
      </trkpt>
      <trkpt lat="44.63644" lon="5.19702">
        <ele>1506</ele>
        <time>2026-05-25T10:12:31.000Z</time>
      </trkpt>
      <trkpt lat="44.63646" lon="5.19701">
        <ele>1506</ele>
        <time>2026-05-25T10:12:32.000Z</time>
      </trkpt>
      <trkpt lat="44.63647" lon="5.19701">
        <ele>1507</ele>
        <time>2026-05-25T10:12:33.000Z</time>
      </trkpt>
      <trkpt lat="44.63647" lon="5.19701">
        <ele>1506</ele>
        <time>2026-05-25T10:12:34.000Z</time>
      </trkpt>
      <trkpt lat="44.63647" lon="5.19701">
        <ele>1506</ele>
        <time>2026-05-25T10:12:35.000Z</time>
      </trkpt>
      <trkpt lat="44.63648" lon="5.19701">
        <ele>1506</ele>
        <time>2026-05-25T10:12:36.000Z</time>
      </trkpt>
      <trkpt lat="44.63649" lon="5.19701">
        <ele>1507</ele>
        <time>2026-05-25T10:12:37.000Z</time>
      </trkpt>
      <trkpt lat="44.63649" lon="5.19702">
        <ele>1508</ele>
        <time>2026-05-25T10:12:38.000Z</time>
      </trkpt>
      <trkpt lat="44.6365" lon="5.19703">
        <ele>1508</ele>
        <time>2026-05-25T10:12:39.000Z</time>
      </trkpt>
      <trkpt lat="44.63651" lon="5.19704">
        <ele>1508</ele>
        <time>2026-05-25T10:12:40.000Z</time>
      </trkpt>
      <trkpt lat="44.63651" lon="5.19704">
        <ele>1508</ele>
        <time>2026-05-25T10:12:41.000Z</time>
      </trkpt>
      <trkpt lat="44.63652" lon="5.19703">
        <ele>1509</ele>
        <time>2026-05-25T10:12:42.000Z</time>
      </trkpt>
      <trkpt lat="44.63653" lon="5.19702">
        <ele>1509</ele>
        <time>2026-05-25T10:12:43.000Z</time>
      </trkpt>
      <trkpt lat="44.63654" lon="5.19702">
        <ele>1509</ele>
        <time>2026-05-25T10:12:44.000Z</time>
      </trkpt>
      <trkpt lat="44.63654" lon="5.19703">
        <ele>1509</ele>
        <time>2026-05-25T10:12:45.000Z</time>
      </trkpt>
      <trkpt lat="44.63655" lon="5.19704">
        <ele>1509</ele>
        <time>2026-05-25T10:12:46.000Z</time>
      </trkpt>
      <trkpt lat="44.63655" lon="5.19705">
        <ele>1509</ele>
        <time>2026-05-25T10:12:47.000Z</time>
      </trkpt>
      <trkpt lat="44.63656" lon="5.19705">
        <ele>1510</ele>
        <time>2026-05-25T10:12:48.000Z</time>
      </trkpt>
      <trkpt lat="44.63656" lon="5.19705">
        <ele>1510</ele>
        <time>2026-05-25T10:12:49.000Z</time>
      </trkpt>
      <trkpt lat="44.63657" lon="5.19704">
        <ele>1510</ele>
        <time>2026-05-25T10:12:50.000Z</time>
      </trkpt>
      <trkpt lat="44.63658" lon="5.19704">
        <ele>1510</ele>
        <time>2026-05-25T10:12:51.000Z</time>
      </trkpt>
      <trkpt lat="44.63658" lon="5.19705">
        <ele>1511</ele>
        <time>2026-05-25T10:12:52.000Z</time>
      </trkpt>
      <trkpt lat="44.63658" lon="5.19705">
        <ele>1511</ele>
        <time>2026-05-25T10:12:53.000Z</time>
      </trkpt>
      <trkpt lat="44.63659" lon="5.19704">
        <ele>1512</ele>
        <time>2026-05-25T10:12:54.000Z</time>
      </trkpt>
      <trkpt lat="44.63661" lon="5.19705">
        <ele>1513</ele>
        <time>2026-05-25T10:12:55.000Z</time>
      </trkpt>
      <trkpt lat="44.63661" lon="5.19705">
        <ele>1514</ele>
        <time>2026-05-25T10:12:56.000Z</time>
      </trkpt>
      <trkpt lat="44.63662" lon="5.19706">
        <ele>1514</ele>
        <time>2026-05-25T10:12:57.000Z</time>
      </trkpt>
      <trkpt lat="44.63662" lon="5.19706">
        <ele>1515</ele>
        <time>2026-05-25T10:12:58.000Z</time>
      </trkpt>
      <trkpt lat="44.63663" lon="5.19706">
        <ele>1514</ele>
        <time>2026-05-25T10:12:59.000Z</time>
      </trkpt>
      <trkpt lat="44.63662" lon="5.19705">
        <ele>1514</ele>
        <time>2026-05-25T10:13:00.000Z</time>
      </trkpt>
      <trkpt lat="44.63663" lon="5.19706">
        <ele>1514</ele>
        <time>2026-05-25T10:13:01.000Z</time>
      </trkpt>
      <trkpt lat="44.63664" lon="5.19706">
        <ele>1515</ele>
        <time>2026-05-25T10:13:02.000Z</time>
      </trkpt>
      <trkpt lat="44.63665" lon="5.19706">
        <ele>1515</ele>
        <time>2026-05-25T10:13:03.000Z</time>
      </trkpt>
      <trkpt lat="44.63666" lon="5.19706">
        <ele>1515</ele>
        <time>2026-05-25T10:13:04.000Z</time>
      </trkpt>
      <trkpt lat="44.63667" lon="5.19707">
        <ele>1515</ele>
        <time>2026-05-25T10:13:05.000Z</time>
      </trkpt>
      <trkpt lat="44.63669" lon="5.19707">
        <ele>1515</ele>
        <time>2026-05-25T10:13:06.000Z</time>
      </trkpt>
      <trkpt lat="44.6367" lon="5.19707">
        <ele>1515</ele>
        <time>2026-05-25T10:13:07.000Z</time>
      </trkpt>
      <trkpt lat="44.6367" lon="5.19707">
        <ele>1515</ele>
        <time>2026-05-25T10:13:08.000Z</time>
      </trkpt>
      <trkpt lat="44.63671" lon="5.19707">
        <ele>1514</ele>
        <time>2026-05-25T10:13:09.000Z</time>
      </trkpt>
      <trkpt lat="44.63671" lon="5.19707">
        <ele>1514</ele>
        <time>2026-05-25T10:13:10.000Z</time>
      </trkpt>
      <trkpt lat="44.63672" lon="5.19707">
        <ele>1515</ele>
        <time>2026-05-25T10:13:11.000Z</time>
      </trkpt>
      <trkpt lat="44.63673" lon="5.19707">
        <ele>1515</ele>
        <time>2026-05-25T10:13:12.000Z</time>
      </trkpt>
      <trkpt lat="44.63674" lon="5.19707">
        <ele>1515</ele>
        <time>2026-05-25T10:13:13.000Z</time>
      </trkpt>
      <trkpt lat="44.63675" lon="5.19708">
        <ele>1516</ele>
        <time>2026-05-25T10:13:14.000Z</time>
      </trkpt>
      <trkpt lat="44.63675" lon="5.19708">
        <ele>1516</ele>
        <time>2026-05-25T10:13:15.000Z</time>
      </trkpt>
      <trkpt lat="44.63676" lon="5.19708">
        <ele>1516</ele>
        <time>2026-05-25T10:13:16.000Z</time>
      </trkpt>
      <trkpt lat="44.63677" lon="5.19708">
        <ele>1517</ele>
        <time>2026-05-25T10:13:17.000Z</time>
      </trkpt>
      <trkpt lat="44.63677" lon="5.19709">
        <ele>1518</ele>
        <time>2026-05-25T10:13:18.000Z</time>
      </trkpt>
      <trkpt lat="44.63677" lon="5.19709">
        <ele>1518</ele>
        <time>2026-05-25T10:13:19.000Z</time>
      </trkpt>
      <trkpt lat="44.63678" lon="5.19709">
        <ele>1518</ele>
        <time>2026-05-25T10:13:20.000Z</time>
      </trkpt>
      <trkpt lat="44.63679" lon="5.19709">
        <ele>1518</ele>
        <time>2026-05-25T10:13:21.000Z</time>
      </trkpt>
      <trkpt lat="44.6368" lon="5.19709">
        <ele>1518</ele>
        <time>2026-05-25T10:13:22.000Z</time>
      </trkpt>
      <trkpt lat="44.6368" lon="5.19709">
        <ele>1518</ele>
        <time>2026-05-25T10:13:23.000Z</time>
      </trkpt>
      <trkpt lat="44.63681" lon="5.19709">
        <ele>1519</ele>
        <time>2026-05-25T10:13:24.000Z</time>
      </trkpt>
      <trkpt lat="44.63681" lon="5.19709">
        <ele>1519</ele>
        <time>2026-05-25T10:13:25.000Z</time>
      </trkpt>
      <trkpt lat="44.63682" lon="5.19709">
        <ele>1519</ele>
        <time>2026-05-25T10:13:26.000Z</time>
      </trkpt>
      <trkpt lat="44.63682" lon="5.1971">
        <ele>1519</ele>
        <time>2026-05-25T10:13:27.000Z</time>
      </trkpt>
      <trkpt lat="44.63682" lon="5.19711">
        <ele>1520</ele>
        <time>2026-05-25T10:13:28.000Z</time>
      </trkpt>
      <trkpt lat="44.63683" lon="5.19711">
        <ele>1520</ele>
        <time>2026-05-25T10:13:29.000Z</time>
      </trkpt>
      <trkpt lat="44.63684" lon="5.19711">
        <ele>1520</ele>
        <time>2026-05-25T10:13:30.000Z</time>
      </trkpt>
      <trkpt lat="44.63684" lon="5.19711">
        <ele>1520</ele>
        <time>2026-05-25T10:13:31.000Z</time>
      </trkpt>
      <trkpt lat="44.63685" lon="5.19711">
        <ele>1520</ele>
        <time>2026-05-25T10:13:32.000Z</time>
      </trkpt>
      <trkpt lat="44.63685" lon="5.19712">
        <ele>1520</ele>
        <time>2026-05-25T10:13:33.000Z</time>
      </trkpt>
      <trkpt lat="44.63686" lon="5.19713">
        <ele>1519</ele>
        <time>2026-05-25T10:13:34.000Z</time>
      </trkpt>
      <trkpt lat="44.63686" lon="5.19714">
        <ele>1519</ele>
        <time>2026-05-25T10:13:35.000Z</time>
      </trkpt>
      <trkpt lat="44.63687" lon="5.19714">
        <ele>1519</ele>
        <time>2026-05-25T10:13:36.000Z</time>
      </trkpt>
      <trkpt lat="44.63688" lon="5.19713">
        <ele>1519</ele>
        <time>2026-05-25T10:13:37.000Z</time>
      </trkpt>
      <trkpt lat="44.63688" lon="5.19712">
        <ele>1521</ele>
        <time>2026-05-25T10:13:38.000Z</time>
      </trkpt>
      <trkpt lat="44.63689" lon="5.19712">
        <ele>1522</ele>
        <time>2026-05-25T10:13:39.000Z</time>
      </trkpt>
      <trkpt lat="44.63689" lon="5.19711">
        <ele>1522</ele>
        <time>2026-05-25T10:13:40.000Z</time>
      </trkpt>
      <trkpt lat="44.6369" lon="5.1971">
        <ele>1522</ele>
        <time>2026-05-25T10:13:41.000Z</time>
      </trkpt>
      <trkpt lat="44.63691" lon="5.19711">
        <ele>1522</ele>
        <time>2026-05-25T10:13:42.000Z</time>
      </trkpt>
      <trkpt lat="44.63691" lon="5.19712">
        <ele>1522</ele>
        <time>2026-05-25T10:13:43.000Z</time>
      </trkpt>
      <trkpt lat="44.63692" lon="5.19711">
        <ele>1522</ele>
        <time>2026-05-25T10:13:44.000Z</time>
      </trkpt>
      <trkpt lat="44.63693" lon="5.19712">
        <ele>1522</ele>
        <time>2026-05-25T10:13:45.000Z</time>
      </trkpt>
      <trkpt lat="44.63694" lon="5.19712">
        <ele>1523</ele>
        <time>2026-05-25T10:13:46.000Z</time>
      </trkpt>
      <trkpt lat="44.63696" lon="5.19712">
        <ele>1523</ele>
        <time>2026-05-25T10:13:47.000Z</time>
      </trkpt>
      <trkpt lat="44.63697" lon="5.19712">
        <ele>1522</ele>
        <time>2026-05-25T10:13:48.000Z</time>
      </trkpt>
      <trkpt lat="44.63698" lon="5.19713">
        <ele>1522</ele>
        <time>2026-05-25T10:13:49.000Z</time>
      </trkpt>
      <trkpt lat="44.63699" lon="5.19713">
        <ele>1522</ele>
        <time>2026-05-25T10:13:50.000Z</time>
      </trkpt>
      <trkpt lat="44.637" lon="5.19713">
        <ele>1522</ele>
        <time>2026-05-25T10:13:51.000Z</time>
      </trkpt>
      <trkpt lat="44.63701" lon="5.19713">
        <ele>1522</ele>
        <time>2026-05-25T10:13:52.000Z</time>
      </trkpt>
      <trkpt lat="44.63702" lon="5.19713">
        <ele>1522</ele>
        <time>2026-05-25T10:13:53.000Z</time>
      </trkpt>
      <trkpt lat="44.63702" lon="5.19714">
        <ele>1522</ele>
        <time>2026-05-25T10:13:54.000Z</time>
      </trkpt>
      <trkpt lat="44.63703" lon="5.19714">
        <ele>1523</ele>
        <time>2026-05-25T10:13:55.000Z</time>
      </trkpt>
      <trkpt lat="44.63703" lon="5.19715">
        <ele>1524</ele>
        <time>2026-05-25T10:13:56.000Z</time>
      </trkpt>
      <trkpt lat="44.63705" lon="5.19715">
        <ele>1524</ele>
        <time>2026-05-25T10:13:57.000Z</time>
      </trkpt>
      <trkpt lat="44.63705" lon="5.19715">
        <ele>1524</ele>
        <time>2026-05-25T10:13:58.000Z</time>
      </trkpt>
      <trkpt lat="44.63706" lon="5.19716">
        <ele>1524</ele>
        <time>2026-05-25T10:13:59.000Z</time>
      </trkpt>
      <trkpt lat="44.63707" lon="5.19716">
        <ele>1525</ele>
        <time>2026-05-25T10:14:00.000Z</time>
      </trkpt>
      <trkpt lat="44.63708" lon="5.19716">
        <ele>1524</ele>
        <time>2026-05-25T10:14:01.000Z</time>
      </trkpt>
      <trkpt lat="44.63708" lon="5.19716">
        <ele>1525</ele>
        <time>2026-05-25T10:14:02.000Z</time>
      </trkpt>
      <trkpt lat="44.63709" lon="5.19716">
        <ele>1525</ele>
        <time>2026-05-25T10:14:03.000Z</time>
      </trkpt>
      <trkpt lat="44.6371" lon="5.19716">
        <ele>1525</ele>
        <time>2026-05-25T10:14:04.000Z</time>
      </trkpt>
      <trkpt lat="44.6371" lon="5.19717">
        <ele>1526</ele>
        <time>2026-05-25T10:14:05.000Z</time>
      </trkpt>
      <trkpt lat="44.63711" lon="5.19717">
        <ele>1526</ele>
        <time>2026-05-25T10:14:06.000Z</time>
      </trkpt>
      <trkpt lat="44.63712" lon="5.19717">
        <ele>1525</ele>
        <time>2026-05-25T10:14:07.000Z</time>
      </trkpt>
      <trkpt lat="44.63713" lon="5.19717">
        <ele>1526</ele>
        <time>2026-05-25T10:14:08.000Z</time>
      </trkpt>
      <trkpt lat="44.63714" lon="5.19716">
        <ele>1526</ele>
        <time>2026-05-25T10:14:09.000Z</time>
      </trkpt>
      <trkpt lat="44.63716" lon="5.19716">
        <ele>1526</ele>
        <time>2026-05-25T10:14:10.000Z</time>
      </trkpt>
      <trkpt lat="44.63717" lon="5.19717">
        <ele>1526</ele>
        <time>2026-05-25T10:14:11.000Z</time>
      </trkpt>
      <trkpt lat="44.63718" lon="5.19717">
        <ele>1525</ele>
        <time>2026-05-25T10:14:12.000Z</time>
      </trkpt>
      <trkpt lat="44.63719" lon="5.19717">
        <ele>1525</ele>
        <time>2026-05-25T10:14:13.000Z</time>
      </trkpt>
      <trkpt lat="44.6372" lon="5.19718">
        <ele>1525</ele>
        <time>2026-05-25T10:14:14.000Z</time>
      </trkpt>
      <trkpt lat="44.63721" lon="5.19719">
        <ele>1526</ele>
        <time>2026-05-25T10:14:15.000Z</time>
      </trkpt>
      <trkpt lat="44.63723" lon="5.19719">
        <ele>1526</ele>
        <time>2026-05-25T10:14:16.000Z</time>
      </trkpt>
      <trkpt lat="44.63724" lon="5.19719">
        <ele>1526</ele>
        <time>2026-05-25T10:14:17.000Z</time>
      </trkpt>
      <trkpt lat="44.63725" lon="5.1972">
        <ele>1526</ele>
        <time>2026-05-25T10:14:18.000Z</time>
      </trkpt>
      <trkpt lat="44.63726" lon="5.19721">
        <ele>1526</ele>
        <time>2026-05-25T10:14:19.000Z</time>
      </trkpt>
      <trkpt lat="44.63726" lon="5.19721">
        <ele>1527</ele>
        <time>2026-05-25T10:14:20.000Z</time>
      </trkpt>
      <trkpt lat="44.63727" lon="5.19721">
        <ele>1527</ele>
        <time>2026-05-25T10:14:21.000Z</time>
      </trkpt>
      <trkpt lat="44.63728" lon="5.19721">
        <ele>1528</ele>
        <time>2026-05-25T10:14:22.000Z</time>
      </trkpt>
      <trkpt lat="44.63729" lon="5.19722">
        <ele>1528</ele>
        <time>2026-05-25T10:14:23.000Z</time>
      </trkpt>
      <trkpt lat="44.6373" lon="5.19723">
        <ele>1529</ele>
        <time>2026-05-25T10:14:24.000Z</time>
      </trkpt>
      <trkpt lat="44.63731" lon="5.19724">
        <ele>1528</ele>
        <time>2026-05-25T10:14:25.000Z</time>
      </trkpt>
      <trkpt lat="44.63732" lon="5.19725">
        <ele>1528</ele>
        <time>2026-05-25T10:14:26.000Z</time>
      </trkpt>
      <trkpt lat="44.63733" lon="5.19726">
        <ele>1528</ele>
        <time>2026-05-25T10:14:27.000Z</time>
      </trkpt>
      <trkpt lat="44.63733" lon="5.19727">
        <ele>1528</ele>
        <time>2026-05-25T10:14:28.000Z</time>
      </trkpt>
      <trkpt lat="44.63734" lon="5.19727">
        <ele>1529</ele>
        <time>2026-05-25T10:14:29.000Z</time>
      </trkpt>
      <trkpt lat="44.63735" lon="5.19727">
        <ele>1528</ele>
        <time>2026-05-25T10:14:30.000Z</time>
      </trkpt>
      <trkpt lat="44.63735" lon="5.19728">
        <ele>1528</ele>
        <time>2026-05-25T10:14:31.000Z</time>
      </trkpt>
      <trkpt lat="44.63736" lon="5.19728">
        <ele>1529</ele>
        <time>2026-05-25T10:14:32.000Z</time>
      </trkpt>
      <trkpt lat="44.63736" lon="5.19729">
        <ele>1529</ele>
        <time>2026-05-25T10:14:33.000Z</time>
      </trkpt>
      <trkpt lat="44.63737" lon="5.1973">
        <ele>1529</ele>
        <time>2026-05-25T10:14:34.000Z</time>
      </trkpt>
      <trkpt lat="44.63737" lon="5.19731">
        <ele>1529</ele>
        <time>2026-05-25T10:14:35.000Z</time>
      </trkpt>
      <trkpt lat="44.63738" lon="5.19733">
        <ele>1529</ele>
        <time>2026-05-25T10:14:36.000Z</time>
      </trkpt>
      <trkpt lat="44.63739" lon="5.19734">
        <ele>1529</ele>
        <time>2026-05-25T10:14:37.000Z</time>
      </trkpt>
      <trkpt lat="44.63741" lon="5.19735">
        <ele>1529</ele>
        <time>2026-05-25T10:14:38.000Z</time>
      </trkpt>
      <trkpt lat="44.63742" lon="5.19736">
        <ele>1529</ele>
        <time>2026-05-25T10:14:39.000Z</time>
      </trkpt>
      <trkpt lat="44.63743" lon="5.19737">
        <ele>1529</ele>
        <time>2026-05-25T10:14:40.000Z</time>
      </trkpt>
      <trkpt lat="44.63744" lon="5.19738">
        <ele>1529</ele>
        <time>2026-05-25T10:14:41.000Z</time>
      </trkpt>
      <trkpt lat="44.63745" lon="5.19739">
        <ele>1530</ele>
        <time>2026-05-25T10:14:42.000Z</time>
      </trkpt>
      <trkpt lat="44.63745" lon="5.1974">
        <ele>1530</ele>
        <time>2026-05-25T10:14:43.000Z</time>
      </trkpt>
      <trkpt lat="44.63746" lon="5.19741">
        <ele>1530</ele>
        <time>2026-05-25T10:14:44.000Z</time>
      </trkpt>
      <trkpt lat="44.63746" lon="5.19742">
        <ele>1530</ele>
        <time>2026-05-25T10:14:45.000Z</time>
      </trkpt>
      <trkpt lat="44.63746" lon="5.19742">
        <ele>1530</ele>
        <time>2026-05-25T10:14:46.000Z</time>
      </trkpt>
      <trkpt lat="44.63747" lon="5.19743">
        <ele>1528</ele>
        <time>2026-05-25T10:14:47.000Z</time>
      </trkpt>
      <trkpt lat="44.63748" lon="5.19745">
        <ele>1528</ele>
        <time>2026-05-25T10:14:48.000Z</time>
      </trkpt>
      <trkpt lat="44.63748" lon="5.19746">
        <ele>1530</ele>
        <time>2026-05-25T10:14:49.000Z</time>
      </trkpt>
      <trkpt lat="44.63748" lon="5.19747">
        <ele>1530</ele>
        <time>2026-05-25T10:14:50.000Z</time>
      </trkpt>
      <trkpt lat="44.6375" lon="5.19747">
        <ele>1530</ele>
        <time>2026-05-25T10:14:51.000Z</time>
      </trkpt>
      <trkpt lat="44.6375" lon="5.19748">
        <ele>1530</ele>
        <time>2026-05-25T10:14:52.000Z</time>
      </trkpt>
      <trkpt lat="44.63751" lon="5.19749">
        <ele>1529</ele>
        <time>2026-05-25T10:14:53.000Z</time>
      </trkpt>
      <trkpt lat="44.63752" lon="5.19751">
        <ele>1529</ele>
        <time>2026-05-25T10:14:54.000Z</time>
      </trkpt>
      <trkpt lat="44.63753" lon="5.19752">
        <ele>1531</ele>
        <time>2026-05-25T10:14:55.000Z</time>
      </trkpt>
      <trkpt lat="44.63754" lon="5.19754">
        <ele>1530</ele>
        <time>2026-05-25T10:14:56.000Z</time>
      </trkpt>
      <trkpt lat="44.63754" lon="5.19756">
        <ele>1531</ele>
        <time>2026-05-25T10:14:57.000Z</time>
      </trkpt>
      <trkpt lat="44.63755" lon="5.19758">
        <ele>1531</ele>
        <time>2026-05-25T10:14:58.000Z</time>
      </trkpt>
      <trkpt lat="44.63755" lon="5.19758">
        <ele>1532</ele>
        <time>2026-05-25T10:14:59.000Z</time>
      </trkpt>
      <trkpt lat="44.63756" lon="5.19759">
        <ele>1533</ele>
        <time>2026-05-25T10:15:00.000Z</time>
      </trkpt>
      <trkpt lat="44.63757" lon="5.1976">
        <ele>1534</ele>
        <time>2026-05-25T10:15:01.000Z</time>
      </trkpt>
      <trkpt lat="44.63758" lon="5.19761">
        <ele>1535</ele>
        <time>2026-05-25T10:15:02.000Z</time>
      </trkpt>
      <trkpt lat="44.63758" lon="5.19761">
        <ele>1535</ele>
        <time>2026-05-25T10:15:03.000Z</time>
      </trkpt>
      <trkpt lat="44.63759" lon="5.19762">
        <ele>1535</ele>
        <time>2026-05-25T10:15:04.000Z</time>
      </trkpt>
      <trkpt lat="44.63759" lon="5.19764">
        <ele>1536</ele>
        <time>2026-05-25T10:15:05.000Z</time>
      </trkpt>
      <trkpt lat="44.6376" lon="5.19765">
        <ele>1535</ele>
        <time>2026-05-25T10:15:06.000Z</time>
      </trkpt>
      <trkpt lat="44.6376" lon="5.19767">
        <ele>1535</ele>
        <time>2026-05-25T10:15:07.000Z</time>
      </trkpt>
      <trkpt lat="44.63761" lon="5.19767">
        <ele>1535</ele>
        <time>2026-05-25T10:15:08.000Z</time>
      </trkpt>
      <trkpt lat="44.6376" lon="5.19768">
        <ele>1535</ele>
        <time>2026-05-25T10:15:09.000Z</time>
      </trkpt>
      <trkpt lat="44.6376" lon="5.19769">
        <ele>1536</ele>
        <time>2026-05-25T10:15:10.000Z</time>
      </trkpt>
      <trkpt lat="44.6376" lon="5.19771">
        <ele>1536</ele>
        <time>2026-05-25T10:15:11.000Z</time>
      </trkpt>
      <trkpt lat="44.6376" lon="5.19773">
        <ele>1537</ele>
        <time>2026-05-25T10:15:12.000Z</time>
      </trkpt>
      <trkpt lat="44.6376" lon="5.19774">
        <ele>1538</ele>
        <time>2026-05-25T10:15:13.000Z</time>
      </trkpt>
      <trkpt lat="44.63761" lon="5.19774">
        <ele>1539</ele>
        <time>2026-05-25T10:15:14.000Z</time>
      </trkpt>
      <trkpt lat="44.6376" lon="5.19775">
        <ele>1540</ele>
        <time>2026-05-25T10:15:15.000Z</time>
      </trkpt>
      <trkpt lat="44.6376" lon="5.19775">
        <ele>1540</ele>
        <time>2026-05-25T10:15:16.000Z</time>
      </trkpt>
      <trkpt lat="44.6376" lon="5.19775">
        <ele>1540</ele>
        <time>2026-05-25T10:15:17.000Z</time>
      </trkpt>
      <trkpt lat="44.6376" lon="5.19775">
        <ele>1540</ele>
        <time>2026-05-25T10:15:18.000Z</time>
      </trkpt>
      <trkpt lat="44.6376" lon="5.19775">
        <ele>1540</ele>
        <time>2026-05-25T10:15:19.000Z</time>
      </trkpt>
      <trkpt lat="44.6376" lon="5.19775">
        <ele>1540</ele>
        <time>2026-05-25T10:15:20.000Z</time>
      </trkpt>
      <trkpt lat="44.6376" lon="5.19775">
        <ele>1540</ele>
        <time>2026-05-25T10:15:21.000Z</time>
      </trkpt>
      <trkpt lat="44.6376" lon="5.19775">
        <ele>1540</ele>
        <time>2026-05-25T10:15:22.000Z</time>
      </trkpt>
      <trkpt lat="44.6376" lon="5.19775">
        <ele>1540</ele>
        <time>2026-05-25T10:15:23.000Z</time>
      </trkpt>
      <trkpt lat="44.6376" lon="5.19775">
        <ele>1540</ele>
        <time>2026-05-25T10:15:24.000Z</time>
      </trkpt>
      <trkpt lat="44.6376" lon="5.19775">
        <ele>1540</ele>
        <time>2026-05-25T10:15:25.000Z</time>
      </trkpt>
      <trkpt lat="44.6376" lon="5.19775">
        <ele>1540</ele>
        <time>2026-05-25T10:15:26.000Z</time>
      </trkpt>
      <trkpt lat="44.6376" lon="5.19775">
        <ele>1540</ele>
        <time>2026-05-25T10:15:27.000Z</time>
      </trkpt>
      <trkpt lat="44.6376" lon="5.19775">
        <ele>1540</ele>
        <time>2026-05-25T10:15:28.000Z</time>
      </trkpt>
      <trkpt lat="44.6376" lon="5.19775">
        <ele>1540</ele>
        <time>2026-05-25T10:15:29.000Z</time>
      </trkpt>
      <trkpt lat="44.6376" lon="5.19775">
        <ele>1540</ele>
        <time>2026-05-25T10:15:30.000Z</time>
      </trkpt>
      <trkpt lat="44.6376" lon="5.19775">
        <ele>1540</ele>
        <time>2026-05-25T10:15:31.000Z</time>
      </trkpt>
      <trkpt lat="44.6376" lon="5.19775">
        <ele>1540</ele>
        <time>2026-05-25T10:15:32.000Z</time>
      </trkpt>
      <trkpt lat="44.6376" lon="5.19775">
        <ele>1540</ele>
        <time>2026-05-25T10:15:33.000Z</time>
      </trkpt>
      <trkpt lat="44.6376" lon="5.19775">
        <ele>1540</ele>
        <time>2026-05-25T10:15:34.000Z</time>
      </trkpt>
      <trkpt lat="44.6376" lon="5.19775">
        <ele>1540</ele>
        <time>2026-05-25T10:15:35.000Z</time>
      </trkpt>
      <trkpt lat="44.6376" lon="5.19775">
        <ele>1540</ele>
        <time>2026-05-25T10:15:36.000Z</time>
      </trkpt>
      <trkpt lat="44.6376" lon="5.19775">
        <ele>1540</ele>
        <time>2026-05-25T10:15:37.000Z</time>
      </trkpt>
      <trkpt lat="44.6376" lon="5.19775">
        <ele>1540</ele>
        <time>2026-05-25T10:15:38.000Z</time>
      </trkpt>
      <trkpt lat="44.6376" lon="5.19775">
        <ele>1540</ele>
        <time>2026-05-25T10:15:39.000Z</time>
      </trkpt>
      <trkpt lat="44.6376" lon="5.19775">
        <ele>1540</ele>
        <time>2026-05-25T10:15:40.000Z</time>
      </trkpt>
      <trkpt lat="44.6376" lon="5.19775">
        <ele>1540</ele>
        <time>2026-05-25T10:15:41.000Z</time>
      </trkpt>
      <trkpt lat="44.6376" lon="5.19774">
        <ele>1539</ele>
        <time>2026-05-25T10:15:42.000Z</time>
      </trkpt>
      <trkpt lat="44.6376" lon="5.19774">
        <ele>1539</ele>
        <time>2026-05-25T10:15:43.000Z</time>
      </trkpt>
      <trkpt lat="44.6376" lon="5.19774">
        <ele>1539</ele>
        <time>2026-05-25T10:15:44.000Z</time>
      </trkpt>
      <trkpt lat="44.6376" lon="5.19774">
        <ele>1539</ele>
        <time>2026-05-25T10:15:45.000Z</time>
      </trkpt>
      <trkpt lat="44.6376" lon="5.19774">
        <ele>1539</ele>
        <time>2026-05-25T10:15:46.000Z</time>
      </trkpt>
      <trkpt lat="44.6376" lon="5.19774">
        <ele>1539</ele>
        <time>2026-05-25T10:15:47.000Z</time>
      </trkpt>
      <trkpt lat="44.6376" lon="5.19774">
        <ele>1539</ele>
        <time>2026-05-25T10:15:48.000Z</time>
      </trkpt>
      <trkpt lat="44.6376" lon="5.19774">
        <ele>1539</ele>
        <time>2026-05-25T10:15:49.000Z</time>
      </trkpt>
      <trkpt lat="44.6376" lon="5.19774">
        <ele>1539</ele>
        <time>2026-05-25T10:15:50.000Z</time>
      </trkpt>
      <trkpt lat="44.6376" lon="5.19774">
        <ele>1539</ele>
        <time>2026-05-25T10:15:51.000Z</time>
      </trkpt>
      <trkpt lat="44.6376" lon="5.19774">
        <ele>1539</ele>
        <time>2026-05-25T10:15:52.000Z</time>
      </trkpt>
      <trkpt lat="44.6376" lon="5.19774">
        <ele>1539</ele>
        <time>2026-05-25T10:15:53.000Z</time>
      </trkpt>
      <trkpt lat="44.6376" lon="5.19774">
        <ele>1539</ele>
        <time>2026-05-25T10:15:54.000Z</time>
      </trkpt>
      <trkpt lat="44.6376" lon="5.19774">
        <ele>1539</ele>
        <time>2026-05-25T10:15:55.000Z</time>
      </trkpt>
      <trkpt lat="44.6376" lon="5.19774">
        <ele>1539</ele>
        <time>2026-05-25T10:15:56.000Z</time>
      </trkpt>
      <trkpt lat="44.6376" lon="5.19774">
        <ele>1539</ele>
        <time>2026-05-25T10:15:57.000Z</time>
      </trkpt>
      <trkpt lat="44.6376" lon="5.19774">
        <ele>1539</ele>
        <time>2026-05-25T10:15:58.000Z</time>
      </trkpt>
      <trkpt lat="44.6376" lon="5.19774">
        <ele>1539</ele>
        <time>2026-05-25T10:15:59.000Z</time>
      </trkpt>
      <trkpt lat="44.6376" lon="5.19774">
        <ele>1539</ele>
        <time>2026-05-25T10:16:00.000Z</time>
      </trkpt>
      <trkpt lat="44.6376" lon="5.19774">
        <ele>1539</ele>
        <time>2026-05-25T10:16:01.000Z</time>
      </trkpt>
      <trkpt lat="44.6376" lon="5.19774">
        <ele>1539</ele>
        <time>2026-05-25T10:16:02.000Z</time>
      </trkpt>
      <trkpt lat="44.6376" lon="5.19774">
        <ele>1539</ele>
        <time>2026-05-25T10:16:03.000Z</time>
      </trkpt>
      <trkpt lat="44.6376" lon="5.19774">
        <ele>1539</ele>
        <time>2026-05-25T10:16:04.000Z</time>
      </trkpt>
      <trkpt lat="44.6376" lon="5.19774">
        <ele>1539</ele>
        <time>2026-05-25T10:16:05.000Z</time>
      </trkpt>
      <trkpt lat="44.6376" lon="5.19774">
        <ele>1539</ele>
        <time>2026-05-25T10:16:06.000Z</time>
      </trkpt>
      <trkpt lat="44.6376" lon="5.19774">
        <ele>1539</ele>
        <time>2026-05-25T10:16:07.000Z</time>
      </trkpt>
      <trkpt lat="44.6376" lon="5.19774">
        <ele>1539</ele>
        <time>2026-05-25T10:16:08.000Z</time>
      </trkpt>
      <trkpt lat="44.6376" lon="5.19774">
        <ele>1539</ele>
        <time>2026-05-25T10:16:09.000Z</time>
      </trkpt>
      <trkpt lat="44.6376" lon="5.19774">
        <ele>1539</ele>
        <time>2026-05-25T10:16:10.000Z</time>
      </trkpt>
      <trkpt lat="44.6376" lon="5.19774">
        <ele>1539</ele>
        <time>2026-05-25T10:16:11.000Z</time>
      </trkpt>
      <trkpt lat="44.6376" lon="5.19774">
        <ele>1539</ele>
        <time>2026-05-25T10:16:12.000Z</time>
      </trkpt>
      <trkpt lat="44.6376" lon="5.19774">
        <ele>1539</ele>
        <time>2026-05-25T10:16:13.000Z</time>
      </trkpt>
      <trkpt lat="44.6376" lon="5.19774">
        <ele>1539</ele>
        <time>2026-05-25T10:16:14.000Z</time>
      </trkpt>
      <trkpt lat="44.6376" lon="5.19774">
        <ele>1539</ele>
        <time>2026-05-25T10:16:15.000Z</time>
      </trkpt>
      <trkpt lat="44.6376" lon="5.19774">
        <ele>1539</ele>
        <time>2026-05-25T10:16:16.000Z</time>
      </trkpt>
      <trkpt lat="44.6376" lon="5.19774">
        <ele>1539</ele>
        <time>2026-05-25T10:16:17.000Z</time>
      </trkpt>
      <trkpt lat="44.6376" lon="5.19774">
        <ele>1539</ele>
        <time>2026-05-25T10:16:18.000Z</time>
      </trkpt>
      <trkpt lat="44.6376" lon="5.19774">
        <ele>1539</ele>
        <time>2026-05-25T10:16:19.000Z</time>
      </trkpt>
      <trkpt lat="44.6376" lon="5.19774">
        <ele>1539</ele>
        <time>2026-05-25T10:16:20.000Z</time>
      </trkpt>
      <trkpt lat="44.6376" lon="5.19774">
        <ele>1539</ele>
        <time>2026-05-25T10:16:21.000Z</time>
      </trkpt>
      <trkpt lat="44.6376" lon="5.19774">
        <ele>1539</ele>
        <time>2026-05-25T10:16:22.000Z</time>
      </trkpt>
      <trkpt lat="44.6376" lon="5.19774">
        <ele>1539</ele>
        <time>2026-05-25T10:16:23.000Z</time>
      </trkpt>
      <trkpt lat="44.6376" lon="5.19774">
        <ele>1539</ele>
        <time>2026-05-25T10:16:24.000Z</time>
      </trkpt>
      <trkpt lat="44.6376" lon="5.19774">
        <ele>1539</ele>
        <time>2026-05-25T10:16:25.000Z</time>
      </trkpt>
      <trkpt lat="44.63761" lon="5.19776">
        <ele>1540</ele>
        <time>2026-05-25T10:16:26.000Z</time>
      </trkpt>
      <trkpt lat="44.63761" lon="5.19775">
        <ele>1541</ele>
        <time>2026-05-25T10:16:27.000Z</time>
      </trkpt>
      <trkpt lat="44.63761" lon="5.19777">
        <ele>1540</ele>
        <time>2026-05-25T10:16:28.000Z</time>
      </trkpt>
      <trkpt lat="44.63761" lon="5.19777">
        <ele>1540</ele>
        <time>2026-05-25T10:16:29.000Z</time>
      </trkpt>
      <trkpt lat="44.63761" lon="5.19777">
        <ele>1540</ele>
        <time>2026-05-25T10:16:30.000Z</time>
      </trkpt>
      <trkpt lat="44.63761" lon="5.19777">
        <ele>1540</ele>
        <time>2026-05-25T10:16:31.000Z</time>
      </trkpt>
      <trkpt lat="44.63761" lon="5.19777">
        <ele>1540</ele>
        <time>2026-05-25T10:16:32.000Z</time>
      </trkpt>
      <trkpt lat="44.63761" lon="5.19777">
        <ele>1540</ele>
        <time>2026-05-25T10:16:33.000Z</time>
      </trkpt>
      <trkpt lat="44.63761" lon="5.19777">
        <ele>1540</ele>
        <time>2026-05-25T10:16:34.000Z</time>
      </trkpt>
      <trkpt lat="44.63761" lon="5.19777">
        <ele>1540</ele>
        <time>2026-05-25T10:16:35.000Z</time>
      </trkpt>
      <trkpt lat="44.63761" lon="5.19777">
        <ele>1540</ele>
        <time>2026-05-25T10:16:36.000Z</time>
      </trkpt>
      <trkpt lat="44.63761" lon="5.19777">
        <ele>1540</ele>
        <time>2026-05-25T10:16:37.000Z</time>
      </trkpt>
      <trkpt lat="44.63761" lon="5.19777">
        <ele>1540</ele>
        <time>2026-05-25T10:16:38.000Z</time>
      </trkpt>
      <trkpt lat="44.63761" lon="5.19777">
        <ele>1540</ele>
        <time>2026-05-25T10:16:39.000Z</time>
      </trkpt>
      <trkpt lat="44.63761" lon="5.19777">
        <ele>1540</ele>
        <time>2026-05-25T10:16:40.000Z</time>
      </trkpt>
      <trkpt lat="44.63761" lon="5.19777">
        <ele>1540</ele>
        <time>2026-05-25T10:16:41.000Z</time>
      </trkpt>
      <trkpt lat="44.63761" lon="5.19777">
        <ele>1540</ele>
        <time>2026-05-25T10:16:42.000Z</time>
      </trkpt>
      <trkpt lat="44.63761" lon="5.19777">
        <ele>1540</ele>
        <time>2026-05-25T10:16:43.000Z</time>
      </trkpt>
      <trkpt lat="44.63761" lon="5.19777">
        <ele>1540</ele>
        <time>2026-05-25T10:16:44.000Z</time>
      </trkpt>
      <trkpt lat="44.63761" lon="5.19777">
        <ele>1540</ele>
        <time>2026-05-25T10:16:45.000Z</time>
      </trkpt>
      <trkpt lat="44.63761" lon="5.19777">
        <ele>1540</ele>
        <time>2026-05-25T10:16:46.000Z</time>
      </trkpt>
      <trkpt lat="44.63761" lon="5.19777">
        <ele>1540</ele>
        <time>2026-05-25T10:16:47.000Z</time>
      </trkpt>
      <trkpt lat="44.63761" lon="5.19777">
        <ele>1540</ele>
        <time>2026-05-25T10:16:48.000Z</time>
      </trkpt>
      <trkpt lat="44.63761" lon="5.19777">
        <ele>1540</ele>
        <time>2026-05-25T10:16:49.000Z</time>
      </trkpt>
      <trkpt lat="44.63761" lon="5.19777">
        <ele>1540</ele>
        <time>2026-05-25T10:16:50.000Z</time>
      </trkpt>
      <trkpt lat="44.63761" lon="5.19777">
        <ele>1540</ele>
        <time>2026-05-25T10:16:51.000Z</time>
      </trkpt>
      <trkpt lat="44.63761" lon="5.19777">
        <ele>1540</ele>
        <time>2026-05-25T10:16:52.000Z</time>
      </trkpt>
      <trkpt lat="44.63761" lon="5.19777">
        <ele>1540</ele>
        <time>2026-05-25T10:16:53.000Z</time>
      </trkpt>
      <trkpt lat="44.63761" lon="5.19777">
        <ele>1540</ele>
        <time>2026-05-25T10:16:54.000Z</time>
      </trkpt>
      <trkpt lat="44.63761" lon="5.19777">
        <ele>1540</ele>
        <time>2026-05-25T10:16:55.000Z</time>
      </trkpt>
      <trkpt lat="44.63761" lon="5.19777">
        <ele>1540</ele>
        <time>2026-05-25T10:16:56.000Z</time>
      </trkpt>
      <trkpt lat="44.63761" lon="5.19777">
        <ele>1540</ele>
        <time>2026-05-25T10:16:57.000Z</time>
      </trkpt>
      <trkpt lat="44.63761" lon="5.19777">
        <ele>1540</ele>
        <time>2026-05-25T10:16:58.000Z</time>
      </trkpt>
      <trkpt lat="44.63761" lon="5.19777">
        <ele>1540</ele>
        <time>2026-05-25T10:16:59.000Z</time>
      </trkpt>
      <trkpt lat="44.63761" lon="5.19777">
        <ele>1540</ele>
        <time>2026-05-25T10:17:00.000Z</time>
      </trkpt>
      <trkpt lat="44.63761" lon="5.19777">
        <ele>1540</ele>
        <time>2026-05-25T10:17:01.000Z</time>
      </trkpt>
      <trkpt lat="44.63761" lon="5.19777">
        <ele>1540</ele>
        <time>2026-05-25T10:17:02.000Z</time>
      </trkpt>
      <trkpt lat="44.63761" lon="5.19777">
        <ele>1540</ele>
        <time>2026-05-25T10:17:03.000Z</time>
      </trkpt>
      <trkpt lat="44.63761" lon="5.19777">
        <ele>1540</ele>
        <time>2026-05-25T10:17:04.000Z</time>
      </trkpt>
      <trkpt lat="44.63761" lon="5.19777">
        <ele>1540</ele>
        <time>2026-05-25T10:17:05.000Z</time>
      </trkpt>
      <trkpt lat="44.63761" lon="5.19777">
        <ele>1540</ele>
        <time>2026-05-25T10:17:06.000Z</time>
      </trkpt>
      <trkpt lat="44.63761" lon="5.19777">
        <ele>1540</ele>
        <time>2026-05-25T10:17:07.000Z</time>
      </trkpt>
      <trkpt lat="44.63761" lon="5.19777">
        <ele>1540</ele>
        <time>2026-05-25T10:17:08.000Z</time>
      </trkpt>
      <trkpt lat="44.63761" lon="5.19777">
        <ele>1540</ele>
        <time>2026-05-25T10:17:09.000Z</time>
      </trkpt>
      <trkpt lat="44.63761" lon="5.19777">
        <ele>1540</ele>
        <time>2026-05-25T10:17:10.000Z</time>
      </trkpt>
      <trkpt lat="44.63761" lon="5.19777">
        <ele>1540</ele>
        <time>2026-05-25T10:17:11.000Z</time>
      </trkpt>
      <trkpt lat="44.63761" lon="5.19777">
        <ele>1540</ele>
        <time>2026-05-25T10:17:12.000Z</time>
      </trkpt>
      <trkpt lat="44.63761" lon="5.19777">
        <ele>1540</ele>
        <time>2026-05-25T10:17:13.000Z</time>
      </trkpt>
      <trkpt lat="44.63761" lon="5.19777">
        <ele>1540</ele>
        <time>2026-05-25T10:17:14.000Z</time>
      </trkpt>
      <trkpt lat="44.63761" lon="5.19777">
        <ele>1540</ele>
        <time>2026-05-25T10:17:15.000Z</time>
      </trkpt>
      <trkpt lat="44.63761" lon="5.19777">
        <ele>1540</ele>
        <time>2026-05-25T10:17:16.000Z</time>
      </trkpt>
      <trkpt lat="44.63761" lon="5.19777">
        <ele>1540</ele>
        <time>2026-05-25T10:17:17.000Z</time>
      </trkpt>
      <trkpt lat="44.63761" lon="5.19777">
        <ele>1540</ele>
        <time>2026-05-25T10:17:18.000Z</time>
      </trkpt>
      <trkpt lat="44.63761" lon="5.19777">
        <ele>1540</ele>
        <time>2026-05-25T10:17:19.000Z</time>
      </trkpt>
      <trkpt lat="44.63761" lon="5.19777">
        <ele>1540</ele>
        <time>2026-05-25T10:17:20.000Z</time>
      </trkpt>
      <trkpt lat="44.63761" lon="5.19777">
        <ele>1540</ele>
        <time>2026-05-25T10:17:21.000Z</time>
      </trkpt>
      <trkpt lat="44.63761" lon="5.19777">
        <ele>1540</ele>
        <time>2026-05-25T10:17:22.000Z</time>
      </trkpt>
      <trkpt lat="44.63761" lon="5.19777">
        <ele>1540</ele>
        <time>2026-05-25T10:17:23.000Z</time>
      </trkpt>
      <trkpt lat="44.63761" lon="5.19777">
        <ele>1540</ele>
        <time>2026-05-25T10:17:24.000Z</time>
      </trkpt>
      <trkpt lat="44.63761" lon="5.19777">
        <ele>1540</ele>
        <time>2026-05-25T10:17:25.000Z</time>
      </trkpt>
      <trkpt lat="44.63761" lon="5.19777">
        <ele>1540</ele>
        <time>2026-05-25T10:17:26.000Z</time>
      </trkpt>
      <trkpt lat="44.63761" lon="5.19777">
        <ele>1540</ele>
        <time>2026-05-25T10:17:27.000Z</time>
      </trkpt>
      <trkpt lat="44.63761" lon="5.19777">
        <ele>1540</ele>
        <time>2026-05-25T10:17:28.000Z</time>
      </trkpt>
      <trkpt lat="44.63761" lon="5.19777">
        <ele>1540</ele>
        <time>2026-05-25T10:17:29.000Z</time>
      </trkpt>
      <trkpt lat="44.63761" lon="5.19777">
        <ele>1540</ele>
        <time>2026-05-25T10:17:30.000Z</time>
      </trkpt>
      <trkpt lat="44.63761" lon="5.19777">
        <ele>1540</ele>
        <time>2026-05-25T10:17:31.000Z</time>
      </trkpt>
      <trkpt lat="44.63761" lon="5.19777">
        <ele>1540</ele>
        <time>2026-05-25T10:17:32.000Z</time>
      </trkpt>
      <trkpt lat="44.63761" lon="5.19777">
        <ele>1540</ele>
        <time>2026-05-25T10:17:33.000Z</time>
      </trkpt>
      <trkpt lat="44.63761" lon="5.19777">
        <ele>1540</ele>
        <time>2026-05-25T10:17:34.000Z</time>
      </trkpt>
      <trkpt lat="44.63761" lon="5.19777">
        <ele>1540</ele>
        <time>2026-05-25T10:17:35.000Z</time>
      </trkpt>
      <trkpt lat="44.63761" lon="5.19777">
        <ele>1540</ele>
        <time>2026-05-25T10:17:36.000Z</time>
      </trkpt>
      <trkpt lat="44.63761" lon="5.19777">
        <ele>1540</ele>
        <time>2026-05-25T10:17:37.000Z</time>
      </trkpt>
      <trkpt lat="44.63761" lon="5.19777">
        <ele>1540</ele>
        <time>2026-05-25T10:17:38.000Z</time>
      </trkpt>
      <trkpt lat="44.63761" lon="5.19777">
        <ele>1540</ele>
        <time>2026-05-25T10:17:39.000Z</time>
      </trkpt>
      <trkpt lat="44.63761" lon="5.19777">
        <ele>1540</ele>
        <time>2026-05-25T10:17:40.000Z</time>
      </trkpt>
      <trkpt lat="44.63761" lon="5.19777">
        <ele>1540</ele>
        <time>2026-05-25T10:17:41.000Z</time>
      </trkpt>
      <trkpt lat="44.63761" lon="5.19777">
        <ele>1540</ele>
        <time>2026-05-25T10:17:42.000Z</time>
      </trkpt>
      <trkpt lat="44.63761" lon="5.19777">
        <ele>1540</ele>
        <time>2026-05-25T10:17:43.000Z</time>
      </trkpt>
      <trkpt lat="44.63761" lon="5.19777">
        <ele>1540</ele>
        <time>2026-05-25T10:17:44.000Z</time>
      </trkpt>
      <trkpt lat="44.63761" lon="5.19777">
        <ele>1540</ele>
        <time>2026-05-25T10:17:45.000Z</time>
      </trkpt>
      <trkpt lat="44.63761" lon="5.19777">
        <ele>1540</ele>
        <time>2026-05-25T10:17:46.000Z</time>
      </trkpt>
      <trkpt lat="44.63761" lon="5.19777">
        <ele>1540</ele>
        <time>2026-05-25T10:17:47.000Z</time>
      </trkpt>
      <trkpt lat="44.63761" lon="5.19777">
        <ele>1540</ele>
        <time>2026-05-25T10:17:48.000Z</time>
      </trkpt>
      <trkpt lat="44.63761" lon="5.19777">
        <ele>1540</ele>
        <time>2026-05-25T10:17:49.000Z</time>
      </trkpt>
      <trkpt lat="44.63761" lon="5.19777">
        <ele>1540</ele>
        <time>2026-05-25T10:17:50.000Z</time>
      </trkpt>
      <trkpt lat="44.63761" lon="5.19777">
        <ele>1540</ele>
        <time>2026-05-25T10:17:51.000Z</time>
      </trkpt>
      <trkpt lat="44.63761" lon="5.19777">
        <ele>1540</ele>
        <time>2026-05-25T10:17:52.000Z</time>
      </trkpt>
      <trkpt lat="44.63761" lon="5.19777">
        <ele>1540</ele>
        <time>2026-05-25T10:17:53.000Z</time>
      </trkpt>
      <trkpt lat="44.63761" lon="5.19777">
        <ele>1540</ele>
        <time>2026-05-25T10:17:54.000Z</time>
      </trkpt>
      <trkpt lat="44.63761" lon="5.19777">
        <ele>1540</ele>
        <time>2026-05-25T10:17:55.000Z</time>
      </trkpt>
      <trkpt lat="44.63761" lon="5.19777">
        <ele>1540</ele>
        <time>2026-05-25T10:17:56.000Z</time>
      </trkpt>
      <trkpt lat="44.63761" lon="5.19777">
        <ele>1540</ele>
        <time>2026-05-25T10:17:57.000Z</time>
      </trkpt>
      <trkpt lat="44.63761" lon="5.19777">
        <ele>1540</ele>
        <time>2026-05-25T10:17:58.000Z</time>
      </trkpt>
      <trkpt lat="44.63761" lon="5.19777">
        <ele>1540</ele>
        <time>2026-05-25T10:17:59.000Z</time>
      </trkpt>
      <trkpt lat="44.63761" lon="5.19777">
        <ele>1540</ele>
        <time>2026-05-25T10:18:00.000Z</time>
      </trkpt>
      <trkpt lat="44.63761" lon="5.19777">
        <ele>1540</ele>
        <time>2026-05-25T10:18:01.000Z</time>
      </trkpt>
      <trkpt lat="44.63761" lon="5.19777">
        <ele>1540</ele>
        <time>2026-05-25T10:18:02.000Z</time>
      </trkpt>
      <trkpt lat="44.63761" lon="5.19777">
        <ele>1540</ele>
        <time>2026-05-25T10:18:03.000Z</time>
      </trkpt>
      <trkpt lat="44.63761" lon="5.19777">
        <ele>1540</ele>
        <time>2026-05-25T10:18:04.000Z</time>
      </trkpt>
      <trkpt lat="44.63761" lon="5.19777">
        <ele>1540</ele>
        <time>2026-05-25T10:18:05.000Z</time>
      </trkpt>
      <trkpt lat="44.63761" lon="5.19777">
        <ele>1540</ele>
        <time>2026-05-25T10:18:06.000Z</time>
      </trkpt>
      <trkpt lat="44.63761" lon="5.19777">
        <ele>1540</ele>
        <time>2026-05-25T10:18:07.000Z</time>
      </trkpt>
      <trkpt lat="44.63761" lon="5.19777">
        <ele>1540</ele>
        <time>2026-05-25T10:18:08.000Z</time>
      </trkpt>
      <trkpt lat="44.63761" lon="5.19777">
        <ele>1540</ele>
        <time>2026-05-25T10:18:09.000Z</time>
      </trkpt>
      <trkpt lat="44.63761" lon="5.19777">
        <ele>1540</ele>
        <time>2026-05-25T10:18:10.000Z</time>
      </trkpt>
      <trkpt lat="44.63761" lon="5.19777">
        <ele>1540</ele>
        <time>2026-05-25T10:18:11.000Z</time>
      </trkpt>
      <trkpt lat="44.63761" lon="5.19777">
        <ele>1540</ele>
        <time>2026-05-25T10:18:12.000Z</time>
      </trkpt>
      <trkpt lat="44.63761" lon="5.19777">
        <ele>1540</ele>
        <time>2026-05-25T10:18:13.000Z</time>
      </trkpt>
      <trkpt lat="44.63761" lon="5.19777">
        <ele>1540</ele>
        <time>2026-05-25T10:18:14.000Z</time>
      </trkpt>
      <trkpt lat="44.63761" lon="5.19777">
        <ele>1540</ele>
        <time>2026-05-25T10:18:15.000Z</time>
      </trkpt>
      <trkpt lat="44.63761" lon="5.19777">
        <ele>1540</ele>
        <time>2026-05-25T10:18:16.000Z</time>
      </trkpt>
      <trkpt lat="44.63761" lon="5.19777">
        <ele>1540</ele>
        <time>2026-05-25T10:18:17.000Z</time>
      </trkpt>
      <trkpt lat="44.63761" lon="5.19777">
        <ele>1540</ele>
        <time>2026-05-25T10:18:18.000Z</time>
      </trkpt>
      <trkpt lat="44.63761" lon="5.19777">
        <ele>1540</ele>
        <time>2026-05-25T10:18:19.000Z</time>
      </trkpt>
      <trkpt lat="44.63761" lon="5.19777">
        <ele>1540</ele>
        <time>2026-05-25T10:18:20.000Z</time>
      </trkpt>
      <trkpt lat="44.63761" lon="5.19777">
        <ele>1540</ele>
        <time>2026-05-25T10:18:21.000Z</time>
      </trkpt>
      <trkpt lat="44.63761" lon="5.19777">
        <ele>1540</ele>
        <time>2026-05-25T10:18:22.000Z</time>
      </trkpt>
      <trkpt lat="44.63761" lon="5.19777">
        <ele>1540</ele>
        <time>2026-05-25T10:18:23.000Z</time>
      </trkpt>
      <trkpt lat="44.63761" lon="5.19777">
        <ele>1540</ele>
        <time>2026-05-25T10:18:24.000Z</time>
      </trkpt>
      <trkpt lat="44.63761" lon="5.19777">
        <ele>1540</ele>
        <time>2026-05-25T10:18:25.000Z</time>
      </trkpt>
      <trkpt lat="44.63761" lon="5.19777">
        <ele>1540</ele>
        <time>2026-05-25T10:18:26.000Z</time>
      </trkpt>
      <trkpt lat="44.63761" lon="5.19777">
        <ele>1540</ele>
        <time>2026-05-25T10:18:27.000Z</time>
      </trkpt>
      <trkpt lat="44.63761" lon="5.19777">
        <ele>1540</ele>
        <time>2026-05-25T10:18:28.000Z</time>
      </trkpt>
      <trkpt lat="44.63761" lon="5.19777">
        <ele>1540</ele>
        <time>2026-05-25T10:18:29.000Z</time>
      </trkpt>
      <trkpt lat="44.63761" lon="5.19777">
        <ele>1540</ele>
        <time>2026-05-25T10:18:30.000Z</time>
      </trkpt>
      <trkpt lat="44.63761" lon="5.19777">
        <ele>1540</ele>
        <time>2026-05-25T10:18:31.000Z</time>
      </trkpt>
      <trkpt lat="44.63761" lon="5.19777">
        <ele>1540</ele>
        <time>2026-05-25T10:18:32.000Z</time>
      </trkpt>
      <trkpt lat="44.63761" lon="5.19777">
        <ele>1540</ele>
        <time>2026-05-25T10:18:33.000Z</time>
      </trkpt>
      <trkpt lat="44.63761" lon="5.19777">
        <ele>1540</ele>
        <time>2026-05-25T10:18:34.000Z</time>
      </trkpt>
      <trkpt lat="44.63761" lon="5.19777">
        <ele>1540</ele>
        <time>2026-05-25T10:18:35.000Z</time>
      </trkpt>
      <trkpt lat="44.63761" lon="5.19777">
        <ele>1540</ele>
        <time>2026-05-25T10:18:36.000Z</time>
      </trkpt>
      <trkpt lat="44.63761" lon="5.19777">
        <ele>1540</ele>
        <time>2026-05-25T10:18:37.000Z</time>
      </trkpt>
      <trkpt lat="44.63761" lon="5.19777">
        <ele>1540</ele>
        <time>2026-05-25T10:18:38.000Z</time>
      </trkpt>
      <trkpt lat="44.63761" lon="5.19777">
        <ele>1540</ele>
        <time>2026-05-25T10:18:39.000Z</time>
      </trkpt>
      <trkpt lat="44.63761" lon="5.19777">
        <ele>1540</ele>
        <time>2026-05-25T10:18:40.000Z</time>
      </trkpt>
      <trkpt lat="44.63761" lon="5.19777">
        <ele>1540</ele>
        <time>2026-05-25T10:18:41.000Z</time>
      </trkpt>
      <trkpt lat="44.63761" lon="5.19777">
        <ele>1540</ele>
        <time>2026-05-25T10:18:42.000Z</time>
      </trkpt>
      <trkpt lat="44.63761" lon="5.19777">
        <ele>1540</ele>
        <time>2026-05-25T10:18:43.000Z</time>
      </trkpt>
      <trkpt lat="44.63761" lon="5.19777">
        <ele>1540</ele>
        <time>2026-05-25T10:18:44.000Z</time>
      </trkpt>
      <trkpt lat="44.63761" lon="5.19777">
        <ele>1540</ele>
        <time>2026-05-25T10:18:45.000Z</time>
      </trkpt>
      <trkpt lat="44.63761" lon="5.19777">
        <ele>1540</ele>
        <time>2026-05-25T10:18:46.000Z</time>
      </trkpt>
      <trkpt lat="44.63761" lon="5.19777">
        <ele>1540</ele>
        <time>2026-05-25T10:18:47.000Z</time>
      </trkpt>
      <trkpt lat="44.63761" lon="5.19777">
        <ele>1540</ele>
        <time>2026-05-25T10:18:48.000Z</time>
      </trkpt>
      <trkpt lat="44.63761" lon="5.19777">
        <ele>1540</ele>
        <time>2026-05-25T10:18:49.000Z</time>
      </trkpt>
      <trkpt lat="44.63761" lon="5.19777">
        <ele>1540</ele>
        <time>2026-05-25T10:18:50.000Z</time>
      </trkpt>
      <trkpt lat="44.63761" lon="5.19777">
        <ele>1540</ele>
        <time>2026-05-25T10:18:51.000Z</time>
      </trkpt>
      <trkpt lat="44.63761" lon="5.19777">
        <ele>1540</ele>
        <time>2026-05-25T10:18:52.000Z</time>
      </trkpt>
      <trkpt lat="44.63761" lon="5.19777">
        <ele>1540</ele>
        <time>2026-05-25T10:18:53.000Z</time>
      </trkpt>
      <trkpt lat="44.63761" lon="5.19777">
        <ele>1540</ele>
        <time>2026-05-25T10:18:54.000Z</time>
      </trkpt>
      <trkpt lat="44.63761" lon="5.19777">
        <ele>1540</ele>
        <time>2026-05-25T10:18:55.000Z</time>
      </trkpt>
      <trkpt lat="44.63761" lon="5.19777">
        <ele>1540</ele>
        <time>2026-05-25T10:18:56.000Z</time>
      </trkpt>
      <trkpt lat="44.63761" lon="5.19777">
        <ele>1540</ele>
        <time>2026-05-25T10:18:57.000Z</time>
      </trkpt>
      <trkpt lat="44.63761" lon="5.19777">
        <ele>1540</ele>
        <time>2026-05-25T10:18:58.000Z</time>
      </trkpt>
      <trkpt lat="44.63761" lon="5.19777">
        <ele>1540</ele>
        <time>2026-05-25T10:18:59.000Z</time>
      </trkpt>
      <trkpt lat="44.63761" lon="5.19777">
        <ele>1540</ele>
        <time>2026-05-25T10:19:00.000Z</time>
      </trkpt>
      <trkpt lat="44.63761" lon="5.19777">
        <ele>1540</ele>
        <time>2026-05-25T10:19:01.000Z</time>
      </trkpt>
      <trkpt lat="44.63761" lon="5.19777">
        <ele>1540</ele>
        <time>2026-05-25T10:19:02.000Z</time>
      </trkpt>
      <trkpt lat="44.63761" lon="5.19777">
        <ele>1540</ele>
        <time>2026-05-25T10:19:03.000Z</time>
      </trkpt>
      <trkpt lat="44.63761" lon="5.19777">
        <ele>1540</ele>
        <time>2026-05-25T10:19:04.000Z</time>
      </trkpt>
      <trkpt lat="44.63761" lon="5.19777">
        <ele>1540</ele>
        <time>2026-05-25T10:19:05.000Z</time>
      </trkpt>
      <trkpt lat="44.63761" lon="5.19777">
        <ele>1540</ele>
        <time>2026-05-25T10:19:06.000Z</time>
      </trkpt>
      <trkpt lat="44.63761" lon="5.19777">
        <ele>1540</ele>
        <time>2026-05-25T10:19:07.000Z</time>
      </trkpt>
      <trkpt lat="44.63761" lon="5.19777">
        <ele>1540</ele>
        <time>2026-05-25T10:19:08.000Z</time>
      </trkpt>
      <trkpt lat="44.63761" lon="5.19777">
        <ele>1540</ele>
        <time>2026-05-25T10:19:09.000Z</time>
      </trkpt>
      <trkpt lat="44.63761" lon="5.19777">
        <ele>1540</ele>
        <time>2026-05-25T10:19:10.000Z</time>
      </trkpt>
      <trkpt lat="44.63761" lon="5.19777">
        <ele>1540</ele>
        <time>2026-05-25T10:19:11.000Z</time>
      </trkpt>
      <trkpt lat="44.63761" lon="5.19777">
        <ele>1540</ele>
        <time>2026-05-25T10:19:12.000Z</time>
      </trkpt>
      <trkpt lat="44.63761" lon="5.19777">
        <ele>1540</ele>
        <time>2026-05-25T10:19:13.000Z</time>
      </trkpt>
      <trkpt lat="44.63761" lon="5.19777">
        <ele>1540</ele>
        <time>2026-05-25T10:19:14.000Z</time>
      </trkpt>
      <trkpt lat="44.63761" lon="5.19777">
        <ele>1540</ele>
        <time>2026-05-25T10:19:15.000Z</time>
      </trkpt>
      <trkpt lat="44.63761" lon="5.19777">
        <ele>1540</ele>
        <time>2026-05-25T10:19:16.000Z</time>
      </trkpt>
      <trkpt lat="44.63761" lon="5.19777">
        <ele>1540</ele>
        <time>2026-05-25T10:19:17.000Z</time>
      </trkpt>
      <trkpt lat="44.63761" lon="5.19775">
        <ele>1540</ele>
        <time>2026-05-25T10:19:18.000Z</time>
      </trkpt>
      <trkpt lat="44.63761" lon="5.19775">
        <ele>1540</ele>
        <time>2026-05-25T10:19:19.000Z</time>
      </trkpt>
      <trkpt lat="44.63761" lon="5.19775">
        <ele>1540</ele>
        <time>2026-05-25T10:19:20.000Z</time>
      </trkpt>
      <trkpt lat="44.63761" lon="5.19775">
        <ele>1540</ele>
        <time>2026-05-25T10:19:21.000Z</time>
      </trkpt>
      <trkpt lat="44.63761" lon="5.19775">
        <ele>1540</ele>
        <time>2026-05-25T10:19:22.000Z</time>
      </trkpt>
      <trkpt lat="44.63761" lon="5.19775">
        <ele>1540</ele>
        <time>2026-05-25T10:19:23.000Z</time>
      </trkpt>
      <trkpt lat="44.63761" lon="5.19775">
        <ele>1540</ele>
        <time>2026-05-25T10:19:24.000Z</time>
      </trkpt>
      <trkpt lat="44.63761" lon="5.19775">
        <ele>1540</ele>
        <time>2026-05-25T10:19:25.000Z</time>
      </trkpt>
      <trkpt lat="44.63761" lon="5.19775">
        <ele>1540</ele>
        <time>2026-05-25T10:19:26.000Z</time>
      </trkpt>
      <trkpt lat="44.63761" lon="5.19775">
        <ele>1540</ele>
        <time>2026-05-25T10:19:27.000Z</time>
      </trkpt>
      <trkpt lat="44.63761" lon="5.19775">
        <ele>1540</ele>
        <time>2026-05-25T10:19:28.000Z</time>
      </trkpt>
      <trkpt lat="44.63761" lon="5.19775">
        <ele>1540</ele>
        <time>2026-05-25T10:19:29.000Z</time>
      </trkpt>
      <trkpt lat="44.63761" lon="5.19775">
        <ele>1540</ele>
        <time>2026-05-25T10:19:30.000Z</time>
      </trkpt>
      <trkpt lat="44.63761" lon="5.19775">
        <ele>1540</ele>
        <time>2026-05-25T10:19:31.000Z</time>
      </trkpt>
      <trkpt lat="44.63761" lon="5.19775">
        <ele>1540</ele>
        <time>2026-05-25T10:19:32.000Z</time>
      </trkpt>
      <trkpt lat="44.63761" lon="5.19775">
        <ele>1540</ele>
        <time>2026-05-25T10:19:33.000Z</time>
      </trkpt>
      <trkpt lat="44.63761" lon="5.19775">
        <ele>1540</ele>
        <time>2026-05-25T10:19:34.000Z</time>
      </trkpt>
      <trkpt lat="44.63761" lon="5.19775">
        <ele>1540</ele>
        <time>2026-05-25T10:19:35.000Z</time>
      </trkpt>
      <trkpt lat="44.6376" lon="5.19775">
        <ele>1541</ele>
        <time>2026-05-25T10:19:36.000Z</time>
      </trkpt>
      <trkpt lat="44.63759" lon="5.19775">
        <ele>1541</ele>
        <time>2026-05-25T10:19:37.000Z</time>
      </trkpt>
      <trkpt lat="44.63759" lon="5.19774">
        <ele>1540</ele>
        <time>2026-05-25T10:19:38.000Z</time>
      </trkpt>
      <trkpt lat="44.63758" lon="5.19773">
        <ele>1540</ele>
        <time>2026-05-25T10:19:39.000Z</time>
      </trkpt>
      <trkpt lat="44.63758" lon="5.19773">
        <ele>1540</ele>
        <time>2026-05-25T10:19:40.000Z</time>
      </trkpt>
      <trkpt lat="44.63758" lon="5.19773">
        <ele>1540</ele>
        <time>2026-05-25T10:19:41.000Z</time>
      </trkpt>
      <trkpt lat="44.63758" lon="5.19773">
        <ele>1540</ele>
        <time>2026-05-25T10:19:42.000Z</time>
      </trkpt>
      <trkpt lat="44.63758" lon="5.19773">
        <ele>1540</ele>
        <time>2026-05-25T10:19:43.000Z</time>
      </trkpt>
      <trkpt lat="44.63757" lon="5.19771">
        <ele>1540</ele>
        <time>2026-05-25T10:19:44.000Z</time>
      </trkpt>
      <trkpt lat="44.63756" lon="5.1977">
        <ele>1541</ele>
        <time>2026-05-25T10:19:45.000Z</time>
      </trkpt>
      <trkpt lat="44.63756" lon="5.19768">
        <ele>1542</ele>
        <time>2026-05-25T10:19:46.000Z</time>
      </trkpt>
      <trkpt lat="44.63755" lon="5.19767">
        <ele>1541</ele>
        <time>2026-05-25T10:19:47.000Z</time>
      </trkpt>
      <trkpt lat="44.63755" lon="5.19765">
        <ele>1540</ele>
        <time>2026-05-25T10:19:48.000Z</time>
      </trkpt>
      <trkpt lat="44.63755" lon="5.19764">
        <ele>1541</ele>
        <time>2026-05-25T10:19:49.000Z</time>
      </trkpt>
      <trkpt lat="44.63754" lon="5.19764">
        <ele>1541</ele>
        <time>2026-05-25T10:19:50.000Z</time>
      </trkpt>
      <trkpt lat="44.63753" lon="5.19763">
        <ele>1541</ele>
        <time>2026-05-25T10:19:51.000Z</time>
      </trkpt>
      <trkpt lat="44.63753" lon="5.19762">
        <ele>1541</ele>
        <time>2026-05-25T10:19:52.000Z</time>
      </trkpt>
      <trkpt lat="44.63752" lon="5.1976">
        <ele>1541</ele>
        <time>2026-05-25T10:19:53.000Z</time>
      </trkpt>
      <trkpt lat="44.63752" lon="5.1976">
        <ele>1541</ele>
        <time>2026-05-25T10:19:54.000Z</time>
      </trkpt>
      <trkpt lat="44.63751" lon="5.19758">
        <ele>1540</ele>
        <time>2026-05-25T10:19:55.000Z</time>
      </trkpt>
      <trkpt lat="44.63749" lon="5.19756">
        <ele>1540</ele>
        <time>2026-05-25T10:19:56.000Z</time>
      </trkpt>
      <trkpt lat="44.63748" lon="5.19756">
        <ele>1540</ele>
        <time>2026-05-25T10:19:57.000Z</time>
      </trkpt>
      <trkpt lat="44.63748" lon="5.19755">
        <ele>1539</ele>
        <time>2026-05-25T10:19:58.000Z</time>
      </trkpt>
      <trkpt lat="44.63747" lon="5.19754">
        <ele>1539</ele>
        <time>2026-05-25T10:19:59.000Z</time>
      </trkpt>
      <trkpt lat="44.63746" lon="5.19753">
        <ele>1539</ele>
        <time>2026-05-25T10:20:00.000Z</time>
      </trkpt>
      <trkpt lat="44.63745" lon="5.19753">
        <ele>1539</ele>
        <time>2026-05-25T10:20:01.000Z</time>
      </trkpt>
      <trkpt lat="44.63744" lon="5.19752">
        <ele>1539</ele>
        <time>2026-05-25T10:20:02.000Z</time>
      </trkpt>
      <trkpt lat="44.63744" lon="5.19752">
        <ele>1540</ele>
        <time>2026-05-25T10:20:03.000Z</time>
      </trkpt>
      <trkpt lat="44.63743" lon="5.19751">
        <ele>1539</ele>
        <time>2026-05-25T10:20:04.000Z</time>
      </trkpt>
      <trkpt lat="44.63742" lon="5.19751">
        <ele>1538</ele>
        <time>2026-05-25T10:20:05.000Z</time>
      </trkpt>
      <trkpt lat="44.63741" lon="5.19751">
        <ele>1538</ele>
        <time>2026-05-25T10:20:06.000Z</time>
      </trkpt>
      <trkpt lat="44.63739" lon="5.19751">
        <ele>1537</ele>
        <time>2026-05-25T10:20:07.000Z</time>
      </trkpt>
      <trkpt lat="44.63739" lon="5.1975">
        <ele>1537</ele>
        <time>2026-05-25T10:20:08.000Z</time>
      </trkpt>
      <trkpt lat="44.63737" lon="5.19749">
        <ele>1537</ele>
        <time>2026-05-25T10:20:09.000Z</time>
      </trkpt>
      <trkpt lat="44.63736" lon="5.19749">
        <ele>1537</ele>
        <time>2026-05-25T10:20:10.000Z</time>
      </trkpt>
      <trkpt lat="44.63734" lon="5.19748">
        <ele>1537</ele>
        <time>2026-05-25T10:20:11.000Z</time>
      </trkpt>
      <trkpt lat="44.63733" lon="5.19747">
        <ele>1538</ele>
        <time>2026-05-25T10:20:12.000Z</time>
      </trkpt>
      <trkpt lat="44.63732" lon="5.19747">
        <ele>1537</ele>
        <time>2026-05-25T10:20:13.000Z</time>
      </trkpt>
      <trkpt lat="44.63731" lon="5.19746">
        <ele>1537</ele>
        <time>2026-05-25T10:20:14.000Z</time>
      </trkpt>
      <trkpt lat="44.63729" lon="5.19746">
        <ele>1538</ele>
        <time>2026-05-25T10:20:15.000Z</time>
      </trkpt>
      <trkpt lat="44.63728" lon="5.19747">
        <ele>1538</ele>
        <time>2026-05-25T10:20:16.000Z</time>
      </trkpt>
      <trkpt lat="44.63727" lon="5.19747">
        <ele>1538</ele>
        <time>2026-05-25T10:20:17.000Z</time>
      </trkpt>
      <trkpt lat="44.63726" lon="5.19747">
        <ele>1538</ele>
        <time>2026-05-25T10:20:18.000Z</time>
      </trkpt>
      <trkpt lat="44.63725" lon="5.19747">
        <ele>1538</ele>
        <time>2026-05-25T10:20:19.000Z</time>
      </trkpt>
      <trkpt lat="44.63723" lon="5.19747">
        <ele>1539</ele>
        <time>2026-05-25T10:20:20.000Z</time>
      </trkpt>
      <trkpt lat="44.63722" lon="5.19747">
        <ele>1539</ele>
        <time>2026-05-25T10:20:21.000Z</time>
      </trkpt>
      <trkpt lat="44.63721" lon="5.19748">
        <ele>1539</ele>
        <time>2026-05-25T10:20:22.000Z</time>
      </trkpt>
      <trkpt lat="44.63719" lon="5.19748">
        <ele>1539</ele>
        <time>2026-05-25T10:20:23.000Z</time>
      </trkpt>
      <trkpt lat="44.63718" lon="5.19748">
        <ele>1539</ele>
        <time>2026-05-25T10:20:24.000Z</time>
      </trkpt>
      <trkpt lat="44.63717" lon="5.19749">
        <ele>1540</ele>
        <time>2026-05-25T10:20:25.000Z</time>
      </trkpt>
      <trkpt lat="44.63716" lon="5.19748">
        <ele>1540</ele>
        <time>2026-05-25T10:20:26.000Z</time>
      </trkpt>
      <trkpt lat="44.63715" lon="5.19749">
        <ele>1540</ele>
        <time>2026-05-25T10:20:27.000Z</time>
      </trkpt>
      <trkpt lat="44.63714" lon="5.19749">
        <ele>1540</ele>
        <time>2026-05-25T10:20:28.000Z</time>
      </trkpt>
      <trkpt lat="44.63713" lon="5.1975">
        <ele>1540</ele>
        <time>2026-05-25T10:20:29.000Z</time>
      </trkpt>
      <trkpt lat="44.63712" lon="5.1975">
        <ele>1540</ele>
        <time>2026-05-25T10:20:30.000Z</time>
      </trkpt>
      <trkpt lat="44.63711" lon="5.1975">
        <ele>1541</ele>
        <time>2026-05-25T10:20:31.000Z</time>
      </trkpt>
      <trkpt lat="44.6371" lon="5.19751">
        <ele>1542</ele>
        <time>2026-05-25T10:20:32.000Z</time>
      </trkpt>
      <trkpt lat="44.63708" lon="5.19752">
        <ele>1542</ele>
        <time>2026-05-25T10:20:33.000Z</time>
      </trkpt>
      <trkpt lat="44.63707" lon="5.19752">
        <ele>1542</ele>
        <time>2026-05-25T10:20:34.000Z</time>
      </trkpt>
      <trkpt lat="44.63706" lon="5.19753">
        <ele>1542</ele>
        <time>2026-05-25T10:20:35.000Z</time>
      </trkpt>
      <trkpt lat="44.63705" lon="5.19753">
        <ele>1542</ele>
        <time>2026-05-25T10:20:36.000Z</time>
      </trkpt>
      <trkpt lat="44.63704" lon="5.19752">
        <ele>1543</ele>
        <time>2026-05-25T10:20:37.000Z</time>
      </trkpt>
      <trkpt lat="44.63702" lon="5.19753">
        <ele>1543</ele>
        <time>2026-05-25T10:20:38.000Z</time>
      </trkpt>
      <trkpt lat="44.63701" lon="5.19753">
        <ele>1543</ele>
        <time>2026-05-25T10:20:39.000Z</time>
      </trkpt>
      <trkpt lat="44.637" lon="5.19754">
        <ele>1543</ele>
        <time>2026-05-25T10:20:40.000Z</time>
      </trkpt>
      <trkpt lat="44.63699" lon="5.19755">
        <ele>1544</ele>
        <time>2026-05-25T10:20:41.000Z</time>
      </trkpt>
      <trkpt lat="44.63699" lon="5.19755">
        <ele>1544</ele>
        <time>2026-05-25T10:20:42.000Z</time>
      </trkpt>
      <trkpt lat="44.63698" lon="5.19757">
        <ele>1544</ele>
        <time>2026-05-25T10:20:43.000Z</time>
      </trkpt>
      <trkpt lat="44.63698" lon="5.19758">
        <ele>1544</ele>
        <time>2026-05-25T10:20:44.000Z</time>
      </trkpt>
      <trkpt lat="44.63697" lon="5.19759">
        <ele>1545</ele>
        <time>2026-05-25T10:20:45.000Z</time>
      </trkpt>
      <trkpt lat="44.63696" lon="5.1976">
        <ele>1545</ele>
        <time>2026-05-25T10:20:46.000Z</time>
      </trkpt>
      <trkpt lat="44.63696" lon="5.19761">
        <ele>1545</ele>
        <time>2026-05-25T10:20:47.000Z</time>
      </trkpt>
      <trkpt lat="44.63696" lon="5.19763">
        <ele>1545</ele>
        <time>2026-05-25T10:20:48.000Z</time>
      </trkpt>
      <trkpt lat="44.63695" lon="5.19763">
        <ele>1545</ele>
        <time>2026-05-25T10:20:49.000Z</time>
      </trkpt>
      <trkpt lat="44.63695" lon="5.19764">
        <ele>1545</ele>
        <time>2026-05-25T10:20:50.000Z</time>
      </trkpt>
      <trkpt lat="44.63694" lon="5.19764">
        <ele>1545</ele>
        <time>2026-05-25T10:20:51.000Z</time>
      </trkpt>
      <trkpt lat="44.63694" lon="5.19765">
        <ele>1545</ele>
        <time>2026-05-25T10:20:52.000Z</time>
      </trkpt>
      <trkpt lat="44.63694" lon="5.19766">
        <ele>1545</ele>
        <time>2026-05-25T10:20:53.000Z</time>
      </trkpt>
      <trkpt lat="44.63693" lon="5.19767">
        <ele>1545</ele>
        <time>2026-05-25T10:20:54.000Z</time>
      </trkpt>
      <trkpt lat="44.63693" lon="5.19768">
        <ele>1545</ele>
        <time>2026-05-25T10:20:55.000Z</time>
      </trkpt>
      <trkpt lat="44.63693" lon="5.19769">
        <ele>1546</ele>
        <time>2026-05-25T10:20:56.000Z</time>
      </trkpt>
      <trkpt lat="44.63693" lon="5.1977">
        <ele>1546</ele>
        <time>2026-05-25T10:20:57.000Z</time>
      </trkpt>
      <trkpt lat="44.63693" lon="5.19771">
        <ele>1546</ele>
        <time>2026-05-25T10:20:58.000Z</time>
      </trkpt>
      <trkpt lat="44.63693" lon="5.19773">
        <ele>1546</ele>
        <time>2026-05-25T10:20:59.000Z</time>
      </trkpt>
      <trkpt lat="44.63693" lon="5.19774">
        <ele>1546</ele>
        <time>2026-05-25T10:21:00.000Z</time>
      </trkpt>
      <trkpt lat="44.63693" lon="5.19774">
        <ele>1547</ele>
        <time>2026-05-25T10:21:01.000Z</time>
      </trkpt>
      <trkpt lat="44.63693" lon="5.19774">
        <ele>1547</ele>
        <time>2026-05-25T10:21:02.000Z</time>
      </trkpt>
      <trkpt lat="44.63692" lon="5.19776">
        <ele>1547</ele>
        <time>2026-05-25T10:21:03.000Z</time>
      </trkpt>
      <trkpt lat="44.63692" lon="5.19777">
        <ele>1547</ele>
        <time>2026-05-25T10:21:04.000Z</time>
      </trkpt>
      <trkpt lat="44.63691" lon="5.19779">
        <ele>1547</ele>
        <time>2026-05-25T10:21:05.000Z</time>
      </trkpt>
      <trkpt lat="44.6369" lon="5.19779">
        <ele>1547</ele>
        <time>2026-05-25T10:21:06.000Z</time>
      </trkpt>
      <trkpt lat="44.63689" lon="5.1978">
        <ele>1547</ele>
        <time>2026-05-25T10:21:07.000Z</time>
      </trkpt>
      <trkpt lat="44.63689" lon="5.1978">
        <ele>1548</ele>
        <time>2026-05-25T10:21:08.000Z</time>
      </trkpt>
      <trkpt lat="44.63687" lon="5.1978">
        <ele>1549</ele>
        <time>2026-05-25T10:21:09.000Z</time>
      </trkpt>
      <trkpt lat="44.63686" lon="5.19781">
        <ele>1550</ele>
        <time>2026-05-25T10:21:10.000Z</time>
      </trkpt>
      <trkpt lat="44.63686" lon="5.1978">
        <ele>1550</ele>
        <time>2026-05-25T10:21:11.000Z</time>
      </trkpt>
      <trkpt lat="44.63685" lon="5.19781">
        <ele>1550</ele>
        <time>2026-05-25T10:21:12.000Z</time>
      </trkpt>
      <trkpt lat="44.63683" lon="5.19781">
        <ele>1550</ele>
        <time>2026-05-25T10:21:13.000Z</time>
      </trkpt>
      <trkpt lat="44.63682" lon="5.19781">
        <ele>1550</ele>
        <time>2026-05-25T10:21:14.000Z</time>
      </trkpt>
      <trkpt lat="44.63681" lon="5.19782">
        <ele>1551</ele>
        <time>2026-05-25T10:21:15.000Z</time>
      </trkpt>
      <trkpt lat="44.6368" lon="5.19783">
        <ele>1551</ele>
        <time>2026-05-25T10:21:16.000Z</time>
      </trkpt>
      <trkpt lat="44.6368" lon="5.19783">
        <ele>1552</ele>
        <time>2026-05-25T10:21:17.000Z</time>
      </trkpt>
      <trkpt lat="44.63679" lon="5.19785">
        <ele>1551</ele>
        <time>2026-05-25T10:21:18.000Z</time>
      </trkpt>
      <trkpt lat="44.63678" lon="5.19786">
        <ele>1552</ele>
        <time>2026-05-25T10:21:19.000Z</time>
      </trkpt>
      <trkpt lat="44.63677" lon="5.19786">
        <ele>1552</ele>
        <time>2026-05-25T10:21:20.000Z</time>
      </trkpt>
      <trkpt lat="44.63676" lon="5.19787">
        <ele>1552</ele>
        <time>2026-05-25T10:21:21.000Z</time>
      </trkpt>
      <trkpt lat="44.63674" lon="5.19788">
        <ele>1552</ele>
        <time>2026-05-25T10:21:22.000Z</time>
      </trkpt>
      <trkpt lat="44.63673" lon="5.19789">
        <ele>1552</ele>
        <time>2026-05-25T10:21:23.000Z</time>
      </trkpt>
      <trkpt lat="44.63672" lon="5.1979">
        <ele>1553</ele>
        <time>2026-05-25T10:21:24.000Z</time>
      </trkpt>
      <trkpt lat="44.63671" lon="5.19791">
        <ele>1553</ele>
        <time>2026-05-25T10:21:25.000Z</time>
      </trkpt>
      <trkpt lat="44.63671" lon="5.19791">
        <ele>1553</ele>
        <time>2026-05-25T10:21:26.000Z</time>
      </trkpt>
      <trkpt lat="44.6367" lon="5.19792">
        <ele>1553</ele>
        <time>2026-05-25T10:21:27.000Z</time>
      </trkpt>
      <trkpt lat="44.63669" lon="5.19793">
        <ele>1554</ele>
        <time>2026-05-25T10:21:28.000Z</time>
      </trkpt>
      <trkpt lat="44.63668" lon="5.19794">
        <ele>1554</ele>
        <time>2026-05-25T10:21:29.000Z</time>
      </trkpt>
      <trkpt lat="44.63668" lon="5.19795">
        <ele>1554</ele>
        <time>2026-05-25T10:21:30.000Z</time>
      </trkpt>
      <trkpt lat="44.63667" lon="5.19795">
        <ele>1554</ele>
        <time>2026-05-25T10:21:31.000Z</time>
      </trkpt>
      <trkpt lat="44.63666" lon="5.19796">
        <ele>1553</ele>
        <time>2026-05-25T10:21:32.000Z</time>
      </trkpt>
      <trkpt lat="44.63666" lon="5.19796">
        <ele>1554</ele>
        <time>2026-05-25T10:21:33.000Z</time>
      </trkpt>
      <trkpt lat="44.63666" lon="5.19797">
        <ele>1554</ele>
        <time>2026-05-25T10:21:34.000Z</time>
      </trkpt>
      <trkpt lat="44.63666" lon="5.19798">
        <ele>1554</ele>
        <time>2026-05-25T10:21:35.000Z</time>
      </trkpt>
      <trkpt lat="44.63667" lon="5.19798">
        <ele>1554</ele>
        <time>2026-05-25T10:21:36.000Z</time>
      </trkpt>
      <trkpt lat="44.63668" lon="5.19798">
        <ele>1555</ele>
        <time>2026-05-25T10:21:37.000Z</time>
      </trkpt>
      <trkpt lat="44.63668" lon="5.19798">
        <ele>1554</ele>
        <time>2026-05-25T10:21:38.000Z</time>
      </trkpt>
      <trkpt lat="44.63669" lon="5.19798">
        <ele>1555</ele>
        <time>2026-05-25T10:21:39.000Z</time>
      </trkpt>
      <trkpt lat="44.6367" lon="5.19798">
        <ele>1555</ele>
        <time>2026-05-25T10:21:40.000Z</time>
      </trkpt>
      <trkpt lat="44.63671" lon="5.19798">
        <ele>1555</ele>
        <time>2026-05-25T10:21:41.000Z</time>
      </trkpt>
      <trkpt lat="44.63672" lon="5.19798">
        <ele>1555</ele>
        <time>2026-05-25T10:21:42.000Z</time>
      </trkpt>
      <trkpt lat="44.63673" lon="5.19799">
        <ele>1556</ele>
        <time>2026-05-25T10:21:43.000Z</time>
      </trkpt>
      <trkpt lat="44.63673" lon="5.19799">
        <ele>1556</ele>
        <time>2026-05-25T10:21:44.000Z</time>
      </trkpt>
      <trkpt lat="44.63674" lon="5.198">
        <ele>1556</ele>
        <time>2026-05-25T10:21:45.000Z</time>
      </trkpt>
      <trkpt lat="44.63675" lon="5.19799">
        <ele>1557</ele>
        <time>2026-05-25T10:21:46.000Z</time>
      </trkpt>
      <trkpt lat="44.63675" lon="5.198">
        <ele>1557</ele>
        <time>2026-05-25T10:21:47.000Z</time>
      </trkpt>
      <trkpt lat="44.63676" lon="5.198">
        <ele>1557</ele>
        <time>2026-05-25T10:21:48.000Z</time>
      </trkpt>
      <trkpt lat="44.63677" lon="5.19801">
        <ele>1557</ele>
        <time>2026-05-25T10:21:49.000Z</time>
      </trkpt>
      <trkpt lat="44.63678" lon="5.19801">
        <ele>1557</ele>
        <time>2026-05-25T10:21:50.000Z</time>
      </trkpt>
      <trkpt lat="44.63679" lon="5.19801">
        <ele>1556</ele>
        <time>2026-05-25T10:21:51.000Z</time>
      </trkpt>
      <trkpt lat="44.6368" lon="5.19802">
        <ele>1556</ele>
        <time>2026-05-25T10:21:52.000Z</time>
      </trkpt>
      <trkpt lat="44.6368" lon="5.19803">
        <ele>1556</ele>
        <time>2026-05-25T10:21:53.000Z</time>
      </trkpt>
      <trkpt lat="44.63681" lon="5.19803">
        <ele>1556</ele>
        <time>2026-05-25T10:21:54.000Z</time>
      </trkpt>
      <trkpt lat="44.63682" lon="5.19803">
        <ele>1556</ele>
        <time>2026-05-25T10:21:55.000Z</time>
      </trkpt>
      <trkpt lat="44.63683" lon="5.19803">
        <ele>1557</ele>
        <time>2026-05-25T10:21:56.000Z</time>
      </trkpt>
      <trkpt lat="44.63684" lon="5.19803">
        <ele>1556</ele>
        <time>2026-05-25T10:21:57.000Z</time>
      </trkpt>
      <trkpt lat="44.63685" lon="5.19802">
        <ele>1557</ele>
        <time>2026-05-25T10:21:58.000Z</time>
      </trkpt>
      <trkpt lat="44.63686" lon="5.19801">
        <ele>1557</ele>
        <time>2026-05-25T10:21:59.000Z</time>
      </trkpt>
      <trkpt lat="44.63687" lon="5.198">
        <ele>1557</ele>
        <time>2026-05-25T10:22:00.000Z</time>
      </trkpt>
      <trkpt lat="44.63688" lon="5.198">
        <ele>1558</ele>
        <time>2026-05-25T10:22:01.000Z</time>
      </trkpt>
      <trkpt lat="44.63689" lon="5.19801">
        <ele>1558</ele>
        <time>2026-05-25T10:22:02.000Z</time>
      </trkpt>
      <trkpt lat="44.6369" lon="5.19801">
        <ele>1558</ele>
        <time>2026-05-25T10:22:03.000Z</time>
      </trkpt>
      <trkpt lat="44.63691" lon="5.19802">
        <ele>1558</ele>
        <time>2026-05-25T10:22:04.000Z</time>
      </trkpt>
      <trkpt lat="44.63692" lon="5.19802">
        <ele>1559</ele>
        <time>2026-05-25T10:22:05.000Z</time>
      </trkpt>
      <trkpt lat="44.63692" lon="5.19802">
        <ele>1560</ele>
        <time>2026-05-25T10:22:06.000Z</time>
      </trkpt>
      <trkpt lat="44.63694" lon="5.19801">
        <ele>1560</ele>
        <time>2026-05-25T10:22:07.000Z</time>
      </trkpt>
      <trkpt lat="44.63694" lon="5.19802">
        <ele>1560</ele>
        <time>2026-05-25T10:22:08.000Z</time>
      </trkpt>
      <trkpt lat="44.63695" lon="5.19802">
        <ele>1560</ele>
        <time>2026-05-25T10:22:09.000Z</time>
      </trkpt>
      <trkpt lat="44.63696" lon="5.19802">
        <ele>1560</ele>
        <time>2026-05-25T10:22:10.000Z</time>
      </trkpt>
      <trkpt lat="44.63697" lon="5.19803">
        <ele>1560</ele>
        <time>2026-05-25T10:22:11.000Z</time>
      </trkpt>
      <trkpt lat="44.63698" lon="5.19803">
        <ele>1560</ele>
        <time>2026-05-25T10:22:12.000Z</time>
      </trkpt>
      <trkpt lat="44.63698" lon="5.19804">
        <ele>1560</ele>
        <time>2026-05-25T10:22:13.000Z</time>
      </trkpt>
      <trkpt lat="44.63699" lon="5.19803">
        <ele>1561</ele>
        <time>2026-05-25T10:22:14.000Z</time>
      </trkpt>
      <trkpt lat="44.637" lon="5.19804">
        <ele>1561</ele>
        <time>2026-05-25T10:22:15.000Z</time>
      </trkpt>
      <trkpt lat="44.63701" lon="5.19804">
        <ele>1561</ele>
        <time>2026-05-25T10:22:16.000Z</time>
      </trkpt>
      <trkpt lat="44.63702" lon="5.19806">
        <ele>1560</ele>
        <time>2026-05-25T10:22:17.000Z</time>
      </trkpt>
      <trkpt lat="44.63703" lon="5.19807">
        <ele>1561</ele>
        <time>2026-05-25T10:22:18.000Z</time>
      </trkpt>
      <trkpt lat="44.63703" lon="5.19808">
        <ele>1562</ele>
        <time>2026-05-25T10:22:19.000Z</time>
      </trkpt>
      <trkpt lat="44.63703" lon="5.19809">
        <ele>1562</ele>
        <time>2026-05-25T10:22:20.000Z</time>
      </trkpt>
      <trkpt lat="44.63703" lon="5.1981">
        <ele>1563</ele>
        <time>2026-05-25T10:22:21.000Z</time>
      </trkpt>
      <trkpt lat="44.63704" lon="5.1981">
        <ele>1562</ele>
        <time>2026-05-25T10:22:22.000Z</time>
      </trkpt>
      <trkpt lat="44.63704" lon="5.19811">
        <ele>1563</ele>
        <time>2026-05-25T10:22:23.000Z</time>
      </trkpt>
      <trkpt lat="44.63704" lon="5.19812">
        <ele>1563</ele>
        <time>2026-05-25T10:22:24.000Z</time>
      </trkpt>
      <trkpt lat="44.63704" lon="5.19812">
        <ele>1563</ele>
        <time>2026-05-25T10:22:25.000Z</time>
      </trkpt>
      <trkpt lat="44.63704" lon="5.19812">
        <ele>1563</ele>
        <time>2026-05-25T10:22:26.000Z</time>
      </trkpt>
      <trkpt lat="44.63704" lon="5.19815">
        <ele>1564</ele>
        <time>2026-05-25T10:22:27.000Z</time>
      </trkpt>
      <trkpt lat="44.63705" lon="5.19816">
        <ele>1565</ele>
        <time>2026-05-25T10:22:28.000Z</time>
      </trkpt>
      <trkpt lat="44.63705" lon="5.19817">
        <ele>1565</ele>
        <time>2026-05-25T10:22:29.000Z</time>
      </trkpt>
      <trkpt lat="44.63705" lon="5.19818">
        <ele>1565</ele>
        <time>2026-05-25T10:22:30.000Z</time>
      </trkpt>
      <trkpt lat="44.63705" lon="5.19819">
        <ele>1566</ele>
        <time>2026-05-25T10:22:31.000Z</time>
      </trkpt>
      <trkpt lat="44.63706" lon="5.1982">
        <ele>1566</ele>
        <time>2026-05-25T10:22:32.000Z</time>
      </trkpt>
      <trkpt lat="44.63706" lon="5.19821">
        <ele>1567</ele>
        <time>2026-05-25T10:22:33.000Z</time>
      </trkpt>
      <trkpt lat="44.63707" lon="5.19822">
        <ele>1567</ele>
        <time>2026-05-25T10:22:34.000Z</time>
      </trkpt>
      <trkpt lat="44.63707" lon="5.19823">
        <ele>1567</ele>
        <time>2026-05-25T10:22:35.000Z</time>
      </trkpt>
      <trkpt lat="44.63708" lon="5.19824">
        <ele>1568</ele>
        <time>2026-05-25T10:22:36.000Z</time>
      </trkpt>
      <trkpt lat="44.63708" lon="5.19825">
        <ele>1568</ele>
        <time>2026-05-25T10:22:37.000Z</time>
      </trkpt>
      <trkpt lat="44.63709" lon="5.19826">
        <ele>1568</ele>
        <time>2026-05-25T10:22:38.000Z</time>
      </trkpt>
      <trkpt lat="44.6371" lon="5.19827">
        <ele>1568</ele>
        <time>2026-05-25T10:22:39.000Z</time>
      </trkpt>
      <trkpt lat="44.6371" lon="5.19828">
        <ele>1569</ele>
        <time>2026-05-25T10:22:40.000Z</time>
      </trkpt>
      <trkpt lat="44.63711" lon="5.1983">
        <ele>1569</ele>
        <time>2026-05-25T10:22:41.000Z</time>
      </trkpt>
      <trkpt lat="44.63712" lon="5.19831">
        <ele>1569</ele>
        <time>2026-05-25T10:22:42.000Z</time>
      </trkpt>
      <trkpt lat="44.63712" lon="5.19832">
        <ele>1569</ele>
        <time>2026-05-25T10:22:43.000Z</time>
      </trkpt>
      <trkpt lat="44.63713" lon="5.19832">
        <ele>1570</ele>
        <time>2026-05-25T10:22:44.000Z</time>
      </trkpt>
      <trkpt lat="44.63714" lon="5.19834">
        <ele>1570</ele>
        <time>2026-05-25T10:22:45.000Z</time>
      </trkpt>
      <trkpt lat="44.63714" lon="5.19835">
        <ele>1570</ele>
        <time>2026-05-25T10:22:46.000Z</time>
      </trkpt>
      <trkpt lat="44.63714" lon="5.19836">
        <ele>1571</ele>
        <time>2026-05-25T10:22:47.000Z</time>
      </trkpt>
      <trkpt lat="44.63714" lon="5.19837">
        <ele>1571</ele>
        <time>2026-05-25T10:22:48.000Z</time>
      </trkpt>
      <trkpt lat="44.63714" lon="5.19838">
        <ele>1571</ele>
        <time>2026-05-25T10:22:49.000Z</time>
      </trkpt>
      <trkpt lat="44.63715" lon="5.1984">
        <ele>1571</ele>
        <time>2026-05-25T10:22:50.000Z</time>
      </trkpt>
      <trkpt lat="44.63715" lon="5.19842">
        <ele>1572</ele>
        <time>2026-05-25T10:22:51.000Z</time>
      </trkpt>
      <trkpt lat="44.63716" lon="5.19843">
        <ele>1572</ele>
        <time>2026-05-25T10:22:52.000Z</time>
      </trkpt>
      <trkpt lat="44.63716" lon="5.19844">
        <ele>1572</ele>
        <time>2026-05-25T10:22:53.000Z</time>
      </trkpt>
      <trkpt lat="44.63717" lon="5.19844">
        <ele>1572</ele>
        <time>2026-05-25T10:22:54.000Z</time>
      </trkpt>
      <trkpt lat="44.63718" lon="5.19846">
        <ele>1573</ele>
        <time>2026-05-25T10:22:55.000Z</time>
      </trkpt>
      <trkpt lat="44.63718" lon="5.19847">
        <ele>1573</ele>
        <time>2026-05-25T10:22:56.000Z</time>
      </trkpt>
      <trkpt lat="44.63718" lon="5.19848">
        <ele>1574</ele>
        <time>2026-05-25T10:22:57.000Z</time>
      </trkpt>
      <trkpt lat="44.63718" lon="5.1985">
        <ele>1573</ele>
        <time>2026-05-25T10:22:58.000Z</time>
      </trkpt>
      <trkpt lat="44.63718" lon="5.19851">
        <ele>1574</ele>
        <time>2026-05-25T10:22:59.000Z</time>
      </trkpt>
      <trkpt lat="44.63719" lon="5.19852">
        <ele>1573</ele>
        <time>2026-05-25T10:23:00.000Z</time>
      </trkpt>
      <trkpt lat="44.63719" lon="5.19853">
        <ele>1574</ele>
        <time>2026-05-25T10:23:01.000Z</time>
      </trkpt>
      <trkpt lat="44.63719" lon="5.19855">
        <ele>1574</ele>
        <time>2026-05-25T10:23:02.000Z</time>
      </trkpt>
      <trkpt lat="44.6372" lon="5.19856">
        <ele>1575</ele>
        <time>2026-05-25T10:23:03.000Z</time>
      </trkpt>
      <trkpt lat="44.6372" lon="5.19858">
        <ele>1575</ele>
        <time>2026-05-25T10:23:04.000Z</time>
      </trkpt>
      <trkpt lat="44.63721" lon="5.19859">
        <ele>1575</ele>
        <time>2026-05-25T10:23:05.000Z</time>
      </trkpt>
      <trkpt lat="44.63721" lon="5.1986">
        <ele>1576</ele>
        <time>2026-05-25T10:23:06.000Z</time>
      </trkpt>
      <trkpt lat="44.63722" lon="5.19861">
        <ele>1575</ele>
        <time>2026-05-25T10:23:07.000Z</time>
      </trkpt>
      <trkpt lat="44.63722" lon="5.19863">
        <ele>1575</ele>
        <time>2026-05-25T10:23:08.000Z</time>
      </trkpt>
      <trkpt lat="44.63723" lon="5.19864">
        <ele>1575</ele>
        <time>2026-05-25T10:23:09.000Z</time>
      </trkpt>
      <trkpt lat="44.63723" lon="5.19865">
        <ele>1576</ele>
        <time>2026-05-25T10:23:10.000Z</time>
      </trkpt>
      <trkpt lat="44.63723" lon="5.19866">
        <ele>1576</ele>
        <time>2026-05-25T10:23:11.000Z</time>
      </trkpt>
      <trkpt lat="44.63723" lon="5.19867">
        <ele>1576</ele>
        <time>2026-05-25T10:23:12.000Z</time>
      </trkpt>
      <trkpt lat="44.63724" lon="5.19869">
        <ele>1577</ele>
        <time>2026-05-25T10:23:13.000Z</time>
      </trkpt>
      <trkpt lat="44.63724" lon="5.1987">
        <ele>1576</ele>
        <time>2026-05-25T10:23:14.000Z</time>
      </trkpt>
      <trkpt lat="44.63724" lon="5.19872">
        <ele>1577</ele>
        <time>2026-05-25T10:23:15.000Z</time>
      </trkpt>
      <trkpt lat="44.63724" lon="5.19873">
        <ele>1577</ele>
        <time>2026-05-25T10:23:16.000Z</time>
      </trkpt>
      <trkpt lat="44.63724" lon="5.19874">
        <ele>1578</ele>
        <time>2026-05-25T10:23:17.000Z</time>
      </trkpt>
      <trkpt lat="44.63725" lon="5.19875">
        <ele>1578</ele>
        <time>2026-05-25T10:23:18.000Z</time>
      </trkpt>
      <trkpt lat="44.63725" lon="5.19876">
        <ele>1577</ele>
        <time>2026-05-25T10:23:19.000Z</time>
      </trkpt>
      <trkpt lat="44.63725" lon="5.19878">
        <ele>1577</ele>
        <time>2026-05-25T10:23:20.000Z</time>
      </trkpt>
      <trkpt lat="44.63725" lon="5.19878">
        <ele>1578</ele>
        <time>2026-05-25T10:23:21.000Z</time>
      </trkpt>
      <trkpt lat="44.63724" lon="5.19878">
        <ele>1578</ele>
        <time>2026-05-25T10:23:22.000Z</time>
      </trkpt>
      <trkpt lat="44.63724" lon="5.19878">
        <ele>1580</ele>
        <time>2026-05-25T10:23:23.000Z</time>
      </trkpt>
      <trkpt lat="44.63723" lon="5.19877">
        <ele>1581</ele>
        <time>2026-05-25T10:23:24.000Z</time>
      </trkpt>
      <trkpt lat="44.63722" lon="5.19877">
        <ele>1581</ele>
        <time>2026-05-25T10:23:25.000Z</time>
      </trkpt>
      <trkpt lat="44.6372" lon="5.19877">
        <ele>1581</ele>
        <time>2026-05-25T10:23:26.000Z</time>
      </trkpt>
      <trkpt lat="44.63719" lon="5.19876">
        <ele>1581</ele>
        <time>2026-05-25T10:23:27.000Z</time>
      </trkpt>
      <trkpt lat="44.63718" lon="5.19876">
        <ele>1581</ele>
        <time>2026-05-25T10:23:28.000Z</time>
      </trkpt>
      <trkpt lat="44.63717" lon="5.19876">
        <ele>1581</ele>
        <time>2026-05-25T10:23:29.000Z</time>
      </trkpt>
      <trkpt lat="44.63717" lon="5.19875">
        <ele>1581</ele>
        <time>2026-05-25T10:23:30.000Z</time>
      </trkpt>
      <trkpt lat="44.63716" lon="5.19874">
        <ele>1581</ele>
        <time>2026-05-25T10:23:31.000Z</time>
      </trkpt>
      <trkpt lat="44.63716" lon="5.19874">
        <ele>1580</ele>
        <time>2026-05-25T10:23:32.000Z</time>
      </trkpt>
      <trkpt lat="44.63714" lon="5.19873">
        <ele>1580</ele>
        <time>2026-05-25T10:23:33.000Z</time>
      </trkpt>
      <trkpt lat="44.63713" lon="5.19872">
        <ele>1581</ele>
        <time>2026-05-25T10:23:34.000Z</time>
      </trkpt>
      <trkpt lat="44.63711" lon="5.19872">
        <ele>1582</ele>
        <time>2026-05-25T10:23:35.000Z</time>
      </trkpt>
      <trkpt lat="44.6371" lon="5.19872">
        <ele>1582</ele>
        <time>2026-05-25T10:23:36.000Z</time>
      </trkpt>
      <trkpt lat="44.63709" lon="5.19871">
        <ele>1582</ele>
        <time>2026-05-25T10:23:37.000Z</time>
      </trkpt>
      <trkpt lat="44.63709" lon="5.19871">
        <ele>1583</ele>
        <time>2026-05-25T10:23:38.000Z</time>
      </trkpt>
      <trkpt lat="44.63708" lon="5.19871">
        <ele>1583</ele>
        <time>2026-05-25T10:23:39.000Z</time>
      </trkpt>
      <trkpt lat="44.63707" lon="5.19872">
        <ele>1583</ele>
        <time>2026-05-25T10:23:40.000Z</time>
      </trkpt>
      <trkpt lat="44.63706" lon="5.19873">
        <ele>1584</ele>
        <time>2026-05-25T10:23:41.000Z</time>
      </trkpt>
      <trkpt lat="44.63706" lon="5.19873">
        <ele>1584</ele>
        <time>2026-05-25T10:23:42.000Z</time>
      </trkpt>
      <trkpt lat="44.63705" lon="5.19873">
        <ele>1584</ele>
        <time>2026-05-25T10:23:43.000Z</time>
      </trkpt>
      <trkpt lat="44.63704" lon="5.19873">
        <ele>1584</ele>
        <time>2026-05-25T10:23:44.000Z</time>
      </trkpt>
      <trkpt lat="44.63703" lon="5.19874">
        <ele>1584</ele>
        <time>2026-05-25T10:23:45.000Z</time>
      </trkpt>
      <trkpt lat="44.63702" lon="5.19874">
        <ele>1585</ele>
        <time>2026-05-25T10:23:46.000Z</time>
      </trkpt>
      <trkpt lat="44.63701" lon="5.19875">
        <ele>1585</ele>
        <time>2026-05-25T10:23:47.000Z</time>
      </trkpt>
      <trkpt lat="44.637" lon="5.19875">
        <ele>1585</ele>
        <time>2026-05-25T10:23:48.000Z</time>
      </trkpt>
      <trkpt lat="44.63699" lon="5.19875">
        <ele>1586</ele>
        <time>2026-05-25T10:23:49.000Z</time>
      </trkpt>
      <trkpt lat="44.63698" lon="5.19875">
        <ele>1586</ele>
        <time>2026-05-25T10:23:50.000Z</time>
      </trkpt>
      <trkpt lat="44.63697" lon="5.19876">
        <ele>1587</ele>
        <time>2026-05-25T10:23:51.000Z</time>
      </trkpt>
      <trkpt lat="44.63696" lon="5.19876">
        <ele>1587</ele>
        <time>2026-05-25T10:23:52.000Z</time>
      </trkpt>
      <trkpt lat="44.63695" lon="5.19876">
        <ele>1587</ele>
        <time>2026-05-25T10:23:53.000Z</time>
      </trkpt>
      <trkpt lat="44.63694" lon="5.19876">
        <ele>1587</ele>
        <time>2026-05-25T10:23:54.000Z</time>
      </trkpt>
      <trkpt lat="44.63693" lon="5.19877">
        <ele>1587</ele>
        <time>2026-05-25T10:23:55.000Z</time>
      </trkpt>
      <trkpt lat="44.63693" lon="5.19877">
        <ele>1588</ele>
        <time>2026-05-25T10:23:56.000Z</time>
      </trkpt>
      <trkpt lat="44.63692" lon="5.19877">
        <ele>1588</ele>
        <time>2026-05-25T10:23:57.000Z</time>
      </trkpt>
      <trkpt lat="44.63691" lon="5.19878">
        <ele>1588</ele>
        <time>2026-05-25T10:23:58.000Z</time>
      </trkpt>
      <trkpt lat="44.6369" lon="5.19878">
        <ele>1588</ele>
        <time>2026-05-25T10:23:59.000Z</time>
      </trkpt>
      <trkpt lat="44.6369" lon="5.1988">
        <ele>1588</ele>
        <time>2026-05-25T10:24:00.000Z</time>
      </trkpt>
      <trkpt lat="44.63689" lon="5.1988">
        <ele>1588</ele>
        <time>2026-05-25T10:24:01.000Z</time>
      </trkpt>
      <trkpt lat="44.63688" lon="5.19881">
        <ele>1589</ele>
        <time>2026-05-25T10:24:02.000Z</time>
      </trkpt>
      <trkpt lat="44.63687" lon="5.19881">
        <ele>1589</ele>
        <time>2026-05-25T10:24:03.000Z</time>
      </trkpt>
      <trkpt lat="44.63686" lon="5.19882">
        <ele>1589</ele>
        <time>2026-05-25T10:24:04.000Z</time>
      </trkpt>
      <trkpt lat="44.63685" lon="5.19882">
        <ele>1589</ele>
        <time>2026-05-25T10:24:05.000Z</time>
      </trkpt>
      <trkpt lat="44.63685" lon="5.19882">
        <ele>1589</ele>
        <time>2026-05-25T10:24:06.000Z</time>
      </trkpt>
      <trkpt lat="44.63684" lon="5.19884">
        <ele>1590</ele>
        <time>2026-05-25T10:24:07.000Z</time>
      </trkpt>
      <trkpt lat="44.63683" lon="5.19884">
        <ele>1591</ele>
        <time>2026-05-25T10:24:08.000Z</time>
      </trkpt>
      <trkpt lat="44.63682" lon="5.19885">
        <ele>1591</ele>
        <time>2026-05-25T10:24:09.000Z</time>
      </trkpt>
      <trkpt lat="44.63682" lon="5.19885">
        <ele>1591</ele>
        <time>2026-05-25T10:24:10.000Z</time>
      </trkpt>
      <trkpt lat="44.6368" lon="5.19886">
        <ele>1592</ele>
        <time>2026-05-25T10:24:11.000Z</time>
      </trkpt>
      <trkpt lat="44.6368" lon="5.19886">
        <ele>1592</ele>
        <time>2026-05-25T10:24:12.000Z</time>
      </trkpt>
      <trkpt lat="44.63679" lon="5.19887">
        <ele>1593</ele>
        <time>2026-05-25T10:24:13.000Z</time>
      </trkpt>
      <trkpt lat="44.63678" lon="5.19888">
        <ele>1593</ele>
        <time>2026-05-25T10:24:14.000Z</time>
      </trkpt>
      <trkpt lat="44.63678" lon="5.19889">
        <ele>1593</ele>
        <time>2026-05-25T10:24:15.000Z</time>
      </trkpt>
      <trkpt lat="44.63677" lon="5.19889">
        <ele>1593</ele>
        <time>2026-05-25T10:24:16.000Z</time>
      </trkpt>
      <trkpt lat="44.63677" lon="5.1989">
        <ele>1593</ele>
        <time>2026-05-25T10:24:17.000Z</time>
      </trkpt>
      <trkpt lat="44.63676" lon="5.19891">
        <ele>1593</ele>
        <time>2026-05-25T10:24:18.000Z</time>
      </trkpt>
      <trkpt lat="44.63675" lon="5.19891">
        <ele>1594</ele>
        <time>2026-05-25T10:24:19.000Z</time>
      </trkpt>
      <trkpt lat="44.63674" lon="5.19892">
        <ele>1594</ele>
        <time>2026-05-25T10:24:20.000Z</time>
      </trkpt>
      <trkpt lat="44.63674" lon="5.19893">
        <ele>1594</ele>
        <time>2026-05-25T10:24:21.000Z</time>
      </trkpt>
      <trkpt lat="44.63673" lon="5.19894">
        <ele>1594</ele>
        <time>2026-05-25T10:24:22.000Z</time>
      </trkpt>
      <trkpt lat="44.63673" lon="5.19895">
        <ele>1594</ele>
        <time>2026-05-25T10:24:23.000Z</time>
      </trkpt>
      <trkpt lat="44.63672" lon="5.19896">
        <ele>1594</ele>
        <time>2026-05-25T10:24:24.000Z</time>
      </trkpt>
      <trkpt lat="44.63672" lon="5.19897">
        <ele>1594</ele>
        <time>2026-05-25T10:24:25.000Z</time>
      </trkpt>
      <trkpt lat="44.63671" lon="5.19898">
        <ele>1594</ele>
        <time>2026-05-25T10:24:26.000Z</time>
      </trkpt>
      <trkpt lat="44.6367" lon="5.19898">
        <ele>1595</ele>
        <time>2026-05-25T10:24:27.000Z</time>
      </trkpt>
      <trkpt lat="44.6367" lon="5.19899">
        <ele>1595</ele>
        <time>2026-05-25T10:24:28.000Z</time>
      </trkpt>
      <trkpt lat="44.63669" lon="5.199">
        <ele>1595</ele>
        <time>2026-05-25T10:24:29.000Z</time>
      </trkpt>
      <trkpt lat="44.63669" lon="5.19901">
        <ele>1595</ele>
        <time>2026-05-25T10:24:30.000Z</time>
      </trkpt>
      <trkpt lat="44.63668" lon="5.19901">
        <ele>1596</ele>
        <time>2026-05-25T10:24:31.000Z</time>
      </trkpt>
      <trkpt lat="44.63668" lon="5.19902">
        <ele>1596</ele>
        <time>2026-05-25T10:24:32.000Z</time>
      </trkpt>
      <trkpt lat="44.63668" lon="5.19903">
        <ele>1596</ele>
        <time>2026-05-25T10:24:33.000Z</time>
      </trkpt>
      <trkpt lat="44.63667" lon="5.19904">
        <ele>1597</ele>
        <time>2026-05-25T10:24:34.000Z</time>
      </trkpt>
      <trkpt lat="44.63666" lon="5.19905">
        <ele>1597</ele>
        <time>2026-05-25T10:24:35.000Z</time>
      </trkpt>
      <trkpt lat="44.63665" lon="5.19906">
        <ele>1598</ele>
        <time>2026-05-25T10:24:36.000Z</time>
      </trkpt>
      <trkpt lat="44.63665" lon="5.19906">
        <ele>1598</ele>
        <time>2026-05-25T10:24:37.000Z</time>
      </trkpt>
      <trkpt lat="44.63663" lon="5.19907">
        <ele>1598</ele>
        <time>2026-05-25T10:24:38.000Z</time>
      </trkpt>
      <trkpt lat="44.63662" lon="5.19908">
        <ele>1598</ele>
        <time>2026-05-25T10:24:39.000Z</time>
      </trkpt>
      <trkpt lat="44.63661" lon="5.19909">
        <ele>1598</ele>
        <time>2026-05-25T10:24:40.000Z</time>
      </trkpt>
      <trkpt lat="44.6366" lon="5.1991">
        <ele>1598</ele>
        <time>2026-05-25T10:24:41.000Z</time>
      </trkpt>
      <trkpt lat="44.63659" lon="5.1991">
        <ele>1598</ele>
        <time>2026-05-25T10:24:42.000Z</time>
      </trkpt>
      <trkpt lat="44.63658" lon="5.1991">
        <ele>1598</ele>
        <time>2026-05-25T10:24:43.000Z</time>
      </trkpt>
      <trkpt lat="44.63657" lon="5.19911">
        <ele>1598</ele>
        <time>2026-05-25T10:24:44.000Z</time>
      </trkpt>
      <trkpt lat="44.63656" lon="5.19912">
        <ele>1597</ele>
        <time>2026-05-25T10:24:45.000Z</time>
      </trkpt>
      <trkpt lat="44.63655" lon="5.19914">
        <ele>1598</ele>
        <time>2026-05-25T10:24:46.000Z</time>
      </trkpt>
      <trkpt lat="44.63655" lon="5.19915">
        <ele>1598</ele>
        <time>2026-05-25T10:24:47.000Z</time>
      </trkpt>
      <trkpt lat="44.63655" lon="5.19916">
        <ele>1599</ele>
        <time>2026-05-25T10:24:48.000Z</time>
      </trkpt>
      <trkpt lat="44.63654" lon="5.19918">
        <ele>1599</ele>
        <time>2026-05-25T10:24:49.000Z</time>
      </trkpt>
      <trkpt lat="44.63654" lon="5.19918">
        <ele>1599</ele>
        <time>2026-05-25T10:24:50.000Z</time>
      </trkpt>
      <trkpt lat="44.63653" lon="5.19919">
        <ele>1599</ele>
        <time>2026-05-25T10:24:51.000Z</time>
      </trkpt>
      <trkpt lat="44.63652" lon="5.1992">
        <ele>1599</ele>
        <time>2026-05-25T10:24:52.000Z</time>
      </trkpt>
      <trkpt lat="44.63652" lon="5.19921">
        <ele>1599</ele>
        <time>2026-05-25T10:24:53.000Z</time>
      </trkpt>
      <trkpt lat="44.63651" lon="5.19922">
        <ele>1600</ele>
        <time>2026-05-25T10:24:54.000Z</time>
      </trkpt>
      <trkpt lat="44.63651" lon="5.19924">
        <ele>1600</ele>
        <time>2026-05-25T10:24:55.000Z</time>
      </trkpt>
      <trkpt lat="44.6365" lon="5.19925">
        <ele>1600</ele>
        <time>2026-05-25T10:24:56.000Z</time>
      </trkpt>
      <trkpt lat="44.6365" lon="5.19926">
        <ele>1600</ele>
        <time>2026-05-25T10:24:57.000Z</time>
      </trkpt>
      <trkpt lat="44.63649" lon="5.19926">
        <ele>1601</ele>
        <time>2026-05-25T10:24:58.000Z</time>
      </trkpt>
      <trkpt lat="44.63649" lon="5.19927">
        <ele>1602</ele>
        <time>2026-05-25T10:24:59.000Z</time>
      </trkpt>
      <trkpt lat="44.63648" lon="5.19928">
        <ele>1602</ele>
        <time>2026-05-25T10:25:00.000Z</time>
      </trkpt>
      <trkpt lat="44.63646" lon="5.19929">
        <ele>1603</ele>
        <time>2026-05-25T10:25:01.000Z</time>
      </trkpt>
      <trkpt lat="44.63645" lon="5.19929">
        <ele>1603</ele>
        <time>2026-05-25T10:25:02.000Z</time>
      </trkpt>
      <trkpt lat="44.63644" lon="5.1993">
        <ele>1603</ele>
        <time>2026-05-25T10:25:03.000Z</time>
      </trkpt>
      <trkpt lat="44.63644" lon="5.19932">
        <ele>1603</ele>
        <time>2026-05-25T10:25:04.000Z</time>
      </trkpt>
      <trkpt lat="44.63643" lon="5.19932">
        <ele>1603</ele>
        <time>2026-05-25T10:25:05.000Z</time>
      </trkpt>
      <trkpt lat="44.63643" lon="5.19934">
        <ele>1603</ele>
        <time>2026-05-25T10:25:06.000Z</time>
      </trkpt>
      <trkpt lat="44.63642" lon="5.19935">
        <ele>1603</ele>
        <time>2026-05-25T10:25:07.000Z</time>
      </trkpt>
      <trkpt lat="44.63641" lon="5.19936">
        <ele>1603</ele>
        <time>2026-05-25T10:25:08.000Z</time>
      </trkpt>
      <trkpt lat="44.63641" lon="5.19937">
        <ele>1604</ele>
        <time>2026-05-25T10:25:09.000Z</time>
      </trkpt>
      <trkpt lat="44.6364" lon="5.19938">
        <ele>1604</ele>
        <time>2026-05-25T10:25:10.000Z</time>
      </trkpt>
      <trkpt lat="44.6364" lon="5.19939">
        <ele>1604</ele>
        <time>2026-05-25T10:25:11.000Z</time>
      </trkpt>
      <trkpt lat="44.63639" lon="5.1994">
        <ele>1604</ele>
        <time>2026-05-25T10:25:12.000Z</time>
      </trkpt>
      <trkpt lat="44.63638" lon="5.1994">
        <ele>1605</ele>
        <time>2026-05-25T10:25:13.000Z</time>
      </trkpt>
      <trkpt lat="44.63638" lon="5.1994">
        <ele>1605</ele>
        <time>2026-05-25T10:25:14.000Z</time>
      </trkpt>
      <trkpt lat="44.63637" lon="5.19941">
        <ele>1606</ele>
        <time>2026-05-25T10:25:15.000Z</time>
      </trkpt>
      <trkpt lat="44.63636" lon="5.19943">
        <ele>1606</ele>
        <time>2026-05-25T10:25:16.000Z</time>
      </trkpt>
      <trkpt lat="44.63635" lon="5.19943">
        <ele>1606</ele>
        <time>2026-05-25T10:25:17.000Z</time>
      </trkpt>
      <trkpt lat="44.63635" lon="5.19944">
        <ele>1606</ele>
        <time>2026-05-25T10:25:18.000Z</time>
      </trkpt>
      <trkpt lat="44.63634" lon="5.19945">
        <ele>1606</ele>
        <time>2026-05-25T10:25:19.000Z</time>
      </trkpt>
      <trkpt lat="44.63634" lon="5.19946">
        <ele>1606</ele>
        <time>2026-05-25T10:25:20.000Z</time>
      </trkpt>
      <trkpt lat="44.63634" lon="5.19947">
        <ele>1607</ele>
        <time>2026-05-25T10:25:21.000Z</time>
      </trkpt>
      <trkpt lat="44.63634" lon="5.19949">
        <ele>1607</ele>
        <time>2026-05-25T10:25:22.000Z</time>
      </trkpt>
      <trkpt lat="44.63633" lon="5.1995">
        <ele>1607</ele>
        <time>2026-05-25T10:25:23.000Z</time>
      </trkpt>
      <trkpt lat="44.63632" lon="5.19951">
        <ele>1607</ele>
        <time>2026-05-25T10:25:24.000Z</time>
      </trkpt>
      <trkpt lat="44.63632" lon="5.19952">
        <ele>1607</ele>
        <time>2026-05-25T10:25:25.000Z</time>
      </trkpt>
      <trkpt lat="44.63631" lon="5.19953">
        <ele>1608</ele>
        <time>2026-05-25T10:25:26.000Z</time>
      </trkpt>
      <trkpt lat="44.63631" lon="5.19954">
        <ele>1608</ele>
        <time>2026-05-25T10:25:27.000Z</time>
      </trkpt>
      <trkpt lat="44.6363" lon="5.19955">
        <ele>1608</ele>
        <time>2026-05-25T10:25:28.000Z</time>
      </trkpt>
      <trkpt lat="44.6363" lon="5.19956">
        <ele>1608</ele>
        <time>2026-05-25T10:25:29.000Z</time>
      </trkpt>
      <trkpt lat="44.63629" lon="5.19957">
        <ele>1608</ele>
        <time>2026-05-25T10:25:30.000Z</time>
      </trkpt>
      <trkpt lat="44.63629" lon="5.19958">
        <ele>1608</ele>
        <time>2026-05-25T10:25:31.000Z</time>
      </trkpt>
      <trkpt lat="44.63628" lon="5.19959">
        <ele>1609</ele>
        <time>2026-05-25T10:25:32.000Z</time>
      </trkpt>
      <trkpt lat="44.63628" lon="5.19961">
        <ele>1610</ele>
        <time>2026-05-25T10:25:33.000Z</time>
      </trkpt>
      <trkpt lat="44.63627" lon="5.19962">
        <ele>1610</ele>
        <time>2026-05-25T10:25:34.000Z</time>
      </trkpt>
      <trkpt lat="44.63627" lon="5.19963">
        <ele>1610</ele>
        <time>2026-05-25T10:25:35.000Z</time>
      </trkpt>
      <trkpt lat="44.63626" lon="5.19964">
        <ele>1610</ele>
        <time>2026-05-25T10:25:36.000Z</time>
      </trkpt>
      <trkpt lat="44.63625" lon="5.19966">
        <ele>1610</ele>
        <time>2026-05-25T10:25:37.000Z</time>
      </trkpt>
      <trkpt lat="44.63625" lon="5.19967">
        <ele>1610</ele>
        <time>2026-05-25T10:25:38.000Z</time>
      </trkpt>
      <trkpt lat="44.63624" lon="5.19967">
        <ele>1611</ele>
        <time>2026-05-25T10:25:39.000Z</time>
      </trkpt>
      <trkpt lat="44.63624" lon="5.19968">
        <ele>1611</ele>
        <time>2026-05-25T10:25:40.000Z</time>
      </trkpt>
      <trkpt lat="44.63624" lon="5.19969">
        <ele>1611</ele>
        <time>2026-05-25T10:25:41.000Z</time>
      </trkpt>
      <trkpt lat="44.63623" lon="5.1997">
        <ele>1611</ele>
        <time>2026-05-25T10:25:42.000Z</time>
      </trkpt>
      <trkpt lat="44.63623" lon="5.19971">
        <ele>1611</ele>
        <time>2026-05-25T10:25:43.000Z</time>
      </trkpt>
      <trkpt lat="44.63622" lon="5.19972">
        <ele>1611</ele>
        <time>2026-05-25T10:25:44.000Z</time>
      </trkpt>
      <trkpt lat="44.63623" lon="5.19974">
        <ele>1611</ele>
        <time>2026-05-25T10:25:45.000Z</time>
      </trkpt>
      <trkpt lat="44.63622" lon="5.19975">
        <ele>1611</ele>
        <time>2026-05-25T10:25:46.000Z</time>
      </trkpt>
      <trkpt lat="44.63622" lon="5.19976">
        <ele>1611</ele>
        <time>2026-05-25T10:25:47.000Z</time>
      </trkpt>
      <trkpt lat="44.63621" lon="5.19977">
        <ele>1612</ele>
        <time>2026-05-25T10:25:48.000Z</time>
      </trkpt>
      <trkpt lat="44.63621" lon="5.19978">
        <ele>1612</ele>
        <time>2026-05-25T10:25:49.000Z</time>
      </trkpt>
      <trkpt lat="44.6362" lon="5.19979">
        <ele>1612</ele>
        <time>2026-05-25T10:25:50.000Z</time>
      </trkpt>
      <trkpt lat="44.6362" lon="5.1998">
        <ele>1612</ele>
        <time>2026-05-25T10:25:51.000Z</time>
      </trkpt>
      <trkpt lat="44.6362" lon="5.19981">
        <ele>1612</ele>
        <time>2026-05-25T10:25:52.000Z</time>
      </trkpt>
      <trkpt lat="44.6362" lon="5.19982">
        <ele>1613</ele>
        <time>2026-05-25T10:25:53.000Z</time>
      </trkpt>
      <trkpt lat="44.6362" lon="5.19983">
        <ele>1613</ele>
        <time>2026-05-25T10:25:54.000Z</time>
      </trkpt>
      <trkpt lat="44.6362" lon="5.19984">
        <ele>1613</ele>
        <time>2026-05-25T10:25:55.000Z</time>
      </trkpt>
      <trkpt lat="44.6362" lon="5.19986">
        <ele>1613</ele>
        <time>2026-05-25T10:25:56.000Z</time>
      </trkpt>
      <trkpt lat="44.6362" lon="5.19987">
        <ele>1614</ele>
        <time>2026-05-25T10:25:57.000Z</time>
      </trkpt>
      <trkpt lat="44.6362" lon="5.19988">
        <ele>1614</ele>
        <time>2026-05-25T10:25:58.000Z</time>
      </trkpt>
      <trkpt lat="44.63619" lon="5.19989">
        <ele>1615</ele>
        <time>2026-05-25T10:25:59.000Z</time>
      </trkpt>
      <trkpt lat="44.63619" lon="5.19989">
        <ele>1615</ele>
        <time>2026-05-25T10:26:00.000Z</time>
      </trkpt>
      <trkpt lat="44.63619" lon="5.1999">
        <ele>1616</ele>
        <time>2026-05-25T10:26:01.000Z</time>
      </trkpt>
      <trkpt lat="44.63619" lon="5.19991">
        <ele>1616</ele>
        <time>2026-05-25T10:26:02.000Z</time>
      </trkpt>
      <trkpt lat="44.6362" lon="5.19993">
        <ele>1617</ele>
        <time>2026-05-25T10:26:03.000Z</time>
      </trkpt>
      <trkpt lat="44.6362" lon="5.19993">
        <ele>1617</ele>
        <time>2026-05-25T10:26:04.000Z</time>
      </trkpt>
      <trkpt lat="44.63619" lon="5.19994">
        <ele>1617</ele>
        <time>2026-05-25T10:26:05.000Z</time>
      </trkpt>
      <trkpt lat="44.63619" lon="5.19995">
        <ele>1617</ele>
        <time>2026-05-25T10:26:06.000Z</time>
      </trkpt>
      <trkpt lat="44.63619" lon="5.19996">
        <ele>1617</ele>
        <time>2026-05-25T10:26:07.000Z</time>
      </trkpt>
      <trkpt lat="44.63619" lon="5.19997">
        <ele>1618</ele>
        <time>2026-05-25T10:26:08.000Z</time>
      </trkpt>
      <trkpt lat="44.63619" lon="5.19998">
        <ele>1618</ele>
        <time>2026-05-25T10:26:09.000Z</time>
      </trkpt>
      <trkpt lat="44.63619" lon="5.19999">
        <ele>1618</ele>
        <time>2026-05-25T10:26:10.000Z</time>
      </trkpt>
      <trkpt lat="44.63618" lon="5.19999">
        <ele>1619</ele>
        <time>2026-05-25T10:26:11.000Z</time>
      </trkpt>
      <trkpt lat="44.63618" lon="5.2">
        <ele>1619</ele>
        <time>2026-05-25T10:26:12.000Z</time>
      </trkpt>
      <trkpt lat="44.63617" lon="5.20001">
        <ele>1619</ele>
        <time>2026-05-25T10:26:13.000Z</time>
      </trkpt>
      <trkpt lat="44.63617" lon="5.20003">
        <ele>1619</ele>
        <time>2026-05-25T10:26:14.000Z</time>
      </trkpt>
      <trkpt lat="44.63617" lon="5.20004">
        <ele>1619</ele>
        <time>2026-05-25T10:26:15.000Z</time>
      </trkpt>
      <trkpt lat="44.63617" lon="5.20005">
        <ele>1619</ele>
        <time>2026-05-25T10:26:16.000Z</time>
      </trkpt>
      <trkpt lat="44.63616" lon="5.20006">
        <ele>1619</ele>
        <time>2026-05-25T10:26:17.000Z</time>
      </trkpt>
      <trkpt lat="44.63616" lon="5.20007">
        <ele>1620</ele>
        <time>2026-05-25T10:26:18.000Z</time>
      </trkpt>
      <trkpt lat="44.63615" lon="5.20008">
        <ele>1620</ele>
        <time>2026-05-25T10:26:19.000Z</time>
      </trkpt>
      <trkpt lat="44.63614" lon="5.2001">
        <ele>1619</ele>
        <time>2026-05-25T10:26:20.000Z</time>
      </trkpt>
      <trkpt lat="44.63614" lon="5.20011">
        <ele>1618</ele>
        <time>2026-05-25T10:26:21.000Z</time>
      </trkpt>
      <trkpt lat="44.63614" lon="5.20012">
        <ele>1618</ele>
        <time>2026-05-25T10:26:22.000Z</time>
      </trkpt>
      <trkpt lat="44.63614" lon="5.20013">
        <ele>1619</ele>
        <time>2026-05-25T10:26:23.000Z</time>
      </trkpt>
      <trkpt lat="44.63613" lon="5.20015">
        <ele>1619</ele>
        <time>2026-05-25T10:26:24.000Z</time>
      </trkpt>
      <trkpt lat="44.63613" lon="5.20016">
        <ele>1619</ele>
        <time>2026-05-25T10:26:25.000Z</time>
      </trkpt>
      <trkpt lat="44.63612" lon="5.20017">
        <ele>1619</ele>
        <time>2026-05-25T10:26:26.000Z</time>
      </trkpt>
      <trkpt lat="44.63612" lon="5.20018">
        <ele>1619</ele>
        <time>2026-05-25T10:26:27.000Z</time>
      </trkpt>
      <trkpt lat="44.63612" lon="5.20019">
        <ele>1619</ele>
        <time>2026-05-25T10:26:28.000Z</time>
      </trkpt>
      <trkpt lat="44.63611" lon="5.20021">
        <ele>1620</ele>
        <time>2026-05-25T10:26:29.000Z</time>
      </trkpt>
      <trkpt lat="44.63611" lon="5.20021">
        <ele>1621</ele>
        <time>2026-05-25T10:26:30.000Z</time>
      </trkpt>
      <trkpt lat="44.6361" lon="5.20021">
        <ele>1622</ele>
        <time>2026-05-25T10:26:31.000Z</time>
      </trkpt>
      <trkpt lat="44.6361" lon="5.20023">
        <ele>1622</ele>
        <time>2026-05-25T10:26:32.000Z</time>
      </trkpt>
      <trkpt lat="44.6361" lon="5.20024">
        <ele>1622</ele>
        <time>2026-05-25T10:26:33.000Z</time>
      </trkpt>
      <trkpt lat="44.6361" lon="5.20026">
        <ele>1622</ele>
        <time>2026-05-25T10:26:34.000Z</time>
      </trkpt>
      <trkpt lat="44.63609" lon="5.20027">
        <ele>1623</ele>
        <time>2026-05-25T10:26:35.000Z</time>
      </trkpt>
      <trkpt lat="44.63609" lon="5.20028">
        <ele>1623</ele>
        <time>2026-05-25T10:26:36.000Z</time>
      </trkpt>
      <trkpt lat="44.63609" lon="5.20029">
        <ele>1623</ele>
        <time>2026-05-25T10:26:37.000Z</time>
      </trkpt>
      <trkpt lat="44.63608" lon="5.2003">
        <ele>1624</ele>
        <time>2026-05-25T10:26:38.000Z</time>
      </trkpt>
      <trkpt lat="44.63608" lon="5.20031">
        <ele>1625</ele>
        <time>2026-05-25T10:26:39.000Z</time>
      </trkpt>
      <trkpt lat="44.63608" lon="5.20032">
        <ele>1625</ele>
        <time>2026-05-25T10:26:40.000Z</time>
      </trkpt>
      <trkpt lat="44.63607" lon="5.20032">
        <ele>1625</ele>
        <time>2026-05-25T10:26:41.000Z</time>
      </trkpt>
      <trkpt lat="44.63607" lon="5.20033">
        <ele>1624</ele>
        <time>2026-05-25T10:26:42.000Z</time>
      </trkpt>
      <trkpt lat="44.63607" lon="5.20035">
        <ele>1625</ele>
        <time>2026-05-25T10:26:43.000Z</time>
      </trkpt>
      <trkpt lat="44.63606" lon="5.20035">
        <ele>1625</ele>
        <time>2026-05-25T10:26:44.000Z</time>
      </trkpt>
      <trkpt lat="44.63606" lon="5.20036">
        <ele>1625</ele>
        <time>2026-05-25T10:26:45.000Z</time>
      </trkpt>
      <trkpt lat="44.63606" lon="5.20037">
        <ele>1625</ele>
        <time>2026-05-25T10:26:46.000Z</time>
      </trkpt>
      <trkpt lat="44.63606" lon="5.20038">
        <ele>1626</ele>
        <time>2026-05-25T10:26:47.000Z</time>
      </trkpt>
      <trkpt lat="44.63605" lon="5.20039">
        <ele>1626</ele>
        <time>2026-05-25T10:26:48.000Z</time>
      </trkpt>
      <trkpt lat="44.63606" lon="5.2004">
        <ele>1626</ele>
        <time>2026-05-25T10:26:49.000Z</time>
      </trkpt>
      <trkpt lat="44.63605" lon="5.20042">
        <ele>1626</ele>
        <time>2026-05-25T10:26:50.000Z</time>
      </trkpt>
      <trkpt lat="44.63605" lon="5.20043">
        <ele>1626</ele>
        <time>2026-05-25T10:26:51.000Z</time>
      </trkpt>
      <trkpt lat="44.63605" lon="5.20044">
        <ele>1626</ele>
        <time>2026-05-25T10:26:52.000Z</time>
      </trkpt>
      <trkpt lat="44.63605" lon="5.20045">
        <ele>1626</ele>
        <time>2026-05-25T10:26:53.000Z</time>
      </trkpt>
      <trkpt lat="44.63605" lon="5.20046">
        <ele>1626</ele>
        <time>2026-05-25T10:26:54.000Z</time>
      </trkpt>
      <trkpt lat="44.63605" lon="5.20047">
        <ele>1626</ele>
        <time>2026-05-25T10:26:55.000Z</time>
      </trkpt>
      <trkpt lat="44.63605" lon="5.20047">
        <ele>1626</ele>
        <time>2026-05-25T10:26:56.000Z</time>
      </trkpt>
      <trkpt lat="44.63604" lon="5.20048">
        <ele>1626</ele>
        <time>2026-05-25T10:26:57.000Z</time>
      </trkpt>
      <trkpt lat="44.63604" lon="5.20048">
        <ele>1627</ele>
        <time>2026-05-25T10:26:58.000Z</time>
      </trkpt>
      <trkpt lat="44.63604" lon="5.20049">
        <ele>1627</ele>
        <time>2026-05-25T10:26:59.000Z</time>
      </trkpt>
      <trkpt lat="44.63604" lon="5.20051">
        <ele>1627</ele>
        <time>2026-05-25T10:27:00.000Z</time>
      </trkpt>
      <trkpt lat="44.63604" lon="5.20052">
        <ele>1627</ele>
        <time>2026-05-25T10:27:01.000Z</time>
      </trkpt>
      <trkpt lat="44.63604" lon="5.20053">
        <ele>1627</ele>
        <time>2026-05-25T10:27:02.000Z</time>
      </trkpt>
      <trkpt lat="44.63603" lon="5.20054">
        <ele>1627</ele>
        <time>2026-05-25T10:27:03.000Z</time>
      </trkpt>
      <trkpt lat="44.63603" lon="5.20055">
        <ele>1628</ele>
        <time>2026-05-25T10:27:04.000Z</time>
      </trkpt>
      <trkpt lat="44.63604" lon="5.20056">
        <ele>1627</ele>
        <time>2026-05-25T10:27:05.000Z</time>
      </trkpt>
      <trkpt lat="44.63604" lon="5.20056">
        <ele>1627</ele>
        <time>2026-05-25T10:27:06.000Z</time>
      </trkpt>
      <trkpt lat="44.63605" lon="5.20056">
        <ele>1627</ele>
        <time>2026-05-25T10:27:07.000Z</time>
      </trkpt>
      <trkpt lat="44.63606" lon="5.20055">
        <ele>1629</ele>
        <time>2026-05-25T10:27:08.000Z</time>
      </trkpt>
      <trkpt lat="44.63607" lon="5.20054">
        <ele>1629</ele>
        <time>2026-05-25T10:27:09.000Z</time>
      </trkpt>
      <trkpt lat="44.63608" lon="5.20052">
        <ele>1629</ele>
        <time>2026-05-25T10:27:10.000Z</time>
      </trkpt>
      <trkpt lat="44.63608" lon="5.20051">
        <ele>1630</ele>
        <time>2026-05-25T10:27:11.000Z</time>
      </trkpt>
      <trkpt lat="44.63609" lon="5.20051">
        <ele>1630</ele>
        <time>2026-05-25T10:27:12.000Z</time>
      </trkpt>
      <trkpt lat="44.6361" lon="5.20052">
        <ele>1630</ele>
        <time>2026-05-25T10:27:13.000Z</time>
      </trkpt>
      <trkpt lat="44.63611" lon="5.20052">
        <ele>1630</ele>
        <time>2026-05-25T10:27:14.000Z</time>
      </trkpt>
      <trkpt lat="44.63612" lon="5.20051">
        <ele>1630</ele>
        <time>2026-05-25T10:27:15.000Z</time>
      </trkpt>
      <trkpt lat="44.63612" lon="5.2005">
        <ele>1631</ele>
        <time>2026-05-25T10:27:16.000Z</time>
      </trkpt>
      <trkpt lat="44.63613" lon="5.2005">
        <ele>1631</ele>
        <time>2026-05-25T10:27:17.000Z</time>
      </trkpt>
      <trkpt lat="44.63614" lon="5.2005">
        <ele>1631</ele>
        <time>2026-05-25T10:27:18.000Z</time>
      </trkpt>
      <trkpt lat="44.63614" lon="5.20049">
        <ele>1632</ele>
        <time>2026-05-25T10:27:19.000Z</time>
      </trkpt>
      <trkpt lat="44.63615" lon="5.20049">
        <ele>1632</ele>
        <time>2026-05-25T10:27:20.000Z</time>
      </trkpt>
      <trkpt lat="44.63616" lon="5.20049">
        <ele>1632</ele>
        <time>2026-05-25T10:27:21.000Z</time>
      </trkpt>
      <trkpt lat="44.63617" lon="5.20049">
        <ele>1632</ele>
        <time>2026-05-25T10:27:22.000Z</time>
      </trkpt>
      <trkpt lat="44.63618" lon="5.20048">
        <ele>1632</ele>
        <time>2026-05-25T10:27:23.000Z</time>
      </trkpt>
      <trkpt lat="44.63619" lon="5.20048">
        <ele>1632</ele>
        <time>2026-05-25T10:27:24.000Z</time>
      </trkpt>
      <trkpt lat="44.6362" lon="5.20047">
        <ele>1632</ele>
        <time>2026-05-25T10:27:25.000Z</time>
      </trkpt>
      <trkpt lat="44.63621" lon="5.20047">
        <ele>1633</ele>
        <time>2026-05-25T10:27:26.000Z</time>
      </trkpt>
      <trkpt lat="44.63622" lon="5.20047">
        <ele>1633</ele>
        <time>2026-05-25T10:27:27.000Z</time>
      </trkpt>
      <trkpt lat="44.63622" lon="5.20047">
        <ele>1633</ele>
        <time>2026-05-25T10:27:28.000Z</time>
      </trkpt>
      <trkpt lat="44.63623" lon="5.20047">
        <ele>1633</ele>
        <time>2026-05-25T10:27:29.000Z</time>
      </trkpt>
      <trkpt lat="44.63624" lon="5.20046">
        <ele>1634</ele>
        <time>2026-05-25T10:27:30.000Z</time>
      </trkpt>
      <trkpt lat="44.63625" lon="5.20045">
        <ele>1635</ele>
        <time>2026-05-25T10:27:31.000Z</time>
      </trkpt>
      <trkpt lat="44.63625" lon="5.20045">
        <ele>1634</ele>
        <time>2026-05-25T10:27:32.000Z</time>
      </trkpt>
      <trkpt lat="44.63626" lon="5.20045">
        <ele>1634</ele>
        <time>2026-05-25T10:27:33.000Z</time>
      </trkpt>
      <trkpt lat="44.63627" lon="5.20045">
        <ele>1634</ele>
        <time>2026-05-25T10:27:34.000Z</time>
      </trkpt>
      <trkpt lat="44.63627" lon="5.20045">
        <ele>1634</ele>
        <time>2026-05-25T10:27:35.000Z</time>
      </trkpt>
      <trkpt lat="44.63627" lon="5.20045">
        <ele>1634</ele>
        <time>2026-05-25T10:27:36.000Z</time>
      </trkpt>
      <trkpt lat="44.63627" lon="5.20045">
        <ele>1634</ele>
        <time>2026-05-25T10:27:37.000Z</time>
      </trkpt>
      <trkpt lat="44.63629" lon="5.20046">
        <ele>1634</ele>
        <time>2026-05-25T10:27:38.000Z</time>
      </trkpt>
      <trkpt lat="44.6363" lon="5.20046">
        <ele>1635</ele>
        <time>2026-05-25T10:27:39.000Z</time>
      </trkpt>
      <trkpt lat="44.63631" lon="5.20046">
        <ele>1635</ele>
        <time>2026-05-25T10:27:40.000Z</time>
      </trkpt>
      <trkpt lat="44.63631" lon="5.20045">
        <ele>1635</ele>
        <time>2026-05-25T10:27:41.000Z</time>
      </trkpt>
      <trkpt lat="44.63632" lon="5.20044">
        <ele>1634</ele>
        <time>2026-05-25T10:27:42.000Z</time>
      </trkpt>
      <trkpt lat="44.63633" lon="5.20044">
        <ele>1634</ele>
        <time>2026-05-25T10:27:43.000Z</time>
      </trkpt>
      <trkpt lat="44.63635" lon="5.20044">
        <ele>1635</ele>
        <time>2026-05-25T10:27:44.000Z</time>
      </trkpt>
      <trkpt lat="44.63636" lon="5.20044">
        <ele>1636</ele>
        <time>2026-05-25T10:27:45.000Z</time>
      </trkpt>
      <trkpt lat="44.63637" lon="5.20044">
        <ele>1636</ele>
        <time>2026-05-25T10:27:46.000Z</time>
      </trkpt>
      <trkpt lat="44.63638" lon="5.20044">
        <ele>1636</ele>
        <time>2026-05-25T10:27:47.000Z</time>
      </trkpt>
      <trkpt lat="44.63639" lon="5.20043">
        <ele>1636</ele>
        <time>2026-05-25T10:27:48.000Z</time>
      </trkpt>
      <trkpt lat="44.6364" lon="5.20043">
        <ele>1636</ele>
        <time>2026-05-25T10:27:49.000Z</time>
      </trkpt>
      <trkpt lat="44.63641" lon="5.20043">
        <ele>1636</ele>
        <time>2026-05-25T10:27:50.000Z</time>
      </trkpt>
      <trkpt lat="44.63641" lon="5.20043">
        <ele>1636</ele>
        <time>2026-05-25T10:27:51.000Z</time>
      </trkpt>
      <trkpt lat="44.63642" lon="5.20043">
        <ele>1636</ele>
        <time>2026-05-25T10:27:52.000Z</time>
      </trkpt>
      <trkpt lat="44.63643" lon="5.20043">
        <ele>1637</ele>
        <time>2026-05-25T10:27:53.000Z</time>
      </trkpt>
      <trkpt lat="44.63644" lon="5.20043">
        <ele>1637</ele>
        <time>2026-05-25T10:27:54.000Z</time>
      </trkpt>
      <trkpt lat="44.63644" lon="5.20044">
        <ele>1638</ele>
        <time>2026-05-25T10:27:55.000Z</time>
      </trkpt>
      <trkpt lat="44.63644" lon="5.20045">
        <ele>1639</ele>
        <time>2026-05-25T10:27:56.000Z</time>
      </trkpt>
      <trkpt lat="44.63644" lon="5.20046">
        <ele>1639</ele>
        <time>2026-05-25T10:27:57.000Z</time>
      </trkpt>
      <trkpt lat="44.63643" lon="5.20047">
        <ele>1640</ele>
        <time>2026-05-25T10:27:58.000Z</time>
      </trkpt>
      <trkpt lat="44.63643" lon="5.20048">
        <ele>1640</ele>
        <time>2026-05-25T10:27:59.000Z</time>
      </trkpt>
      <trkpt lat="44.63643" lon="5.20049">
        <ele>1641</ele>
        <time>2026-05-25T10:28:00.000Z</time>
      </trkpt>
      <trkpt lat="44.63643" lon="5.2005">
        <ele>1641</ele>
        <time>2026-05-25T10:28:01.000Z</time>
      </trkpt>
      <trkpt lat="44.63643" lon="5.20051">
        <ele>1641</ele>
        <time>2026-05-25T10:28:02.000Z</time>
      </trkpt>
      <trkpt lat="44.63643" lon="5.20052">
        <ele>1641</ele>
        <time>2026-05-25T10:28:03.000Z</time>
      </trkpt>
      <trkpt lat="44.63643" lon="5.20053">
        <ele>1642</ele>
        <time>2026-05-25T10:28:04.000Z</time>
      </trkpt>
      <trkpt lat="44.63643" lon="5.20053">
        <ele>1642</ele>
        <time>2026-05-25T10:28:05.000Z</time>
      </trkpt>
      <trkpt lat="44.63644" lon="5.20052">
        <ele>1642</ele>
        <time>2026-05-25T10:28:06.000Z</time>
      </trkpt>
      <trkpt lat="44.63645" lon="5.20052">
        <ele>1642</ele>
        <time>2026-05-25T10:28:07.000Z</time>
      </trkpt>
      <trkpt lat="44.63645" lon="5.20051">
        <ele>1642</ele>
        <time>2026-05-25T10:28:08.000Z</time>
      </trkpt>
      <trkpt lat="44.63646" lon="5.2005">
        <ele>1642</ele>
        <time>2026-05-25T10:28:09.000Z</time>
      </trkpt>
      <trkpt lat="44.63646" lon="5.2005">
        <ele>1642</ele>
        <time>2026-05-25T10:28:10.000Z</time>
      </trkpt>
      <trkpt lat="44.63646" lon="5.20048">
        <ele>1643</ele>
        <time>2026-05-25T10:28:11.000Z</time>
      </trkpt>
      <trkpt lat="44.63647" lon="5.20047">
        <ele>1642</ele>
        <time>2026-05-25T10:28:12.000Z</time>
      </trkpt>
      <trkpt lat="44.63647" lon="5.20047">
        <ele>1642</ele>
        <time>2026-05-25T10:28:13.000Z</time>
      </trkpt>
      <trkpt lat="44.63647" lon="5.20047">
        <ele>1643</ele>
        <time>2026-05-25T10:28:14.000Z</time>
      </trkpt>
      <trkpt lat="44.63648" lon="5.20049">
        <ele>1643</ele>
        <time>2026-05-25T10:28:15.000Z</time>
      </trkpt>
      <trkpt lat="44.63648" lon="5.2005">
        <ele>1643</ele>
        <time>2026-05-25T10:28:16.000Z</time>
      </trkpt>
      <trkpt lat="44.63648" lon="5.20051">
        <ele>1643</ele>
        <time>2026-05-25T10:28:17.000Z</time>
      </trkpt>
      <trkpt lat="44.63648" lon="5.20051">
        <ele>1643</ele>
        <time>2026-05-25T10:28:18.000Z</time>
      </trkpt>
      <trkpt lat="44.63648" lon="5.20051">
        <ele>1643</ele>
        <time>2026-05-25T10:28:19.000Z</time>
      </trkpt>
      <trkpt lat="44.63648" lon="5.20051">
        <ele>1643</ele>
        <time>2026-05-25T10:28:20.000Z</time>
      </trkpt>
      <trkpt lat="44.63648" lon="5.20051">
        <ele>1643</ele>
        <time>2026-05-25T10:28:21.000Z</time>
      </trkpt>
      <trkpt lat="44.63648" lon="5.20051">
        <ele>1643</ele>
        <time>2026-05-25T10:28:22.000Z</time>
      </trkpt>
      <trkpt lat="44.63648" lon="5.20051">
        <ele>1643</ele>
        <time>2026-05-25T10:28:23.000Z</time>
      </trkpt>
      <trkpt lat="44.63648" lon="5.20051">
        <ele>1643</ele>
        <time>2026-05-25T10:28:24.000Z</time>
      </trkpt>
      <trkpt lat="44.63648" lon="5.20051">
        <ele>1643</ele>
        <time>2026-05-25T10:28:25.000Z</time>
      </trkpt>
      <trkpt lat="44.63648" lon="5.20051">
        <ele>1643</ele>
        <time>2026-05-25T10:28:26.000Z</time>
      </trkpt>
      <trkpt lat="44.63648" lon="5.20051">
        <ele>1643</ele>
        <time>2026-05-25T10:28:27.000Z</time>
      </trkpt>
      <trkpt lat="44.63648" lon="5.20051">
        <ele>1643</ele>
        <time>2026-05-25T10:28:28.000Z</time>
      </trkpt>
      <trkpt lat="44.63648" lon="5.20051">
        <ele>1643</ele>
        <time>2026-05-25T10:28:29.000Z</time>
      </trkpt>
      <trkpt lat="44.63648" lon="5.20051">
        <ele>1643</ele>
        <time>2026-05-25T10:28:30.000Z</time>
      </trkpt>
      <trkpt lat="44.63648" lon="5.20051">
        <ele>1643</ele>
        <time>2026-05-25T10:28:31.000Z</time>
      </trkpt>
      <trkpt lat="44.63648" lon="5.20051">
        <ele>1644</ele>
        <time>2026-05-25T10:28:32.000Z</time>
      </trkpt>
      <trkpt lat="44.63648" lon="5.20051">
        <ele>1644</ele>
        <time>2026-05-25T10:28:33.000Z</time>
      </trkpt>
      <trkpt lat="44.63648" lon="5.20051">
        <ele>1644</ele>
        <time>2026-05-25T10:28:34.000Z</time>
      </trkpt>
      <trkpt lat="44.63648" lon="5.2005">
        <ele>1644</ele>
        <time>2026-05-25T10:28:35.000Z</time>
      </trkpt>
      <trkpt lat="44.63648" lon="5.2005">
        <ele>1644</ele>
        <time>2026-05-25T10:28:36.000Z</time>
      </trkpt>
      <trkpt lat="44.63648" lon="5.2005">
        <ele>1644</ele>
        <time>2026-05-25T10:28:37.000Z</time>
      </trkpt>
      <trkpt lat="44.63648" lon="5.2005">
        <ele>1644</ele>
        <time>2026-05-25T10:28:38.000Z</time>
      </trkpt>
      <trkpt lat="44.63648" lon="5.2005">
        <ele>1644</ele>
        <time>2026-05-25T10:28:39.000Z</time>
      </trkpt>
      <trkpt lat="44.63648" lon="5.2005">
        <ele>1644</ele>
        <time>2026-05-25T10:28:40.000Z</time>
      </trkpt>
      <trkpt lat="44.63648" lon="5.20048">
        <ele>1644</ele>
        <time>2026-05-25T10:28:41.000Z</time>
      </trkpt>
      <trkpt lat="44.63649" lon="5.20048">
        <ele>1643</ele>
        <time>2026-05-25T10:28:42.000Z</time>
      </trkpt>
      <trkpt lat="44.63649" lon="5.20047">
        <ele>1644</ele>
        <time>2026-05-25T10:28:43.000Z</time>
      </trkpt>
      <trkpt lat="44.63649" lon="5.20046">
        <ele>1644</ele>
        <time>2026-05-25T10:28:44.000Z</time>
      </trkpt>
      <trkpt lat="44.63649" lon="5.20046">
        <ele>1644</ele>
        <time>2026-05-25T10:28:45.000Z</time>
      </trkpt>
      <trkpt lat="44.63649" lon="5.20046">
        <ele>1644</ele>
        <time>2026-05-25T10:28:46.000Z</time>
      </trkpt>
      <trkpt lat="44.6365" lon="5.20044">
        <ele>1644</ele>
        <time>2026-05-25T10:28:47.000Z</time>
      </trkpt>
      <trkpt lat="44.6365" lon="5.20044">
        <ele>1644</ele>
        <time>2026-05-25T10:28:48.000Z</time>
      </trkpt>
      <trkpt lat="44.6365" lon="5.20044">
        <ele>1644</ele>
        <time>2026-05-25T10:28:49.000Z</time>
      </trkpt>
      <trkpt lat="44.6365" lon="5.20044">
        <ele>1644</ele>
        <time>2026-05-25T10:28:50.000Z</time>
      </trkpt>
      <trkpt lat="44.6365" lon="5.20044">
        <ele>1644</ele>
        <time>2026-05-25T10:28:51.000Z</time>
      </trkpt>
      <trkpt lat="44.6365" lon="5.20044">
        <ele>1644</ele>
        <time>2026-05-25T10:28:52.000Z</time>
      </trkpt>
      <trkpt lat="44.6365" lon="5.20044">
        <ele>1644</ele>
        <time>2026-05-25T10:28:53.000Z</time>
      </trkpt>
      <trkpt lat="44.6365" lon="5.20044">
        <ele>1644</ele>
        <time>2026-05-25T10:28:54.000Z</time>
      </trkpt>
      <trkpt lat="44.6365" lon="5.20044">
        <ele>1644</ele>
        <time>2026-05-25T10:28:55.000Z</time>
      </trkpt>
      <trkpt lat="44.6365" lon="5.20044">
        <ele>1644</ele>
        <time>2026-05-25T10:28:56.000Z</time>
      </trkpt>
      <trkpt lat="44.6365" lon="5.20044">
        <ele>1644</ele>
        <time>2026-05-25T10:28:57.000Z</time>
      </trkpt>
      <trkpt lat="44.6365" lon="5.20044">
        <ele>1644</ele>
        <time>2026-05-25T10:28:58.000Z</time>
      </trkpt>
      <trkpt lat="44.6365" lon="5.20044">
        <ele>1644</ele>
        <time>2026-05-25T10:28:59.000Z</time>
      </trkpt>
      <trkpt lat="44.6365" lon="5.20044">
        <ele>1644</ele>
        <time>2026-05-25T10:29:00.000Z</time>
      </trkpt>
      <trkpt lat="44.6365" lon="5.20044">
        <ele>1644</ele>
        <time>2026-05-25T10:29:01.000Z</time>
      </trkpt>
      <trkpt lat="44.6365" lon="5.20044">
        <ele>1644</ele>
        <time>2026-05-25T10:29:02.000Z</time>
      </trkpt>
      <trkpt lat="44.6365" lon="5.20044">
        <ele>1644</ele>
        <time>2026-05-25T10:29:03.000Z</time>
      </trkpt>
      <trkpt lat="44.6365" lon="5.20044">
        <ele>1644</ele>
        <time>2026-05-25T10:29:04.000Z</time>
      </trkpt>
      <trkpt lat="44.6365" lon="5.20044">
        <ele>1644</ele>
        <time>2026-05-25T10:29:05.000Z</time>
      </trkpt>
      <trkpt lat="44.6365" lon="5.20044">
        <ele>1644</ele>
        <time>2026-05-25T10:29:06.000Z</time>
      </trkpt>
      <trkpt lat="44.6365" lon="5.20044">
        <ele>1644</ele>
        <time>2026-05-25T10:29:07.000Z</time>
      </trkpt>
      <trkpt lat="44.6365" lon="5.20044">
        <ele>1644</ele>
        <time>2026-05-25T10:29:08.000Z</time>
      </trkpt>
      <trkpt lat="44.6365" lon="5.20044">
        <ele>1644</ele>
        <time>2026-05-25T10:29:09.000Z</time>
      </trkpt>
      <trkpt lat="44.6365" lon="5.20044">
        <ele>1644</ele>
        <time>2026-05-25T10:29:10.000Z</time>
      </trkpt>
      <trkpt lat="44.6365" lon="5.20044">
        <ele>1644</ele>
        <time>2026-05-25T10:29:11.000Z</time>
      </trkpt>
      <trkpt lat="44.6365" lon="5.20044">
        <ele>1644</ele>
        <time>2026-05-25T10:29:12.000Z</time>
      </trkpt>
      <trkpt lat="44.6365" lon="5.20044">
        <ele>1644</ele>
        <time>2026-05-25T10:29:13.000Z</time>
      </trkpt>
      <trkpt lat="44.6365" lon="5.20043">
        <ele>1644</ele>
        <time>2026-05-25T10:29:14.000Z</time>
      </trkpt>
      <trkpt lat="44.63651" lon="5.20042">
        <ele>1645</ele>
        <time>2026-05-25T10:29:15.000Z</time>
      </trkpt>
      <trkpt lat="44.63651" lon="5.20041">
        <ele>1645</ele>
        <time>2026-05-25T10:29:16.000Z</time>
      </trkpt>
      <trkpt lat="44.63652" lon="5.2004">
        <ele>1644</ele>
        <time>2026-05-25T10:29:17.000Z</time>
      </trkpt>
      <trkpt lat="44.63652" lon="5.20038">
        <ele>1644</ele>
        <time>2026-05-25T10:29:18.000Z</time>
      </trkpt>
      <trkpt lat="44.63653" lon="5.20037">
        <ele>1644</ele>
        <time>2026-05-25T10:29:19.000Z</time>
      </trkpt>
      <trkpt lat="44.63654" lon="5.20035">
        <ele>1643</ele>
        <time>2026-05-25T10:29:20.000Z</time>
      </trkpt>
      <trkpt lat="44.63655" lon="5.20035">
        <ele>1643</ele>
        <time>2026-05-25T10:29:21.000Z</time>
      </trkpt>
      <trkpt lat="44.63655" lon="5.20034">
        <ele>1643</ele>
        <time>2026-05-25T10:29:22.000Z</time>
      </trkpt>
      <trkpt lat="44.63656" lon="5.20033">
        <ele>1642</ele>
        <time>2026-05-25T10:29:23.000Z</time>
      </trkpt>
      <trkpt lat="44.63657" lon="5.20031">
        <ele>1642</ele>
        <time>2026-05-25T10:29:24.000Z</time>
      </trkpt>
      <trkpt lat="44.63657" lon="5.20029">
        <ele>1641</ele>
        <time>2026-05-25T10:29:25.000Z</time>
      </trkpt>
      <trkpt lat="44.63658" lon="5.20028">
        <ele>1641</ele>
        <time>2026-05-25T10:29:26.000Z</time>
      </trkpt>
      <trkpt lat="44.63659" lon="5.20028">
        <ele>1641</ele>
        <time>2026-05-25T10:29:27.000Z</time>
      </trkpt>
      <trkpt lat="44.6366" lon="5.20026">
        <ele>1640</ele>
        <time>2026-05-25T10:29:28.000Z</time>
      </trkpt>
      <trkpt lat="44.63661" lon="5.20025">
        <ele>1640</ele>
        <time>2026-05-25T10:29:29.000Z</time>
      </trkpt>
      <trkpt lat="44.63661" lon="5.20025">
        <ele>1640</ele>
        <time>2026-05-25T10:29:30.000Z</time>
      </trkpt>
      <trkpt lat="44.63661" lon="5.20024">
        <ele>1639</ele>
        <time>2026-05-25T10:29:31.000Z</time>
      </trkpt>
      <trkpt lat="44.63661" lon="5.20024">
        <ele>1640</ele>
        <time>2026-05-25T10:29:32.000Z</time>
      </trkpt>
      <trkpt lat="44.63661" lon="5.20024">
        <ele>1640</ele>
        <time>2026-05-25T10:29:33.000Z</time>
      </trkpt>
      <trkpt lat="44.63661" lon="5.20024">
        <ele>1640</ele>
        <time>2026-05-25T10:29:34.000Z</time>
      </trkpt>
      <trkpt lat="44.63661" lon="5.20024">
        <ele>1640</ele>
        <time>2026-05-25T10:29:35.000Z</time>
      </trkpt>
      <trkpt lat="44.63661" lon="5.20024">
        <ele>1640</ele>
        <time>2026-05-25T10:29:36.000Z</time>
      </trkpt>
      <trkpt lat="44.63661" lon="5.20024">
        <ele>1640</ele>
        <time>2026-05-25T10:29:37.000Z</time>
      </trkpt>
      <trkpt lat="44.6366" lon="5.20024">
        <ele>1639</ele>
        <time>2026-05-25T10:29:38.000Z</time>
      </trkpt>
      <trkpt lat="44.63659" lon="5.20023">
        <ele>1639</ele>
        <time>2026-05-25T10:29:39.000Z</time>
      </trkpt>
      <trkpt lat="44.63658" lon="5.20022">
        <ele>1639</ele>
        <time>2026-05-25T10:29:40.000Z</time>
      </trkpt>
      <trkpt lat="44.63658" lon="5.20022">
        <ele>1639</ele>
        <time>2026-05-25T10:29:41.000Z</time>
      </trkpt>
      <trkpt lat="44.63658" lon="5.20021">
        <ele>1639</ele>
        <time>2026-05-25T10:29:42.000Z</time>
      </trkpt>
      <trkpt lat="44.63658" lon="5.20021">
        <ele>1639</ele>
        <time>2026-05-25T10:29:43.000Z</time>
      </trkpt>
      <trkpt lat="44.63658" lon="5.20021">
        <ele>1639</ele>
        <time>2026-05-25T10:29:44.000Z</time>
      </trkpt>
      <trkpt lat="44.63658" lon="5.20021">
        <ele>1638</ele>
        <time>2026-05-25T10:29:45.000Z</time>
      </trkpt>
      <trkpt lat="44.63658" lon="5.20021">
        <ele>1638</ele>
        <time>2026-05-25T10:29:46.000Z</time>
      </trkpt>
      <trkpt lat="44.63658" lon="5.20021">
        <ele>1638</ele>
        <time>2026-05-25T10:29:47.000Z</time>
      </trkpt>
      <trkpt lat="44.63658" lon="5.20021">
        <ele>1639</ele>
        <time>2026-05-25T10:29:48.000Z</time>
      </trkpt>
      <trkpt lat="44.63659" lon="5.20022">
        <ele>1639</ele>
        <time>2026-05-25T10:29:49.000Z</time>
      </trkpt>
      <trkpt lat="44.63659" lon="5.20022">
        <ele>1639</ele>
        <time>2026-05-25T10:29:50.000Z</time>
      </trkpt>
      <trkpt lat="44.63659" lon="5.20022">
        <ele>1638</ele>
        <time>2026-05-25T10:29:51.000Z</time>
      </trkpt>
      <trkpt lat="44.63659" lon="5.20023">
        <ele>1638</ele>
        <time>2026-05-25T10:29:52.000Z</time>
      </trkpt>
      <trkpt lat="44.63658" lon="5.20024">
        <ele>1638</ele>
        <time>2026-05-25T10:29:53.000Z</time>
      </trkpt>
      <trkpt lat="44.63658" lon="5.20025">
        <ele>1638</ele>
        <time>2026-05-25T10:29:54.000Z</time>
      </trkpt>
      <trkpt lat="44.63657" lon="5.20025">
        <ele>1639</ele>
        <time>2026-05-25T10:29:55.000Z</time>
      </trkpt>
      <trkpt lat="44.63656" lon="5.20026">
        <ele>1639</ele>
        <time>2026-05-25T10:29:56.000Z</time>
      </trkpt>
      <trkpt lat="44.63655" lon="5.20027">
        <ele>1639</ele>
        <time>2026-05-25T10:29:57.000Z</time>
      </trkpt>
      <trkpt lat="44.63655" lon="5.20028">
        <ele>1639</ele>
        <time>2026-05-25T10:29:58.000Z</time>
      </trkpt>
      <trkpt lat="44.63655" lon="5.20028">
        <ele>1639</ele>
        <time>2026-05-25T10:29:59.000Z</time>
      </trkpt>
      <trkpt lat="44.63654" lon="5.20029">
        <ele>1639</ele>
        <time>2026-05-25T10:30:00.000Z</time>
      </trkpt>
      <trkpt lat="44.63654" lon="5.20031">
        <ele>1639</ele>
        <time>2026-05-25T10:30:01.000Z</time>
      </trkpt>
      <trkpt lat="44.63654" lon="5.20032">
        <ele>1639</ele>
        <time>2026-05-25T10:30:02.000Z</time>
      </trkpt>
      <trkpt lat="44.63653" lon="5.20033">
        <ele>1639</ele>
        <time>2026-05-25T10:30:03.000Z</time>
      </trkpt>
      <trkpt lat="44.63653" lon="5.20034">
        <ele>1639</ele>
        <time>2026-05-25T10:30:04.000Z</time>
      </trkpt>
      <trkpt lat="44.63652" lon="5.20034">
        <ele>1639</ele>
        <time>2026-05-25T10:30:05.000Z</time>
      </trkpt>
      <trkpt lat="44.63652" lon="5.20036">
        <ele>1639</ele>
        <time>2026-05-25T10:30:06.000Z</time>
      </trkpt>
      <trkpt lat="44.63652" lon="5.20037">
        <ele>1639</ele>
        <time>2026-05-25T10:30:07.000Z</time>
      </trkpt>
      <trkpt lat="44.63652" lon="5.20038">
        <ele>1639</ele>
        <time>2026-05-25T10:30:08.000Z</time>
      </trkpt>
      <trkpt lat="44.63651" lon="5.20039">
        <ele>1640</ele>
        <time>2026-05-25T10:30:09.000Z</time>
      </trkpt>
      <trkpt lat="44.63651" lon="5.2004">
        <ele>1640</ele>
        <time>2026-05-25T10:30:10.000Z</time>
      </trkpt>
      <trkpt lat="44.63651" lon="5.20041">
        <ele>1640</ele>
        <time>2026-05-25T10:30:11.000Z</time>
      </trkpt>
      <trkpt lat="44.63651" lon="5.20042">
        <ele>1641</ele>
        <time>2026-05-25T10:30:12.000Z</time>
      </trkpt>
      <trkpt lat="44.63651" lon="5.20043">
        <ele>1641</ele>
        <time>2026-05-25T10:30:13.000Z</time>
      </trkpt>
      <trkpt lat="44.6365" lon="5.20044">
        <ele>1641</ele>
        <time>2026-05-25T10:30:14.000Z</time>
      </trkpt>
      <trkpt lat="44.6365" lon="5.20044">
        <ele>1640</ele>
        <time>2026-05-25T10:30:15.000Z</time>
      </trkpt>
      <trkpt lat="44.6365" lon="5.20044">
        <ele>1641</ele>
        <time>2026-05-25T10:30:16.000Z</time>
      </trkpt>
      <trkpt lat="44.6365" lon="5.20044">
        <ele>1641</ele>
        <time>2026-05-25T10:30:17.000Z</time>
      </trkpt>
      <trkpt lat="44.6365" lon="5.20044">
        <ele>1641</ele>
        <time>2026-05-25T10:30:18.000Z</time>
      </trkpt>
      <trkpt lat="44.6365" lon="5.20044">
        <ele>1641</ele>
        <time>2026-05-25T10:30:19.000Z</time>
      </trkpt>
      <trkpt lat="44.6365" lon="5.20044">
        <ele>1641</ele>
        <time>2026-05-25T10:30:20.000Z</time>
      </trkpt>
      <trkpt lat="44.6365" lon="5.20044">
        <ele>1641</ele>
        <time>2026-05-25T10:30:21.000Z</time>
      </trkpt>
      <trkpt lat="44.6365" lon="5.20044">
        <ele>1641</ele>
        <time>2026-05-25T10:30:22.000Z</time>
      </trkpt>
      <trkpt lat="44.6365" lon="5.20044">
        <ele>1641</ele>
        <time>2026-05-25T10:30:23.000Z</time>
      </trkpt>
      <trkpt lat="44.6365" lon="5.20044">
        <ele>1641</ele>
        <time>2026-05-25T10:30:24.000Z</time>
      </trkpt>
      <trkpt lat="44.6365" lon="5.20044">
        <ele>1641</ele>
        <time>2026-05-25T10:30:25.000Z</time>
      </trkpt>
      <trkpt lat="44.6365" lon="5.20044">
        <ele>1641</ele>
        <time>2026-05-25T10:30:26.000Z</time>
      </trkpt>
      <trkpt lat="44.6365" lon="5.20044">
        <ele>1641</ele>
        <time>2026-05-25T10:30:27.000Z</time>
      </trkpt>
      <trkpt lat="44.6365" lon="5.20044">
        <ele>1641</ele>
        <time>2026-05-25T10:30:28.000Z</time>
      </trkpt>
      <trkpt lat="44.6365" lon="5.20044">
        <ele>1641</ele>
        <time>2026-05-25T10:30:29.000Z</time>
      </trkpt>
      <trkpt lat="44.6365" lon="5.20044">
        <ele>1641</ele>
        <time>2026-05-25T10:30:30.000Z</time>
      </trkpt>
      <trkpt lat="44.6365" lon="5.20044">
        <ele>1641</ele>
        <time>2026-05-25T10:30:31.000Z</time>
      </trkpt>
      <trkpt lat="44.63651" lon="5.20045">
        <ele>1641</ele>
        <time>2026-05-25T10:30:32.000Z</time>
      </trkpt>
      <trkpt lat="44.63651" lon="5.20045">
        <ele>1640</ele>
        <time>2026-05-25T10:30:33.000Z</time>
      </trkpt>
      <trkpt lat="44.63651" lon="5.20044">
        <ele>1640</ele>
        <time>2026-05-25T10:30:34.000Z</time>
      </trkpt>
      <trkpt lat="44.63651" lon="5.20044">
        <ele>1640</ele>
        <time>2026-05-25T10:30:35.000Z</time>
      </trkpt>
      <trkpt lat="44.63651" lon="5.20044">
        <ele>1641</ele>
        <time>2026-05-25T10:30:36.000Z</time>
      </trkpt>
      <trkpt lat="44.6365" lon="5.20044">
        <ele>1641</ele>
        <time>2026-05-25T10:30:37.000Z</time>
      </trkpt>
      <trkpt lat="44.63649" lon="5.20044">
        <ele>1642</ele>
        <time>2026-05-25T10:30:38.000Z</time>
      </trkpt>
      <trkpt lat="44.63649" lon="5.20045">
        <ele>1642</ele>
        <time>2026-05-25T10:30:39.000Z</time>
      </trkpt>
      <trkpt lat="44.63649" lon="5.20045">
        <ele>1642</ele>
        <time>2026-05-25T10:30:40.000Z</time>
      </trkpt>
      <trkpt lat="44.6365" lon="5.20045">
        <ele>1641</ele>
        <time>2026-05-25T10:30:41.000Z</time>
      </trkpt>
      <trkpt lat="44.6365" lon="5.20045">
        <ele>1641</ele>
        <time>2026-05-25T10:30:42.000Z</time>
      </trkpt>
      <trkpt lat="44.63651" lon="5.20046">
        <ele>1641</ele>
        <time>2026-05-25T10:30:43.000Z</time>
      </trkpt>
      <trkpt lat="44.6365" lon="5.20045">
        <ele>1641</ele>
        <time>2026-05-25T10:30:44.000Z</time>
      </trkpt>
      <trkpt lat="44.6365" lon="5.20045">
        <ele>1642</ele>
        <time>2026-05-25T10:30:45.000Z</time>
      </trkpt>
      <trkpt lat="44.6365" lon="5.20045">
        <ele>1642</ele>
        <time>2026-05-25T10:30:46.000Z</time>
      </trkpt>
      <trkpt lat="44.63649" lon="5.20046">
        <ele>1642</ele>
        <time>2026-05-25T10:30:47.000Z</time>
      </trkpt>
      <trkpt lat="44.63649" lon="5.20048">
        <ele>1643</ele>
        <time>2026-05-25T10:30:48.000Z</time>
      </trkpt>
      <trkpt lat="44.63648" lon="5.20049">
        <ele>1643</ele>
        <time>2026-05-25T10:30:49.000Z</time>
      </trkpt>
      <trkpt lat="44.63647" lon="5.2005">
        <ele>1643</ele>
        <time>2026-05-25T10:30:50.000Z</time>
      </trkpt>
      <trkpt lat="44.63647" lon="5.2005">
        <ele>1642</ele>
        <time>2026-05-25T10:30:51.000Z</time>
      </trkpt>
      <trkpt lat="44.63646" lon="5.20051">
        <ele>1642</ele>
        <time>2026-05-25T10:30:52.000Z</time>
      </trkpt>
      <trkpt lat="44.63645" lon="5.20051">
        <ele>1642</ele>
        <time>2026-05-25T10:30:53.000Z</time>
      </trkpt>
      <trkpt lat="44.63644" lon="5.20052">
        <ele>1642</ele>
        <time>2026-05-25T10:30:54.000Z</time>
      </trkpt>
      <trkpt lat="44.63644" lon="5.20053">
        <ele>1641</ele>
        <time>2026-05-25T10:30:55.000Z</time>
      </trkpt>
      <trkpt lat="44.63643" lon="5.20054">
        <ele>1641</ele>
        <time>2026-05-25T10:30:56.000Z</time>
      </trkpt>
      <trkpt lat="44.63642" lon="5.20054">
        <ele>1641</ele>
        <time>2026-05-25T10:30:57.000Z</time>
      </trkpt>
      <trkpt lat="44.63641" lon="5.20055">
        <ele>1641</ele>
        <time>2026-05-25T10:30:58.000Z</time>
      </trkpt>
      <trkpt lat="44.63641" lon="5.20055">
        <ele>1641</ele>
        <time>2026-05-25T10:30:59.000Z</time>
      </trkpt>
      <trkpt lat="44.63641" lon="5.20055">
        <ele>1641</ele>
        <time>2026-05-25T10:31:00.000Z</time>
      </trkpt>
      <trkpt lat="44.63641" lon="5.20055">
        <ele>1641</ele>
        <time>2026-05-25T10:31:01.000Z</time>
      </trkpt>
      <trkpt lat="44.63641" lon="5.20055">
        <ele>1641</ele>
        <time>2026-05-25T10:31:02.000Z</time>
      </trkpt>
      <trkpt lat="44.63641" lon="5.20055">
        <ele>1641</ele>
        <time>2026-05-25T10:31:03.000Z</time>
      </trkpt>
      <trkpt lat="44.63641" lon="5.20055">
        <ele>1641</ele>
        <time>2026-05-25T10:31:04.000Z</time>
      </trkpt>
      <trkpt lat="44.63641" lon="5.20055">
        <ele>1641</ele>
        <time>2026-05-25T10:31:05.000Z</time>
      </trkpt>
      <trkpt lat="44.63641" lon="5.20055">
        <ele>1641</ele>
        <time>2026-05-25T10:31:06.000Z</time>
      </trkpt>
      <trkpt lat="44.63641" lon="5.20055">
        <ele>1641</ele>
        <time>2026-05-25T10:31:07.000Z</time>
      </trkpt>
      <trkpt lat="44.63641" lon="5.20055">
        <ele>1641</ele>
        <time>2026-05-25T10:31:08.000Z</time>
      </trkpt>
      <trkpt lat="44.63641" lon="5.20055">
        <ele>1641</ele>
        <time>2026-05-25T10:31:09.000Z</time>
      </trkpt>
      <trkpt lat="44.63642" lon="5.20054">
        <ele>1642</ele>
        <time>2026-05-25T10:31:10.000Z</time>
      </trkpt>
      <trkpt lat="44.63642" lon="5.20053">
        <ele>1642</ele>
        <time>2026-05-25T10:31:11.000Z</time>
      </trkpt>
      <trkpt lat="44.63642" lon="5.20053">
        <ele>1642</ele>
        <time>2026-05-25T10:31:12.000Z</time>
      </trkpt>
      <trkpt lat="44.63642" lon="5.20053">
        <ele>1642</ele>
        <time>2026-05-25T10:31:13.000Z</time>
      </trkpt>
      <trkpt lat="44.63642" lon="5.20053">
        <ele>1642</ele>
        <time>2026-05-25T10:31:14.000Z</time>
      </trkpt>
      <trkpt lat="44.63642" lon="5.20053">
        <ele>1642</ele>
        <time>2026-05-25T10:31:15.000Z</time>
      </trkpt>
      <trkpt lat="44.63642" lon="5.20053">
        <ele>1642</ele>
        <time>2026-05-25T10:31:16.000Z</time>
      </trkpt>
      <trkpt lat="44.63642" lon="5.20053">
        <ele>1642</ele>
        <time>2026-05-25T10:31:17.000Z</time>
      </trkpt>
      <trkpt lat="44.63642" lon="5.20053">
        <ele>1642</ele>
        <time>2026-05-25T10:31:18.000Z</time>
      </trkpt>
      <trkpt lat="44.63642" lon="5.20053">
        <ele>1642</ele>
        <time>2026-05-25T10:31:19.000Z</time>
      </trkpt>
      <trkpt lat="44.63641" lon="5.20054">
        <ele>1643</ele>
        <time>2026-05-25T10:31:20.000Z</time>
      </trkpt>
      <trkpt lat="44.63639" lon="5.20054">
        <ele>1642</ele>
        <time>2026-05-25T10:31:21.000Z</time>
      </trkpt>
      <trkpt lat="44.63639" lon="5.20055">
        <ele>1642</ele>
        <time>2026-05-25T10:31:22.000Z</time>
      </trkpt>
      <trkpt lat="44.63638" lon="5.20055">
        <ele>1642</ele>
        <time>2026-05-25T10:31:23.000Z</time>
      </trkpt>
      <trkpt lat="44.63639" lon="5.20056">
        <ele>1642</ele>
        <time>2026-05-25T10:31:24.000Z</time>
      </trkpt>
      <trkpt lat="44.63639" lon="5.20056">
        <ele>1642</ele>
        <time>2026-05-25T10:31:25.000Z</time>
      </trkpt>
      <trkpt lat="44.63639" lon="5.20056">
        <ele>1642</ele>
        <time>2026-05-25T10:31:26.000Z</time>
      </trkpt>
      <trkpt lat="44.63639" lon="5.20056">
        <ele>1642</ele>
        <time>2026-05-25T10:31:27.000Z</time>
      </trkpt>
      <trkpt lat="44.63639" lon="5.20056">
        <ele>1642</ele>
        <time>2026-05-25T10:31:28.000Z</time>
      </trkpt>
      <trkpt lat="44.63639" lon="5.20056">
        <ele>1642</ele>
        <time>2026-05-25T10:31:29.000Z</time>
      </trkpt>
      <trkpt lat="44.63639" lon="5.20056">
        <ele>1642</ele>
        <time>2026-05-25T10:31:30.000Z</time>
      </trkpt>
      <trkpt lat="44.63639" lon="5.20056">
        <ele>1642</ele>
        <time>2026-05-25T10:31:31.000Z</time>
      </trkpt>
      <trkpt lat="44.63639" lon="5.20056">
        <ele>1642</ele>
        <time>2026-05-25T10:31:32.000Z</time>
      </trkpt>
      <trkpt lat="44.63639" lon="5.20056">
        <ele>1642</ele>
        <time>2026-05-25T10:31:33.000Z</time>
      </trkpt>
      <trkpt lat="44.63639" lon="5.20056">
        <ele>1642</ele>
        <time>2026-05-25T10:31:34.000Z</time>
      </trkpt>
      <trkpt lat="44.6364" lon="5.20053">
        <ele>1642</ele>
        <time>2026-05-25T10:31:35.000Z</time>
      </trkpt>
      <trkpt lat="44.6364" lon="5.20052">
        <ele>1641</ele>
        <time>2026-05-25T10:31:36.000Z</time>
      </trkpt>
      <trkpt lat="44.63641" lon="5.20051">
        <ele>1642</ele>
        <time>2026-05-25T10:31:37.000Z</time>
      </trkpt>
      <trkpt lat="44.63641" lon="5.20051">
        <ele>1642</ele>
        <time>2026-05-25T10:31:38.000Z</time>
      </trkpt>
      <trkpt lat="44.63641" lon="5.2005">
        <ele>1642</ele>
        <time>2026-05-25T10:31:39.000Z</time>
      </trkpt>
      <trkpt lat="44.63642" lon="5.2005">
        <ele>1642</ele>
        <time>2026-05-25T10:31:40.000Z</time>
      </trkpt>
      <trkpt lat="44.63643" lon="5.2005">
        <ele>1642</ele>
        <time>2026-05-25T10:31:41.000Z</time>
      </trkpt>
      <trkpt lat="44.63643" lon="5.20049">
        <ele>1642</ele>
        <time>2026-05-25T10:31:42.000Z</time>
      </trkpt>
      <trkpt lat="44.63644" lon="5.20048">
        <ele>1642</ele>
        <time>2026-05-25T10:31:43.000Z</time>
      </trkpt>
      <trkpt lat="44.63645" lon="5.20048">
        <ele>1642</ele>
        <time>2026-05-25T10:31:44.000Z</time>
      </trkpt>
      <trkpt lat="44.63646" lon="5.20048">
        <ele>1641</ele>
        <time>2026-05-25T10:31:45.000Z</time>
      </trkpt>
      <trkpt lat="44.63646" lon="5.20048">
        <ele>1642</ele>
        <time>2026-05-25T10:31:46.000Z</time>
      </trkpt>
      <trkpt lat="44.63647" lon="5.20047">
        <ele>1642</ele>
        <time>2026-05-25T10:31:47.000Z</time>
      </trkpt>
      <trkpt lat="44.63648" lon="5.20047">
        <ele>1642</ele>
        <time>2026-05-25T10:31:48.000Z</time>
      </trkpt>
      <trkpt lat="44.63649" lon="5.20047">
        <ele>1642</ele>
        <time>2026-05-25T10:31:49.000Z</time>
      </trkpt>
      <trkpt lat="44.63649" lon="5.20047">
        <ele>1642</ele>
        <time>2026-05-25T10:31:50.000Z</time>
      </trkpt>
      <trkpt lat="44.6365" lon="5.20048">
        <ele>1642</ele>
        <time>2026-05-25T10:31:51.000Z</time>
      </trkpt>
      <trkpt lat="44.63651" lon="5.20047">
        <ele>1641</ele>
        <time>2026-05-25T10:31:52.000Z</time>
      </trkpt>
      <trkpt lat="44.63652" lon="5.20047">
        <ele>1641</ele>
        <time>2026-05-25T10:31:53.000Z</time>
      </trkpt>
      <trkpt lat="44.63653" lon="5.20047">
        <ele>1641</ele>
        <time>2026-05-25T10:31:54.000Z</time>
      </trkpt>
      <trkpt lat="44.63654" lon="5.20047">
        <ele>1641</ele>
        <time>2026-05-25T10:31:55.000Z</time>
      </trkpt>
      <trkpt lat="44.63655" lon="5.20047">
        <ele>1641</ele>
        <time>2026-05-25T10:31:56.000Z</time>
      </trkpt>
      <trkpt lat="44.63655" lon="5.20047">
        <ele>1641</ele>
        <time>2026-05-25T10:31:57.000Z</time>
      </trkpt>
      <trkpt lat="44.63655" lon="5.20047">
        <ele>1641</ele>
        <time>2026-05-25T10:31:58.000Z</time>
      </trkpt>
      <trkpt lat="44.63656" lon="5.20047">
        <ele>1640</ele>
        <time>2026-05-25T10:31:59.000Z</time>
      </trkpt>
      <trkpt lat="44.63656" lon="5.20047">
        <ele>1640</ele>
        <time>2026-05-25T10:32:00.000Z</time>
      </trkpt>
      <trkpt lat="44.63656" lon="5.20047">
        <ele>1640</ele>
        <time>2026-05-25T10:32:01.000Z</time>
      </trkpt>
      <trkpt lat="44.63656" lon="5.20047">
        <ele>1640</ele>
        <time>2026-05-25T10:32:02.000Z</time>
      </trkpt>
      <trkpt lat="44.63656" lon="5.20047">
        <ele>1640</ele>
        <time>2026-05-25T10:32:03.000Z</time>
      </trkpt>
      <trkpt lat="44.63656" lon="5.20047">
        <ele>1640</ele>
        <time>2026-05-25T10:32:04.000Z</time>
      </trkpt>
      <trkpt lat="44.63656" lon="5.20047">
        <ele>1640</ele>
        <time>2026-05-25T10:32:05.000Z</time>
      </trkpt>
      <trkpt lat="44.63656" lon="5.20047">
        <ele>1640</ele>
        <time>2026-05-25T10:32:06.000Z</time>
      </trkpt>
      <trkpt lat="44.63656" lon="5.20047">
        <ele>1640</ele>
        <time>2026-05-25T10:32:07.000Z</time>
      </trkpt>
      <trkpt lat="44.63656" lon="5.20047">
        <ele>1640</ele>
        <time>2026-05-25T10:32:08.000Z</time>
      </trkpt>
      <trkpt lat="44.63656" lon="5.20047">
        <ele>1640</ele>
        <time>2026-05-25T10:32:09.000Z</time>
      </trkpt>
      <trkpt lat="44.63656" lon="5.20047">
        <ele>1640</ele>
        <time>2026-05-25T10:32:10.000Z</time>
      </trkpt>
      <trkpt lat="44.63656" lon="5.20047">
        <ele>1640</ele>
        <time>2026-05-25T10:32:11.000Z</time>
      </trkpt>
      <trkpt lat="44.63656" lon="5.20047">
        <ele>1640</ele>
        <time>2026-05-25T10:32:12.000Z</time>
      </trkpt>
      <trkpt lat="44.63656" lon="5.20047">
        <ele>1640</ele>
        <time>2026-05-25T10:32:13.000Z</time>
      </trkpt>
      <trkpt lat="44.63656" lon="5.20047">
        <ele>1640</ele>
        <time>2026-05-25T10:32:14.000Z</time>
      </trkpt>
      <trkpt lat="44.63656" lon="5.20047">
        <ele>1640</ele>
        <time>2026-05-25T10:32:15.000Z</time>
      </trkpt>
      <trkpt lat="44.63656" lon="5.20047">
        <ele>1640</ele>
        <time>2026-05-25T10:32:16.000Z</time>
      </trkpt>
      <trkpt lat="44.63656" lon="5.20047">
        <ele>1640</ele>
        <time>2026-05-25T10:32:17.000Z</time>
      </trkpt>
      <trkpt lat="44.63656" lon="5.20047">
        <ele>1640</ele>
        <time>2026-05-25T10:32:18.000Z</time>
      </trkpt>
      <trkpt lat="44.63656" lon="5.20047">
        <ele>1640</ele>
        <time>2026-05-25T10:32:19.000Z</time>
      </trkpt>
      <trkpt lat="44.63656" lon="5.20047">
        <ele>1640</ele>
        <time>2026-05-25T10:32:20.000Z</time>
      </trkpt>
      <trkpt lat="44.63656" lon="5.20047">
        <ele>1640</ele>
        <time>2026-05-25T10:32:21.000Z</time>
      </trkpt>
      <trkpt lat="44.63656" lon="5.20047">
        <ele>1640</ele>
        <time>2026-05-25T10:32:22.000Z</time>
      </trkpt>
      <trkpt lat="44.63656" lon="5.20047">
        <ele>1640</ele>
        <time>2026-05-25T10:32:23.000Z</time>
      </trkpt>
      <trkpt lat="44.63656" lon="5.20047">
        <ele>1640</ele>
        <time>2026-05-25T10:32:24.000Z</time>
      </trkpt>
      <trkpt lat="44.63656" lon="5.20047">
        <ele>1640</ele>
        <time>2026-05-25T10:32:25.000Z</time>
      </trkpt>
      <trkpt lat="44.63656" lon="5.20047">
        <ele>1640</ele>
        <time>2026-05-25T10:32:26.000Z</time>
      </trkpt>
      <trkpt lat="44.63656" lon="5.20047">
        <ele>1640</ele>
        <time>2026-05-25T10:32:27.000Z</time>
      </trkpt>
      <trkpt lat="44.63656" lon="5.20047">
        <ele>1640</ele>
        <time>2026-05-25T10:32:28.000Z</time>
      </trkpt>
      <trkpt lat="44.63656" lon="5.20047">
        <ele>1640</ele>
        <time>2026-05-25T10:32:29.000Z</time>
      </trkpt>
      <trkpt lat="44.63656" lon="5.20047">
        <ele>1640</ele>
        <time>2026-05-25T10:32:30.000Z</time>
      </trkpt>
      <trkpt lat="44.63656" lon="5.20047">
        <ele>1640</ele>
        <time>2026-05-25T10:32:31.000Z</time>
      </trkpt>
      <trkpt lat="44.63656" lon="5.20047">
        <ele>1640</ele>
        <time>2026-05-25T10:32:32.000Z</time>
      </trkpt>
      <trkpt lat="44.63656" lon="5.20047">
        <ele>1640</ele>
        <time>2026-05-25T10:32:33.000Z</time>
      </trkpt>
      <trkpt lat="44.63656" lon="5.20047">
        <ele>1640</ele>
        <time>2026-05-25T10:32:34.000Z</time>
      </trkpt>
      <trkpt lat="44.63656" lon="5.20047">
        <ele>1640</ele>
        <time>2026-05-25T10:32:35.000Z</time>
      </trkpt>
      <trkpt lat="44.63656" lon="5.20047">
        <ele>1640</ele>
        <time>2026-05-25T10:32:36.000Z</time>
      </trkpt>
      <trkpt lat="44.63656" lon="5.20047">
        <ele>1640</ele>
        <time>2026-05-25T10:32:37.000Z</time>
      </trkpt>
      <trkpt lat="44.63656" lon="5.20047">
        <ele>1640</ele>
        <time>2026-05-25T10:32:38.000Z</time>
      </trkpt>
      <trkpt lat="44.63656" lon="5.20047">
        <ele>1640</ele>
        <time>2026-05-25T10:32:39.000Z</time>
      </trkpt>
      <trkpt lat="44.63656" lon="5.20047">
        <ele>1640</ele>
        <time>2026-05-25T10:32:40.000Z</time>
      </trkpt>
      <trkpt lat="44.63656" lon="5.20047">
        <ele>1640</ele>
        <time>2026-05-25T10:32:41.000Z</time>
      </trkpt>
      <trkpt lat="44.63656" lon="5.20047">
        <ele>1640</ele>
        <time>2026-05-25T10:32:42.000Z</time>
      </trkpt>
      <trkpt lat="44.63656" lon="5.20047">
        <ele>1640</ele>
        <time>2026-05-25T10:32:43.000Z</time>
      </trkpt>
      <trkpt lat="44.63656" lon="5.20047">
        <ele>1640</ele>
        <time>2026-05-25T10:32:44.000Z</time>
      </trkpt>
      <trkpt lat="44.63656" lon="5.20047">
        <ele>1640</ele>
        <time>2026-05-25T10:32:45.000Z</time>
      </trkpt>
      <trkpt lat="44.63656" lon="5.20047">
        <ele>1640</ele>
        <time>2026-05-25T10:32:46.000Z</time>
      </trkpt>
      <trkpt lat="44.63656" lon="5.20047">
        <ele>1640</ele>
        <time>2026-05-25T10:32:47.000Z</time>
      </trkpt>
      <trkpt lat="44.63656" lon="5.20047">
        <ele>1640</ele>
        <time>2026-05-25T10:32:48.000Z</time>
      </trkpt>
      <trkpt lat="44.63656" lon="5.20047">
        <ele>1640</ele>
        <time>2026-05-25T10:32:49.000Z</time>
      </trkpt>
      <trkpt lat="44.63656" lon="5.20047">
        <ele>1640</ele>
        <time>2026-05-25T10:32:50.000Z</time>
      </trkpt>
      <trkpt lat="44.63656" lon="5.20047">
        <ele>1640</ele>
        <time>2026-05-25T10:32:51.000Z</time>
      </trkpt>
      <trkpt lat="44.63656" lon="5.20047">
        <ele>1640</ele>
        <time>2026-05-25T10:32:52.000Z</time>
      </trkpt>
      <trkpt lat="44.63656" lon="5.20047">
        <ele>1640</ele>
        <time>2026-05-25T10:32:53.000Z</time>
      </trkpt>
      <trkpt lat="44.63656" lon="5.20047">
        <ele>1640</ele>
        <time>2026-05-25T10:32:54.000Z</time>
      </trkpt>
      <trkpt lat="44.63656" lon="5.20047">
        <ele>1640</ele>
        <time>2026-05-25T10:32:55.000Z</time>
      </trkpt>
      <trkpt lat="44.63656" lon="5.20047">
        <ele>1640</ele>
        <time>2026-05-25T10:32:56.000Z</time>
      </trkpt>
      <trkpt lat="44.63656" lon="5.20047">
        <ele>1640</ele>
        <time>2026-05-25T10:32:57.000Z</time>
      </trkpt>
      <trkpt lat="44.63656" lon="5.20047">
        <ele>1640</ele>
        <time>2026-05-25T10:32:58.000Z</time>
      </trkpt>
      <trkpt lat="44.63656" lon="5.20047">
        <ele>1640</ele>
        <time>2026-05-25T10:32:59.000Z</time>
      </trkpt>
      <trkpt lat="44.63656" lon="5.20047">
        <ele>1640</ele>
        <time>2026-05-25T10:33:00.000Z</time>
      </trkpt>
      <trkpt lat="44.63656" lon="5.20047">
        <ele>1640</ele>
        <time>2026-05-25T10:33:01.000Z</time>
      </trkpt>
      <trkpt lat="44.63656" lon="5.20047">
        <ele>1640</ele>
        <time>2026-05-25T10:33:02.000Z</time>
      </trkpt>
      <trkpt lat="44.63656" lon="5.20047">
        <ele>1640</ele>
        <time>2026-05-25T10:33:03.000Z</time>
      </trkpt>
      <trkpt lat="44.63656" lon="5.20047">
        <ele>1640</ele>
        <time>2026-05-25T10:33:04.000Z</time>
      </trkpt>
      <trkpt lat="44.63656" lon="5.20047">
        <ele>1640</ele>
        <time>2026-05-25T10:33:05.000Z</time>
      </trkpt>
      <trkpt lat="44.63656" lon="5.20047">
        <ele>1640</ele>
        <time>2026-05-25T10:33:06.000Z</time>
      </trkpt>
      <trkpt lat="44.63656" lon="5.20047">
        <ele>1640</ele>
        <time>2026-05-25T10:33:07.000Z</time>
      </trkpt>
      <trkpt lat="44.63656" lon="5.20047">
        <ele>1640</ele>
        <time>2026-05-25T10:33:08.000Z</time>
      </trkpt>
      <trkpt lat="44.63656" lon="5.20047">
        <ele>1640</ele>
        <time>2026-05-25T10:33:09.000Z</time>
      </trkpt>
      <trkpt lat="44.63656" lon="5.20047">
        <ele>1640</ele>
        <time>2026-05-25T10:33:10.000Z</time>
      </trkpt>
      <trkpt lat="44.63656" lon="5.20047">
        <ele>1640</ele>
        <time>2026-05-25T10:33:11.000Z</time>
      </trkpt>
      <trkpt lat="44.63656" lon="5.20047">
        <ele>1640</ele>
        <time>2026-05-25T10:33:12.000Z</time>
      </trkpt>
      <trkpt lat="44.63656" lon="5.20047">
        <ele>1640</ele>
        <time>2026-05-25T10:33:13.000Z</time>
      </trkpt>
      <trkpt lat="44.63656" lon="5.20047">
        <ele>1640</ele>
        <time>2026-05-25T10:33:14.000Z</time>
      </trkpt>
      <trkpt lat="44.63656" lon="5.20047">
        <ele>1640</ele>
        <time>2026-05-25T10:33:15.000Z</time>
      </trkpt>
      <trkpt lat="44.63656" lon="5.20047">
        <ele>1640</ele>
        <time>2026-05-25T10:33:16.000Z</time>
      </trkpt>
      <trkpt lat="44.63656" lon="5.20047">
        <ele>1640</ele>
        <time>2026-05-25T10:33:17.000Z</time>
      </trkpt>
      <trkpt lat="44.63656" lon="5.20047">
        <ele>1640</ele>
        <time>2026-05-25T10:33:18.000Z</time>
      </trkpt>
      <trkpt lat="44.63656" lon="5.20047">
        <ele>1640</ele>
        <time>2026-05-25T10:33:19.000Z</time>
      </trkpt>
      <trkpt lat="44.63656" lon="5.20047">
        <ele>1640</ele>
        <time>2026-05-25T10:33:20.000Z</time>
      </trkpt>
      <trkpt lat="44.63656" lon="5.20047">
        <ele>1640</ele>
        <time>2026-05-25T10:33:21.000Z</time>
      </trkpt>
      <trkpt lat="44.63656" lon="5.20047">
        <ele>1640</ele>
        <time>2026-05-25T10:33:22.000Z</time>
      </trkpt>
      <trkpt lat="44.63656" lon="5.20047">
        <ele>1640</ele>
        <time>2026-05-25T10:33:23.000Z</time>
      </trkpt>
      <trkpt lat="44.63656" lon="5.20047">
        <ele>1640</ele>
        <time>2026-05-25T10:33:24.000Z</time>
      </trkpt>
      <trkpt lat="44.63656" lon="5.20047">
        <ele>1640</ele>
        <time>2026-05-25T10:33:25.000Z</time>
      </trkpt>
      <trkpt lat="44.63656" lon="5.20047">
        <ele>1640</ele>
        <time>2026-05-25T10:33:26.000Z</time>
      </trkpt>
      <trkpt lat="44.63656" lon="5.20047">
        <ele>1640</ele>
        <time>2026-05-25T10:33:27.000Z</time>
      </trkpt>
      <trkpt lat="44.63656" lon="5.20047">
        <ele>1640</ele>
        <time>2026-05-25T10:33:28.000Z</time>
      </trkpt>
      <trkpt lat="44.63656" lon="5.20047">
        <ele>1640</ele>
        <time>2026-05-25T10:33:29.000Z</time>
      </trkpt>
      <trkpt lat="44.63656" lon="5.20047">
        <ele>1640</ele>
        <time>2026-05-25T10:33:30.000Z</time>
      </trkpt>
      <trkpt lat="44.63656" lon="5.20047">
        <ele>1640</ele>
        <time>2026-05-25T10:33:31.000Z</time>
      </trkpt>
      <trkpt lat="44.63656" lon="5.20047">
        <ele>1640</ele>
        <time>2026-05-25T10:33:32.000Z</time>
      </trkpt>
      <trkpt lat="44.63656" lon="5.20047">
        <ele>1640</ele>
        <time>2026-05-25T10:33:33.000Z</time>
      </trkpt>
      <trkpt lat="44.63656" lon="5.20047">
        <ele>1640</ele>
        <time>2026-05-25T10:33:34.000Z</time>
      </trkpt>
      <trkpt lat="44.63656" lon="5.20047">
        <ele>1640</ele>
        <time>2026-05-25T10:33:35.000Z</time>
      </trkpt>
      <trkpt lat="44.63656" lon="5.20047">
        <ele>1640</ele>
        <time>2026-05-25T10:33:36.000Z</time>
      </trkpt>
      <trkpt lat="44.63656" lon="5.20047">
        <ele>1640</ele>
        <time>2026-05-25T10:33:37.000Z</time>
      </trkpt>
      <trkpt lat="44.63656" lon="5.20047">
        <ele>1640</ele>
        <time>2026-05-25T10:33:38.000Z</time>
      </trkpt>
      <trkpt lat="44.63656" lon="5.20047">
        <ele>1640</ele>
        <time>2026-05-25T10:33:39.000Z</time>
      </trkpt>
      <trkpt lat="44.63656" lon="5.20047">
        <ele>1640</ele>
        <time>2026-05-25T10:33:40.000Z</time>
      </trkpt>
      <trkpt lat="44.63656" lon="5.20047">
        <ele>1640</ele>
        <time>2026-05-25T10:33:41.000Z</time>
      </trkpt>
      <trkpt lat="44.63656" lon="5.20047">
        <ele>1640</ele>
        <time>2026-05-25T10:33:42.000Z</time>
      </trkpt>
      <trkpt lat="44.63656" lon="5.20047">
        <ele>1640</ele>
        <time>2026-05-25T10:33:43.000Z</time>
      </trkpt>
      <trkpt lat="44.63656" lon="5.20047">
        <ele>1640</ele>
        <time>2026-05-25T10:33:44.000Z</time>
      </trkpt>
      <trkpt lat="44.63656" lon="5.20047">
        <ele>1640</ele>
        <time>2026-05-25T10:33:45.000Z</time>
      </trkpt>
      <trkpt lat="44.63656" lon="5.20047">
        <ele>1640</ele>
        <time>2026-05-25T10:33:46.000Z</time>
      </trkpt>
      <trkpt lat="44.63656" lon="5.20047">
        <ele>1640</ele>
        <time>2026-05-25T10:33:47.000Z</time>
      </trkpt>
      <trkpt lat="44.63656" lon="5.20047">
        <ele>1640</ele>
        <time>2026-05-25T10:33:48.000Z</time>
      </trkpt>
      <trkpt lat="44.63656" lon="5.20047">
        <ele>1640</ele>
        <time>2026-05-25T10:33:49.000Z</time>
      </trkpt>
      <trkpt lat="44.63656" lon="5.20047">
        <ele>1640</ele>
        <time>2026-05-25T10:33:50.000Z</time>
      </trkpt>
      <trkpt lat="44.63656" lon="5.20047">
        <ele>1640</ele>
        <time>2026-05-25T10:33:51.000Z</time>
      </trkpt>
      <trkpt lat="44.63656" lon="5.20047">
        <ele>1640</ele>
        <time>2026-05-25T10:33:52.000Z</time>
      </trkpt>
      <trkpt lat="44.63656" lon="5.20047">
        <ele>1640</ele>
        <time>2026-05-25T10:33:53.000Z</time>
      </trkpt>
      <trkpt lat="44.63656" lon="5.20047">
        <ele>1640</ele>
        <time>2026-05-25T10:33:54.000Z</time>
      </trkpt>
      <trkpt lat="44.63656" lon="5.20047">
        <ele>1640</ele>
        <time>2026-05-25T10:33:55.000Z</time>
      </trkpt>
      <trkpt lat="44.63656" lon="5.20047">
        <ele>1640</ele>
        <time>2026-05-25T10:33:56.000Z</time>
      </trkpt>
      <trkpt lat="44.63656" lon="5.20047">
        <ele>1640</ele>
        <time>2026-05-25T10:33:57.000Z</time>
      </trkpt>
      <trkpt lat="44.63656" lon="5.20047">
        <ele>1640</ele>
        <time>2026-05-25T10:33:58.000Z</time>
      </trkpt>
      <trkpt lat="44.63656" lon="5.20047">
        <ele>1640</ele>
        <time>2026-05-25T10:33:59.000Z</time>
      </trkpt>
      <trkpt lat="44.63656" lon="5.20047">
        <ele>1640</ele>
        <time>2026-05-25T10:34:00.000Z</time>
      </trkpt>
      <trkpt lat="44.63656" lon="5.20047">
        <ele>1640</ele>
        <time>2026-05-25T10:34:01.000Z</time>
      </trkpt>
      <trkpt lat="44.63656" lon="5.20047">
        <ele>1640</ele>
        <time>2026-05-25T10:34:02.000Z</time>
      </trkpt>
      <trkpt lat="44.63656" lon="5.20047">
        <ele>1640</ele>
        <time>2026-05-25T10:34:03.000Z</time>
      </trkpt>
      <trkpt lat="44.63656" lon="5.20047">
        <ele>1640</ele>
        <time>2026-05-25T10:34:04.000Z</time>
      </trkpt>
      <trkpt lat="44.63656" lon="5.20047">
        <ele>1640</ele>
        <time>2026-05-25T10:34:05.000Z</time>
      </trkpt>
      <trkpt lat="44.63656" lon="5.20047">
        <ele>1640</ele>
        <time>2026-05-25T10:34:06.000Z</time>
      </trkpt>
      <trkpt lat="44.63656" lon="5.20047">
        <ele>1640</ele>
        <time>2026-05-25T10:34:07.000Z</time>
      </trkpt>
      <trkpt lat="44.63656" lon="5.20047">
        <ele>1640</ele>
        <time>2026-05-25T10:34:08.000Z</time>
      </trkpt>
      <trkpt lat="44.63656" lon="5.20047">
        <ele>1640</ele>
        <time>2026-05-25T10:34:09.000Z</time>
      </trkpt>
      <trkpt lat="44.63656" lon="5.20047">
        <ele>1640</ele>
        <time>2026-05-25T10:34:10.000Z</time>
      </trkpt>
      <trkpt lat="44.63656" lon="5.20047">
        <ele>1640</ele>
        <time>2026-05-25T10:34:11.000Z</time>
      </trkpt>
      <trkpt lat="44.63656" lon="5.20047">
        <ele>1640</ele>
        <time>2026-05-25T10:34:12.000Z</time>
      </trkpt>
      <trkpt lat="44.63656" lon="5.20047">
        <ele>1640</ele>
        <time>2026-05-25T10:34:13.000Z</time>
      </trkpt>
      <trkpt lat="44.63656" lon="5.20047">
        <ele>1640</ele>
        <time>2026-05-25T10:34:14.000Z</time>
      </trkpt>
      <trkpt lat="44.63656" lon="5.20047">
        <ele>1640</ele>
        <time>2026-05-25T10:34:15.000Z</time>
      </trkpt>
      <trkpt lat="44.63656" lon="5.20047">
        <ele>1640</ele>
        <time>2026-05-25T10:34:16.000Z</time>
      </trkpt>
      <trkpt lat="44.63656" lon="5.20047">
        <ele>1640</ele>
        <time>2026-05-25T10:34:17.000Z</time>
      </trkpt>
      <trkpt lat="44.63656" lon="5.20047">
        <ele>1640</ele>
        <time>2026-05-25T10:34:18.000Z</time>
      </trkpt>
      <trkpt lat="44.63656" lon="5.20047">
        <ele>1640</ele>
        <time>2026-05-25T10:34:19.000Z</time>
      </trkpt>
      <trkpt lat="44.63656" lon="5.20047">
        <ele>1640</ele>
        <time>2026-05-25T10:34:20.000Z</time>
      </trkpt>
      <trkpt lat="44.63656" lon="5.20047">
        <ele>1640</ele>
        <time>2026-05-25T10:34:21.000Z</time>
      </trkpt>
      <trkpt lat="44.63656" lon="5.20047">
        <ele>1640</ele>
        <time>2026-05-25T10:34:22.000Z</time>
      </trkpt>
      <trkpt lat="44.63656" lon="5.20047">
        <ele>1640</ele>
        <time>2026-05-25T10:34:23.000Z</time>
      </trkpt>
      <trkpt lat="44.63656" lon="5.20047">
        <ele>1640</ele>
        <time>2026-05-25T10:34:24.000Z</time>
      </trkpt>
      <trkpt lat="44.63656" lon="5.20047">
        <ele>1640</ele>
        <time>2026-05-25T10:34:25.000Z</time>
      </trkpt>
      <trkpt lat="44.63656" lon="5.20047">
        <ele>1640</ele>
        <time>2026-05-25T10:34:26.000Z</time>
      </trkpt>
      <trkpt lat="44.63656" lon="5.20047">
        <ele>1640</ele>
        <time>2026-05-25T10:34:27.000Z</time>
      </trkpt>
      <trkpt lat="44.63656" lon="5.20047">
        <ele>1640</ele>
        <time>2026-05-25T10:34:28.000Z</time>
      </trkpt>
      <trkpt lat="44.63656" lon="5.20047">
        <ele>1640</ele>
        <time>2026-05-25T10:34:29.000Z</time>
      </trkpt>
      <trkpt lat="44.63656" lon="5.20047">
        <ele>1640</ele>
        <time>2026-05-25T10:34:30.000Z</time>
      </trkpt>
      <trkpt lat="44.63656" lon="5.20047">
        <ele>1640</ele>
        <time>2026-05-25T10:34:31.000Z</time>
      </trkpt>
      <trkpt lat="44.63656" lon="5.20047">
        <ele>1640</ele>
        <time>2026-05-25T10:34:32.000Z</time>
      </trkpt>
      <trkpt lat="44.63656" lon="5.20047">
        <ele>1640</ele>
        <time>2026-05-25T10:34:33.000Z</time>
      </trkpt>
      <trkpt lat="44.63656" lon="5.20047">
        <ele>1640</ele>
        <time>2026-05-25T10:34:34.000Z</time>
      </trkpt>
      <trkpt lat="44.63656" lon="5.20047">
        <ele>1640</ele>
        <time>2026-05-25T10:34:35.000Z</time>
      </trkpt>
      <trkpt lat="44.63656" lon="5.20047">
        <ele>1640</ele>
        <time>2026-05-25T10:34:36.000Z</time>
      </trkpt>
      <trkpt lat="44.63656" lon="5.20047">
        <ele>1640</ele>
        <time>2026-05-25T10:34:37.000Z</time>
      </trkpt>
      <trkpt lat="44.63656" lon="5.20047">
        <ele>1640</ele>
        <time>2026-05-25T10:34:38.000Z</time>
      </trkpt>
      <trkpt lat="44.63656" lon="5.20047">
        <ele>1640</ele>
        <time>2026-05-25T10:34:39.000Z</time>
      </trkpt>
      <trkpt lat="44.63656" lon="5.20047">
        <ele>1640</ele>
        <time>2026-05-25T10:34:40.000Z</time>
      </trkpt>
      <trkpt lat="44.63656" lon="5.20047">
        <ele>1640</ele>
        <time>2026-05-25T10:34:41.000Z</time>
      </trkpt>
      <trkpt lat="44.63656" lon="5.20047">
        <ele>1640</ele>
        <time>2026-05-25T10:34:42.000Z</time>
      </trkpt>
      <trkpt lat="44.63656" lon="5.20047">
        <ele>1640</ele>
        <time>2026-05-25T10:34:43.000Z</time>
      </trkpt>
      <trkpt lat="44.63656" lon="5.20047">
        <ele>1640</ele>
        <time>2026-05-25T10:34:44.000Z</time>
      </trkpt>
      <trkpt lat="44.63656" lon="5.20047">
        <ele>1640</ele>
        <time>2026-05-25T10:34:45.000Z</time>
      </trkpt>
      <trkpt lat="44.63656" lon="5.20047">
        <ele>1640</ele>
        <time>2026-05-25T10:34:46.000Z</time>
      </trkpt>
      <trkpt lat="44.63656" lon="5.20047">
        <ele>1640</ele>
        <time>2026-05-25T10:34:47.000Z</time>
      </trkpt>
      <trkpt lat="44.63656" lon="5.20047">
        <ele>1640</ele>
        <time>2026-05-25T10:34:48.000Z</time>
      </trkpt>
      <trkpt lat="44.63656" lon="5.20047">
        <ele>1640</ele>
        <time>2026-05-25T10:34:49.000Z</time>
      </trkpt>
      <trkpt lat="44.63656" lon="5.20047">
        <ele>1640</ele>
        <time>2026-05-25T10:34:50.000Z</time>
      </trkpt>
      <trkpt lat="44.63656" lon="5.20047">
        <ele>1640</ele>
        <time>2026-05-25T10:34:51.000Z</time>
      </trkpt>
      <trkpt lat="44.63656" lon="5.20047">
        <ele>1640</ele>
        <time>2026-05-25T10:34:52.000Z</time>
      </trkpt>
      <trkpt lat="44.63656" lon="5.20047">
        <ele>1640</ele>
        <time>2026-05-25T10:34:53.000Z</time>
      </trkpt>
      <trkpt lat="44.63656" lon="5.20047">
        <ele>1640</ele>
        <time>2026-05-25T10:34:54.000Z</time>
      </trkpt>
      <trkpt lat="44.63656" lon="5.20047">
        <ele>1640</ele>
        <time>2026-05-25T10:34:55.000Z</time>
      </trkpt>
      <trkpt lat="44.63656" lon="5.20047">
        <ele>1640</ele>
        <time>2026-05-25T10:34:56.000Z</time>
      </trkpt>
      <trkpt lat="44.63656" lon="5.20047">
        <ele>1640</ele>
        <time>2026-05-25T10:34:57.000Z</time>
      </trkpt>
      <trkpt lat="44.63656" lon="5.20047">
        <ele>1640</ele>
        <time>2026-05-25T10:34:58.000Z</time>
      </trkpt>
      <trkpt lat="44.63656" lon="5.20047">
        <ele>1640</ele>
        <time>2026-05-25T10:34:59.000Z</time>
      </trkpt>
      <trkpt lat="44.63656" lon="5.20047">
        <ele>1640</ele>
        <time>2026-05-25T10:35:00.000Z</time>
      </trkpt>
      <trkpt lat="44.63656" lon="5.20047">
        <ele>1640</ele>
        <time>2026-05-25T10:35:01.000Z</time>
      </trkpt>
      <trkpt lat="44.63656" lon="5.20047">
        <ele>1640</ele>
        <time>2026-05-25T10:35:02.000Z</time>
      </trkpt>
      <trkpt lat="44.63655" lon="5.20046">
        <ele>1641</ele>
        <time>2026-05-25T10:35:03.000Z</time>
      </trkpt>
      <trkpt lat="44.63654" lon="5.20045">
        <ele>1642</ele>
        <time>2026-05-25T10:35:04.000Z</time>
      </trkpt>
      <trkpt lat="44.63654" lon="5.20045">
        <ele>1642</ele>
        <time>2026-05-25T10:35:05.000Z</time>
      </trkpt>
      <trkpt lat="44.63653" lon="5.20045">
        <ele>1642</ele>
        <time>2026-05-25T10:35:06.000Z</time>
      </trkpt>
      <trkpt lat="44.63652" lon="5.20044">
        <ele>1642</ele>
        <time>2026-05-25T10:35:07.000Z</time>
      </trkpt>
      <trkpt lat="44.63651" lon="5.20044">
        <ele>1643</ele>
        <time>2026-05-25T10:35:08.000Z</time>
      </trkpt>
      <trkpt lat="44.6365" lon="5.20043">
        <ele>1643</ele>
        <time>2026-05-25T10:35:09.000Z</time>
      </trkpt>
      <trkpt lat="44.6365" lon="5.20043">
        <ele>1643</ele>
        <time>2026-05-25T10:35:10.000Z</time>
      </trkpt>
      <trkpt lat="44.63649" lon="5.20043">
        <ele>1643</ele>
        <time>2026-05-25T10:35:11.000Z</time>
      </trkpt>
      <trkpt lat="44.6365" lon="5.20044">
        <ele>1643</ele>
        <time>2026-05-25T10:35:12.000Z</time>
      </trkpt>
      <trkpt lat="44.6365" lon="5.20044">
        <ele>1643</ele>
        <time>2026-05-25T10:35:13.000Z</time>
      </trkpt>
      <trkpt lat="44.6365" lon="5.20044">
        <ele>1643</ele>
        <time>2026-05-25T10:35:14.000Z</time>
      </trkpt>
      <trkpt lat="44.6365" lon="5.20044">
        <ele>1643</ele>
        <time>2026-05-25T10:35:15.000Z</time>
      </trkpt>
      <trkpt lat="44.6365" lon="5.20044">
        <ele>1643</ele>
        <time>2026-05-25T10:35:16.000Z</time>
      </trkpt>
      <trkpt lat="44.6365" lon="5.20044">
        <ele>1643</ele>
        <time>2026-05-25T10:35:17.000Z</time>
      </trkpt>
      <trkpt lat="44.6365" lon="5.20044">
        <ele>1643</ele>
        <time>2026-05-25T10:35:18.000Z</time>
      </trkpt>
      <trkpt lat="44.6365" lon="5.20044">
        <ele>1643</ele>
        <time>2026-05-25T10:35:19.000Z</time>
      </trkpt>
      <trkpt lat="44.6365" lon="5.20044">
        <ele>1643</ele>
        <time>2026-05-25T10:35:20.000Z</time>
      </trkpt>
      <trkpt lat="44.6365" lon="5.20044">
        <ele>1643</ele>
        <time>2026-05-25T10:35:21.000Z</time>
      </trkpt>
      <trkpt lat="44.6365" lon="5.20044">
        <ele>1643</ele>
        <time>2026-05-25T10:35:22.000Z</time>
      </trkpt>
      <trkpt lat="44.6365" lon="5.20044">
        <ele>1643</ele>
        <time>2026-05-25T10:35:23.000Z</time>
      </trkpt>
      <trkpt lat="44.6365" lon="5.20044">
        <ele>1643</ele>
        <time>2026-05-25T10:35:24.000Z</time>
      </trkpt>
      <trkpt lat="44.6365" lon="5.20044">
        <ele>1643</ele>
        <time>2026-05-25T10:35:25.000Z</time>
      </trkpt>
      <trkpt lat="44.6365" lon="5.20044">
        <ele>1643</ele>
        <time>2026-05-25T10:35:26.000Z</time>
      </trkpt>
      <trkpt lat="44.6365" lon="5.20044">
        <ele>1643</ele>
        <time>2026-05-25T10:35:27.000Z</time>
      </trkpt>
      <trkpt lat="44.6365" lon="5.20044">
        <ele>1643</ele>
        <time>2026-05-25T10:35:28.000Z</time>
      </trkpt>
      <trkpt lat="44.6365" lon="5.20044">
        <ele>1643</ele>
        <time>2026-05-25T10:35:29.000Z</time>
      </trkpt>
      <trkpt lat="44.6365" lon="5.20044">
        <ele>1643</ele>
        <time>2026-05-25T10:35:30.000Z</time>
      </trkpt>
      <trkpt lat="44.6365" lon="5.20044">
        <ele>1643</ele>
        <time>2026-05-25T10:35:31.000Z</time>
      </trkpt>
      <trkpt lat="44.6365" lon="5.20044">
        <ele>1643</ele>
        <time>2026-05-25T10:35:32.000Z</time>
      </trkpt>
      <trkpt lat="44.6365" lon="5.20044">
        <ele>1643</ele>
        <time>2026-05-25T10:35:33.000Z</time>
      </trkpt>
      <trkpt lat="44.6365" lon="5.20044">
        <ele>1643</ele>
        <time>2026-05-25T10:35:34.000Z</time>
      </trkpt>
      <trkpt lat="44.6365" lon="5.20044">
        <ele>1643</ele>
        <time>2026-05-25T10:35:35.000Z</time>
      </trkpt>
      <trkpt lat="44.6365" lon="5.20044">
        <ele>1643</ele>
        <time>2026-05-25T10:35:36.000Z</time>
      </trkpt>
      <trkpt lat="44.63649" lon="5.20044">
        <ele>1643</ele>
        <time>2026-05-25T10:35:37.000Z</time>
      </trkpt>
      <trkpt lat="44.63649" lon="5.20045">
        <ele>1643</ele>
        <time>2026-05-25T10:35:38.000Z</time>
      </trkpt>
      <trkpt lat="44.63649" lon="5.20045">
        <ele>1643</ele>
        <time>2026-05-25T10:35:39.000Z</time>
      </trkpt>
      <trkpt lat="44.63649" lon="5.20045">
        <ele>1643</ele>
        <time>2026-05-25T10:35:40.000Z</time>
      </trkpt>
      <trkpt lat="44.63649" lon="5.20045">
        <ele>1643</ele>
        <time>2026-05-25T10:35:41.000Z</time>
      </trkpt>
      <trkpt lat="44.63649" lon="5.20045">
        <ele>1643</ele>
        <time>2026-05-25T10:35:42.000Z</time>
      </trkpt>
      <trkpt lat="44.63649" lon="5.20045">
        <ele>1643</ele>
        <time>2026-05-25T10:35:43.000Z</time>
      </trkpt>
      <trkpt lat="44.63649" lon="5.20045">
        <ele>1643</ele>
        <time>2026-05-25T10:35:44.000Z</time>
      </trkpt>
      <trkpt lat="44.63649" lon="5.20045">
        <ele>1643</ele>
        <time>2026-05-25T10:35:45.000Z</time>
      </trkpt>
      <trkpt lat="44.63649" lon="5.20045">
        <ele>1643</ele>
        <time>2026-05-25T10:35:46.000Z</time>
      </trkpt>
      <trkpt lat="44.63649" lon="5.20045">
        <ele>1643</ele>
        <time>2026-05-25T10:35:47.000Z</time>
      </trkpt>
      <trkpt lat="44.63649" lon="5.20045">
        <ele>1643</ele>
        <time>2026-05-25T10:35:48.000Z</time>
      </trkpt>
      <trkpt lat="44.63649" lon="5.20045">
        <ele>1643</ele>
        <time>2026-05-25T10:35:49.000Z</time>
      </trkpt>
      <trkpt lat="44.63649" lon="5.20045">
        <ele>1643</ele>
        <time>2026-05-25T10:35:50.000Z</time>
      </trkpt>
      <trkpt lat="44.63649" lon="5.20045">
        <ele>1643</ele>
        <time>2026-05-25T10:35:51.000Z</time>
      </trkpt>
      <trkpt lat="44.63649" lon="5.20045">
        <ele>1643</ele>
        <time>2026-05-25T10:35:52.000Z</time>
      </trkpt>
      <trkpt lat="44.63649" lon="5.20045">
        <ele>1643</ele>
        <time>2026-05-25T10:35:53.000Z</time>
      </trkpt>
      <trkpt lat="44.63649" lon="5.20045">
        <ele>1643</ele>
        <time>2026-05-25T10:35:54.000Z</time>
      </trkpt>
      <trkpt lat="44.63649" lon="5.20045">
        <ele>1643</ele>
        <time>2026-05-25T10:35:55.000Z</time>
      </trkpt>
      <trkpt lat="44.63649" lon="5.20045">
        <ele>1643</ele>
        <time>2026-05-25T10:35:56.000Z</time>
      </trkpt>
      <trkpt lat="44.63649" lon="5.20045">
        <ele>1643</ele>
        <time>2026-05-25T10:35:57.000Z</time>
      </trkpt>
      <trkpt lat="44.63649" lon="5.20045">
        <ele>1643</ele>
        <time>2026-05-25T10:35:58.000Z</time>
      </trkpt>
      <trkpt lat="44.63649" lon="5.20045">
        <ele>1643</ele>
        <time>2026-05-25T10:35:59.000Z</time>
      </trkpt>
      <trkpt lat="44.63649" lon="5.20045">
        <ele>1643</ele>
        <time>2026-05-25T10:36:00.000Z</time>
      </trkpt>
      <trkpt lat="44.63649" lon="5.20045">
        <ele>1643</ele>
        <time>2026-05-25T10:36:01.000Z</time>
      </trkpt>
      <trkpt lat="44.63649" lon="5.20045">
        <ele>1643</ele>
        <time>2026-05-25T10:36:02.000Z</time>
      </trkpt>
      <trkpt lat="44.63649" lon="5.20045">
        <ele>1643</ele>
        <time>2026-05-25T10:36:03.000Z</time>
      </trkpt>
      <trkpt lat="44.63649" lon="5.20045">
        <ele>1643</ele>
        <time>2026-05-25T10:36:04.000Z</time>
      </trkpt>
      <trkpt lat="44.63649" lon="5.20045">
        <ele>1643</ele>
        <time>2026-05-25T10:36:05.000Z</time>
      </trkpt>
      <trkpt lat="44.63649" lon="5.20045">
        <ele>1643</ele>
        <time>2026-05-25T10:36:06.000Z</time>
      </trkpt>
      <trkpt lat="44.63649" lon="5.20045">
        <ele>1643</ele>
        <time>2026-05-25T10:36:07.000Z</time>
      </trkpt>
      <trkpt lat="44.63649" lon="5.20045">
        <ele>1643</ele>
        <time>2026-05-25T10:36:08.000Z</time>
      </trkpt>
      <trkpt lat="44.63649" lon="5.20045">
        <ele>1643</ele>
        <time>2026-05-25T10:36:09.000Z</time>
      </trkpt>
      <trkpt lat="44.63649" lon="5.20045">
        <ele>1643</ele>
        <time>2026-05-25T10:36:10.000Z</time>
      </trkpt>
      <trkpt lat="44.63649" lon="5.20045">
        <ele>1643</ele>
        <time>2026-05-25T10:36:11.000Z</time>
      </trkpt>
      <trkpt lat="44.63649" lon="5.20045">
        <ele>1643</ele>
        <time>2026-05-25T10:36:12.000Z</time>
      </trkpt>
      <trkpt lat="44.63649" lon="5.20045">
        <ele>1643</ele>
        <time>2026-05-25T10:36:13.000Z</time>
      </trkpt>
      <trkpt lat="44.63649" lon="5.20045">
        <ele>1643</ele>
        <time>2026-05-25T10:36:14.000Z</time>
      </trkpt>
      <trkpt lat="44.63649" lon="5.20045">
        <ele>1643</ele>
        <time>2026-05-25T10:36:15.000Z</time>
      </trkpt>
      <trkpt lat="44.63649" lon="5.20045">
        <ele>1643</ele>
        <time>2026-05-25T10:36:16.000Z</time>
      </trkpt>
      <trkpt lat="44.63649" lon="5.20045">
        <ele>1643</ele>
        <time>2026-05-25T10:36:17.000Z</time>
      </trkpt>
      <trkpt lat="44.63649" lon="5.20045">
        <ele>1643</ele>
        <time>2026-05-25T10:36:18.000Z</time>
      </trkpt>
      <trkpt lat="44.63649" lon="5.20045">
        <ele>1643</ele>
        <time>2026-05-25T10:36:19.000Z</time>
      </trkpt>
      <trkpt lat="44.63649" lon="5.20045">
        <ele>1643</ele>
        <time>2026-05-25T10:36:20.000Z</time>
      </trkpt>
      <trkpt lat="44.63649" lon="5.20045">
        <ele>1643</ele>
        <time>2026-05-25T10:36:21.000Z</time>
      </trkpt>
      <trkpt lat="44.63649" lon="5.20045">
        <ele>1643</ele>
        <time>2026-05-25T10:36:22.000Z</time>
      </trkpt>
      <trkpt lat="44.63649" lon="5.20045">
        <ele>1643</ele>
        <time>2026-05-25T10:36:23.000Z</time>
      </trkpt>
      <trkpt lat="44.63649" lon="5.20045">
        <ele>1643</ele>
        <time>2026-05-25T10:36:24.000Z</time>
      </trkpt>
      <trkpt lat="44.63649" lon="5.20045">
        <ele>1643</ele>
        <time>2026-05-25T10:36:25.000Z</time>
      </trkpt>
      <trkpt lat="44.63649" lon="5.20045">
        <ele>1643</ele>
        <time>2026-05-25T10:36:26.000Z</time>
      </trkpt>
      <trkpt lat="44.63649" lon="5.20045">
        <ele>1643</ele>
        <time>2026-05-25T10:36:27.000Z</time>
      </trkpt>
      <trkpt lat="44.63649" lon="5.20045">
        <ele>1643</ele>
        <time>2026-05-25T10:36:28.000Z</time>
      </trkpt>
      <trkpt lat="44.63649" lon="5.20045">
        <ele>1643</ele>
        <time>2026-05-25T10:36:29.000Z</time>
      </trkpt>
      <trkpt lat="44.63649" lon="5.20045">
        <ele>1643</ele>
        <time>2026-05-25T10:36:30.000Z</time>
      </trkpt>
      <trkpt lat="44.63649" lon="5.20045">
        <ele>1643</ele>
        <time>2026-05-25T10:36:31.000Z</time>
      </trkpt>
      <trkpt lat="44.63649" lon="5.20045">
        <ele>1643</ele>
        <time>2026-05-25T10:36:32.000Z</time>
      </trkpt>
      <trkpt lat="44.63649" lon="5.20045">
        <ele>1643</ele>
        <time>2026-05-25T10:36:33.000Z</time>
      </trkpt>
      <trkpt lat="44.63649" lon="5.20046">
        <ele>1643</ele>
        <time>2026-05-25T10:36:34.000Z</time>
      </trkpt>
      <trkpt lat="44.6365" lon="5.20045">
        <ele>1643</ele>
        <time>2026-05-25T10:36:35.000Z</time>
      </trkpt>
      <trkpt lat="44.6365" lon="5.20044">
        <ele>1643</ele>
        <time>2026-05-25T10:36:36.000Z</time>
      </trkpt>
      <trkpt lat="44.6365" lon="5.20044">
        <ele>1643</ele>
        <time>2026-05-25T10:36:37.000Z</time>
      </trkpt>
      <trkpt lat="44.63651" lon="5.20044">
        <ele>1642</ele>
        <time>2026-05-25T10:36:38.000Z</time>
      </trkpt>
      <trkpt lat="44.63651" lon="5.20044">
        <ele>1642</ele>
        <time>2026-05-25T10:36:39.000Z</time>
      </trkpt>
      <trkpt lat="44.63651" lon="5.20044">
        <ele>1642</ele>
        <time>2026-05-25T10:36:40.000Z</time>
      </trkpt>
      <trkpt lat="44.63651" lon="5.20044">
        <ele>1642</ele>
        <time>2026-05-25T10:36:41.000Z</time>
      </trkpt>
      <trkpt lat="44.63651" lon="5.20044">
        <ele>1642</ele>
        <time>2026-05-25T10:36:42.000Z</time>
      </trkpt>
      <trkpt lat="44.63651" lon="5.20044">
        <ele>1642</ele>
        <time>2026-05-25T10:36:43.000Z</time>
      </trkpt>
      <trkpt lat="44.63651" lon="5.20044">
        <ele>1642</ele>
        <time>2026-05-25T10:36:44.000Z</time>
      </trkpt>
      <trkpt lat="44.63651" lon="5.20044">
        <ele>1642</ele>
        <time>2026-05-25T10:36:45.000Z</time>
      </trkpt>
      <trkpt lat="44.63651" lon="5.20044">
        <ele>1642</ele>
        <time>2026-05-25T10:36:46.000Z</time>
      </trkpt>
      <trkpt lat="44.63651" lon="5.20044">
        <ele>1642</ele>
        <time>2026-05-25T10:36:47.000Z</time>
      </trkpt>
      <trkpt lat="44.63651" lon="5.20044">
        <ele>1642</ele>
        <time>2026-05-25T10:36:48.000Z</time>
      </trkpt>
      <trkpt lat="44.63651" lon="5.20044">
        <ele>1642</ele>
        <time>2026-05-25T10:36:49.000Z</time>
      </trkpt>
      <trkpt lat="44.63651" lon="5.20044">
        <ele>1642</ele>
        <time>2026-05-25T10:36:50.000Z</time>
      </trkpt>
      <trkpt lat="44.63651" lon="5.20044">
        <ele>1642</ele>
        <time>2026-05-25T10:36:51.000Z</time>
      </trkpt>
      <trkpt lat="44.63651" lon="5.20044">
        <ele>1642</ele>
        <time>2026-05-25T10:36:52.000Z</time>
      </trkpt>
      <trkpt lat="44.63651" lon="5.20044">
        <ele>1642</ele>
        <time>2026-05-25T10:36:53.000Z</time>
      </trkpt>
      <trkpt lat="44.63651" lon="5.20044">
        <ele>1642</ele>
        <time>2026-05-25T10:36:54.000Z</time>
      </trkpt>
      <trkpt lat="44.63651" lon="5.20044">
        <ele>1642</ele>
        <time>2026-05-25T10:36:55.000Z</time>
      </trkpt>
      <trkpt lat="44.63651" lon="5.20044">
        <ele>1642</ele>
        <time>2026-05-25T10:36:56.000Z</time>
      </trkpt>
      <trkpt lat="44.63651" lon="5.20044">
        <ele>1643</ele>
        <time>2026-05-25T10:36:57.000Z</time>
      </trkpt>
      <trkpt lat="44.63651" lon="5.20043">
        <ele>1643</ele>
        <time>2026-05-25T10:36:58.000Z</time>
      </trkpt>
      <trkpt lat="44.63651" lon="5.20043">
        <ele>1643</ele>
        <time>2026-05-25T10:36:59.000Z</time>
      </trkpt>
      <trkpt lat="44.63651" lon="5.20043">
        <ele>1643</ele>
        <time>2026-05-25T10:37:00.000Z</time>
      </trkpt>
      <trkpt lat="44.63651" lon="5.20043">
        <ele>1643</ele>
        <time>2026-05-25T10:37:01.000Z</time>
      </trkpt>
      <trkpt lat="44.63651" lon="5.20043">
        <ele>1643</ele>
        <time>2026-05-25T10:37:02.000Z</time>
      </trkpt>
      <trkpt lat="44.63651" lon="5.20043">
        <ele>1643</ele>
        <time>2026-05-25T10:37:03.000Z</time>
      </trkpt>
      <trkpt lat="44.63651" lon="5.20043">
        <ele>1643</ele>
        <time>2026-05-25T10:37:04.000Z</time>
      </trkpt>
      <trkpt lat="44.63651" lon="5.20043">
        <ele>1643</ele>
        <time>2026-05-25T10:37:05.000Z</time>
      </trkpt>
      <trkpt lat="44.63651" lon="5.20043">
        <ele>1643</ele>
        <time>2026-05-25T10:37:06.000Z</time>
      </trkpt>
      <trkpt lat="44.63651" lon="5.20043">
        <ele>1643</ele>
        <time>2026-05-25T10:37:07.000Z</time>
      </trkpt>
      <trkpt lat="44.63651" lon="5.20043">
        <ele>1643</ele>
        <time>2026-05-25T10:37:08.000Z</time>
      </trkpt>
      <trkpt lat="44.63651" lon="5.20043">
        <ele>1643</ele>
        <time>2026-05-25T10:37:09.000Z</time>
      </trkpt>
      <trkpt lat="44.63651" lon="5.20043">
        <ele>1643</ele>
        <time>2026-05-25T10:37:10.000Z</time>
      </trkpt>
      <trkpt lat="44.63651" lon="5.20043">
        <ele>1643</ele>
        <time>2026-05-25T10:37:11.000Z</time>
      </trkpt>
      <trkpt lat="44.63651" lon="5.20043">
        <ele>1643</ele>
        <time>2026-05-25T10:37:12.000Z</time>
      </trkpt>
      <trkpt lat="44.63651" lon="5.20043">
        <ele>1643</ele>
        <time>2026-05-25T10:37:13.000Z</time>
      </trkpt>
      <trkpt lat="44.63651" lon="5.20043">
        <ele>1643</ele>
        <time>2026-05-25T10:37:14.000Z</time>
      </trkpt>
      <trkpt lat="44.63651" lon="5.20043">
        <ele>1643</ele>
        <time>2026-05-25T10:37:15.000Z</time>
      </trkpt>
      <trkpt lat="44.63651" lon="5.20043">
        <ele>1643</ele>
        <time>2026-05-25T10:37:16.000Z</time>
      </trkpt>
      <trkpt lat="44.63651" lon="5.20043">
        <ele>1643</ele>
        <time>2026-05-25T10:37:17.000Z</time>
      </trkpt>
      <trkpt lat="44.63651" lon="5.20043">
        <ele>1643</ele>
        <time>2026-05-25T10:37:18.000Z</time>
      </trkpt>
      <trkpt lat="44.63651" lon="5.20043">
        <ele>1643</ele>
        <time>2026-05-25T10:37:19.000Z</time>
      </trkpt>
      <trkpt lat="44.63651" lon="5.20043">
        <ele>1643</ele>
        <time>2026-05-25T10:37:20.000Z</time>
      </trkpt>
      <trkpt lat="44.63651" lon="5.20043">
        <ele>1643</ele>
        <time>2026-05-25T10:37:21.000Z</time>
      </trkpt>
      <trkpt lat="44.63651" lon="5.20043">
        <ele>1643</ele>
        <time>2026-05-25T10:37:22.000Z</time>
      </trkpt>
      <trkpt lat="44.63651" lon="5.20043">
        <ele>1643</ele>
        <time>2026-05-25T10:37:23.000Z</time>
      </trkpt>
      <trkpt lat="44.63651" lon="5.20043">
        <ele>1643</ele>
        <time>2026-05-25T10:37:24.000Z</time>
      </trkpt>
      <trkpt lat="44.63651" lon="5.20043">
        <ele>1643</ele>
        <time>2026-05-25T10:37:25.000Z</time>
      </trkpt>
      <trkpt lat="44.63651" lon="5.20043">
        <ele>1643</ele>
        <time>2026-05-25T10:37:26.000Z</time>
      </trkpt>
      <trkpt lat="44.63651" lon="5.20043">
        <ele>1643</ele>
        <time>2026-05-25T10:37:27.000Z</time>
      </trkpt>
      <trkpt lat="44.63651" lon="5.20043">
        <ele>1643</ele>
        <time>2026-05-25T10:37:28.000Z</time>
      </trkpt>
      <trkpt lat="44.63651" lon="5.20043">
        <ele>1643</ele>
        <time>2026-05-25T10:37:29.000Z</time>
      </trkpt>
      <trkpt lat="44.63651" lon="5.20043">
        <ele>1643</ele>
        <time>2026-05-25T10:37:30.000Z</time>
      </trkpt>
      <trkpt lat="44.63651" lon="5.20043">
        <ele>1643</ele>
        <time>2026-05-25T10:37:31.000Z</time>
      </trkpt>
      <trkpt lat="44.63651" lon="5.20043">
        <ele>1643</ele>
        <time>2026-05-25T10:37:32.000Z</time>
      </trkpt>
      <trkpt lat="44.63651" lon="5.20043">
        <ele>1643</ele>
        <time>2026-05-25T10:37:33.000Z</time>
      </trkpt>
      <trkpt lat="44.63651" lon="5.20043">
        <ele>1643</ele>
        <time>2026-05-25T10:37:34.000Z</time>
      </trkpt>
      <trkpt lat="44.63651" lon="5.20043">
        <ele>1643</ele>
        <time>2026-05-25T10:37:35.000Z</time>
      </trkpt>
      <trkpt lat="44.63651" lon="5.20043">
        <ele>1643</ele>
        <time>2026-05-25T10:37:36.000Z</time>
      </trkpt>
      <trkpt lat="44.63651" lon="5.20043">
        <ele>1643</ele>
        <time>2026-05-25T10:37:37.000Z</time>
      </trkpt>
      <trkpt lat="44.63651" lon="5.20043">
        <ele>1643</ele>
        <time>2026-05-25T10:37:38.000Z</time>
      </trkpt>
      <trkpt lat="44.63651" lon="5.20043">
        <ele>1643</ele>
        <time>2026-05-25T10:37:39.000Z</time>
      </trkpt>
      <trkpt lat="44.63651" lon="5.20043">
        <ele>1643</ele>
        <time>2026-05-25T10:37:40.000Z</time>
      </trkpt>
      <trkpt lat="44.63651" lon="5.20043">
        <ele>1643</ele>
        <time>2026-05-25T10:37:41.000Z</time>
      </trkpt>
      <trkpt lat="44.63651" lon="5.20043">
        <ele>1643</ele>
        <time>2026-05-25T10:37:42.000Z</time>
      </trkpt>
      <trkpt lat="44.63651" lon="5.20043">
        <ele>1643</ele>
        <time>2026-05-25T10:37:43.000Z</time>
      </trkpt>
      <trkpt lat="44.63651" lon="5.20043">
        <ele>1643</ele>
        <time>2026-05-25T10:37:44.000Z</time>
      </trkpt>
      <trkpt lat="44.63651" lon="5.20043">
        <ele>1643</ele>
        <time>2026-05-25T10:37:45.000Z</time>
      </trkpt>
      <trkpt lat="44.63651" lon="5.20043">
        <ele>1643</ele>
        <time>2026-05-25T10:37:46.000Z</time>
      </trkpt>
      <trkpt lat="44.63651" lon="5.20043">
        <ele>1643</ele>
        <time>2026-05-25T10:37:47.000Z</time>
      </trkpt>
      <trkpt lat="44.63651" lon="5.20043">
        <ele>1643</ele>
        <time>2026-05-25T10:37:48.000Z</time>
      </trkpt>
      <trkpt lat="44.63651" lon="5.20043">
        <ele>1643</ele>
        <time>2026-05-25T10:37:49.000Z</time>
      </trkpt>
      <trkpt lat="44.63651" lon="5.20043">
        <ele>1643</ele>
        <time>2026-05-25T10:37:50.000Z</time>
      </trkpt>
      <trkpt lat="44.63651" lon="5.20043">
        <ele>1643</ele>
        <time>2026-05-25T10:37:51.000Z</time>
      </trkpt>
      <trkpt lat="44.63651" lon="5.20043">
        <ele>1643</ele>
        <time>2026-05-25T10:37:52.000Z</time>
      </trkpt>
      <trkpt lat="44.63651" lon="5.20043">
        <ele>1643</ele>
        <time>2026-05-25T10:37:53.000Z</time>
      </trkpt>
      <trkpt lat="44.63651" lon="5.20043">
        <ele>1643</ele>
        <time>2026-05-25T10:37:54.000Z</time>
      </trkpt>
      <trkpt lat="44.63651" lon="5.20043">
        <ele>1643</ele>
        <time>2026-05-25T10:37:55.000Z</time>
      </trkpt>
      <trkpt lat="44.63651" lon="5.20043">
        <ele>1643</ele>
        <time>2026-05-25T10:37:56.000Z</time>
      </trkpt>
      <trkpt lat="44.63651" lon="5.20043">
        <ele>1643</ele>
        <time>2026-05-25T10:37:57.000Z</time>
      </trkpt>
      <trkpt lat="44.63651" lon="5.20043">
        <ele>1643</ele>
        <time>2026-05-25T10:37:58.000Z</time>
      </trkpt>
      <trkpt lat="44.63651" lon="5.20043">
        <ele>1643</ele>
        <time>2026-05-25T10:37:59.000Z</time>
      </trkpt>
      <trkpt lat="44.63651" lon="5.20043">
        <ele>1643</ele>
        <time>2026-05-25T10:38:00.000Z</time>
      </trkpt>
      <trkpt lat="44.63651" lon="5.20043">
        <ele>1643</ele>
        <time>2026-05-25T10:38:01.000Z</time>
      </trkpt>
      <trkpt lat="44.63651" lon="5.20043">
        <ele>1643</ele>
        <time>2026-05-25T10:38:02.000Z</time>
      </trkpt>
      <trkpt lat="44.63651" lon="5.20043">
        <ele>1643</ele>
        <time>2026-05-25T10:38:03.000Z</time>
      </trkpt>
      <trkpt lat="44.63651" lon="5.20043">
        <ele>1643</ele>
        <time>2026-05-25T10:38:04.000Z</time>
      </trkpt>
      <trkpt lat="44.63651" lon="5.20043">
        <ele>1643</ele>
        <time>2026-05-25T10:38:05.000Z</time>
      </trkpt>
      <trkpt lat="44.63651" lon="5.20043">
        <ele>1643</ele>
        <time>2026-05-25T10:38:06.000Z</time>
      </trkpt>
      <trkpt lat="44.63651" lon="5.20043">
        <ele>1643</ele>
        <time>2026-05-25T10:38:07.000Z</time>
      </trkpt>
      <trkpt lat="44.63651" lon="5.20043">
        <ele>1643</ele>
        <time>2026-05-25T10:38:08.000Z</time>
      </trkpt>
      <trkpt lat="44.63651" lon="5.20043">
        <ele>1643</ele>
        <time>2026-05-25T10:38:09.000Z</time>
      </trkpt>
      <trkpt lat="44.63651" lon="5.20043">
        <ele>1643</ele>
        <time>2026-05-25T10:38:10.000Z</time>
      </trkpt>
      <trkpt lat="44.63651" lon="5.20043">
        <ele>1643</ele>
        <time>2026-05-25T10:38:11.000Z</time>
      </trkpt>
      <trkpt lat="44.6365" lon="5.20045">
        <ele>1643</ele>
        <time>2026-05-25T10:38:12.000Z</time>
      </trkpt>
      <trkpt lat="44.6365" lon="5.20045">
        <ele>1643</ele>
        <time>2026-05-25T10:38:13.000Z</time>
      </trkpt>
      <trkpt lat="44.63649" lon="5.20046">
        <ele>1643</ele>
        <time>2026-05-25T10:38:14.000Z</time>
      </trkpt>
      <trkpt lat="44.6365" lon="5.20046">
        <ele>1643</ele>
        <time>2026-05-25T10:38:15.000Z</time>
      </trkpt>
      <trkpt lat="44.6365" lon="5.20046">
        <ele>1643</ele>
        <time>2026-05-25T10:38:16.000Z</time>
      </trkpt>
      <trkpt lat="44.6365" lon="5.20046">
        <ele>1643</ele>
        <time>2026-05-25T10:38:17.000Z</time>
      </trkpt>
      <trkpt lat="44.6365" lon="5.20046">
        <ele>1643</ele>
        <time>2026-05-25T10:38:18.000Z</time>
      </trkpt>
      <trkpt lat="44.6365" lon="5.20046">
        <ele>1643</ele>
        <time>2026-05-25T10:38:19.000Z</time>
      </trkpt>
      <trkpt lat="44.6365" lon="5.20046">
        <ele>1643</ele>
        <time>2026-05-25T10:38:20.000Z</time>
      </trkpt>
      <trkpt lat="44.6365" lon="5.20046">
        <ele>1643</ele>
        <time>2026-05-25T10:38:21.000Z</time>
      </trkpt>
      <trkpt lat="44.6365" lon="5.20046">
        <ele>1643</ele>
        <time>2026-05-25T10:38:22.000Z</time>
      </trkpt>
      <trkpt lat="44.6365" lon="5.20046">
        <ele>1643</ele>
        <time>2026-05-25T10:38:23.000Z</time>
      </trkpt>
      <trkpt lat="44.6365" lon="5.20046">
        <ele>1643</ele>
        <time>2026-05-25T10:38:24.000Z</time>
      </trkpt>
      <trkpt lat="44.6365" lon="5.20046">
        <ele>1643</ele>
        <time>2026-05-25T10:38:25.000Z</time>
      </trkpt>
      <trkpt lat="44.63651" lon="5.20046">
        <ele>1643</ele>
        <time>2026-05-25T10:38:26.000Z</time>
      </trkpt>
      <trkpt lat="44.63651" lon="5.20046">
        <ele>1643</ele>
        <time>2026-05-25T10:38:27.000Z</time>
      </trkpt>
      <trkpt lat="44.63651" lon="5.20046">
        <ele>1643</ele>
        <time>2026-05-25T10:38:28.000Z</time>
      </trkpt>
      <trkpt lat="44.63651" lon="5.20046">
        <ele>1643</ele>
        <time>2026-05-25T10:38:29.000Z</time>
      </trkpt>
      <trkpt lat="44.63651" lon="5.20046">
        <ele>1643</ele>
        <time>2026-05-25T10:38:30.000Z</time>
      </trkpt>
      <trkpt lat="44.63651" lon="5.20046">
        <ele>1643</ele>
        <time>2026-05-25T10:38:31.000Z</time>
      </trkpt>
      <trkpt lat="44.63651" lon="5.20046">
        <ele>1643</ele>
        <time>2026-05-25T10:38:32.000Z</time>
      </trkpt>
      <trkpt lat="44.63651" lon="5.20046">
        <ele>1643</ele>
        <time>2026-05-25T10:38:33.000Z</time>
      </trkpt>
      <trkpt lat="44.63651" lon="5.20046">
        <ele>1643</ele>
        <time>2026-05-25T10:38:34.000Z</time>
      </trkpt>
      <trkpt lat="44.63651" lon="5.20046">
        <ele>1643</ele>
        <time>2026-05-25T10:38:35.000Z</time>
      </trkpt>
      <trkpt lat="44.63651" lon="5.20046">
        <ele>1643</ele>
        <time>2026-05-25T10:38:36.000Z</time>
      </trkpt>
      <trkpt lat="44.63651" lon="5.20046">
        <ele>1643</ele>
        <time>2026-05-25T10:38:37.000Z</time>
      </trkpt>
      <trkpt lat="44.63651" lon="5.20046">
        <ele>1643</ele>
        <time>2026-05-25T10:38:38.000Z</time>
      </trkpt>
      <trkpt lat="44.63651" lon="5.20046">
        <ele>1643</ele>
        <time>2026-05-25T10:38:39.000Z</time>
      </trkpt>
      <trkpt lat="44.63651" lon="5.20046">
        <ele>1643</ele>
        <time>2026-05-25T10:38:40.000Z</time>
      </trkpt>
      <trkpt lat="44.63651" lon="5.20046">
        <ele>1643</ele>
        <time>2026-05-25T10:38:41.000Z</time>
      </trkpt>
      <trkpt lat="44.63651" lon="5.20046">
        <ele>1643</ele>
        <time>2026-05-25T10:38:42.000Z</time>
      </trkpt>
      <trkpt lat="44.63651" lon="5.20046">
        <ele>1643</ele>
        <time>2026-05-25T10:38:43.000Z</time>
      </trkpt>
      <trkpt lat="44.63651" lon="5.20046">
        <ele>1643</ele>
        <time>2026-05-25T10:38:44.000Z</time>
      </trkpt>
      <trkpt lat="44.63651" lon="5.20046">
        <ele>1643</ele>
        <time>2026-05-25T10:38:45.000Z</time>
      </trkpt>
      <trkpt lat="44.63651" lon="5.20046">
        <ele>1643</ele>
        <time>2026-05-25T10:38:46.000Z</time>
      </trkpt>
      <trkpt lat="44.63651" lon="5.20046">
        <ele>1643</ele>
        <time>2026-05-25T10:38:47.000Z</time>
      </trkpt>
      <trkpt lat="44.63651" lon="5.20046">
        <ele>1643</ele>
        <time>2026-05-25T10:38:48.000Z</time>
      </trkpt>
      <trkpt lat="44.63651" lon="5.20046">
        <ele>1643</ele>
        <time>2026-05-25T10:38:49.000Z</time>
      </trkpt>
      <trkpt lat="44.63651" lon="5.20046">
        <ele>1643</ele>
        <time>2026-05-25T10:38:50.000Z</time>
      </trkpt>
      <trkpt lat="44.63651" lon="5.20046">
        <ele>1643</ele>
        <time>2026-05-25T10:38:51.000Z</time>
      </trkpt>
      <trkpt lat="44.63651" lon="5.20046">
        <ele>1643</ele>
        <time>2026-05-25T10:38:52.000Z</time>
      </trkpt>
      <trkpt lat="44.63651" lon="5.20046">
        <ele>1643</ele>
        <time>2026-05-25T10:38:53.000Z</time>
      </trkpt>
      <trkpt lat="44.63651" lon="5.20046">
        <ele>1643</ele>
        <time>2026-05-25T10:38:54.000Z</time>
      </trkpt>
      <trkpt lat="44.63651" lon="5.20046">
        <ele>1643</ele>
        <time>2026-05-25T10:38:55.000Z</time>
      </trkpt>
      <trkpt lat="44.63651" lon="5.20046">
        <ele>1643</ele>
        <time>2026-05-25T10:38:56.000Z</time>
      </trkpt>
      <trkpt lat="44.63651" lon="5.20046">
        <ele>1643</ele>
        <time>2026-05-25T10:38:57.000Z</time>
      </trkpt>
      <trkpt lat="44.63651" lon="5.20046">
        <ele>1643</ele>
        <time>2026-05-25T10:38:58.000Z</time>
      </trkpt>
      <trkpt lat="44.63651" lon="5.20046">
        <ele>1643</ele>
        <time>2026-05-25T10:38:59.000Z</time>
      </trkpt>
      <trkpt lat="44.63651" lon="5.20046">
        <ele>1643</ele>
        <time>2026-05-25T10:39:00.000Z</time>
      </trkpt>
      <trkpt lat="44.63651" lon="5.20046">
        <ele>1643</ele>
        <time>2026-05-25T10:39:01.000Z</time>
      </trkpt>
      <trkpt lat="44.63651" lon="5.20046">
        <ele>1643</ele>
        <time>2026-05-25T10:39:02.000Z</time>
      </trkpt>
      <trkpt lat="44.63651" lon="5.20046">
        <ele>1643</ele>
        <time>2026-05-25T10:39:03.000Z</time>
      </trkpt>
      <trkpt lat="44.63651" lon="5.20046">
        <ele>1643</ele>
        <time>2026-05-25T10:39:04.000Z</time>
      </trkpt>
      <trkpt lat="44.63651" lon="5.20046">
        <ele>1643</ele>
        <time>2026-05-25T10:39:05.000Z</time>
      </trkpt>
      <trkpt lat="44.63651" lon="5.20046">
        <ele>1643</ele>
        <time>2026-05-25T10:39:06.000Z</time>
      </trkpt>
      <trkpt lat="44.63651" lon="5.20046">
        <ele>1643</ele>
        <time>2026-05-25T10:39:07.000Z</time>
      </trkpt>
      <trkpt lat="44.63651" lon="5.20046">
        <ele>1643</ele>
        <time>2026-05-25T10:39:08.000Z</time>
      </trkpt>
      <trkpt lat="44.63651" lon="5.20046">
        <ele>1643</ele>
        <time>2026-05-25T10:39:09.000Z</time>
      </trkpt>
      <trkpt lat="44.63651" lon="5.20046">
        <ele>1643</ele>
        <time>2026-05-25T10:39:10.000Z</time>
      </trkpt>
      <trkpt lat="44.63651" lon="5.20046">
        <ele>1643</ele>
        <time>2026-05-25T10:39:11.000Z</time>
      </trkpt>
      <trkpt lat="44.63651" lon="5.20046">
        <ele>1643</ele>
        <time>2026-05-25T10:39:12.000Z</time>
      </trkpt>
      <trkpt lat="44.63651" lon="5.20046">
        <ele>1643</ele>
        <time>2026-05-25T10:39:13.000Z</time>
      </trkpt>
      <trkpt lat="44.63651" lon="5.20046">
        <ele>1643</ele>
        <time>2026-05-25T10:39:14.000Z</time>
      </trkpt>
      <trkpt lat="44.63651" lon="5.20046">
        <ele>1643</ele>
        <time>2026-05-25T10:39:15.000Z</time>
      </trkpt>
      <trkpt lat="44.63651" lon="5.20046">
        <ele>1643</ele>
        <time>2026-05-25T10:39:16.000Z</time>
      </trkpt>
      <trkpt lat="44.63651" lon="5.20046">
        <ele>1643</ele>
        <time>2026-05-25T10:39:17.000Z</time>
      </trkpt>
      <trkpt lat="44.63651" lon="5.20046">
        <ele>1643</ele>
        <time>2026-05-25T10:39:18.000Z</time>
      </trkpt>
      <trkpt lat="44.63651" lon="5.20046">
        <ele>1643</ele>
        <time>2026-05-25T10:39:19.000Z</time>
      </trkpt>
      <trkpt lat="44.63651" lon="5.20046">
        <ele>1643</ele>
        <time>2026-05-25T10:39:20.000Z</time>
      </trkpt>
      <trkpt lat="44.63651" lon="5.20046">
        <ele>1643</ele>
        <time>2026-05-25T10:39:21.000Z</time>
      </trkpt>
      <trkpt lat="44.63651" lon="5.20046">
        <ele>1643</ele>
        <time>2026-05-25T10:39:22.000Z</time>
      </trkpt>
      <trkpt lat="44.63651" lon="5.20046">
        <ele>1643</ele>
        <time>2026-05-25T10:39:23.000Z</time>
      </trkpt>
      <trkpt lat="44.63651" lon="5.20046">
        <ele>1643</ele>
        <time>2026-05-25T10:39:24.000Z</time>
      </trkpt>
      <trkpt lat="44.63651" lon="5.20046">
        <ele>1643</ele>
        <time>2026-05-25T10:39:25.000Z</time>
      </trkpt>
      <trkpt lat="44.63651" lon="5.20046">
        <ele>1643</ele>
        <time>2026-05-25T10:39:26.000Z</time>
      </trkpt>
      <trkpt lat="44.63651" lon="5.20046">
        <ele>1643</ele>
        <time>2026-05-25T10:39:27.000Z</time>
      </trkpt>
      <trkpt lat="44.63651" lon="5.20046">
        <ele>1643</ele>
        <time>2026-05-25T10:39:28.000Z</time>
      </trkpt>
      <trkpt lat="44.63651" lon="5.20046">
        <ele>1643</ele>
        <time>2026-05-25T10:39:29.000Z</time>
      </trkpt>
      <trkpt lat="44.63651" lon="5.20046">
        <ele>1643</ele>
        <time>2026-05-25T10:39:30.000Z</time>
      </trkpt>
      <trkpt lat="44.63651" lon="5.20046">
        <ele>1643</ele>
        <time>2026-05-25T10:39:31.000Z</time>
      </trkpt>
      <trkpt lat="44.63651" lon="5.20046">
        <ele>1643</ele>
        <time>2026-05-25T10:39:32.000Z</time>
      </trkpt>
      <trkpt lat="44.63651" lon="5.20046">
        <ele>1643</ele>
        <time>2026-05-25T10:39:33.000Z</time>
      </trkpt>
      <trkpt lat="44.63651" lon="5.20046">
        <ele>1643</ele>
        <time>2026-05-25T10:39:34.000Z</time>
      </trkpt>
      <trkpt lat="44.63651" lon="5.20046">
        <ele>1643</ele>
        <time>2026-05-25T10:39:35.000Z</time>
      </trkpt>
      <trkpt lat="44.63651" lon="5.20046">
        <ele>1643</ele>
        <time>2026-05-25T10:39:36.000Z</time>
      </trkpt>
      <trkpt lat="44.63651" lon="5.20046">
        <ele>1643</ele>
        <time>2026-05-25T10:39:37.000Z</time>
      </trkpt>
      <trkpt lat="44.63651" lon="5.20046">
        <ele>1643</ele>
        <time>2026-05-25T10:39:38.000Z</time>
      </trkpt>
      <trkpt lat="44.63651" lon="5.20046">
        <ele>1643</ele>
        <time>2026-05-25T10:39:39.000Z</time>
      </trkpt>
      <trkpt lat="44.63651" lon="5.20046">
        <ele>1643</ele>
        <time>2026-05-25T10:39:40.000Z</time>
      </trkpt>
      <trkpt lat="44.63651" lon="5.20045">
        <ele>1643</ele>
        <time>2026-05-25T10:39:41.000Z</time>
      </trkpt>
      <trkpt lat="44.63652" lon="5.20046">
        <ele>1643</ele>
        <time>2026-05-25T10:39:42.000Z</time>
      </trkpt>
      <trkpt lat="44.63652" lon="5.20046">
        <ele>1643</ele>
        <time>2026-05-25T10:39:43.000Z</time>
      </trkpt>
      <trkpt lat="44.63653" lon="5.20047">
        <ele>1643</ele>
        <time>2026-05-25T10:39:44.000Z</time>
      </trkpt>
      <trkpt lat="44.63653" lon="5.20047">
        <ele>1644</ele>
        <time>2026-05-25T10:39:45.000Z</time>
      </trkpt>
      <trkpt lat="44.63654" lon="5.20048">
        <ele>1644</ele>
        <time>2026-05-25T10:39:46.000Z</time>
      </trkpt>
      <trkpt lat="44.63654" lon="5.20048">
        <ele>1644</ele>
        <time>2026-05-25T10:39:47.000Z</time>
      </trkpt>
      <trkpt lat="44.63655" lon="5.20049">
        <ele>1644</ele>
        <time>2026-05-25T10:39:48.000Z</time>
      </trkpt>
      <trkpt lat="44.63655" lon="5.20049">
        <ele>1644</ele>
        <time>2026-05-25T10:39:49.000Z</time>
      </trkpt>
      <trkpt lat="44.63655" lon="5.20049">
        <ele>1644</ele>
        <time>2026-05-25T10:39:50.000Z</time>
      </trkpt>
      <trkpt lat="44.63655" lon="5.20049">
        <ele>1644</ele>
        <time>2026-05-25T10:39:51.000Z</time>
      </trkpt>
      <trkpt lat="44.63655" lon="5.20049">
        <ele>1644</ele>
        <time>2026-05-25T10:39:52.000Z</time>
      </trkpt>
      <trkpt lat="44.63655" lon="5.20049">
        <ele>1644</ele>
        <time>2026-05-25T10:39:53.000Z</time>
      </trkpt>
      <trkpt lat="44.63655" lon="5.20049">
        <ele>1644</ele>
        <time>2026-05-25T10:39:54.000Z</time>
      </trkpt>
      <trkpt lat="44.63655" lon="5.20049">
        <ele>1644</ele>
        <time>2026-05-25T10:39:55.000Z</time>
      </trkpt>
      <trkpt lat="44.63655" lon="5.20049">
        <ele>1644</ele>
        <time>2026-05-25T10:39:56.000Z</time>
      </trkpt>
      <trkpt lat="44.63655" lon="5.20049">
        <ele>1644</ele>
        <time>2026-05-25T10:39:57.000Z</time>
      </trkpt>
      <trkpt lat="44.63655" lon="5.20049">
        <ele>1644</ele>
        <time>2026-05-25T10:39:58.000Z</time>
      </trkpt>
      <trkpt lat="44.63655" lon="5.20049">
        <ele>1644</ele>
        <time>2026-05-25T10:39:59.000Z</time>
      </trkpt>
      <trkpt lat="44.63655" lon="5.20049">
        <ele>1644</ele>
        <time>2026-05-25T10:40:00.000Z</time>
      </trkpt>
      <trkpt lat="44.63655" lon="5.20049">
        <ele>1644</ele>
        <time>2026-05-25T10:40:01.000Z</time>
      </trkpt>
      <trkpt lat="44.63655" lon="5.20048">
        <ele>1644</ele>
        <time>2026-05-25T10:40:02.000Z</time>
      </trkpt>
      <trkpt lat="44.63655" lon="5.20048">
        <ele>1644</ele>
        <time>2026-05-25T10:40:03.000Z</time>
      </trkpt>
      <trkpt lat="44.63655" lon="5.20048">
        <ele>1644</ele>
        <time>2026-05-25T10:40:04.000Z</time>
      </trkpt>
      <trkpt lat="44.63655" lon="5.20048">
        <ele>1644</ele>
        <time>2026-05-25T10:40:05.000Z</time>
      </trkpt>
      <trkpt lat="44.63655" lon="5.20048">
        <ele>1644</ele>
        <time>2026-05-25T10:40:06.000Z</time>
      </trkpt>
      <trkpt lat="44.63655" lon="5.20048">
        <ele>1644</ele>
        <time>2026-05-25T10:40:07.000Z</time>
      </trkpt>
      <trkpt lat="44.63655" lon="5.20048">
        <ele>1644</ele>
        <time>2026-05-25T10:40:08.000Z</time>
      </trkpt>
      <trkpt lat="44.63655" lon="5.20048">
        <ele>1644</ele>
        <time>2026-05-25T10:40:09.000Z</time>
      </trkpt>
      <trkpt lat="44.63655" lon="5.20048">
        <ele>1644</ele>
        <time>2026-05-25T10:40:10.000Z</time>
      </trkpt>
      <trkpt lat="44.63655" lon="5.20048">
        <ele>1644</ele>
        <time>2026-05-25T10:40:11.000Z</time>
      </trkpt>
      <trkpt lat="44.63655" lon="5.20048">
        <ele>1644</ele>
        <time>2026-05-25T10:40:12.000Z</time>
      </trkpt>
      <trkpt lat="44.63655" lon="5.20048">
        <ele>1644</ele>
        <time>2026-05-25T10:40:13.000Z</time>
      </trkpt>
      <trkpt lat="44.63655" lon="5.20048">
        <ele>1644</ele>
        <time>2026-05-25T10:40:14.000Z</time>
      </trkpt>
      <trkpt lat="44.63655" lon="5.20048">
        <ele>1644</ele>
        <time>2026-05-25T10:40:15.000Z</time>
      </trkpt>
      <trkpt lat="44.63655" lon="5.20048">
        <ele>1644</ele>
        <time>2026-05-25T10:40:16.000Z</time>
      </trkpt>
      <trkpt lat="44.63655" lon="5.20048">
        <ele>1644</ele>
        <time>2026-05-25T10:40:17.000Z</time>
      </trkpt>
      <trkpt lat="44.63655" lon="5.20048">
        <ele>1644</ele>
        <time>2026-05-25T10:40:18.000Z</time>
      </trkpt>
      <trkpt lat="44.63655" lon="5.20048">
        <ele>1644</ele>
        <time>2026-05-25T10:40:19.000Z</time>
      </trkpt>
      <trkpt lat="44.63655" lon="5.20048">
        <ele>1644</ele>
        <time>2026-05-25T10:40:20.000Z</time>
      </trkpt>
      <trkpt lat="44.63655" lon="5.20048">
        <ele>1644</ele>
        <time>2026-05-25T10:40:21.000Z</time>
      </trkpt>
      <trkpt lat="44.63655" lon="5.20048">
        <ele>1644</ele>
        <time>2026-05-25T10:40:22.000Z</time>
      </trkpt>
      <trkpt lat="44.63655" lon="5.20048">
        <ele>1644</ele>
        <time>2026-05-25T10:40:23.000Z</time>
      </trkpt>
      <trkpt lat="44.63655" lon="5.20048">
        <ele>1644</ele>
        <time>2026-05-25T10:40:24.000Z</time>
      </trkpt>
      <trkpt lat="44.63655" lon="5.20048">
        <ele>1644</ele>
        <time>2026-05-25T10:40:25.000Z</time>
      </trkpt>
      <trkpt lat="44.63655" lon="5.20048">
        <ele>1644</ele>
        <time>2026-05-25T10:40:26.000Z</time>
      </trkpt>
      <trkpt lat="44.63655" lon="5.20048">
        <ele>1644</ele>
        <time>2026-05-25T10:40:27.000Z</time>
      </trkpt>
      <trkpt lat="44.63655" lon="5.20048">
        <ele>1644</ele>
        <time>2026-05-25T10:40:28.000Z</time>
      </trkpt>
      <trkpt lat="44.63655" lon="5.20048">
        <ele>1644</ele>
        <time>2026-05-25T10:40:29.000Z</time>
      </trkpt>
      <trkpt lat="44.63655" lon="5.20048">
        <ele>1644</ele>
        <time>2026-05-25T10:40:30.000Z</time>
      </trkpt>
      <trkpt lat="44.63655" lon="5.20048">
        <ele>1644</ele>
        <time>2026-05-25T10:40:31.000Z</time>
      </trkpt>
      <trkpt lat="44.63655" lon="5.20048">
        <ele>1644</ele>
        <time>2026-05-25T10:40:32.000Z</time>
      </trkpt>
      <trkpt lat="44.63655" lon="5.20048">
        <ele>1644</ele>
        <time>2026-05-25T10:40:33.000Z</time>
      </trkpt>
      <trkpt lat="44.63655" lon="5.20048">
        <ele>1644</ele>
        <time>2026-05-25T10:40:34.000Z</time>
      </trkpt>
      <trkpt lat="44.63655" lon="5.20048">
        <ele>1644</ele>
        <time>2026-05-25T10:40:35.000Z</time>
      </trkpt>
      <trkpt lat="44.63655" lon="5.20048">
        <ele>1644</ele>
        <time>2026-05-25T10:40:36.000Z</time>
      </trkpt>
      <trkpt lat="44.63655" lon="5.20048">
        <ele>1644</ele>
        <time>2026-05-25T10:40:37.000Z</time>
      </trkpt>
      <trkpt lat="44.63655" lon="5.20048">
        <ele>1644</ele>
        <time>2026-05-25T10:40:38.000Z</time>
      </trkpt>
      <trkpt lat="44.63655" lon="5.20048">
        <ele>1644</ele>
        <time>2026-05-25T10:40:39.000Z</time>
      </trkpt>
      <trkpt lat="44.63655" lon="5.20048">
        <ele>1644</ele>
        <time>2026-05-25T10:40:40.000Z</time>
      </trkpt>
      <trkpt lat="44.63655" lon="5.20048">
        <ele>1644</ele>
        <time>2026-05-25T10:40:41.000Z</time>
      </trkpt>
      <trkpt lat="44.63655" lon="5.20048">
        <ele>1644</ele>
        <time>2026-05-25T10:40:42.000Z</time>
      </trkpt>
      <trkpt lat="44.63655" lon="5.20048">
        <ele>1644</ele>
        <time>2026-05-25T10:40:43.000Z</time>
      </trkpt>
      <trkpt lat="44.63655" lon="5.20048">
        <ele>1644</ele>
        <time>2026-05-25T10:40:44.000Z</time>
      </trkpt>
      <trkpt lat="44.63655" lon="5.20048">
        <ele>1644</ele>
        <time>2026-05-25T10:40:45.000Z</time>
      </trkpt>
      <trkpt lat="44.63655" lon="5.20048">
        <ele>1644</ele>
        <time>2026-05-25T10:40:46.000Z</time>
      </trkpt>
      <trkpt lat="44.63655" lon="5.20048">
        <ele>1644</ele>
        <time>2026-05-25T10:40:47.000Z</time>
      </trkpt>
      <trkpt lat="44.63655" lon="5.20048">
        <ele>1644</ele>
        <time>2026-05-25T10:40:48.000Z</time>
      </trkpt>
      <trkpt lat="44.63655" lon="5.20048">
        <ele>1644</ele>
        <time>2026-05-25T10:40:49.000Z</time>
      </trkpt>
      <trkpt lat="44.63655" lon="5.20048">
        <ele>1644</ele>
        <time>2026-05-25T10:40:50.000Z</time>
      </trkpt>
      <trkpt lat="44.63655" lon="5.20048">
        <ele>1644</ele>
        <time>2026-05-25T10:40:51.000Z</time>
      </trkpt>
      <trkpt lat="44.63655" lon="5.20048">
        <ele>1644</ele>
        <time>2026-05-25T10:40:52.000Z</time>
      </trkpt>
      <trkpt lat="44.63655" lon="5.20048">
        <ele>1644</ele>
        <time>2026-05-25T10:40:53.000Z</time>
      </trkpt>
      <trkpt lat="44.63655" lon="5.20048">
        <ele>1644</ele>
        <time>2026-05-25T10:40:54.000Z</time>
      </trkpt>
      <trkpt lat="44.63655" lon="5.20048">
        <ele>1644</ele>
        <time>2026-05-25T10:40:55.000Z</time>
      </trkpt>
      <trkpt lat="44.63655" lon="5.20048">
        <ele>1644</ele>
        <time>2026-05-25T10:40:56.000Z</time>
      </trkpt>
      <trkpt lat="44.63655" lon="5.20048">
        <ele>1644</ele>
        <time>2026-05-25T10:40:57.000Z</time>
      </trkpt>
      <trkpt lat="44.63655" lon="5.20048">
        <ele>1644</ele>
        <time>2026-05-25T10:40:58.000Z</time>
      </trkpt>
      <trkpt lat="44.63655" lon="5.20048">
        <ele>1644</ele>
        <time>2026-05-25T10:40:59.000Z</time>
      </trkpt>
      <trkpt lat="44.63655" lon="5.20048">
        <ele>1644</ele>
        <time>2026-05-25T10:41:00.000Z</time>
      </trkpt>
      <trkpt lat="44.63655" lon="5.20048">
        <ele>1644</ele>
        <time>2026-05-25T10:41:01.000Z</time>
      </trkpt>
      <trkpt lat="44.63655" lon="5.20048">
        <ele>1644</ele>
        <time>2026-05-25T10:41:02.000Z</time>
      </trkpt>
      <trkpt lat="44.63655" lon="5.20048">
        <ele>1644</ele>
        <time>2026-05-25T10:41:03.000Z</time>
      </trkpt>
      <trkpt lat="44.63655" lon="5.20048">
        <ele>1644</ele>
        <time>2026-05-25T10:41:04.000Z</time>
      </trkpt>
      <trkpt lat="44.63655" lon="5.20048">
        <ele>1644</ele>
        <time>2026-05-25T10:41:05.000Z</time>
      </trkpt>
      <trkpt lat="44.63655" lon="5.20048">
        <ele>1644</ele>
        <time>2026-05-25T10:41:06.000Z</time>
      </trkpt>
      <trkpt lat="44.63655" lon="5.20048">
        <ele>1644</ele>
        <time>2026-05-25T10:41:07.000Z</time>
      </trkpt>
      <trkpt lat="44.63655" lon="5.20048">
        <ele>1644</ele>
        <time>2026-05-25T10:41:08.000Z</time>
      </trkpt>
      <trkpt lat="44.63655" lon="5.20048">
        <ele>1644</ele>
        <time>2026-05-25T10:41:09.000Z</time>
      </trkpt>
      <trkpt lat="44.63655" lon="5.20048">
        <ele>1644</ele>
        <time>2026-05-25T10:41:10.000Z</time>
      </trkpt>
      <trkpt lat="44.63655" lon="5.20048">
        <ele>1644</ele>
        <time>2026-05-25T10:41:11.000Z</time>
      </trkpt>
      <trkpt lat="44.63655" lon="5.20048">
        <ele>1644</ele>
        <time>2026-05-25T10:41:12.000Z</time>
      </trkpt>
      <trkpt lat="44.63655" lon="5.20048">
        <ele>1644</ele>
        <time>2026-05-25T10:41:13.000Z</time>
      </trkpt>
      <trkpt lat="44.63655" lon="5.20048">
        <ele>1644</ele>
        <time>2026-05-25T10:41:14.000Z</time>
      </trkpt>
      <trkpt lat="44.63655" lon="5.20048">
        <ele>1644</ele>
        <time>2026-05-25T10:41:15.000Z</time>
      </trkpt>
      <trkpt lat="44.63655" lon="5.20048">
        <ele>1644</ele>
        <time>2026-05-25T10:41:16.000Z</time>
      </trkpt>
      <trkpt lat="44.63655" lon="5.20048">
        <ele>1644</ele>
        <time>2026-05-25T10:41:17.000Z</time>
      </trkpt>
      <trkpt lat="44.63655" lon="5.20048">
        <ele>1644</ele>
        <time>2026-05-25T10:41:18.000Z</time>
      </trkpt>
      <trkpt lat="44.63655" lon="5.20048">
        <ele>1644</ele>
        <time>2026-05-25T10:41:19.000Z</time>
      </trkpt>
      <trkpt lat="44.63655" lon="5.20048">
        <ele>1644</ele>
        <time>2026-05-25T10:41:20.000Z</time>
      </trkpt>
      <trkpt lat="44.63655" lon="5.20048">
        <ele>1644</ele>
        <time>2026-05-25T10:41:21.000Z</time>
      </trkpt>
      <trkpt lat="44.63655" lon="5.20048">
        <ele>1644</ele>
        <time>2026-05-25T10:41:22.000Z</time>
      </trkpt>
      <trkpt lat="44.63655" lon="5.20048">
        <ele>1644</ele>
        <time>2026-05-25T10:41:23.000Z</time>
      </trkpt>
      <trkpt lat="44.63655" lon="5.20048">
        <ele>1644</ele>
        <time>2026-05-25T10:41:24.000Z</time>
      </trkpt>
      <trkpt lat="44.63655" lon="5.20048">
        <ele>1644</ele>
        <time>2026-05-25T10:41:25.000Z</time>
      </trkpt>
      <trkpt lat="44.63655" lon="5.20048">
        <ele>1644</ele>
        <time>2026-05-25T10:41:26.000Z</time>
      </trkpt>
      <trkpt lat="44.63655" lon="5.20048">
        <ele>1644</ele>
        <time>2026-05-25T10:41:27.000Z</time>
      </trkpt>
      <trkpt lat="44.63655" lon="5.20048">
        <ele>1644</ele>
        <time>2026-05-25T10:41:28.000Z</time>
      </trkpt>
      <trkpt lat="44.63655" lon="5.20048">
        <ele>1644</ele>
        <time>2026-05-25T10:41:29.000Z</time>
      </trkpt>
      <trkpt lat="44.63655" lon="5.20048">
        <ele>1644</ele>
        <time>2026-05-25T10:41:30.000Z</time>
      </trkpt>
      <trkpt lat="44.63655" lon="5.20048">
        <ele>1644</ele>
        <time>2026-05-25T10:41:31.000Z</time>
      </trkpt>
      <trkpt lat="44.63655" lon="5.20048">
        <ele>1644</ele>
        <time>2026-05-25T10:41:32.000Z</time>
      </trkpt>
      <trkpt lat="44.63655" lon="5.20048">
        <ele>1644</ele>
        <time>2026-05-25T10:41:33.000Z</time>
      </trkpt>
      <trkpt lat="44.63655" lon="5.20048">
        <ele>1644</ele>
        <time>2026-05-25T10:41:34.000Z</time>
      </trkpt>
      <trkpt lat="44.63655" lon="5.20048">
        <ele>1644</ele>
        <time>2026-05-25T10:41:35.000Z</time>
      </trkpt>
      <trkpt lat="44.63655" lon="5.20048">
        <ele>1644</ele>
        <time>2026-05-25T10:41:36.000Z</time>
      </trkpt>
      <trkpt lat="44.63655" lon="5.20048">
        <ele>1644</ele>
        <time>2026-05-25T10:41:37.000Z</time>
      </trkpt>
      <trkpt lat="44.63655" lon="5.20048">
        <ele>1644</ele>
        <time>2026-05-25T10:41:38.000Z</time>
      </trkpt>
      <trkpt lat="44.63655" lon="5.20048">
        <ele>1644</ele>
        <time>2026-05-25T10:41:39.000Z</time>
      </trkpt>
      <trkpt lat="44.63655" lon="5.20048">
        <ele>1644</ele>
        <time>2026-05-25T10:41:40.000Z</time>
      </trkpt>
      <trkpt lat="44.63655" lon="5.20048">
        <ele>1644</ele>
        <time>2026-05-25T10:41:41.000Z</time>
      </trkpt>
      <trkpt lat="44.63655" lon="5.20048">
        <ele>1644</ele>
        <time>2026-05-25T10:41:42.000Z</time>
      </trkpt>
      <trkpt lat="44.63655" lon="5.20048">
        <ele>1644</ele>
        <time>2026-05-25T10:41:43.000Z</time>
      </trkpt>
      <trkpt lat="44.63655" lon="5.20048">
        <ele>1644</ele>
        <time>2026-05-25T10:41:44.000Z</time>
      </trkpt>
      <trkpt lat="44.63655" lon="5.20048">
        <ele>1644</ele>
        <time>2026-05-25T10:41:45.000Z</time>
      </trkpt>
      <trkpt lat="44.63655" lon="5.20048">
        <ele>1644</ele>
        <time>2026-05-25T10:41:46.000Z</time>
      </trkpt>
      <trkpt lat="44.63655" lon="5.20048">
        <ele>1644</ele>
        <time>2026-05-25T10:41:47.000Z</time>
      </trkpt>
      <trkpt lat="44.63655" lon="5.20048">
        <ele>1644</ele>
        <time>2026-05-25T10:41:48.000Z</time>
      </trkpt>
      <trkpt lat="44.63655" lon="5.20048">
        <ele>1644</ele>
        <time>2026-05-25T10:41:49.000Z</time>
      </trkpt>
      <trkpt lat="44.63655" lon="5.20048">
        <ele>1644</ele>
        <time>2026-05-25T10:41:50.000Z</time>
      </trkpt>
      <trkpt lat="44.63655" lon="5.20048">
        <ele>1644</ele>
        <time>2026-05-25T10:41:51.000Z</time>
      </trkpt>
      <trkpt lat="44.63655" lon="5.20048">
        <ele>1644</ele>
        <time>2026-05-25T10:41:52.000Z</time>
      </trkpt>
      <trkpt lat="44.63655" lon="5.20048">
        <ele>1644</ele>
        <time>2026-05-25T10:41:53.000Z</time>
      </trkpt>
      <trkpt lat="44.63655" lon="5.20048">
        <ele>1644</ele>
        <time>2026-05-25T10:41:54.000Z</time>
      </trkpt>
      <trkpt lat="44.63655" lon="5.20048">
        <ele>1644</ele>
        <time>2026-05-25T10:41:55.000Z</time>
      </trkpt>
      <trkpt lat="44.63655" lon="5.20048">
        <ele>1644</ele>
        <time>2026-05-25T10:41:56.000Z</time>
      </trkpt>
      <trkpt lat="44.63655" lon="5.20048">
        <ele>1644</ele>
        <time>2026-05-25T10:41:57.000Z</time>
      </trkpt>
      <trkpt lat="44.63655" lon="5.20048">
        <ele>1644</ele>
        <time>2026-05-25T10:41:58.000Z</time>
      </trkpt>
      <trkpt lat="44.63655" lon="5.20048">
        <ele>1644</ele>
        <time>2026-05-25T10:41:59.000Z</time>
      </trkpt>
      <trkpt lat="44.63655" lon="5.20048">
        <ele>1644</ele>
        <time>2026-05-25T10:42:00.000Z</time>
      </trkpt>
      <trkpt lat="44.63655" lon="5.20048">
        <ele>1644</ele>
        <time>2026-05-25T10:42:01.000Z</time>
      </trkpt>
      <trkpt lat="44.63655" lon="5.20048">
        <ele>1644</ele>
        <time>2026-05-25T10:42:02.000Z</time>
      </trkpt>
      <trkpt lat="44.63655" lon="5.20048">
        <ele>1644</ele>
        <time>2026-05-25T10:42:03.000Z</time>
      </trkpt>
      <trkpt lat="44.63655" lon="5.20048">
        <ele>1644</ele>
        <time>2026-05-25T10:42:04.000Z</time>
      </trkpt>
      <trkpt lat="44.63655" lon="5.20048">
        <ele>1644</ele>
        <time>2026-05-25T10:42:05.000Z</time>
      </trkpt>
      <trkpt lat="44.63655" lon="5.20048">
        <ele>1644</ele>
        <time>2026-05-25T10:42:06.000Z</time>
      </trkpt>
      <trkpt lat="44.63655" lon="5.20048">
        <ele>1644</ele>
        <time>2026-05-25T10:42:07.000Z</time>
      </trkpt>
      <trkpt lat="44.63655" lon="5.20048">
        <ele>1644</ele>
        <time>2026-05-25T10:42:08.000Z</time>
      </trkpt>
      <trkpt lat="44.63655" lon="5.20048">
        <ele>1644</ele>
        <time>2026-05-25T10:42:09.000Z</time>
      </trkpt>
      <trkpt lat="44.63655" lon="5.20048">
        <ele>1644</ele>
        <time>2026-05-25T10:42:10.000Z</time>
      </trkpt>
      <trkpt lat="44.63655" lon="5.20048">
        <ele>1644</ele>
        <time>2026-05-25T10:42:11.000Z</time>
      </trkpt>
      <trkpt lat="44.63655" lon="5.20048">
        <ele>1644</ele>
        <time>2026-05-25T10:42:12.000Z</time>
      </trkpt>
      <trkpt lat="44.63655" lon="5.20048">
        <ele>1644</ele>
        <time>2026-05-25T10:42:13.000Z</time>
      </trkpt>
      <trkpt lat="44.63655" lon="5.20048">
        <ele>1644</ele>
        <time>2026-05-25T10:42:14.000Z</time>
      </trkpt>
      <trkpt lat="44.63655" lon="5.20048">
        <ele>1644</ele>
        <time>2026-05-25T10:42:15.000Z</time>
      </trkpt>
      <trkpt lat="44.63655" lon="5.20048">
        <ele>1644</ele>
        <time>2026-05-25T10:42:16.000Z</time>
      </trkpt>
      <trkpt lat="44.63655" lon="5.20048">
        <ele>1644</ele>
        <time>2026-05-25T10:42:17.000Z</time>
      </trkpt>
      <trkpt lat="44.63655" lon="5.20048">
        <ele>1644</ele>
        <time>2026-05-25T10:42:18.000Z</time>
      </trkpt>
      <trkpt lat="44.63655" lon="5.20048">
        <ele>1644</ele>
        <time>2026-05-25T10:42:19.000Z</time>
      </trkpt>
      <trkpt lat="44.63655" lon="5.20048">
        <ele>1644</ele>
        <time>2026-05-25T10:42:20.000Z</time>
      </trkpt>
      <trkpt lat="44.63655" lon="5.20048">
        <ele>1644</ele>
        <time>2026-05-25T10:42:21.000Z</time>
      </trkpt>
      <trkpt lat="44.63655" lon="5.20048">
        <ele>1644</ele>
        <time>2026-05-25T10:42:22.000Z</time>
      </trkpt>
      <trkpt lat="44.63655" lon="5.20048">
        <ele>1644</ele>
        <time>2026-05-25T10:42:23.000Z</time>
      </trkpt>
      <trkpt lat="44.63655" lon="5.20048">
        <ele>1644</ele>
        <time>2026-05-25T10:42:24.000Z</time>
      </trkpt>
      <trkpt lat="44.63655" lon="5.20048">
        <ele>1644</ele>
        <time>2026-05-25T10:42:25.000Z</time>
      </trkpt>
      <trkpt lat="44.63655" lon="5.20048">
        <ele>1644</ele>
        <time>2026-05-25T10:42:26.000Z</time>
      </trkpt>
      <trkpt lat="44.63656" lon="5.20046">
        <ele>1643</ele>
        <time>2026-05-25T10:42:27.000Z</time>
      </trkpt>
      <trkpt lat="44.63656" lon="5.20046">
        <ele>1643</ele>
        <time>2026-05-25T10:42:28.000Z</time>
      </trkpt>
      <trkpt lat="44.63656" lon="5.20044">
        <ele>1643</ele>
        <time>2026-05-25T10:42:29.000Z</time>
      </trkpt>
      <trkpt lat="44.63655" lon="5.20044">
        <ele>1642</ele>
        <time>2026-05-25T10:42:30.000Z</time>
      </trkpt>
      <trkpt lat="44.63655" lon="5.20043">
        <ele>1643</ele>
        <time>2026-05-25T10:42:31.000Z</time>
      </trkpt>
      <trkpt lat="44.63655" lon="5.20042">
        <ele>1642</ele>
        <time>2026-05-25T10:42:32.000Z</time>
      </trkpt>
      <trkpt lat="44.63654" lon="5.20042">
        <ele>1642</ele>
        <time>2026-05-25T10:42:33.000Z</time>
      </trkpt>
      <trkpt lat="44.63653" lon="5.20042">
        <ele>1642</ele>
        <time>2026-05-25T10:42:34.000Z</time>
      </trkpt>
      <trkpt lat="44.63653" lon="5.20043">
        <ele>1642</ele>
        <time>2026-05-25T10:42:35.000Z</time>
      </trkpt>
      <trkpt lat="44.63652" lon="5.20043">
        <ele>1642</ele>
        <time>2026-05-25T10:42:36.000Z</time>
      </trkpt>
      <trkpt lat="44.63652" lon="5.20044">
        <ele>1642</ele>
        <time>2026-05-25T10:42:37.000Z</time>
      </trkpt>
      <trkpt lat="44.63652" lon="5.20044">
        <ele>1642</ele>
        <time>2026-05-25T10:42:38.000Z</time>
      </trkpt>
      <trkpt lat="44.63652" lon="5.20044">
        <ele>1642</ele>
        <time>2026-05-25T10:42:39.000Z</time>
      </trkpt>
      <trkpt lat="44.63652" lon="5.20045">
        <ele>1642</ele>
        <time>2026-05-25T10:42:40.000Z</time>
      </trkpt>
      <trkpt lat="44.63652" lon="5.20044">
        <ele>1643</ele>
        <time>2026-05-25T10:42:41.000Z</time>
      </trkpt>
      <trkpt lat="44.63652" lon="5.20044">
        <ele>1643</ele>
        <time>2026-05-25T10:42:42.000Z</time>
      </trkpt>
      <trkpt lat="44.63652" lon="5.20044">
        <ele>1643</ele>
        <time>2026-05-25T10:42:43.000Z</time>
      </trkpt>
      <trkpt lat="44.63652" lon="5.20044">
        <ele>1643</ele>
        <time>2026-05-25T10:42:44.000Z</time>
      </trkpt>
      <trkpt lat="44.63652" lon="5.20044">
        <ele>1643</ele>
        <time>2026-05-25T10:42:45.000Z</time>
      </trkpt>
      <trkpt lat="44.63652" lon="5.20044">
        <ele>1643</ele>
        <time>2026-05-25T10:42:46.000Z</time>
      </trkpt>
      <trkpt lat="44.63652" lon="5.20044">
        <ele>1643</ele>
        <time>2026-05-25T10:42:47.000Z</time>
      </trkpt>
      <trkpt lat="44.63652" lon="5.20044">
        <ele>1643</ele>
        <time>2026-05-25T10:42:48.000Z</time>
      </trkpt>
      <trkpt lat="44.63652" lon="5.20044">
        <ele>1643</ele>
        <time>2026-05-25T10:42:49.000Z</time>
      </trkpt>
      <trkpt lat="44.63652" lon="5.20044">
        <ele>1643</ele>
        <time>2026-05-25T10:42:50.000Z</time>
      </trkpt>
      <trkpt lat="44.63652" lon="5.20044">
        <ele>1643</ele>
        <time>2026-05-25T10:42:51.000Z</time>
      </trkpt>
      <trkpt lat="44.63652" lon="5.20044">
        <ele>1643</ele>
        <time>2026-05-25T10:42:52.000Z</time>
      </trkpt>
      <trkpt lat="44.63651" lon="5.20045">
        <ele>1643</ele>
        <time>2026-05-25T10:42:53.000Z</time>
      </trkpt>
      <trkpt lat="44.6365" lon="5.20045">
        <ele>1643</ele>
        <time>2026-05-25T10:42:54.000Z</time>
      </trkpt>
      <trkpt lat="44.6365" lon="5.20046">
        <ele>1643</ele>
        <time>2026-05-25T10:42:55.000Z</time>
      </trkpt>
      <trkpt lat="44.6365" lon="5.20046">
        <ele>1643</ele>
        <time>2026-05-25T10:42:56.000Z</time>
      </trkpt>
      <trkpt lat="44.6365" lon="5.20046">
        <ele>1643</ele>
        <time>2026-05-25T10:42:57.000Z</time>
      </trkpt>
      <trkpt lat="44.6365" lon="5.20046">
        <ele>1643</ele>
        <time>2026-05-25T10:42:58.000Z</time>
      </trkpt>
      <trkpt lat="44.6365" lon="5.20046">
        <ele>1643</ele>
        <time>2026-05-25T10:42:59.000Z</time>
      </trkpt>
      <trkpt lat="44.6365" lon="5.20046">
        <ele>1643</ele>
        <time>2026-05-25T10:43:00.000Z</time>
      </trkpt>
      <trkpt lat="44.6365" lon="5.20046">
        <ele>1643</ele>
        <time>2026-05-25T10:43:01.000Z</time>
      </trkpt>
      <trkpt lat="44.6365" lon="5.20046">
        <ele>1643</ele>
        <time>2026-05-25T10:43:02.000Z</time>
      </trkpt>
      <trkpt lat="44.6365" lon="5.20046">
        <ele>1643</ele>
        <time>2026-05-25T10:43:03.000Z</time>
      </trkpt>
      <trkpt lat="44.6365" lon="5.20046">
        <ele>1643</ele>
        <time>2026-05-25T10:43:04.000Z</time>
      </trkpt>
      <trkpt lat="44.6365" lon="5.20046">
        <ele>1643</ele>
        <time>2026-05-25T10:43:05.000Z</time>
      </trkpt>
      <trkpt lat="44.63651" lon="5.20045">
        <ele>1642</ele>
        <time>2026-05-25T10:43:06.000Z</time>
      </trkpt>
      <trkpt lat="44.63651" lon="5.20045">
        <ele>1643</ele>
        <time>2026-05-25T10:43:07.000Z</time>
      </trkpt>
      <trkpt lat="44.63651" lon="5.20045">
        <ele>1643</ele>
        <time>2026-05-25T10:43:08.000Z</time>
      </trkpt>
      <trkpt lat="44.63651" lon="5.20045">
        <ele>1643</ele>
        <time>2026-05-25T10:43:09.000Z</time>
      </trkpt>
      <trkpt lat="44.63651" lon="5.20045">
        <ele>1643</ele>
        <time>2026-05-25T10:43:10.000Z</time>
      </trkpt>
      <trkpt lat="44.63651" lon="5.20045">
        <ele>1643</ele>
        <time>2026-05-25T10:43:11.000Z</time>
      </trkpt>
      <trkpt lat="44.63651" lon="5.20045">
        <ele>1643</ele>
        <time>2026-05-25T10:43:12.000Z</time>
      </trkpt>
      <trkpt lat="44.63651" lon="5.20045">
        <ele>1643</ele>
        <time>2026-05-25T10:43:13.000Z</time>
      </trkpt>
      <trkpt lat="44.63651" lon="5.20045">
        <ele>1643</ele>
        <time>2026-05-25T10:43:14.000Z</time>
      </trkpt>
      <trkpt lat="44.63651" lon="5.20045">
        <ele>1643</ele>
        <time>2026-05-25T10:43:15.000Z</time>
      </trkpt>
      <trkpt lat="44.63651" lon="5.20045">
        <ele>1643</ele>
        <time>2026-05-25T10:43:16.000Z</time>
      </trkpt>
      <trkpt lat="44.63651" lon="5.20045">
        <ele>1643</ele>
        <time>2026-05-25T10:43:17.000Z</time>
      </trkpt>
      <trkpt lat="44.63651" lon="5.20045">
        <ele>1643</ele>
        <time>2026-05-25T10:43:18.000Z</time>
      </trkpt>
      <trkpt lat="44.63651" lon="5.20045">
        <ele>1643</ele>
        <time>2026-05-25T10:43:19.000Z</time>
      </trkpt>
      <trkpt lat="44.63651" lon="5.20045">
        <ele>1643</ele>
        <time>2026-05-25T10:43:20.000Z</time>
      </trkpt>
      <trkpt lat="44.63651" lon="5.20045">
        <ele>1643</ele>
        <time>2026-05-25T10:43:21.000Z</time>
      </trkpt>
      <trkpt lat="44.63651" lon="5.20045">
        <ele>1643</ele>
        <time>2026-05-25T10:43:22.000Z</time>
      </trkpt>
      <trkpt lat="44.63651" lon="5.20045">
        <ele>1643</ele>
        <time>2026-05-25T10:43:23.000Z</time>
      </trkpt>
      <trkpt lat="44.63651" lon="5.20045">
        <ele>1644</ele>
        <time>2026-05-25T10:43:24.000Z</time>
      </trkpt>
      <trkpt lat="44.63651" lon="5.20044">
        <ele>1644</ele>
        <time>2026-05-25T10:43:25.000Z</time>
      </trkpt>
      <trkpt lat="44.63651" lon="5.20044">
        <ele>1644</ele>
        <time>2026-05-25T10:43:26.000Z</time>
      </trkpt>
      <trkpt lat="44.63652" lon="5.20044">
        <ele>1644</ele>
        <time>2026-05-25T10:43:27.000Z</time>
      </trkpt>
      <trkpt lat="44.63653" lon="5.20043">
        <ele>1643</ele>
        <time>2026-05-25T10:43:28.000Z</time>
      </trkpt>
      <trkpt lat="44.63653" lon="5.20043">
        <ele>1643</ele>
        <time>2026-05-25T10:43:29.000Z</time>
      </trkpt>
      <trkpt lat="44.63654" lon="5.20043">
        <ele>1642</ele>
        <time>2026-05-25T10:43:30.000Z</time>
      </trkpt>
      <trkpt lat="44.63654" lon="5.20043">
        <ele>1642</ele>
        <time>2026-05-25T10:43:31.000Z</time>
      </trkpt>
      <trkpt lat="44.63654" lon="5.20043">
        <ele>1642</ele>
        <time>2026-05-25T10:43:32.000Z</time>
      </trkpt>
      <trkpt lat="44.63655" lon="5.20043">
        <ele>1642</ele>
        <time>2026-05-25T10:43:33.000Z</time>
      </trkpt>
      <trkpt lat="44.63656" lon="5.20043">
        <ele>1642</ele>
        <time>2026-05-25T10:43:34.000Z</time>
      </trkpt>
      <trkpt lat="44.63657" lon="5.20043">
        <ele>1642</ele>
        <time>2026-05-25T10:43:35.000Z</time>
      </trkpt>
      <trkpt lat="44.63657" lon="5.20042">
        <ele>1642</ele>
        <time>2026-05-25T10:43:36.000Z</time>
      </trkpt>
      <trkpt lat="44.63657" lon="5.20042">
        <ele>1642</ele>
        <time>2026-05-25T10:43:37.000Z</time>
      </trkpt>
      <trkpt lat="44.63657" lon="5.20042">
        <ele>1643</ele>
        <time>2026-05-25T10:43:38.000Z</time>
      </trkpt>
      <trkpt lat="44.63656" lon="5.20043">
        <ele>1643</ele>
        <time>2026-05-25T10:43:39.000Z</time>
      </trkpt>
      <trkpt lat="44.63656" lon="5.20043">
        <ele>1643</ele>
        <time>2026-05-25T10:43:40.000Z</time>
      </trkpt>
      <trkpt lat="44.63656" lon="5.20043">
        <ele>1643</ele>
        <time>2026-05-25T10:43:41.000Z</time>
      </trkpt>
      <trkpt lat="44.63656" lon="5.20043">
        <ele>1643</ele>
        <time>2026-05-25T10:43:42.000Z</time>
      </trkpt>
      <trkpt lat="44.63656" lon="5.20043">
        <ele>1643</ele>
        <time>2026-05-25T10:43:43.000Z</time>
      </trkpt>
      <trkpt lat="44.63656" lon="5.20043">
        <ele>1643</ele>
        <time>2026-05-25T10:43:44.000Z</time>
      </trkpt>
      <trkpt lat="44.63656" lon="5.20043">
        <ele>1643</ele>
        <time>2026-05-25T10:43:45.000Z</time>
      </trkpt>
      <trkpt lat="44.63656" lon="5.20043">
        <ele>1643</ele>
        <time>2026-05-25T10:43:46.000Z</time>
      </trkpt>
      <trkpt lat="44.63656" lon="5.20043">
        <ele>1643</ele>
        <time>2026-05-25T10:43:47.000Z</time>
      </trkpt>
      <trkpt lat="44.63656" lon="5.20043">
        <ele>1643</ele>
        <time>2026-05-25T10:43:48.000Z</time>
      </trkpt>
      <trkpt lat="44.63656" lon="5.20043">
        <ele>1643</ele>
        <time>2026-05-25T10:43:49.000Z</time>
      </trkpt>
      <trkpt lat="44.63656" lon="5.20043">
        <ele>1643</ele>
        <time>2026-05-25T10:43:50.000Z</time>
      </trkpt>
      <trkpt lat="44.63656" lon="5.20043">
        <ele>1643</ele>
        <time>2026-05-25T10:43:51.000Z</time>
      </trkpt>
      <trkpt lat="44.63656" lon="5.20043">
        <ele>1643</ele>
        <time>2026-05-25T10:43:52.000Z</time>
      </trkpt>
      <trkpt lat="44.63656" lon="5.20043">
        <ele>1643</ele>
        <time>2026-05-25T10:43:53.000Z</time>
      </trkpt>
      <trkpt lat="44.63656" lon="5.20043">
        <ele>1643</ele>
        <time>2026-05-25T10:43:54.000Z</time>
      </trkpt>
      <trkpt lat="44.63656" lon="5.20043">
        <ele>1643</ele>
        <time>2026-05-25T10:43:55.000Z</time>
      </trkpt>
      <trkpt lat="44.63656" lon="5.20043">
        <ele>1643</ele>
        <time>2026-05-25T10:43:56.000Z</time>
      </trkpt>
      <trkpt lat="44.63655" lon="5.20042">
        <ele>1644</ele>
        <time>2026-05-25T10:43:57.000Z</time>
      </trkpt>
      <trkpt lat="44.63655" lon="5.20042">
        <ele>1644</ele>
        <time>2026-05-25T10:43:58.000Z</time>
      </trkpt>
      <trkpt lat="44.63655" lon="5.20042">
        <ele>1644</ele>
        <time>2026-05-25T10:43:59.000Z</time>
      </trkpt>
      <trkpt lat="44.63655" lon="5.20042">
        <ele>1644</ele>
        <time>2026-05-25T10:44:00.000Z</time>
      </trkpt>
      <trkpt lat="44.63656" lon="5.20042">
        <ele>1644</ele>
        <time>2026-05-25T10:44:01.000Z</time>
      </trkpt>
      <trkpt lat="44.63656" lon="5.20042">
        <ele>1644</ele>
        <time>2026-05-25T10:44:02.000Z</time>
      </trkpt>
      <trkpt lat="44.63655" lon="5.20042">
        <ele>1643</ele>
        <time>2026-05-25T10:44:03.000Z</time>
      </trkpt>
      <trkpt lat="44.63655" lon="5.20042">
        <ele>1644</ele>
        <time>2026-05-25T10:44:04.000Z</time>
      </trkpt>
      <trkpt lat="44.63656" lon="5.20042">
        <ele>1644</ele>
        <time>2026-05-25T10:44:05.000Z</time>
      </trkpt>
      <trkpt lat="44.63656" lon="5.20041">
        <ele>1644</ele>
        <time>2026-05-25T10:44:06.000Z</time>
      </trkpt>
      <trkpt lat="44.63656" lon="5.20042">
        <ele>1644</ele>
        <time>2026-05-25T10:44:07.000Z</time>
      </trkpt>
      <trkpt lat="44.63656" lon="5.20042">
        <ele>1643</ele>
        <time>2026-05-25T10:44:08.000Z</time>
      </trkpt>
      <trkpt lat="44.63656" lon="5.20041">
        <ele>1643</ele>
        <time>2026-05-25T10:44:09.000Z</time>
      </trkpt>
      <trkpt lat="44.63656" lon="5.2004">
        <ele>1643</ele>
        <time>2026-05-25T10:44:10.000Z</time>
      </trkpt>
      <trkpt lat="44.63656" lon="5.2004">
        <ele>1642</ele>
        <time>2026-05-25T10:44:11.000Z</time>
      </trkpt>
      <trkpt lat="44.63656" lon="5.20039">
        <ele>1642</ele>
        <time>2026-05-25T10:44:12.000Z</time>
      </trkpt>
      <trkpt lat="44.63657" lon="5.20038">
        <ele>1642</ele>
        <time>2026-05-25T10:44:13.000Z</time>
      </trkpt>
      <trkpt lat="44.63658" lon="5.20037">
        <ele>1642</ele>
        <time>2026-05-25T10:44:14.000Z</time>
      </trkpt>
      <trkpt lat="44.63658" lon="5.20036">
        <ele>1641</ele>
        <time>2026-05-25T10:44:15.000Z</time>
      </trkpt>
      <trkpt lat="44.63659" lon="5.20036">
        <ele>1641</ele>
        <time>2026-05-25T10:44:16.000Z</time>
      </trkpt>
      <trkpt lat="44.63659" lon="5.20036">
        <ele>1641</ele>
        <time>2026-05-25T10:44:17.000Z</time>
      </trkpt>
      <trkpt lat="44.63659" lon="5.20036">
        <ele>1641</ele>
        <time>2026-05-25T10:44:18.000Z</time>
      </trkpt>
      <trkpt lat="44.63659" lon="5.20036">
        <ele>1641</ele>
        <time>2026-05-25T10:44:19.000Z</time>
      </trkpt>
      <trkpt lat="44.63659" lon="5.20036">
        <ele>1641</ele>
        <time>2026-05-25T10:44:20.000Z</time>
      </trkpt>
      <trkpt lat="44.63659" lon="5.20036">
        <ele>1641</ele>
        <time>2026-05-25T10:44:21.000Z</time>
      </trkpt>
      <trkpt lat="44.63659" lon="5.20036">
        <ele>1641</ele>
        <time>2026-05-25T10:44:22.000Z</time>
      </trkpt>
      <trkpt lat="44.63659" lon="5.20036">
        <ele>1641</ele>
        <time>2026-05-25T10:44:23.000Z</time>
      </trkpt>
      <trkpt lat="44.63659" lon="5.20036">
        <ele>1641</ele>
        <time>2026-05-25T10:44:24.000Z</time>
      </trkpt>
      <trkpt lat="44.6366" lon="5.20037">
        <ele>1640</ele>
        <time>2026-05-25T10:44:25.000Z</time>
      </trkpt>
      <trkpt lat="44.63661" lon="5.20038">
        <ele>1639</ele>
        <time>2026-05-25T10:44:26.000Z</time>
      </trkpt>
      <trkpt lat="44.63662" lon="5.20038">
        <ele>1639</ele>
        <time>2026-05-25T10:44:27.000Z</time>
      </trkpt>
      <trkpt lat="44.63664" lon="5.20038">
        <ele>1639</ele>
        <time>2026-05-25T10:44:28.000Z</time>
      </trkpt>
      <trkpt lat="44.63664" lon="5.20038">
        <ele>1638</ele>
        <time>2026-05-25T10:44:29.000Z</time>
      </trkpt>
      <trkpt lat="44.63666" lon="5.20037">
        <ele>1638</ele>
        <time>2026-05-25T10:44:30.000Z</time>
      </trkpt>
      <trkpt lat="44.63667" lon="5.20036">
        <ele>1638</ele>
        <time>2026-05-25T10:44:31.000Z</time>
      </trkpt>
      <trkpt lat="44.63668" lon="5.20034">
        <ele>1638</ele>
        <time>2026-05-25T10:44:32.000Z</time>
      </trkpt>
      <trkpt lat="44.63668" lon="5.20033">
        <ele>1638</ele>
        <time>2026-05-25T10:44:33.000Z</time>
      </trkpt>
      <trkpt lat="44.63669" lon="5.20031">
        <ele>1638</ele>
        <time>2026-05-25T10:44:34.000Z</time>
      </trkpt>
      <trkpt lat="44.63669" lon="5.2003">
        <ele>1638</ele>
        <time>2026-05-25T10:44:35.000Z</time>
      </trkpt>
      <trkpt lat="44.63669" lon="5.20028">
        <ele>1637</ele>
        <time>2026-05-25T10:44:36.000Z</time>
      </trkpt>
      <trkpt lat="44.63669" lon="5.20027">
        <ele>1637</ele>
        <time>2026-05-25T10:44:37.000Z</time>
      </trkpt>
      <trkpt lat="44.63669" lon="5.20026">
        <ele>1637</ele>
        <time>2026-05-25T10:44:38.000Z</time>
      </trkpt>
      <trkpt lat="44.63669" lon="5.20024">
        <ele>1637</ele>
        <time>2026-05-25T10:44:39.000Z</time>
      </trkpt>
      <trkpt lat="44.63669" lon="5.20022">
        <ele>1636</ele>
        <time>2026-05-25T10:44:40.000Z</time>
      </trkpt>
      <trkpt lat="44.6367" lon="5.20021">
        <ele>1635</ele>
        <time>2026-05-25T10:44:41.000Z</time>
      </trkpt>
      <trkpt lat="44.6367" lon="5.2002">
        <ele>1635</ele>
        <time>2026-05-25T10:44:42.000Z</time>
      </trkpt>
      <trkpt lat="44.63671" lon="5.20019">
        <ele>1634</ele>
        <time>2026-05-25T10:44:43.000Z</time>
      </trkpt>
      <trkpt lat="44.63672" lon="5.20019">
        <ele>1634</ele>
        <time>2026-05-25T10:44:44.000Z</time>
      </trkpt>
      <trkpt lat="44.63673" lon="5.20019">
        <ele>1634</ele>
        <time>2026-05-25T10:44:45.000Z</time>
      </trkpt>
      <trkpt lat="44.63673" lon="5.2002">
        <ele>1633</ele>
        <time>2026-05-25T10:44:46.000Z</time>
      </trkpt>
      <trkpt lat="44.63674" lon="5.20021">
        <ele>1633</ele>
        <time>2026-05-25T10:44:47.000Z</time>
      </trkpt>
      <trkpt lat="44.63675" lon="5.20022">
        <ele>1633</ele>
        <time>2026-05-25T10:44:48.000Z</time>
      </trkpt>
      <trkpt lat="44.63675" lon="5.20024">
        <ele>1633</ele>
        <time>2026-05-25T10:44:49.000Z</time>
      </trkpt>
      <trkpt lat="44.63676" lon="5.20026">
        <ele>1633</ele>
        <time>2026-05-25T10:44:50.000Z</time>
      </trkpt>
      <trkpt lat="44.63676" lon="5.20027">
        <ele>1632</ele>
        <time>2026-05-25T10:44:51.000Z</time>
      </trkpt>
      <trkpt lat="44.63677" lon="5.20029">
        <ele>1632</ele>
        <time>2026-05-25T10:44:52.000Z</time>
      </trkpt>
      <trkpt lat="44.63678" lon="5.20029">
        <ele>1632</ele>
        <time>2026-05-25T10:44:53.000Z</time>
      </trkpt>
      <trkpt lat="44.63678" lon="5.20028">
        <ele>1632</ele>
        <time>2026-05-25T10:44:54.000Z</time>
      </trkpt>
      <trkpt lat="44.63679" lon="5.20026">
        <ele>1632</ele>
        <time>2026-05-25T10:44:55.000Z</time>
      </trkpt>
      <trkpt lat="44.63679" lon="5.20025">
        <ele>1632</ele>
        <time>2026-05-25T10:44:56.000Z</time>
      </trkpt>
      <trkpt lat="44.63679" lon="5.20024">
        <ele>1631</ele>
        <time>2026-05-25T10:44:57.000Z</time>
      </trkpt>
      <trkpt lat="44.63679" lon="5.20023">
        <ele>1631</ele>
        <time>2026-05-25T10:44:58.000Z</time>
      </trkpt>
      <trkpt lat="44.6368" lon="5.20022">
        <ele>1630</ele>
        <time>2026-05-25T10:44:59.000Z</time>
      </trkpt>
      <trkpt lat="44.6368" lon="5.2002">
        <ele>1630</ele>
        <time>2026-05-25T10:45:00.000Z</time>
      </trkpt>
      <trkpt lat="44.6368" lon="5.20018">
        <ele>1630</ele>
        <time>2026-05-25T10:45:01.000Z</time>
      </trkpt>
      <trkpt lat="44.63681" lon="5.20017">
        <ele>1630</ele>
        <time>2026-05-25T10:45:02.000Z</time>
      </trkpt>
      <trkpt lat="44.63681" lon="5.20016">
        <ele>1629</ele>
        <time>2026-05-25T10:45:03.000Z</time>
      </trkpt>
      <trkpt lat="44.63682" lon="5.20015">
        <ele>1629</ele>
        <time>2026-05-25T10:45:04.000Z</time>
      </trkpt>
      <trkpt lat="44.63682" lon="5.20013">
        <ele>1629</ele>
        <time>2026-05-25T10:45:05.000Z</time>
      </trkpt>
      <trkpt lat="44.63682" lon="5.20012">
        <ele>1629</ele>
        <time>2026-05-25T10:45:06.000Z</time>
      </trkpt>
      <trkpt lat="44.63683" lon="5.20011">
        <ele>1628</ele>
        <time>2026-05-25T10:45:07.000Z</time>
      </trkpt>
      <trkpt lat="44.63683" lon="5.2001">
        <ele>1628</ele>
        <time>2026-05-25T10:45:08.000Z</time>
      </trkpt>
      <trkpt lat="44.63684" lon="5.20008">
        <ele>1628</ele>
        <time>2026-05-25T10:45:09.000Z</time>
      </trkpt>
      <trkpt lat="44.63684" lon="5.20007">
        <ele>1628</ele>
        <time>2026-05-25T10:45:10.000Z</time>
      </trkpt>
      <trkpt lat="44.63684" lon="5.20005">
        <ele>1627</ele>
        <time>2026-05-25T10:45:11.000Z</time>
      </trkpt>
      <trkpt lat="44.63685" lon="5.20003">
        <ele>1627</ele>
        <time>2026-05-25T10:45:12.000Z</time>
      </trkpt>
      <trkpt lat="44.63685" lon="5.20002">
        <ele>1626</ele>
        <time>2026-05-25T10:45:13.000Z</time>
      </trkpt>
      <trkpt lat="44.63685" lon="5.2">
        <ele>1626</ele>
        <time>2026-05-25T10:45:14.000Z</time>
      </trkpt>
      <trkpt lat="44.63686" lon="5.19999">
        <ele>1625</ele>
        <time>2026-05-25T10:45:15.000Z</time>
      </trkpt>
      <trkpt lat="44.63686" lon="5.19997">
        <ele>1625</ele>
        <time>2026-05-25T10:45:16.000Z</time>
      </trkpt>
      <trkpt lat="44.63687" lon="5.19996">
        <ele>1624</ele>
        <time>2026-05-25T10:45:17.000Z</time>
      </trkpt>
      <trkpt lat="44.63687" lon="5.19997">
        <ele>1624</ele>
        <time>2026-05-25T10:45:18.000Z</time>
      </trkpt>
      <trkpt lat="44.63688" lon="5.19998">
        <ele>1624</ele>
        <time>2026-05-25T10:45:19.000Z</time>
      </trkpt>
      <trkpt lat="44.63689" lon="5.2">
        <ele>1624</ele>
        <time>2026-05-25T10:45:20.000Z</time>
      </trkpt>
      <trkpt lat="44.6369" lon="5.20002">
        <ele>1624</ele>
        <time>2026-05-25T10:45:21.000Z</time>
      </trkpt>
      <trkpt lat="44.63691" lon="5.20003">
        <ele>1624</ele>
        <time>2026-05-25T10:45:22.000Z</time>
      </trkpt>
      <trkpt lat="44.63692" lon="5.20005">
        <ele>1623</ele>
        <time>2026-05-25T10:45:23.000Z</time>
      </trkpt>
      <trkpt lat="44.63693" lon="5.20006">
        <ele>1624</ele>
        <time>2026-05-25T10:45:24.000Z</time>
      </trkpt>
      <trkpt lat="44.63693" lon="5.20008">
        <ele>1623</ele>
        <time>2026-05-25T10:45:25.000Z</time>
      </trkpt>
      <trkpt lat="44.63694" lon="5.2001">
        <ele>1623</ele>
        <time>2026-05-25T10:45:26.000Z</time>
      </trkpt>
      <trkpt lat="44.63694" lon="5.20012">
        <ele>1622</ele>
        <time>2026-05-25T10:45:27.000Z</time>
      </trkpt>
      <trkpt lat="44.63694" lon="5.20013">
        <ele>1621</ele>
        <time>2026-05-25T10:45:28.000Z</time>
      </trkpt>
      <trkpt lat="44.63695" lon="5.20015">
        <ele>1621</ele>
        <time>2026-05-25T10:45:29.000Z</time>
      </trkpt>
      <trkpt lat="44.63695" lon="5.20017">
        <ele>1621</ele>
        <time>2026-05-25T10:45:30.000Z</time>
      </trkpt>
      <trkpt lat="44.63696" lon="5.20019">
        <ele>1620</ele>
        <time>2026-05-25T10:45:31.000Z</time>
      </trkpt>
      <trkpt lat="44.63697" lon="5.2002">
        <ele>1620</ele>
        <time>2026-05-25T10:45:32.000Z</time>
      </trkpt>
      <trkpt lat="44.63697" lon="5.20021">
        <ele>1620</ele>
        <time>2026-05-25T10:45:33.000Z</time>
      </trkpt>
      <trkpt lat="44.63698" lon="5.20022">
        <ele>1619</ele>
        <time>2026-05-25T10:45:34.000Z</time>
      </trkpt>
      <trkpt lat="44.63698" lon="5.20023">
        <ele>1619</ele>
        <time>2026-05-25T10:45:35.000Z</time>
      </trkpt>
      <trkpt lat="44.63699" lon="5.20023">
        <ele>1618</ele>
        <time>2026-05-25T10:45:36.000Z</time>
      </trkpt>
      <trkpt lat="44.637" lon="5.20022">
        <ele>1619</ele>
        <time>2026-05-25T10:45:37.000Z</time>
      </trkpt>
      <trkpt lat="44.63701" lon="5.20021">
        <ele>1618</ele>
        <time>2026-05-25T10:45:38.000Z</time>
      </trkpt>
      <trkpt lat="44.63701" lon="5.20019">
        <ele>1617</ele>
        <time>2026-05-25T10:45:39.000Z</time>
      </trkpt>
      <trkpt lat="44.63702" lon="5.20017">
        <ele>1617</ele>
        <time>2026-05-25T10:45:40.000Z</time>
      </trkpt>
      <trkpt lat="44.63702" lon="5.20015">
        <ele>1617</ele>
        <time>2026-05-25T10:45:41.000Z</time>
      </trkpt>
      <trkpt lat="44.63703" lon="5.20014">
        <ele>1617</ele>
        <time>2026-05-25T10:45:42.000Z</time>
      </trkpt>
      <trkpt lat="44.63703" lon="5.20012">
        <ele>1617</ele>
        <time>2026-05-25T10:45:43.000Z</time>
      </trkpt>
      <trkpt lat="44.63703" lon="5.2001">
        <ele>1617</ele>
        <time>2026-05-25T10:45:44.000Z</time>
      </trkpt>
      <trkpt lat="44.63704" lon="5.20009">
        <ele>1616</ele>
        <time>2026-05-25T10:45:45.000Z</time>
      </trkpt>
      <trkpt lat="44.63704" lon="5.20008">
        <ele>1616</ele>
        <time>2026-05-25T10:45:46.000Z</time>
      </trkpt>
      <trkpt lat="44.63704" lon="5.20006">
        <ele>1616</ele>
        <time>2026-05-25T10:45:47.000Z</time>
      </trkpt>
      <trkpt lat="44.63704" lon="5.20004">
        <ele>1616</ele>
        <time>2026-05-25T10:45:48.000Z</time>
      </trkpt>
      <trkpt lat="44.63704" lon="5.20003">
        <ele>1616</ele>
        <time>2026-05-25T10:45:49.000Z</time>
      </trkpt>
      <trkpt lat="44.63705" lon="5.20001">
        <ele>1615</ele>
        <time>2026-05-25T10:45:50.000Z</time>
      </trkpt>
      <trkpt lat="44.63705" lon="5.2">
        <ele>1615</ele>
        <time>2026-05-25T10:45:51.000Z</time>
      </trkpt>
      <trkpt lat="44.63705" lon="5.19998">
        <ele>1615</ele>
        <time>2026-05-25T10:45:52.000Z</time>
      </trkpt>
      <trkpt lat="44.63706" lon="5.19997">
        <ele>1615</ele>
        <time>2026-05-25T10:45:53.000Z</time>
      </trkpt>
      <trkpt lat="44.63706" lon="5.19995">
        <ele>1615</ele>
        <time>2026-05-25T10:45:54.000Z</time>
      </trkpt>
      <trkpt lat="44.63706" lon="5.19993">
        <ele>1615</ele>
        <time>2026-05-25T10:45:55.000Z</time>
      </trkpt>
      <trkpt lat="44.63707" lon="5.19992">
        <ele>1615</ele>
        <time>2026-05-25T10:45:56.000Z</time>
      </trkpt>
      <trkpt lat="44.63707" lon="5.1999">
        <ele>1614</ele>
        <time>2026-05-25T10:45:57.000Z</time>
      </trkpt>
      <trkpt lat="44.63706" lon="5.19988">
        <ele>1614</ele>
        <time>2026-05-25T10:45:58.000Z</time>
      </trkpt>
      <trkpt lat="44.63706" lon="5.19986">
        <ele>1613</ele>
        <time>2026-05-25T10:45:59.000Z</time>
      </trkpt>
      <trkpt lat="44.63706" lon="5.19984">
        <ele>1613</ele>
        <time>2026-05-25T10:46:00.000Z</time>
      </trkpt>
      <trkpt lat="44.63706" lon="5.19982">
        <ele>1613</ele>
        <time>2026-05-25T10:46:01.000Z</time>
      </trkpt>
      <trkpt lat="44.63706" lon="5.19981">
        <ele>1612</ele>
        <time>2026-05-25T10:46:02.000Z</time>
      </trkpt>
      <trkpt lat="44.63706" lon="5.19979">
        <ele>1612</ele>
        <time>2026-05-25T10:46:03.000Z</time>
      </trkpt>
      <trkpt lat="44.63705" lon="5.19977">
        <ele>1611</ele>
        <time>2026-05-25T10:46:04.000Z</time>
      </trkpt>
      <trkpt lat="44.63705" lon="5.19975">
        <ele>1611</ele>
        <time>2026-05-25T10:46:05.000Z</time>
      </trkpt>
      <trkpt lat="44.63705" lon="5.19974">
        <ele>1611</ele>
        <time>2026-05-25T10:46:06.000Z</time>
      </trkpt>
      <trkpt lat="44.63705" lon="5.19972">
        <ele>1610</ele>
        <time>2026-05-25T10:46:07.000Z</time>
      </trkpt>
      <trkpt lat="44.63705" lon="5.19971">
        <ele>1610</ele>
        <time>2026-05-25T10:46:08.000Z</time>
      </trkpt>
      <trkpt lat="44.63706" lon="5.19969">
        <ele>1610</ele>
        <time>2026-05-25T10:46:09.000Z</time>
      </trkpt>
      <trkpt lat="44.63706" lon="5.19967">
        <ele>1610</ele>
        <time>2026-05-25T10:46:10.000Z</time>
      </trkpt>
      <trkpt lat="44.63706" lon="5.19966">
        <ele>1610</ele>
        <time>2026-05-25T10:46:11.000Z</time>
      </trkpt>
      <trkpt lat="44.63706" lon="5.19964">
        <ele>1610</ele>
        <time>2026-05-25T10:46:12.000Z</time>
      </trkpt>
      <trkpt lat="44.63707" lon="5.19963">
        <ele>1609</ele>
        <time>2026-05-25T10:46:13.000Z</time>
      </trkpt>
      <trkpt lat="44.63708" lon="5.19964">
        <ele>1609</ele>
        <time>2026-05-25T10:46:14.000Z</time>
      </trkpt>
      <trkpt lat="44.63709" lon="5.19965">
        <ele>1608</ele>
        <time>2026-05-25T10:46:15.000Z</time>
      </trkpt>
      <trkpt lat="44.6371" lon="5.19966">
        <ele>1608</ele>
        <time>2026-05-25T10:46:16.000Z</time>
      </trkpt>
      <trkpt lat="44.63711" lon="5.19967">
        <ele>1607</ele>
        <time>2026-05-25T10:46:17.000Z</time>
      </trkpt>
      <trkpt lat="44.63711" lon="5.19968">
        <ele>1607</ele>
        <time>2026-05-25T10:46:18.000Z</time>
      </trkpt>
      <trkpt lat="44.63712" lon="5.1997">
        <ele>1607</ele>
        <time>2026-05-25T10:46:19.000Z</time>
      </trkpt>
      <trkpt lat="44.63713" lon="5.19972">
        <ele>1607</ele>
        <time>2026-05-25T10:46:20.000Z</time>
      </trkpt>
      <trkpt lat="44.63713" lon="5.19973">
        <ele>1607</ele>
        <time>2026-05-25T10:46:21.000Z</time>
      </trkpt>
      <trkpt lat="44.63714" lon="5.19974">
        <ele>1607</ele>
        <time>2026-05-25T10:46:22.000Z</time>
      </trkpt>
      <trkpt lat="44.63715" lon="5.19975">
        <ele>1607</ele>
        <time>2026-05-25T10:46:23.000Z</time>
      </trkpt>
      <trkpt lat="44.63716" lon="5.19976">
        <ele>1606</ele>
        <time>2026-05-25T10:46:24.000Z</time>
      </trkpt>
      <trkpt lat="44.63718" lon="5.19977">
        <ele>1606</ele>
        <time>2026-05-25T10:46:25.000Z</time>
      </trkpt>
      <trkpt lat="44.63719" lon="5.19978">
        <ele>1605</ele>
        <time>2026-05-25T10:46:26.000Z</time>
      </trkpt>
      <trkpt lat="44.6372" lon="5.1998">
        <ele>1605</ele>
        <time>2026-05-25T10:46:27.000Z</time>
      </trkpt>
      <trkpt lat="44.63721" lon="5.19982">
        <ele>1605</ele>
        <time>2026-05-25T10:46:28.000Z</time>
      </trkpt>
      <trkpt lat="44.63722" lon="5.19984">
        <ele>1605</ele>
        <time>2026-05-25T10:46:29.000Z</time>
      </trkpt>
      <trkpt lat="44.63722" lon="5.19985">
        <ele>1605</ele>
        <time>2026-05-25T10:46:30.000Z</time>
      </trkpt>
      <trkpt lat="44.63723" lon="5.19987">
        <ele>1605</ele>
        <time>2026-05-25T10:46:31.000Z</time>
      </trkpt>
      <trkpt lat="44.63724" lon="5.19989">
        <ele>1605</ele>
        <time>2026-05-25T10:46:32.000Z</time>
      </trkpt>
      <trkpt lat="44.63725" lon="5.1999">
        <ele>1605</ele>
        <time>2026-05-25T10:46:33.000Z</time>
      </trkpt>
      <trkpt lat="44.63726" lon="5.19992">
        <ele>1605</ele>
        <time>2026-05-25T10:46:34.000Z</time>
      </trkpt>
      <trkpt lat="44.63727" lon="5.19993">
        <ele>1605</ele>
        <time>2026-05-25T10:46:35.000Z</time>
      </trkpt>
      <trkpt lat="44.63728" lon="5.19994">
        <ele>1604</ele>
        <time>2026-05-25T10:46:36.000Z</time>
      </trkpt>
      <trkpt lat="44.63729" lon="5.19995">
        <ele>1604</ele>
        <time>2026-05-25T10:46:37.000Z</time>
      </trkpt>
      <trkpt lat="44.63729" lon="5.19997">
        <ele>1604</ele>
        <time>2026-05-25T10:46:38.000Z</time>
      </trkpt>
      <trkpt lat="44.6373" lon="5.19999">
        <ele>1604</ele>
        <time>2026-05-25T10:46:39.000Z</time>
      </trkpt>
      <trkpt lat="44.63731" lon="5.20001">
        <ele>1604</ele>
        <time>2026-05-25T10:46:40.000Z</time>
      </trkpt>
      <trkpt lat="44.63732" lon="5.20003">
        <ele>1603</ele>
        <time>2026-05-25T10:46:41.000Z</time>
      </trkpt>
      <trkpt lat="44.63733" lon="5.20004">
        <ele>1603</ele>
        <time>2026-05-25T10:46:42.000Z</time>
      </trkpt>
      <trkpt lat="44.63733" lon="5.20006">
        <ele>1602</ele>
        <time>2026-05-25T10:46:43.000Z</time>
      </trkpt>
      <trkpt lat="44.63734" lon="5.20007">
        <ele>1603</ele>
        <time>2026-05-25T10:46:44.000Z</time>
      </trkpt>
      <trkpt lat="44.63734" lon="5.20008">
        <ele>1603</ele>
        <time>2026-05-25T10:46:45.000Z</time>
      </trkpt>
      <trkpt lat="44.63735" lon="5.2001">
        <ele>1602</ele>
        <time>2026-05-25T10:46:46.000Z</time>
      </trkpt>
      <trkpt lat="44.63735" lon="5.20012">
        <ele>1602</ele>
        <time>2026-05-25T10:46:47.000Z</time>
      </trkpt>
      <trkpt lat="44.63736" lon="5.20013">
        <ele>1602</ele>
        <time>2026-05-25T10:46:48.000Z</time>
      </trkpt>
      <trkpt lat="44.63737" lon="5.20014">
        <ele>1603</ele>
        <time>2026-05-25T10:46:49.000Z</time>
      </trkpt>
      <trkpt lat="44.63737" lon="5.20015">
        <ele>1602</ele>
        <time>2026-05-25T10:46:50.000Z</time>
      </trkpt>
      <trkpt lat="44.63738" lon="5.20017">
        <ele>1603</ele>
        <time>2026-05-25T10:46:51.000Z</time>
      </trkpt>
      <trkpt lat="44.63738" lon="5.20018">
        <ele>1603</ele>
        <time>2026-05-25T10:46:52.000Z</time>
      </trkpt>
      <trkpt lat="44.63738" lon="5.2002">
        <ele>1603</ele>
        <time>2026-05-25T10:46:53.000Z</time>
      </trkpt>
      <trkpt lat="44.63738" lon="5.20021">
        <ele>1602</ele>
        <time>2026-05-25T10:46:54.000Z</time>
      </trkpt>
      <trkpt lat="44.63739" lon="5.20023">
        <ele>1603</ele>
        <time>2026-05-25T10:46:55.000Z</time>
      </trkpt>
      <trkpt lat="44.63739" lon="5.20024">
        <ele>1602</ele>
        <time>2026-05-25T10:46:56.000Z</time>
      </trkpt>
      <trkpt lat="44.6374" lon="5.20026">
        <ele>1602</ele>
        <time>2026-05-25T10:46:57.000Z</time>
      </trkpt>
      <trkpt lat="44.6374" lon="5.20027">
        <ele>1601</ele>
        <time>2026-05-25T10:46:58.000Z</time>
      </trkpt>
      <trkpt lat="44.63741" lon="5.20029">
        <ele>1601</ele>
        <time>2026-05-25T10:46:59.000Z</time>
      </trkpt>
      <trkpt lat="44.63741" lon="5.20031">
        <ele>1601</ele>
        <time>2026-05-25T10:47:00.000Z</time>
      </trkpt>
      <trkpt lat="44.63741" lon="5.20032">
        <ele>1601</ele>
        <time>2026-05-25T10:47:01.000Z</time>
      </trkpt>
      <trkpt lat="44.63741" lon="5.20033">
        <ele>1601</ele>
        <time>2026-05-25T10:47:02.000Z</time>
      </trkpt>
      <trkpt lat="44.63742" lon="5.20034">
        <ele>1600</ele>
        <time>2026-05-25T10:47:03.000Z</time>
      </trkpt>
      <trkpt lat="44.63742" lon="5.20036">
        <ele>1600</ele>
        <time>2026-05-25T10:47:04.000Z</time>
      </trkpt>
      <trkpt lat="44.63742" lon="5.20037">
        <ele>1599</ele>
        <time>2026-05-25T10:47:05.000Z</time>
      </trkpt>
      <trkpt lat="44.63743" lon="5.20039">
        <ele>1599</ele>
        <time>2026-05-25T10:47:06.000Z</time>
      </trkpt>
      <trkpt lat="44.63743" lon="5.2004">
        <ele>1599</ele>
        <time>2026-05-25T10:47:07.000Z</time>
      </trkpt>
      <trkpt lat="44.63744" lon="5.20042">
        <ele>1598</ele>
        <time>2026-05-25T10:47:08.000Z</time>
      </trkpt>
      <trkpt lat="44.63745" lon="5.20044">
        <ele>1598</ele>
        <time>2026-05-25T10:47:09.000Z</time>
      </trkpt>
      <trkpt lat="44.63745" lon="5.20046">
        <ele>1598</ele>
        <time>2026-05-25T10:47:10.000Z</time>
      </trkpt>
      <trkpt lat="44.63745" lon="5.20047">
        <ele>1598</ele>
        <time>2026-05-25T10:47:11.000Z</time>
      </trkpt>
      <trkpt lat="44.63746" lon="5.20049">
        <ele>1597</ele>
        <time>2026-05-25T10:47:12.000Z</time>
      </trkpt>
      <trkpt lat="44.63746" lon="5.20051">
        <ele>1597</ele>
        <time>2026-05-25T10:47:13.000Z</time>
      </trkpt>
      <trkpt lat="44.63747" lon="5.20053">
        <ele>1597</ele>
        <time>2026-05-25T10:47:14.000Z</time>
      </trkpt>
      <trkpt lat="44.63747" lon="5.20055">
        <ele>1596</ele>
        <time>2026-05-25T10:47:15.000Z</time>
      </trkpt>
      <trkpt lat="44.63748" lon="5.20056">
        <ele>1596</ele>
        <time>2026-05-25T10:47:16.000Z</time>
      </trkpt>
      <trkpt lat="44.63748" lon="5.20058">
        <ele>1596</ele>
        <time>2026-05-25T10:47:17.000Z</time>
      </trkpt>
      <trkpt lat="44.63749" lon="5.2006">
        <ele>1596</ele>
        <time>2026-05-25T10:47:18.000Z</time>
      </trkpt>
      <trkpt lat="44.63749" lon="5.20062">
        <ele>1596</ele>
        <time>2026-05-25T10:47:19.000Z</time>
      </trkpt>
      <trkpt lat="44.63749" lon="5.20064">
        <ele>1596</ele>
        <time>2026-05-25T10:47:20.000Z</time>
      </trkpt>
      <trkpt lat="44.6375" lon="5.20065">
        <ele>1596</ele>
        <time>2026-05-25T10:47:21.000Z</time>
      </trkpt>
      <trkpt lat="44.63751" lon="5.20066">
        <ele>1596</ele>
        <time>2026-05-25T10:47:22.000Z</time>
      </trkpt>
      <trkpt lat="44.63751" lon="5.20068">
        <ele>1596</ele>
        <time>2026-05-25T10:47:23.000Z</time>
      </trkpt>
      <trkpt lat="44.63752" lon="5.20069">
        <ele>1596</ele>
        <time>2026-05-25T10:47:24.000Z</time>
      </trkpt>
      <trkpt lat="44.63752" lon="5.20069">
        <ele>1595</ele>
        <time>2026-05-25T10:47:25.000Z</time>
      </trkpt>
      <trkpt lat="44.63752" lon="5.20069">
        <ele>1595</ele>
        <time>2026-05-25T10:47:26.000Z</time>
      </trkpt>
      <trkpt lat="44.63753" lon="5.20069">
        <ele>1595</ele>
        <time>2026-05-25T10:47:27.000Z</time>
      </trkpt>
      <trkpt lat="44.63752" lon="5.20069">
        <ele>1595</ele>
        <time>2026-05-25T10:47:28.000Z</time>
      </trkpt>
      <trkpt lat="44.63752" lon="5.20071">
        <ele>1595</ele>
        <time>2026-05-25T10:47:29.000Z</time>
      </trkpt>
      <trkpt lat="44.63752" lon="5.20072">
        <ele>1594</ele>
        <time>2026-05-25T10:47:30.000Z</time>
      </trkpt>
      <trkpt lat="44.63752" lon="5.20073">
        <ele>1595</ele>
        <time>2026-05-25T10:47:31.000Z</time>
      </trkpt>
      <trkpt lat="44.63752" lon="5.20073">
        <ele>1595</ele>
        <time>2026-05-25T10:47:32.000Z</time>
      </trkpt>
      <trkpt lat="44.63753" lon="5.20074">
        <ele>1595</ele>
        <time>2026-05-25T10:47:33.000Z</time>
      </trkpt>
      <trkpt lat="44.63754" lon="5.20074">
        <ele>1595</ele>
        <time>2026-05-25T10:47:34.000Z</time>
      </trkpt>
      <trkpt lat="44.63754" lon="5.20074">
        <ele>1595</ele>
        <time>2026-05-25T10:47:35.000Z</time>
      </trkpt>
      <trkpt lat="44.63754" lon="5.20074">
        <ele>1595</ele>
        <time>2026-05-25T10:47:36.000Z</time>
      </trkpt>
      <trkpt lat="44.63754" lon="5.20074">
        <ele>1595</ele>
        <time>2026-05-25T10:47:37.000Z</time>
      </trkpt>
      <trkpt lat="44.63754" lon="5.20074">
        <ele>1595</ele>
        <time>2026-05-25T10:47:38.000Z</time>
      </trkpt>
      <trkpt lat="44.63754" lon="5.20074">
        <ele>1595</ele>
        <time>2026-05-25T10:47:39.000Z</time>
      </trkpt>
      <trkpt lat="44.63754" lon="5.20074">
        <ele>1595</ele>
        <time>2026-05-25T10:47:40.000Z</time>
      </trkpt>
      <trkpt lat="44.63754" lon="5.20074">
        <ele>1595</ele>
        <time>2026-05-25T10:47:41.000Z</time>
      </trkpt>
      <trkpt lat="44.63754" lon="5.20074">
        <ele>1595</ele>
        <time>2026-05-25T10:47:42.000Z</time>
      </trkpt>
      <trkpt lat="44.63754" lon="5.20074">
        <ele>1595</ele>
        <time>2026-05-25T10:47:43.000Z</time>
      </trkpt>
      <trkpt lat="44.63754" lon="5.20074">
        <ele>1595</ele>
        <time>2026-05-25T10:47:44.000Z</time>
      </trkpt>
      <trkpt lat="44.63755" lon="5.20072">
        <ele>1595</ele>
        <time>2026-05-25T10:47:45.000Z</time>
      </trkpt>
      <trkpt lat="44.63756" lon="5.20072">
        <ele>1594</ele>
        <time>2026-05-25T10:47:46.000Z</time>
      </trkpt>
      <trkpt lat="44.63756" lon="5.20072">
        <ele>1594</ele>
        <time>2026-05-25T10:47:47.000Z</time>
      </trkpt>
      <trkpt lat="44.63757" lon="5.20071">
        <ele>1593</ele>
        <time>2026-05-25T10:47:48.000Z</time>
      </trkpt>
      <trkpt lat="44.63758" lon="5.2007">
        <ele>1593</ele>
        <time>2026-05-25T10:47:49.000Z</time>
      </trkpt>
      <trkpt lat="44.63759" lon="5.2007">
        <ele>1593</ele>
        <time>2026-05-25T10:47:50.000Z</time>
      </trkpt>
      <trkpt lat="44.63759" lon="5.2007">
        <ele>1593</ele>
        <time>2026-05-25T10:47:51.000Z</time>
      </trkpt>
      <trkpt lat="44.63759" lon="5.20069">
        <ele>1593</ele>
        <time>2026-05-25T10:47:52.000Z</time>
      </trkpt>
      <trkpt lat="44.6376" lon="5.20069">
        <ele>1593</ele>
        <time>2026-05-25T10:47:53.000Z</time>
      </trkpt>
      <trkpt lat="44.63761" lon="5.20069">
        <ele>1592</ele>
        <time>2026-05-25T10:47:54.000Z</time>
      </trkpt>
      <trkpt lat="44.63761" lon="5.20069">
        <ele>1592</ele>
        <time>2026-05-25T10:47:55.000Z</time>
      </trkpt>
      <trkpt lat="44.63762" lon="5.20069">
        <ele>1592</ele>
        <time>2026-05-25T10:47:56.000Z</time>
      </trkpt>
      <trkpt lat="44.63762" lon="5.20068">
        <ele>1592</ele>
        <time>2026-05-25T10:47:57.000Z</time>
      </trkpt>
      <trkpt lat="44.63763" lon="5.20067">
        <ele>1591</ele>
        <time>2026-05-25T10:47:58.000Z</time>
      </trkpt>
      <trkpt lat="44.63764" lon="5.20066">
        <ele>1590</ele>
        <time>2026-05-25T10:47:59.000Z</time>
      </trkpt>
      <trkpt lat="44.63765" lon="5.20065">
        <ele>1590</ele>
        <time>2026-05-25T10:48:00.000Z</time>
      </trkpt>
      <trkpt lat="44.63765" lon="5.20063">
        <ele>1590</ele>
        <time>2026-05-25T10:48:01.000Z</time>
      </trkpt>
      <trkpt lat="44.63765" lon="5.20062">
        <ele>1590</ele>
        <time>2026-05-25T10:48:02.000Z</time>
      </trkpt>
      <trkpt lat="44.63766" lon="5.20061">
        <ele>1589</ele>
        <time>2026-05-25T10:48:03.000Z</time>
      </trkpt>
      <trkpt lat="44.63766" lon="5.2006">
        <ele>1589</ele>
        <time>2026-05-25T10:48:04.000Z</time>
      </trkpt>
      <trkpt lat="44.63767" lon="5.20059">
        <ele>1588</ele>
        <time>2026-05-25T10:48:05.000Z</time>
      </trkpt>
      <trkpt lat="44.63768" lon="5.20059">
        <ele>1588</ele>
        <time>2026-05-25T10:48:06.000Z</time>
      </trkpt>
      <trkpt lat="44.63769" lon="5.20058">
        <ele>1588</ele>
        <time>2026-05-25T10:48:07.000Z</time>
      </trkpt>
      <trkpt lat="44.6377" lon="5.20057">
        <ele>1588</ele>
        <time>2026-05-25T10:48:08.000Z</time>
      </trkpt>
      <trkpt lat="44.6377" lon="5.20056">
        <ele>1588</ele>
        <time>2026-05-25T10:48:09.000Z</time>
      </trkpt>
      <trkpt lat="44.6377" lon="5.20055">
        <ele>1587</ele>
        <time>2026-05-25T10:48:10.000Z</time>
      </trkpt>
      <trkpt lat="44.6377" lon="5.20054">
        <ele>1587</ele>
        <time>2026-05-25T10:48:11.000Z</time>
      </trkpt>
      <trkpt lat="44.6377" lon="5.20053">
        <ele>1587</ele>
        <time>2026-05-25T10:48:12.000Z</time>
      </trkpt>
      <trkpt lat="44.63771" lon="5.20053">
        <ele>1586</ele>
        <time>2026-05-25T10:48:13.000Z</time>
      </trkpt>
      <trkpt lat="44.63771" lon="5.20052">
        <ele>1586</ele>
        <time>2026-05-25T10:48:14.000Z</time>
      </trkpt>
      <trkpt lat="44.63772" lon="5.20051">
        <ele>1586</ele>
        <time>2026-05-25T10:48:15.000Z</time>
      </trkpt>
      <trkpt lat="44.63772" lon="5.2005">
        <ele>1585</ele>
        <time>2026-05-25T10:48:16.000Z</time>
      </trkpt>
      <trkpt lat="44.63773" lon="5.20048">
        <ele>1584</ele>
        <time>2026-05-25T10:48:17.000Z</time>
      </trkpt>
      <trkpt lat="44.63773" lon="5.20046">
        <ele>1584</ele>
        <time>2026-05-25T10:48:18.000Z</time>
      </trkpt>
      <trkpt lat="44.63773" lon="5.20045">
        <ele>1584</ele>
        <time>2026-05-25T10:48:19.000Z</time>
      </trkpt>
      <trkpt lat="44.63774" lon="5.20045">
        <ele>1584</ele>
        <time>2026-05-25T10:48:20.000Z</time>
      </trkpt>
      <trkpt lat="44.63775" lon="5.20044">
        <ele>1583</ele>
        <time>2026-05-25T10:48:21.000Z</time>
      </trkpt>
      <trkpt lat="44.63776" lon="5.20044">
        <ele>1583</ele>
        <time>2026-05-25T10:48:22.000Z</time>
      </trkpt>
      <trkpt lat="44.63776" lon="5.20043">
        <ele>1583</ele>
        <time>2026-05-25T10:48:23.000Z</time>
      </trkpt>
      <trkpt lat="44.63777" lon="5.20043">
        <ele>1583</ele>
        <time>2026-05-25T10:48:24.000Z</time>
      </trkpt>
      <trkpt lat="44.63777" lon="5.20042">
        <ele>1583</ele>
        <time>2026-05-25T10:48:25.000Z</time>
      </trkpt>
      <trkpt lat="44.63778" lon="5.20041">
        <ele>1583</ele>
        <time>2026-05-25T10:48:26.000Z</time>
      </trkpt>
      <trkpt lat="44.63778" lon="5.20041">
        <ele>1582</ele>
        <time>2026-05-25T10:48:27.000Z</time>
      </trkpt>
      <trkpt lat="44.63778" lon="5.20041">
        <ele>1582</ele>
        <time>2026-05-25T10:48:28.000Z</time>
      </trkpt>
      <trkpt lat="44.63778" lon="5.20041">
        <ele>1582</ele>
        <time>2026-05-25T10:48:29.000Z</time>
      </trkpt>
      <trkpt lat="44.63778" lon="5.2004">
        <ele>1582</ele>
        <time>2026-05-25T10:48:30.000Z</time>
      </trkpt>
      <trkpt lat="44.63779" lon="5.2004">
        <ele>1582</ele>
        <time>2026-05-25T10:48:31.000Z</time>
      </trkpt>
      <trkpt lat="44.63779" lon="5.20039">
        <ele>1581</ele>
        <time>2026-05-25T10:48:32.000Z</time>
      </trkpt>
      <trkpt lat="44.6378" lon="5.20039">
        <ele>1581</ele>
        <time>2026-05-25T10:48:33.000Z</time>
      </trkpt>
      <trkpt lat="44.6378" lon="5.20038">
        <ele>1581</ele>
        <time>2026-05-25T10:48:34.000Z</time>
      </trkpt>
      <trkpt lat="44.63781" lon="5.20037">
        <ele>1580</ele>
        <time>2026-05-25T10:48:35.000Z</time>
      </trkpt>
      <trkpt lat="44.63781" lon="5.20037">
        <ele>1579</ele>
        <time>2026-05-25T10:48:36.000Z</time>
      </trkpt>
      <trkpt lat="44.63782" lon="5.20037">
        <ele>1579</ele>
        <time>2026-05-25T10:48:37.000Z</time>
      </trkpt>
      <trkpt lat="44.63782" lon="5.20036">
        <ele>1579</ele>
        <time>2026-05-25T10:48:38.000Z</time>
      </trkpt>
      <trkpt lat="44.63783" lon="5.20036">
        <ele>1578</ele>
        <time>2026-05-25T10:48:39.000Z</time>
      </trkpt>
      <trkpt lat="44.63784" lon="5.20035">
        <ele>1578</ele>
        <time>2026-05-25T10:48:40.000Z</time>
      </trkpt>
      <trkpt lat="44.63784" lon="5.20035">
        <ele>1578</ele>
        <time>2026-05-25T10:48:41.000Z</time>
      </trkpt>
      <trkpt lat="44.63785" lon="5.20035">
        <ele>1577</ele>
        <time>2026-05-25T10:48:42.000Z</time>
      </trkpt>
      <trkpt lat="44.63786" lon="5.20034">
        <ele>1577</ele>
        <time>2026-05-25T10:48:43.000Z</time>
      </trkpt>
      <trkpt lat="44.63786" lon="5.20033">
        <ele>1577</ele>
        <time>2026-05-25T10:48:44.000Z</time>
      </trkpt>
      <trkpt lat="44.63787" lon="5.20032">
        <ele>1576</ele>
        <time>2026-05-25T10:48:45.000Z</time>
      </trkpt>
      <trkpt lat="44.63787" lon="5.20031">
        <ele>1576</ele>
        <time>2026-05-25T10:48:46.000Z</time>
      </trkpt>
      <trkpt lat="44.63787" lon="5.20031">
        <ele>1575</ele>
        <time>2026-05-25T10:48:47.000Z</time>
      </trkpt>
      <trkpt lat="44.63788" lon="5.20032">
        <ele>1575</ele>
        <time>2026-05-25T10:48:48.000Z</time>
      </trkpt>
      <trkpt lat="44.63789" lon="5.20033">
        <ele>1575</ele>
        <time>2026-05-25T10:48:49.000Z</time>
      </trkpt>
      <trkpt lat="44.63789" lon="5.20033">
        <ele>1575</ele>
        <time>2026-05-25T10:48:50.000Z</time>
      </trkpt>
      <trkpt lat="44.6379" lon="5.20034">
        <ele>1575</ele>
        <time>2026-05-25T10:48:51.000Z</time>
      </trkpt>
      <trkpt lat="44.6379" lon="5.20035">
        <ele>1574</ele>
        <time>2026-05-25T10:48:52.000Z</time>
      </trkpt>
      <trkpt lat="44.6379" lon="5.20035">
        <ele>1574</ele>
        <time>2026-05-25T10:48:53.000Z</time>
      </trkpt>
      <trkpt lat="44.6379" lon="5.20035">
        <ele>1574</ele>
        <time>2026-05-25T10:48:54.000Z</time>
      </trkpt>
      <trkpt lat="44.63792" lon="5.20035">
        <ele>1573</ele>
        <time>2026-05-25T10:48:55.000Z</time>
      </trkpt>
      <trkpt lat="44.63793" lon="5.20035">
        <ele>1573</ele>
        <time>2026-05-25T10:48:56.000Z</time>
      </trkpt>
      <trkpt lat="44.63794" lon="5.20035">
        <ele>1573</ele>
        <time>2026-05-25T10:48:57.000Z</time>
      </trkpt>
      <trkpt lat="44.63794" lon="5.20036">
        <ele>1573</ele>
        <time>2026-05-25T10:48:58.000Z</time>
      </trkpt>
      <trkpt lat="44.63793" lon="5.20037">
        <ele>1573</ele>
        <time>2026-05-25T10:48:59.000Z</time>
      </trkpt>
      <trkpt lat="44.63794" lon="5.20037">
        <ele>1572</ele>
        <time>2026-05-25T10:49:00.000Z</time>
      </trkpt>
      <trkpt lat="44.63794" lon="5.20037">
        <ele>1572</ele>
        <time>2026-05-25T10:49:01.000Z</time>
      </trkpt>
      <trkpt lat="44.63795" lon="5.20037">
        <ele>1572</ele>
        <time>2026-05-25T10:49:02.000Z</time>
      </trkpt>
      <trkpt lat="44.63795" lon="5.20036">
        <ele>1571</ele>
        <time>2026-05-25T10:49:03.000Z</time>
      </trkpt>
      <trkpt lat="44.63796" lon="5.20036">
        <ele>1571</ele>
        <time>2026-05-25T10:49:04.000Z</time>
      </trkpt>
      <trkpt lat="44.63796" lon="5.20035">
        <ele>1571</ele>
        <time>2026-05-25T10:49:05.000Z</time>
      </trkpt>
      <trkpt lat="44.63796" lon="5.20035">
        <ele>1571</ele>
        <time>2026-05-25T10:49:06.000Z</time>
      </trkpt>
      <trkpt lat="44.63796" lon="5.20035">
        <ele>1570</ele>
        <time>2026-05-25T10:49:07.000Z</time>
      </trkpt>
      <trkpt lat="44.63796" lon="5.20035">
        <ele>1570</ele>
        <time>2026-05-25T10:49:08.000Z</time>
      </trkpt>
      <trkpt lat="44.63796" lon="5.20035">
        <ele>1570</ele>
        <time>2026-05-25T10:49:09.000Z</time>
      </trkpt>
      <trkpt lat="44.63798" lon="5.20037">
        <ele>1570</ele>
        <time>2026-05-25T10:49:10.000Z</time>
      </trkpt>
      <trkpt lat="44.63798" lon="5.20037">
        <ele>1569</ele>
        <time>2026-05-25T10:49:11.000Z</time>
      </trkpt>
      <trkpt lat="44.63798" lon="5.20038">
        <ele>1569</ele>
        <time>2026-05-25T10:49:12.000Z</time>
      </trkpt>
      <trkpt lat="44.63798" lon="5.2004">
        <ele>1569</ele>
        <time>2026-05-25T10:49:13.000Z</time>
      </trkpt>
      <trkpt lat="44.63798" lon="5.20041">
        <ele>1569</ele>
        <time>2026-05-25T10:49:14.000Z</time>
      </trkpt>
      <trkpt lat="44.63798" lon="5.2004">
        <ele>1569</ele>
        <time>2026-05-25T10:49:15.000Z</time>
      </trkpt>
      <trkpt lat="44.63797" lon="5.2004">
        <ele>1569</ele>
        <time>2026-05-25T10:49:16.000Z</time>
      </trkpt>
      <trkpt lat="44.63797" lon="5.20039">
        <ele>1568</ele>
        <time>2026-05-25T10:49:17.000Z</time>
      </trkpt>
      <trkpt lat="44.63797" lon="5.20039">
        <ele>1569</ele>
        <time>2026-05-25T10:49:18.000Z</time>
      </trkpt>
      <trkpt lat="44.63797" lon="5.20039">
        <ele>1569</ele>
        <time>2026-05-25T10:49:19.000Z</time>
      </trkpt>
      <trkpt lat="44.63797" lon="5.20039">
        <ele>1569</ele>
        <time>2026-05-25T10:49:20.000Z</time>
      </trkpt>
      <trkpt lat="44.63797" lon="5.20039">
        <ele>1569</ele>
        <time>2026-05-25T10:49:21.000Z</time>
      </trkpt>
      <trkpt lat="44.63797" lon="5.20039">
        <ele>1569</ele>
        <time>2026-05-25T10:49:22.000Z</time>
      </trkpt>
      <trkpt lat="44.63797" lon="5.20039">
        <ele>1569</ele>
        <time>2026-05-25T10:49:23.000Z</time>
      </trkpt>
      <trkpt lat="44.63797" lon="5.20039">
        <ele>1569</ele>
        <time>2026-05-25T10:49:24.000Z</time>
      </trkpt>
      <trkpt lat="44.63797" lon="5.20039">
        <ele>1569</ele>
        <time>2026-05-25T10:49:25.000Z</time>
      </trkpt>
      <trkpt lat="44.63797" lon="5.20039">
        <ele>1569</ele>
        <time>2026-05-25T10:49:26.000Z</time>
      </trkpt>
      <trkpt lat="44.63797" lon="5.20039">
        <ele>1569</ele>
        <time>2026-05-25T10:49:27.000Z</time>
      </trkpt>
      <trkpt lat="44.63797" lon="5.20039">
        <ele>1569</ele>
        <time>2026-05-25T10:49:28.000Z</time>
      </trkpt>
      <trkpt lat="44.63797" lon="5.20039">
        <ele>1569</ele>
        <time>2026-05-25T10:49:29.000Z</time>
      </trkpt>
      <trkpt lat="44.63797" lon="5.20039">
        <ele>1569</ele>
        <time>2026-05-25T10:49:30.000Z</time>
      </trkpt>
      <trkpt lat="44.63797" lon="5.20039">
        <ele>1569</ele>
        <time>2026-05-25T10:49:31.000Z</time>
      </trkpt>
      <trkpt lat="44.63797" lon="5.20039">
        <ele>1569</ele>
        <time>2026-05-25T10:49:32.000Z</time>
      </trkpt>
      <trkpt lat="44.63797" lon="5.20039">
        <ele>1569</ele>
        <time>2026-05-25T10:49:33.000Z</time>
      </trkpt>
      <trkpt lat="44.63797" lon="5.20039">
        <ele>1569</ele>
        <time>2026-05-25T10:49:34.000Z</time>
      </trkpt>
      <trkpt lat="44.63797" lon="5.20039">
        <ele>1569</ele>
        <time>2026-05-25T10:49:35.000Z</time>
      </trkpt>
      <trkpt lat="44.63797" lon="5.20039">
        <ele>1569</ele>
        <time>2026-05-25T10:49:36.000Z</time>
      </trkpt>
      <trkpt lat="44.63797" lon="5.20039">
        <ele>1568</ele>
        <time>2026-05-25T10:49:37.000Z</time>
      </trkpt>
      <trkpt lat="44.63798" lon="5.20039">
        <ele>1568</ele>
        <time>2026-05-25T10:49:38.000Z</time>
      </trkpt>
      <trkpt lat="44.63799" lon="5.2004">
        <ele>1567</ele>
        <time>2026-05-25T10:49:39.000Z</time>
      </trkpt>
      <trkpt lat="44.638" lon="5.2004">
        <ele>1567</ele>
        <time>2026-05-25T10:49:40.000Z</time>
      </trkpt>
      <trkpt lat="44.638" lon="5.2004">
        <ele>1567</ele>
        <time>2026-05-25T10:49:41.000Z</time>
      </trkpt>
      <trkpt lat="44.638" lon="5.2004">
        <ele>1567</ele>
        <time>2026-05-25T10:49:42.000Z</time>
      </trkpt>
      <trkpt lat="44.638" lon="5.2004">
        <ele>1568</ele>
        <time>2026-05-25T10:49:43.000Z</time>
      </trkpt>
      <trkpt lat="44.638" lon="5.2004">
        <ele>1568</ele>
        <time>2026-05-25T10:49:44.000Z</time>
      </trkpt>
      <trkpt lat="44.638" lon="5.2004">
        <ele>1568</ele>
        <time>2026-05-25T10:49:45.000Z</time>
      </trkpt>
      <trkpt lat="44.638" lon="5.2004">
        <ele>1568</ele>
        <time>2026-05-25T10:49:46.000Z</time>
      </trkpt>
      <trkpt lat="44.638" lon="5.2004">
        <ele>1568</ele>
        <time>2026-05-25T10:49:47.000Z</time>
      </trkpt>
      <trkpt lat="44.638" lon="5.2004">
        <ele>1568</ele>
        <time>2026-05-25T10:49:48.000Z</time>
      </trkpt>
      <trkpt lat="44.638" lon="5.2004">
        <ele>1568</ele>
        <time>2026-05-25T10:49:49.000Z</time>
      </trkpt>
      <trkpt lat="44.638" lon="5.20042">
        <ele>1568</ele>
        <time>2026-05-25T10:49:50.000Z</time>
      </trkpt>
      <trkpt lat="44.63801" lon="5.20043">
        <ele>1567</ele>
        <time>2026-05-25T10:49:51.000Z</time>
      </trkpt>
      <trkpt lat="44.638" lon="5.20044">
        <ele>1567</ele>
        <time>2026-05-25T10:49:52.000Z</time>
      </trkpt>
      <trkpt lat="44.638" lon="5.20046">
        <ele>1567</ele>
        <time>2026-05-25T10:49:53.000Z</time>
      </trkpt>
      <trkpt lat="44.638" lon="5.20047">
        <ele>1567</ele>
        <time>2026-05-25T10:49:54.000Z</time>
      </trkpt>
      <trkpt lat="44.638" lon="5.20048">
        <ele>1567</ele>
        <time>2026-05-25T10:49:55.000Z</time>
      </trkpt>
      <trkpt lat="44.638" lon="5.20048">
        <ele>1567</ele>
        <time>2026-05-25T10:49:56.000Z</time>
      </trkpt>
      <trkpt lat="44.63801" lon="5.20048">
        <ele>1567</ele>
        <time>2026-05-25T10:49:57.000Z</time>
      </trkpt>
      <trkpt lat="44.63801" lon="5.20048">
        <ele>1567</ele>
        <time>2026-05-25T10:49:58.000Z</time>
      </trkpt>
      <trkpt lat="44.63801" lon="5.20048">
        <ele>1567</ele>
        <time>2026-05-25T10:49:59.000Z</time>
      </trkpt>
      <trkpt lat="44.63801" lon="5.20048">
        <ele>1567</ele>
        <time>2026-05-25T10:50:00.000Z</time>
      </trkpt>
      <trkpt lat="44.63801" lon="5.20048">
        <ele>1567</ele>
        <time>2026-05-25T10:50:01.000Z</time>
      </trkpt>
      <trkpt lat="44.63801" lon="5.20048">
        <ele>1567</ele>
        <time>2026-05-25T10:50:02.000Z</time>
      </trkpt>
      <trkpt lat="44.63801" lon="5.20048">
        <ele>1567</ele>
        <time>2026-05-25T10:50:03.000Z</time>
      </trkpt>
      <trkpt lat="44.63801" lon="5.20048">
        <ele>1567</ele>
        <time>2026-05-25T10:50:04.000Z</time>
      </trkpt>
      <trkpt lat="44.63801" lon="5.20048">
        <ele>1567</ele>
        <time>2026-05-25T10:50:05.000Z</time>
      </trkpt>
      <trkpt lat="44.63801" lon="5.20048">
        <ele>1567</ele>
        <time>2026-05-25T10:50:06.000Z</time>
      </trkpt>
      <trkpt lat="44.63801" lon="5.20048">
        <ele>1567</ele>
        <time>2026-05-25T10:50:07.000Z</time>
      </trkpt>
      <trkpt lat="44.63801" lon="5.20048">
        <ele>1567</ele>
        <time>2026-05-25T10:50:08.000Z</time>
      </trkpt>
      <trkpt lat="44.63801" lon="5.20048">
        <ele>1567</ele>
        <time>2026-05-25T10:50:09.000Z</time>
      </trkpt>
      <trkpt lat="44.63801" lon="5.20048">
        <ele>1567</ele>
        <time>2026-05-25T10:50:10.000Z</time>
      </trkpt>
      <trkpt lat="44.63801" lon="5.20048">
        <ele>1567</ele>
        <time>2026-05-25T10:50:11.000Z</time>
      </trkpt>
      <trkpt lat="44.63801" lon="5.20048">
        <ele>1567</ele>
        <time>2026-05-25T10:50:12.000Z</time>
      </trkpt>
      <trkpt lat="44.63801" lon="5.20048">
        <ele>1567</ele>
        <time>2026-05-25T10:50:13.000Z</time>
      </trkpt>
      <trkpt lat="44.63801" lon="5.20048">
        <ele>1567</ele>
        <time>2026-05-25T10:50:14.000Z</time>
      </trkpt>
      <trkpt lat="44.63801" lon="5.20048">
        <ele>1567</ele>
        <time>2026-05-25T10:50:15.000Z</time>
      </trkpt>
      <trkpt lat="44.63801" lon="5.20048">
        <ele>1567</ele>
        <time>2026-05-25T10:50:16.000Z</time>
      </trkpt>
      <trkpt lat="44.63801" lon="5.20048">
        <ele>1567</ele>
        <time>2026-05-25T10:50:17.000Z</time>
      </trkpt>
      <trkpt lat="44.63801" lon="5.20048">
        <ele>1567</ele>
        <time>2026-05-25T10:50:18.000Z</time>
      </trkpt>
      <trkpt lat="44.63801" lon="5.20048">
        <ele>1567</ele>
        <time>2026-05-25T10:50:19.000Z</time>
      </trkpt>
      <trkpt lat="44.63801" lon="5.20048">
        <ele>1567</ele>
        <time>2026-05-25T10:50:20.000Z</time>
      </trkpt>
      <trkpt lat="44.63801" lon="5.20048">
        <ele>1567</ele>
        <time>2026-05-25T10:50:21.000Z</time>
      </trkpt>
      <trkpt lat="44.638" lon="5.20048">
        <ele>1567</ele>
        <time>2026-05-25T10:50:22.000Z</time>
      </trkpt>
      <trkpt lat="44.63801" lon="5.20049">
        <ele>1568</ele>
        <time>2026-05-25T10:50:23.000Z</time>
      </trkpt>
      <trkpt lat="44.63801" lon="5.2005">
        <ele>1568</ele>
        <time>2026-05-25T10:50:24.000Z</time>
      </trkpt>
      <trkpt lat="44.63801" lon="5.20051">
        <ele>1568</ele>
        <time>2026-05-25T10:50:25.000Z</time>
      </trkpt>
      <trkpt lat="44.63802" lon="5.20052">
        <ele>1568</ele>
        <time>2026-05-25T10:50:26.000Z</time>
      </trkpt>
      <trkpt lat="44.63803" lon="5.20054">
        <ele>1567</ele>
        <time>2026-05-25T10:50:27.000Z</time>
      </trkpt>
      <trkpt lat="44.63804" lon="5.20055">
        <ele>1568</ele>
        <time>2026-05-25T10:50:28.000Z</time>
      </trkpt>
      <trkpt lat="44.63805" lon="5.20056">
        <ele>1568</ele>
        <time>2026-05-25T10:50:29.000Z</time>
      </trkpt>
      <trkpt lat="44.63805" lon="5.20057">
        <ele>1567</ele>
        <time>2026-05-25T10:50:30.000Z</time>
      </trkpt>
      <trkpt lat="44.63805" lon="5.20059">
        <ele>1567</ele>
        <time>2026-05-25T10:50:31.000Z</time>
      </trkpt>
      <trkpt lat="44.63805" lon="5.2006">
        <ele>1566</ele>
        <time>2026-05-25T10:50:32.000Z</time>
      </trkpt>
      <trkpt lat="44.63805" lon="5.20062">
        <ele>1567</ele>
        <time>2026-05-25T10:50:33.000Z</time>
      </trkpt>
      <trkpt lat="44.63805" lon="5.20064">
        <ele>1567</ele>
        <time>2026-05-25T10:50:34.000Z</time>
      </trkpt>
      <trkpt lat="44.63806" lon="5.20065">
        <ele>1567</ele>
        <time>2026-05-25T10:50:35.000Z</time>
      </trkpt>
      <trkpt lat="44.63806" lon="5.20067">
        <ele>1566</ele>
        <time>2026-05-25T10:50:36.000Z</time>
      </trkpt>
      <trkpt lat="44.63806" lon="5.20069">
        <ele>1566</ele>
        <time>2026-05-25T10:50:37.000Z</time>
      </trkpt>
      <trkpt lat="44.63806" lon="5.2007">
        <ele>1567</ele>
        <time>2026-05-25T10:50:38.000Z</time>
      </trkpt>
      <trkpt lat="44.63806" lon="5.20072">
        <ele>1567</ele>
        <time>2026-05-25T10:50:39.000Z</time>
      </trkpt>
      <trkpt lat="44.63806" lon="5.20075">
        <ele>1566</ele>
        <time>2026-05-25T10:50:40.000Z</time>
      </trkpt>
      <trkpt lat="44.63807" lon="5.20076">
        <ele>1566</ele>
        <time>2026-05-25T10:50:41.000Z</time>
      </trkpt>
      <trkpt lat="44.63807" lon="5.20077">
        <ele>1566</ele>
        <time>2026-05-25T10:50:42.000Z</time>
      </trkpt>
      <trkpt lat="44.63808" lon="5.20079">
        <ele>1566</ele>
        <time>2026-05-25T10:50:43.000Z</time>
      </trkpt>
      <trkpt lat="44.63809" lon="5.20081">
        <ele>1567</ele>
        <time>2026-05-25T10:50:44.000Z</time>
      </trkpt>
      <trkpt lat="44.63809" lon="5.20082">
        <ele>1567</ele>
        <time>2026-05-25T10:50:45.000Z</time>
      </trkpt>
      <trkpt lat="44.6381" lon="5.20084">
        <ele>1567</ele>
        <time>2026-05-25T10:50:46.000Z</time>
      </trkpt>
      <trkpt lat="44.6381" lon="5.20085">
        <ele>1568</ele>
        <time>2026-05-25T10:50:47.000Z</time>
      </trkpt>
      <trkpt lat="44.63811" lon="5.20087">
        <ele>1567</ele>
        <time>2026-05-25T10:50:48.000Z</time>
      </trkpt>
      <trkpt lat="44.63811" lon="5.20088">
        <ele>1567</ele>
        <time>2026-05-25T10:50:49.000Z</time>
      </trkpt>
      <trkpt lat="44.63812" lon="5.2009">
        <ele>1566</ele>
        <time>2026-05-25T10:50:50.000Z</time>
      </trkpt>
      <trkpt lat="44.63812" lon="5.20091">
        <ele>1567</ele>
        <time>2026-05-25T10:50:51.000Z</time>
      </trkpt>
      <trkpt lat="44.63812" lon="5.20092">
        <ele>1567</ele>
        <time>2026-05-25T10:50:52.000Z</time>
      </trkpt>
      <trkpt lat="44.63812" lon="5.20093">
        <ele>1567</ele>
        <time>2026-05-25T10:50:53.000Z</time>
      </trkpt>
      <trkpt lat="44.63812" lon="5.20093">
        <ele>1567</ele>
        <time>2026-05-25T10:50:54.000Z</time>
      </trkpt>
      <trkpt lat="44.63812" lon="5.20093">
        <ele>1567</ele>
        <time>2026-05-25T10:50:55.000Z</time>
      </trkpt>
      <trkpt lat="44.63812" lon="5.20093">
        <ele>1567</ele>
        <time>2026-05-25T10:50:56.000Z</time>
      </trkpt>
      <trkpt lat="44.63812" lon="5.20093">
        <ele>1567</ele>
        <time>2026-05-25T10:50:57.000Z</time>
      </trkpt>
      <trkpt lat="44.63812" lon="5.20093">
        <ele>1567</ele>
        <time>2026-05-25T10:50:58.000Z</time>
      </trkpt>
      <trkpt lat="44.63812" lon="5.20093">
        <ele>1567</ele>
        <time>2026-05-25T10:50:59.000Z</time>
      </trkpt>
      <trkpt lat="44.63812" lon="5.20093">
        <ele>1567</ele>
        <time>2026-05-25T10:51:00.000Z</time>
      </trkpt>
      <trkpt lat="44.63812" lon="5.20093">
        <ele>1567</ele>
        <time>2026-05-25T10:51:01.000Z</time>
      </trkpt>
      <trkpt lat="44.63812" lon="5.20094">
        <ele>1567</ele>
        <time>2026-05-25T10:51:02.000Z</time>
      </trkpt>
      <trkpt lat="44.63813" lon="5.20095">
        <ele>1567</ele>
        <time>2026-05-25T10:51:03.000Z</time>
      </trkpt>
      <trkpt lat="44.63814" lon="5.20096">
        <ele>1567</ele>
        <time>2026-05-25T10:51:04.000Z</time>
      </trkpt>
      <trkpt lat="44.63814" lon="5.20097">
        <ele>1567</ele>
        <time>2026-05-25T10:51:05.000Z</time>
      </trkpt>
      <trkpt lat="44.63814" lon="5.20099">
        <ele>1568</ele>
        <time>2026-05-25T10:51:06.000Z</time>
      </trkpt>
      <trkpt lat="44.63814" lon="5.201">
        <ele>1568</ele>
        <time>2026-05-25T10:51:07.000Z</time>
      </trkpt>
      <trkpt lat="44.63814" lon="5.201">
        <ele>1568</ele>
        <time>2026-05-25T10:51:08.000Z</time>
      </trkpt>
      <trkpt lat="44.63814" lon="5.201">
        <ele>1568</ele>
        <time>2026-05-25T10:51:09.000Z</time>
      </trkpt>
      <trkpt lat="44.63814" lon="5.201">
        <ele>1568</ele>
        <time>2026-05-25T10:51:10.000Z</time>
      </trkpt>
      <trkpt lat="44.63814" lon="5.201">
        <ele>1568</ele>
        <time>2026-05-25T10:51:11.000Z</time>
      </trkpt>
      <trkpt lat="44.63814" lon="5.201">
        <ele>1568</ele>
        <time>2026-05-25T10:51:12.000Z</time>
      </trkpt>
      <trkpt lat="44.63813" lon="5.20101">
        <ele>1567</ele>
        <time>2026-05-25T10:51:13.000Z</time>
      </trkpt>
      <trkpt lat="44.63813" lon="5.20101">
        <ele>1567</ele>
        <time>2026-05-25T10:51:14.000Z</time>
      </trkpt>
      <trkpt lat="44.63813" lon="5.20103">
        <ele>1568</ele>
        <time>2026-05-25T10:51:15.000Z</time>
      </trkpt>
      <trkpt lat="44.63813" lon="5.20104">
        <ele>1568</ele>
        <time>2026-05-25T10:51:16.000Z</time>
      </trkpt>
      <trkpt lat="44.63813" lon="5.20106">
        <ele>1568</ele>
        <time>2026-05-25T10:51:17.000Z</time>
      </trkpt>
      <trkpt lat="44.63813" lon="5.20107">
        <ele>1568</ele>
        <time>2026-05-25T10:51:18.000Z</time>
      </trkpt>
      <trkpt lat="44.63814" lon="5.20109">
        <ele>1568</ele>
        <time>2026-05-25T10:51:19.000Z</time>
      </trkpt>
      <trkpt lat="44.63814" lon="5.2011">
        <ele>1568</ele>
        <time>2026-05-25T10:51:20.000Z</time>
      </trkpt>
      <trkpt lat="44.63814" lon="5.20112">
        <ele>1568</ele>
        <time>2026-05-25T10:51:21.000Z</time>
      </trkpt>
      <trkpt lat="44.63814" lon="5.20113">
        <ele>1568</ele>
        <time>2026-05-25T10:51:22.000Z</time>
      </trkpt>
      <trkpt lat="44.63814" lon="5.20114">
        <ele>1568</ele>
        <time>2026-05-25T10:51:23.000Z</time>
      </trkpt>
      <trkpt lat="44.63814" lon="5.20115">
        <ele>1567</ele>
        <time>2026-05-25T10:51:24.000Z</time>
      </trkpt>
      <trkpt lat="44.63815" lon="5.20114">
        <ele>1567</ele>
        <time>2026-05-25T10:51:25.000Z</time>
      </trkpt>
      <trkpt lat="44.63816" lon="5.20114">
        <ele>1568</ele>
        <time>2026-05-25T10:51:26.000Z</time>
      </trkpt>
      <trkpt lat="44.63817" lon="5.20116">
        <ele>1568</ele>
        <time>2026-05-25T10:51:27.000Z</time>
      </trkpt>
      <trkpt lat="44.63818" lon="5.20117">
        <ele>1567</ele>
        <time>2026-05-25T10:51:28.000Z</time>
      </trkpt>
      <trkpt lat="44.63819" lon="5.20118">
        <ele>1568</ele>
        <time>2026-05-25T10:51:29.000Z</time>
      </trkpt>
      <trkpt lat="44.6382" lon="5.20118">
        <ele>1568</ele>
        <time>2026-05-25T10:51:30.000Z</time>
      </trkpt>
      <trkpt lat="44.63821" lon="5.20118">
        <ele>1568</ele>
        <time>2026-05-25T10:51:31.000Z</time>
      </trkpt>
      <trkpt lat="44.63822" lon="5.20118">
        <ele>1568</ele>
        <time>2026-05-25T10:51:32.000Z</time>
      </trkpt>
      <trkpt lat="44.63823" lon="5.20119">
        <ele>1568</ele>
        <time>2026-05-25T10:51:33.000Z</time>
      </trkpt>
      <trkpt lat="44.63824" lon="5.2012">
        <ele>1568</ele>
        <time>2026-05-25T10:51:34.000Z</time>
      </trkpt>
      <trkpt lat="44.63825" lon="5.20121">
        <ele>1568</ele>
        <time>2026-05-25T10:51:35.000Z</time>
      </trkpt>
      <trkpt lat="44.63826" lon="5.20122">
        <ele>1569</ele>
        <time>2026-05-25T10:51:36.000Z</time>
      </trkpt>
      <trkpt lat="44.63827" lon="5.20123">
        <ele>1568</ele>
        <time>2026-05-25T10:51:37.000Z</time>
      </trkpt>
      <trkpt lat="44.63828" lon="5.20125">
        <ele>1568</ele>
        <time>2026-05-25T10:51:38.000Z</time>
      </trkpt>
      <trkpt lat="44.63829" lon="5.20126">
        <ele>1568</ele>
        <time>2026-05-25T10:51:39.000Z</time>
      </trkpt>
      <trkpt lat="44.6383" lon="5.20129">
        <ele>1568</ele>
        <time>2026-05-25T10:51:40.000Z</time>
      </trkpt>
      <trkpt lat="44.63831" lon="5.2013">
        <ele>1568</ele>
        <time>2026-05-25T10:51:41.000Z</time>
      </trkpt>
      <trkpt lat="44.63832" lon="5.20131">
        <ele>1568</ele>
        <time>2026-05-25T10:51:42.000Z</time>
      </trkpt>
      <trkpt lat="44.63833" lon="5.20132">
        <ele>1568</ele>
        <time>2026-05-25T10:51:43.000Z</time>
      </trkpt>
      <trkpt lat="44.63834" lon="5.20133">
        <ele>1568</ele>
        <time>2026-05-25T10:51:44.000Z</time>
      </trkpt>
      <trkpt lat="44.63835" lon="5.20133">
        <ele>1569</ele>
        <time>2026-05-25T10:51:45.000Z</time>
      </trkpt>
      <trkpt lat="44.63836" lon="5.20133">
        <ele>1569</ele>
        <time>2026-05-25T10:51:46.000Z</time>
      </trkpt>
      <trkpt lat="44.63837" lon="5.20133">
        <ele>1568</ele>
        <time>2026-05-25T10:51:47.000Z</time>
      </trkpt>
      <trkpt lat="44.63838" lon="5.20134">
        <ele>1568</ele>
        <time>2026-05-25T10:51:48.000Z</time>
      </trkpt>
      <trkpt lat="44.63838" lon="5.20134">
        <ele>1568</ele>
        <time>2026-05-25T10:51:49.000Z</time>
      </trkpt>
      <trkpt lat="44.63839" lon="5.20134">
        <ele>1567</ele>
        <time>2026-05-25T10:51:50.000Z</time>
      </trkpt>
      <trkpt lat="44.6384" lon="5.20133">
        <ele>1567</ele>
        <time>2026-05-25T10:51:51.000Z</time>
      </trkpt>
      <trkpt lat="44.6384" lon="5.20134">
        <ele>1567</ele>
        <time>2026-05-25T10:51:52.000Z</time>
      </trkpt>
      <trkpt lat="44.63841" lon="5.20134">
        <ele>1567</ele>
        <time>2026-05-25T10:51:53.000Z</time>
      </trkpt>
      <trkpt lat="44.63842" lon="5.20134">
        <ele>1566</ele>
        <time>2026-05-25T10:51:54.000Z</time>
      </trkpt>
      <trkpt lat="44.63842" lon="5.20134">
        <ele>1566</ele>
        <time>2026-05-25T10:51:55.000Z</time>
      </trkpt>
      <trkpt lat="44.63842" lon="5.20134">
        <ele>1566</ele>
        <time>2026-05-25T10:51:56.000Z</time>
      </trkpt>
      <trkpt lat="44.63842" lon="5.20134">
        <ele>1566</ele>
        <time>2026-05-25T10:51:57.000Z</time>
      </trkpt>
      <trkpt lat="44.63842" lon="5.20135">
        <ele>1565</ele>
        <time>2026-05-25T10:51:58.000Z</time>
      </trkpt>
      <trkpt lat="44.63842" lon="5.20135">
        <ele>1565</ele>
        <time>2026-05-25T10:51:59.000Z</time>
      </trkpt>
      <trkpt lat="44.63843" lon="5.20134">
        <ele>1565</ele>
        <time>2026-05-25T10:52:00.000Z</time>
      </trkpt>
      <trkpt lat="44.63844" lon="5.20135">
        <ele>1565</ele>
        <time>2026-05-25T10:52:01.000Z</time>
      </trkpt>
      <trkpt lat="44.63845" lon="5.20135">
        <ele>1565</ele>
        <time>2026-05-25T10:52:02.000Z</time>
      </trkpt>
      <trkpt lat="44.63847" lon="5.20135">
        <ele>1565</ele>
        <time>2026-05-25T10:52:03.000Z</time>
      </trkpt>
      <trkpt lat="44.6385" lon="5.20136">
        <ele>1565</ele>
        <time>2026-05-25T10:52:04.000Z</time>
      </trkpt>
      <trkpt lat="44.63853" lon="5.20137">
        <ele>1564</ele>
        <time>2026-05-25T10:52:05.000Z</time>
      </trkpt>
      <trkpt lat="44.63854" lon="5.20137">
        <ele>1564</ele>
        <time>2026-05-25T10:52:06.000Z</time>
      </trkpt>
      <trkpt lat="44.63855" lon="5.20138">
        <ele>1563</ele>
        <time>2026-05-25T10:52:07.000Z</time>
      </trkpt>
      <trkpt lat="44.63856" lon="5.20138">
        <ele>1563</ele>
        <time>2026-05-25T10:52:08.000Z</time>
      </trkpt>
      <trkpt lat="44.63857" lon="5.20138">
        <ele>1563</ele>
        <time>2026-05-25T10:52:09.000Z</time>
      </trkpt>
      <trkpt lat="44.63858" lon="5.20137">
        <ele>1562</ele>
        <time>2026-05-25T10:52:10.000Z</time>
      </trkpt>
      <trkpt lat="44.6386" lon="5.20137">
        <ele>1562</ele>
        <time>2026-05-25T10:52:11.000Z</time>
      </trkpt>
      <trkpt lat="44.63861" lon="5.20137">
        <ele>1561</ele>
        <time>2026-05-25T10:52:12.000Z</time>
      </trkpt>
      <trkpt lat="44.63862" lon="5.20137">
        <ele>1561</ele>
        <time>2026-05-25T10:52:13.000Z</time>
      </trkpt>
      <trkpt lat="44.63863" lon="5.20138">
        <ele>1560</ele>
        <time>2026-05-25T10:52:14.000Z</time>
      </trkpt>
      <trkpt lat="44.63864" lon="5.20139">
        <ele>1560</ele>
        <time>2026-05-25T10:52:15.000Z</time>
      </trkpt>
      <trkpt lat="44.63864" lon="5.2014">
        <ele>1560</ele>
        <time>2026-05-25T10:52:16.000Z</time>
      </trkpt>
      <trkpt lat="44.63865" lon="5.20141">
        <ele>1560</ele>
        <time>2026-05-25T10:52:17.000Z</time>
      </trkpt>
      <trkpt lat="44.63866" lon="5.20141">
        <ele>1560</ele>
        <time>2026-05-25T10:52:18.000Z</time>
      </trkpt>
      <trkpt lat="44.63866" lon="5.20142">
        <ele>1559</ele>
        <time>2026-05-25T10:52:19.000Z</time>
      </trkpt>
      <trkpt lat="44.63867" lon="5.20143">
        <ele>1558</ele>
        <time>2026-05-25T10:52:20.000Z</time>
      </trkpt>
      <trkpt lat="44.63867" lon="5.20144">
        <ele>1558</ele>
        <time>2026-05-25T10:52:21.000Z</time>
      </trkpt>
      <trkpt lat="44.63868" lon="5.20145">
        <ele>1558</ele>
        <time>2026-05-25T10:52:22.000Z</time>
      </trkpt>
      <trkpt lat="44.63868" lon="5.20145">
        <ele>1558</ele>
        <time>2026-05-25T10:52:23.000Z</time>
      </trkpt>
      <trkpt lat="44.63867" lon="5.20146">
        <ele>1559</ele>
        <time>2026-05-25T10:52:24.000Z</time>
      </trkpt>
      <trkpt lat="44.63867" lon="5.20146">
        <ele>1559</ele>
        <time>2026-05-25T10:52:25.000Z</time>
      </trkpt>
      <trkpt lat="44.63867" lon="5.20146">
        <ele>1558</ele>
        <time>2026-05-25T10:52:26.000Z</time>
      </trkpt>
      <trkpt lat="44.63868" lon="5.20146">
        <ele>1559</ele>
        <time>2026-05-25T10:52:27.000Z</time>
      </trkpt>
      <trkpt lat="44.63868" lon="5.20146">
        <ele>1559</ele>
        <time>2026-05-25T10:52:28.000Z</time>
      </trkpt>
      <trkpt lat="44.63868" lon="5.20146">
        <ele>1559</ele>
        <time>2026-05-25T10:52:29.000Z</time>
      </trkpt>
      <trkpt lat="44.63868" lon="5.20146">
        <ele>1559</ele>
        <time>2026-05-25T10:52:30.000Z</time>
      </trkpt>
      <trkpt lat="44.63868" lon="5.20145">
        <ele>1558</ele>
        <time>2026-05-25T10:52:31.000Z</time>
      </trkpt>
      <trkpt lat="44.63868" lon="5.20145">
        <ele>1558</ele>
        <time>2026-05-25T10:52:32.000Z</time>
      </trkpt>
      <trkpt lat="44.63868" lon="5.20144">
        <ele>1558</ele>
        <time>2026-05-25T10:52:33.000Z</time>
      </trkpt>
      <trkpt lat="44.63869" lon="5.20143">
        <ele>1558</ele>
        <time>2026-05-25T10:52:34.000Z</time>
      </trkpt>
      <trkpt lat="44.63869" lon="5.20142">
        <ele>1557</ele>
        <time>2026-05-25T10:52:35.000Z</time>
      </trkpt>
      <trkpt lat="44.6387" lon="5.20142">
        <ele>1557</ele>
        <time>2026-05-25T10:52:36.000Z</time>
      </trkpt>
      <trkpt lat="44.63871" lon="5.20142">
        <ele>1557</ele>
        <time>2026-05-25T10:52:37.000Z</time>
      </trkpt>
      <trkpt lat="44.63871" lon="5.20144">
        <ele>1557</ele>
        <time>2026-05-25T10:52:38.000Z</time>
      </trkpt>
      <trkpt lat="44.63872" lon="5.20144">
        <ele>1557</ele>
        <time>2026-05-25T10:52:39.000Z</time>
      </trkpt>
      <trkpt lat="44.63873" lon="5.20145">
        <ele>1557</ele>
        <time>2026-05-25T10:52:40.000Z</time>
      </trkpt>
      <trkpt lat="44.63874" lon="5.20146">
        <ele>1556</ele>
        <time>2026-05-25T10:52:41.000Z</time>
      </trkpt>
      <trkpt lat="44.63875" lon="5.20146">
        <ele>1557</ele>
        <time>2026-05-25T10:52:42.000Z</time>
      </trkpt>
      <trkpt lat="44.63876" lon="5.20145">
        <ele>1557</ele>
        <time>2026-05-25T10:52:43.000Z</time>
      </trkpt>
      <trkpt lat="44.63877" lon="5.20145">
        <ele>1557</ele>
        <time>2026-05-25T10:52:44.000Z</time>
      </trkpt>
      <trkpt lat="44.63878" lon="5.20146">
        <ele>1556</ele>
        <time>2026-05-25T10:52:45.000Z</time>
      </trkpt>
      <trkpt lat="44.63878" lon="5.20147">
        <ele>1556</ele>
        <time>2026-05-25T10:52:46.000Z</time>
      </trkpt>
      <trkpt lat="44.63878" lon="5.20147">
        <ele>1556</ele>
        <time>2026-05-25T10:52:47.000Z</time>
      </trkpt>
      <trkpt lat="44.63878" lon="5.20147">
        <ele>1556</ele>
        <time>2026-05-25T10:52:48.000Z</time>
      </trkpt>
      <trkpt lat="44.63878" lon="5.20147">
        <ele>1556</ele>
        <time>2026-05-25T10:52:49.000Z</time>
      </trkpt>
      <trkpt lat="44.63878" lon="5.20148">
        <ele>1556</ele>
        <time>2026-05-25T10:52:50.000Z</time>
      </trkpt>
      <trkpt lat="44.63878" lon="5.20148">
        <ele>1556</ele>
        <time>2026-05-25T10:52:51.000Z</time>
      </trkpt>
      <trkpt lat="44.63878" lon="5.20148">
        <ele>1556</ele>
        <time>2026-05-25T10:52:52.000Z</time>
      </trkpt>
      <trkpt lat="44.63878" lon="5.20149">
        <ele>1557</ele>
        <time>2026-05-25T10:52:53.000Z</time>
      </trkpt>
      <trkpt lat="44.63879" lon="5.20149">
        <ele>1557</ele>
        <time>2026-05-25T10:52:54.000Z</time>
      </trkpt>
      <trkpt lat="44.63879" lon="5.20149">
        <ele>1556</ele>
        <time>2026-05-25T10:52:55.000Z</time>
      </trkpt>
      <trkpt lat="44.63879" lon="5.20149">
        <ele>1556</ele>
        <time>2026-05-25T10:52:56.000Z</time>
      </trkpt>
      <trkpt lat="44.63879" lon="5.20149">
        <ele>1557</ele>
        <time>2026-05-25T10:52:57.000Z</time>
      </trkpt>
      <trkpt lat="44.63879" lon="5.20149">
        <ele>1557</ele>
        <time>2026-05-25T10:52:58.000Z</time>
      </trkpt>
      <trkpt lat="44.63879" lon="5.20149">
        <ele>1557</ele>
        <time>2026-05-25T10:52:59.000Z</time>
      </trkpt>
      <trkpt lat="44.63879" lon="5.20149">
        <ele>1557</ele>
        <time>2026-05-25T10:53:00.000Z</time>
      </trkpt>
      <trkpt lat="44.63879" lon="5.20149">
        <ele>1557</ele>
        <time>2026-05-25T10:53:01.000Z</time>
      </trkpt>
      <trkpt lat="44.63879" lon="5.20149">
        <ele>1557</ele>
        <time>2026-05-25T10:53:02.000Z</time>
      </trkpt>
      <trkpt lat="44.63879" lon="5.20149">
        <ele>1557</ele>
        <time>2026-05-25T10:53:03.000Z</time>
      </trkpt>
      <trkpt lat="44.63879" lon="5.20149">
        <ele>1557</ele>
        <time>2026-05-25T10:53:04.000Z</time>
      </trkpt>
      <trkpt lat="44.63879" lon="5.20149">
        <ele>1556</ele>
        <time>2026-05-25T10:53:05.000Z</time>
      </trkpt>
      <trkpt lat="44.63879" lon="5.20149">
        <ele>1556</ele>
        <time>2026-05-25T10:53:06.000Z</time>
      </trkpt>
      <trkpt lat="44.63879" lon="5.20149">
        <ele>1556</ele>
        <time>2026-05-25T10:53:07.000Z</time>
      </trkpt>
      <trkpt lat="44.63879" lon="5.20149">
        <ele>1556</ele>
        <time>2026-05-25T10:53:08.000Z</time>
      </trkpt>
      <trkpt lat="44.63879" lon="5.20149">
        <ele>1556</ele>
        <time>2026-05-25T10:53:09.000Z</time>
      </trkpt>
      <trkpt lat="44.63879" lon="5.20148">
        <ele>1555</ele>
        <time>2026-05-25T10:53:10.000Z</time>
      </trkpt>
      <trkpt lat="44.63879" lon="5.20147">
        <ele>1555</ele>
        <time>2026-05-25T10:53:11.000Z</time>
      </trkpt>
      <trkpt lat="44.63878" lon="5.20147">
        <ele>1555</ele>
        <time>2026-05-25T10:53:12.000Z</time>
      </trkpt>
      <trkpt lat="44.63879" lon="5.20146">
        <ele>1556</ele>
        <time>2026-05-25T10:53:13.000Z</time>
      </trkpt>
      <trkpt lat="44.63879" lon="5.20146">
        <ele>1556</ele>
        <time>2026-05-25T10:53:14.000Z</time>
      </trkpt>
      <trkpt lat="44.63879" lon="5.20146">
        <ele>1556</ele>
        <time>2026-05-25T10:53:15.000Z</time>
      </trkpt>
      <trkpt lat="44.63879" lon="5.20146">
        <ele>1556</ele>
        <time>2026-05-25T10:53:16.000Z</time>
      </trkpt>
      <trkpt lat="44.63879" lon="5.20146">
        <ele>1556</ele>
        <time>2026-05-25T10:53:17.000Z</time>
      </trkpt>
      <trkpt lat="44.63879" lon="5.20146">
        <ele>1556</ele>
        <time>2026-05-25T10:53:18.000Z</time>
      </trkpt>
      <trkpt lat="44.63879" lon="5.20146">
        <ele>1556</ele>
        <time>2026-05-25T10:53:19.000Z</time>
      </trkpt>
      <trkpt lat="44.6388" lon="5.20146">
        <ele>1555</ele>
        <time>2026-05-25T10:53:20.000Z</time>
      </trkpt>
      <trkpt lat="44.63881" lon="5.20145">
        <ele>1555</ele>
        <time>2026-05-25T10:53:21.000Z</time>
      </trkpt>
      <trkpt lat="44.63881" lon="5.20145">
        <ele>1555</ele>
        <time>2026-05-25T10:53:22.000Z</time>
      </trkpt>
      <trkpt lat="44.63882" lon="5.20145">
        <ele>1555</ele>
        <time>2026-05-25T10:53:23.000Z</time>
      </trkpt>
      <trkpt lat="44.63882" lon="5.20145">
        <ele>1555</ele>
        <time>2026-05-25T10:53:24.000Z</time>
      </trkpt>
      <trkpt lat="44.63883" lon="5.20145">
        <ele>1555</ele>
        <time>2026-05-25T10:53:25.000Z</time>
      </trkpt>
      <trkpt lat="44.63884" lon="5.20145">
        <ele>1555</ele>
        <time>2026-05-25T10:53:26.000Z</time>
      </trkpt>
      <trkpt lat="44.63885" lon="5.20145">
        <ele>1555</ele>
        <time>2026-05-25T10:53:27.000Z</time>
      </trkpt>
      <trkpt lat="44.63886" lon="5.20145">
        <ele>1554</ele>
        <time>2026-05-25T10:53:28.000Z</time>
      </trkpt>
      <trkpt lat="44.63887" lon="5.20145">
        <ele>1554</ele>
        <time>2026-05-25T10:53:29.000Z</time>
      </trkpt>
      <trkpt lat="44.63889" lon="5.20145">
        <ele>1554</ele>
        <time>2026-05-25T10:53:30.000Z</time>
      </trkpt>
      <trkpt lat="44.63889" lon="5.20144">
        <ele>1553</ele>
        <time>2026-05-25T10:53:31.000Z</time>
      </trkpt>
      <trkpt lat="44.6389" lon="5.20144">
        <ele>1553</ele>
        <time>2026-05-25T10:53:32.000Z</time>
      </trkpt>
      <trkpt lat="44.63891" lon="5.20144">
        <ele>1553</ele>
        <time>2026-05-25T10:53:33.000Z</time>
      </trkpt>
      <trkpt lat="44.63892" lon="5.20144">
        <ele>1552</ele>
        <time>2026-05-25T10:53:34.000Z</time>
      </trkpt>
      <trkpt lat="44.63893" lon="5.20144">
        <ele>1552</ele>
        <time>2026-05-25T10:53:35.000Z</time>
      </trkpt>
      <trkpt lat="44.63894" lon="5.20145">
        <ele>1551</ele>
        <time>2026-05-25T10:53:36.000Z</time>
      </trkpt>
      <trkpt lat="44.63895" lon="5.20145">
        <ele>1551</ele>
        <time>2026-05-25T10:53:37.000Z</time>
      </trkpt>
      <trkpt lat="44.63896" lon="5.20145">
        <ele>1551</ele>
        <time>2026-05-25T10:53:38.000Z</time>
      </trkpt>
      <trkpt lat="44.63897" lon="5.20145">
        <ele>1551</ele>
        <time>2026-05-25T10:53:39.000Z</time>
      </trkpt>
      <trkpt lat="44.63899" lon="5.20145">
        <ele>1551</ele>
        <time>2026-05-25T10:53:40.000Z</time>
      </trkpt>
      <trkpt lat="44.639" lon="5.20145">
        <ele>1550</ele>
        <time>2026-05-25T10:53:41.000Z</time>
      </trkpt>
      <trkpt lat="44.63901" lon="5.20146">
        <ele>1550</ele>
        <time>2026-05-25T10:53:42.000Z</time>
      </trkpt>
      <trkpt lat="44.63902" lon="5.20146">
        <ele>1549</ele>
        <time>2026-05-25T10:53:43.000Z</time>
      </trkpt>
      <trkpt lat="44.63903" lon="5.20146">
        <ele>1549</ele>
        <time>2026-05-25T10:53:44.000Z</time>
      </trkpt>
      <trkpt lat="44.63904" lon="5.20147">
        <ele>1549</ele>
        <time>2026-05-25T10:53:45.000Z</time>
      </trkpt>
      <trkpt lat="44.63905" lon="5.20147">
        <ele>1548</ele>
        <time>2026-05-25T10:53:46.000Z</time>
      </trkpt>
      <trkpt lat="44.63906" lon="5.20148">
        <ele>1548</ele>
        <time>2026-05-25T10:53:47.000Z</time>
      </trkpt>
      <trkpt lat="44.63907" lon="5.20148">
        <ele>1548</ele>
        <time>2026-05-25T10:53:48.000Z</time>
      </trkpt>
      <trkpt lat="44.63909" lon="5.20149">
        <ele>1548</ele>
        <time>2026-05-25T10:53:49.000Z</time>
      </trkpt>
      <trkpt lat="44.6391" lon="5.20149">
        <ele>1548</ele>
        <time>2026-05-25T10:53:50.000Z</time>
      </trkpt>
      <trkpt lat="44.63911" lon="5.2015">
        <ele>1548</ele>
        <time>2026-05-25T10:53:51.000Z</time>
      </trkpt>
      <trkpt lat="44.63911" lon="5.2015">
        <ele>1548</ele>
        <time>2026-05-25T10:53:52.000Z</time>
      </trkpt>
      <trkpt lat="44.63911" lon="5.2015">
        <ele>1547</ele>
        <time>2026-05-25T10:53:53.000Z</time>
      </trkpt>
      <trkpt lat="44.63912" lon="5.2015">
        <ele>1546</ele>
        <time>2026-05-25T10:53:54.000Z</time>
      </trkpt>
      <trkpt lat="44.63913" lon="5.2015">
        <ele>1546</ele>
        <time>2026-05-25T10:53:55.000Z</time>
      </trkpt>
      <trkpt lat="44.63914" lon="5.2015">
        <ele>1546</ele>
        <time>2026-05-25T10:53:56.000Z</time>
      </trkpt>
      <trkpt lat="44.63914" lon="5.20151">
        <ele>1545</ele>
        <time>2026-05-25T10:53:57.000Z</time>
      </trkpt>
      <trkpt lat="44.63915" lon="5.20152">
        <ele>1545</ele>
        <time>2026-05-25T10:53:58.000Z</time>
      </trkpt>
      <trkpt lat="44.63916" lon="5.20154">
        <ele>1545</ele>
        <time>2026-05-25T10:53:59.000Z</time>
      </trkpt>
      <trkpt lat="44.63917" lon="5.20155">
        <ele>1545</ele>
        <time>2026-05-25T10:54:00.000Z</time>
      </trkpt>
      <trkpt lat="44.63918" lon="5.20156">
        <ele>1544</ele>
        <time>2026-05-25T10:54:01.000Z</time>
      </trkpt>
      <trkpt lat="44.63919" lon="5.20157">
        <ele>1544</ele>
        <time>2026-05-25T10:54:02.000Z</time>
      </trkpt>
      <trkpt lat="44.6392" lon="5.20158">
        <ele>1544</ele>
        <time>2026-05-25T10:54:03.000Z</time>
      </trkpt>
      <trkpt lat="44.63921" lon="5.20159">
        <ele>1544</ele>
        <time>2026-05-25T10:54:04.000Z</time>
      </trkpt>
      <trkpt lat="44.63922" lon="5.2016">
        <ele>1543</ele>
        <time>2026-05-25T10:54:05.000Z</time>
      </trkpt>
      <trkpt lat="44.63923" lon="5.20161">
        <ele>1543</ele>
        <time>2026-05-25T10:54:06.000Z</time>
      </trkpt>
      <trkpt lat="44.63924" lon="5.20161">
        <ele>1543</ele>
        <time>2026-05-25T10:54:07.000Z</time>
      </trkpt>
      <trkpt lat="44.63925" lon="5.20162">
        <ele>1543</ele>
        <time>2026-05-25T10:54:08.000Z</time>
      </trkpt>
      <trkpt lat="44.63927" lon="5.20162">
        <ele>1543</ele>
        <time>2026-05-25T10:54:09.000Z</time>
      </trkpt>
      <trkpt lat="44.63928" lon="5.20163">
        <ele>1542</ele>
        <time>2026-05-25T10:54:10.000Z</time>
      </trkpt>
      <trkpt lat="44.63929" lon="5.20164">
        <ele>1542</ele>
        <time>2026-05-25T10:54:11.000Z</time>
      </trkpt>
      <trkpt lat="44.6393" lon="5.20165">
        <ele>1541</ele>
        <time>2026-05-25T10:54:12.000Z</time>
      </trkpt>
      <trkpt lat="44.63931" lon="5.20166">
        <ele>1541</ele>
        <time>2026-05-25T10:54:13.000Z</time>
      </trkpt>
      <trkpt lat="44.63932" lon="5.20166">
        <ele>1541</ele>
        <time>2026-05-25T10:54:14.000Z</time>
      </trkpt>
      <trkpt lat="44.63933" lon="5.20166">
        <ele>1540</ele>
        <time>2026-05-25T10:54:15.000Z</time>
      </trkpt>
      <trkpt lat="44.63934" lon="5.20167">
        <ele>1540</ele>
        <time>2026-05-25T10:54:16.000Z</time>
      </trkpt>
      <trkpt lat="44.63936" lon="5.20167">
        <ele>1540</ele>
        <time>2026-05-25T10:54:17.000Z</time>
      </trkpt>
      <trkpt lat="44.63937" lon="5.20167">
        <ele>1540</ele>
        <time>2026-05-25T10:54:18.000Z</time>
      </trkpt>
      <trkpt lat="44.63938" lon="5.20166">
        <ele>1539</ele>
        <time>2026-05-25T10:54:19.000Z</time>
      </trkpt>
      <trkpt lat="44.63939" lon="5.20167">
        <ele>1539</ele>
        <time>2026-05-25T10:54:20.000Z</time>
      </trkpt>
      <trkpt lat="44.6394" lon="5.20166">
        <ele>1540</ele>
        <time>2026-05-25T10:54:21.000Z</time>
      </trkpt>
      <trkpt lat="44.63941" lon="5.20167">
        <ele>1540</ele>
        <time>2026-05-25T10:54:22.000Z</time>
      </trkpt>
      <trkpt lat="44.63942" lon="5.20168">
        <ele>1540</ele>
        <time>2026-05-25T10:54:23.000Z</time>
      </trkpt>
      <trkpt lat="44.63943" lon="5.20169">
        <ele>1540</ele>
        <time>2026-05-25T10:54:24.000Z</time>
      </trkpt>
      <trkpt lat="44.63944" lon="5.2017">
        <ele>1540</ele>
        <time>2026-05-25T10:54:25.000Z</time>
      </trkpt>
      <trkpt lat="44.63945" lon="5.20171">
        <ele>1540</ele>
        <time>2026-05-25T10:54:26.000Z</time>
      </trkpt>
      <trkpt lat="44.63946" lon="5.20171">
        <ele>1539</ele>
        <time>2026-05-25T10:54:27.000Z</time>
      </trkpt>
      <trkpt lat="44.63947" lon="5.20171">
        <ele>1539</ele>
        <time>2026-05-25T10:54:28.000Z</time>
      </trkpt>
      <trkpt lat="44.63949" lon="5.20171">
        <ele>1539</ele>
        <time>2026-05-25T10:54:29.000Z</time>
      </trkpt>
      <trkpt lat="44.6395" lon="5.20171">
        <ele>1538</ele>
        <time>2026-05-25T10:54:30.000Z</time>
      </trkpt>
      <trkpt lat="44.63951" lon="5.20171">
        <ele>1538</ele>
        <time>2026-05-25T10:54:31.000Z</time>
      </trkpt>
      <trkpt lat="44.63952" lon="5.2017">
        <ele>1538</ele>
        <time>2026-05-25T10:54:32.000Z</time>
      </trkpt>
      <trkpt lat="44.63953" lon="5.2017">
        <ele>1537</ele>
        <time>2026-05-25T10:54:33.000Z</time>
      </trkpt>
      <trkpt lat="44.63954" lon="5.20169">
        <ele>1537</ele>
        <time>2026-05-25T10:54:34.000Z</time>
      </trkpt>
      <trkpt lat="44.63955" lon="5.20169">
        <ele>1536</ele>
        <time>2026-05-25T10:54:35.000Z</time>
      </trkpt>
      <trkpt lat="44.63956" lon="5.20169">
        <ele>1536</ele>
        <time>2026-05-25T10:54:36.000Z</time>
      </trkpt>
      <trkpt lat="44.63957" lon="5.20169">
        <ele>1536</ele>
        <time>2026-05-25T10:54:37.000Z</time>
      </trkpt>
      <trkpt lat="44.63958" lon="5.20168">
        <ele>1536</ele>
        <time>2026-05-25T10:54:38.000Z</time>
      </trkpt>
      <trkpt lat="44.63959" lon="5.20168">
        <ele>1535</ele>
        <time>2026-05-25T10:54:39.000Z</time>
      </trkpt>
      <trkpt lat="44.63959" lon="5.20167">
        <ele>1535</ele>
        <time>2026-05-25T10:54:40.000Z</time>
      </trkpt>
      <trkpt lat="44.6396" lon="5.20165">
        <ele>1535</ele>
        <time>2026-05-25T10:54:41.000Z</time>
      </trkpt>
      <trkpt lat="44.6396" lon="5.20164">
        <ele>1535</ele>
        <time>2026-05-25T10:54:42.000Z</time>
      </trkpt>
      <trkpt lat="44.63961" lon="5.20163">
        <ele>1534</ele>
        <time>2026-05-25T10:54:43.000Z</time>
      </trkpt>
      <trkpt lat="44.63962" lon="5.20163">
        <ele>1534</ele>
        <time>2026-05-25T10:54:44.000Z</time>
      </trkpt>
      <trkpt lat="44.63962" lon="5.20162">
        <ele>1534</ele>
        <time>2026-05-25T10:54:45.000Z</time>
      </trkpt>
      <trkpt lat="44.63963" lon="5.20162">
        <ele>1534</ele>
        <time>2026-05-25T10:54:46.000Z</time>
      </trkpt>
      <trkpt lat="44.63964" lon="5.2016">
        <ele>1533</ele>
        <time>2026-05-25T10:54:47.000Z</time>
      </trkpt>
      <trkpt lat="44.63965" lon="5.20159">
        <ele>1533</ele>
        <time>2026-05-25T10:54:48.000Z</time>
      </trkpt>
      <trkpt lat="44.63966" lon="5.20159">
        <ele>1533</ele>
        <time>2026-05-25T10:54:49.000Z</time>
      </trkpt>
      <trkpt lat="44.63967" lon="5.20159">
        <ele>1533</ele>
        <time>2026-05-25T10:54:50.000Z</time>
      </trkpt>
      <trkpt lat="44.63969" lon="5.20159">
        <ele>1533</ele>
        <time>2026-05-25T10:54:51.000Z</time>
      </trkpt>
      <trkpt lat="44.63971" lon="5.20159">
        <ele>1532</ele>
        <time>2026-05-25T10:54:52.000Z</time>
      </trkpt>
      <trkpt lat="44.63972" lon="5.20159">
        <ele>1533</ele>
        <time>2026-05-25T10:54:53.000Z</time>
      </trkpt>
      <trkpt lat="44.63974" lon="5.20159">
        <ele>1532</ele>
        <time>2026-05-25T10:54:54.000Z</time>
      </trkpt>
      <trkpt lat="44.63975" lon="5.20159">
        <ele>1532</ele>
        <time>2026-05-25T10:54:55.000Z</time>
      </trkpt>
      <trkpt lat="44.63976" lon="5.2016">
        <ele>1532</ele>
        <time>2026-05-25T10:54:56.000Z</time>
      </trkpt>
      <trkpt lat="44.63978" lon="5.2016">
        <ele>1532</ele>
        <time>2026-05-25T10:54:57.000Z</time>
      </trkpt>
      <trkpt lat="44.63979" lon="5.2016">
        <ele>1532</ele>
        <time>2026-05-25T10:54:58.000Z</time>
      </trkpt>
      <trkpt lat="44.6398" lon="5.20161">
        <ele>1531</ele>
        <time>2026-05-25T10:54:59.000Z</time>
      </trkpt>
      <trkpt lat="44.6398" lon="5.20162">
        <ele>1531</ele>
        <time>2026-05-25T10:55:00.000Z</time>
      </trkpt>
      <trkpt lat="44.63981" lon="5.20162">
        <ele>1531</ele>
        <time>2026-05-25T10:55:01.000Z</time>
      </trkpt>
      <trkpt lat="44.63982" lon="5.20162">
        <ele>1531</ele>
        <time>2026-05-25T10:55:02.000Z</time>
      </trkpt>
      <trkpt lat="44.63982" lon="5.20162">
        <ele>1531</ele>
        <time>2026-05-25T10:55:03.000Z</time>
      </trkpt>
      <trkpt lat="44.63983" lon="5.20161">
        <ele>1531</ele>
        <time>2026-05-25T10:55:04.000Z</time>
      </trkpt>
      <trkpt lat="44.63983" lon="5.20162">
        <ele>1531</ele>
        <time>2026-05-25T10:55:05.000Z</time>
      </trkpt>
      <trkpt lat="44.63983" lon="5.20162">
        <ele>1531</ele>
        <time>2026-05-25T10:55:06.000Z</time>
      </trkpt>
      <trkpt lat="44.63983" lon="5.20162">
        <ele>1531</ele>
        <time>2026-05-25T10:55:07.000Z</time>
      </trkpt>
      <trkpt lat="44.63983" lon="5.20162">
        <ele>1531</ele>
        <time>2026-05-25T10:55:08.000Z</time>
      </trkpt>
      <trkpt lat="44.63983" lon="5.20162">
        <ele>1531</ele>
        <time>2026-05-25T10:55:09.000Z</time>
      </trkpt>
      <trkpt lat="44.63983" lon="5.20162">
        <ele>1531</ele>
        <time>2026-05-25T10:55:10.000Z</time>
      </trkpt>
      <trkpt lat="44.63983" lon="5.20162">
        <ele>1531</ele>
        <time>2026-05-25T10:55:11.000Z</time>
      </trkpt>
      <trkpt lat="44.63983" lon="5.20162">
        <ele>1531</ele>
        <time>2026-05-25T10:55:12.000Z</time>
      </trkpt>
      <trkpt lat="44.63983" lon="5.20162">
        <ele>1531</ele>
        <time>2026-05-25T10:55:13.000Z</time>
      </trkpt>
      <trkpt lat="44.63983" lon="5.20162">
        <ele>1531</ele>
        <time>2026-05-25T10:55:14.000Z</time>
      </trkpt>
      <trkpt lat="44.63983" lon="5.20162">
        <ele>1531</ele>
        <time>2026-05-25T10:55:15.000Z</time>
      </trkpt>
      <trkpt lat="44.63983" lon="5.20162">
        <ele>1531</ele>
        <time>2026-05-25T10:55:16.000Z</time>
      </trkpt>
      <trkpt lat="44.63983" lon="5.20162">
        <ele>1531</ele>
        <time>2026-05-25T10:55:17.000Z</time>
      </trkpt>
      <trkpt lat="44.63983" lon="5.20162">
        <ele>1531</ele>
        <time>2026-05-25T10:55:18.000Z</time>
      </trkpt>
      <trkpt lat="44.63983" lon="5.20162">
        <ele>1531</ele>
        <time>2026-05-25T10:55:19.000Z</time>
      </trkpt>
      <trkpt lat="44.63983" lon="5.20162">
        <ele>1531</ele>
        <time>2026-05-25T10:55:20.000Z</time>
      </trkpt>
      <trkpt lat="44.63983" lon="5.20162">
        <ele>1531</ele>
        <time>2026-05-25T10:55:21.000Z</time>
      </trkpt>
      <trkpt lat="44.63983" lon="5.20162">
        <ele>1531</ele>
        <time>2026-05-25T10:55:22.000Z</time>
      </trkpt>
      <trkpt lat="44.63983" lon="5.20162">
        <ele>1531</ele>
        <time>2026-05-25T10:55:23.000Z</time>
      </trkpt>
      <trkpt lat="44.63983" lon="5.20162">
        <ele>1531</ele>
        <time>2026-05-25T10:55:24.000Z</time>
      </trkpt>
      <trkpt lat="44.63983" lon="5.20162">
        <ele>1531</ele>
        <time>2026-05-25T10:55:25.000Z</time>
      </trkpt>
      <trkpt lat="44.63983" lon="5.20162">
        <ele>1531</ele>
        <time>2026-05-25T10:55:26.000Z</time>
      </trkpt>
      <trkpt lat="44.63983" lon="5.20162">
        <ele>1531</ele>
        <time>2026-05-25T10:55:27.000Z</time>
      </trkpt>
      <trkpt lat="44.63983" lon="5.20162">
        <ele>1531</ele>
        <time>2026-05-25T10:55:28.000Z</time>
      </trkpt>
      <trkpt lat="44.63983" lon="5.20162">
        <ele>1531</ele>
        <time>2026-05-25T10:55:29.000Z</time>
      </trkpt>
      <trkpt lat="44.63983" lon="5.20162">
        <ele>1531</ele>
        <time>2026-05-25T10:55:30.000Z</time>
      </trkpt>
      <trkpt lat="44.63983" lon="5.20162">
        <ele>1531</ele>
        <time>2026-05-25T10:55:31.000Z</time>
      </trkpt>
      <trkpt lat="44.63983" lon="5.20162">
        <ele>1531</ele>
        <time>2026-05-25T10:55:32.000Z</time>
      </trkpt>
      <trkpt lat="44.63983" lon="5.20162">
        <ele>1531</ele>
        <time>2026-05-25T10:55:33.000Z</time>
      </trkpt>
      <trkpt lat="44.63983" lon="5.20162">
        <ele>1531</ele>
        <time>2026-05-25T10:55:34.000Z</time>
      </trkpt>
      <trkpt lat="44.63983" lon="5.20162">
        <ele>1531</ele>
        <time>2026-05-25T10:55:35.000Z</time>
      </trkpt>
      <trkpt lat="44.63983" lon="5.20162">
        <ele>1531</ele>
        <time>2026-05-25T10:55:36.000Z</time>
      </trkpt>
      <trkpt lat="44.63983" lon="5.20162">
        <ele>1531</ele>
        <time>2026-05-25T10:55:37.000Z</time>
      </trkpt>
      <trkpt lat="44.63983" lon="5.20162">
        <ele>1531</ele>
        <time>2026-05-25T10:55:38.000Z</time>
      </trkpt>
      <trkpt lat="44.63983" lon="5.20162">
        <ele>1531</ele>
        <time>2026-05-25T10:55:39.000Z</time>
      </trkpt>
      <trkpt lat="44.63983" lon="5.20162">
        <ele>1531</ele>
        <time>2026-05-25T10:55:40.000Z</time>
      </trkpt>
      <trkpt lat="44.63983" lon="5.20162">
        <ele>1531</ele>
        <time>2026-05-25T10:55:41.000Z</time>
      </trkpt>
      <trkpt lat="44.63983" lon="5.20162">
        <ele>1531</ele>
        <time>2026-05-25T10:55:42.000Z</time>
      </trkpt>
      <trkpt lat="44.63983" lon="5.20162">
        <ele>1531</ele>
        <time>2026-05-25T10:55:43.000Z</time>
      </trkpt>
      <trkpt lat="44.63983" lon="5.20162">
        <ele>1531</ele>
        <time>2026-05-25T10:55:44.000Z</time>
      </trkpt>
      <trkpt lat="44.63983" lon="5.20162">
        <ele>1531</ele>
        <time>2026-05-25T10:55:45.000Z</time>
      </trkpt>
      <trkpt lat="44.63983" lon="5.20162">
        <ele>1531</ele>
        <time>2026-05-25T10:55:46.000Z</time>
      </trkpt>
      <trkpt lat="44.63983" lon="5.20162">
        <ele>1531</ele>
        <time>2026-05-25T10:55:47.000Z</time>
      </trkpt>
      <trkpt lat="44.63983" lon="5.20162">
        <ele>1531</ele>
        <time>2026-05-25T10:55:48.000Z</time>
      </trkpt>
      <trkpt lat="44.63983" lon="5.20162">
        <ele>1531</ele>
        <time>2026-05-25T10:55:49.000Z</time>
      </trkpt>
      <trkpt lat="44.63983" lon="5.20162">
        <ele>1531</ele>
        <time>2026-05-25T10:55:50.000Z</time>
      </trkpt>
      <trkpt lat="44.63983" lon="5.20162">
        <ele>1531</ele>
        <time>2026-05-25T10:55:51.000Z</time>
      </trkpt>
      <trkpt lat="44.63983" lon="5.20162">
        <ele>1531</ele>
        <time>2026-05-25T10:55:52.000Z</time>
      </trkpt>
      <trkpt lat="44.63983" lon="5.20162">
        <ele>1531</ele>
        <time>2026-05-25T10:55:53.000Z</time>
      </trkpt>
      <trkpt lat="44.63983" lon="5.20162">
        <ele>1531</ele>
        <time>2026-05-25T10:55:54.000Z</time>
      </trkpt>
      <trkpt lat="44.63983" lon="5.20162">
        <ele>1531</ele>
        <time>2026-05-25T10:55:55.000Z</time>
      </trkpt>
      <trkpt lat="44.63983" lon="5.20162">
        <ele>1531</ele>
        <time>2026-05-25T10:55:56.000Z</time>
      </trkpt>
      <trkpt lat="44.63983" lon="5.20162">
        <ele>1531</ele>
        <time>2026-05-25T10:55:57.000Z</time>
      </trkpt>
      <trkpt lat="44.63983" lon="5.20162">
        <ele>1531</ele>
        <time>2026-05-25T10:55:58.000Z</time>
      </trkpt>
      <trkpt lat="44.63983" lon="5.20162">
        <ele>1531</ele>
        <time>2026-05-25T10:55:59.000Z</time>
      </trkpt>
      <trkpt lat="44.63983" lon="5.20163">
        <ele>1530</ele>
        <time>2026-05-25T10:56:00.000Z</time>
      </trkpt>
      <trkpt lat="44.63984" lon="5.20163">
        <ele>1531</ele>
        <time>2026-05-25T10:56:01.000Z</time>
      </trkpt>
      <trkpt lat="44.63986" lon="5.20164">
        <ele>1531</ele>
        <time>2026-05-25T10:56:02.000Z</time>
      </trkpt>
      <trkpt lat="44.63987" lon="5.20164">
        <ele>1531</ele>
        <time>2026-05-25T10:56:03.000Z</time>
      </trkpt>
      <trkpt lat="44.63988" lon="5.20164">
        <ele>1531</ele>
        <time>2026-05-25T10:56:04.000Z</time>
      </trkpt>
      <trkpt lat="44.63989" lon="5.20165">
        <ele>1531</ele>
        <time>2026-05-25T10:56:05.000Z</time>
      </trkpt>
      <trkpt lat="44.6399" lon="5.20165">
        <ele>1531</ele>
        <time>2026-05-25T10:56:06.000Z</time>
      </trkpt>
      <trkpt lat="44.63991" lon="5.20165">
        <ele>1531</ele>
        <time>2026-05-25T10:56:07.000Z</time>
      </trkpt>
      <trkpt lat="44.63992" lon="5.20165">
        <ele>1531</ele>
        <time>2026-05-25T10:56:08.000Z</time>
      </trkpt>
      <trkpt lat="44.63992" lon="5.20165">
        <ele>1531</ele>
        <time>2026-05-25T10:56:09.000Z</time>
      </trkpt>
      <trkpt lat="44.63993" lon="5.20165">
        <ele>1532</ele>
        <time>2026-05-25T10:56:10.000Z</time>
      </trkpt>
      <trkpt lat="44.63994" lon="5.20165">
        <ele>1532</ele>
        <time>2026-05-25T10:56:11.000Z</time>
      </trkpt>
      <trkpt lat="44.63995" lon="5.20166">
        <ele>1532</ele>
        <time>2026-05-25T10:56:12.000Z</time>
      </trkpt>
      <trkpt lat="44.63996" lon="5.20167">
        <ele>1532</ele>
        <time>2026-05-25T10:56:13.000Z</time>
      </trkpt>
      <trkpt lat="44.63996" lon="5.20167">
        <ele>1532</ele>
        <time>2026-05-25T10:56:14.000Z</time>
      </trkpt>
      <trkpt lat="44.63997" lon="5.20167">
        <ele>1532</ele>
        <time>2026-05-25T10:56:15.000Z</time>
      </trkpt>
      <trkpt lat="44.63998" lon="5.20167">
        <ele>1532</ele>
        <time>2026-05-25T10:56:16.000Z</time>
      </trkpt>
      <trkpt lat="44.63999" lon="5.20167">
        <ele>1533</ele>
        <time>2026-05-25T10:56:17.000Z</time>
      </trkpt>
      <trkpt lat="44.64" lon="5.20168">
        <ele>1533</ele>
        <time>2026-05-25T10:56:18.000Z</time>
      </trkpt>
      <trkpt lat="44.64001" lon="5.20168">
        <ele>1533</ele>
        <time>2026-05-25T10:56:19.000Z</time>
      </trkpt>
      <trkpt lat="44.64002" lon="5.20168">
        <ele>1533</ele>
        <time>2026-05-25T10:56:20.000Z</time>
      </trkpt>
      <trkpt lat="44.64003" lon="5.20169">
        <ele>1533</ele>
        <time>2026-05-25T10:56:21.000Z</time>
      </trkpt>
      <trkpt lat="44.64004" lon="5.20169">
        <ele>1533</ele>
        <time>2026-05-25T10:56:22.000Z</time>
      </trkpt>
      <trkpt lat="44.64004" lon="5.20169">
        <ele>1533</ele>
        <time>2026-05-25T10:56:23.000Z</time>
      </trkpt>
      <trkpt lat="44.64006" lon="5.20168">
        <ele>1533</ele>
        <time>2026-05-25T10:56:24.000Z</time>
      </trkpt>
      <trkpt lat="44.64006" lon="5.20168">
        <ele>1533</ele>
        <time>2026-05-25T10:56:25.000Z</time>
      </trkpt>
      <trkpt lat="44.64007" lon="5.20167">
        <ele>1533</ele>
        <time>2026-05-25T10:56:26.000Z</time>
      </trkpt>
      <trkpt lat="44.64008" lon="5.20167">
        <ele>1533</ele>
        <time>2026-05-25T10:56:27.000Z</time>
      </trkpt>
      <trkpt lat="44.6401" lon="5.20166">
        <ele>1533</ele>
        <time>2026-05-25T10:56:28.000Z</time>
      </trkpt>
      <trkpt lat="44.6401" lon="5.20165">
        <ele>1534</ele>
        <time>2026-05-25T10:56:29.000Z</time>
      </trkpt>
      <trkpt lat="44.64011" lon="5.20164">
        <ele>1534</ele>
        <time>2026-05-25T10:56:30.000Z</time>
      </trkpt>
      <trkpt lat="44.64012" lon="5.20164">
        <ele>1534</ele>
        <time>2026-05-25T10:56:31.000Z</time>
      </trkpt>
      <trkpt lat="44.64013" lon="5.20163">
        <ele>1534</ele>
        <time>2026-05-25T10:56:32.000Z</time>
      </trkpt>
      <trkpt lat="44.64014" lon="5.20162">
        <ele>1534</ele>
        <time>2026-05-25T10:56:33.000Z</time>
      </trkpt>
      <trkpt lat="44.64014" lon="5.20162">
        <ele>1534</ele>
        <time>2026-05-25T10:56:34.000Z</time>
      </trkpt>
      <trkpt lat="44.64015" lon="5.20161">
        <ele>1534</ele>
        <time>2026-05-25T10:56:35.000Z</time>
      </trkpt>
      <trkpt lat="44.64017" lon="5.20161">
        <ele>1534</ele>
        <time>2026-05-25T10:56:36.000Z</time>
      </trkpt>
      <trkpt lat="44.64018" lon="5.2016">
        <ele>1534</ele>
        <time>2026-05-25T10:56:37.000Z</time>
      </trkpt>
      <trkpt lat="44.6402" lon="5.2016">
        <ele>1535</ele>
        <time>2026-05-25T10:56:38.000Z</time>
      </trkpt>
      <trkpt lat="44.64021" lon="5.20159">
        <ele>1535</ele>
        <time>2026-05-25T10:56:39.000Z</time>
      </trkpt>
      <trkpt lat="44.64022" lon="5.20158">
        <ele>1535</ele>
        <time>2026-05-25T10:56:40.000Z</time>
      </trkpt>
      <trkpt lat="44.64023" lon="5.20158">
        <ele>1535</ele>
        <time>2026-05-25T10:56:41.000Z</time>
      </trkpt>
      <trkpt lat="44.64023" lon="5.20158">
        <ele>1535</ele>
        <time>2026-05-25T10:56:42.000Z</time>
      </trkpt>
      <trkpt lat="44.64024" lon="5.20157">
        <ele>1536</ele>
        <time>2026-05-25T10:56:43.000Z</time>
      </trkpt>
      <trkpt lat="44.64024" lon="5.20157">
        <ele>1536</ele>
        <time>2026-05-25T10:56:44.000Z</time>
      </trkpt>
      <trkpt lat="44.64026" lon="5.20155">
        <ele>1536</ele>
        <time>2026-05-25T10:56:45.000Z</time>
      </trkpt>
      <trkpt lat="44.64026" lon="5.20154">
        <ele>1536</ele>
        <time>2026-05-25T10:56:46.000Z</time>
      </trkpt>
      <trkpt lat="44.64027" lon="5.20153">
        <ele>1537</ele>
        <time>2026-05-25T10:56:47.000Z</time>
      </trkpt>
      <trkpt lat="44.64028" lon="5.20153">
        <ele>1537</ele>
        <time>2026-05-25T10:56:48.000Z</time>
      </trkpt>
      <trkpt lat="44.64029" lon="5.20152">
        <ele>1537</ele>
        <time>2026-05-25T10:56:49.000Z</time>
      </trkpt>
      <trkpt lat="44.6403" lon="5.20152">
        <ele>1537</ele>
        <time>2026-05-25T10:56:50.000Z</time>
      </trkpt>
      <trkpt lat="44.64031" lon="5.20151">
        <ele>1538</ele>
        <time>2026-05-25T10:56:51.000Z</time>
      </trkpt>
      <trkpt lat="44.64032" lon="5.2015">
        <ele>1539</ele>
        <time>2026-05-25T10:56:52.000Z</time>
      </trkpt>
      <trkpt lat="44.64032" lon="5.20149">
        <ele>1540</ele>
        <time>2026-05-25T10:56:53.000Z</time>
      </trkpt>
      <trkpt lat="44.64033" lon="5.20148">
        <ele>1540</ele>
        <time>2026-05-25T10:56:54.000Z</time>
      </trkpt>
      <trkpt lat="44.64034" lon="5.20148">
        <ele>1541</ele>
        <time>2026-05-25T10:56:55.000Z</time>
      </trkpt>
      <trkpt lat="44.64034" lon="5.20148">
        <ele>1541</ele>
        <time>2026-05-25T10:56:56.000Z</time>
      </trkpt>
      <trkpt lat="44.64035" lon="5.20147">
        <ele>1540</ele>
        <time>2026-05-25T10:56:57.000Z</time>
      </trkpt>
      <trkpt lat="44.64036" lon="5.20147">
        <ele>1541</ele>
        <time>2026-05-25T10:56:58.000Z</time>
      </trkpt>
      <trkpt lat="44.64037" lon="5.20146">
        <ele>1541</ele>
        <time>2026-05-25T10:56:59.000Z</time>
      </trkpt>
      <trkpt lat="44.64037" lon="5.20145">
        <ele>1541</ele>
        <time>2026-05-25T10:57:00.000Z</time>
      </trkpt>
      <trkpt lat="44.64038" lon="5.20145">
        <ele>1541</ele>
        <time>2026-05-25T10:57:01.000Z</time>
      </trkpt>
      <trkpt lat="44.64039" lon="5.20144">
        <ele>1541</ele>
        <time>2026-05-25T10:57:02.000Z</time>
      </trkpt>
      <trkpt lat="44.6404" lon="5.20143">
        <ele>1542</ele>
        <time>2026-05-25T10:57:03.000Z</time>
      </trkpt>
      <trkpt lat="44.64041" lon="5.20142">
        <ele>1542</ele>
        <time>2026-05-25T10:57:04.000Z</time>
      </trkpt>
      <trkpt lat="44.64042" lon="5.20141">
        <ele>1542</ele>
        <time>2026-05-25T10:57:05.000Z</time>
      </trkpt>
      <trkpt lat="44.64042" lon="5.20141">
        <ele>1542</ele>
        <time>2026-05-25T10:57:06.000Z</time>
      </trkpt>
      <trkpt lat="44.64043" lon="5.2014">
        <ele>1542</ele>
        <time>2026-05-25T10:57:07.000Z</time>
      </trkpt>
      <trkpt lat="44.64044" lon="5.20139">
        <ele>1543</ele>
        <time>2026-05-25T10:57:08.000Z</time>
      </trkpt>
      <trkpt lat="44.64045" lon="5.20139">
        <ele>1544</ele>
        <time>2026-05-25T10:57:09.000Z</time>
      </trkpt>
      <trkpt lat="44.64045" lon="5.20138">
        <ele>1544</ele>
        <time>2026-05-25T10:57:10.000Z</time>
      </trkpt>
      <trkpt lat="44.64046" lon="5.20139">
        <ele>1543</ele>
        <time>2026-05-25T10:57:11.000Z</time>
      </trkpt>
      <trkpt lat="44.64046" lon="5.2014">
        <ele>1543</ele>
        <time>2026-05-25T10:57:12.000Z</time>
      </trkpt>
      <trkpt lat="44.64046" lon="5.20141">
        <ele>1543</ele>
        <time>2026-05-25T10:57:13.000Z</time>
      </trkpt>
      <trkpt lat="44.64047" lon="5.20143">
        <ele>1543</ele>
        <time>2026-05-25T10:57:14.000Z</time>
      </trkpt>
      <trkpt lat="44.64047" lon="5.20145">
        <ele>1543</ele>
        <time>2026-05-25T10:57:15.000Z</time>
      </trkpt>
      <trkpt lat="44.64048" lon="5.20146">
        <ele>1543</ele>
        <time>2026-05-25T10:57:16.000Z</time>
      </trkpt>
      <trkpt lat="44.64048" lon="5.20148">
        <ele>1543</ele>
        <time>2026-05-25T10:57:17.000Z</time>
      </trkpt>
      <trkpt lat="44.64048" lon="5.20149">
        <ele>1543</ele>
        <time>2026-05-25T10:57:18.000Z</time>
      </trkpt>
      <trkpt lat="44.64048" lon="5.20151">
        <ele>1544</ele>
        <time>2026-05-25T10:57:19.000Z</time>
      </trkpt>
      <trkpt lat="44.64048" lon="5.20152">
        <ele>1544</ele>
        <time>2026-05-25T10:57:20.000Z</time>
      </trkpt>
      <trkpt lat="44.64048" lon="5.20153">
        <ele>1544</ele>
        <time>2026-05-25T10:57:21.000Z</time>
      </trkpt>
      <trkpt lat="44.64048" lon="5.20155">
        <ele>1544</ele>
        <time>2026-05-25T10:57:22.000Z</time>
      </trkpt>
      <trkpt lat="44.64048" lon="5.20156">
        <ele>1545</ele>
        <time>2026-05-25T10:57:23.000Z</time>
      </trkpt>
      <trkpt lat="44.64049" lon="5.20158">
        <ele>1545</ele>
        <time>2026-05-25T10:57:24.000Z</time>
      </trkpt>
      <trkpt lat="44.64049" lon="5.20159">
        <ele>1545</ele>
        <time>2026-05-25T10:57:25.000Z</time>
      </trkpt>
      <trkpt lat="44.64049" lon="5.20159">
        <ele>1546</ele>
        <time>2026-05-25T10:57:26.000Z</time>
      </trkpt>
      <trkpt lat="44.64049" lon="5.20161">
        <ele>1546</ele>
        <time>2026-05-25T10:57:27.000Z</time>
      </trkpt>
      <trkpt lat="44.64049" lon="5.20162">
        <ele>1546</ele>
        <time>2026-05-25T10:57:28.000Z</time>
      </trkpt>
      <trkpt lat="44.64049" lon="5.20164">
        <ele>1546</ele>
        <time>2026-05-25T10:57:29.000Z</time>
      </trkpt>
      <trkpt lat="44.64049" lon="5.20165">
        <ele>1546</ele>
        <time>2026-05-25T10:57:30.000Z</time>
      </trkpt>
      <trkpt lat="44.6405" lon="5.20167">
        <ele>1547</ele>
        <time>2026-05-25T10:57:31.000Z</time>
      </trkpt>
      <trkpt lat="44.6405" lon="5.20168">
        <ele>1547</ele>
        <time>2026-05-25T10:57:32.000Z</time>
      </trkpt>
      <trkpt lat="44.6405" lon="5.2017">
        <ele>1547</ele>
        <time>2026-05-25T10:57:33.000Z</time>
      </trkpt>
      <trkpt lat="44.64051" lon="5.20171">
        <ele>1547</ele>
        <time>2026-05-25T10:57:34.000Z</time>
      </trkpt>
      <trkpt lat="44.64051" lon="5.20172">
        <ele>1547</ele>
        <time>2026-05-25T10:57:35.000Z</time>
      </trkpt>
      <trkpt lat="44.64051" lon="5.20174">
        <ele>1547</ele>
        <time>2026-05-25T10:57:36.000Z</time>
      </trkpt>
      <trkpt lat="44.64051" lon="5.20175">
        <ele>1548</ele>
        <time>2026-05-25T10:57:37.000Z</time>
      </trkpt>
      <trkpt lat="44.64051" lon="5.20176">
        <ele>1548</ele>
        <time>2026-05-25T10:57:38.000Z</time>
      </trkpt>
      <trkpt lat="44.64052" lon="5.20177">
        <ele>1549</ele>
        <time>2026-05-25T10:57:39.000Z</time>
      </trkpt>
      <trkpt lat="44.64051" lon="5.20178">
        <ele>1549</ele>
        <time>2026-05-25T10:57:40.000Z</time>
      </trkpt>
      <trkpt lat="44.64051" lon="5.2018">
        <ele>1549</ele>
        <time>2026-05-25T10:57:41.000Z</time>
      </trkpt>
      <trkpt lat="44.64051" lon="5.20181">
        <ele>1549</ele>
        <time>2026-05-25T10:57:42.000Z</time>
      </trkpt>
      <trkpt lat="44.64051" lon="5.20182">
        <ele>1549</ele>
        <time>2026-05-25T10:57:43.000Z</time>
      </trkpt>
      <trkpt lat="44.64052" lon="5.20184">
        <ele>1549</ele>
        <time>2026-05-25T10:57:44.000Z</time>
      </trkpt>
      <trkpt lat="44.64052" lon="5.20185">
        <ele>1549</ele>
        <time>2026-05-25T10:57:45.000Z</time>
      </trkpt>
      <trkpt lat="44.64052" lon="5.20186">
        <ele>1548</ele>
        <time>2026-05-25T10:57:46.000Z</time>
      </trkpt>
      <trkpt lat="44.64052" lon="5.20187">
        <ele>1548</ele>
        <time>2026-05-25T10:57:47.000Z</time>
      </trkpt>
      <trkpt lat="44.64052" lon="5.20187">
        <ele>1548</ele>
        <time>2026-05-25T10:57:48.000Z</time>
      </trkpt>
      <trkpt lat="44.64053" lon="5.20188">
        <ele>1550</ele>
        <time>2026-05-25T10:57:49.000Z</time>
      </trkpt>
      <trkpt lat="44.64053" lon="5.20187">
        <ele>1551</ele>
        <time>2026-05-25T10:57:50.000Z</time>
      </trkpt>
      <trkpt lat="44.64054" lon="5.20185">
        <ele>1552</ele>
        <time>2026-05-25T10:57:51.000Z</time>
      </trkpt>
      <trkpt lat="44.64054" lon="5.20184">
        <ele>1552</ele>
        <time>2026-05-25T10:57:52.000Z</time>
      </trkpt>
      <trkpt lat="44.64055" lon="5.20183">
        <ele>1552</ele>
        <time>2026-05-25T10:57:53.000Z</time>
      </trkpt>
      <trkpt lat="44.64055" lon="5.20181">
        <ele>1552</ele>
        <time>2026-05-25T10:57:54.000Z</time>
      </trkpt>
      <trkpt lat="44.64056" lon="5.20179">
        <ele>1552</ele>
        <time>2026-05-25T10:57:55.000Z</time>
      </trkpt>
      <trkpt lat="44.64057" lon="5.20177">
        <ele>1552</ele>
        <time>2026-05-25T10:57:56.000Z</time>
      </trkpt>
      <trkpt lat="44.64058" lon="5.20176">
        <ele>1552</ele>
        <time>2026-05-25T10:57:57.000Z</time>
      </trkpt>
      <trkpt lat="44.64059" lon="5.20175">
        <ele>1552</ele>
        <time>2026-05-25T10:57:58.000Z</time>
      </trkpt>
      <trkpt lat="44.64059" lon="5.20174">
        <ele>1552</ele>
        <time>2026-05-25T10:57:59.000Z</time>
      </trkpt>
      <trkpt lat="44.6406" lon="5.20172">
        <ele>1552</ele>
        <time>2026-05-25T10:58:00.000Z</time>
      </trkpt>
      <trkpt lat="44.64061" lon="5.20171">
        <ele>1552</ele>
        <time>2026-05-25T10:58:01.000Z</time>
      </trkpt>
      <trkpt lat="44.64061" lon="5.20169">
        <ele>1552</ele>
        <time>2026-05-25T10:58:02.000Z</time>
      </trkpt>
      <trkpt lat="44.64062" lon="5.20168">
        <ele>1552</ele>
        <time>2026-05-25T10:58:03.000Z</time>
      </trkpt>
      <trkpt lat="44.64063" lon="5.20167">
        <ele>1553</ele>
        <time>2026-05-25T10:58:04.000Z</time>
      </trkpt>
      <trkpt lat="44.64064" lon="5.20166">
        <ele>1553</ele>
        <time>2026-05-25T10:58:05.000Z</time>
      </trkpt>
      <trkpt lat="44.64064" lon="5.20165">
        <ele>1553</ele>
        <time>2026-05-25T10:58:06.000Z</time>
      </trkpt>
      <trkpt lat="44.64065" lon="5.20164">
        <ele>1553</ele>
        <time>2026-05-25T10:58:07.000Z</time>
      </trkpt>
      <trkpt lat="44.64065" lon="5.20163">
        <ele>1553</ele>
        <time>2026-05-25T10:58:08.000Z</time>
      </trkpt>
      <trkpt lat="44.64065" lon="5.20163">
        <ele>1553</ele>
        <time>2026-05-25T10:58:09.000Z</time>
      </trkpt>
      <trkpt lat="44.64065" lon="5.20163">
        <ele>1553</ele>
        <time>2026-05-25T10:58:10.000Z</time>
      </trkpt>
      <trkpt lat="44.64065" lon="5.20163">
        <ele>1553</ele>
        <time>2026-05-25T10:58:11.000Z</time>
      </trkpt>
      <trkpt lat="44.64066" lon="5.2016">
        <ele>1554</ele>
        <time>2026-05-25T10:58:12.000Z</time>
      </trkpt>
      <trkpt lat="44.64067" lon="5.20158">
        <ele>1555</ele>
        <time>2026-05-25T10:58:13.000Z</time>
      </trkpt>
      <trkpt lat="44.64067" lon="5.20157">
        <ele>1555</ele>
        <time>2026-05-25T10:58:14.000Z</time>
      </trkpt>
      <trkpt lat="44.64068" lon="5.20156">
        <ele>1555</ele>
        <time>2026-05-25T10:58:15.000Z</time>
      </trkpt>
      <trkpt lat="44.64069" lon="5.20155">
        <ele>1555</ele>
        <time>2026-05-25T10:58:16.000Z</time>
      </trkpt>
      <trkpt lat="44.64069" lon="5.20154">
        <ele>1555</ele>
        <time>2026-05-25T10:58:17.000Z</time>
      </trkpt>
      <trkpt lat="44.6407" lon="5.20153">
        <ele>1555</ele>
        <time>2026-05-25T10:58:18.000Z</time>
      </trkpt>
      <trkpt lat="44.64071" lon="5.20152">
        <ele>1555</ele>
        <time>2026-05-25T10:58:19.000Z</time>
      </trkpt>
      <trkpt lat="44.64072" lon="5.20151">
        <ele>1556</ele>
        <time>2026-05-25T10:58:20.000Z</time>
      </trkpt>
      <trkpt lat="44.64072" lon="5.2015">
        <ele>1555</ele>
        <time>2026-05-25T10:58:21.000Z</time>
      </trkpt>
      <trkpt lat="44.64073" lon="5.20149">
        <ele>1556</ele>
        <time>2026-05-25T10:58:22.000Z</time>
      </trkpt>
      <trkpt lat="44.64074" lon="5.20148">
        <ele>1556</ele>
        <time>2026-05-25T10:58:23.000Z</time>
      </trkpt>
      <trkpt lat="44.64075" lon="5.20148">
        <ele>1556</ele>
        <time>2026-05-25T10:58:24.000Z</time>
      </trkpt>
      <trkpt lat="44.64076" lon="5.20147">
        <ele>1556</ele>
        <time>2026-05-25T10:58:25.000Z</time>
      </trkpt>
      <trkpt lat="44.64077" lon="5.20146">
        <ele>1557</ele>
        <time>2026-05-25T10:58:26.000Z</time>
      </trkpt>
      <trkpt lat="44.64077" lon="5.20145">
        <ele>1557</ele>
        <time>2026-05-25T10:58:27.000Z</time>
      </trkpt>
      <trkpt lat="44.64078" lon="5.20144">
        <ele>1557</ele>
        <time>2026-05-25T10:58:28.000Z</time>
      </trkpt>
      <trkpt lat="44.64078" lon="5.20143">
        <ele>1557</ele>
        <time>2026-05-25T10:58:29.000Z</time>
      </trkpt>
      <trkpt lat="44.64079" lon="5.20142">
        <ele>1557</ele>
        <time>2026-05-25T10:58:30.000Z</time>
      </trkpt>
      <trkpt lat="44.64079" lon="5.20141">
        <ele>1557</ele>
        <time>2026-05-25T10:58:31.000Z</time>
      </trkpt>
      <trkpt lat="44.64079" lon="5.20141">
        <ele>1557</ele>
        <time>2026-05-25T10:58:32.000Z</time>
      </trkpt>
      <trkpt lat="44.64079" lon="5.20141">
        <ele>1558</ele>
        <time>2026-05-25T10:58:33.000Z</time>
      </trkpt>
      <trkpt lat="44.64079" lon="5.20141">
        <ele>1558</ele>
        <time>2026-05-25T10:58:34.000Z</time>
      </trkpt>
      <trkpt lat="44.64078" lon="5.20142">
        <ele>1558</ele>
        <time>2026-05-25T10:58:35.000Z</time>
      </trkpt>
      <trkpt lat="44.64078" lon="5.20142">
        <ele>1558</ele>
        <time>2026-05-25T10:58:36.000Z</time>
      </trkpt>
      <trkpt lat="44.64078" lon="5.20143">
        <ele>1558</ele>
        <time>2026-05-25T10:58:37.000Z</time>
      </trkpt>
      <trkpt lat="44.64078" lon="5.20143">
        <ele>1558</ele>
        <time>2026-05-25T10:58:38.000Z</time>
      </trkpt>
      <trkpt lat="44.64078" lon="5.20143">
        <ele>1558</ele>
        <time>2026-05-25T10:58:39.000Z</time>
      </trkpt>
      <trkpt lat="44.64078" lon="5.20143">
        <ele>1558</ele>
        <time>2026-05-25T10:58:40.000Z</time>
      </trkpt>
      <trkpt lat="44.64078" lon="5.20143">
        <ele>1558</ele>
        <time>2026-05-25T10:58:41.000Z</time>
      </trkpt>
      <trkpt lat="44.64078" lon="5.20143">
        <ele>1558</ele>
        <time>2026-05-25T10:58:42.000Z</time>
      </trkpt>
      <trkpt lat="44.64078" lon="5.20143">
        <ele>1558</ele>
        <time>2026-05-25T10:58:43.000Z</time>
      </trkpt>
      <trkpt lat="44.64078" lon="5.20142">
        <ele>1559</ele>
        <time>2026-05-25T10:58:44.000Z</time>
      </trkpt>
      <trkpt lat="44.64079" lon="5.20141">
        <ele>1559</ele>
        <time>2026-05-25T10:58:45.000Z</time>
      </trkpt>
      <trkpt lat="44.64079" lon="5.20141">
        <ele>1558</ele>
        <time>2026-05-25T10:58:46.000Z</time>
      </trkpt>
      <trkpt lat="44.64079" lon="5.2014">
        <ele>1558</ele>
        <time>2026-05-25T10:58:47.000Z</time>
      </trkpt>
      <trkpt lat="44.6408" lon="5.20139">
        <ele>1558</ele>
        <time>2026-05-25T10:58:48.000Z</time>
      </trkpt>
      <trkpt lat="44.64081" lon="5.20138">
        <ele>1558</ele>
        <time>2026-05-25T10:58:49.000Z</time>
      </trkpt>
      <trkpt lat="44.64081" lon="5.20137">
        <ele>1559</ele>
        <time>2026-05-25T10:58:50.000Z</time>
      </trkpt>
      <trkpt lat="44.64081" lon="5.20137">
        <ele>1559</ele>
        <time>2026-05-25T10:58:51.000Z</time>
      </trkpt>
      <trkpt lat="44.64082" lon="5.20136">
        <ele>1559</ele>
        <time>2026-05-25T10:58:52.000Z</time>
      </trkpt>
      <trkpt lat="44.64083" lon="5.20135">
        <ele>1560</ele>
        <time>2026-05-25T10:58:53.000Z</time>
      </trkpt>
      <trkpt lat="44.64084" lon="5.20133">
        <ele>1560</ele>
        <time>2026-05-25T10:58:54.000Z</time>
      </trkpt>
      <trkpt lat="44.64084" lon="5.20133">
        <ele>1559</ele>
        <time>2026-05-25T10:58:55.000Z</time>
      </trkpt>
      <trkpt lat="44.64084" lon="5.20132">
        <ele>1560</ele>
        <time>2026-05-25T10:58:56.000Z</time>
      </trkpt>
      <trkpt lat="44.64085" lon="5.20131">
        <ele>1561</ele>
        <time>2026-05-25T10:58:57.000Z</time>
      </trkpt>
      <trkpt lat="44.64085" lon="5.2013">
        <ele>1562</ele>
        <time>2026-05-25T10:58:58.000Z</time>
      </trkpt>
      <trkpt lat="44.64086" lon="5.2013">
        <ele>1562</ele>
        <time>2026-05-25T10:58:59.000Z</time>
      </trkpt>
      <trkpt lat="44.64086" lon="5.20129">
        <ele>1562</ele>
        <time>2026-05-25T10:59:00.000Z</time>
      </trkpt>
      <trkpt lat="44.64087" lon="5.20128">
        <ele>1561</ele>
        <time>2026-05-25T10:59:01.000Z</time>
      </trkpt>
      <trkpt lat="44.64087" lon="5.20126">
        <ele>1561</ele>
        <time>2026-05-25T10:59:02.000Z</time>
      </trkpt>
      <trkpt lat="44.64088" lon="5.20125">
        <ele>1562</ele>
        <time>2026-05-25T10:59:03.000Z</time>
      </trkpt>
      <trkpt lat="44.64088" lon="5.20124">
        <ele>1562</ele>
        <time>2026-05-25T10:59:04.000Z</time>
      </trkpt>
      <trkpt lat="44.64088" lon="5.20124">
        <ele>1562</ele>
        <time>2026-05-25T10:59:05.000Z</time>
      </trkpt>
      <trkpt lat="44.64088" lon="5.20124">
        <ele>1562</ele>
        <time>2026-05-25T10:59:06.000Z</time>
      </trkpt>
      <trkpt lat="44.64088" lon="5.20124">
        <ele>1562</ele>
        <time>2026-05-25T10:59:07.000Z</time>
      </trkpt>
      <trkpt lat="44.64088" lon="5.20124">
        <ele>1562</ele>
        <time>2026-05-25T10:59:08.000Z</time>
      </trkpt>
      <trkpt lat="44.64088" lon="5.20124">
        <ele>1562</ele>
        <time>2026-05-25T10:59:09.000Z</time>
      </trkpt>
      <trkpt lat="44.64088" lon="5.20124">
        <ele>1562</ele>
        <time>2026-05-25T10:59:10.000Z</time>
      </trkpt>
      <trkpt lat="44.64088" lon="5.20124">
        <ele>1562</ele>
        <time>2026-05-25T10:59:11.000Z</time>
      </trkpt>
      <trkpt lat="44.64088" lon="5.20124">
        <ele>1562</ele>
        <time>2026-05-25T10:59:12.000Z</time>
      </trkpt>
      <trkpt lat="44.64088" lon="5.20124">
        <ele>1562</ele>
        <time>2026-05-25T10:59:13.000Z</time>
      </trkpt>
      <trkpt lat="44.64088" lon="5.20124">
        <ele>1562</ele>
        <time>2026-05-25T10:59:14.000Z</time>
      </trkpt>
      <trkpt lat="44.64088" lon="5.20124">
        <ele>1562</ele>
        <time>2026-05-25T10:59:15.000Z</time>
      </trkpt>
      <trkpt lat="44.64088" lon="5.20124">
        <ele>1562</ele>
        <time>2026-05-25T10:59:16.000Z</time>
      </trkpt>
      <trkpt lat="44.64088" lon="5.20124">
        <ele>1562</ele>
        <time>2026-05-25T10:59:17.000Z</time>
      </trkpt>
      <trkpt lat="44.64088" lon="5.20124">
        <ele>1562</ele>
        <time>2026-05-25T10:59:18.000Z</time>
      </trkpt>
      <trkpt lat="44.64088" lon="5.20124">
        <ele>1562</ele>
        <time>2026-05-25T10:59:19.000Z</time>
      </trkpt>
      <trkpt lat="44.64088" lon="5.20124">
        <ele>1562</ele>
        <time>2026-05-25T10:59:20.000Z</time>
      </trkpt>
      <trkpt lat="44.64088" lon="5.20124">
        <ele>1562</ele>
        <time>2026-05-25T10:59:21.000Z</time>
      </trkpt>
      <trkpt lat="44.64088" lon="5.20124">
        <ele>1562</ele>
        <time>2026-05-25T10:59:22.000Z</time>
      </trkpt>
      <trkpt lat="44.64088" lon="5.20124">
        <ele>1562</ele>
        <time>2026-05-25T10:59:23.000Z</time>
      </trkpt>
      <trkpt lat="44.64088" lon="5.20124">
        <ele>1562</ele>
        <time>2026-05-25T10:59:24.000Z</time>
      </trkpt>
      <trkpt lat="44.64088" lon="5.20123">
        <ele>1562</ele>
        <time>2026-05-25T10:59:25.000Z</time>
      </trkpt>
      <trkpt lat="44.64089" lon="5.20122">
        <ele>1562</ele>
        <time>2026-05-25T10:59:26.000Z</time>
      </trkpt>
      <trkpt lat="44.64089" lon="5.2012">
        <ele>1562</ele>
        <time>2026-05-25T10:59:27.000Z</time>
      </trkpt>
      <trkpt lat="44.6409" lon="5.20119">
        <ele>1563</ele>
        <time>2026-05-25T10:59:28.000Z</time>
      </trkpt>
      <trkpt lat="44.64091" lon="5.20118">
        <ele>1563</ele>
        <time>2026-05-25T10:59:29.000Z</time>
      </trkpt>
      <trkpt lat="44.64092" lon="5.20117">
        <ele>1563</ele>
        <time>2026-05-25T10:59:30.000Z</time>
      </trkpt>
      <trkpt lat="44.64092" lon="5.20116">
        <ele>1564</ele>
        <time>2026-05-25T10:59:31.000Z</time>
      </trkpt>
      <trkpt lat="44.64093" lon="5.20115">
        <ele>1563</ele>
        <time>2026-05-25T10:59:32.000Z</time>
      </trkpt>
      <trkpt lat="44.64094" lon="5.20114">
        <ele>1563</ele>
        <time>2026-05-25T10:59:33.000Z</time>
      </trkpt>
      <trkpt lat="44.64094" lon="5.20112">
        <ele>1563</ele>
        <time>2026-05-25T10:59:34.000Z</time>
      </trkpt>
      <trkpt lat="44.64095" lon="5.2011">
        <ele>1563</ele>
        <time>2026-05-25T10:59:35.000Z</time>
      </trkpt>
      <trkpt lat="44.64095" lon="5.20109">
        <ele>1563</ele>
        <time>2026-05-25T10:59:36.000Z</time>
      </trkpt>
      <trkpt lat="44.64096" lon="5.20108">
        <ele>1563</ele>
        <time>2026-05-25T10:59:37.000Z</time>
      </trkpt>
      <trkpt lat="44.64096" lon="5.20107">
        <ele>1563</ele>
        <time>2026-05-25T10:59:38.000Z</time>
      </trkpt>
      <trkpt lat="44.64097" lon="5.20106">
        <ele>1563</ele>
        <time>2026-05-25T10:59:39.000Z</time>
      </trkpt>
      <trkpt lat="44.64097" lon="5.20105">
        <ele>1563</ele>
        <time>2026-05-25T10:59:40.000Z</time>
      </trkpt>
      <trkpt lat="44.64097" lon="5.20105">
        <ele>1564</ele>
        <time>2026-05-25T10:59:41.000Z</time>
      </trkpt>
      <trkpt lat="44.64097" lon="5.20104">
        <ele>1564</ele>
        <time>2026-05-25T10:59:42.000Z</time>
      </trkpt>
      <trkpt lat="44.64098" lon="5.20102">
        <ele>1564</ele>
        <time>2026-05-25T10:59:43.000Z</time>
      </trkpt>
      <trkpt lat="44.64098" lon="5.20101">
        <ele>1565</ele>
        <time>2026-05-25T10:59:44.000Z</time>
      </trkpt>
      <trkpt lat="44.64099" lon="5.20099">
        <ele>1565</ele>
        <time>2026-05-25T10:59:45.000Z</time>
      </trkpt>
      <trkpt lat="44.64099" lon="5.20098">
        <ele>1566</ele>
        <time>2026-05-25T10:59:46.000Z</time>
      </trkpt>
      <trkpt lat="44.64099" lon="5.20097">
        <ele>1566</ele>
        <time>2026-05-25T10:59:47.000Z</time>
      </trkpt>
      <trkpt lat="44.641" lon="5.20096">
        <ele>1567</ele>
        <time>2026-05-25T10:59:48.000Z</time>
      </trkpt>
      <trkpt lat="44.64101" lon="5.20095">
        <ele>1567</ele>
        <time>2026-05-25T10:59:49.000Z</time>
      </trkpt>
      <trkpt lat="44.64102" lon="5.20094">
        <ele>1567</ele>
        <time>2026-05-25T10:59:50.000Z</time>
      </trkpt>
      <trkpt lat="44.64102" lon="5.20093">
        <ele>1567</ele>
        <time>2026-05-25T10:59:51.000Z</time>
      </trkpt>
      <trkpt lat="44.64102" lon="5.20091">
        <ele>1567</ele>
        <time>2026-05-25T10:59:52.000Z</time>
      </trkpt>
      <trkpt lat="44.64103" lon="5.2009">
        <ele>1567</ele>
        <time>2026-05-25T10:59:53.000Z</time>
      </trkpt>
      <trkpt lat="44.64103" lon="5.20089">
        <ele>1568</ele>
        <time>2026-05-25T10:59:54.000Z</time>
      </trkpt>
      <trkpt lat="44.64103" lon="5.20088">
        <ele>1568</ele>
        <time>2026-05-25T10:59:55.000Z</time>
      </trkpt>
      <trkpt lat="44.64104" lon="5.20088">
        <ele>1568</ele>
        <time>2026-05-25T10:59:56.000Z</time>
      </trkpt>
      <trkpt lat="44.64104" lon="5.20087">
        <ele>1568</ele>
        <time>2026-05-25T10:59:57.000Z</time>
      </trkpt>
      <trkpt lat="44.64105" lon="5.20087">
        <ele>1568</ele>
        <time>2026-05-25T10:59:58.000Z</time>
      </trkpt>
      <trkpt lat="44.64105" lon="5.20086">
        <ele>1569</ele>
        <time>2026-05-25T10:59:59.000Z</time>
      </trkpt>
      <trkpt lat="44.64106" lon="5.20085">
        <ele>1569</ele>
        <time>2026-05-25T11:00:00.000Z</time>
      </trkpt>
      <trkpt lat="44.64106" lon="5.20084">
        <ele>1570</ele>
        <time>2026-05-25T11:00:01.000Z</time>
      </trkpt>
      <trkpt lat="44.64107" lon="5.20083">
        <ele>1570</ele>
        <time>2026-05-25T11:00:02.000Z</time>
      </trkpt>
      <trkpt lat="44.64107" lon="5.20081">
        <ele>1570</ele>
        <time>2026-05-25T11:00:03.000Z</time>
      </trkpt>
      <trkpt lat="44.64108" lon="5.2008">
        <ele>1571</ele>
        <time>2026-05-25T11:00:04.000Z</time>
      </trkpt>
      <trkpt lat="44.64108" lon="5.20079">
        <ele>1571</ele>
        <time>2026-05-25T11:00:05.000Z</time>
      </trkpt>
      <trkpt lat="44.64108" lon="5.20079">
        <ele>1572</ele>
        <time>2026-05-25T11:00:06.000Z</time>
      </trkpt>
      <trkpt lat="44.64109" lon="5.20078">
        <ele>1572</ele>
        <time>2026-05-25T11:00:07.000Z</time>
      </trkpt>
      <trkpt lat="44.64109" lon="5.20077">
        <ele>1572</ele>
        <time>2026-05-25T11:00:08.000Z</time>
      </trkpt>
      <trkpt lat="44.6411" lon="5.20076">
        <ele>1572</ele>
        <time>2026-05-25T11:00:09.000Z</time>
      </trkpt>
      <trkpt lat="44.64111" lon="5.20076">
        <ele>1572</ele>
        <time>2026-05-25T11:00:10.000Z</time>
      </trkpt>
      <trkpt lat="44.64112" lon="5.20075">
        <ele>1572</ele>
        <time>2026-05-25T11:00:11.000Z</time>
      </trkpt>
      <trkpt lat="44.64112" lon="5.20074">
        <ele>1572</ele>
        <time>2026-05-25T11:00:12.000Z</time>
      </trkpt>
      <trkpt lat="44.64113" lon="5.20073">
        <ele>1572</ele>
        <time>2026-05-25T11:00:13.000Z</time>
      </trkpt>
      <trkpt lat="44.64113" lon="5.20073">
        <ele>1572</ele>
        <time>2026-05-25T11:00:14.000Z</time>
      </trkpt>
      <trkpt lat="44.64113" lon="5.20072">
        <ele>1572</ele>
        <time>2026-05-25T11:00:15.000Z</time>
      </trkpt>
      <trkpt lat="44.64113" lon="5.20071">
        <ele>1572</ele>
        <time>2026-05-25T11:00:16.000Z</time>
      </trkpt>
      <trkpt lat="44.64112" lon="5.20069">
        <ele>1573</ele>
        <time>2026-05-25T11:00:17.000Z</time>
      </trkpt>
      <trkpt lat="44.64113" lon="5.20069">
        <ele>1573</ele>
        <time>2026-05-25T11:00:18.000Z</time>
      </trkpt>
      <trkpt lat="44.64113" lon="5.20068">
        <ele>1573</ele>
        <time>2026-05-25T11:00:19.000Z</time>
      </trkpt>
      <trkpt lat="44.64113" lon="5.20068">
        <ele>1574</ele>
        <time>2026-05-25T11:00:20.000Z</time>
      </trkpt>
      <trkpt lat="44.64113" lon="5.20066">
        <ele>1574</ele>
        <time>2026-05-25T11:00:21.000Z</time>
      </trkpt>
      <trkpt lat="44.64114" lon="5.20065">
        <ele>1574</ele>
        <time>2026-05-25T11:00:22.000Z</time>
      </trkpt>
      <trkpt lat="44.64114" lon="5.20064">
        <ele>1574</ele>
        <time>2026-05-25T11:00:23.000Z</time>
      </trkpt>
      <trkpt lat="44.64115" lon="5.20064">
        <ele>1575</ele>
        <time>2026-05-25T11:00:24.000Z</time>
      </trkpt>
      <trkpt lat="44.64116" lon="5.20062">
        <ele>1576</ele>
        <time>2026-05-25T11:00:25.000Z</time>
      </trkpt>
      <trkpt lat="44.64116" lon="5.20061">
        <ele>1577</ele>
        <time>2026-05-25T11:00:26.000Z</time>
      </trkpt>
      <trkpt lat="44.64117" lon="5.2006">
        <ele>1577</ele>
        <time>2026-05-25T11:00:27.000Z</time>
      </trkpt>
      <trkpt lat="44.64117" lon="5.20059">
        <ele>1577</ele>
        <time>2026-05-25T11:00:28.000Z</time>
      </trkpt>
      <trkpt lat="44.64117" lon="5.20058">
        <ele>1577</ele>
        <time>2026-05-25T11:00:29.000Z</time>
      </trkpt>
      <trkpt lat="44.64118" lon="5.20057">
        <ele>1578</ele>
        <time>2026-05-25T11:00:30.000Z</time>
      </trkpt>
      <trkpt lat="44.64118" lon="5.20057">
        <ele>1578</ele>
        <time>2026-05-25T11:00:31.000Z</time>
      </trkpt>
      <trkpt lat="44.64119" lon="5.20056">
        <ele>1578</ele>
        <time>2026-05-25T11:00:32.000Z</time>
      </trkpt>
      <trkpt lat="44.64119" lon="5.20055">
        <ele>1578</ele>
        <time>2026-05-25T11:00:33.000Z</time>
      </trkpt>
      <trkpt lat="44.6412" lon="5.20054">
        <ele>1578</ele>
        <time>2026-05-25T11:00:34.000Z</time>
      </trkpt>
      <trkpt lat="44.6412" lon="5.20053">
        <ele>1578</ele>
        <time>2026-05-25T11:00:35.000Z</time>
      </trkpt>
      <trkpt lat="44.64121" lon="5.20052">
        <ele>1579</ele>
        <time>2026-05-25T11:00:36.000Z</time>
      </trkpt>
      <trkpt lat="44.64122" lon="5.20051">
        <ele>1578</ele>
        <time>2026-05-25T11:00:37.000Z</time>
      </trkpt>
      <trkpt lat="44.64122" lon="5.20051">
        <ele>1578</ele>
        <time>2026-05-25T11:00:38.000Z</time>
      </trkpt>
      <trkpt lat="44.64123" lon="5.2005">
        <ele>1579</ele>
        <time>2026-05-25T11:00:39.000Z</time>
      </trkpt>
      <trkpt lat="44.64124" lon="5.20049">
        <ele>1580</ele>
        <time>2026-05-25T11:00:40.000Z</time>
      </trkpt>
      <trkpt lat="44.64124" lon="5.20047">
        <ele>1580</ele>
        <time>2026-05-25T11:00:41.000Z</time>
      </trkpt>
      <trkpt lat="44.64124" lon="5.20046">
        <ele>1581</ele>
        <time>2026-05-25T11:00:42.000Z</time>
      </trkpt>
      <trkpt lat="44.64125" lon="5.20046">
        <ele>1581</ele>
        <time>2026-05-25T11:00:43.000Z</time>
      </trkpt>
      <trkpt lat="44.64126" lon="5.20046">
        <ele>1580</ele>
        <time>2026-05-25T11:00:44.000Z</time>
      </trkpt>
      <trkpt lat="44.64127" lon="5.20044">
        <ele>1580</ele>
        <time>2026-05-25T11:00:45.000Z</time>
      </trkpt>
      <trkpt lat="44.64127" lon="5.20042">
        <ele>1581</ele>
        <time>2026-05-25T11:00:46.000Z</time>
      </trkpt>
      <trkpt lat="44.64126" lon="5.2004">
        <ele>1581</ele>
        <time>2026-05-25T11:00:47.000Z</time>
      </trkpt>
      <trkpt lat="44.64127" lon="5.20039">
        <ele>1582</ele>
        <time>2026-05-25T11:00:48.000Z</time>
      </trkpt>
      <trkpt lat="44.64127" lon="5.20038">
        <ele>1582</ele>
        <time>2026-05-25T11:00:49.000Z</time>
      </trkpt>
      <trkpt lat="44.64128" lon="5.20037">
        <ele>1583</ele>
        <time>2026-05-25T11:00:50.000Z</time>
      </trkpt>
      <trkpt lat="44.64128" lon="5.20036">
        <ele>1583</ele>
        <time>2026-05-25T11:00:51.000Z</time>
      </trkpt>
      <trkpt lat="44.64128" lon="5.20035">
        <ele>1583</ele>
        <time>2026-05-25T11:00:52.000Z</time>
      </trkpt>
      <trkpt lat="44.64129" lon="5.20034">
        <ele>1583</ele>
        <time>2026-05-25T11:00:53.000Z</time>
      </trkpt>
      <trkpt lat="44.64129" lon="5.20033">
        <ele>1583</ele>
        <time>2026-05-25T11:00:54.000Z</time>
      </trkpt>
      <trkpt lat="44.64129" lon="5.20032">
        <ele>1584</ele>
        <time>2026-05-25T11:00:55.000Z</time>
      </trkpt>
      <trkpt lat="44.64129" lon="5.20031">
        <ele>1583</ele>
        <time>2026-05-25T11:00:56.000Z</time>
      </trkpt>
      <trkpt lat="44.64129" lon="5.20029">
        <ele>1583</ele>
        <time>2026-05-25T11:00:57.000Z</time>
      </trkpt>
      <trkpt lat="44.64129" lon="5.20028">
        <ele>1582</ele>
        <time>2026-05-25T11:00:58.000Z</time>
      </trkpt>
      <trkpt lat="44.64129" lon="5.20026">
        <ele>1582</ele>
        <time>2026-05-25T11:00:59.000Z</time>
      </trkpt>
      <trkpt lat="44.6413" lon="5.20024">
        <ele>1582</ele>
        <time>2026-05-25T11:01:00.000Z</time>
      </trkpt>
      <trkpt lat="44.64131" lon="5.20023">
        <ele>1582</ele>
        <time>2026-05-25T11:01:01.000Z</time>
      </trkpt>
      <trkpt lat="44.64131" lon="5.20021">
        <ele>1583</ele>
        <time>2026-05-25T11:01:02.000Z</time>
      </trkpt>
      <trkpt lat="44.64131" lon="5.2002">
        <ele>1583</ele>
        <time>2026-05-25T11:01:03.000Z</time>
      </trkpt>
      <trkpt lat="44.64132" lon="5.20019">
        <ele>1583</ele>
        <time>2026-05-25T11:01:04.000Z</time>
      </trkpt>
      <trkpt lat="44.64132" lon="5.20018">
        <ele>1583</ele>
        <time>2026-05-25T11:01:05.000Z</time>
      </trkpt>
      <trkpt lat="44.64133" lon="5.20017">
        <ele>1582</ele>
        <time>2026-05-25T11:01:06.000Z</time>
      </trkpt>
      <trkpt lat="44.64134" lon="5.20016">
        <ele>1582</ele>
        <time>2026-05-25T11:01:07.000Z</time>
      </trkpt>
      <trkpt lat="44.64134" lon="5.20015">
        <ele>1582</ele>
        <time>2026-05-25T11:01:08.000Z</time>
      </trkpt>
      <trkpt lat="44.64134" lon="5.20013">
        <ele>1581</ele>
        <time>2026-05-25T11:01:09.000Z</time>
      </trkpt>
      <trkpt lat="44.64135" lon="5.20012">
        <ele>1581</ele>
        <time>2026-05-25T11:01:10.000Z</time>
      </trkpt>
      <trkpt lat="44.64136" lon="5.20011">
        <ele>1581</ele>
        <time>2026-05-25T11:01:11.000Z</time>
      </trkpt>
      <trkpt lat="44.64136" lon="5.20011">
        <ele>1581</ele>
        <time>2026-05-25T11:01:12.000Z</time>
      </trkpt>
      <trkpt lat="44.64137" lon="5.20013">
        <ele>1582</ele>
        <time>2026-05-25T11:01:13.000Z</time>
      </trkpt>
      <trkpt lat="44.64137" lon="5.20014">
        <ele>1581</ele>
        <time>2026-05-25T11:01:14.000Z</time>
      </trkpt>
      <trkpt lat="44.64137" lon="5.20016">
        <ele>1581</ele>
        <time>2026-05-25T11:01:15.000Z</time>
      </trkpt>
      <trkpt lat="44.64137" lon="5.20017">
        <ele>1582</ele>
        <time>2026-05-25T11:01:16.000Z</time>
      </trkpt>
      <trkpt lat="44.64137" lon="5.20017">
        <ele>1582</ele>
        <time>2026-05-25T11:01:17.000Z</time>
      </trkpt>
      <trkpt lat="44.64137" lon="5.20017">
        <ele>1582</ele>
        <time>2026-05-25T11:01:18.000Z</time>
      </trkpt>
      <trkpt lat="44.64137" lon="5.20019">
        <ele>1583</ele>
        <time>2026-05-25T11:01:19.000Z</time>
      </trkpt>
      <trkpt lat="44.64137" lon="5.20021">
        <ele>1584</ele>
        <time>2026-05-25T11:01:20.000Z</time>
      </trkpt>
      <trkpt lat="44.64137" lon="5.20024">
        <ele>1584</ele>
        <time>2026-05-25T11:01:21.000Z</time>
      </trkpt>
      <trkpt lat="44.64137" lon="5.20025">
        <ele>1584</ele>
        <time>2026-05-25T11:01:22.000Z</time>
      </trkpt>
      <trkpt lat="44.64137" lon="5.20026">
        <ele>1584</ele>
        <time>2026-05-25T11:01:23.000Z</time>
      </trkpt>
      <trkpt lat="44.64138" lon="5.20027">
        <ele>1584</ele>
        <time>2026-05-25T11:01:24.000Z</time>
      </trkpt>
      <trkpt lat="44.64139" lon="5.20028">
        <ele>1585</ele>
        <time>2026-05-25T11:01:25.000Z</time>
      </trkpt>
      <trkpt lat="44.64139" lon="5.20028">
        <ele>1585</ele>
        <time>2026-05-25T11:01:26.000Z</time>
      </trkpt>
      <trkpt lat="44.64139" lon="5.20029">
        <ele>1585</ele>
        <time>2026-05-25T11:01:27.000Z</time>
      </trkpt>
      <trkpt lat="44.6414" lon="5.2003">
        <ele>1586</ele>
        <time>2026-05-25T11:01:28.000Z</time>
      </trkpt>
      <trkpt lat="44.6414" lon="5.20032">
        <ele>1586</ele>
        <time>2026-05-25T11:01:29.000Z</time>
      </trkpt>
      <trkpt lat="44.64139" lon="5.20033">
        <ele>1586</ele>
        <time>2026-05-25T11:01:30.000Z</time>
      </trkpt>
      <trkpt lat="44.64139" lon="5.20034">
        <ele>1587</ele>
        <time>2026-05-25T11:01:31.000Z</time>
      </trkpt>
      <trkpt lat="44.64139" lon="5.20035">
        <ele>1587</ele>
        <time>2026-05-25T11:01:32.000Z</time>
      </trkpt>
      <trkpt lat="44.6414" lon="5.20037">
        <ele>1588</ele>
        <time>2026-05-25T11:01:33.000Z</time>
      </trkpt>
      <trkpt lat="44.6414" lon="5.20038">
        <ele>1588</ele>
        <time>2026-05-25T11:01:34.000Z</time>
      </trkpt>
      <trkpt lat="44.64141" lon="5.20039">
        <ele>1587</ele>
        <time>2026-05-25T11:01:35.000Z</time>
      </trkpt>
      <trkpt lat="44.64141" lon="5.2004">
        <ele>1588</ele>
        <time>2026-05-25T11:01:36.000Z</time>
      </trkpt>
      <trkpt lat="44.64141" lon="5.2004">
        <ele>1589</ele>
        <time>2026-05-25T11:01:37.000Z</time>
      </trkpt>
      <trkpt lat="44.64142" lon="5.20041">
        <ele>1589</ele>
        <time>2026-05-25T11:01:38.000Z</time>
      </trkpt>
      <trkpt lat="44.64142" lon="5.20042">
        <ele>1589</ele>
        <time>2026-05-25T11:01:39.000Z</time>
      </trkpt>
      <trkpt lat="44.64142" lon="5.20043">
        <ele>1590</ele>
        <time>2026-05-25T11:01:40.000Z</time>
      </trkpt>
      <trkpt lat="44.64143" lon="5.20043">
        <ele>1590</ele>
        <time>2026-05-25T11:01:41.000Z</time>
      </trkpt>
      <trkpt lat="44.64143" lon="5.20045">
        <ele>1590</ele>
        <time>2026-05-25T11:01:42.000Z</time>
      </trkpt>
      <trkpt lat="44.64143" lon="5.20045">
        <ele>1590</ele>
        <time>2026-05-25T11:01:43.000Z</time>
      </trkpt>
      <trkpt lat="44.64143" lon="5.20046">
        <ele>1591</ele>
        <time>2026-05-25T11:01:44.000Z</time>
      </trkpt>
      <trkpt lat="44.64144" lon="5.20046">
        <ele>1591</ele>
        <time>2026-05-25T11:01:45.000Z</time>
      </trkpt>
      <trkpt lat="44.64144" lon="5.20047">
        <ele>1592</ele>
        <time>2026-05-25T11:01:46.000Z</time>
      </trkpt>
      <trkpt lat="44.64145" lon="5.20048">
        <ele>1592</ele>
        <time>2026-05-25T11:01:47.000Z</time>
      </trkpt>
      <trkpt lat="44.64145" lon="5.2005">
        <ele>1592</ele>
        <time>2026-05-25T11:01:48.000Z</time>
      </trkpt>
      <trkpt lat="44.64146" lon="5.2005">
        <ele>1593</ele>
        <time>2026-05-25T11:01:49.000Z</time>
      </trkpt>
      <trkpt lat="44.64146" lon="5.20051">
        <ele>1594</ele>
        <time>2026-05-25T11:01:50.000Z</time>
      </trkpt>
      <trkpt lat="44.64147" lon="5.20052">
        <ele>1594</ele>
        <time>2026-05-25T11:01:51.000Z</time>
      </trkpt>
      <trkpt lat="44.64148" lon="5.20052">
        <ele>1594</ele>
        <time>2026-05-25T11:01:52.000Z</time>
      </trkpt>
      <trkpt lat="44.64148" lon="5.20053">
        <ele>1594</ele>
        <time>2026-05-25T11:01:53.000Z</time>
      </trkpt>
      <trkpt lat="44.64149" lon="5.20054">
        <ele>1594</ele>
        <time>2026-05-25T11:01:54.000Z</time>
      </trkpt>
      <trkpt lat="44.64149" lon="5.20054">
        <ele>1593</ele>
        <time>2026-05-25T11:01:55.000Z</time>
      </trkpt>
      <trkpt lat="44.6415" lon="5.20055">
        <ele>1593</ele>
        <time>2026-05-25T11:01:56.000Z</time>
      </trkpt>
      <trkpt lat="44.6415" lon="5.20056">
        <ele>1593</ele>
        <time>2026-05-25T11:01:57.000Z</time>
      </trkpt>
      <trkpt lat="44.64151" lon="5.20057">
        <ele>1593</ele>
        <time>2026-05-25T11:01:58.000Z</time>
      </trkpt>
      <trkpt lat="44.64151" lon="5.20057">
        <ele>1594</ele>
        <time>2026-05-25T11:01:59.000Z</time>
      </trkpt>
      <trkpt lat="44.64151" lon="5.20057">
        <ele>1595</ele>
        <time>2026-05-25T11:02:00.000Z</time>
      </trkpt>
      <trkpt lat="44.64151" lon="5.20058">
        <ele>1595</ele>
        <time>2026-05-25T11:02:01.000Z</time>
      </trkpt>
      <trkpt lat="44.64152" lon="5.20059">
        <ele>1595</ele>
        <time>2026-05-25T11:02:02.000Z</time>
      </trkpt>
      <trkpt lat="44.64152" lon="5.2006">
        <ele>1595</ele>
        <time>2026-05-25T11:02:03.000Z</time>
      </trkpt>
      <trkpt lat="44.64153" lon="5.20061">
        <ele>1595</ele>
        <time>2026-05-25T11:02:04.000Z</time>
      </trkpt>
      <trkpt lat="44.64154" lon="5.20063">
        <ele>1595</ele>
        <time>2026-05-25T11:02:05.000Z</time>
      </trkpt>
      <trkpt lat="44.64154" lon="5.20063">
        <ele>1595</ele>
        <time>2026-05-25T11:02:06.000Z</time>
      </trkpt>
      <trkpt lat="44.64155" lon="5.20065">
        <ele>1595</ele>
        <time>2026-05-25T11:02:07.000Z</time>
      </trkpt>
      <trkpt lat="44.64155" lon="5.20066">
        <ele>1595</ele>
        <time>2026-05-25T11:02:08.000Z</time>
      </trkpt>
      <trkpt lat="44.64156" lon="5.20067">
        <ele>1595</ele>
        <time>2026-05-25T11:02:09.000Z</time>
      </trkpt>
      <trkpt lat="44.64156" lon="5.20068">
        <ele>1595</ele>
        <time>2026-05-25T11:02:10.000Z</time>
      </trkpt>
      <trkpt lat="44.64157" lon="5.20068">
        <ele>1595</ele>
        <time>2026-05-25T11:02:11.000Z</time>
      </trkpt>
      <trkpt lat="44.64157" lon="5.20069">
        <ele>1596</ele>
        <time>2026-05-25T11:02:12.000Z</time>
      </trkpt>
      <trkpt lat="44.64157" lon="5.2007">
        <ele>1597</ele>
        <time>2026-05-25T11:02:13.000Z</time>
      </trkpt>
      <trkpt lat="44.64158" lon="5.20071">
        <ele>1596</ele>
        <time>2026-05-25T11:02:14.000Z</time>
      </trkpt>
      <trkpt lat="44.64158" lon="5.20072">
        <ele>1596</ele>
        <time>2026-05-25T11:02:15.000Z</time>
      </trkpt>
      <trkpt lat="44.64159" lon="5.20072">
        <ele>1596</ele>
        <time>2026-05-25T11:02:16.000Z</time>
      </trkpt>
      <trkpt lat="44.64159" lon="5.20073">
        <ele>1596</ele>
        <time>2026-05-25T11:02:17.000Z</time>
      </trkpt>
      <trkpt lat="44.64159" lon="5.20074">
        <ele>1596</ele>
        <time>2026-05-25T11:02:18.000Z</time>
      </trkpt>
      <trkpt lat="44.6416" lon="5.20075">
        <ele>1597</ele>
        <time>2026-05-25T11:02:19.000Z</time>
      </trkpt>
      <trkpt lat="44.6416" lon="5.20076">
        <ele>1597</ele>
        <time>2026-05-25T11:02:20.000Z</time>
      </trkpt>
      <trkpt lat="44.64161" lon="5.20077">
        <ele>1598</ele>
        <time>2026-05-25T11:02:21.000Z</time>
      </trkpt>
      <trkpt lat="44.64162" lon="5.20078">
        <ele>1598</ele>
        <time>2026-05-25T11:02:22.000Z</time>
      </trkpt>
      <trkpt lat="44.64163" lon="5.20079">
        <ele>1599</ele>
        <time>2026-05-25T11:02:23.000Z</time>
      </trkpt>
      <trkpt lat="44.64163" lon="5.20079">
        <ele>1599</ele>
        <time>2026-05-25T11:02:24.000Z</time>
      </trkpt>
      <trkpt lat="44.64164" lon="5.2008">
        <ele>1599</ele>
        <time>2026-05-25T11:02:25.000Z</time>
      </trkpt>
      <trkpt lat="44.64165" lon="5.20079">
        <ele>1599</ele>
        <time>2026-05-25T11:02:26.000Z</time>
      </trkpt>
      <trkpt lat="44.64166" lon="5.2008">
        <ele>1599</ele>
        <time>2026-05-25T11:02:27.000Z</time>
      </trkpt>
      <trkpt lat="44.64166" lon="5.20079">
        <ele>1600</ele>
        <time>2026-05-25T11:02:28.000Z</time>
      </trkpt>
      <trkpt lat="44.64166" lon="5.20078">
        <ele>1600</ele>
        <time>2026-05-25T11:02:29.000Z</time>
      </trkpt>
      <trkpt lat="44.64166" lon="5.20076">
        <ele>1600</ele>
        <time>2026-05-25T11:02:30.000Z</time>
      </trkpt>
      <trkpt lat="44.64167" lon="5.20074">
        <ele>1600</ele>
        <time>2026-05-25T11:02:31.000Z</time>
      </trkpt>
      <trkpt lat="44.64167" lon="5.20072">
        <ele>1601</ele>
        <time>2026-05-25T11:02:32.000Z</time>
      </trkpt>
      <trkpt lat="44.64166" lon="5.20071">
        <ele>1600</ele>
        <time>2026-05-25T11:02:33.000Z</time>
      </trkpt>
      <trkpt lat="44.64166" lon="5.20069">
        <ele>1600</ele>
        <time>2026-05-25T11:02:34.000Z</time>
      </trkpt>
      <trkpt lat="44.64166" lon="5.20068">
        <ele>1601</ele>
        <time>2026-05-25T11:02:35.000Z</time>
      </trkpt>
      <trkpt lat="44.64167" lon="5.20068">
        <ele>1601</ele>
        <time>2026-05-25T11:02:36.000Z</time>
      </trkpt>
      <trkpt lat="44.64167" lon="5.20067">
        <ele>1601</ele>
        <time>2026-05-25T11:02:37.000Z</time>
      </trkpt>
      <trkpt lat="44.64168" lon="5.20066">
        <ele>1602</ele>
        <time>2026-05-25T11:02:38.000Z</time>
      </trkpt>
      <trkpt lat="44.64168" lon="5.20065">
        <ele>1602</ele>
        <time>2026-05-25T11:02:39.000Z</time>
      </trkpt>
      <trkpt lat="44.64169" lon="5.20064">
        <ele>1602</ele>
        <time>2026-05-25T11:02:40.000Z</time>
      </trkpt>
      <trkpt lat="44.64169" lon="5.20063">
        <ele>1603</ele>
        <time>2026-05-25T11:02:41.000Z</time>
      </trkpt>
      <trkpt lat="44.64169" lon="5.20061">
        <ele>1603</ele>
        <time>2026-05-25T11:02:42.000Z</time>
      </trkpt>
      <trkpt lat="44.64169" lon="5.2006">
        <ele>1603</ele>
        <time>2026-05-25T11:02:43.000Z</time>
      </trkpt>
      <trkpt lat="44.64169" lon="5.20059">
        <ele>1604</ele>
        <time>2026-05-25T11:02:44.000Z</time>
      </trkpt>
      <trkpt lat="44.64169" lon="5.20057">
        <ele>1604</ele>
        <time>2026-05-25T11:02:45.000Z</time>
      </trkpt>
      <trkpt lat="44.64169" lon="5.20056">
        <ele>1604</ele>
        <time>2026-05-25T11:02:46.000Z</time>
      </trkpt>
      <trkpt lat="44.64169" lon="5.20056">
        <ele>1604</ele>
        <time>2026-05-25T11:02:47.000Z</time>
      </trkpt>
      <trkpt lat="44.64169" lon="5.20055">
        <ele>1604</ele>
        <time>2026-05-25T11:02:48.000Z</time>
      </trkpt>
      <trkpt lat="44.6417" lon="5.20054">
        <ele>1604</ele>
        <time>2026-05-25T11:02:49.000Z</time>
      </trkpt>
      <trkpt lat="44.64171" lon="5.20053">
        <ele>1604</ele>
        <time>2026-05-25T11:02:50.000Z</time>
      </trkpt>
      <trkpt lat="44.64171" lon="5.20052">
        <ele>1604</ele>
        <time>2026-05-25T11:02:51.000Z</time>
      </trkpt>
      <trkpt lat="44.64171" lon="5.20051">
        <ele>1605</ele>
        <time>2026-05-25T11:02:52.000Z</time>
      </trkpt>
      <trkpt lat="44.64172" lon="5.20051">
        <ele>1605</ele>
        <time>2026-05-25T11:02:53.000Z</time>
      </trkpt>
      <trkpt lat="44.64173" lon="5.2005">
        <ele>1605</ele>
        <time>2026-05-25T11:02:54.000Z</time>
      </trkpt>
      <trkpt lat="44.64173" lon="5.20049">
        <ele>1606</ele>
        <time>2026-05-25T11:02:55.000Z</time>
      </trkpt>
      <trkpt lat="44.64173" lon="5.20048">
        <ele>1606</ele>
        <time>2026-05-25T11:02:56.000Z</time>
      </trkpt>
      <trkpt lat="44.64173" lon="5.20047">
        <ele>1607</ele>
        <time>2026-05-25T11:02:57.000Z</time>
      </trkpt>
      <trkpt lat="44.64173" lon="5.20046">
        <ele>1606</ele>
        <time>2026-05-25T11:02:58.000Z</time>
      </trkpt>
      <trkpt lat="44.64173" lon="5.20045">
        <ele>1606</ele>
        <time>2026-05-25T11:02:59.000Z</time>
      </trkpt>
      <trkpt lat="44.64173" lon="5.20043">
        <ele>1606</ele>
        <time>2026-05-25T11:03:00.000Z</time>
      </trkpt>
      <trkpt lat="44.64173" lon="5.20042">
        <ele>1606</ele>
        <time>2026-05-25T11:03:01.000Z</time>
      </trkpt>
      <trkpt lat="44.64173" lon="5.20041">
        <ele>1606</ele>
        <time>2026-05-25T11:03:02.000Z</time>
      </trkpt>
      <trkpt lat="44.64173" lon="5.2004">
        <ele>1607</ele>
        <time>2026-05-25T11:03:03.000Z</time>
      </trkpt>
      <trkpt lat="44.64174" lon="5.20039">
        <ele>1607</ele>
        <time>2026-05-25T11:03:04.000Z</time>
      </trkpt>
      <trkpt lat="44.64174" lon="5.20038">
        <ele>1607</ele>
        <time>2026-05-25T11:03:05.000Z</time>
      </trkpt>
      <trkpt lat="44.64174" lon="5.20037">
        <ele>1607</ele>
        <time>2026-05-25T11:03:06.000Z</time>
      </trkpt>
      <trkpt lat="44.64174" lon="5.20037">
        <ele>1608</ele>
        <time>2026-05-25T11:03:07.000Z</time>
      </trkpt>
      <trkpt lat="44.64175" lon="5.20036">
        <ele>1608</ele>
        <time>2026-05-25T11:03:08.000Z</time>
      </trkpt>
      <trkpt lat="44.64176" lon="5.20035">
        <ele>1608</ele>
        <time>2026-05-25T11:03:09.000Z</time>
      </trkpt>
      <trkpt lat="44.64177" lon="5.20034">
        <ele>1608</ele>
        <time>2026-05-25T11:03:10.000Z</time>
      </trkpt>
      <trkpt lat="44.64177" lon="5.20033">
        <ele>1608</ele>
        <time>2026-05-25T11:03:11.000Z</time>
      </trkpt>
      <trkpt lat="44.64178" lon="5.20032">
        <ele>1608</ele>
        <time>2026-05-25T11:03:12.000Z</time>
      </trkpt>
      <trkpt lat="44.64178" lon="5.20031">
        <ele>1608</ele>
        <time>2026-05-25T11:03:13.000Z</time>
      </trkpt>
      <trkpt lat="44.64179" lon="5.2003">
        <ele>1608</ele>
        <time>2026-05-25T11:03:14.000Z</time>
      </trkpt>
      <trkpt lat="44.64179" lon="5.20029">
        <ele>1608</ele>
        <time>2026-05-25T11:03:15.000Z</time>
      </trkpt>
      <trkpt lat="44.6418" lon="5.20029">
        <ele>1607</ele>
        <time>2026-05-25T11:03:16.000Z</time>
      </trkpt>
      <trkpt lat="44.6418" lon="5.20027">
        <ele>1607</ele>
        <time>2026-05-25T11:03:17.000Z</time>
      </trkpt>
      <trkpt lat="44.6418" lon="5.20026">
        <ele>1608</ele>
        <time>2026-05-25T11:03:18.000Z</time>
      </trkpt>
      <trkpt lat="44.64181" lon="5.20026">
        <ele>1608</ele>
        <time>2026-05-25T11:03:19.000Z</time>
      </trkpt>
      <trkpt lat="44.64181" lon="5.20027">
        <ele>1608</ele>
        <time>2026-05-25T11:03:20.000Z</time>
      </trkpt>
      <trkpt lat="44.6418" lon="5.20027">
        <ele>1609</ele>
        <time>2026-05-25T11:03:21.000Z</time>
      </trkpt>
      <trkpt lat="44.6418" lon="5.20028">
        <ele>1608</ele>
        <time>2026-05-25T11:03:22.000Z</time>
      </trkpt>
      <trkpt lat="44.64182" lon="5.2003">
        <ele>1609</ele>
        <time>2026-05-25T11:03:23.000Z</time>
      </trkpt>
      <trkpt lat="44.64183" lon="5.2003">
        <ele>1608</ele>
        <time>2026-05-25T11:03:24.000Z</time>
      </trkpt>
      <trkpt lat="44.64183" lon="5.20031">
        <ele>1608</ele>
        <time>2026-05-25T11:03:25.000Z</time>
      </trkpt>
      <trkpt lat="44.64184" lon="5.20031">
        <ele>1608</ele>
        <time>2026-05-25T11:03:26.000Z</time>
      </trkpt>
      <trkpt lat="44.64185" lon="5.20032">
        <ele>1608</ele>
        <time>2026-05-25T11:03:27.000Z</time>
      </trkpt>
      <trkpt lat="44.64186" lon="5.20033">
        <ele>1608</ele>
        <time>2026-05-25T11:03:28.000Z</time>
      </trkpt>
      <trkpt lat="44.64186" lon="5.20033">
        <ele>1608</ele>
        <time>2026-05-25T11:03:29.000Z</time>
      </trkpt>
      <trkpt lat="44.64187" lon="5.20034">
        <ele>1608</ele>
        <time>2026-05-25T11:03:30.000Z</time>
      </trkpt>
      <trkpt lat="44.64188" lon="5.20036">
        <ele>1608</ele>
        <time>2026-05-25T11:03:31.000Z</time>
      </trkpt>
      <trkpt lat="44.64188" lon="5.20037">
        <ele>1608</ele>
        <time>2026-05-25T11:03:32.000Z</time>
      </trkpt>
      <trkpt lat="44.64189" lon="5.20038">
        <ele>1609</ele>
        <time>2026-05-25T11:03:33.000Z</time>
      </trkpt>
      <trkpt lat="44.6419" lon="5.20039">
        <ele>1609</ele>
        <time>2026-05-25T11:03:34.000Z</time>
      </trkpt>
      <trkpt lat="44.64191" lon="5.20041">
        <ele>1609</ele>
        <time>2026-05-25T11:03:35.000Z</time>
      </trkpt>
      <trkpt lat="44.64192" lon="5.20041">
        <ele>1609</ele>
        <time>2026-05-25T11:03:36.000Z</time>
      </trkpt>
      <trkpt lat="44.64193" lon="5.20043">
        <ele>1609</ele>
        <time>2026-05-25T11:03:37.000Z</time>
      </trkpt>
      <trkpt lat="44.64194" lon="5.20043">
        <ele>1609</ele>
        <time>2026-05-25T11:03:38.000Z</time>
      </trkpt>
      <trkpt lat="44.64195" lon="5.20044">
        <ele>1609</ele>
        <time>2026-05-25T11:03:39.000Z</time>
      </trkpt>
      <trkpt lat="44.64195" lon="5.20045">
        <ele>1609</ele>
        <time>2026-05-25T11:03:40.000Z</time>
      </trkpt>
      <trkpt lat="44.64195" lon="5.20046">
        <ele>1609</ele>
        <time>2026-05-25T11:03:41.000Z</time>
      </trkpt>
      <trkpt lat="44.64195" lon="5.20046">
        <ele>1609</ele>
        <time>2026-05-25T11:03:42.000Z</time>
      </trkpt>
      <trkpt lat="44.64195" lon="5.20046">
        <ele>1610</ele>
        <time>2026-05-25T11:03:43.000Z</time>
      </trkpt>
      <trkpt lat="44.64195" lon="5.20046">
        <ele>1610</ele>
        <time>2026-05-25T11:03:44.000Z</time>
      </trkpt>
      <trkpt lat="44.64194" lon="5.20047">
        <ele>1610</ele>
        <time>2026-05-25T11:03:45.000Z</time>
      </trkpt>
      <trkpt lat="44.64195" lon="5.20047">
        <ele>1610</ele>
        <time>2026-05-25T11:03:46.000Z</time>
      </trkpt>
      <trkpt lat="44.64196" lon="5.20047">
        <ele>1610</ele>
        <time>2026-05-25T11:03:47.000Z</time>
      </trkpt>
      <trkpt lat="44.64197" lon="5.20047">
        <ele>1610</ele>
        <time>2026-05-25T11:03:48.000Z</time>
      </trkpt>
      <trkpt lat="44.64197" lon="5.20048">
        <ele>1609</ele>
        <time>2026-05-25T11:03:49.000Z</time>
      </trkpt>
      <trkpt lat="44.64198" lon="5.20049">
        <ele>1609</ele>
        <time>2026-05-25T11:03:50.000Z</time>
      </trkpt>
      <trkpt lat="44.64198" lon="5.2005">
        <ele>1610</ele>
        <time>2026-05-25T11:03:51.000Z</time>
      </trkpt>
      <trkpt lat="44.64199" lon="5.20052">
        <ele>1611</ele>
        <time>2026-05-25T11:03:52.000Z</time>
      </trkpt>
      <trkpt lat="44.64199" lon="5.20054">
        <ele>1611</ele>
        <time>2026-05-25T11:03:53.000Z</time>
      </trkpt>
      <trkpt lat="44.642" lon="5.20055">
        <ele>1611</ele>
        <time>2026-05-25T11:03:54.000Z</time>
      </trkpt>
      <trkpt lat="44.64201" lon="5.20056">
        <ele>1612</ele>
        <time>2026-05-25T11:03:55.000Z</time>
      </trkpt>
      <trkpt lat="44.64202" lon="5.20057">
        <ele>1612</ele>
        <time>2026-05-25T11:03:56.000Z</time>
      </trkpt>
      <trkpt lat="44.64203" lon="5.20058">
        <ele>1612</ele>
        <time>2026-05-25T11:03:57.000Z</time>
      </trkpt>
      <trkpt lat="44.64205" lon="5.20058">
        <ele>1612</ele>
        <time>2026-05-25T11:03:58.000Z</time>
      </trkpt>
      <trkpt lat="44.64206" lon="5.20059">
        <ele>1612</ele>
        <time>2026-05-25T11:03:59.000Z</time>
      </trkpt>
      <trkpt lat="44.64207" lon="5.20059">
        <ele>1612</ele>
        <time>2026-05-25T11:04:00.000Z</time>
      </trkpt>
      <trkpt lat="44.64208" lon="5.2006">
        <ele>1612</ele>
        <time>2026-05-25T11:04:01.000Z</time>
      </trkpt>
      <trkpt lat="44.64209" lon="5.2006">
        <ele>1612</ele>
        <time>2026-05-25T11:04:02.000Z</time>
      </trkpt>
      <trkpt lat="44.6421" lon="5.2006">
        <ele>1612</ele>
        <time>2026-05-25T11:04:03.000Z</time>
      </trkpt>
      <trkpt lat="44.64212" lon="5.20061">
        <ele>1611</ele>
        <time>2026-05-25T11:04:04.000Z</time>
      </trkpt>
      <trkpt lat="44.64213" lon="5.20063">
        <ele>1611</ele>
        <time>2026-05-25T11:04:05.000Z</time>
      </trkpt>
      <trkpt lat="44.64213" lon="5.20065">
        <ele>1610</ele>
        <time>2026-05-25T11:04:06.000Z</time>
      </trkpt>
      <trkpt lat="44.64214" lon="5.20066">
        <ele>1610</ele>
        <time>2026-05-25T11:04:07.000Z</time>
      </trkpt>
      <trkpt lat="44.64216" lon="5.20067">
        <ele>1610</ele>
        <time>2026-05-25T11:04:08.000Z</time>
      </trkpt>
      <trkpt lat="44.64217" lon="5.20068">
        <ele>1611</ele>
        <time>2026-05-25T11:04:09.000Z</time>
      </trkpt>
      <trkpt lat="44.64218" lon="5.20069">
        <ele>1611</ele>
        <time>2026-05-25T11:04:10.000Z</time>
      </trkpt>
      <trkpt lat="44.64219" lon="5.2007">
        <ele>1611</ele>
        <time>2026-05-25T11:04:11.000Z</time>
      </trkpt>
      <trkpt lat="44.6422" lon="5.20072">
        <ele>1611</ele>
        <time>2026-05-25T11:04:12.000Z</time>
      </trkpt>
      <trkpt lat="44.6422" lon="5.20073">
        <ele>1611</ele>
        <time>2026-05-25T11:04:13.000Z</time>
      </trkpt>
      <trkpt lat="44.64221" lon="5.20074">
        <ele>1610</ele>
        <time>2026-05-25T11:04:14.000Z</time>
      </trkpt>
      <trkpt lat="44.64221" lon="5.20075">
        <ele>1610</ele>
        <time>2026-05-25T11:04:15.000Z</time>
      </trkpt>
      <trkpt lat="44.64222" lon="5.20076">
        <ele>1610</ele>
        <time>2026-05-25T11:04:16.000Z</time>
      </trkpt>
      <trkpt lat="44.64223" lon="5.20077">
        <ele>1609</ele>
        <time>2026-05-25T11:04:17.000Z</time>
      </trkpt>
      <trkpt lat="44.64223" lon="5.20078">
        <ele>1610</ele>
        <time>2026-05-25T11:04:18.000Z</time>
      </trkpt>
      <trkpt lat="44.64224" lon="5.2008">
        <ele>1610</ele>
        <time>2026-05-25T11:04:19.000Z</time>
      </trkpt>
      <trkpt lat="44.64224" lon="5.20081">
        <ele>1610</ele>
        <time>2026-05-25T11:04:20.000Z</time>
      </trkpt>
      <trkpt lat="44.64224" lon="5.20082">
        <ele>1610</ele>
        <time>2026-05-25T11:04:21.000Z</time>
      </trkpt>
      <trkpt lat="44.64225" lon="5.20083">
        <ele>1611</ele>
        <time>2026-05-25T11:04:22.000Z</time>
      </trkpt>
      <trkpt lat="44.64226" lon="5.20085">
        <ele>1611</ele>
        <time>2026-05-25T11:04:23.000Z</time>
      </trkpt>
      <trkpt lat="44.64226" lon="5.20086">
        <ele>1611</ele>
        <time>2026-05-25T11:04:24.000Z</time>
      </trkpt>
      <trkpt lat="44.64227" lon="5.20087">
        <ele>1612</ele>
        <time>2026-05-25T11:04:25.000Z</time>
      </trkpt>
      <trkpt lat="44.64228" lon="5.20087">
        <ele>1612</ele>
        <time>2026-05-25T11:04:26.000Z</time>
      </trkpt>
      <trkpt lat="44.64229" lon="5.20088">
        <ele>1612</ele>
        <time>2026-05-25T11:04:27.000Z</time>
      </trkpt>
      <trkpt lat="44.6423" lon="5.20089">
        <ele>1612</ele>
        <time>2026-05-25T11:04:28.000Z</time>
      </trkpt>
      <trkpt lat="44.6423" lon="5.20089">
        <ele>1613</ele>
        <time>2026-05-25T11:04:29.000Z</time>
      </trkpt>
      <trkpt lat="44.6423" lon="5.2009">
        <ele>1613</ele>
        <time>2026-05-25T11:04:30.000Z</time>
      </trkpt>
      <trkpt lat="44.64231" lon="5.20091">
        <ele>1613</ele>
        <time>2026-05-25T11:04:31.000Z</time>
      </trkpt>
      <trkpt lat="44.64232" lon="5.20093">
        <ele>1613</ele>
        <time>2026-05-25T11:04:32.000Z</time>
      </trkpt>
      <trkpt lat="44.64233" lon="5.20094">
        <ele>1613</ele>
        <time>2026-05-25T11:04:33.000Z</time>
      </trkpt>
      <trkpt lat="44.64234" lon="5.20096">
        <ele>1613</ele>
        <time>2026-05-25T11:04:34.000Z</time>
      </trkpt>
      <trkpt lat="44.64234" lon="5.20097">
        <ele>1613</ele>
        <time>2026-05-25T11:04:35.000Z</time>
      </trkpt>
      <trkpt lat="44.64235" lon="5.20098">
        <ele>1614</ele>
        <time>2026-05-25T11:04:36.000Z</time>
      </trkpt>
      <trkpt lat="44.64235" lon="5.201">
        <ele>1614</ele>
        <time>2026-05-25T11:04:37.000Z</time>
      </trkpt>
      <trkpt lat="44.64235" lon="5.20101">
        <ele>1613</ele>
        <time>2026-05-25T11:04:38.000Z</time>
      </trkpt>
      <trkpt lat="44.64235" lon="5.20102">
        <ele>1613</ele>
        <time>2026-05-25T11:04:39.000Z</time>
      </trkpt>
      <trkpt lat="44.64236" lon="5.20103">
        <ele>1613</ele>
        <time>2026-05-25T11:04:40.000Z</time>
      </trkpt>
      <trkpt lat="44.64235" lon="5.20105">
        <ele>1614</ele>
        <time>2026-05-25T11:04:41.000Z</time>
      </trkpt>
      <trkpt lat="44.64235" lon="5.20106">
        <ele>1613</ele>
        <time>2026-05-25T11:04:42.000Z</time>
      </trkpt>
      <trkpt lat="44.64235" lon="5.20106">
        <ele>1613</ele>
        <time>2026-05-25T11:04:43.000Z</time>
      </trkpt>
      <trkpt lat="44.64236" lon="5.20106">
        <ele>1613</ele>
        <time>2026-05-25T11:04:44.000Z</time>
      </trkpt>
      <trkpt lat="44.64236" lon="5.20107">
        <ele>1613</ele>
        <time>2026-05-25T11:04:45.000Z</time>
      </trkpt>
      <trkpt lat="44.64236" lon="5.20107">
        <ele>1613</ele>
        <time>2026-05-25T11:04:46.000Z</time>
      </trkpt>
      <trkpt lat="44.64234" lon="5.20108">
        <ele>1615</ele>
        <time>2026-05-25T11:04:47.000Z</time>
      </trkpt>
      <trkpt lat="44.64234" lon="5.20108">
        <ele>1615</ele>
        <time>2026-05-25T11:04:48.000Z</time>
      </trkpt>
      <trkpt lat="44.64234" lon="5.20108">
        <ele>1614</ele>
        <time>2026-05-25T11:04:49.000Z</time>
      </trkpt>
      <trkpt lat="44.64234" lon="5.20108">
        <ele>1614</ele>
        <time>2026-05-25T11:04:50.000Z</time>
      </trkpt>
      <trkpt lat="44.64234" lon="5.20108">
        <ele>1614</ele>
        <time>2026-05-25T11:04:51.000Z</time>
      </trkpt>
      <trkpt lat="44.64234" lon="5.20108">
        <ele>1614</ele>
        <time>2026-05-25T11:04:52.000Z</time>
      </trkpt>
      <trkpt lat="44.64234" lon="5.20108">
        <ele>1614</ele>
        <time>2026-05-25T11:04:53.000Z</time>
      </trkpt>
      <trkpt lat="44.64234" lon="5.20108">
        <ele>1614</ele>
        <time>2026-05-25T11:04:54.000Z</time>
      </trkpt>
      <trkpt lat="44.64234" lon="5.20108">
        <ele>1614</ele>
        <time>2026-05-25T11:04:55.000Z</time>
      </trkpt>
      <trkpt lat="44.64234" lon="5.20108">
        <ele>1614</ele>
        <time>2026-05-25T11:04:56.000Z</time>
      </trkpt>
      <trkpt lat="44.64234" lon="5.20108">
        <ele>1614</ele>
        <time>2026-05-25T11:04:57.000Z</time>
      </trkpt>
      <trkpt lat="44.64234" lon="5.20108">
        <ele>1614</ele>
        <time>2026-05-25T11:04:58.000Z</time>
      </trkpt>
      <trkpt lat="44.64234" lon="5.20108">
        <ele>1614</ele>
        <time>2026-05-25T11:04:59.000Z</time>
      </trkpt>
      <trkpt lat="44.64234" lon="5.20108">
        <ele>1614</ele>
        <time>2026-05-25T11:05:00.000Z</time>
      </trkpt>
      <trkpt lat="44.64234" lon="5.20108">
        <ele>1614</ele>
        <time>2026-05-25T11:05:01.000Z</time>
      </trkpt>
      <trkpt lat="44.64234" lon="5.20108">
        <ele>1614</ele>
        <time>2026-05-25T11:05:02.000Z</time>
      </trkpt>
      <trkpt lat="44.64234" lon="5.20108">
        <ele>1614</ele>
        <time>2026-05-25T11:05:03.000Z</time>
      </trkpt>
      <trkpt lat="44.64234" lon="5.20108">
        <ele>1614</ele>
        <time>2026-05-25T11:05:04.000Z</time>
      </trkpt>
      <trkpt lat="44.64234" lon="5.20108">
        <ele>1614</ele>
        <time>2026-05-25T11:05:05.000Z</time>
      </trkpt>
      <trkpt lat="44.64234" lon="5.20108">
        <ele>1614</ele>
        <time>2026-05-25T11:05:06.000Z</time>
      </trkpt>
      <trkpt lat="44.64234" lon="5.20108">
        <ele>1614</ele>
        <time>2026-05-25T11:05:07.000Z</time>
      </trkpt>
      <trkpt lat="44.64234" lon="5.20108">
        <ele>1614</ele>
        <time>2026-05-25T11:05:08.000Z</time>
      </trkpt>
      <trkpt lat="44.64234" lon="5.20108">
        <ele>1614</ele>
        <time>2026-05-25T11:05:09.000Z</time>
      </trkpt>
      <trkpt lat="44.64234" lon="5.20108">
        <ele>1614</ele>
        <time>2026-05-25T11:05:10.000Z</time>
      </trkpt>
      <trkpt lat="44.64234" lon="5.20108">
        <ele>1614</ele>
        <time>2026-05-25T11:05:11.000Z</time>
      </trkpt>
      <trkpt lat="44.64234" lon="5.20108">
        <ele>1614</ele>
        <time>2026-05-25T11:05:12.000Z</time>
      </trkpt>
      <trkpt lat="44.64234" lon="5.20108">
        <ele>1614</ele>
        <time>2026-05-25T11:05:13.000Z</time>
      </trkpt>
      <trkpt lat="44.64234" lon="5.20108">
        <ele>1614</ele>
        <time>2026-05-25T11:05:14.000Z</time>
      </trkpt>
      <trkpt lat="44.64234" lon="5.20108">
        <ele>1614</ele>
        <time>2026-05-25T11:05:15.000Z</time>
      </trkpt>
      <trkpt lat="44.64234" lon="5.20108">
        <ele>1614</ele>
        <time>2026-05-25T11:05:16.000Z</time>
      </trkpt>
      <trkpt lat="44.64234" lon="5.20108">
        <ele>1614</ele>
        <time>2026-05-25T11:05:17.000Z</time>
      </trkpt>
      <trkpt lat="44.64234" lon="5.20108">
        <ele>1614</ele>
        <time>2026-05-25T11:05:18.000Z</time>
      </trkpt>
      <trkpt lat="44.64234" lon="5.20108">
        <ele>1614</ele>
        <time>2026-05-25T11:05:19.000Z</time>
      </trkpt>
      <trkpt lat="44.64234" lon="5.20108">
        <ele>1614</ele>
        <time>2026-05-25T11:05:20.000Z</time>
      </trkpt>
      <trkpt lat="44.64234" lon="5.20108">
        <ele>1614</ele>
        <time>2026-05-25T11:05:21.000Z</time>
      </trkpt>
      <trkpt lat="44.64234" lon="5.20108">
        <ele>1614</ele>
        <time>2026-05-25T11:05:22.000Z</time>
      </trkpt>
      <trkpt lat="44.64234" lon="5.20108">
        <ele>1614</ele>
        <time>2026-05-25T11:05:23.000Z</time>
      </trkpt>
      <trkpt lat="44.64234" lon="5.20108">
        <ele>1614</ele>
        <time>2026-05-25T11:05:24.000Z</time>
      </trkpt>
      <trkpt lat="44.64234" lon="5.20108">
        <ele>1614</ele>
        <time>2026-05-25T11:05:25.000Z</time>
      </trkpt>
      <trkpt lat="44.64234" lon="5.20108">
        <ele>1614</ele>
        <time>2026-05-25T11:05:26.000Z</time>
      </trkpt>
      <trkpt lat="44.64234" lon="5.20108">
        <ele>1614</ele>
        <time>2026-05-25T11:05:27.000Z</time>
      </trkpt>
      <trkpt lat="44.64234" lon="5.20108">
        <ele>1614</ele>
        <time>2026-05-25T11:05:28.000Z</time>
      </trkpt>
      <trkpt lat="44.64234" lon="5.20108">
        <ele>1614</ele>
        <time>2026-05-25T11:05:29.000Z</time>
      </trkpt>
      <trkpt lat="44.64234" lon="5.20108">
        <ele>1614</ele>
        <time>2026-05-25T11:05:30.000Z</time>
      </trkpt>
      <trkpt lat="44.64234" lon="5.20108">
        <ele>1614</ele>
        <time>2026-05-25T11:05:31.000Z</time>
      </trkpt>
      <trkpt lat="44.64234" lon="5.20108">
        <ele>1614</ele>
        <time>2026-05-25T11:05:32.000Z</time>
      </trkpt>
      <trkpt lat="44.64234" lon="5.20106">
        <ele>1615</ele>
        <time>2026-05-25T11:05:33.000Z</time>
      </trkpt>
      <trkpt lat="44.64233" lon="5.20105">
        <ele>1615</ele>
        <time>2026-05-25T11:05:34.000Z</time>
      </trkpt>
      <trkpt lat="44.64234" lon="5.20104">
        <ele>1615</ele>
        <time>2026-05-25T11:05:35.000Z</time>
      </trkpt>
      <trkpt lat="44.64234" lon="5.20103">
        <ele>1615</ele>
        <time>2026-05-25T11:05:36.000Z</time>
      </trkpt>
      <trkpt lat="44.64234" lon="5.20102">
        <ele>1615</ele>
        <time>2026-05-25T11:05:37.000Z</time>
      </trkpt>
      <trkpt lat="44.64234" lon="5.20103">
        <ele>1615</ele>
        <time>2026-05-25T11:05:38.000Z</time>
      </trkpt>
      <trkpt lat="44.64234" lon="5.20103">
        <ele>1615</ele>
        <time>2026-05-25T11:05:39.000Z</time>
      </trkpt>
      <trkpt lat="44.64234" lon="5.20103">
        <ele>1615</ele>
        <time>2026-05-25T11:05:40.000Z</time>
      </trkpt>
      <trkpt lat="44.64234" lon="5.20103">
        <ele>1615</ele>
        <time>2026-05-25T11:05:41.000Z</time>
      </trkpt>
      <trkpt lat="44.64233" lon="5.20105">
        <ele>1614</ele>
        <time>2026-05-25T11:05:42.000Z</time>
      </trkpt>
      <trkpt lat="44.64233" lon="5.20106">
        <ele>1614</ele>
        <time>2026-05-25T11:05:43.000Z</time>
      </trkpt>
      <trkpt lat="44.64233" lon="5.20108">
        <ele>1615</ele>
        <time>2026-05-25T11:05:44.000Z</time>
      </trkpt>
      <trkpt lat="44.64233" lon="5.20108">
        <ele>1615</ele>
        <time>2026-05-25T11:05:45.000Z</time>
      </trkpt>
      <trkpt lat="44.64232" lon="5.20109">
        <ele>1616</ele>
        <time>2026-05-25T11:05:46.000Z</time>
      </trkpt>
      <trkpt lat="44.64232" lon="5.20108">
        <ele>1616</ele>
        <time>2026-05-25T11:05:47.000Z</time>
      </trkpt>
      <trkpt lat="44.64233" lon="5.20108">
        <ele>1616</ele>
        <time>2026-05-25T11:05:48.000Z</time>
      </trkpt>
      <trkpt lat="44.64233" lon="5.20108">
        <ele>1617</ele>
        <time>2026-05-25T11:05:49.000Z</time>
      </trkpt>
      <trkpt lat="44.64233" lon="5.20108">
        <ele>1617</ele>
        <time>2026-05-25T11:05:50.000Z</time>
      </trkpt>
      <trkpt lat="44.64233" lon="5.20108">
        <ele>1617</ele>
        <time>2026-05-25T11:05:51.000Z</time>
      </trkpt>
      <trkpt lat="44.64233" lon="5.20108">
        <ele>1617</ele>
        <time>2026-05-25T11:05:52.000Z</time>
      </trkpt>
      <trkpt lat="44.64233" lon="5.20108">
        <ele>1617</ele>
        <time>2026-05-25T11:05:53.000Z</time>
      </trkpt>
      <trkpt lat="44.64233" lon="5.20108">
        <ele>1617</ele>
        <time>2026-05-25T11:05:54.000Z</time>
      </trkpt>
      <trkpt lat="44.64233" lon="5.20108">
        <ele>1617</ele>
        <time>2026-05-25T11:05:55.000Z</time>
      </trkpt>
      <trkpt lat="44.64233" lon="5.20108">
        <ele>1617</ele>
        <time>2026-05-25T11:05:56.000Z</time>
      </trkpt>
      <trkpt lat="44.64233" lon="5.20108">
        <ele>1617</ele>
        <time>2026-05-25T11:05:57.000Z</time>
      </trkpt>
      <trkpt lat="44.64233" lon="5.20108">
        <ele>1617</ele>
        <time>2026-05-25T11:05:58.000Z</time>
      </trkpt>
      <trkpt lat="44.64233" lon="5.20108">
        <ele>1617</ele>
        <time>2026-05-25T11:05:59.000Z</time>
      </trkpt>
      <trkpt lat="44.64233" lon="5.20108">
        <ele>1617</ele>
        <time>2026-05-25T11:06:00.000Z</time>
      </trkpt>
      <trkpt lat="44.64233" lon="5.20108">
        <ele>1617</ele>
        <time>2026-05-25T11:06:01.000Z</time>
      </trkpt>
      <trkpt lat="44.64233" lon="5.20108">
        <ele>1617</ele>
        <time>2026-05-25T11:06:02.000Z</time>
      </trkpt>
      <trkpt lat="44.64233" lon="5.20108">
        <ele>1617</ele>
        <time>2026-05-25T11:06:03.000Z</time>
      </trkpt>
      <trkpt lat="44.64233" lon="5.20108">
        <ele>1617</ele>
        <time>2026-05-25T11:06:04.000Z</time>
      </trkpt>
      <trkpt lat="44.64233" lon="5.20108">
        <ele>1617</ele>
        <time>2026-05-25T11:06:05.000Z</time>
      </trkpt>
      <trkpt lat="44.64233" lon="5.20108">
        <ele>1617</ele>
        <time>2026-05-25T11:06:06.000Z</time>
      </trkpt>
      <trkpt lat="44.64233" lon="5.20108">
        <ele>1617</ele>
        <time>2026-05-25T11:06:07.000Z</time>
      </trkpt>
      <trkpt lat="44.64233" lon="5.20108">
        <ele>1617</ele>
        <time>2026-05-25T11:06:08.000Z</time>
      </trkpt>
      <trkpt lat="44.64233" lon="5.20108">
        <ele>1617</ele>
        <time>2026-05-25T11:06:09.000Z</time>
      </trkpt>
      <trkpt lat="44.64233" lon="5.20108">
        <ele>1617</ele>
        <time>2026-05-25T11:06:10.000Z</time>
      </trkpt>
      <trkpt lat="44.64233" lon="5.20108">
        <ele>1617</ele>
        <time>2026-05-25T11:06:11.000Z</time>
      </trkpt>
      <trkpt lat="44.64233" lon="5.20108">
        <ele>1617</ele>
        <time>2026-05-25T11:06:12.000Z</time>
      </trkpt>
      <trkpt lat="44.64233" lon="5.20108">
        <ele>1617</ele>
        <time>2026-05-25T11:06:13.000Z</time>
      </trkpt>
      <trkpt lat="44.64233" lon="5.20108">
        <ele>1617</ele>
        <time>2026-05-25T11:06:14.000Z</time>
      </trkpt>
      <trkpt lat="44.64233" lon="5.20108">
        <ele>1617</ele>
        <time>2026-05-25T11:06:15.000Z</time>
      </trkpt>
      <trkpt lat="44.64233" lon="5.20108">
        <ele>1617</ele>
        <time>2026-05-25T11:06:16.000Z</time>
      </trkpt>
      <trkpt lat="44.64233" lon="5.20108">
        <ele>1617</ele>
        <time>2026-05-25T11:06:17.000Z</time>
      </trkpt>
      <trkpt lat="44.64233" lon="5.20108">
        <ele>1617</ele>
        <time>2026-05-25T11:06:18.000Z</time>
      </trkpt>
      <trkpt lat="44.64233" lon="5.20108">
        <ele>1617</ele>
        <time>2026-05-25T11:06:19.000Z</time>
      </trkpt>
      <trkpt lat="44.64233" lon="5.20108">
        <ele>1617</ele>
        <time>2026-05-25T11:06:20.000Z</time>
      </trkpt>
      <trkpt lat="44.64234" lon="5.20108">
        <ele>1616</ele>
        <time>2026-05-25T11:06:21.000Z</time>
      </trkpt>
      <trkpt lat="44.64234" lon="5.20108">
        <ele>1616</ele>
        <time>2026-05-25T11:06:22.000Z</time>
      </trkpt>
      <trkpt lat="44.64235" lon="5.20108">
        <ele>1616</ele>
        <time>2026-05-25T11:06:23.000Z</time>
      </trkpt>
      <trkpt lat="44.64236" lon="5.20107">
        <ele>1615</ele>
        <time>2026-05-25T11:06:24.000Z</time>
      </trkpt>
      <trkpt lat="44.64236" lon="5.20107">
        <ele>1615</ele>
        <time>2026-05-25T11:06:25.000Z</time>
      </trkpt>
      <trkpt lat="44.64236" lon="5.20107">
        <ele>1615</ele>
        <time>2026-05-25T11:06:26.000Z</time>
      </trkpt>
      <trkpt lat="44.64236" lon="5.20107">
        <ele>1615</ele>
        <time>2026-05-25T11:06:27.000Z</time>
      </trkpt>
      <trkpt lat="44.64236" lon="5.20107">
        <ele>1615</ele>
        <time>2026-05-25T11:06:28.000Z</time>
      </trkpt>
      <trkpt lat="44.64236" lon="5.20107">
        <ele>1615</ele>
        <time>2026-05-25T11:06:29.000Z</time>
      </trkpt>
      <trkpt lat="44.64236" lon="5.20107">
        <ele>1615</ele>
        <time>2026-05-25T11:06:30.000Z</time>
      </trkpt>
      <trkpt lat="44.64236" lon="5.20107">
        <ele>1616</ele>
        <time>2026-05-25T11:06:31.000Z</time>
      </trkpt>
      <trkpt lat="44.64237" lon="5.20106">
        <ele>1616</ele>
        <time>2026-05-25T11:06:32.000Z</time>
      </trkpt>
      <trkpt lat="44.64237" lon="5.20106">
        <ele>1617</ele>
        <time>2026-05-25T11:06:33.000Z</time>
      </trkpt>
      <trkpt lat="44.64237" lon="5.20106">
        <ele>1617</ele>
        <time>2026-05-25T11:06:34.000Z</time>
      </trkpt>
      <trkpt lat="44.64237" lon="5.20106">
        <ele>1617</ele>
        <time>2026-05-25T11:06:35.000Z</time>
      </trkpt>
      <trkpt lat="44.64237" lon="5.20106">
        <ele>1617</ele>
        <time>2026-05-25T11:06:36.000Z</time>
      </trkpt>
      <trkpt lat="44.64237" lon="5.20106">
        <ele>1617</ele>
        <time>2026-05-25T11:06:37.000Z</time>
      </trkpt>
      <trkpt lat="44.64237" lon="5.20106">
        <ele>1617</ele>
        <time>2026-05-25T11:06:38.000Z</time>
      </trkpt>
      <trkpt lat="44.64237" lon="5.20106">
        <ele>1617</ele>
        <time>2026-05-25T11:06:39.000Z</time>
      </trkpt>
      <trkpt lat="44.64237" lon="5.20106">
        <ele>1617</ele>
        <time>2026-05-25T11:06:40.000Z</time>
      </trkpt>
      <trkpt lat="44.64237" lon="5.20106">
        <ele>1617</ele>
        <time>2026-05-25T11:06:41.000Z</time>
      </trkpt>
      <trkpt lat="44.64236" lon="5.20106">
        <ele>1616</ele>
        <time>2026-05-25T11:06:42.000Z</time>
      </trkpt>
      <trkpt lat="44.64236" lon="5.20107">
        <ele>1616</ele>
        <time>2026-05-25T11:06:43.000Z</time>
      </trkpt>
      <trkpt lat="44.64237" lon="5.20107">
        <ele>1615</ele>
        <time>2026-05-25T11:06:44.000Z</time>
      </trkpt>
      <trkpt lat="44.64237" lon="5.20107">
        <ele>1615</ele>
        <time>2026-05-25T11:06:45.000Z</time>
      </trkpt>
      <trkpt lat="44.64237" lon="5.20108">
        <ele>1615</ele>
        <time>2026-05-25T11:06:46.000Z</time>
      </trkpt>
      <trkpt lat="44.64237" lon="5.20108">
        <ele>1615</ele>
        <time>2026-05-25T11:06:47.000Z</time>
      </trkpt>
      <trkpt lat="44.64237" lon="5.20108">
        <ele>1615</ele>
        <time>2026-05-25T11:06:48.000Z</time>
      </trkpt>
      <trkpt lat="44.64237" lon="5.20108">
        <ele>1615</ele>
        <time>2026-05-25T11:06:49.000Z</time>
      </trkpt>
      <trkpt lat="44.64237" lon="5.20108">
        <ele>1615</ele>
        <time>2026-05-25T11:06:50.000Z</time>
      </trkpt>
      <trkpt lat="44.64237" lon="5.20108">
        <ele>1615</ele>
        <time>2026-05-25T11:06:51.000Z</time>
      </trkpt>
      <trkpt lat="44.64237" lon="5.20108">
        <ele>1615</ele>
        <time>2026-05-25T11:06:52.000Z</time>
      </trkpt>
      <trkpt lat="44.64237" lon="5.20108">
        <ele>1615</ele>
        <time>2026-05-25T11:06:53.000Z</time>
      </trkpt>
      <trkpt lat="44.64237" lon="5.20108">
        <ele>1615</ele>
        <time>2026-05-25T11:06:54.000Z</time>
      </trkpt>
      <trkpt lat="44.64237" lon="5.20108">
        <ele>1615</ele>
        <time>2026-05-25T11:06:55.000Z</time>
      </trkpt>
      <trkpt lat="44.64236" lon="5.20108">
        <ele>1617</ele>
        <time>2026-05-25T11:06:56.000Z</time>
      </trkpt>
      <trkpt lat="44.64235" lon="5.20108">
        <ele>1617</ele>
        <time>2026-05-25T11:06:57.000Z</time>
      </trkpt>
      <trkpt lat="44.64234" lon="5.20107">
        <ele>1617</ele>
        <time>2026-05-25T11:06:58.000Z</time>
      </trkpt>
      <trkpt lat="44.64233" lon="5.20107">
        <ele>1616</ele>
        <time>2026-05-25T11:06:59.000Z</time>
      </trkpt>
      <trkpt lat="44.64233" lon="5.20106">
        <ele>1616</ele>
        <time>2026-05-25T11:07:00.000Z</time>
      </trkpt>
      <trkpt lat="44.64234" lon="5.20107">
        <ele>1616</ele>
        <time>2026-05-25T11:07:01.000Z</time>
      </trkpt>
      <trkpt lat="44.64234" lon="5.20105">
        <ele>1616</ele>
        <time>2026-05-25T11:07:02.000Z</time>
      </trkpt>
      <trkpt lat="44.64234" lon="5.20105">
        <ele>1616</ele>
        <time>2026-05-25T11:07:03.000Z</time>
      </trkpt>
      <trkpt lat="44.64234" lon="5.20104">
        <ele>1616</ele>
        <time>2026-05-25T11:07:04.000Z</time>
      </trkpt>
      <trkpt lat="44.64233" lon="5.20104">
        <ele>1616</ele>
        <time>2026-05-25T11:07:05.000Z</time>
      </trkpt>
      <trkpt lat="44.64233" lon="5.20105">
        <ele>1615</ele>
        <time>2026-05-25T11:07:06.000Z</time>
      </trkpt>
      <trkpt lat="44.64233" lon="5.20106">
        <ele>1615</ele>
        <time>2026-05-25T11:07:07.000Z</time>
      </trkpt>
      <trkpt lat="44.64233" lon="5.20106">
        <ele>1615</ele>
        <time>2026-05-25T11:07:08.000Z</time>
      </trkpt>
      <trkpt lat="44.64233" lon="5.20106">
        <ele>1615</ele>
        <time>2026-05-25T11:07:09.000Z</time>
      </trkpt>
      <trkpt lat="44.64233" lon="5.20106">
        <ele>1615</ele>
        <time>2026-05-25T11:07:10.000Z</time>
      </trkpt>
      <trkpt lat="44.64233" lon="5.20106">
        <ele>1615</ele>
        <time>2026-05-25T11:07:11.000Z</time>
      </trkpt>
      <trkpt lat="44.64233" lon="5.20106">
        <ele>1615</ele>
        <time>2026-05-25T11:07:12.000Z</time>
      </trkpt>
      <trkpt lat="44.64233" lon="5.20106">
        <ele>1615</ele>
        <time>2026-05-25T11:07:13.000Z</time>
      </trkpt>
      <trkpt lat="44.64233" lon="5.20106">
        <ele>1615</ele>
        <time>2026-05-25T11:07:14.000Z</time>
      </trkpt>
      <trkpt lat="44.64233" lon="5.20106">
        <ele>1615</ele>
        <time>2026-05-25T11:07:15.000Z</time>
      </trkpt>
      <trkpt lat="44.64233" lon="5.20106">
        <ele>1615</ele>
        <time>2026-05-25T11:07:16.000Z</time>
      </trkpt>
      <trkpt lat="44.64233" lon="5.20106">
        <ele>1615</ele>
        <time>2026-05-25T11:07:17.000Z</time>
      </trkpt>
      <trkpt lat="44.64233" lon="5.20106">
        <ele>1615</ele>
        <time>2026-05-25T11:07:18.000Z</time>
      </trkpt>
      <trkpt lat="44.64233" lon="5.20106">
        <ele>1615</ele>
        <time>2026-05-25T11:07:19.000Z</time>
      </trkpt>
      <trkpt lat="44.64233" lon="5.20106">
        <ele>1615</ele>
        <time>2026-05-25T11:07:20.000Z</time>
      </trkpt>
      <trkpt lat="44.64233" lon="5.20106">
        <ele>1615</ele>
        <time>2026-05-25T11:07:21.000Z</time>
      </trkpt>
      <trkpt lat="44.64233" lon="5.20106">
        <ele>1615</ele>
        <time>2026-05-25T11:07:22.000Z</time>
      </trkpt>
      <trkpt lat="44.64233" lon="5.20106">
        <ele>1615</ele>
        <time>2026-05-25T11:07:23.000Z</time>
      </trkpt>
      <trkpt lat="44.64233" lon="5.20106">
        <ele>1615</ele>
        <time>2026-05-25T11:07:24.000Z</time>
      </trkpt>
      <trkpt lat="44.64233" lon="5.20106">
        <ele>1615</ele>
        <time>2026-05-25T11:07:25.000Z</time>
      </trkpt>
      <trkpt lat="44.64232" lon="5.20106">
        <ele>1616</ele>
        <time>2026-05-25T11:07:26.000Z</time>
      </trkpt>
      <trkpt lat="44.64233" lon="5.20107">
        <ele>1616</ele>
        <time>2026-05-25T11:07:27.000Z</time>
      </trkpt>
      <trkpt lat="44.64234" lon="5.20108">
        <ele>1615</ele>
        <time>2026-05-25T11:07:28.000Z</time>
      </trkpt>
      <trkpt lat="44.64234" lon="5.20107">
        <ele>1615</ele>
        <time>2026-05-25T11:07:29.000Z</time>
      </trkpt>
      <trkpt lat="44.64234" lon="5.20107">
        <ele>1616</ele>
        <time>2026-05-25T11:07:30.000Z</time>
      </trkpt>
      <trkpt lat="44.64234" lon="5.20106">
        <ele>1617</ele>
        <time>2026-05-25T11:07:31.000Z</time>
      </trkpt>
      <trkpt lat="44.64234" lon="5.20106">
        <ele>1617</ele>
        <time>2026-05-25T11:07:32.000Z</time>
      </trkpt>
      <trkpt lat="44.64234" lon="5.20106">
        <ele>1617</ele>
        <time>2026-05-25T11:07:33.000Z</time>
      </trkpt>
      <trkpt lat="44.64234" lon="5.20106">
        <ele>1617</ele>
        <time>2026-05-25T11:07:34.000Z</time>
      </trkpt>
      <trkpt lat="44.64234" lon="5.20105">
        <ele>1618</ele>
        <time>2026-05-25T11:07:35.000Z</time>
      </trkpt>
      <trkpt lat="44.64233" lon="5.20105">
        <ele>1617</ele>
        <time>2026-05-25T11:07:36.000Z</time>
      </trkpt>
      <trkpt lat="44.64233" lon="5.20105">
        <ele>1617</ele>
        <time>2026-05-25T11:07:37.000Z</time>
      </trkpt>
      <trkpt lat="44.64233" lon="5.20105">
        <ele>1617</ele>
        <time>2026-05-25T11:07:38.000Z</time>
      </trkpt>
      <trkpt lat="44.64233" lon="5.20105">
        <ele>1617</ele>
        <time>2026-05-25T11:07:39.000Z</time>
      </trkpt>
      <trkpt lat="44.64233" lon="5.20105">
        <ele>1617</ele>
        <time>2026-05-25T11:07:40.000Z</time>
      </trkpt>
      <trkpt lat="44.64233" lon="5.20105">
        <ele>1617</ele>
        <time>2026-05-25T11:07:41.000Z</time>
      </trkpt>
      <trkpt lat="44.64233" lon="5.20106">
        <ele>1617</ele>
        <time>2026-05-25T11:07:42.000Z</time>
      </trkpt>
      <trkpt lat="44.64233" lon="5.20107">
        <ele>1617</ele>
        <time>2026-05-25T11:07:43.000Z</time>
      </trkpt>
      <trkpt lat="44.64233" lon="5.20107">
        <ele>1617</ele>
        <time>2026-05-25T11:07:44.000Z</time>
      </trkpt>
      <trkpt lat="44.64233" lon="5.20106">
        <ele>1616</ele>
        <time>2026-05-25T11:07:45.000Z</time>
      </trkpt>
      <trkpt lat="44.64234" lon="5.20107">
        <ele>1616</ele>
        <time>2026-05-25T11:07:46.000Z</time>
      </trkpt>
      <trkpt lat="44.64234" lon="5.20107">
        <ele>1616</ele>
        <time>2026-05-25T11:07:47.000Z</time>
      </trkpt>
      <trkpt lat="44.64234" lon="5.20107">
        <ele>1616</ele>
        <time>2026-05-25T11:07:48.000Z</time>
      </trkpt>
      <trkpt lat="44.64234" lon="5.20107">
        <ele>1616</ele>
        <time>2026-05-25T11:07:49.000Z</time>
      </trkpt>
      <trkpt lat="44.64234" lon="5.20107">
        <ele>1616</ele>
        <time>2026-05-25T11:07:50.000Z</time>
      </trkpt>
      <trkpt lat="44.64234" lon="5.20107">
        <ele>1616</ele>
        <time>2026-05-25T11:07:51.000Z</time>
      </trkpt>
      <trkpt lat="44.64234" lon="5.20107">
        <ele>1616</ele>
        <time>2026-05-25T11:07:52.000Z</time>
      </trkpt>
      <trkpt lat="44.64234" lon="5.20107">
        <ele>1616</ele>
        <time>2026-05-25T11:07:53.000Z</time>
      </trkpt>
      <trkpt lat="44.64235" lon="5.20106">
        <ele>1616</ele>
        <time>2026-05-25T11:07:54.000Z</time>
      </trkpt>
      <trkpt lat="44.64235" lon="5.20105">
        <ele>1617</ele>
        <time>2026-05-25T11:07:55.000Z</time>
      </trkpt>
      <trkpt lat="44.64235" lon="5.20104">
        <ele>1617</ele>
        <time>2026-05-25T11:07:56.000Z</time>
      </trkpt>
      <trkpt lat="44.64234" lon="5.20104">
        <ele>1617</ele>
        <time>2026-05-25T11:07:57.000Z</time>
      </trkpt>
      <trkpt lat="44.64234" lon="5.20104">
        <ele>1617</ele>
        <time>2026-05-25T11:07:58.000Z</time>
      </trkpt>
      <trkpt lat="44.64234" lon="5.20104">
        <ele>1617</ele>
        <time>2026-05-25T11:07:59.000Z</time>
      </trkpt>
      <trkpt lat="44.64234" lon="5.20105">
        <ele>1617</ele>
        <time>2026-05-25T11:08:00.000Z</time>
      </trkpt>
      <trkpt lat="44.64234" lon="5.20105">
        <ele>1616</ele>
        <time>2026-05-25T11:08:01.000Z</time>
      </trkpt>
      <trkpt lat="44.64235" lon="5.20106">
        <ele>1616</ele>
        <time>2026-05-25T11:08:02.000Z</time>
      </trkpt>
      <trkpt lat="44.64235" lon="5.20107">
        <ele>1616</ele>
        <time>2026-05-25T11:08:03.000Z</time>
      </trkpt>
      <trkpt lat="44.64235" lon="5.20107">
        <ele>1616</ele>
        <time>2026-05-25T11:08:04.000Z</time>
      </trkpt>
      <trkpt lat="44.64235" lon="5.20107">
        <ele>1616</ele>
        <time>2026-05-25T11:08:05.000Z</time>
      </trkpt>
      <trkpt lat="44.64235" lon="5.20107">
        <ele>1616</ele>
        <time>2026-05-25T11:08:06.000Z</time>
      </trkpt>
      <trkpt lat="44.64235" lon="5.20107">
        <ele>1616</ele>
        <time>2026-05-25T11:08:07.000Z</time>
      </trkpt>
      <trkpt lat="44.64235" lon="5.20107">
        <ele>1616</ele>
        <time>2026-05-25T11:08:08.000Z</time>
      </trkpt>
      <trkpt lat="44.64235" lon="5.20107">
        <ele>1616</ele>
        <time>2026-05-25T11:08:09.000Z</time>
      </trkpt>
      <trkpt lat="44.64235" lon="5.20107">
        <ele>1616</ele>
        <time>2026-05-25T11:08:10.000Z</time>
      </trkpt>
      <trkpt lat="44.64235" lon="5.20107">
        <ele>1616</ele>
        <time>2026-05-25T11:08:11.000Z</time>
      </trkpt>
      <trkpt lat="44.64235" lon="5.20107">
        <ele>1616</ele>
        <time>2026-05-25T11:08:12.000Z</time>
      </trkpt>
      <trkpt lat="44.64235" lon="5.20107">
        <ele>1616</ele>
        <time>2026-05-25T11:08:13.000Z</time>
      </trkpt>
      <trkpt lat="44.64235" lon="5.20107">
        <ele>1616</ele>
        <time>2026-05-25T11:08:14.000Z</time>
      </trkpt>
      <trkpt lat="44.64235" lon="5.20107">
        <ele>1616</ele>
        <time>2026-05-25T11:08:15.000Z</time>
      </trkpt>
      <trkpt lat="44.64235" lon="5.20107">
        <ele>1616</ele>
        <time>2026-05-25T11:08:16.000Z</time>
      </trkpt>
      <trkpt lat="44.64236" lon="5.20107">
        <ele>1616</ele>
        <time>2026-05-25T11:08:17.000Z</time>
      </trkpt>
      <trkpt lat="44.64236" lon="5.20107">
        <ele>1617</ele>
        <time>2026-05-25T11:08:18.000Z</time>
      </trkpt>
      <trkpt lat="44.64236" lon="5.20107">
        <ele>1617</ele>
        <time>2026-05-25T11:08:19.000Z</time>
      </trkpt>
      <trkpt lat="44.64236" lon="5.20108">
        <ele>1617</ele>
        <time>2026-05-25T11:08:20.000Z</time>
      </trkpt>
      <trkpt lat="44.64236" lon="5.20108">
        <ele>1617</ele>
        <time>2026-05-25T11:08:21.000Z</time>
      </trkpt>
      <trkpt lat="44.64236" lon="5.20108">
        <ele>1617</ele>
        <time>2026-05-25T11:08:22.000Z</time>
      </trkpt>
      <trkpt lat="44.64236" lon="5.20108">
        <ele>1617</ele>
        <time>2026-05-25T11:08:23.000Z</time>
      </trkpt>
      <trkpt lat="44.64236" lon="5.20108">
        <ele>1617</ele>
        <time>2026-05-25T11:08:24.000Z</time>
      </trkpt>
      <trkpt lat="44.64236" lon="5.20108">
        <ele>1617</ele>
        <time>2026-05-25T11:08:25.000Z</time>
      </trkpt>
      <trkpt lat="44.64236" lon="5.20108">
        <ele>1617</ele>
        <time>2026-05-25T11:08:26.000Z</time>
      </trkpt>
      <trkpt lat="44.64236" lon="5.20108">
        <ele>1617</ele>
        <time>2026-05-25T11:08:27.000Z</time>
      </trkpt>
      <trkpt lat="44.64236" lon="5.20108">
        <ele>1617</ele>
        <time>2026-05-25T11:08:28.000Z</time>
      </trkpt>
      <trkpt lat="44.64236" lon="5.20108">
        <ele>1617</ele>
        <time>2026-05-25T11:08:29.000Z</time>
      </trkpt>
      <trkpt lat="44.64236" lon="5.20108">
        <ele>1617</ele>
        <time>2026-05-25T11:08:30.000Z</time>
      </trkpt>
      <trkpt lat="44.64236" lon="5.20108">
        <ele>1617</ele>
        <time>2026-05-25T11:08:31.000Z</time>
      </trkpt>
      <trkpt lat="44.64235" lon="5.20107">
        <ele>1617</ele>
        <time>2026-05-25T11:08:32.000Z</time>
      </trkpt>
      <trkpt lat="44.64234" lon="5.20107">
        <ele>1617</ele>
        <time>2026-05-25T11:08:33.000Z</time>
      </trkpt>
      <trkpt lat="44.64234" lon="5.20107">
        <ele>1617</ele>
        <time>2026-05-25T11:08:34.000Z</time>
      </trkpt>
      <trkpt lat="44.64233" lon="5.20107">
        <ele>1618</ele>
        <time>2026-05-25T11:08:35.000Z</time>
      </trkpt>
      <trkpt lat="44.64233" lon="5.20107">
        <ele>1617</ele>
        <time>2026-05-25T11:08:36.000Z</time>
      </trkpt>
      <trkpt lat="44.64233" lon="5.20107">
        <ele>1617</ele>
        <time>2026-05-25T11:08:37.000Z</time>
      </trkpt>
      <trkpt lat="44.64233" lon="5.20107">
        <ele>1617</ele>
        <time>2026-05-25T11:08:38.000Z</time>
      </trkpt>
      <trkpt lat="44.64233" lon="5.20107">
        <ele>1617</ele>
        <time>2026-05-25T11:08:39.000Z</time>
      </trkpt>
      <trkpt lat="44.64233" lon="5.20107">
        <ele>1616</ele>
        <time>2026-05-25T11:08:40.000Z</time>
      </trkpt>
      <trkpt lat="44.64234" lon="5.20106">
        <ele>1616</ele>
        <time>2026-05-25T11:08:41.000Z</time>
      </trkpt>
      <trkpt lat="44.64234" lon="5.20105">
        <ele>1616</ele>
        <time>2026-05-25T11:08:42.000Z</time>
      </trkpt>
      <trkpt lat="44.64234" lon="5.20104">
        <ele>1616</ele>
        <time>2026-05-25T11:08:43.000Z</time>
      </trkpt>
      <trkpt lat="44.64234" lon="5.20104">
        <ele>1616</ele>
        <time>2026-05-25T11:08:44.000Z</time>
      </trkpt>
      <trkpt lat="44.64234" lon="5.20104">
        <ele>1616</ele>
        <time>2026-05-25T11:08:45.000Z</time>
      </trkpt>
      <trkpt lat="44.64234" lon="5.20104">
        <ele>1616</ele>
        <time>2026-05-25T11:08:46.000Z</time>
      </trkpt>
      <trkpt lat="44.64234" lon="5.20104">
        <ele>1616</ele>
        <time>2026-05-25T11:08:47.000Z</time>
      </trkpt>
      <trkpt lat="44.64234" lon="5.20104">
        <ele>1616</ele>
        <time>2026-05-25T11:08:48.000Z</time>
      </trkpt>
      <trkpt lat="44.64234" lon="5.20104">
        <ele>1616</ele>
        <time>2026-05-25T11:08:49.000Z</time>
      </trkpt>
      <trkpt lat="44.64234" lon="5.20104">
        <ele>1616</ele>
        <time>2026-05-25T11:08:50.000Z</time>
      </trkpt>
      <trkpt lat="44.64234" lon="5.20104">
        <ele>1616</ele>
        <time>2026-05-25T11:08:51.000Z</time>
      </trkpt>
      <trkpt lat="44.64234" lon="5.20104">
        <ele>1616</ele>
        <time>2026-05-25T11:08:52.000Z</time>
      </trkpt>
      <trkpt lat="44.64234" lon="5.20104">
        <ele>1616</ele>
        <time>2026-05-25T11:08:53.000Z</time>
      </trkpt>
      <trkpt lat="44.64234" lon="5.20104">
        <ele>1616</ele>
        <time>2026-05-25T11:08:54.000Z</time>
      </trkpt>
      <trkpt lat="44.64234" lon="5.20104">
        <ele>1616</ele>
        <time>2026-05-25T11:08:55.000Z</time>
      </trkpt>
      <trkpt lat="44.64234" lon="5.20104">
        <ele>1616</ele>
        <time>2026-05-25T11:08:56.000Z</time>
      </trkpt>
      <trkpt lat="44.64234" lon="5.20104">
        <ele>1616</ele>
        <time>2026-05-25T11:08:57.000Z</time>
      </trkpt>
      <trkpt lat="44.64234" lon="5.20104">
        <ele>1616</ele>
        <time>2026-05-25T11:08:58.000Z</time>
      </trkpt>
      <trkpt lat="44.64234" lon="5.20104">
        <ele>1616</ele>
        <time>2026-05-25T11:08:59.000Z</time>
      </trkpt>
      <trkpt lat="44.64234" lon="5.20104">
        <ele>1616</ele>
        <time>2026-05-25T11:09:00.000Z</time>
      </trkpt>
      <trkpt lat="44.64234" lon="5.20104">
        <ele>1616</ele>
        <time>2026-05-25T11:09:01.000Z</time>
      </trkpt>
      <trkpt lat="44.64234" lon="5.20104">
        <ele>1616</ele>
        <time>2026-05-25T11:09:02.000Z</time>
      </trkpt>
      <trkpt lat="44.64234" lon="5.20104">
        <ele>1616</ele>
        <time>2026-05-25T11:09:03.000Z</time>
      </trkpt>
      <trkpt lat="44.64234" lon="5.20104">
        <ele>1616</ele>
        <time>2026-05-25T11:09:04.000Z</time>
      </trkpt>
      <trkpt lat="44.64234" lon="5.20104">
        <ele>1616</ele>
        <time>2026-05-25T11:09:05.000Z</time>
      </trkpt>
      <trkpt lat="44.64234" lon="5.20104">
        <ele>1616</ele>
        <time>2026-05-25T11:09:06.000Z</time>
      </trkpt>
      <trkpt lat="44.64234" lon="5.20104">
        <ele>1616</ele>
        <time>2026-05-25T11:09:07.000Z</time>
      </trkpt>
      <trkpt lat="44.64234" lon="5.20104">
        <ele>1616</ele>
        <time>2026-05-25T11:09:08.000Z</time>
      </trkpt>
      <trkpt lat="44.64234" lon="5.20104">
        <ele>1616</ele>
        <time>2026-05-25T11:09:09.000Z</time>
      </trkpt>
      <trkpt lat="44.64234" lon="5.20104">
        <ele>1616</ele>
        <time>2026-05-25T11:09:10.000Z</time>
      </trkpt>
      <trkpt lat="44.64234" lon="5.20104">
        <ele>1616</ele>
        <time>2026-05-25T11:09:11.000Z</time>
      </trkpt>
      <trkpt lat="44.64234" lon="5.20104">
        <ele>1616</ele>
        <time>2026-05-25T11:09:12.000Z</time>
      </trkpt>
      <trkpt lat="44.64234" lon="5.20104">
        <ele>1616</ele>
        <time>2026-05-25T11:09:13.000Z</time>
      </trkpt>
      <trkpt lat="44.64234" lon="5.20104">
        <ele>1616</ele>
        <time>2026-05-25T11:09:14.000Z</time>
      </trkpt>
      <trkpt lat="44.64234" lon="5.20104">
        <ele>1616</ele>
        <time>2026-05-25T11:09:15.000Z</time>
      </trkpt>
      <trkpt lat="44.64234" lon="5.20104">
        <ele>1616</ele>
        <time>2026-05-25T11:09:16.000Z</time>
      </trkpt>
      <trkpt lat="44.64234" lon="5.20104">
        <ele>1616</ele>
        <time>2026-05-25T11:09:17.000Z</time>
      </trkpt>
      <trkpt lat="44.64234" lon="5.20102">
        <ele>1616</ele>
        <time>2026-05-25T11:09:18.000Z</time>
      </trkpt>
      <trkpt lat="44.64234" lon="5.20101">
        <ele>1616</ele>
        <time>2026-05-25T11:09:19.000Z</time>
      </trkpt>
      <trkpt lat="44.64234" lon="5.201">
        <ele>1616</ele>
        <time>2026-05-25T11:09:20.000Z</time>
      </trkpt>
      <trkpt lat="44.64234" lon="5.20099">
        <ele>1615</ele>
        <time>2026-05-25T11:09:21.000Z</time>
      </trkpt>
      <trkpt lat="44.64234" lon="5.20099">
        <ele>1615</ele>
        <time>2026-05-25T11:09:22.000Z</time>
      </trkpt>
      <trkpt lat="44.64234" lon="5.20099">
        <ele>1615</ele>
        <time>2026-05-25T11:09:23.000Z</time>
      </trkpt>
      <trkpt lat="44.64234" lon="5.20099">
        <ele>1615</ele>
        <time>2026-05-25T11:09:24.000Z</time>
      </trkpt>
      <trkpt lat="44.64234" lon="5.20099">
        <ele>1615</ele>
        <time>2026-05-25T11:09:25.000Z</time>
      </trkpt>
      <trkpt lat="44.64234" lon="5.20099">
        <ele>1615</ele>
        <time>2026-05-25T11:09:26.000Z</time>
      </trkpt>
      <trkpt lat="44.64234" lon="5.20099">
        <ele>1615</ele>
        <time>2026-05-25T11:09:27.000Z</time>
      </trkpt>
      <trkpt lat="44.64234" lon="5.20099">
        <ele>1615</ele>
        <time>2026-05-25T11:09:28.000Z</time>
      </trkpt>
      <trkpt lat="44.64234" lon="5.20099">
        <ele>1614</ele>
        <time>2026-05-25T11:09:29.000Z</time>
      </trkpt>
      <trkpt lat="44.64234" lon="5.201">
        <ele>1614</ele>
        <time>2026-05-25T11:09:30.000Z</time>
      </trkpt>
      <trkpt lat="44.64234" lon="5.20099">
        <ele>1614</ele>
        <time>2026-05-25T11:09:31.000Z</time>
      </trkpt>
      <trkpt lat="44.64234" lon="5.20099">
        <ele>1614</ele>
        <time>2026-05-25T11:09:32.000Z</time>
      </trkpt>
      <trkpt lat="44.64234" lon="5.20099">
        <ele>1614</ele>
        <time>2026-05-25T11:09:33.000Z</time>
      </trkpt>
      <trkpt lat="44.64234" lon="5.20099">
        <ele>1614</ele>
        <time>2026-05-25T11:09:34.000Z</time>
      </trkpt>
      <trkpt lat="44.64234" lon="5.20099">
        <ele>1614</ele>
        <time>2026-05-25T11:09:35.000Z</time>
      </trkpt>
      <trkpt lat="44.64234" lon="5.20099">
        <ele>1614</ele>
        <time>2026-05-25T11:09:36.000Z</time>
      </trkpt>
      <trkpt lat="44.64234" lon="5.20099">
        <ele>1614</ele>
        <time>2026-05-25T11:09:37.000Z</time>
      </trkpt>
      <trkpt lat="44.64234" lon="5.20099">
        <ele>1614</ele>
        <time>2026-05-25T11:09:38.000Z</time>
      </trkpt>
      <trkpt lat="44.64234" lon="5.20099">
        <ele>1614</ele>
        <time>2026-05-25T11:09:39.000Z</time>
      </trkpt>
      <trkpt lat="44.64234" lon="5.20099">
        <ele>1614</ele>
        <time>2026-05-25T11:09:40.000Z</time>
      </trkpt>
      <trkpt lat="44.64234" lon="5.20099">
        <ele>1614</ele>
        <time>2026-05-25T11:09:41.000Z</time>
      </trkpt>
      <trkpt lat="44.64234" lon="5.20099">
        <ele>1614</ele>
        <time>2026-05-25T11:09:42.000Z</time>
      </trkpt>
      <trkpt lat="44.64234" lon="5.20099">
        <ele>1614</ele>
        <time>2026-05-25T11:09:43.000Z</time>
      </trkpt>
      <trkpt lat="44.64234" lon="5.20099">
        <ele>1614</ele>
        <time>2026-05-25T11:09:44.000Z</time>
      </trkpt>
      <trkpt lat="44.64234" lon="5.20099">
        <ele>1614</ele>
        <time>2026-05-25T11:09:45.000Z</time>
      </trkpt>
      <trkpt lat="44.64234" lon="5.20099">
        <ele>1614</ele>
        <time>2026-05-25T11:09:46.000Z</time>
      </trkpt>
      <trkpt lat="44.64234" lon="5.20099">
        <ele>1614</ele>
        <time>2026-05-25T11:09:47.000Z</time>
      </trkpt>
      <trkpt lat="44.64234" lon="5.20099">
        <ele>1614</ele>
        <time>2026-05-25T11:09:48.000Z</time>
      </trkpt>
      <trkpt lat="44.64234" lon="5.20099">
        <ele>1614</ele>
        <time>2026-05-25T11:09:49.000Z</time>
      </trkpt>
      <trkpt lat="44.64234" lon="5.20099">
        <ele>1614</ele>
        <time>2026-05-25T11:09:50.000Z</time>
      </trkpt>
      <trkpt lat="44.64234" lon="5.20099">
        <ele>1614</ele>
        <time>2026-05-25T11:09:51.000Z</time>
      </trkpt>
      <trkpt lat="44.64234" lon="5.20099">
        <ele>1614</ele>
        <time>2026-05-25T11:09:52.000Z</time>
      </trkpt>
      <trkpt lat="44.64234" lon="5.20099">
        <ele>1614</ele>
        <time>2026-05-25T11:09:53.000Z</time>
      </trkpt>
      <trkpt lat="44.64234" lon="5.20099">
        <ele>1614</ele>
        <time>2026-05-25T11:09:54.000Z</time>
      </trkpt>
      <trkpt lat="44.64234" lon="5.20099">
        <ele>1614</ele>
        <time>2026-05-25T11:09:55.000Z</time>
      </trkpt>
      <trkpt lat="44.64234" lon="5.20098">
        <ele>1614</ele>
        <time>2026-05-25T11:09:56.000Z</time>
      </trkpt>
      <trkpt lat="44.64233" lon="5.20098">
        <ele>1615</ele>
        <time>2026-05-25T11:09:57.000Z</time>
      </trkpt>
      <trkpt lat="44.64232" lon="5.20098">
        <ele>1615</ele>
        <time>2026-05-25T11:09:58.000Z</time>
      </trkpt>
      <trkpt lat="44.64231" lon="5.20098">
        <ele>1616</ele>
        <time>2026-05-25T11:09:59.000Z</time>
      </trkpt>
      <trkpt lat="44.64231" lon="5.20098">
        <ele>1616</ele>
        <time>2026-05-25T11:10:00.000Z</time>
      </trkpt>
      <trkpt lat="44.64231" lon="5.20098">
        <ele>1616</ele>
        <time>2026-05-25T11:10:01.000Z</time>
      </trkpt>
      <trkpt lat="44.64231" lon="5.20098">
        <ele>1616</ele>
        <time>2026-05-25T11:10:02.000Z</time>
      </trkpt>
      <trkpt lat="44.64231" lon="5.20098">
        <ele>1616</ele>
        <time>2026-05-25T11:10:03.000Z</time>
      </trkpt>
      <trkpt lat="44.64231" lon="5.20098">
        <ele>1616</ele>
        <time>2026-05-25T11:10:04.000Z</time>
      </trkpt>
      <trkpt lat="44.64231" lon="5.20098">
        <ele>1616</ele>
        <time>2026-05-25T11:10:05.000Z</time>
      </trkpt>
      <trkpt lat="44.64231" lon="5.20098">
        <ele>1616</ele>
        <time>2026-05-25T11:10:06.000Z</time>
      </trkpt>
      <trkpt lat="44.64231" lon="5.20099">
        <ele>1616</ele>
        <time>2026-05-25T11:10:07.000Z</time>
      </trkpt>
      <trkpt lat="44.64231" lon="5.20099">
        <ele>1616</ele>
        <time>2026-05-25T11:10:08.000Z</time>
      </trkpt>
      <trkpt lat="44.64231" lon="5.201">
        <ele>1616</ele>
        <time>2026-05-25T11:10:09.000Z</time>
      </trkpt>
      <trkpt lat="44.64231" lon="5.201">
        <ele>1617</ele>
        <time>2026-05-25T11:10:10.000Z</time>
      </trkpt>
      <trkpt lat="44.64231" lon="5.201">
        <ele>1617</ele>
        <time>2026-05-25T11:10:11.000Z</time>
      </trkpt>
      <trkpt lat="44.64231" lon="5.201">
        <ele>1617</ele>
        <time>2026-05-25T11:10:12.000Z</time>
      </trkpt>
      <trkpt lat="44.64231" lon="5.201">
        <ele>1617</ele>
        <time>2026-05-25T11:10:13.000Z</time>
      </trkpt>
      <trkpt lat="44.64231" lon="5.201">
        <ele>1617</ele>
        <time>2026-05-25T11:10:14.000Z</time>
      </trkpt>
      <trkpt lat="44.64231" lon="5.201">
        <ele>1617</ele>
        <time>2026-05-25T11:10:15.000Z</time>
      </trkpt>
      <trkpt lat="44.64231" lon="5.201">
        <ele>1617</ele>
        <time>2026-05-25T11:10:16.000Z</time>
      </trkpt>
      <trkpt lat="44.64231" lon="5.201">
        <ele>1617</ele>
        <time>2026-05-25T11:10:17.000Z</time>
      </trkpt>
      <trkpt lat="44.64231" lon="5.201">
        <ele>1617</ele>
        <time>2026-05-25T11:10:18.000Z</time>
      </trkpt>
      <trkpt lat="44.64231" lon="5.201">
        <ele>1617</ele>
        <time>2026-05-25T11:10:19.000Z</time>
      </trkpt>
      <trkpt lat="44.64231" lon="5.201">
        <ele>1617</ele>
        <time>2026-05-25T11:10:20.000Z</time>
      </trkpt>
      <trkpt lat="44.64231" lon="5.201">
        <ele>1617</ele>
        <time>2026-05-25T11:10:21.000Z</time>
      </trkpt>
      <trkpt lat="44.64231" lon="5.201">
        <ele>1617</ele>
        <time>2026-05-25T11:10:22.000Z</time>
      </trkpt>
      <trkpt lat="44.64231" lon="5.201">
        <ele>1617</ele>
        <time>2026-05-25T11:10:23.000Z</time>
      </trkpt>
      <trkpt lat="44.64231" lon="5.201">
        <ele>1617</ele>
        <time>2026-05-25T11:10:24.000Z</time>
      </trkpt>
      <trkpt lat="44.64231" lon="5.201">
        <ele>1617</ele>
        <time>2026-05-25T11:10:25.000Z</time>
      </trkpt>
      <trkpt lat="44.64231" lon="5.201">
        <ele>1617</ele>
        <time>2026-05-25T11:10:26.000Z</time>
      </trkpt>
      <trkpt lat="44.64231" lon="5.201">
        <ele>1617</ele>
        <time>2026-05-25T11:10:27.000Z</time>
      </trkpt>
      <trkpt lat="44.64231" lon="5.201">
        <ele>1617</ele>
        <time>2026-05-25T11:10:28.000Z</time>
      </trkpt>
      <trkpt lat="44.64231" lon="5.201">
        <ele>1617</ele>
        <time>2026-05-25T11:10:29.000Z</time>
      </trkpt>
      <trkpt lat="44.64231" lon="5.201">
        <ele>1617</ele>
        <time>2026-05-25T11:10:30.000Z</time>
      </trkpt>
      <trkpt lat="44.64231" lon="5.201">
        <ele>1617</ele>
        <time>2026-05-25T11:10:31.000Z</time>
      </trkpt>
      <trkpt lat="44.64231" lon="5.201">
        <ele>1617</ele>
        <time>2026-05-25T11:10:32.000Z</time>
      </trkpt>
      <trkpt lat="44.64231" lon="5.201">
        <ele>1617</ele>
        <time>2026-05-25T11:10:33.000Z</time>
      </trkpt>
      <trkpt lat="44.64231" lon="5.201">
        <ele>1617</ele>
        <time>2026-05-25T11:10:34.000Z</time>
      </trkpt>
      <trkpt lat="44.64231" lon="5.201">
        <ele>1617</ele>
        <time>2026-05-25T11:10:35.000Z</time>
      </trkpt>
      <trkpt lat="44.64231" lon="5.201">
        <ele>1617</ele>
        <time>2026-05-25T11:10:36.000Z</time>
      </trkpt>
      <trkpt lat="44.64231" lon="5.201">
        <ele>1617</ele>
        <time>2026-05-25T11:10:37.000Z</time>
      </trkpt>
      <trkpt lat="44.64231" lon="5.201">
        <ele>1617</ele>
        <time>2026-05-25T11:10:38.000Z</time>
      </trkpt>
      <trkpt lat="44.64231" lon="5.201">
        <ele>1617</ele>
        <time>2026-05-25T11:10:39.000Z</time>
      </trkpt>
      <trkpt lat="44.64231" lon="5.201">
        <ele>1617</ele>
        <time>2026-05-25T11:10:40.000Z</time>
      </trkpt>
      <trkpt lat="44.64231" lon="5.201">
        <ele>1617</ele>
        <time>2026-05-25T11:10:41.000Z</time>
      </trkpt>
      <trkpt lat="44.64232" lon="5.20102">
        <ele>1617</ele>
        <time>2026-05-25T11:10:42.000Z</time>
      </trkpt>
      <trkpt lat="44.64233" lon="5.20103">
        <ele>1617</ele>
        <time>2026-05-25T11:10:43.000Z</time>
      </trkpt>
      <trkpt lat="44.64234" lon="5.20104">
        <ele>1617</ele>
        <time>2026-05-25T11:10:44.000Z</time>
      </trkpt>
      <trkpt lat="44.64234" lon="5.20104">
        <ele>1617</ele>
        <time>2026-05-25T11:10:45.000Z</time>
      </trkpt>
      <trkpt lat="44.64235" lon="5.20105">
        <ele>1617</ele>
        <time>2026-05-25T11:10:46.000Z</time>
      </trkpt>
      <trkpt lat="44.64235" lon="5.20105">
        <ele>1617</ele>
        <time>2026-05-25T11:10:47.000Z</time>
      </trkpt>
      <trkpt lat="44.64235" lon="5.20105">
        <ele>1617</ele>
        <time>2026-05-25T11:10:48.000Z</time>
      </trkpt>
      <trkpt lat="44.64235" lon="5.20105">
        <ele>1617</ele>
        <time>2026-05-25T11:10:49.000Z</time>
      </trkpt>
      <trkpt lat="44.64235" lon="5.20105">
        <ele>1617</ele>
        <time>2026-05-25T11:10:50.000Z</time>
      </trkpt>
      <trkpt lat="44.64235" lon="5.20105">
        <ele>1617</ele>
        <time>2026-05-25T11:10:51.000Z</time>
      </trkpt>
      <trkpt lat="44.64235" lon="5.20105">
        <ele>1617</ele>
        <time>2026-05-25T11:10:52.000Z</time>
      </trkpt>
      <trkpt lat="44.64235" lon="5.20105">
        <ele>1617</ele>
        <time>2026-05-25T11:10:53.000Z</time>
      </trkpt>
      <trkpt lat="44.64235" lon="5.20105">
        <ele>1617</ele>
        <time>2026-05-25T11:10:54.000Z</time>
      </trkpt>
      <trkpt lat="44.64235" lon="5.20105">
        <ele>1617</ele>
        <time>2026-05-25T11:10:55.000Z</time>
      </trkpt>
      <trkpt lat="44.64235" lon="5.20105">
        <ele>1617</ele>
        <time>2026-05-25T11:10:56.000Z</time>
      </trkpt>
      <trkpt lat="44.64235" lon="5.20105">
        <ele>1617</ele>
        <time>2026-05-25T11:10:57.000Z</time>
      </trkpt>
      <trkpt lat="44.64235" lon="5.20105">
        <ele>1617</ele>
        <time>2026-05-25T11:10:58.000Z</time>
      </trkpt>
      <trkpt lat="44.64235" lon="5.20105">
        <ele>1617</ele>
        <time>2026-05-25T11:10:59.000Z</time>
      </trkpt>
      <trkpt lat="44.64235" lon="5.20105">
        <ele>1617</ele>
        <time>2026-05-25T11:11:00.000Z</time>
      </trkpt>
      <trkpt lat="44.64235" lon="5.20105">
        <ele>1617</ele>
        <time>2026-05-25T11:11:01.000Z</time>
      </trkpt>
      <trkpt lat="44.64235" lon="5.20105">
        <ele>1617</ele>
        <time>2026-05-25T11:11:02.000Z</time>
      </trkpt>
      <trkpt lat="44.64235" lon="5.20105">
        <ele>1617</ele>
        <time>2026-05-25T11:11:03.000Z</time>
      </trkpt>
      <trkpt lat="44.64235" lon="5.20105">
        <ele>1617</ele>
        <time>2026-05-25T11:11:04.000Z</time>
      </trkpt>
      <trkpt lat="44.64235" lon="5.20105">
        <ele>1617</ele>
        <time>2026-05-25T11:11:05.000Z</time>
      </trkpt>
      <trkpt lat="44.64235" lon="5.20105">
        <ele>1617</ele>
        <time>2026-05-25T11:11:06.000Z</time>
      </trkpt>
      <trkpt lat="44.64235" lon="5.20105">
        <ele>1617</ele>
        <time>2026-05-25T11:11:07.000Z</time>
      </trkpt>
      <trkpt lat="44.64235" lon="5.20105">
        <ele>1617</ele>
        <time>2026-05-25T11:11:08.000Z</time>
      </trkpt>
      <trkpt lat="44.64235" lon="5.20105">
        <ele>1617</ele>
        <time>2026-05-25T11:11:09.000Z</time>
      </trkpt>
      <trkpt lat="44.64235" lon="5.20105">
        <ele>1617</ele>
        <time>2026-05-25T11:11:10.000Z</time>
      </trkpt>
      <trkpt lat="44.64235" lon="5.20105">
        <ele>1617</ele>
        <time>2026-05-25T11:11:11.000Z</time>
      </trkpt>
      <trkpt lat="44.64235" lon="5.20105">
        <ele>1617</ele>
        <time>2026-05-25T11:11:12.000Z</time>
      </trkpt>
      <trkpt lat="44.64235" lon="5.20105">
        <ele>1617</ele>
        <time>2026-05-25T11:11:13.000Z</time>
      </trkpt>
      <trkpt lat="44.64235" lon="5.20105">
        <ele>1617</ele>
        <time>2026-05-25T11:11:14.000Z</time>
      </trkpt>
      <trkpt lat="44.64235" lon="5.20105">
        <ele>1617</ele>
        <time>2026-05-25T11:11:15.000Z</time>
      </trkpt>
      <trkpt lat="44.64235" lon="5.20105">
        <ele>1616</ele>
        <time>2026-05-25T11:11:16.000Z</time>
      </trkpt>
      <trkpt lat="44.64235" lon="5.20105">
        <ele>1616</ele>
        <time>2026-05-25T11:11:17.000Z</time>
      </trkpt>
      <trkpt lat="44.64235" lon="5.20103">
        <ele>1616</ele>
        <time>2026-05-25T11:11:18.000Z</time>
      </trkpt>
      <trkpt lat="44.64235" lon="5.20102">
        <ele>1615</ele>
        <time>2026-05-25T11:11:19.000Z</time>
      </trkpt>
      <trkpt lat="44.64235" lon="5.20101">
        <ele>1615</ele>
        <time>2026-05-25T11:11:20.000Z</time>
      </trkpt>
      <trkpt lat="44.64235" lon="5.20101">
        <ele>1615</ele>
        <time>2026-05-25T11:11:21.000Z</time>
      </trkpt>
      <trkpt lat="44.64235" lon="5.20101">
        <ele>1615</ele>
        <time>2026-05-25T11:11:22.000Z</time>
      </trkpt>
      <trkpt lat="44.64235" lon="5.20101">
        <ele>1615</ele>
        <time>2026-05-25T11:11:23.000Z</time>
      </trkpt>
      <trkpt lat="44.64235" lon="5.20101">
        <ele>1615</ele>
        <time>2026-05-25T11:11:24.000Z</time>
      </trkpt>
      <trkpt lat="44.64235" lon="5.20098">
        <ele>1615</ele>
        <time>2026-05-25T11:11:25.000Z</time>
      </trkpt>
      <trkpt lat="44.64236" lon="5.20096">
        <ele>1614</ele>
        <time>2026-05-25T11:11:26.000Z</time>
      </trkpt>
      <trkpt lat="44.64236" lon="5.20094">
        <ele>1613</ele>
        <time>2026-05-25T11:11:27.000Z</time>
      </trkpt>
      <trkpt lat="44.64236" lon="5.20092">
        <ele>1613</ele>
        <time>2026-05-25T11:11:28.000Z</time>
      </trkpt>
      <trkpt lat="44.64237" lon="5.20091">
        <ele>1613</ele>
        <time>2026-05-25T11:11:29.000Z</time>
      </trkpt>
      <trkpt lat="44.64238" lon="5.2009">
        <ele>1613</ele>
        <time>2026-05-25T11:11:30.000Z</time>
      </trkpt>
      <trkpt lat="44.64238" lon="5.20089">
        <ele>1613</ele>
        <time>2026-05-25T11:11:31.000Z</time>
      </trkpt>
      <trkpt lat="44.64239" lon="5.20088">
        <ele>1612</ele>
        <time>2026-05-25T11:11:32.000Z</time>
      </trkpt>
      <trkpt lat="44.64241" lon="5.20088">
        <ele>1612</ele>
        <time>2026-05-25T11:11:33.000Z</time>
      </trkpt>
      <trkpt lat="44.64242" lon="5.20087">
        <ele>1612</ele>
        <time>2026-05-25T11:11:34.000Z</time>
      </trkpt>
      <trkpt lat="44.64243" lon="5.20087">
        <ele>1612</ele>
        <time>2026-05-25T11:11:35.000Z</time>
      </trkpt>
      <trkpt lat="44.64244" lon="5.20087">
        <ele>1612</ele>
        <time>2026-05-25T11:11:36.000Z</time>
      </trkpt>
      <trkpt lat="44.64244" lon="5.20086">
        <ele>1612</ele>
        <time>2026-05-25T11:11:37.000Z</time>
      </trkpt>
      <trkpt lat="44.64245" lon="5.20085">
        <ele>1611</ele>
        <time>2026-05-25T11:11:38.000Z</time>
      </trkpt>
      <trkpt lat="44.64245" lon="5.20083">
        <ele>1611</ele>
        <time>2026-05-25T11:11:39.000Z</time>
      </trkpt>
      <trkpt lat="44.64246" lon="5.20082">
        <ele>1611</ele>
        <time>2026-05-25T11:11:40.000Z</time>
      </trkpt>
      <trkpt lat="44.64246" lon="5.20081">
        <ele>1611</ele>
        <time>2026-05-25T11:11:41.000Z</time>
      </trkpt>
      <trkpt lat="44.64246" lon="5.20079">
        <ele>1610</ele>
        <time>2026-05-25T11:11:42.000Z</time>
      </trkpt>
      <trkpt lat="44.64246" lon="5.20079">
        <ele>1610</ele>
        <time>2026-05-25T11:11:43.000Z</time>
      </trkpt>
      <trkpt lat="44.64247" lon="5.20078">
        <ele>1609</ele>
        <time>2026-05-25T11:11:44.000Z</time>
      </trkpt>
      <trkpt lat="44.64247" lon="5.20076">
        <ele>1609</ele>
        <time>2026-05-25T11:11:45.000Z</time>
      </trkpt>
      <trkpt lat="44.64246" lon="5.20075">
        <ele>1608</ele>
        <time>2026-05-25T11:11:46.000Z</time>
      </trkpt>
      <trkpt lat="44.64246" lon="5.20074">
        <ele>1609</ele>
        <time>2026-05-25T11:11:47.000Z</time>
      </trkpt>
      <trkpt lat="44.64246" lon="5.20073">
        <ele>1608</ele>
        <time>2026-05-25T11:11:48.000Z</time>
      </trkpt>
      <trkpt lat="44.64246" lon="5.20072">
        <ele>1607</ele>
        <time>2026-05-25T11:11:49.000Z</time>
      </trkpt>
      <trkpt lat="44.64246" lon="5.20071">
        <ele>1607</ele>
        <time>2026-05-25T11:11:50.000Z</time>
      </trkpt>
      <trkpt lat="44.64246" lon="5.2007">
        <ele>1607</ele>
        <time>2026-05-25T11:11:51.000Z</time>
      </trkpt>
      <trkpt lat="44.64247" lon="5.20069">
        <ele>1607</ele>
        <time>2026-05-25T11:11:52.000Z</time>
      </trkpt>
      <trkpt lat="44.64247" lon="5.20068">
        <ele>1606</ele>
        <time>2026-05-25T11:11:53.000Z</time>
      </trkpt>
      <trkpt lat="44.64247" lon="5.20067">
        <ele>1606</ele>
        <time>2026-05-25T11:11:54.000Z</time>
      </trkpt>
      <trkpt lat="44.64247" lon="5.20065">
        <ele>1606</ele>
        <time>2026-05-25T11:11:55.000Z</time>
      </trkpt>
      <trkpt lat="44.64247" lon="5.20063">
        <ele>1606</ele>
        <time>2026-05-25T11:11:56.000Z</time>
      </trkpt>
      <trkpt lat="44.64247" lon="5.20061">
        <ele>1606</ele>
        <time>2026-05-25T11:11:57.000Z</time>
      </trkpt>
      <trkpt lat="44.64247" lon="5.2006">
        <ele>1605</ele>
        <time>2026-05-25T11:11:58.000Z</time>
      </trkpt>
      <trkpt lat="44.64247" lon="5.20058">
        <ele>1605</ele>
        <time>2026-05-25T11:11:59.000Z</time>
      </trkpt>
      <trkpt lat="44.64247" lon="5.20057">
        <ele>1605</ele>
        <time>2026-05-25T11:12:00.000Z</time>
      </trkpt>
      <trkpt lat="44.64247" lon="5.20056">
        <ele>1605</ele>
        <time>2026-05-25T11:12:01.000Z</time>
      </trkpt>
      <trkpt lat="44.64247" lon="5.20054">
        <ele>1605</ele>
        <time>2026-05-25T11:12:02.000Z</time>
      </trkpt>
      <trkpt lat="44.64247" lon="5.20054">
        <ele>1604</ele>
        <time>2026-05-25T11:12:03.000Z</time>
      </trkpt>
      <trkpt lat="44.64247" lon="5.20054">
        <ele>1604</ele>
        <time>2026-05-25T11:12:04.000Z</time>
      </trkpt>
      <trkpt lat="44.64247" lon="5.20054">
        <ele>1604</ele>
        <time>2026-05-25T11:12:05.000Z</time>
      </trkpt>
      <trkpt lat="44.64247" lon="5.20054">
        <ele>1604</ele>
        <time>2026-05-25T11:12:06.000Z</time>
      </trkpt>
      <trkpt lat="44.64247" lon="5.20054">
        <ele>1604</ele>
        <time>2026-05-25T11:12:07.000Z</time>
      </trkpt>
      <trkpt lat="44.64247" lon="5.20054">
        <ele>1604</ele>
        <time>2026-05-25T11:12:08.000Z</time>
      </trkpt>
      <trkpt lat="44.64247" lon="5.20054">
        <ele>1604</ele>
        <time>2026-05-25T11:12:09.000Z</time>
      </trkpt>
      <trkpt lat="44.64247" lon="5.20054">
        <ele>1604</ele>
        <time>2026-05-25T11:12:10.000Z</time>
      </trkpt>
      <trkpt lat="44.64247" lon="5.20054">
        <ele>1604</ele>
        <time>2026-05-25T11:12:11.000Z</time>
      </trkpt>
      <trkpt lat="44.64247" lon="5.20054">
        <ele>1604</ele>
        <time>2026-05-25T11:12:12.000Z</time>
      </trkpt>
      <trkpt lat="44.64247" lon="5.20054">
        <ele>1604</ele>
        <time>2026-05-25T11:12:13.000Z</time>
      </trkpt>
      <trkpt lat="44.64247" lon="5.20054">
        <ele>1604</ele>
        <time>2026-05-25T11:12:14.000Z</time>
      </trkpt>
      <trkpt lat="44.64247" lon="5.20054">
        <ele>1604</ele>
        <time>2026-05-25T11:12:15.000Z</time>
      </trkpt>
      <trkpt lat="44.64247" lon="5.20054">
        <ele>1604</ele>
        <time>2026-05-25T11:12:16.000Z</time>
      </trkpt>
      <trkpt lat="44.64247" lon="5.20054">
        <ele>1604</ele>
        <time>2026-05-25T11:12:17.000Z</time>
      </trkpt>
      <trkpt lat="44.64247" lon="5.20054">
        <ele>1604</ele>
        <time>2026-05-25T11:12:18.000Z</time>
      </trkpt>
      <trkpt lat="44.64247" lon="5.20054">
        <ele>1604</ele>
        <time>2026-05-25T11:12:19.000Z</time>
      </trkpt>
      <trkpt lat="44.64246" lon="5.20054">
        <ele>1603</ele>
        <time>2026-05-25T11:12:20.000Z</time>
      </trkpt>
      <trkpt lat="44.64245" lon="5.20053">
        <ele>1603</ele>
        <time>2026-05-25T11:12:21.000Z</time>
      </trkpt>
      <trkpt lat="44.64244" lon="5.20052">
        <ele>1603</ele>
        <time>2026-05-25T11:12:22.000Z</time>
      </trkpt>
      <trkpt lat="44.64244" lon="5.2005">
        <ele>1603</ele>
        <time>2026-05-25T11:12:23.000Z</time>
      </trkpt>
      <trkpt lat="44.64244" lon="5.20048">
        <ele>1603</ele>
        <time>2026-05-25T11:12:24.000Z</time>
      </trkpt>
      <trkpt lat="44.64243" lon="5.20046">
        <ele>1603</ele>
        <time>2026-05-25T11:12:25.000Z</time>
      </trkpt>
      <trkpt lat="44.64242" lon="5.20045">
        <ele>1603</ele>
        <time>2026-05-25T11:12:26.000Z</time>
      </trkpt>
      <trkpt lat="44.64242" lon="5.20044">
        <ele>1603</ele>
        <time>2026-05-25T11:12:27.000Z</time>
      </trkpt>
      <trkpt lat="44.64241" lon="5.20043">
        <ele>1602</ele>
        <time>2026-05-25T11:12:28.000Z</time>
      </trkpt>
      <trkpt lat="44.64241" lon="5.20042">
        <ele>1601</ele>
        <time>2026-05-25T11:12:29.000Z</time>
      </trkpt>
      <trkpt lat="44.64241" lon="5.2004">
        <ele>1601</ele>
        <time>2026-05-25T11:12:30.000Z</time>
      </trkpt>
      <trkpt lat="44.64241" lon="5.20039">
        <ele>1600</ele>
        <time>2026-05-25T11:12:31.000Z</time>
      </trkpt>
      <trkpt lat="44.64241" lon="5.20037">
        <ele>1600</ele>
        <time>2026-05-25T11:12:32.000Z</time>
      </trkpt>
      <trkpt lat="44.64241" lon="5.20035">
        <ele>1600</ele>
        <time>2026-05-25T11:12:33.000Z</time>
      </trkpt>
      <trkpt lat="44.6424" lon="5.20033">
        <ele>1600</ele>
        <time>2026-05-25T11:12:34.000Z</time>
      </trkpt>
      <trkpt lat="44.6424" lon="5.20032">
        <ele>1599</ele>
        <time>2026-05-25T11:12:35.000Z</time>
      </trkpt>
      <trkpt lat="44.6424" lon="5.2003">
        <ele>1599</ele>
        <time>2026-05-25T11:12:36.000Z</time>
      </trkpt>
      <trkpt lat="44.6424" lon="5.20028">
        <ele>1599</ele>
        <time>2026-05-25T11:12:37.000Z</time>
      </trkpt>
      <trkpt lat="44.64239" lon="5.20027">
        <ele>1598</ele>
        <time>2026-05-25T11:12:38.000Z</time>
      </trkpt>
      <trkpt lat="44.64239" lon="5.20025">
        <ele>1598</ele>
        <time>2026-05-25T11:12:39.000Z</time>
      </trkpt>
      <trkpt lat="44.64239" lon="5.20024">
        <ele>1598</ele>
        <time>2026-05-25T11:12:40.000Z</time>
      </trkpt>
      <trkpt lat="44.64238" lon="5.20022">
        <ele>1598</ele>
        <time>2026-05-25T11:12:41.000Z</time>
      </trkpt>
      <trkpt lat="44.64237" lon="5.2002">
        <ele>1597</ele>
        <time>2026-05-25T11:12:42.000Z</time>
      </trkpt>
      <trkpt lat="44.64237" lon="5.20019">
        <ele>1597</ele>
        <time>2026-05-25T11:12:43.000Z</time>
      </trkpt>
      <trkpt lat="44.64237" lon="5.20018">
        <ele>1596</ele>
        <time>2026-05-25T11:12:44.000Z</time>
      </trkpt>
      <trkpt lat="44.64237" lon="5.20016">
        <ele>1596</ele>
        <time>2026-05-25T11:12:45.000Z</time>
      </trkpt>
      <trkpt lat="44.64237" lon="5.20014">
        <ele>1596</ele>
        <time>2026-05-25T11:12:46.000Z</time>
      </trkpt>
      <trkpt lat="44.64238" lon="5.20012">
        <ele>1595</ele>
        <time>2026-05-25T11:12:47.000Z</time>
      </trkpt>
      <trkpt lat="44.64237" lon="5.20011">
        <ele>1595</ele>
        <time>2026-05-25T11:12:48.000Z</time>
      </trkpt>
      <trkpt lat="44.64237" lon="5.20009">
        <ele>1595</ele>
        <time>2026-05-25T11:12:49.000Z</time>
      </trkpt>
      <trkpt lat="44.64237" lon="5.20007">
        <ele>1595</ele>
        <time>2026-05-25T11:12:50.000Z</time>
      </trkpt>
      <trkpt lat="44.64236" lon="5.20005">
        <ele>1595</ele>
        <time>2026-05-25T11:12:51.000Z</time>
      </trkpt>
      <trkpt lat="44.64236" lon="5.20003">
        <ele>1595</ele>
        <time>2026-05-25T11:12:52.000Z</time>
      </trkpt>
      <trkpt lat="44.64236" lon="5.20002">
        <ele>1595</ele>
        <time>2026-05-25T11:12:53.000Z</time>
      </trkpt>
      <trkpt lat="44.64235" lon="5.2">
        <ele>1595</ele>
        <time>2026-05-25T11:12:54.000Z</time>
      </trkpt>
      <trkpt lat="44.64235" lon="5.19999">
        <ele>1594</ele>
        <time>2026-05-25T11:12:55.000Z</time>
      </trkpt>
      <trkpt lat="44.64235" lon="5.19997">
        <ele>1594</ele>
        <time>2026-05-25T11:12:56.000Z</time>
      </trkpt>
      <trkpt lat="44.64235" lon="5.19996">
        <ele>1593</ele>
        <time>2026-05-25T11:12:57.000Z</time>
      </trkpt>
      <trkpt lat="44.64234" lon="5.19994">
        <ele>1593</ele>
        <time>2026-05-25T11:12:58.000Z</time>
      </trkpt>
      <trkpt lat="44.64234" lon="5.19992">
        <ele>1593</ele>
        <time>2026-05-25T11:12:59.000Z</time>
      </trkpt>
      <trkpt lat="44.64233" lon="5.1999">
        <ele>1592</ele>
        <time>2026-05-25T11:13:00.000Z</time>
      </trkpt>
      <trkpt lat="44.64233" lon="5.19989">
        <ele>1592</ele>
        <time>2026-05-25T11:13:01.000Z</time>
      </trkpt>
      <trkpt lat="44.64233" lon="5.19987">
        <ele>1591</ele>
        <time>2026-05-25T11:13:02.000Z</time>
      </trkpt>
      <trkpt lat="44.64233" lon="5.19984">
        <ele>1591</ele>
        <time>2026-05-25T11:13:03.000Z</time>
      </trkpt>
      <trkpt lat="44.64232" lon="5.19983">
        <ele>1590</ele>
        <time>2026-05-25T11:13:04.000Z</time>
      </trkpt>
      <trkpt lat="44.64232" lon="5.19982">
        <ele>1590</ele>
        <time>2026-05-25T11:13:05.000Z</time>
      </trkpt>
      <trkpt lat="44.64233" lon="5.19982">
        <ele>1590</ele>
        <time>2026-05-25T11:13:06.000Z</time>
      </trkpt>
      <trkpt lat="44.64233" lon="5.1998">
        <ele>1590</ele>
        <time>2026-05-25T11:13:07.000Z</time>
      </trkpt>
      <trkpt lat="44.64233" lon="5.19979">
        <ele>1590</ele>
        <time>2026-05-25T11:13:08.000Z</time>
      </trkpt>
      <trkpt lat="44.64233" lon="5.19978">
        <ele>1590</ele>
        <time>2026-05-25T11:13:09.000Z</time>
      </trkpt>
      <trkpt lat="44.64233" lon="5.19978">
        <ele>1590</ele>
        <time>2026-05-25T11:13:10.000Z</time>
      </trkpt>
      <trkpt lat="44.64234" lon="5.19977">
        <ele>1590</ele>
        <time>2026-05-25T11:13:11.000Z</time>
      </trkpt>
      <trkpt lat="44.64235" lon="5.19977">
        <ele>1590</ele>
        <time>2026-05-25T11:13:12.000Z</time>
      </trkpt>
      <trkpt lat="44.64236" lon="5.19978">
        <ele>1589</ele>
        <time>2026-05-25T11:13:13.000Z</time>
      </trkpt>
      <trkpt lat="44.64237" lon="5.1998">
        <ele>1589</ele>
        <time>2026-05-25T11:13:14.000Z</time>
      </trkpt>
      <trkpt lat="44.64239" lon="5.19981">
        <ele>1589</ele>
        <time>2026-05-25T11:13:15.000Z</time>
      </trkpt>
      <trkpt lat="44.6424" lon="5.19982">
        <ele>1588</ele>
        <time>2026-05-25T11:13:16.000Z</time>
      </trkpt>
      <trkpt lat="44.64241" lon="5.19983">
        <ele>1588</ele>
        <time>2026-05-25T11:13:17.000Z</time>
      </trkpt>
      <trkpt lat="44.64243" lon="5.19983">
        <ele>1588</ele>
        <time>2026-05-25T11:13:18.000Z</time>
      </trkpt>
      <trkpt lat="44.64243" lon="5.19983">
        <ele>1588</ele>
        <time>2026-05-25T11:13:19.000Z</time>
      </trkpt>
      <trkpt lat="44.64244" lon="5.19983">
        <ele>1587</ele>
        <time>2026-05-25T11:13:20.000Z</time>
      </trkpt>
      <trkpt lat="44.64245" lon="5.19983">
        <ele>1587</ele>
        <time>2026-05-25T11:13:21.000Z</time>
      </trkpt>
      <trkpt lat="44.64246" lon="5.19984">
        <ele>1587</ele>
        <time>2026-05-25T11:13:22.000Z</time>
      </trkpt>
      <trkpt lat="44.64247" lon="5.19984">
        <ele>1587</ele>
        <time>2026-05-25T11:13:23.000Z</time>
      </trkpt>
      <trkpt lat="44.64248" lon="5.19984">
        <ele>1587</ele>
        <time>2026-05-25T11:13:24.000Z</time>
      </trkpt>
      <trkpt lat="44.6425" lon="5.19984">
        <ele>1586</ele>
        <time>2026-05-25T11:13:25.000Z</time>
      </trkpt>
      <trkpt lat="44.64251" lon="5.19984">
        <ele>1586</ele>
        <time>2026-05-25T11:13:26.000Z</time>
      </trkpt>
      <trkpt lat="44.64251" lon="5.19985">
        <ele>1586</ele>
        <time>2026-05-25T11:13:27.000Z</time>
      </trkpt>
      <trkpt lat="44.64252" lon="5.19986">
        <ele>1585</ele>
        <time>2026-05-25T11:13:28.000Z</time>
      </trkpt>
      <trkpt lat="44.64254" lon="5.19985">
        <ele>1585</ele>
        <time>2026-05-25T11:13:29.000Z</time>
      </trkpt>
      <trkpt lat="44.64255" lon="5.19985">
        <ele>1585</ele>
        <time>2026-05-25T11:13:30.000Z</time>
      </trkpt>
      <trkpt lat="44.64256" lon="5.19985">
        <ele>1585</ele>
        <time>2026-05-25T11:13:31.000Z</time>
      </trkpt>
      <trkpt lat="44.64257" lon="5.19985">
        <ele>1585</ele>
        <time>2026-05-25T11:13:32.000Z</time>
      </trkpt>
      <trkpt lat="44.64258" lon="5.19986">
        <ele>1585</ele>
        <time>2026-05-25T11:13:33.000Z</time>
      </trkpt>
      <trkpt lat="44.64259" lon="5.19986">
        <ele>1584</ele>
        <time>2026-05-25T11:13:34.000Z</time>
      </trkpt>
      <trkpt lat="44.6426" lon="5.19987">
        <ele>1584</ele>
        <time>2026-05-25T11:13:35.000Z</time>
      </trkpt>
      <trkpt lat="44.64261" lon="5.19988">
        <ele>1583</ele>
        <time>2026-05-25T11:13:36.000Z</time>
      </trkpt>
      <trkpt lat="44.64262" lon="5.19988">
        <ele>1584</ele>
        <time>2026-05-25T11:13:37.000Z</time>
      </trkpt>
      <trkpt lat="44.64262" lon="5.1999">
        <ele>1584</ele>
        <time>2026-05-25T11:13:38.000Z</time>
      </trkpt>
      <trkpt lat="44.64263" lon="5.19991">
        <ele>1584</ele>
        <time>2026-05-25T11:13:39.000Z</time>
      </trkpt>
      <trkpt lat="44.64264" lon="5.19992">
        <ele>1583</ele>
        <time>2026-05-25T11:13:40.000Z</time>
      </trkpt>
      <trkpt lat="44.64264" lon="5.19992">
        <ele>1582</ele>
        <time>2026-05-25T11:13:41.000Z</time>
      </trkpt>
      <trkpt lat="44.64264" lon="5.19993">
        <ele>1582</ele>
        <time>2026-05-25T11:13:42.000Z</time>
      </trkpt>
      <trkpt lat="44.64265" lon="5.19993">
        <ele>1582</ele>
        <time>2026-05-25T11:13:43.000Z</time>
      </trkpt>
      <trkpt lat="44.64266" lon="5.19994">
        <ele>1581</ele>
        <time>2026-05-25T11:13:44.000Z</time>
      </trkpt>
      <trkpt lat="44.64266" lon="5.19995">
        <ele>1581</ele>
        <time>2026-05-25T11:13:45.000Z</time>
      </trkpt>
      <trkpt lat="44.64267" lon="5.19995">
        <ele>1580</ele>
        <time>2026-05-25T11:13:46.000Z</time>
      </trkpt>
      <trkpt lat="44.64266" lon="5.19995">
        <ele>1581</ele>
        <time>2026-05-25T11:13:47.000Z</time>
      </trkpt>
      <trkpt lat="44.64266" lon="5.19995">
        <ele>1581</ele>
        <time>2026-05-25T11:13:48.000Z</time>
      </trkpt>
      <trkpt lat="44.64266" lon="5.19995">
        <ele>1581</ele>
        <time>2026-05-25T11:13:49.000Z</time>
      </trkpt>
      <trkpt lat="44.64266" lon="5.19996">
        <ele>1581</ele>
        <time>2026-05-25T11:13:50.000Z</time>
      </trkpt>
      <trkpt lat="44.64266" lon="5.19996">
        <ele>1581</ele>
        <time>2026-05-25T11:13:51.000Z</time>
      </trkpt>
      <trkpt lat="44.64266" lon="5.19996">
        <ele>1581</ele>
        <time>2026-05-25T11:13:52.000Z</time>
      </trkpt>
      <trkpt lat="44.64266" lon="5.19996">
        <ele>1581</ele>
        <time>2026-05-25T11:13:53.000Z</time>
      </trkpt>
      <trkpt lat="44.64266" lon="5.19996">
        <ele>1581</ele>
        <time>2026-05-25T11:13:54.000Z</time>
      </trkpt>
      <trkpt lat="44.64266" lon="5.19996">
        <ele>1581</ele>
        <time>2026-05-25T11:13:55.000Z</time>
      </trkpt>
      <trkpt lat="44.64266" lon="5.19996">
        <ele>1581</ele>
        <time>2026-05-25T11:13:56.000Z</time>
      </trkpt>
      <trkpt lat="44.64266" lon="5.19996">
        <ele>1581</ele>
        <time>2026-05-25T11:13:57.000Z</time>
      </trkpt>
      <trkpt lat="44.64266" lon="5.19996">
        <ele>1581</ele>
        <time>2026-05-25T11:13:58.000Z</time>
      </trkpt>
      <trkpt lat="44.64266" lon="5.19996">
        <ele>1581</ele>
        <time>2026-05-25T11:13:59.000Z</time>
      </trkpt>
      <trkpt lat="44.64266" lon="5.19996">
        <ele>1581</ele>
        <time>2026-05-25T11:14:00.000Z</time>
      </trkpt>
      <trkpt lat="44.64266" lon="5.19996">
        <ele>1581</ele>
        <time>2026-05-25T11:14:01.000Z</time>
      </trkpt>
      <trkpt lat="44.64267" lon="5.19995">
        <ele>1581</ele>
        <time>2026-05-25T11:14:02.000Z</time>
      </trkpt>
      <trkpt lat="44.64267" lon="5.19994">
        <ele>1581</ele>
        <time>2026-05-25T11:14:03.000Z</time>
      </trkpt>
      <trkpt lat="44.64268" lon="5.19993">
        <ele>1580</ele>
        <time>2026-05-25T11:14:04.000Z</time>
      </trkpt>
      <trkpt lat="44.64269" lon="5.19993">
        <ele>1579</ele>
        <time>2026-05-25T11:14:05.000Z</time>
      </trkpt>
      <trkpt lat="44.6427" lon="5.19993">
        <ele>1579</ele>
        <time>2026-05-25T11:14:06.000Z</time>
      </trkpt>
      <trkpt lat="44.64271" lon="5.19993">
        <ele>1579</ele>
        <time>2026-05-25T11:14:07.000Z</time>
      </trkpt>
      <trkpt lat="44.64272" lon="5.19993">
        <ele>1579</ele>
        <time>2026-05-25T11:14:08.000Z</time>
      </trkpt>
      <trkpt lat="44.64273" lon="5.19992">
        <ele>1579</ele>
        <time>2026-05-25T11:14:09.000Z</time>
      </trkpt>
      <trkpt lat="44.64273" lon="5.19991">
        <ele>1579</ele>
        <time>2026-05-25T11:14:10.000Z</time>
      </trkpt>
      <trkpt lat="44.64274" lon="5.1999">
        <ele>1579</ele>
        <time>2026-05-25T11:14:11.000Z</time>
      </trkpt>
      <trkpt lat="44.64274" lon="5.19989">
        <ele>1579</ele>
        <time>2026-05-25T11:14:12.000Z</time>
      </trkpt>
      <trkpt lat="44.64275" lon="5.19989">
        <ele>1579</ele>
        <time>2026-05-25T11:14:13.000Z</time>
      </trkpt>
      <trkpt lat="44.64277" lon="5.19988">
        <ele>1579</ele>
        <time>2026-05-25T11:14:14.000Z</time>
      </trkpt>
      <trkpt lat="44.64278" lon="5.19988">
        <ele>1579</ele>
        <time>2026-05-25T11:14:15.000Z</time>
      </trkpt>
      <trkpt lat="44.64279" lon="5.19988">
        <ele>1578</ele>
        <time>2026-05-25T11:14:16.000Z</time>
      </trkpt>
      <trkpt lat="44.6428" lon="5.19988">
        <ele>1578</ele>
        <time>2026-05-25T11:14:17.000Z</time>
      </trkpt>
      <trkpt lat="44.64281" lon="5.19988">
        <ele>1579</ele>
        <time>2026-05-25T11:14:18.000Z</time>
      </trkpt>
      <trkpt lat="44.64282" lon="5.19988">
        <ele>1579</ele>
        <time>2026-05-25T11:14:19.000Z</time>
      </trkpt>
      <trkpt lat="44.64282" lon="5.19987">
        <ele>1578</ele>
        <time>2026-05-25T11:14:20.000Z</time>
      </trkpt>
      <trkpt lat="44.64283" lon="5.19987">
        <ele>1578</ele>
        <time>2026-05-25T11:14:21.000Z</time>
      </trkpt>
      <trkpt lat="44.64284" lon="5.19986">
        <ele>1578</ele>
        <time>2026-05-25T11:14:22.000Z</time>
      </trkpt>
      <trkpt lat="44.64284" lon="5.19986">
        <ele>1578</ele>
        <time>2026-05-25T11:14:23.000Z</time>
      </trkpt>
      <trkpt lat="44.64285" lon="5.19986">
        <ele>1577</ele>
        <time>2026-05-25T11:14:24.000Z</time>
      </trkpt>
      <trkpt lat="44.64285" lon="5.19987">
        <ele>1577</ele>
        <time>2026-05-25T11:14:25.000Z</time>
      </trkpt>
      <trkpt lat="44.64286" lon="5.19988">
        <ele>1576</ele>
        <time>2026-05-25T11:14:26.000Z</time>
      </trkpt>
      <trkpt lat="44.64286" lon="5.19989">
        <ele>1576</ele>
        <time>2026-05-25T11:14:27.000Z</time>
      </trkpt>
      <trkpt lat="44.64286" lon="5.19991">
        <ele>1575</ele>
        <time>2026-05-25T11:14:28.000Z</time>
      </trkpt>
      <trkpt lat="44.64286" lon="5.19991">
        <ele>1575</ele>
        <time>2026-05-25T11:14:29.000Z</time>
      </trkpt>
      <trkpt lat="44.64287" lon="5.19992">
        <ele>1574</ele>
        <time>2026-05-25T11:14:30.000Z</time>
      </trkpt>
      <trkpt lat="44.64288" lon="5.19992">
        <ele>1574</ele>
        <time>2026-05-25T11:14:31.000Z</time>
      </trkpt>
      <trkpt lat="44.64289" lon="5.19992">
        <ele>1573</ele>
        <time>2026-05-25T11:14:32.000Z</time>
      </trkpt>
      <trkpt lat="44.64291" lon="5.19992">
        <ele>1573</ele>
        <time>2026-05-25T11:14:33.000Z</time>
      </trkpt>
      <trkpt lat="44.64292" lon="5.19992">
        <ele>1573</ele>
        <time>2026-05-25T11:14:34.000Z</time>
      </trkpt>
      <trkpt lat="44.64292" lon="5.19993">
        <ele>1572</ele>
        <time>2026-05-25T11:14:35.000Z</time>
      </trkpt>
      <trkpt lat="44.64293" lon="5.19994">
        <ele>1572</ele>
        <time>2026-05-25T11:14:36.000Z</time>
      </trkpt>
      <trkpt lat="44.64294" lon="5.19994">
        <ele>1572</ele>
        <time>2026-05-25T11:14:37.000Z</time>
      </trkpt>
      <trkpt lat="44.64295" lon="5.19994">
        <ele>1572</ele>
        <time>2026-05-25T11:14:38.000Z</time>
      </trkpt>
      <trkpt lat="44.64296" lon="5.19995">
        <ele>1571</ele>
        <time>2026-05-25T11:14:39.000Z</time>
      </trkpt>
      <trkpt lat="44.64297" lon="5.19994">
        <ele>1571</ele>
        <time>2026-05-25T11:14:40.000Z</time>
      </trkpt>
      <trkpt lat="44.64299" lon="5.19994">
        <ele>1571</ele>
        <time>2026-05-25T11:14:41.000Z</time>
      </trkpt>
      <trkpt lat="44.643" lon="5.19994">
        <ele>1570</ele>
        <time>2026-05-25T11:14:42.000Z</time>
      </trkpt>
      <trkpt lat="44.64301" lon="5.19995">
        <ele>1570</ele>
        <time>2026-05-25T11:14:43.000Z</time>
      </trkpt>
      <trkpt lat="44.64302" lon="5.19996">
        <ele>1570</ele>
        <time>2026-05-25T11:14:44.000Z</time>
      </trkpt>
      <trkpt lat="44.64303" lon="5.19996">
        <ele>1570</ele>
        <time>2026-05-25T11:14:45.000Z</time>
      </trkpt>
      <trkpt lat="44.64304" lon="5.19997">
        <ele>1570</ele>
        <time>2026-05-25T11:14:46.000Z</time>
      </trkpt>
      <trkpt lat="44.64305" lon="5.19997">
        <ele>1569</ele>
        <time>2026-05-25T11:14:47.000Z</time>
      </trkpt>
      <trkpt lat="44.64306" lon="5.19997">
        <ele>1569</ele>
        <time>2026-05-25T11:14:48.000Z</time>
      </trkpt>
      <trkpt lat="44.64308" lon="5.19997">
        <ele>1569</ele>
        <time>2026-05-25T11:14:49.000Z</time>
      </trkpt>
      <trkpt lat="44.64309" lon="5.19997">
        <ele>1569</ele>
        <time>2026-05-25T11:14:50.000Z</time>
      </trkpt>
      <trkpt lat="44.64311" lon="5.19998">
        <ele>1569</ele>
        <time>2026-05-25T11:14:51.000Z</time>
      </trkpt>
      <trkpt lat="44.64312" lon="5.19999">
        <ele>1569</ele>
        <time>2026-05-25T11:14:52.000Z</time>
      </trkpt>
      <trkpt lat="44.64313" lon="5.2">
        <ele>1569</ele>
        <time>2026-05-25T11:14:53.000Z</time>
      </trkpt>
      <trkpt lat="44.64314" lon="5.2">
        <ele>1569</ele>
        <time>2026-05-25T11:14:54.000Z</time>
      </trkpt>
      <trkpt lat="44.64315" lon="5.20001">
        <ele>1569</ele>
        <time>2026-05-25T11:14:55.000Z</time>
      </trkpt>
      <trkpt lat="44.64316" lon="5.20002">
        <ele>1568</ele>
        <time>2026-05-25T11:14:56.000Z</time>
      </trkpt>
      <trkpt lat="44.64317" lon="5.20002">
        <ele>1568</ele>
        <time>2026-05-25T11:14:57.000Z</time>
      </trkpt>
      <trkpt lat="44.64318" lon="5.20004">
        <ele>1568</ele>
        <time>2026-05-25T11:14:58.000Z</time>
      </trkpt>
      <trkpt lat="44.64319" lon="5.20005">
        <ele>1569</ele>
        <time>2026-05-25T11:14:59.000Z</time>
      </trkpt>
      <trkpt lat="44.6432" lon="5.20006">
        <ele>1569</ele>
        <time>2026-05-25T11:15:00.000Z</time>
      </trkpt>
      <trkpt lat="44.64321" lon="5.20007">
        <ele>1568</ele>
        <time>2026-05-25T11:15:01.000Z</time>
      </trkpt>
      <trkpt lat="44.64322" lon="5.20008">
        <ele>1567</ele>
        <time>2026-05-25T11:15:02.000Z</time>
      </trkpt>
      <trkpt lat="44.64324" lon="5.20009">
        <ele>1567</ele>
        <time>2026-05-25T11:15:03.000Z</time>
      </trkpt>
      <trkpt lat="44.64325" lon="5.2001">
        <ele>1568</ele>
        <time>2026-05-25T11:15:04.000Z</time>
      </trkpt>
      <trkpt lat="44.64327" lon="5.20011">
        <ele>1567</ele>
        <time>2026-05-25T11:15:05.000Z</time>
      </trkpt>
      <trkpt lat="44.64328" lon="5.20012">
        <ele>1567</ele>
        <time>2026-05-25T11:15:06.000Z</time>
      </trkpt>
      <trkpt lat="44.64329" lon="5.20013">
        <ele>1567</ele>
        <time>2026-05-25T11:15:07.000Z</time>
      </trkpt>
      <trkpt lat="44.6433" lon="5.20013">
        <ele>1566</ele>
        <time>2026-05-25T11:15:08.000Z</time>
      </trkpt>
      <trkpt lat="44.64331" lon="5.20013">
        <ele>1566</ele>
        <time>2026-05-25T11:15:09.000Z</time>
      </trkpt>
      <trkpt lat="44.64332" lon="5.20014">
        <ele>1566</ele>
        <time>2026-05-25T11:15:10.000Z</time>
      </trkpt>
      <trkpt lat="44.64333" lon="5.20015">
        <ele>1565</ele>
        <time>2026-05-25T11:15:11.000Z</time>
      </trkpt>
      <trkpt lat="44.64334" lon="5.20016">
        <ele>1566</ele>
        <time>2026-05-25T11:15:12.000Z</time>
      </trkpt>
      <trkpt lat="44.64335" lon="5.20016">
        <ele>1565</ele>
        <time>2026-05-25T11:15:13.000Z</time>
      </trkpt>
      <trkpt lat="44.64336" lon="5.20016">
        <ele>1565</ele>
        <time>2026-05-25T11:15:14.000Z</time>
      </trkpt>
      <trkpt lat="44.64337" lon="5.20016">
        <ele>1565</ele>
        <time>2026-05-25T11:15:15.000Z</time>
      </trkpt>
      <trkpt lat="44.64338" lon="5.20016">
        <ele>1565</ele>
        <time>2026-05-25T11:15:16.000Z</time>
      </trkpt>
      <trkpt lat="44.64339" lon="5.20017">
        <ele>1564</ele>
        <time>2026-05-25T11:15:17.000Z</time>
      </trkpt>
      <trkpt lat="44.6434" lon="5.20017">
        <ele>1564</ele>
        <time>2026-05-25T11:15:18.000Z</time>
      </trkpt>
      <trkpt lat="44.64341" lon="5.20018">
        <ele>1564</ele>
        <time>2026-05-25T11:15:19.000Z</time>
      </trkpt>
      <trkpt lat="44.64342" lon="5.20018">
        <ele>1564</ele>
        <time>2026-05-25T11:15:20.000Z</time>
      </trkpt>
      <trkpt lat="44.64343" lon="5.20019">
        <ele>1564</ele>
        <time>2026-05-25T11:15:21.000Z</time>
      </trkpt>
      <trkpt lat="44.64344" lon="5.2002">
        <ele>1564</ele>
        <time>2026-05-25T11:15:22.000Z</time>
      </trkpt>
      <trkpt lat="44.64345" lon="5.2002">
        <ele>1564</ele>
        <time>2026-05-25T11:15:23.000Z</time>
      </trkpt>
      <trkpt lat="44.64346" lon="5.2002">
        <ele>1563</ele>
        <time>2026-05-25T11:15:24.000Z</time>
      </trkpt>
      <trkpt lat="44.64348" lon="5.20021">
        <ele>1562</ele>
        <time>2026-05-25T11:15:25.000Z</time>
      </trkpt>
      <trkpt lat="44.64348" lon="5.20022">
        <ele>1562</ele>
        <time>2026-05-25T11:15:26.000Z</time>
      </trkpt>
      <trkpt lat="44.64349" lon="5.20023">
        <ele>1562</ele>
        <time>2026-05-25T11:15:27.000Z</time>
      </trkpt>
      <trkpt lat="44.64349" lon="5.20024">
        <ele>1562</ele>
        <time>2026-05-25T11:15:28.000Z</time>
      </trkpt>
      <trkpt lat="44.6435" lon="5.20026">
        <ele>1562</ele>
        <time>2026-05-25T11:15:29.000Z</time>
      </trkpt>
      <trkpt lat="44.64351" lon="5.20027">
        <ele>1561</ele>
        <time>2026-05-25T11:15:30.000Z</time>
      </trkpt>
      <trkpt lat="44.64352" lon="5.20029">
        <ele>1561</ele>
        <time>2026-05-25T11:15:31.000Z</time>
      </trkpt>
      <trkpt lat="44.64352" lon="5.2003">
        <ele>1561</ele>
        <time>2026-05-25T11:15:32.000Z</time>
      </trkpt>
      <trkpt lat="44.64353" lon="5.20031">
        <ele>1560</ele>
        <time>2026-05-25T11:15:33.000Z</time>
      </trkpt>
      <trkpt lat="44.64354" lon="5.20032">
        <ele>1560</ele>
        <time>2026-05-25T11:15:34.000Z</time>
      </trkpt>
      <trkpt lat="44.64354" lon="5.20033">
        <ele>1560</ele>
        <time>2026-05-25T11:15:35.000Z</time>
      </trkpt>
      <trkpt lat="44.64356" lon="5.20034">
        <ele>1560</ele>
        <time>2026-05-25T11:15:36.000Z</time>
      </trkpt>
      <trkpt lat="44.64357" lon="5.20034">
        <ele>1560</ele>
        <time>2026-05-25T11:15:37.000Z</time>
      </trkpt>
      <trkpt lat="44.64358" lon="5.20035">
        <ele>1561</ele>
        <time>2026-05-25T11:15:38.000Z</time>
      </trkpt>
      <trkpt lat="44.6436" lon="5.20036">
        <ele>1561</ele>
        <time>2026-05-25T11:15:39.000Z</time>
      </trkpt>
      <trkpt lat="44.64361" lon="5.20038">
        <ele>1561</ele>
        <time>2026-05-25T11:15:40.000Z</time>
      </trkpt>
      <trkpt lat="44.64361" lon="5.20039">
        <ele>1561</ele>
        <time>2026-05-25T11:15:41.000Z</time>
      </trkpt>
      <trkpt lat="44.64362" lon="5.20039">
        <ele>1561</ele>
        <time>2026-05-25T11:15:42.000Z</time>
      </trkpt>
      <trkpt lat="44.64364" lon="5.2004">
        <ele>1561</ele>
        <time>2026-05-25T11:15:43.000Z</time>
      </trkpt>
      <trkpt lat="44.64364" lon="5.20041">
        <ele>1561</ele>
        <time>2026-05-25T11:15:44.000Z</time>
      </trkpt>
      <trkpt lat="44.64366" lon="5.20042">
        <ele>1561</ele>
        <time>2026-05-25T11:15:45.000Z</time>
      </trkpt>
      <trkpt lat="44.64367" lon="5.20043">
        <ele>1560</ele>
        <time>2026-05-25T11:15:46.000Z</time>
      </trkpt>
      <trkpt lat="44.64368" lon="5.20043">
        <ele>1560</ele>
        <time>2026-05-25T11:15:47.000Z</time>
      </trkpt>
      <trkpt lat="44.64369" lon="5.20044">
        <ele>1560</ele>
        <time>2026-05-25T11:15:48.000Z</time>
      </trkpt>
      <trkpt lat="44.64369" lon="5.20046">
        <ele>1560</ele>
        <time>2026-05-25T11:15:49.000Z</time>
      </trkpt>
      <trkpt lat="44.6437" lon="5.20048">
        <ele>1560</ele>
        <time>2026-05-25T11:15:50.000Z</time>
      </trkpt>
      <trkpt lat="44.64371" lon="5.20049">
        <ele>1560</ele>
        <time>2026-05-25T11:15:51.000Z</time>
      </trkpt>
      <trkpt lat="44.64371" lon="5.2005">
        <ele>1560</ele>
        <time>2026-05-25T11:15:52.000Z</time>
      </trkpt>
      <trkpt lat="44.64371" lon="5.20051">
        <ele>1560</ele>
        <time>2026-05-25T11:15:53.000Z</time>
      </trkpt>
      <trkpt lat="44.64372" lon="5.20052">
        <ele>1559</ele>
        <time>2026-05-25T11:15:54.000Z</time>
      </trkpt>
      <trkpt lat="44.64372" lon="5.20053">
        <ele>1559</ele>
        <time>2026-05-25T11:15:55.000Z</time>
      </trkpt>
      <trkpt lat="44.64373" lon="5.20055">
        <ele>1559</ele>
        <time>2026-05-25T11:15:56.000Z</time>
      </trkpt>
      <trkpt lat="44.64373" lon="5.20056">
        <ele>1559</ele>
        <time>2026-05-25T11:15:57.000Z</time>
      </trkpt>
      <trkpt lat="44.64374" lon="5.20057">
        <ele>1559</ele>
        <time>2026-05-25T11:15:58.000Z</time>
      </trkpt>
      <trkpt lat="44.64374" lon="5.20058">
        <ele>1559</ele>
        <time>2026-05-25T11:15:59.000Z</time>
      </trkpt>
      <trkpt lat="44.64374" lon="5.20059">
        <ele>1559</ele>
        <time>2026-05-25T11:16:00.000Z</time>
      </trkpt>
      <trkpt lat="44.64374" lon="5.2006">
        <ele>1560</ele>
        <time>2026-05-25T11:16:01.000Z</time>
      </trkpt>
      <trkpt lat="44.64374" lon="5.20061">
        <ele>1560</ele>
        <time>2026-05-25T11:16:02.000Z</time>
      </trkpt>
      <trkpt lat="44.64375" lon="5.20061">
        <ele>1561</ele>
        <time>2026-05-25T11:16:03.000Z</time>
      </trkpt>
      <trkpt lat="44.64375" lon="5.20061">
        <ele>1561</ele>
        <time>2026-05-25T11:16:04.000Z</time>
      </trkpt>
      <trkpt lat="44.64375" lon="5.20061">
        <ele>1561</ele>
        <time>2026-05-25T11:16:05.000Z</time>
      </trkpt>
      <trkpt lat="44.64375" lon="5.20061">
        <ele>1561</ele>
        <time>2026-05-25T11:16:06.000Z</time>
      </trkpt>
      <trkpt lat="44.64375" lon="5.20061">
        <ele>1561</ele>
        <time>2026-05-25T11:16:07.000Z</time>
      </trkpt>
      <trkpt lat="44.64375" lon="5.20061">
        <ele>1561</ele>
        <time>2026-05-25T11:16:08.000Z</time>
      </trkpt>
      <trkpt lat="44.64375" lon="5.2006">
        <ele>1561</ele>
        <time>2026-05-25T11:16:09.000Z</time>
      </trkpt>
      <trkpt lat="44.64376" lon="5.2006">
        <ele>1560</ele>
        <time>2026-05-25T11:16:10.000Z</time>
      </trkpt>
      <trkpt lat="44.64376" lon="5.2006">
        <ele>1560</ele>
        <time>2026-05-25T11:16:11.000Z</time>
      </trkpt>
      <trkpt lat="44.64377" lon="5.20061">
        <ele>1560</ele>
        <time>2026-05-25T11:16:12.000Z</time>
      </trkpt>
      <trkpt lat="44.64377" lon="5.20062">
        <ele>1561</ele>
        <time>2026-05-25T11:16:13.000Z</time>
      </trkpt>
      <trkpt lat="44.64378" lon="5.20062">
        <ele>1562</ele>
        <time>2026-05-25T11:16:14.000Z</time>
      </trkpt>
      <trkpt lat="44.64378" lon="5.20062">
        <ele>1562</ele>
        <time>2026-05-25T11:16:15.000Z</time>
      </trkpt>
      <trkpt lat="44.64378" lon="5.20062">
        <ele>1562</ele>
        <time>2026-05-25T11:16:16.000Z</time>
      </trkpt>
      <trkpt lat="44.64378" lon="5.20061">
        <ele>1562</ele>
        <time>2026-05-25T11:16:17.000Z</time>
      </trkpt>
      <trkpt lat="44.64378" lon="5.20061">
        <ele>1562</ele>
        <time>2026-05-25T11:16:18.000Z</time>
      </trkpt>
      <trkpt lat="44.64378" lon="5.20061">
        <ele>1562</ele>
        <time>2026-05-25T11:16:19.000Z</time>
      </trkpt>
      <trkpt lat="44.64378" lon="5.20061">
        <ele>1562</ele>
        <time>2026-05-25T11:16:20.000Z</time>
      </trkpt>
      <trkpt lat="44.64378" lon="5.20061">
        <ele>1562</ele>
        <time>2026-05-25T11:16:21.000Z</time>
      </trkpt>
      <trkpt lat="44.64378" lon="5.20061">
        <ele>1562</ele>
        <time>2026-05-25T11:16:22.000Z</time>
      </trkpt>
      <trkpt lat="44.64378" lon="5.20061">
        <ele>1562</ele>
        <time>2026-05-25T11:16:23.000Z</time>
      </trkpt>
      <trkpt lat="44.64378" lon="5.20061">
        <ele>1562</ele>
        <time>2026-05-25T11:16:24.000Z</time>
      </trkpt>
      <trkpt lat="44.64378" lon="5.20061">
        <ele>1562</ele>
        <time>2026-05-25T11:16:25.000Z</time>
      </trkpt>
      <trkpt lat="44.64378" lon="5.20061">
        <ele>1562</ele>
        <time>2026-05-25T11:16:26.000Z</time>
      </trkpt>
      <trkpt lat="44.64378" lon="5.20061">
        <ele>1562</ele>
        <time>2026-05-25T11:16:27.000Z</time>
      </trkpt>
      <trkpt lat="44.64377" lon="5.20058">
        <ele>1562</ele>
        <time>2026-05-25T11:16:28.000Z</time>
      </trkpt>
      <trkpt lat="44.64376" lon="5.20058">
        <ele>1562</ele>
        <time>2026-05-25T11:16:29.000Z</time>
      </trkpt>
      <trkpt lat="44.64376" lon="5.20057">
        <ele>1562</ele>
        <time>2026-05-25T11:16:30.000Z</time>
      </trkpt>
      <trkpt lat="44.64375" lon="5.20057">
        <ele>1562</ele>
        <time>2026-05-25T11:16:31.000Z</time>
      </trkpt>
      <trkpt lat="44.64374" lon="5.20057">
        <ele>1562</ele>
        <time>2026-05-25T11:16:32.000Z</time>
      </trkpt>
      <trkpt lat="44.64374" lon="5.20057">
        <ele>1562</ele>
        <time>2026-05-25T11:16:33.000Z</time>
      </trkpt>
      <trkpt lat="44.64374" lon="5.20058">
        <ele>1561</ele>
        <time>2026-05-25T11:16:34.000Z</time>
      </trkpt>
      <trkpt lat="44.64375" lon="5.20058">
        <ele>1562</ele>
        <time>2026-05-25T11:16:35.000Z</time>
      </trkpt>
      <trkpt lat="44.64375" lon="5.20058">
        <ele>1562</ele>
        <time>2026-05-25T11:16:36.000Z</time>
      </trkpt>
      <trkpt lat="44.64375" lon="5.20058">
        <ele>1562</ele>
        <time>2026-05-25T11:16:37.000Z</time>
      </trkpt>
      <trkpt lat="44.64375" lon="5.20058">
        <ele>1562</ele>
        <time>2026-05-25T11:16:38.000Z</time>
      </trkpt>
      <trkpt lat="44.64375" lon="5.20058">
        <ele>1562</ele>
        <time>2026-05-25T11:16:39.000Z</time>
      </trkpt>
      <trkpt lat="44.64375" lon="5.20058">
        <ele>1562</ele>
        <time>2026-05-25T11:16:40.000Z</time>
      </trkpt>
      <trkpt lat="44.64375" lon="5.20058">
        <ele>1562</ele>
        <time>2026-05-25T11:16:41.000Z</time>
      </trkpt>
      <trkpt lat="44.64375" lon="5.20058">
        <ele>1562</ele>
        <time>2026-05-25T11:16:42.000Z</time>
      </trkpt>
      <trkpt lat="44.64375" lon="5.20058">
        <ele>1562</ele>
        <time>2026-05-25T11:16:43.000Z</time>
      </trkpt>
      <trkpt lat="44.64375" lon="5.20058">
        <ele>1562</ele>
        <time>2026-05-25T11:16:44.000Z</time>
      </trkpt>
      <trkpt lat="44.64375" lon="5.20058">
        <ele>1562</ele>
        <time>2026-05-25T11:16:45.000Z</time>
      </trkpt>
      <trkpt lat="44.64375" lon="5.20058">
        <ele>1562</ele>
        <time>2026-05-25T11:16:46.000Z</time>
      </trkpt>
      <trkpt lat="44.64375" lon="5.20058">
        <ele>1562</ele>
        <time>2026-05-25T11:16:47.000Z</time>
      </trkpt>
      <trkpt lat="44.64375" lon="5.20058">
        <ele>1562</ele>
        <time>2026-05-25T11:16:48.000Z</time>
      </trkpt>
      <trkpt lat="44.64374" lon="5.20057">
        <ele>1562</ele>
        <time>2026-05-25T11:16:49.000Z</time>
      </trkpt>
      <trkpt lat="44.64374" lon="5.20056">
        <ele>1562</ele>
        <time>2026-05-25T11:16:50.000Z</time>
      </trkpt>
      <trkpt lat="44.64373" lon="5.20056">
        <ele>1562</ele>
        <time>2026-05-25T11:16:51.000Z</time>
      </trkpt>
      <trkpt lat="44.64373" lon="5.20056">
        <ele>1562</ele>
        <time>2026-05-25T11:16:52.000Z</time>
      </trkpt>
      <trkpt lat="44.64373" lon="5.20056">
        <ele>1562</ele>
        <time>2026-05-25T11:16:53.000Z</time>
      </trkpt>
      <trkpt lat="44.64374" lon="5.20057">
        <ele>1562</ele>
        <time>2026-05-25T11:16:54.000Z</time>
      </trkpt>
      <trkpt lat="44.64373" lon="5.20057">
        <ele>1562</ele>
        <time>2026-05-25T11:16:55.000Z</time>
      </trkpt>
      <trkpt lat="44.64373" lon="5.20057">
        <ele>1562</ele>
        <time>2026-05-25T11:16:56.000Z</time>
      </trkpt>
      <trkpt lat="44.64373" lon="5.20057">
        <ele>1562</ele>
        <time>2026-05-25T11:16:57.000Z</time>
      </trkpt>
      <trkpt lat="44.64373" lon="5.20057">
        <ele>1562</ele>
        <time>2026-05-25T11:16:58.000Z</time>
      </trkpt>
      <trkpt lat="44.64374" lon="5.20057">
        <ele>1562</ele>
        <time>2026-05-25T11:16:59.000Z</time>
      </trkpt>
      <trkpt lat="44.64374" lon="5.20057">
        <ele>1562</ele>
        <time>2026-05-25T11:17:00.000Z</time>
      </trkpt>
      <trkpt lat="44.64373" lon="5.20057">
        <ele>1562</ele>
        <time>2026-05-25T11:17:01.000Z</time>
      </trkpt>
      <trkpt lat="44.64374" lon="5.20057">
        <ele>1562</ele>
        <time>2026-05-25T11:17:02.000Z</time>
      </trkpt>
      <trkpt lat="44.64374" lon="5.20058">
        <ele>1562</ele>
        <time>2026-05-25T11:17:03.000Z</time>
      </trkpt>
      <trkpt lat="44.64374" lon="5.20059">
        <ele>1561</ele>
        <time>2026-05-25T11:17:04.000Z</time>
      </trkpt>
      <trkpt lat="44.64375" lon="5.2006">
        <ele>1561</ele>
        <time>2026-05-25T11:17:05.000Z</time>
      </trkpt>
      <trkpt lat="44.64375" lon="5.2006">
        <ele>1561</ele>
        <time>2026-05-25T11:17:06.000Z</time>
      </trkpt>
      <trkpt lat="44.64375" lon="5.2006">
        <ele>1560</ele>
        <time>2026-05-25T11:17:07.000Z</time>
      </trkpt>
      <trkpt lat="44.64375" lon="5.2006">
        <ele>1560</ele>
        <time>2026-05-25T11:17:08.000Z</time>
      </trkpt>
      <trkpt lat="44.64375" lon="5.2006">
        <ele>1560</ele>
        <time>2026-05-25T11:17:09.000Z</time>
      </trkpt>
      <trkpt lat="44.64375" lon="5.2006">
        <ele>1560</ele>
        <time>2026-05-25T11:17:10.000Z</time>
      </trkpt>
      <trkpt lat="44.64375" lon="5.2006">
        <ele>1560</ele>
        <time>2026-05-25T11:17:11.000Z</time>
      </trkpt>
      <trkpt lat="44.64375" lon="5.2006">
        <ele>1560</ele>
        <time>2026-05-25T11:17:12.000Z</time>
      </trkpt>
      <trkpt lat="44.64375" lon="5.2006">
        <ele>1560</ele>
        <time>2026-05-25T11:17:13.000Z</time>
      </trkpt>
      <trkpt lat="44.64375" lon="5.2006">
        <ele>1560</ele>
        <time>2026-05-25T11:17:14.000Z</time>
      </trkpt>
      <trkpt lat="44.64375" lon="5.2006">
        <ele>1560</ele>
        <time>2026-05-25T11:17:15.000Z</time>
      </trkpt>
      <trkpt lat="44.64375" lon="5.2006">
        <ele>1560</ele>
        <time>2026-05-25T11:17:16.000Z</time>
      </trkpt>
      <trkpt lat="44.64375" lon="5.2006">
        <ele>1560</ele>
        <time>2026-05-25T11:17:17.000Z</time>
      </trkpt>
      <trkpt lat="44.64375" lon="5.2006">
        <ele>1560</ele>
        <time>2026-05-25T11:17:18.000Z</time>
      </trkpt>
      <trkpt lat="44.64375" lon="5.2006">
        <ele>1560</ele>
        <time>2026-05-25T11:17:19.000Z</time>
      </trkpt>
      <trkpt lat="44.64375" lon="5.2006">
        <ele>1560</ele>
        <time>2026-05-25T11:17:20.000Z</time>
      </trkpt>
      <trkpt lat="44.64375" lon="5.2006">
        <ele>1560</ele>
        <time>2026-05-25T11:17:21.000Z</time>
      </trkpt>
      <trkpt lat="44.64375" lon="5.2006">
        <ele>1560</ele>
        <time>2026-05-25T11:17:22.000Z</time>
      </trkpt>
      <trkpt lat="44.64375" lon="5.2006">
        <ele>1560</ele>
        <time>2026-05-25T11:17:23.000Z</time>
      </trkpt>
      <trkpt lat="44.64375" lon="5.2006">
        <ele>1560</ele>
        <time>2026-05-25T11:17:24.000Z</time>
      </trkpt>
      <trkpt lat="44.64375" lon="5.2006">
        <ele>1560</ele>
        <time>2026-05-25T11:17:25.000Z</time>
      </trkpt>
      <trkpt lat="44.64375" lon="5.2006">
        <ele>1560</ele>
        <time>2026-05-25T11:17:26.000Z</time>
      </trkpt>
      <trkpt lat="44.64375" lon="5.2006">
        <ele>1560</ele>
        <time>2026-05-25T11:17:27.000Z</time>
      </trkpt>
      <trkpt lat="44.64375" lon="5.2006">
        <ele>1560</ele>
        <time>2026-05-25T11:17:28.000Z</time>
      </trkpt>
      <trkpt lat="44.64375" lon="5.2006">
        <ele>1560</ele>
        <time>2026-05-25T11:17:29.000Z</time>
      </trkpt>
      <trkpt lat="44.64375" lon="5.2006">
        <ele>1560</ele>
        <time>2026-05-25T11:17:30.000Z</time>
      </trkpt>
      <trkpt lat="44.64375" lon="5.2006">
        <ele>1560</ele>
        <time>2026-05-25T11:17:31.000Z</time>
      </trkpt>
      <trkpt lat="44.64375" lon="5.2006">
        <ele>1560</ele>
        <time>2026-05-25T11:17:32.000Z</time>
      </trkpt>
      <trkpt lat="44.64375" lon="5.2006">
        <ele>1560</ele>
        <time>2026-05-25T11:17:33.000Z</time>
      </trkpt>
      <trkpt lat="44.64375" lon="5.20059">
        <ele>1560</ele>
        <time>2026-05-25T11:17:34.000Z</time>
      </trkpt>
      <trkpt lat="44.64375" lon="5.20058">
        <ele>1561</ele>
        <time>2026-05-25T11:17:35.000Z</time>
      </trkpt>
      <trkpt lat="44.64375" lon="5.20058">
        <ele>1561</ele>
        <time>2026-05-25T11:17:36.000Z</time>
      </trkpt>
      <trkpt lat="44.64375" lon="5.20059">
        <ele>1560</ele>
        <time>2026-05-25T11:17:37.000Z</time>
      </trkpt>
      <trkpt lat="44.64375" lon="5.20059">
        <ele>1560</ele>
        <time>2026-05-25T11:17:38.000Z</time>
      </trkpt>
      <trkpt lat="44.64375" lon="5.20059">
        <ele>1560</ele>
        <time>2026-05-25T11:17:39.000Z</time>
      </trkpt>
      <trkpt lat="44.64375" lon="5.20059">
        <ele>1560</ele>
        <time>2026-05-25T11:17:40.000Z</time>
      </trkpt>
      <trkpt lat="44.64375" lon="5.20059">
        <ele>1560</ele>
        <time>2026-05-25T11:17:41.000Z</time>
      </trkpt>
      <trkpt lat="44.64375" lon="5.20059">
        <ele>1560</ele>
        <time>2026-05-25T11:17:42.000Z</time>
      </trkpt>
      <trkpt lat="44.64375" lon="5.20059">
        <ele>1560</ele>
        <time>2026-05-25T11:17:43.000Z</time>
      </trkpt>
      <trkpt lat="44.64375" lon="5.20059">
        <ele>1560</ele>
        <time>2026-05-25T11:17:44.000Z</time>
      </trkpt>
      <trkpt lat="44.64375" lon="5.20059">
        <ele>1560</ele>
        <time>2026-05-25T11:17:45.000Z</time>
      </trkpt>
      <trkpt lat="44.64375" lon="5.20059">
        <ele>1560</ele>
        <time>2026-05-25T11:17:46.000Z</time>
      </trkpt>
      <trkpt lat="44.64375" lon="5.20059">
        <ele>1560</ele>
        <time>2026-05-25T11:17:47.000Z</time>
      </trkpt>
      <trkpt lat="44.64375" lon="5.20059">
        <ele>1560</ele>
        <time>2026-05-25T11:17:48.000Z</time>
      </trkpt>
      <trkpt lat="44.64375" lon="5.20059">
        <ele>1560</ele>
        <time>2026-05-25T11:17:49.000Z</time>
      </trkpt>
      <trkpt lat="44.64375" lon="5.20059">
        <ele>1560</ele>
        <time>2026-05-25T11:17:50.000Z</time>
      </trkpt>
      <trkpt lat="44.64375" lon="5.20059">
        <ele>1560</ele>
        <time>2026-05-25T11:17:51.000Z</time>
      </trkpt>
      <trkpt lat="44.64375" lon="5.20059">
        <ele>1560</ele>
        <time>2026-05-25T11:17:52.000Z</time>
      </trkpt>
      <trkpt lat="44.64375" lon="5.20059">
        <ele>1560</ele>
        <time>2026-05-25T11:17:53.000Z</time>
      </trkpt>
      <trkpt lat="44.64375" lon="5.20059">
        <ele>1560</ele>
        <time>2026-05-25T11:17:54.000Z</time>
      </trkpt>
      <trkpt lat="44.64375" lon="5.20058">
        <ele>1561</ele>
        <time>2026-05-25T11:17:55.000Z</time>
      </trkpt>
      <trkpt lat="44.64374" lon="5.20058">
        <ele>1561</ele>
        <time>2026-05-25T11:17:56.000Z</time>
      </trkpt>
      <trkpt lat="44.64374" lon="5.20058">
        <ele>1562</ele>
        <time>2026-05-25T11:17:57.000Z</time>
      </trkpt>
      <trkpt lat="44.64374" lon="5.20059">
        <ele>1562</ele>
        <time>2026-05-25T11:17:58.000Z</time>
      </trkpt>
      <trkpt lat="44.64374" lon="5.20059">
        <ele>1562</ele>
        <time>2026-05-25T11:17:59.000Z</time>
      </trkpt>
      <trkpt lat="44.64374" lon="5.20059">
        <ele>1562</ele>
        <time>2026-05-25T11:18:00.000Z</time>
      </trkpt>
      <trkpt lat="44.64374" lon="5.20059">
        <ele>1562</ele>
        <time>2026-05-25T11:18:01.000Z</time>
      </trkpt>
      <trkpt lat="44.64374" lon="5.20059">
        <ele>1562</ele>
        <time>2026-05-25T11:18:02.000Z</time>
      </trkpt>
      <trkpt lat="44.64374" lon="5.20059">
        <ele>1562</ele>
        <time>2026-05-25T11:18:03.000Z</time>
      </trkpt>
      <trkpt lat="44.64374" lon="5.20059">
        <ele>1562</ele>
        <time>2026-05-25T11:18:04.000Z</time>
      </trkpt>
      <trkpt lat="44.64374" lon="5.20059">
        <ele>1562</ele>
        <time>2026-05-25T11:18:05.000Z</time>
      </trkpt>
      <trkpt lat="44.64374" lon="5.20059">
        <ele>1562</ele>
        <time>2026-05-25T11:18:06.000Z</time>
      </trkpt>
      <trkpt lat="44.64374" lon="5.20059">
        <ele>1562</ele>
        <time>2026-05-25T11:18:07.000Z</time>
      </trkpt>
      <trkpt lat="44.64374" lon="5.20059">
        <ele>1562</ele>
        <time>2026-05-25T11:18:08.000Z</time>
      </trkpt>
      <trkpt lat="44.64374" lon="5.20059">
        <ele>1562</ele>
        <time>2026-05-25T11:18:09.000Z</time>
      </trkpt>
      <trkpt lat="44.64374" lon="5.20059">
        <ele>1562</ele>
        <time>2026-05-25T11:18:10.000Z</time>
      </trkpt>
      <trkpt lat="44.64374" lon="5.20059">
        <ele>1562</ele>
        <time>2026-05-25T11:18:11.000Z</time>
      </trkpt>
      <trkpt lat="44.64374" lon="5.20059">
        <ele>1562</ele>
        <time>2026-05-25T11:18:12.000Z</time>
      </trkpt>
      <trkpt lat="44.64374" lon="5.20059">
        <ele>1562</ele>
        <time>2026-05-25T11:18:13.000Z</time>
      </trkpt>
      <trkpt lat="44.64374" lon="5.20059">
        <ele>1562</ele>
        <time>2026-05-25T11:18:14.000Z</time>
      </trkpt>
      <trkpt lat="44.64374" lon="5.20059">
        <ele>1562</ele>
        <time>2026-05-25T11:18:15.000Z</time>
      </trkpt>
      <trkpt lat="44.64374" lon="5.20059">
        <ele>1562</ele>
        <time>2026-05-25T11:18:16.000Z</time>
      </trkpt>
      <trkpt lat="44.64374" lon="5.20059">
        <ele>1562</ele>
        <time>2026-05-25T11:18:17.000Z</time>
      </trkpt>
      <trkpt lat="44.64374" lon="5.20059">
        <ele>1562</ele>
        <time>2026-05-25T11:18:18.000Z</time>
      </trkpt>
      <trkpt lat="44.64374" lon="5.20059">
        <ele>1562</ele>
        <time>2026-05-25T11:18:19.000Z</time>
      </trkpt>
      <trkpt lat="44.64373" lon="5.20057">
        <ele>1562</ele>
        <time>2026-05-25T11:18:20.000Z</time>
      </trkpt>
      <trkpt lat="44.64373" lon="5.20056">
        <ele>1562</ele>
        <time>2026-05-25T11:18:21.000Z</time>
      </trkpt>
      <trkpt lat="44.64373" lon="5.20054">
        <ele>1562</ele>
        <time>2026-05-25T11:18:22.000Z</time>
      </trkpt>
      <trkpt lat="44.64372" lon="5.20052">
        <ele>1562</ele>
        <time>2026-05-25T11:18:23.000Z</time>
      </trkpt>
      <trkpt lat="44.64372" lon="5.2005">
        <ele>1562</ele>
        <time>2026-05-25T11:18:24.000Z</time>
      </trkpt>
      <trkpt lat="44.64372" lon="5.20048">
        <ele>1562</ele>
        <time>2026-05-25T11:18:25.000Z</time>
      </trkpt>
      <trkpt lat="44.64372" lon="5.20046">
        <ele>1562</ele>
        <time>2026-05-25T11:18:26.000Z</time>
      </trkpt>
      <trkpt lat="44.64373" lon="5.20045">
        <ele>1562</ele>
        <time>2026-05-25T11:18:27.000Z</time>
      </trkpt>
      <trkpt lat="44.64373" lon="5.20044">
        <ele>1561</ele>
        <time>2026-05-25T11:18:28.000Z</time>
      </trkpt>
      <trkpt lat="44.64373" lon="5.20043">
        <ele>1561</ele>
        <time>2026-05-25T11:18:29.000Z</time>
      </trkpt>
      <trkpt lat="44.64373" lon="5.20043">
        <ele>1561</ele>
        <time>2026-05-25T11:18:30.000Z</time>
      </trkpt>
      <trkpt lat="44.64373" lon="5.20043">
        <ele>1561</ele>
        <time>2026-05-25T11:18:31.000Z</time>
      </trkpt>
      <trkpt lat="44.64372" lon="5.20043">
        <ele>1561</ele>
        <time>2026-05-25T11:18:32.000Z</time>
      </trkpt>
      <trkpt lat="44.64371" lon="5.20042">
        <ele>1561</ele>
        <time>2026-05-25T11:18:33.000Z</time>
      </trkpt>
      <trkpt lat="44.6437" lon="5.20041">
        <ele>1562</ele>
        <time>2026-05-25T11:18:34.000Z</time>
      </trkpt>
      <trkpt lat="44.6437" lon="5.20041">
        <ele>1562</ele>
        <time>2026-05-25T11:18:35.000Z</time>
      </trkpt>
      <trkpt lat="44.64369" lon="5.20039">
        <ele>1561</ele>
        <time>2026-05-25T11:18:36.000Z</time>
      </trkpt>
      <trkpt lat="44.64368" lon="5.20038">
        <ele>1561</ele>
        <time>2026-05-25T11:18:37.000Z</time>
      </trkpt>
      <trkpt lat="44.64368" lon="5.20037">
        <ele>1561</ele>
        <time>2026-05-25T11:18:38.000Z</time>
      </trkpt>
      <trkpt lat="44.64368" lon="5.20036">
        <ele>1560</ele>
        <time>2026-05-25T11:18:39.000Z</time>
      </trkpt>
      <trkpt lat="44.64368" lon="5.20034">
        <ele>1560</ele>
        <time>2026-05-25T11:18:40.000Z</time>
      </trkpt>
      <trkpt lat="44.64367" lon="5.20033">
        <ele>1560</ele>
        <time>2026-05-25T11:18:41.000Z</time>
      </trkpt>
      <trkpt lat="44.64367" lon="5.20032">
        <ele>1560</ele>
        <time>2026-05-25T11:18:42.000Z</time>
      </trkpt>
      <trkpt lat="44.64367" lon="5.2003">
        <ele>1559</ele>
        <time>2026-05-25T11:18:43.000Z</time>
      </trkpt>
      <trkpt lat="44.64367" lon="5.20029">
        <ele>1559</ele>
        <time>2026-05-25T11:18:44.000Z</time>
      </trkpt>
      <trkpt lat="44.64366" lon="5.20028">
        <ele>1559</ele>
        <time>2026-05-25T11:18:45.000Z</time>
      </trkpt>
      <trkpt lat="44.64365" lon="5.20026">
        <ele>1558</ele>
        <time>2026-05-25T11:18:46.000Z</time>
      </trkpt>
      <trkpt lat="44.64364" lon="5.20025">
        <ele>1558</ele>
        <time>2026-05-25T11:18:47.000Z</time>
      </trkpt>
      <trkpt lat="44.64365" lon="5.20023">
        <ele>1558</ele>
        <time>2026-05-25T11:18:48.000Z</time>
      </trkpt>
      <trkpt lat="44.64365" lon="5.20022">
        <ele>1557</ele>
        <time>2026-05-25T11:18:49.000Z</time>
      </trkpt>
      <trkpt lat="44.64364" lon="5.20021">
        <ele>1557</ele>
        <time>2026-05-25T11:18:50.000Z</time>
      </trkpt>
      <trkpt lat="44.64363" lon="5.2002">
        <ele>1556</ele>
        <time>2026-05-25T11:18:51.000Z</time>
      </trkpt>
      <trkpt lat="44.64361" lon="5.20018">
        <ele>1556</ele>
        <time>2026-05-25T11:18:52.000Z</time>
      </trkpt>
      <trkpt lat="44.64361" lon="5.20017">
        <ele>1556</ele>
        <time>2026-05-25T11:18:53.000Z</time>
      </trkpt>
      <trkpt lat="44.6436" lon="5.20015">
        <ele>1556</ele>
        <time>2026-05-25T11:18:54.000Z</time>
      </trkpt>
      <trkpt lat="44.64359" lon="5.20013">
        <ele>1556</ele>
        <time>2026-05-25T11:18:55.000Z</time>
      </trkpt>
      <trkpt lat="44.64359" lon="5.20011">
        <ele>1556</ele>
        <time>2026-05-25T11:18:56.000Z</time>
      </trkpt>
      <trkpt lat="44.64358" lon="5.20009">
        <ele>1555</ele>
        <time>2026-05-25T11:18:57.000Z</time>
      </trkpt>
      <trkpt lat="44.64358" lon="5.20007">
        <ele>1556</ele>
        <time>2026-05-25T11:18:58.000Z</time>
      </trkpt>
      <trkpt lat="44.64357" lon="5.20006">
        <ele>1556</ele>
        <time>2026-05-25T11:18:59.000Z</time>
      </trkpt>
      <trkpt lat="44.64357" lon="5.20004">
        <ele>1556</ele>
        <time>2026-05-25T11:19:00.000Z</time>
      </trkpt>
      <trkpt lat="44.64356" lon="5.20002">
        <ele>1556</ele>
        <time>2026-05-25T11:19:01.000Z</time>
      </trkpt>
      <trkpt lat="44.64356" lon="5.20001">
        <ele>1555</ele>
        <time>2026-05-25T11:19:02.000Z</time>
      </trkpt>
      <trkpt lat="44.64356" lon="5.19999">
        <ele>1555</ele>
        <time>2026-05-25T11:19:03.000Z</time>
      </trkpt>
      <trkpt lat="44.64355" lon="5.19998">
        <ele>1554</ele>
        <time>2026-05-25T11:19:04.000Z</time>
      </trkpt>
      <trkpt lat="44.64355" lon="5.19996">
        <ele>1554</ele>
        <time>2026-05-25T11:19:05.000Z</time>
      </trkpt>
      <trkpt lat="44.64355" lon="5.19995">
        <ele>1554</ele>
        <time>2026-05-25T11:19:06.000Z</time>
      </trkpt>
      <trkpt lat="44.64354" lon="5.19994">
        <ele>1554</ele>
        <time>2026-05-25T11:19:07.000Z</time>
      </trkpt>
      <trkpt lat="44.64354" lon="5.19993">
        <ele>1554</ele>
        <time>2026-05-25T11:19:08.000Z</time>
      </trkpt>
      <trkpt lat="44.64354" lon="5.19992">
        <ele>1553</ele>
        <time>2026-05-25T11:19:09.000Z</time>
      </trkpt>
      <trkpt lat="44.64355" lon="5.19992">
        <ele>1552</ele>
        <time>2026-05-25T11:19:10.000Z</time>
      </trkpt>
      <trkpt lat="44.64355" lon="5.19992">
        <ele>1552</ele>
        <time>2026-05-25T11:19:11.000Z</time>
      </trkpt>
      <trkpt lat="44.64356" lon="5.19993">
        <ele>1552</ele>
        <time>2026-05-25T11:19:12.000Z</time>
      </trkpt>
      <trkpt lat="44.64357" lon="5.19994">
        <ele>1551</ele>
        <time>2026-05-25T11:19:13.000Z</time>
      </trkpt>
      <trkpt lat="44.64358" lon="5.19995">
        <ele>1551</ele>
        <time>2026-05-25T11:19:14.000Z</time>
      </trkpt>
      <trkpt lat="44.6436" lon="5.19997">
        <ele>1551</ele>
        <time>2026-05-25T11:19:15.000Z</time>
      </trkpt>
      <trkpt lat="44.64361" lon="5.19998">
        <ele>1551</ele>
        <time>2026-05-25T11:19:16.000Z</time>
      </trkpt>
      <trkpt lat="44.64363" lon="5.2">
        <ele>1550</ele>
        <time>2026-05-25T11:19:17.000Z</time>
      </trkpt>
      <trkpt lat="44.64364" lon="5.20001">
        <ele>1550</ele>
        <time>2026-05-25T11:19:18.000Z</time>
      </trkpt>
      <trkpt lat="44.64365" lon="5.20002">
        <ele>1549</ele>
        <time>2026-05-25T11:19:19.000Z</time>
      </trkpt>
      <trkpt lat="44.64366" lon="5.20003">
        <ele>1549</ele>
        <time>2026-05-25T11:19:20.000Z</time>
      </trkpt>
      <trkpt lat="44.64367" lon="5.20004">
        <ele>1550</ele>
        <time>2026-05-25T11:19:21.000Z</time>
      </trkpt>
      <trkpt lat="44.64368" lon="5.20005">
        <ele>1549</ele>
        <time>2026-05-25T11:19:22.000Z</time>
      </trkpt>
      <trkpt lat="44.64369" lon="5.20006">
        <ele>1549</ele>
        <time>2026-05-25T11:19:23.000Z</time>
      </trkpt>
      <trkpt lat="44.64371" lon="5.20006">
        <ele>1549</ele>
        <time>2026-05-25T11:19:24.000Z</time>
      </trkpt>
      <trkpt lat="44.64373" lon="5.20008">
        <ele>1549</ele>
        <time>2026-05-25T11:19:25.000Z</time>
      </trkpt>
      <trkpt lat="44.64374" lon="5.20009">
        <ele>1549</ele>
        <time>2026-05-25T11:19:26.000Z</time>
      </trkpt>
      <trkpt lat="44.64375" lon="5.2001">
        <ele>1549</ele>
        <time>2026-05-25T11:19:27.000Z</time>
      </trkpt>
      <trkpt lat="44.64376" lon="5.2001">
        <ele>1549</ele>
        <time>2026-05-25T11:19:28.000Z</time>
      </trkpt>
      <trkpt lat="44.64377" lon="5.20011">
        <ele>1549</ele>
        <time>2026-05-25T11:19:29.000Z</time>
      </trkpt>
      <trkpt lat="44.64378" lon="5.20012">
        <ele>1549</ele>
        <time>2026-05-25T11:19:30.000Z</time>
      </trkpt>
      <trkpt lat="44.64379" lon="5.20013">
        <ele>1549</ele>
        <time>2026-05-25T11:19:31.000Z</time>
      </trkpt>
      <trkpt lat="44.6438" lon="5.20015">
        <ele>1548</ele>
        <time>2026-05-25T11:19:32.000Z</time>
      </trkpt>
      <trkpt lat="44.64381" lon="5.20016">
        <ele>1548</ele>
        <time>2026-05-25T11:19:33.000Z</time>
      </trkpt>
      <trkpt lat="44.64383" lon="5.20017">
        <ele>1548</ele>
        <time>2026-05-25T11:19:34.000Z</time>
      </trkpt>
      <trkpt lat="44.64384" lon="5.20018">
        <ele>1548</ele>
        <time>2026-05-25T11:19:35.000Z</time>
      </trkpt>
      <trkpt lat="44.64385" lon="5.20019">
        <ele>1547</ele>
        <time>2026-05-25T11:19:36.000Z</time>
      </trkpt>
      <trkpt lat="44.64386" lon="5.2002">
        <ele>1547</ele>
        <time>2026-05-25T11:19:37.000Z</time>
      </trkpt>
      <trkpt lat="44.64387" lon="5.20021">
        <ele>1547</ele>
        <time>2026-05-25T11:19:38.000Z</time>
      </trkpt>
      <trkpt lat="44.64388" lon="5.20022">
        <ele>1547</ele>
        <time>2026-05-25T11:19:39.000Z</time>
      </trkpt>
      <trkpt lat="44.64389" lon="5.20023">
        <ele>1547</ele>
        <time>2026-05-25T11:19:40.000Z</time>
      </trkpt>
      <trkpt lat="44.6439" lon="5.20024">
        <ele>1547</ele>
        <time>2026-05-25T11:19:41.000Z</time>
      </trkpt>
      <trkpt lat="44.64391" lon="5.20025">
        <ele>1547</ele>
        <time>2026-05-25T11:19:42.000Z</time>
      </trkpt>
      <trkpt lat="44.64392" lon="5.20026">
        <ele>1547</ele>
        <time>2026-05-25T11:19:43.000Z</time>
      </trkpt>
      <trkpt lat="44.64393" lon="5.20027">
        <ele>1547</ele>
        <time>2026-05-25T11:19:44.000Z</time>
      </trkpt>
      <trkpt lat="44.64394" lon="5.20028">
        <ele>1547</ele>
        <time>2026-05-25T11:19:45.000Z</time>
      </trkpt>
      <trkpt lat="44.64395" lon="5.20028">
        <ele>1547</ele>
        <time>2026-05-25T11:19:46.000Z</time>
      </trkpt>
      <trkpt lat="44.64396" lon="5.20029">
        <ele>1547</ele>
        <time>2026-05-25T11:19:47.000Z</time>
      </trkpt>
      <trkpt lat="44.64396" lon="5.2003">
        <ele>1547</ele>
        <time>2026-05-25T11:19:48.000Z</time>
      </trkpt>
      <trkpt lat="44.64397" lon="5.20031">
        <ele>1547</ele>
        <time>2026-05-25T11:19:49.000Z</time>
      </trkpt>
      <trkpt lat="44.64398" lon="5.20031">
        <ele>1547</ele>
        <time>2026-05-25T11:19:50.000Z</time>
      </trkpt>
      <trkpt lat="44.64398" lon="5.20031">
        <ele>1547</ele>
        <time>2026-05-25T11:19:51.000Z</time>
      </trkpt>
      <trkpt lat="44.64399" lon="5.2003">
        <ele>1547</ele>
        <time>2026-05-25T11:19:52.000Z</time>
      </trkpt>
      <trkpt lat="44.64399" lon="5.20029">
        <ele>1547</ele>
        <time>2026-05-25T11:19:53.000Z</time>
      </trkpt>
      <trkpt lat="44.644" lon="5.20027">
        <ele>1547</ele>
        <time>2026-05-25T11:19:54.000Z</time>
      </trkpt>
      <trkpt lat="44.644" lon="5.20026">
        <ele>1547</ele>
        <time>2026-05-25T11:19:55.000Z</time>
      </trkpt>
      <trkpt lat="44.64399" lon="5.20024">
        <ele>1547</ele>
        <time>2026-05-25T11:19:56.000Z</time>
      </trkpt>
      <trkpt lat="44.64399" lon="5.20022">
        <ele>1546</ele>
        <time>2026-05-25T11:19:57.000Z</time>
      </trkpt>
      <trkpt lat="44.64399" lon="5.2002">
        <ele>1545</ele>
        <time>2026-05-25T11:19:58.000Z</time>
      </trkpt>
      <trkpt lat="44.64398" lon="5.20018">
        <ele>1545</ele>
        <time>2026-05-25T11:19:59.000Z</time>
      </trkpt>
      <trkpt lat="44.64398" lon="5.20016">
        <ele>1545</ele>
        <time>2026-05-25T11:20:00.000Z</time>
      </trkpt>
      <trkpt lat="44.64398" lon="5.20015">
        <ele>1544</ele>
        <time>2026-05-25T11:20:01.000Z</time>
      </trkpt>
      <trkpt lat="44.64397" lon="5.20013">
        <ele>1544</ele>
        <time>2026-05-25T11:20:02.000Z</time>
      </trkpt>
      <trkpt lat="44.64397" lon="5.20012">
        <ele>1543</ele>
        <time>2026-05-25T11:20:03.000Z</time>
      </trkpt>
      <trkpt lat="44.64397" lon="5.2001">
        <ele>1544</ele>
        <time>2026-05-25T11:20:04.000Z</time>
      </trkpt>
      <trkpt lat="44.64397" lon="5.20007">
        <ele>1543</ele>
        <time>2026-05-25T11:20:05.000Z</time>
      </trkpt>
      <trkpt lat="44.64396" lon="5.20007">
        <ele>1543</ele>
        <time>2026-05-25T11:20:06.000Z</time>
      </trkpt>
      <trkpt lat="44.64396" lon="5.20005">
        <ele>1543</ele>
        <time>2026-05-25T11:20:07.000Z</time>
      </trkpt>
      <trkpt lat="44.64395" lon="5.20004">
        <ele>1542</ele>
        <time>2026-05-25T11:20:08.000Z</time>
      </trkpt>
      <trkpt lat="44.64395" lon="5.20002">
        <ele>1541</ele>
        <time>2026-05-25T11:20:09.000Z</time>
      </trkpt>
      <trkpt lat="44.64394" lon="5.20001">
        <ele>1541</ele>
        <time>2026-05-25T11:20:10.000Z</time>
      </trkpt>
      <trkpt lat="44.64394" lon="5.19999">
        <ele>1541</ele>
        <time>2026-05-25T11:20:11.000Z</time>
      </trkpt>
      <trkpt lat="44.64393" lon="5.19998">
        <ele>1540</ele>
        <time>2026-05-25T11:20:12.000Z</time>
      </trkpt>
      <trkpt lat="44.64393" lon="5.19997">
        <ele>1540</ele>
        <time>2026-05-25T11:20:13.000Z</time>
      </trkpt>
      <trkpt lat="44.64393" lon="5.19996">
        <ele>1540</ele>
        <time>2026-05-25T11:20:14.000Z</time>
      </trkpt>
      <trkpt lat="44.64393" lon="5.19994">
        <ele>1540</ele>
        <time>2026-05-25T11:20:15.000Z</time>
      </trkpt>
      <trkpt lat="44.64393" lon="5.19993">
        <ele>1539</ele>
        <time>2026-05-25T11:20:16.000Z</time>
      </trkpt>
      <trkpt lat="44.64394" lon="5.19992">
        <ele>1539</ele>
        <time>2026-05-25T11:20:17.000Z</time>
      </trkpt>
      <trkpt lat="44.64393" lon="5.19991">
        <ele>1539</ele>
        <time>2026-05-25T11:20:18.000Z</time>
      </trkpt>
      <trkpt lat="44.64393" lon="5.1999">
        <ele>1539</ele>
        <time>2026-05-25T11:20:19.000Z</time>
      </trkpt>
      <trkpt lat="44.64392" lon="5.19988">
        <ele>1539</ele>
        <time>2026-05-25T11:20:20.000Z</time>
      </trkpt>
      <trkpt lat="44.64392" lon="5.19987">
        <ele>1538</ele>
        <time>2026-05-25T11:20:21.000Z</time>
      </trkpt>
      <trkpt lat="44.64391" lon="5.19985">
        <ele>1538</ele>
        <time>2026-05-25T11:20:22.000Z</time>
      </trkpt>
      <trkpt lat="44.64391" lon="5.19983">
        <ele>1538</ele>
        <time>2026-05-25T11:20:23.000Z</time>
      </trkpt>
      <trkpt lat="44.6439" lon="5.19982">
        <ele>1538</ele>
        <time>2026-05-25T11:20:24.000Z</time>
      </trkpt>
      <trkpt lat="44.6439" lon="5.1998">
        <ele>1538</ele>
        <time>2026-05-25T11:20:25.000Z</time>
      </trkpt>
      <trkpt lat="44.6439" lon="5.19978">
        <ele>1538</ele>
        <time>2026-05-25T11:20:26.000Z</time>
      </trkpt>
      <trkpt lat="44.64389" lon="5.19977">
        <ele>1538</ele>
        <time>2026-05-25T11:20:27.000Z</time>
      </trkpt>
      <trkpt lat="44.64389" lon="5.19975">
        <ele>1537</ele>
        <time>2026-05-25T11:20:28.000Z</time>
      </trkpt>
      <trkpt lat="44.64388" lon="5.19974">
        <ele>1537</ele>
        <time>2026-05-25T11:20:29.000Z</time>
      </trkpt>
      <trkpt lat="44.64388" lon="5.19972">
        <ele>1537</ele>
        <time>2026-05-25T11:20:30.000Z</time>
      </trkpt>
      <trkpt lat="44.64387" lon="5.19971">
        <ele>1536</ele>
        <time>2026-05-25T11:20:31.000Z</time>
      </trkpt>
      <trkpt lat="44.64387" lon="5.1997">
        <ele>1535</ele>
        <time>2026-05-25T11:20:32.000Z</time>
      </trkpt>
      <trkpt lat="44.64386" lon="5.19969">
        <ele>1535</ele>
        <time>2026-05-25T11:20:33.000Z</time>
      </trkpt>
      <trkpt lat="44.64386" lon="5.19967">
        <ele>1535</ele>
        <time>2026-05-25T11:20:34.000Z</time>
      </trkpt>
      <trkpt lat="44.64386" lon="5.19966">
        <ele>1535</ele>
        <time>2026-05-25T11:20:35.000Z</time>
      </trkpt>
      <trkpt lat="44.64385" lon="5.19965">
        <ele>1535</ele>
        <time>2026-05-25T11:20:36.000Z</time>
      </trkpt>
      <trkpt lat="44.64385" lon="5.19963">
        <ele>1535</ele>
        <time>2026-05-25T11:20:37.000Z</time>
      </trkpt>
      <trkpt lat="44.64385" lon="5.19961">
        <ele>1535</ele>
        <time>2026-05-25T11:20:38.000Z</time>
      </trkpt>
      <trkpt lat="44.64384" lon="5.19959">
        <ele>1534</ele>
        <time>2026-05-25T11:20:39.000Z</time>
      </trkpt>
      <trkpt lat="44.64384" lon="5.19958">
        <ele>1534</ele>
        <time>2026-05-25T11:20:40.000Z</time>
      </trkpt>
      <trkpt lat="44.64383" lon="5.19956">
        <ele>1533</ele>
        <time>2026-05-25T11:20:41.000Z</time>
      </trkpt>
      <trkpt lat="44.64383" lon="5.19955">
        <ele>1533</ele>
        <time>2026-05-25T11:20:42.000Z</time>
      </trkpt>
      <trkpt lat="44.64382" lon="5.19954">
        <ele>1533</ele>
        <time>2026-05-25T11:20:43.000Z</time>
      </trkpt>
      <trkpt lat="44.64382" lon="5.19953">
        <ele>1533</ele>
        <time>2026-05-25T11:20:44.000Z</time>
      </trkpt>
      <trkpt lat="44.64382" lon="5.19951">
        <ele>1533</ele>
        <time>2026-05-25T11:20:45.000Z</time>
      </trkpt>
      <trkpt lat="44.64381" lon="5.1995">
        <ele>1533</ele>
        <time>2026-05-25T11:20:46.000Z</time>
      </trkpt>
      <trkpt lat="44.64381" lon="5.19949">
        <ele>1533</ele>
        <time>2026-05-25T11:20:47.000Z</time>
      </trkpt>
      <trkpt lat="44.64381" lon="5.19948">
        <ele>1533</ele>
        <time>2026-05-25T11:20:48.000Z</time>
      </trkpt>
      <trkpt lat="44.64381" lon="5.19947">
        <ele>1533</ele>
        <time>2026-05-25T11:20:49.000Z</time>
      </trkpt>
      <trkpt lat="44.64381" lon="5.19945">
        <ele>1534</ele>
        <time>2026-05-25T11:20:50.000Z</time>
      </trkpt>
      <trkpt lat="44.6438" lon="5.19944">
        <ele>1534</ele>
        <time>2026-05-25T11:20:51.000Z</time>
      </trkpt>
      <trkpt lat="44.64379" lon="5.19942">
        <ele>1534</ele>
        <time>2026-05-25T11:20:52.000Z</time>
      </trkpt>
      <trkpt lat="44.64379" lon="5.1994">
        <ele>1534</ele>
        <time>2026-05-25T11:20:53.000Z</time>
      </trkpt>
      <trkpt lat="44.64378" lon="5.19938">
        <ele>1534</ele>
        <time>2026-05-25T11:20:54.000Z</time>
      </trkpt>
      <trkpt lat="44.64378" lon="5.19936">
        <ele>1534</ele>
        <time>2026-05-25T11:20:55.000Z</time>
      </trkpt>
      <trkpt lat="44.64377" lon="5.19934">
        <ele>1534</ele>
        <time>2026-05-25T11:20:56.000Z</time>
      </trkpt>
      <trkpt lat="44.64377" lon="5.19933">
        <ele>1534</ele>
        <time>2026-05-25T11:20:57.000Z</time>
      </trkpt>
      <trkpt lat="44.64376" lon="5.19932">
        <ele>1534</ele>
        <time>2026-05-25T11:20:58.000Z</time>
      </trkpt>
      <trkpt lat="44.64376" lon="5.1993">
        <ele>1534</ele>
        <time>2026-05-25T11:20:59.000Z</time>
      </trkpt>
      <trkpt lat="44.64376" lon="5.19929">
        <ele>1534</ele>
        <time>2026-05-25T11:21:00.000Z</time>
      </trkpt>
      <trkpt lat="44.64375" lon="5.19927">
        <ele>1533</ele>
        <time>2026-05-25T11:21:01.000Z</time>
      </trkpt>
      <trkpt lat="44.64375" lon="5.19925">
        <ele>1534</ele>
        <time>2026-05-25T11:21:02.000Z</time>
      </trkpt>
      <trkpt lat="44.64374" lon="5.19924">
        <ele>1533</ele>
        <time>2026-05-25T11:21:03.000Z</time>
      </trkpt>
      <trkpt lat="44.64374" lon="5.19923">
        <ele>1533</ele>
        <time>2026-05-25T11:21:04.000Z</time>
      </trkpt>
      <trkpt lat="44.64373" lon="5.19922">
        <ele>1532</ele>
        <time>2026-05-25T11:21:05.000Z</time>
      </trkpt>
      <trkpt lat="44.64372" lon="5.1992">
        <ele>1532</ele>
        <time>2026-05-25T11:21:06.000Z</time>
      </trkpt>
      <trkpt lat="44.64372" lon="5.19919">
        <ele>1531</ele>
        <time>2026-05-25T11:21:07.000Z</time>
      </trkpt>
      <trkpt lat="44.64372" lon="5.19917">
        <ele>1530</ele>
        <time>2026-05-25T11:21:08.000Z</time>
      </trkpt>
      <trkpt lat="44.64371" lon="5.19916">
        <ele>1529</ele>
        <time>2026-05-25T11:21:09.000Z</time>
      </trkpt>
      <trkpt lat="44.64371" lon="5.19914">
        <ele>1529</ele>
        <time>2026-05-25T11:21:10.000Z</time>
      </trkpt>
      <trkpt lat="44.64371" lon="5.19912">
        <ele>1529</ele>
        <time>2026-05-25T11:21:11.000Z</time>
      </trkpt>
      <trkpt lat="44.6437" lon="5.19911">
        <ele>1528</ele>
        <time>2026-05-25T11:21:12.000Z</time>
      </trkpt>
      <trkpt lat="44.6437" lon="5.19909">
        <ele>1528</ele>
        <time>2026-05-25T11:21:13.000Z</time>
      </trkpt>
      <trkpt lat="44.64369" lon="5.19908">
        <ele>1528</ele>
        <time>2026-05-25T11:21:14.000Z</time>
      </trkpt>
      <trkpt lat="44.64369" lon="5.19906">
        <ele>1528</ele>
        <time>2026-05-25T11:21:15.000Z</time>
      </trkpt>
      <trkpt lat="44.64368" lon="5.19905">
        <ele>1528</ele>
        <time>2026-05-25T11:21:16.000Z</time>
      </trkpt>
      <trkpt lat="44.64367" lon="5.19903">
        <ele>1528</ele>
        <time>2026-05-25T11:21:17.000Z</time>
      </trkpt>
      <trkpt lat="44.64367" lon="5.19902">
        <ele>1528</ele>
        <time>2026-05-25T11:21:18.000Z</time>
      </trkpt>
      <trkpt lat="44.64367" lon="5.19901">
        <ele>1527</ele>
        <time>2026-05-25T11:21:19.000Z</time>
      </trkpt>
      <trkpt lat="44.64368" lon="5.199">
        <ele>1526</ele>
        <time>2026-05-25T11:21:20.000Z</time>
      </trkpt>
      <trkpt lat="44.64368" lon="5.19901">
        <ele>1525</ele>
        <time>2026-05-25T11:21:21.000Z</time>
      </trkpt>
      <trkpt lat="44.64369" lon="5.19902">
        <ele>1525</ele>
        <time>2026-05-25T11:21:22.000Z</time>
      </trkpt>
      <trkpt lat="44.6437" lon="5.19903">
        <ele>1525</ele>
        <time>2026-05-25T11:21:23.000Z</time>
      </trkpt>
      <trkpt lat="44.64371" lon="5.19903">
        <ele>1525</ele>
        <time>2026-05-25T11:21:24.000Z</time>
      </trkpt>
      <trkpt lat="44.64372" lon="5.19904">
        <ele>1525</ele>
        <time>2026-05-25T11:21:25.000Z</time>
      </trkpt>
      <trkpt lat="44.64374" lon="5.19904">
        <ele>1525</ele>
        <time>2026-05-25T11:21:26.000Z</time>
      </trkpt>
      <trkpt lat="44.64375" lon="5.19906">
        <ele>1525</ele>
        <time>2026-05-25T11:21:27.000Z</time>
      </trkpt>
      <trkpt lat="44.64377" lon="5.19907">
        <ele>1525</ele>
        <time>2026-05-25T11:21:28.000Z</time>
      </trkpt>
      <trkpt lat="44.64378" lon="5.19908">
        <ele>1524</ele>
        <time>2026-05-25T11:21:29.000Z</time>
      </trkpt>
      <trkpt lat="44.64379" lon="5.1991">
        <ele>1524</ele>
        <time>2026-05-25T11:21:30.000Z</time>
      </trkpt>
      <trkpt lat="44.6438" lon="5.19911">
        <ele>1524</ele>
        <time>2026-05-25T11:21:31.000Z</time>
      </trkpt>
      <trkpt lat="44.64381" lon="5.19911">
        <ele>1524</ele>
        <time>2026-05-25T11:21:32.000Z</time>
      </trkpt>
      <trkpt lat="44.64382" lon="5.19912">
        <ele>1523</ele>
        <time>2026-05-25T11:21:33.000Z</time>
      </trkpt>
      <trkpt lat="44.64383" lon="5.19912">
        <ele>1523</ele>
        <time>2026-05-25T11:21:34.000Z</time>
      </trkpt>
      <trkpt lat="44.64383" lon="5.19913">
        <ele>1523</ele>
        <time>2026-05-25T11:21:35.000Z</time>
      </trkpt>
      <trkpt lat="44.64384" lon="5.19913">
        <ele>1523</ele>
        <time>2026-05-25T11:21:36.000Z</time>
      </trkpt>
      <trkpt lat="44.64384" lon="5.19914">
        <ele>1522</ele>
        <time>2026-05-25T11:21:37.000Z</time>
      </trkpt>
      <trkpt lat="44.64385" lon="5.19915">
        <ele>1521</ele>
        <time>2026-05-25T11:21:38.000Z</time>
      </trkpt>
      <trkpt lat="44.64386" lon="5.19915">
        <ele>1521</ele>
        <time>2026-05-25T11:21:39.000Z</time>
      </trkpt>
      <trkpt lat="44.64387" lon="5.19916">
        <ele>1521</ele>
        <time>2026-05-25T11:21:40.000Z</time>
      </trkpt>
      <trkpt lat="44.64388" lon="5.19916">
        <ele>1521</ele>
        <time>2026-05-25T11:21:41.000Z</time>
      </trkpt>
      <trkpt lat="44.64389" lon="5.19917">
        <ele>1521</ele>
        <time>2026-05-25T11:21:42.000Z</time>
      </trkpt>
      <trkpt lat="44.6439" lon="5.19918">
        <ele>1521</ele>
        <time>2026-05-25T11:21:43.000Z</time>
      </trkpt>
      <trkpt lat="44.64391" lon="5.19919">
        <ele>1521</ele>
        <time>2026-05-25T11:21:44.000Z</time>
      </trkpt>
      <trkpt lat="44.64392" lon="5.1992">
        <ele>1520</ele>
        <time>2026-05-25T11:21:45.000Z</time>
      </trkpt>
      <trkpt lat="44.64394" lon="5.19922">
        <ele>1520</ele>
        <time>2026-05-25T11:21:46.000Z</time>
      </trkpt>
      <trkpt lat="44.64395" lon="5.19923">
        <ele>1519</ele>
        <time>2026-05-25T11:21:47.000Z</time>
      </trkpt>
      <trkpt lat="44.64396" lon="5.19923">
        <ele>1519</ele>
        <time>2026-05-25T11:21:48.000Z</time>
      </trkpt>
      <trkpt lat="44.64398" lon="5.19924">
        <ele>1519</ele>
        <time>2026-05-25T11:21:49.000Z</time>
      </trkpt>
      <trkpt lat="44.64399" lon="5.19924">
        <ele>1519</ele>
        <time>2026-05-25T11:21:50.000Z</time>
      </trkpt>
      <trkpt lat="44.644" lon="5.19924">
        <ele>1520</ele>
        <time>2026-05-25T11:21:51.000Z</time>
      </trkpt>
      <trkpt lat="44.64401" lon="5.19925">
        <ele>1519</ele>
        <time>2026-05-25T11:21:52.000Z</time>
      </trkpt>
      <trkpt lat="44.64402" lon="5.19925">
        <ele>1519</ele>
        <time>2026-05-25T11:21:53.000Z</time>
      </trkpt>
      <trkpt lat="44.64403" lon="5.19925">
        <ele>1519</ele>
        <time>2026-05-25T11:21:54.000Z</time>
      </trkpt>
      <trkpt lat="44.64403" lon="5.19926">
        <ele>1519</ele>
        <time>2026-05-25T11:21:55.000Z</time>
      </trkpt>
      <trkpt lat="44.64404" lon="5.19927">
        <ele>1519</ele>
        <time>2026-05-25T11:21:56.000Z</time>
      </trkpt>
      <trkpt lat="44.64406" lon="5.19928">
        <ele>1519</ele>
        <time>2026-05-25T11:21:57.000Z</time>
      </trkpt>
      <trkpt lat="44.64406" lon="5.19928">
        <ele>1518</ele>
        <time>2026-05-25T11:21:58.000Z</time>
      </trkpt>
      <trkpt lat="44.64407" lon="5.19928">
        <ele>1518</ele>
        <time>2026-05-25T11:21:59.000Z</time>
      </trkpt>
      <trkpt lat="44.64408" lon="5.19929">
        <ele>1517</ele>
        <time>2026-05-25T11:22:00.000Z</time>
      </trkpt>
      <trkpt lat="44.64409" lon="5.19929">
        <ele>1517</ele>
        <time>2026-05-25T11:22:01.000Z</time>
      </trkpt>
      <trkpt lat="44.6441" lon="5.1993">
        <ele>1518</ele>
        <time>2026-05-25T11:22:02.000Z</time>
      </trkpt>
      <trkpt lat="44.64411" lon="5.19931">
        <ele>1518</ele>
        <time>2026-05-25T11:22:03.000Z</time>
      </trkpt>
      <trkpt lat="44.64412" lon="5.19932">
        <ele>1518</ele>
        <time>2026-05-25T11:22:04.000Z</time>
      </trkpt>
      <trkpt lat="44.64413" lon="5.19932">
        <ele>1518</ele>
        <time>2026-05-25T11:22:05.000Z</time>
      </trkpt>
      <trkpt lat="44.64414" lon="5.19934">
        <ele>1518</ele>
        <time>2026-05-25T11:22:06.000Z</time>
      </trkpt>
      <trkpt lat="44.64415" lon="5.19934">
        <ele>1517</ele>
        <time>2026-05-25T11:22:07.000Z</time>
      </trkpt>
      <trkpt lat="44.64417" lon="5.19934">
        <ele>1517</ele>
        <time>2026-05-25T11:22:08.000Z</time>
      </trkpt>
      <trkpt lat="44.64418" lon="5.19934">
        <ele>1517</ele>
        <time>2026-05-25T11:22:09.000Z</time>
      </trkpt>
      <trkpt lat="44.64419" lon="5.19934">
        <ele>1517</ele>
        <time>2026-05-25T11:22:10.000Z</time>
      </trkpt>
      <trkpt lat="44.6442" lon="5.19934">
        <ele>1517</ele>
        <time>2026-05-25T11:22:11.000Z</time>
      </trkpt>
      <trkpt lat="44.64421" lon="5.19935">
        <ele>1516</ele>
        <time>2026-05-25T11:22:12.000Z</time>
      </trkpt>
      <trkpt lat="44.64422" lon="5.19936">
        <ele>1516</ele>
        <time>2026-05-25T11:22:13.000Z</time>
      </trkpt>
      <trkpt lat="44.64423" lon="5.19937">
        <ele>1516</ele>
        <time>2026-05-25T11:22:14.000Z</time>
      </trkpt>
      <trkpt lat="44.64424" lon="5.19937">
        <ele>1516</ele>
        <time>2026-05-25T11:22:15.000Z</time>
      </trkpt>
      <trkpt lat="44.64425" lon="5.19937">
        <ele>1516</ele>
        <time>2026-05-25T11:22:16.000Z</time>
      </trkpt>
      <trkpt lat="44.64426" lon="5.19938">
        <ele>1515</ele>
        <time>2026-05-25T11:22:17.000Z</time>
      </trkpt>
      <trkpt lat="44.64427" lon="5.19939">
        <ele>1514</ele>
        <time>2026-05-25T11:22:18.000Z</time>
      </trkpt>
      <trkpt lat="44.64428" lon="5.1994">
        <ele>1514</ele>
        <time>2026-05-25T11:22:19.000Z</time>
      </trkpt>
      <trkpt lat="44.64429" lon="5.19941">
        <ele>1514</ele>
        <time>2026-05-25T11:22:20.000Z</time>
      </trkpt>
      <trkpt lat="44.6443" lon="5.19942">
        <ele>1514</ele>
        <time>2026-05-25T11:22:21.000Z</time>
      </trkpt>
      <trkpt lat="44.64431" lon="5.19943">
        <ele>1514</ele>
        <time>2026-05-25T11:22:22.000Z</time>
      </trkpt>
      <trkpt lat="44.64432" lon="5.19944">
        <ele>1513</ele>
        <time>2026-05-25T11:22:23.000Z</time>
      </trkpt>
      <trkpt lat="44.64433" lon="5.19944">
        <ele>1513</ele>
        <time>2026-05-25T11:22:24.000Z</time>
      </trkpt>
      <trkpt lat="44.64434" lon="5.19943">
        <ele>1513</ele>
        <time>2026-05-25T11:22:25.000Z</time>
      </trkpt>
      <trkpt lat="44.64435" lon="5.19943">
        <ele>1513</ele>
        <time>2026-05-25T11:22:26.000Z</time>
      </trkpt>
      <trkpt lat="44.64436" lon="5.19943">
        <ele>1513</ele>
        <time>2026-05-25T11:22:27.000Z</time>
      </trkpt>
      <trkpt lat="44.64437" lon="5.19943">
        <ele>1513</ele>
        <time>2026-05-25T11:22:28.000Z</time>
      </trkpt>
      <trkpt lat="44.64438" lon="5.19943">
        <ele>1513</ele>
        <time>2026-05-25T11:22:29.000Z</time>
      </trkpt>
      <trkpt lat="44.64439" lon="5.19944">
        <ele>1513</ele>
        <time>2026-05-25T11:22:30.000Z</time>
      </trkpt>
      <trkpt lat="44.6444" lon="5.19946">
        <ele>1513</ele>
        <time>2026-05-25T11:22:31.000Z</time>
      </trkpt>
      <trkpt lat="44.64441" lon="5.19946">
        <ele>1513</ele>
        <time>2026-05-25T11:22:32.000Z</time>
      </trkpt>
      <trkpt lat="44.64442" lon="5.19947">
        <ele>1513</ele>
        <time>2026-05-25T11:22:33.000Z</time>
      </trkpt>
      <trkpt lat="44.64443" lon="5.19947">
        <ele>1512</ele>
        <time>2026-05-25T11:22:34.000Z</time>
      </trkpt>
      <trkpt lat="44.64444" lon="5.19947">
        <ele>1512</ele>
        <time>2026-05-25T11:22:35.000Z</time>
      </trkpt>
      <trkpt lat="44.64445" lon="5.19948">
        <ele>1512</ele>
        <time>2026-05-25T11:22:36.000Z</time>
      </trkpt>
      <trkpt lat="44.64446" lon="5.19948">
        <ele>1511</ele>
        <time>2026-05-25T11:22:37.000Z</time>
      </trkpt>
      <trkpt lat="44.64447" lon="5.19948">
        <ele>1511</ele>
        <time>2026-05-25T11:22:38.000Z</time>
      </trkpt>
      <trkpt lat="44.64448" lon="5.19948">
        <ele>1511</ele>
        <time>2026-05-25T11:22:39.000Z</time>
      </trkpt>
      <trkpt lat="44.64449" lon="5.19948">
        <ele>1511</ele>
        <time>2026-05-25T11:22:40.000Z</time>
      </trkpt>
      <trkpt lat="44.6445" lon="5.19948">
        <ele>1511</ele>
        <time>2026-05-25T11:22:41.000Z</time>
      </trkpt>
      <trkpt lat="44.64452" lon="5.19949">
        <ele>1511</ele>
        <time>2026-05-25T11:22:42.000Z</time>
      </trkpt>
      <trkpt lat="44.64453" lon="5.1995">
        <ele>1511</ele>
        <time>2026-05-25T11:22:43.000Z</time>
      </trkpt>
      <trkpt lat="44.64454" lon="5.1995">
        <ele>1510</ele>
        <time>2026-05-25T11:22:44.000Z</time>
      </trkpt>
      <trkpt lat="44.64455" lon="5.1995">
        <ele>1510</ele>
        <time>2026-05-25T11:22:45.000Z</time>
      </trkpt>
      <trkpt lat="44.64457" lon="5.19951">
        <ele>1509</ele>
        <time>2026-05-25T11:22:46.000Z</time>
      </trkpt>
      <trkpt lat="44.64457" lon="5.19951">
        <ele>1508</ele>
        <time>2026-05-25T11:22:47.000Z</time>
      </trkpt>
      <trkpt lat="44.64458" lon="5.19951">
        <ele>1508</ele>
        <time>2026-05-25T11:22:48.000Z</time>
      </trkpt>
      <trkpt lat="44.64459" lon="5.19951">
        <ele>1508</ele>
        <time>2026-05-25T11:22:49.000Z</time>
      </trkpt>
      <trkpt lat="44.6446" lon="5.19952">
        <ele>1507</ele>
        <time>2026-05-25T11:22:50.000Z</time>
      </trkpt>
      <trkpt lat="44.64462" lon="5.19953">
        <ele>1507</ele>
        <time>2026-05-25T11:22:51.000Z</time>
      </trkpt>
      <trkpt lat="44.64463" lon="5.19954">
        <ele>1507</ele>
        <time>2026-05-25T11:22:52.000Z</time>
      </trkpt>
      <trkpt lat="44.64464" lon="5.19953">
        <ele>1507</ele>
        <time>2026-05-25T11:22:53.000Z</time>
      </trkpt>
      <trkpt lat="44.64465" lon="5.19952">
        <ele>1507</ele>
        <time>2026-05-25T11:22:54.000Z</time>
      </trkpt>
      <trkpt lat="44.64465" lon="5.19951">
        <ele>1506</ele>
        <time>2026-05-25T11:22:55.000Z</time>
      </trkpt>
      <trkpt lat="44.64466" lon="5.1995">
        <ele>1506</ele>
        <time>2026-05-25T11:22:56.000Z</time>
      </trkpt>
      <trkpt lat="44.64467" lon="5.19949">
        <ele>1506</ele>
        <time>2026-05-25T11:22:57.000Z</time>
      </trkpt>
      <trkpt lat="44.64469" lon="5.19949">
        <ele>1506</ele>
        <time>2026-05-25T11:22:58.000Z</time>
      </trkpt>
      <trkpt lat="44.6447" lon="5.19949">
        <ele>1506</ele>
        <time>2026-05-25T11:22:59.000Z</time>
      </trkpt>
      <trkpt lat="44.64471" lon="5.19948">
        <ele>1506</ele>
        <time>2026-05-25T11:23:00.000Z</time>
      </trkpt>
      <trkpt lat="44.64472" lon="5.19948">
        <ele>1505</ele>
        <time>2026-05-25T11:23:01.000Z</time>
      </trkpt>
      <trkpt lat="44.64473" lon="5.19949">
        <ele>1505</ele>
        <time>2026-05-25T11:23:02.000Z</time>
      </trkpt>
      <trkpt lat="44.64474" lon="5.19949">
        <ele>1504</ele>
        <time>2026-05-25T11:23:03.000Z</time>
      </trkpt>
      <trkpt lat="44.64475" lon="5.1995">
        <ele>1505</ele>
        <time>2026-05-25T11:23:04.000Z</time>
      </trkpt>
      <trkpt lat="44.64477" lon="5.1995">
        <ele>1505</ele>
        <time>2026-05-25T11:23:05.000Z</time>
      </trkpt>
      <trkpt lat="44.64478" lon="5.1995">
        <ele>1504</ele>
        <time>2026-05-25T11:23:06.000Z</time>
      </trkpt>
      <trkpt lat="44.64478" lon="5.1995">
        <ele>1505</ele>
        <time>2026-05-25T11:23:07.000Z</time>
      </trkpt>
      <trkpt lat="44.64479" lon="5.19951">
        <ele>1505</ele>
        <time>2026-05-25T11:23:08.000Z</time>
      </trkpt>
      <trkpt lat="44.6448" lon="5.19953">
        <ele>1504</ele>
        <time>2026-05-25T11:23:09.000Z</time>
      </trkpt>
      <trkpt lat="44.6448" lon="5.19954">
        <ele>1504</ele>
        <time>2026-05-25T11:23:10.000Z</time>
      </trkpt>
      <trkpt lat="44.6448" lon="5.19955">
        <ele>1504</ele>
        <time>2026-05-25T11:23:11.000Z</time>
      </trkpt>
      <trkpt lat="44.6448" lon="5.19956">
        <ele>1503</ele>
        <time>2026-05-25T11:23:12.000Z</time>
      </trkpt>
      <trkpt lat="44.64481" lon="5.19958">
        <ele>1503</ele>
        <time>2026-05-25T11:23:13.000Z</time>
      </trkpt>
      <trkpt lat="44.64481" lon="5.19959">
        <ele>1502</ele>
        <time>2026-05-25T11:23:14.000Z</time>
      </trkpt>
      <trkpt lat="44.64481" lon="5.1996">
        <ele>1502</ele>
        <time>2026-05-25T11:23:15.000Z</time>
      </trkpt>
      <trkpt lat="44.64482" lon="5.19962">
        <ele>1502</ele>
        <time>2026-05-25T11:23:16.000Z</time>
      </trkpt>
      <trkpt lat="44.64482" lon="5.19963">
        <ele>1502</ele>
        <time>2026-05-25T11:23:17.000Z</time>
      </trkpt>
      <trkpt lat="44.64482" lon="5.19964">
        <ele>1501</ele>
        <time>2026-05-25T11:23:18.000Z</time>
      </trkpt>
      <trkpt lat="44.64482" lon="5.19964">
        <ele>1501</ele>
        <time>2026-05-25T11:23:19.000Z</time>
      </trkpt>
      <trkpt lat="44.64482" lon="5.19964">
        <ele>1502</ele>
        <time>2026-05-25T11:23:20.000Z</time>
      </trkpt>
      <trkpt lat="44.64482" lon="5.19964">
        <ele>1502</ele>
        <time>2026-05-25T11:23:21.000Z</time>
      </trkpt>
      <trkpt lat="44.64482" lon="5.19964">
        <ele>1502</ele>
        <time>2026-05-25T11:23:22.000Z</time>
      </trkpt>
      <trkpt lat="44.64482" lon="5.19962">
        <ele>1504</ele>
        <time>2026-05-25T11:23:23.000Z</time>
      </trkpt>
      <trkpt lat="44.64483" lon="5.1996">
        <ele>1503</ele>
        <time>2026-05-25T11:23:24.000Z</time>
      </trkpt>
      <trkpt lat="44.64483" lon="5.19958">
        <ele>1502</ele>
        <time>2026-05-25T11:23:25.000Z</time>
      </trkpt>
      <trkpt lat="44.64483" lon="5.19957">
        <ele>1502</ele>
        <time>2026-05-25T11:23:26.000Z</time>
      </trkpt>
      <trkpt lat="44.64483" lon="5.19956">
        <ele>1502</ele>
        <time>2026-05-25T11:23:27.000Z</time>
      </trkpt>
      <trkpt lat="44.64483" lon="5.19954">
        <ele>1502</ele>
        <time>2026-05-25T11:23:28.000Z</time>
      </trkpt>
      <trkpt lat="44.64483" lon="5.19953">
        <ele>1502</ele>
        <time>2026-05-25T11:23:29.000Z</time>
      </trkpt>
      <trkpt lat="44.64484" lon="5.19952">
        <ele>1502</ele>
        <time>2026-05-25T11:23:30.000Z</time>
      </trkpt>
      <trkpt lat="44.64484" lon="5.19951">
        <ele>1502</ele>
        <time>2026-05-25T11:23:31.000Z</time>
      </trkpt>
      <trkpt lat="44.64484" lon="5.19949">
        <ele>1502</ele>
        <time>2026-05-25T11:23:32.000Z</time>
      </trkpt>
      <trkpt lat="44.64484" lon="5.19948">
        <ele>1502</ele>
        <time>2026-05-25T11:23:33.000Z</time>
      </trkpt>
      <trkpt lat="44.64484" lon="5.19947">
        <ele>1502</ele>
        <time>2026-05-25T11:23:34.000Z</time>
      </trkpt>
      <trkpt lat="44.64485" lon="5.19947">
        <ele>1502</ele>
        <time>2026-05-25T11:23:35.000Z</time>
      </trkpt>
      <trkpt lat="44.64486" lon="5.19946">
        <ele>1502</ele>
        <time>2026-05-25T11:23:36.000Z</time>
      </trkpt>
      <trkpt lat="44.64486" lon="5.19946">
        <ele>1502</ele>
        <time>2026-05-25T11:23:37.000Z</time>
      </trkpt>
      <trkpt lat="44.64487" lon="5.19946">
        <ele>1502</ele>
        <time>2026-05-25T11:23:38.000Z</time>
      </trkpt>
      <trkpt lat="44.64488" lon="5.19946">
        <ele>1503</ele>
        <time>2026-05-25T11:23:39.000Z</time>
      </trkpt>
      <trkpt lat="44.64489" lon="5.19946">
        <ele>1503</ele>
        <time>2026-05-25T11:23:40.000Z</time>
      </trkpt>
      <trkpt lat="44.64489" lon="5.19947">
        <ele>1502</ele>
        <time>2026-05-25T11:23:41.000Z</time>
      </trkpt>
      <trkpt lat="44.64489" lon="5.19948">
        <ele>1502</ele>
        <time>2026-05-25T11:23:42.000Z</time>
      </trkpt>
      <trkpt lat="44.6449" lon="5.19949">
        <ele>1502</ele>
        <time>2026-05-25T11:23:43.000Z</time>
      </trkpt>
      <trkpt lat="44.6449" lon="5.19949">
        <ele>1502</ele>
        <time>2026-05-25T11:23:44.000Z</time>
      </trkpt>
      <trkpt lat="44.6449" lon="5.19949">
        <ele>1502</ele>
        <time>2026-05-25T11:23:45.000Z</time>
      </trkpt>
      <trkpt lat="44.6449" lon="5.19949">
        <ele>1503</ele>
        <time>2026-05-25T11:23:46.000Z</time>
      </trkpt>
      <trkpt lat="44.6449" lon="5.19948">
        <ele>1503</ele>
        <time>2026-05-25T11:23:47.000Z</time>
      </trkpt>
      <trkpt lat="44.64491" lon="5.19947">
        <ele>1503</ele>
        <time>2026-05-25T11:23:48.000Z</time>
      </trkpt>
      <trkpt lat="44.64491" lon="5.19947">
        <ele>1504</ele>
        <time>2026-05-25T11:23:49.000Z</time>
      </trkpt>
      <trkpt lat="44.64491" lon="5.19946">
        <ele>1504</ele>
        <time>2026-05-25T11:23:50.000Z</time>
      </trkpt>
      <trkpt lat="44.64491" lon="5.19946">
        <ele>1504</ele>
        <time>2026-05-25T11:23:51.000Z</time>
      </trkpt>
      <trkpt lat="44.64491" lon="5.19946">
        <ele>1504</ele>
        <time>2026-05-25T11:23:52.000Z</time>
      </trkpt>
      <trkpt lat="44.64491" lon="5.19946">
        <ele>1504</ele>
        <time>2026-05-25T11:23:53.000Z</time>
      </trkpt>
      <trkpt lat="44.64491" lon="5.19946">
        <ele>1504</ele>
        <time>2026-05-25T11:23:54.000Z</time>
      </trkpt>
      <trkpt lat="44.64491" lon="5.19946">
        <ele>1504</ele>
        <time>2026-05-25T11:23:55.000Z</time>
      </trkpt>
      <trkpt lat="44.64491" lon="5.19946">
        <ele>1504</ele>
        <time>2026-05-25T11:23:56.000Z</time>
      </trkpt>
      <trkpt lat="44.64491" lon="5.19946">
        <ele>1504</ele>
        <time>2026-05-25T11:23:57.000Z</time>
      </trkpt>
      <trkpt lat="44.64491" lon="5.19946">
        <ele>1504</ele>
        <time>2026-05-25T11:23:58.000Z</time>
      </trkpt>
      <trkpt lat="44.64491" lon="5.19946">
        <ele>1504</ele>
        <time>2026-05-25T11:23:59.000Z</time>
      </trkpt>
      <trkpt lat="44.64491" lon="5.19946">
        <ele>1504</ele>
        <time>2026-05-25T11:24:00.000Z</time>
      </trkpt>
      <trkpt lat="44.64491" lon="5.19946">
        <ele>1504</ele>
        <time>2026-05-25T11:24:01.000Z</time>
      </trkpt>
      <trkpt lat="44.64491" lon="5.19946">
        <ele>1504</ele>
        <time>2026-05-25T11:24:02.000Z</time>
      </trkpt>
      <trkpt lat="44.64491" lon="5.19946">
        <ele>1504</ele>
        <time>2026-05-25T11:24:03.000Z</time>
      </trkpt>
      <trkpt lat="44.64491" lon="5.19946">
        <ele>1504</ele>
        <time>2026-05-25T11:24:04.000Z</time>
      </trkpt>
      <trkpt lat="44.64491" lon="5.19946">
        <ele>1504</ele>
        <time>2026-05-25T11:24:05.000Z</time>
      </trkpt>
      <trkpt lat="44.64491" lon="5.19946">
        <ele>1504</ele>
        <time>2026-05-25T11:24:06.000Z</time>
      </trkpt>
      <trkpt lat="44.64491" lon="5.19946">
        <ele>1504</ele>
        <time>2026-05-25T11:24:07.000Z</time>
      </trkpt>
      <trkpt lat="44.64491" lon="5.19946">
        <ele>1504</ele>
        <time>2026-05-25T11:24:08.000Z</time>
      </trkpt>
      <trkpt lat="44.64491" lon="5.19946">
        <ele>1504</ele>
        <time>2026-05-25T11:24:09.000Z</time>
      </trkpt>
      <trkpt lat="44.64491" lon="5.19946">
        <ele>1504</ele>
        <time>2026-05-25T11:24:10.000Z</time>
      </trkpt>
      <trkpt lat="44.64491" lon="5.19946">
        <ele>1504</ele>
        <time>2026-05-25T11:24:11.000Z</time>
      </trkpt>
      <trkpt lat="44.64491" lon="5.19946">
        <ele>1504</ele>
        <time>2026-05-25T11:24:12.000Z</time>
      </trkpt>
      <trkpt lat="44.64491" lon="5.19946">
        <ele>1504</ele>
        <time>2026-05-25T11:24:13.000Z</time>
      </trkpt>
      <trkpt lat="44.64491" lon="5.19946">
        <ele>1504</ele>
        <time>2026-05-25T11:24:14.000Z</time>
      </trkpt>
      <trkpt lat="44.64491" lon="5.19947">
        <ele>1504</ele>
        <time>2026-05-25T11:24:15.000Z</time>
      </trkpt>
      <trkpt lat="44.64491" lon="5.19948">
        <ele>1504</ele>
        <time>2026-05-25T11:24:16.000Z</time>
      </trkpt>
      <trkpt lat="44.64492" lon="5.19949">
        <ele>1503</ele>
        <time>2026-05-25T11:24:17.000Z</time>
      </trkpt>
      <trkpt lat="44.64492" lon="5.1995">
        <ele>1503</ele>
        <time>2026-05-25T11:24:18.000Z</time>
      </trkpt>
      <trkpt lat="44.64492" lon="5.19951">
        <ele>1503</ele>
        <time>2026-05-25T11:24:19.000Z</time>
      </trkpt>
      <trkpt lat="44.64491" lon="5.19952">
        <ele>1503</ele>
        <time>2026-05-25T11:24:20.000Z</time>
      </trkpt>
      <trkpt lat="44.64491" lon="5.19951">
        <ele>1504</ele>
        <time>2026-05-25T11:24:21.000Z</time>
      </trkpt>
      <trkpt lat="44.64492" lon="5.19951">
        <ele>1504</ele>
        <time>2026-05-25T11:24:22.000Z</time>
      </trkpt>
      <trkpt lat="44.64492" lon="5.19951">
        <ele>1504</ele>
        <time>2026-05-25T11:24:23.000Z</time>
      </trkpt>
      <trkpt lat="44.64492" lon="5.19951">
        <ele>1504</ele>
        <time>2026-05-25T11:24:24.000Z</time>
      </trkpt>
      <trkpt lat="44.64492" lon="5.19951">
        <ele>1504</ele>
        <time>2026-05-25T11:24:25.000Z</time>
      </trkpt>
      <trkpt lat="44.64492" lon="5.19951">
        <ele>1504</ele>
        <time>2026-05-25T11:24:26.000Z</time>
      </trkpt>
      <trkpt lat="44.64492" lon="5.19951">
        <ele>1504</ele>
        <time>2026-05-25T11:24:27.000Z</time>
      </trkpt>
      <trkpt lat="44.64492" lon="5.19951">
        <ele>1504</ele>
        <time>2026-05-25T11:24:28.000Z</time>
      </trkpt>
      <trkpt lat="44.64492" lon="5.19951">
        <ele>1504</ele>
        <time>2026-05-25T11:24:29.000Z</time>
      </trkpt>
      <trkpt lat="44.64492" lon="5.19951">
        <ele>1504</ele>
        <time>2026-05-25T11:24:30.000Z</time>
      </trkpt>
      <trkpt lat="44.64492" lon="5.19951">
        <ele>1504</ele>
        <time>2026-05-25T11:24:31.000Z</time>
      </trkpt>
      <trkpt lat="44.64492" lon="5.19951">
        <ele>1504</ele>
        <time>2026-05-25T11:24:32.000Z</time>
      </trkpt>
      <trkpt lat="44.64492" lon="5.19951">
        <ele>1504</ele>
        <time>2026-05-25T11:24:33.000Z</time>
      </trkpt>
      <trkpt lat="44.64492" lon="5.19951">
        <ele>1504</ele>
        <time>2026-05-25T11:24:34.000Z</time>
      </trkpt>
      <trkpt lat="44.64492" lon="5.19951">
        <ele>1504</ele>
        <time>2026-05-25T11:24:35.000Z</time>
      </trkpt>
      <trkpt lat="44.64492" lon="5.19951">
        <ele>1504</ele>
        <time>2026-05-25T11:24:36.000Z</time>
      </trkpt>
      <trkpt lat="44.64492" lon="5.19951">
        <ele>1504</ele>
        <time>2026-05-25T11:24:37.000Z</time>
      </trkpt>
      <trkpt lat="44.64492" lon="5.19951">
        <ele>1504</ele>
        <time>2026-05-25T11:24:38.000Z</time>
      </trkpt>
      <trkpt lat="44.64492" lon="5.19951">
        <ele>1504</ele>
        <time>2026-05-25T11:24:39.000Z</time>
      </trkpt>
      <trkpt lat="44.64492" lon="5.19951">
        <ele>1504</ele>
        <time>2026-05-25T11:24:40.000Z</time>
      </trkpt>
      <trkpt lat="44.64492" lon="5.19951">
        <ele>1504</ele>
        <time>2026-05-25T11:24:41.000Z</time>
      </trkpt>
      <trkpt lat="44.64492" lon="5.19951">
        <ele>1504</ele>
        <time>2026-05-25T11:24:42.000Z</time>
      </trkpt>
      <trkpt lat="44.64491" lon="5.19949">
        <ele>1503</ele>
        <time>2026-05-25T11:24:43.000Z</time>
      </trkpt>
      <trkpt lat="44.64491" lon="5.1995">
        <ele>1503</ele>
        <time>2026-05-25T11:24:44.000Z</time>
      </trkpt>
      <trkpt lat="44.64491" lon="5.1995">
        <ele>1503</ele>
        <time>2026-05-25T11:24:45.000Z</time>
      </trkpt>
      <trkpt lat="44.64491" lon="5.1995">
        <ele>1503</ele>
        <time>2026-05-25T11:24:46.000Z</time>
      </trkpt>
      <trkpt lat="44.64491" lon="5.1995">
        <ele>1503</ele>
        <time>2026-05-25T11:24:47.000Z</time>
      </trkpt>
      <trkpt lat="44.64491" lon="5.1995">
        <ele>1503</ele>
        <time>2026-05-25T11:24:48.000Z</time>
      </trkpt>
      <trkpt lat="44.64491" lon="5.1995">
        <ele>1503</ele>
        <time>2026-05-25T11:24:49.000Z</time>
      </trkpt>
      <trkpt lat="44.64491" lon="5.1995">
        <ele>1503</ele>
        <time>2026-05-25T11:24:50.000Z</time>
      </trkpt>
      <trkpt lat="44.64491" lon="5.1995">
        <ele>1503</ele>
        <time>2026-05-25T11:24:51.000Z</time>
      </trkpt>
      <trkpt lat="44.64491" lon="5.1995">
        <ele>1503</ele>
        <time>2026-05-25T11:24:52.000Z</time>
      </trkpt>
      <trkpt lat="44.64491" lon="5.1995">
        <ele>1503</ele>
        <time>2026-05-25T11:24:53.000Z</time>
      </trkpt>
      <trkpt lat="44.64491" lon="5.1995">
        <ele>1503</ele>
        <time>2026-05-25T11:24:54.000Z</time>
      </trkpt>
      <trkpt lat="44.64491" lon="5.1995">
        <ele>1503</ele>
        <time>2026-05-25T11:24:55.000Z</time>
      </trkpt>
      <trkpt lat="44.64491" lon="5.1995">
        <ele>1503</ele>
        <time>2026-05-25T11:24:56.000Z</time>
      </trkpt>
      <trkpt lat="44.64491" lon="5.1995">
        <ele>1503</ele>
        <time>2026-05-25T11:24:57.000Z</time>
      </trkpt>
      <trkpt lat="44.64491" lon="5.1995">
        <ele>1503</ele>
        <time>2026-05-25T11:24:58.000Z</time>
      </trkpt>
      <trkpt lat="44.64491" lon="5.1995">
        <ele>1503</ele>
        <time>2026-05-25T11:24:59.000Z</time>
      </trkpt>
      <trkpt lat="44.64491" lon="5.1995">
        <ele>1503</ele>
        <time>2026-05-25T11:25:00.000Z</time>
      </trkpt>
      <trkpt lat="44.64491" lon="5.1995">
        <ele>1503</ele>
        <time>2026-05-25T11:25:01.000Z</time>
      </trkpt>
      <trkpt lat="44.64491" lon="5.1995">
        <ele>1503</ele>
        <time>2026-05-25T11:25:02.000Z</time>
      </trkpt>
      <trkpt lat="44.64491" lon="5.1995">
        <ele>1503</ele>
        <time>2026-05-25T11:25:03.000Z</time>
      </trkpt>
      <trkpt lat="44.64491" lon="5.1995">
        <ele>1503</ele>
        <time>2026-05-25T11:25:04.000Z</time>
      </trkpt>
      <trkpt lat="44.64491" lon="5.1995">
        <ele>1503</ele>
        <time>2026-05-25T11:25:05.000Z</time>
      </trkpt>
      <trkpt lat="44.64491" lon="5.1995">
        <ele>1503</ele>
        <time>2026-05-25T11:25:06.000Z</time>
      </trkpt>
      <trkpt lat="44.64491" lon="5.1995">
        <ele>1503</ele>
        <time>2026-05-25T11:25:07.000Z</time>
      </trkpt>
      <trkpt lat="44.64491" lon="5.1995">
        <ele>1503</ele>
        <time>2026-05-25T11:25:08.000Z</time>
      </trkpt>
      <trkpt lat="44.64491" lon="5.1995">
        <ele>1503</ele>
        <time>2026-05-25T11:25:09.000Z</time>
      </trkpt>
      <trkpt lat="44.64491" lon="5.1995">
        <ele>1503</ele>
        <time>2026-05-25T11:25:10.000Z</time>
      </trkpt>
      <trkpt lat="44.64491" lon="5.1995">
        <ele>1503</ele>
        <time>2026-05-25T11:25:11.000Z</time>
      </trkpt>
      <trkpt lat="44.64491" lon="5.1995">
        <ele>1503</ele>
        <time>2026-05-25T11:25:12.000Z</time>
      </trkpt>
      <trkpt lat="44.64491" lon="5.1995">
        <ele>1503</ele>
        <time>2026-05-25T11:25:13.000Z</time>
      </trkpt>
      <trkpt lat="44.64491" lon="5.1995">
        <ele>1503</ele>
        <time>2026-05-25T11:25:14.000Z</time>
      </trkpt>
      <trkpt lat="44.64491" lon="5.1995">
        <ele>1503</ele>
        <time>2026-05-25T11:25:15.000Z</time>
      </trkpt>
      <trkpt lat="44.64491" lon="5.1995">
        <ele>1503</ele>
        <time>2026-05-25T11:25:16.000Z</time>
      </trkpt>
      <trkpt lat="44.64491" lon="5.1995">
        <ele>1503</ele>
        <time>2026-05-25T11:25:17.000Z</time>
      </trkpt>
      <trkpt lat="44.64491" lon="5.1995">
        <ele>1503</ele>
        <time>2026-05-25T11:25:18.000Z</time>
      </trkpt>
      <trkpt lat="44.64491" lon="5.1995">
        <ele>1503</ele>
        <time>2026-05-25T11:25:19.000Z</time>
      </trkpt>
      <trkpt lat="44.64491" lon="5.1995">
        <ele>1503</ele>
        <time>2026-05-25T11:25:20.000Z</time>
      </trkpt>
      <trkpt lat="44.64491" lon="5.1995">
        <ele>1503</ele>
        <time>2026-05-25T11:25:21.000Z</time>
      </trkpt>
      <trkpt lat="44.64491" lon="5.1995">
        <ele>1503</ele>
        <time>2026-05-25T11:25:22.000Z</time>
      </trkpt>
      <trkpt lat="44.64491" lon="5.1995">
        <ele>1503</ele>
        <time>2026-05-25T11:25:23.000Z</time>
      </trkpt>
      <trkpt lat="44.64491" lon="5.1995">
        <ele>1503</ele>
        <time>2026-05-25T11:25:24.000Z</time>
      </trkpt>
      <trkpt lat="44.64491" lon="5.1995">
        <ele>1503</ele>
        <time>2026-05-25T11:25:25.000Z</time>
      </trkpt>
      <trkpt lat="44.64491" lon="5.1995">
        <ele>1503</ele>
        <time>2026-05-25T11:25:26.000Z</time>
      </trkpt>
      <trkpt lat="44.64491" lon="5.1995">
        <ele>1503</ele>
        <time>2026-05-25T11:25:27.000Z</time>
      </trkpt>
      <trkpt lat="44.64491" lon="5.1995">
        <ele>1503</ele>
        <time>2026-05-25T11:25:28.000Z</time>
      </trkpt>
      <trkpt lat="44.64491" lon="5.1995">
        <ele>1503</ele>
        <time>2026-05-25T11:25:29.000Z</time>
      </trkpt>
      <trkpt lat="44.64491" lon="5.1995">
        <ele>1503</ele>
        <time>2026-05-25T11:25:30.000Z</time>
      </trkpt>
      <trkpt lat="44.64491" lon="5.1995">
        <ele>1503</ele>
        <time>2026-05-25T11:25:31.000Z</time>
      </trkpt>
      <trkpt lat="44.64491" lon="5.1995">
        <ele>1503</ele>
        <time>2026-05-25T11:25:32.000Z</time>
      </trkpt>
      <trkpt lat="44.64491" lon="5.1995">
        <ele>1503</ele>
        <time>2026-05-25T11:25:33.000Z</time>
      </trkpt>
      <trkpt lat="44.64491" lon="5.1995">
        <ele>1503</ele>
        <time>2026-05-25T11:25:34.000Z</time>
      </trkpt>
      <trkpt lat="44.64491" lon="5.1995">
        <ele>1503</ele>
        <time>2026-05-25T11:25:35.000Z</time>
      </trkpt>
      <trkpt lat="44.64491" lon="5.1995">
        <ele>1503</ele>
        <time>2026-05-25T11:25:36.000Z</time>
      </trkpt>
      <trkpt lat="44.64491" lon="5.1995">
        <ele>1503</ele>
        <time>2026-05-25T11:25:37.000Z</time>
      </trkpt>
      <trkpt lat="44.64491" lon="5.1995">
        <ele>1503</ele>
        <time>2026-05-25T11:25:38.000Z</time>
      </trkpt>
      <trkpt lat="44.64491" lon="5.1995">
        <ele>1503</ele>
        <time>2026-05-25T11:25:39.000Z</time>
      </trkpt>
      <trkpt lat="44.64491" lon="5.1995">
        <ele>1503</ele>
        <time>2026-05-25T11:25:40.000Z</time>
      </trkpt>
      <trkpt lat="44.64491" lon="5.1995">
        <ele>1503</ele>
        <time>2026-05-25T11:25:41.000Z</time>
      </trkpt>
      <trkpt lat="44.64491" lon="5.1995">
        <ele>1503</ele>
        <time>2026-05-25T11:25:42.000Z</time>
      </trkpt>
      <trkpt lat="44.64491" lon="5.1995">
        <ele>1503</ele>
        <time>2026-05-25T11:25:43.000Z</time>
      </trkpt>
      <trkpt lat="44.64492" lon="5.19948">
        <ele>1503</ele>
        <time>2026-05-25T11:25:44.000Z</time>
      </trkpt>
      <trkpt lat="44.64492" lon="5.19947">
        <ele>1503</ele>
        <time>2026-05-25T11:25:45.000Z</time>
      </trkpt>
      <trkpt lat="44.64492" lon="5.19946">
        <ele>1503</ele>
        <time>2026-05-25T11:25:46.000Z</time>
      </trkpt>
      <trkpt lat="44.64492" lon="5.19946">
        <ele>1503</ele>
        <time>2026-05-25T11:25:47.000Z</time>
      </trkpt>
      <trkpt lat="44.64492" lon="5.19946">
        <ele>1503</ele>
        <time>2026-05-25T11:25:48.000Z</time>
      </trkpt>
      <trkpt lat="44.64493" lon="5.19946">
        <ele>1503</ele>
        <time>2026-05-25T11:25:49.000Z</time>
      </trkpt>
      <trkpt lat="44.64493" lon="5.19946">
        <ele>1503</ele>
        <time>2026-05-25T11:25:50.000Z</time>
      </trkpt>
      <trkpt lat="44.64493" lon="5.19946">
        <ele>1503</ele>
        <time>2026-05-25T11:25:51.000Z</time>
      </trkpt>
      <trkpt lat="44.64493" lon="5.19946">
        <ele>1503</ele>
        <time>2026-05-25T11:25:52.000Z</time>
      </trkpt>
      <trkpt lat="44.64493" lon="5.19946">
        <ele>1503</ele>
        <time>2026-05-25T11:25:53.000Z</time>
      </trkpt>
      <trkpt lat="44.64493" lon="5.19946">
        <ele>1503</ele>
        <time>2026-05-25T11:25:54.000Z</time>
      </trkpt>
      <trkpt lat="44.64493" lon="5.19946">
        <ele>1503</ele>
        <time>2026-05-25T11:25:55.000Z</time>
      </trkpt>
      <trkpt lat="44.64493" lon="5.19946">
        <ele>1503</ele>
        <time>2026-05-25T11:25:56.000Z</time>
      </trkpt>
      <trkpt lat="44.64493" lon="5.19946">
        <ele>1503</ele>
        <time>2026-05-25T11:25:57.000Z</time>
      </trkpt>
      <trkpt lat="44.64493" lon="5.19946">
        <ele>1503</ele>
        <time>2026-05-25T11:25:58.000Z</time>
      </trkpt>
      <trkpt lat="44.64493" lon="5.19946">
        <ele>1503</ele>
        <time>2026-05-25T11:25:59.000Z</time>
      </trkpt>
      <trkpt lat="44.64493" lon="5.19946">
        <ele>1503</ele>
        <time>2026-05-25T11:26:00.000Z</time>
      </trkpt>
      <trkpt lat="44.64493" lon="5.19946">
        <ele>1503</ele>
        <time>2026-05-25T11:26:01.000Z</time>
      </trkpt>
      <trkpt lat="44.64493" lon="5.19946">
        <ele>1503</ele>
        <time>2026-05-25T11:26:02.000Z</time>
      </trkpt>
      <trkpt lat="44.64493" lon="5.19946">
        <ele>1503</ele>
        <time>2026-05-25T11:26:03.000Z</time>
      </trkpt>
      <trkpt lat="44.64493" lon="5.19946">
        <ele>1503</ele>
        <time>2026-05-25T11:26:04.000Z</time>
      </trkpt>
      <trkpt lat="44.64493" lon="5.19946">
        <ele>1503</ele>
        <time>2026-05-25T11:26:05.000Z</time>
      </trkpt>
      <trkpt lat="44.64493" lon="5.19946">
        <ele>1503</ele>
        <time>2026-05-25T11:26:06.000Z</time>
      </trkpt>
      <trkpt lat="44.64493" lon="5.19946">
        <ele>1503</ele>
        <time>2026-05-25T11:26:07.000Z</time>
      </trkpt>
      <trkpt lat="44.64493" lon="5.19946">
        <ele>1503</ele>
        <time>2026-05-25T11:26:08.000Z</time>
      </trkpt>
      <trkpt lat="44.64493" lon="5.19946">
        <ele>1503</ele>
        <time>2026-05-25T11:26:09.000Z</time>
      </trkpt>
      <trkpt lat="44.64493" lon="5.19946">
        <ele>1503</ele>
        <time>2026-05-25T11:26:10.000Z</time>
      </trkpt>
      <trkpt lat="44.64493" lon="5.19946">
        <ele>1503</ele>
        <time>2026-05-25T11:26:11.000Z</time>
      </trkpt>
      <trkpt lat="44.64493" lon="5.19946">
        <ele>1503</ele>
        <time>2026-05-25T11:26:12.000Z</time>
      </trkpt>
      <trkpt lat="44.64493" lon="5.19946">
        <ele>1503</ele>
        <time>2026-05-25T11:26:13.000Z</time>
      </trkpt>
      <trkpt lat="44.64493" lon="5.19946">
        <ele>1503</ele>
        <time>2026-05-25T11:26:14.000Z</time>
      </trkpt>
      <trkpt lat="44.64493" lon="5.19946">
        <ele>1503</ele>
        <time>2026-05-25T11:26:15.000Z</time>
      </trkpt>
      <trkpt lat="44.64493" lon="5.19946">
        <ele>1503</ele>
        <time>2026-05-25T11:26:16.000Z</time>
      </trkpt>
      <trkpt lat="44.64493" lon="5.19946">
        <ele>1503</ele>
        <time>2026-05-25T11:26:17.000Z</time>
      </trkpt>
      <trkpt lat="44.64493" lon="5.19946">
        <ele>1503</ele>
        <time>2026-05-25T11:26:18.000Z</time>
      </trkpt>
      <trkpt lat="44.64493" lon="5.19946">
        <ele>1503</ele>
        <time>2026-05-25T11:26:19.000Z</time>
      </trkpt>
      <trkpt lat="44.64493" lon="5.19946">
        <ele>1503</ele>
        <time>2026-05-25T11:26:20.000Z</time>
      </trkpt>
      <trkpt lat="44.64493" lon="5.19946">
        <ele>1503</ele>
        <time>2026-05-25T11:26:21.000Z</time>
      </trkpt>
      <trkpt lat="44.64493" lon="5.19946">
        <ele>1503</ele>
        <time>2026-05-25T11:26:22.000Z</time>
      </trkpt>
      <trkpt lat="44.64493" lon="5.19946">
        <ele>1503</ele>
        <time>2026-05-25T11:26:23.000Z</time>
      </trkpt>
      <trkpt lat="44.64493" lon="5.19946">
        <ele>1503</ele>
        <time>2026-05-25T11:26:24.000Z</time>
      </trkpt>
      <trkpt lat="44.64493" lon="5.19946">
        <ele>1503</ele>
        <time>2026-05-25T11:26:25.000Z</time>
      </trkpt>
      <trkpt lat="44.64493" lon="5.19946">
        <ele>1503</ele>
        <time>2026-05-25T11:26:26.000Z</time>
      </trkpt>
      <trkpt lat="44.64493" lon="5.19946">
        <ele>1503</ele>
        <time>2026-05-25T11:26:27.000Z</time>
      </trkpt>
      <trkpt lat="44.64493" lon="5.19946">
        <ele>1503</ele>
        <time>2026-05-25T11:26:28.000Z</time>
      </trkpt>
      <trkpt lat="44.64493" lon="5.19946">
        <ele>1503</ele>
        <time>2026-05-25T11:26:29.000Z</time>
      </trkpt>
      <trkpt lat="44.64493" lon="5.19946">
        <ele>1503</ele>
        <time>2026-05-25T11:26:30.000Z</time>
      </trkpt>
      <trkpt lat="44.64493" lon="5.19946">
        <ele>1503</ele>
        <time>2026-05-25T11:26:31.000Z</time>
      </trkpt>
      <trkpt lat="44.64493" lon="5.19946">
        <ele>1503</ele>
        <time>2026-05-25T11:26:32.000Z</time>
      </trkpt>
      <trkpt lat="44.64493" lon="5.19946">
        <ele>1503</ele>
        <time>2026-05-25T11:26:33.000Z</time>
      </trkpt>
      <trkpt lat="44.64493" lon="5.19946">
        <ele>1503</ele>
        <time>2026-05-25T11:26:34.000Z</time>
      </trkpt>
      <trkpt lat="44.64493" lon="5.19946">
        <ele>1503</ele>
        <time>2026-05-25T11:26:35.000Z</time>
      </trkpt>
      <trkpt lat="44.64493" lon="5.19946">
        <ele>1503</ele>
        <time>2026-05-25T11:26:36.000Z</time>
      </trkpt>
      <trkpt lat="44.64493" lon="5.19946">
        <ele>1503</ele>
        <time>2026-05-25T11:26:37.000Z</time>
      </trkpt>
      <trkpt lat="44.64493" lon="5.19946">
        <ele>1503</ele>
        <time>2026-05-25T11:26:38.000Z</time>
      </trkpt>
      <trkpt lat="44.64493" lon="5.19946">
        <ele>1503</ele>
        <time>2026-05-25T11:26:39.000Z</time>
      </trkpt>
      <trkpt lat="44.64493" lon="5.19946">
        <ele>1503</ele>
        <time>2026-05-25T11:26:40.000Z</time>
      </trkpt>
      <trkpt lat="44.64493" lon="5.19946">
        <ele>1503</ele>
        <time>2026-05-25T11:26:41.000Z</time>
      </trkpt>
      <trkpt lat="44.64493" lon="5.19946">
        <ele>1503</ele>
        <time>2026-05-25T11:26:42.000Z</time>
      </trkpt>
      <trkpt lat="44.64493" lon="5.19946">
        <ele>1503</ele>
        <time>2026-05-25T11:26:43.000Z</time>
      </trkpt>
      <trkpt lat="44.64493" lon="5.19946">
        <ele>1503</ele>
        <time>2026-05-25T11:26:44.000Z</time>
      </trkpt>
      <trkpt lat="44.64493" lon="5.19946">
        <ele>1503</ele>
        <time>2026-05-25T11:26:45.000Z</time>
      </trkpt>
      <trkpt lat="44.64493" lon="5.19946">
        <ele>1503</ele>
        <time>2026-05-25T11:26:46.000Z</time>
      </trkpt>
      <trkpt lat="44.64493" lon="5.19946">
        <ele>1503</ele>
        <time>2026-05-25T11:26:47.000Z</time>
      </trkpt>
      <trkpt lat="44.64493" lon="5.19946">
        <ele>1503</ele>
        <time>2026-05-25T11:26:48.000Z</time>
      </trkpt>
      <trkpt lat="44.64493" lon="5.19946">
        <ele>1503</ele>
        <time>2026-05-25T11:26:49.000Z</time>
      </trkpt>
      <trkpt lat="44.64493" lon="5.19946">
        <ele>1503</ele>
        <time>2026-05-25T11:26:50.000Z</time>
      </trkpt>
      <trkpt lat="44.64493" lon="5.19946">
        <ele>1503</ele>
        <time>2026-05-25T11:26:51.000Z</time>
      </trkpt>
      <trkpt lat="44.64493" lon="5.19946">
        <ele>1503</ele>
        <time>2026-05-25T11:26:52.000Z</time>
      </trkpt>
      <trkpt lat="44.64493" lon="5.19946">
        <ele>1503</ele>
        <time>2026-05-25T11:26:53.000Z</time>
      </trkpt>
      <trkpt lat="44.64493" lon="5.19946">
        <ele>1503</ele>
        <time>2026-05-25T11:26:54.000Z</time>
      </trkpt>
      <trkpt lat="44.64493" lon="5.19946">
        <ele>1503</ele>
        <time>2026-05-25T11:26:55.000Z</time>
      </trkpt>
      <trkpt lat="44.64493" lon="5.19946">
        <ele>1503</ele>
        <time>2026-05-25T11:26:56.000Z</time>
      </trkpt>
      <trkpt lat="44.64493" lon="5.19946">
        <ele>1503</ele>
        <time>2026-05-25T11:26:57.000Z</time>
      </trkpt>
      <trkpt lat="44.64493" lon="5.19946">
        <ele>1503</ele>
        <time>2026-05-25T11:26:58.000Z</time>
      </trkpt>
      <trkpt lat="44.64493" lon="5.19946">
        <ele>1503</ele>
        <time>2026-05-25T11:26:59.000Z</time>
      </trkpt>
      <trkpt lat="44.64493" lon="5.19946">
        <ele>1503</ele>
        <time>2026-05-25T11:27:00.000Z</time>
      </trkpt>
      <trkpt lat="44.64493" lon="5.19946">
        <ele>1503</ele>
        <time>2026-05-25T11:27:01.000Z</time>
      </trkpt>
      <trkpt lat="44.64493" lon="5.19946">
        <ele>1503</ele>
        <time>2026-05-25T11:27:02.000Z</time>
      </trkpt>
      <trkpt lat="44.64493" lon="5.19946">
        <ele>1503</ele>
        <time>2026-05-25T11:27:03.000Z</time>
      </trkpt>
      <trkpt lat="44.64493" lon="5.19946">
        <ele>1503</ele>
        <time>2026-05-25T11:27:04.000Z</time>
      </trkpt>
      <trkpt lat="44.64493" lon="5.19946">
        <ele>1503</ele>
        <time>2026-05-25T11:27:05.000Z</time>
      </trkpt>
      <trkpt lat="44.64493" lon="5.19946">
        <ele>1503</ele>
        <time>2026-05-25T11:27:06.000Z</time>
      </trkpt>
      <trkpt lat="44.64493" lon="5.19946">
        <ele>1503</ele>
        <time>2026-05-25T11:27:07.000Z</time>
      </trkpt>
      <trkpt lat="44.64493" lon="5.19946">
        <ele>1503</ele>
        <time>2026-05-25T11:27:08.000Z</time>
      </trkpt>
      <trkpt lat="44.64493" lon="5.19946">
        <ele>1503</ele>
        <time>2026-05-25T11:27:09.000Z</time>
      </trkpt>
      <trkpt lat="44.64493" lon="5.19946">
        <ele>1503</ele>
        <time>2026-05-25T11:27:10.000Z</time>
      </trkpt>
      <trkpt lat="44.64493" lon="5.19946">
        <ele>1503</ele>
        <time>2026-05-25T11:27:11.000Z</time>
      </trkpt>
      <trkpt lat="44.64493" lon="5.19946">
        <ele>1503</ele>
        <time>2026-05-25T11:27:12.000Z</time>
      </trkpt>
      <trkpt lat="44.64493" lon="5.19946">
        <ele>1503</ele>
        <time>2026-05-25T11:27:13.000Z</time>
      </trkpt>
      <trkpt lat="44.64493" lon="5.19946">
        <ele>1503</ele>
        <time>2026-05-25T11:27:14.000Z</time>
      </trkpt>
      <trkpt lat="44.64493" lon="5.19946">
        <ele>1503</ele>
        <time>2026-05-25T11:27:15.000Z</time>
      </trkpt>
      <trkpt lat="44.64493" lon="5.19946">
        <ele>1503</ele>
        <time>2026-05-25T11:27:16.000Z</time>
      </trkpt>
      <trkpt lat="44.64493" lon="5.19946">
        <ele>1503</ele>
        <time>2026-05-25T11:27:17.000Z</time>
      </trkpt>
      <trkpt lat="44.64493" lon="5.19946">
        <ele>1503</ele>
        <time>2026-05-25T11:27:18.000Z</time>
      </trkpt>
      <trkpt lat="44.64493" lon="5.19946">
        <ele>1503</ele>
        <time>2026-05-25T11:27:19.000Z</time>
      </trkpt>
      <trkpt lat="44.64493" lon="5.19946">
        <ele>1503</ele>
        <time>2026-05-25T11:27:20.000Z</time>
      </trkpt>
      <trkpt lat="44.64492" lon="5.19945">
        <ele>1503</ele>
        <time>2026-05-25T11:27:21.000Z</time>
      </trkpt>
      <trkpt lat="44.64492" lon="5.19944">
        <ele>1503</ele>
        <time>2026-05-25T11:27:22.000Z</time>
      </trkpt>
      <trkpt lat="44.64491" lon="5.19945">
        <ele>1503</ele>
        <time>2026-05-25T11:27:23.000Z</time>
      </trkpt>
      <trkpt lat="44.64491" lon="5.19945">
        <ele>1503</ele>
        <time>2026-05-25T11:27:24.000Z</time>
      </trkpt>
      <trkpt lat="44.64491" lon="5.19945">
        <ele>1503</ele>
        <time>2026-05-25T11:27:25.000Z</time>
      </trkpt>
      <trkpt lat="44.64491" lon="5.19945">
        <ele>1503</ele>
        <time>2026-05-25T11:27:26.000Z</time>
      </trkpt>
      <trkpt lat="44.64491" lon="5.19946">
        <ele>1503</ele>
        <time>2026-05-25T11:27:27.000Z</time>
      </trkpt>
      <trkpt lat="44.64491" lon="5.19946">
        <ele>1503</ele>
        <time>2026-05-25T11:27:28.000Z</time>
      </trkpt>
      <trkpt lat="44.64491" lon="5.19946">
        <ele>1503</ele>
        <time>2026-05-25T11:27:29.000Z</time>
      </trkpt>
      <trkpt lat="44.64491" lon="5.19946">
        <ele>1503</ele>
        <time>2026-05-25T11:27:30.000Z</time>
      </trkpt>
      <trkpt lat="44.64491" lon="5.19946">
        <ele>1503</ele>
        <time>2026-05-25T11:27:31.000Z</time>
      </trkpt>
      <trkpt lat="44.64491" lon="5.19946">
        <ele>1503</ele>
        <time>2026-05-25T11:27:32.000Z</time>
      </trkpt>
      <trkpt lat="44.64491" lon="5.19948">
        <ele>1503</ele>
        <time>2026-05-25T11:27:33.000Z</time>
      </trkpt>
      <trkpt lat="44.64491" lon="5.19949">
        <ele>1503</ele>
        <time>2026-05-25T11:27:34.000Z</time>
      </trkpt>
      <trkpt lat="44.64491" lon="5.1995">
        <ele>1502</ele>
        <time>2026-05-25T11:27:35.000Z</time>
      </trkpt>
      <trkpt lat="44.64491" lon="5.1995">
        <ele>1502</ele>
        <time>2026-05-25T11:27:36.000Z</time>
      </trkpt>
      <trkpt lat="44.64491" lon="5.1995">
        <ele>1502</ele>
        <time>2026-05-25T11:27:37.000Z</time>
      </trkpt>
      <trkpt lat="44.64491" lon="5.1995">
        <ele>1502</ele>
        <time>2026-05-25T11:27:38.000Z</time>
      </trkpt>
      <trkpt lat="44.64491" lon="5.1995">
        <ele>1502</ele>
        <time>2026-05-25T11:27:39.000Z</time>
      </trkpt>
      <trkpt lat="44.64491" lon="5.1995">
        <ele>1502</ele>
        <time>2026-05-25T11:27:40.000Z</time>
      </trkpt>
      <trkpt lat="44.64491" lon="5.1995">
        <ele>1502</ele>
        <time>2026-05-25T11:27:41.000Z</time>
      </trkpt>
      <trkpt lat="44.64491" lon="5.1995">
        <ele>1502</ele>
        <time>2026-05-25T11:27:42.000Z</time>
      </trkpt>
      <trkpt lat="44.64491" lon="5.1995">
        <ele>1502</ele>
        <time>2026-05-25T11:27:43.000Z</time>
      </trkpt>
      <trkpt lat="44.64491" lon="5.1995">
        <ele>1502</ele>
        <time>2026-05-25T11:27:44.000Z</time>
      </trkpt>
      <trkpt lat="44.64491" lon="5.1995">
        <ele>1502</ele>
        <time>2026-05-25T11:27:45.000Z</time>
      </trkpt>
      <trkpt lat="44.64491" lon="5.1995">
        <ele>1502</ele>
        <time>2026-05-25T11:27:46.000Z</time>
      </trkpt>
      <trkpt lat="44.64491" lon="5.1995">
        <ele>1502</ele>
        <time>2026-05-25T11:27:47.000Z</time>
      </trkpt>
      <trkpt lat="44.64491" lon="5.1995">
        <ele>1502</ele>
        <time>2026-05-25T11:27:48.000Z</time>
      </trkpt>
      <trkpt lat="44.64491" lon="5.1995">
        <ele>1502</ele>
        <time>2026-05-25T11:27:49.000Z</time>
      </trkpt>
      <trkpt lat="44.64492" lon="5.1995">
        <ele>1502</ele>
        <time>2026-05-25T11:27:50.000Z</time>
      </trkpt>
      <trkpt lat="44.64492" lon="5.1995">
        <ele>1501</ele>
        <time>2026-05-25T11:27:51.000Z</time>
      </trkpt>
      <trkpt lat="44.64492" lon="5.19951">
        <ele>1502</ele>
        <time>2026-05-25T11:27:52.000Z</time>
      </trkpt>
      <trkpt lat="44.64491" lon="5.19952">
        <ele>1503</ele>
        <time>2026-05-25T11:27:53.000Z</time>
      </trkpt>
      <trkpt lat="44.64491" lon="5.19953">
        <ele>1503</ele>
        <time>2026-05-25T11:27:54.000Z</time>
      </trkpt>
      <trkpt lat="44.64491" lon="5.19954">
        <ele>1503</ele>
        <time>2026-05-25T11:27:55.000Z</time>
      </trkpt>
      <trkpt lat="44.64491" lon="5.19955">
        <ele>1503</ele>
        <time>2026-05-25T11:27:56.000Z</time>
      </trkpt>
      <trkpt lat="44.64491" lon="5.19955">
        <ele>1503</ele>
        <time>2026-05-25T11:27:57.000Z</time>
      </trkpt>
      <trkpt lat="44.64491" lon="5.19955">
        <ele>1503</ele>
        <time>2026-05-25T11:27:58.000Z</time>
      </trkpt>
      <trkpt lat="44.64491" lon="5.19955">
        <ele>1503</ele>
        <time>2026-05-25T11:27:59.000Z</time>
      </trkpt>
      <trkpt lat="44.64491" lon="5.19955">
        <ele>1503</ele>
        <time>2026-05-25T11:28:00.000Z</time>
      </trkpt>
      <trkpt lat="44.64491" lon="5.19955">
        <ele>1503</ele>
        <time>2026-05-25T11:28:01.000Z</time>
      </trkpt>
      <trkpt lat="44.64491" lon="5.19955">
        <ele>1503</ele>
        <time>2026-05-25T11:28:02.000Z</time>
      </trkpt>
      <trkpt lat="44.64491" lon="5.19955">
        <ele>1503</ele>
        <time>2026-05-25T11:28:03.000Z</time>
      </trkpt>
      <trkpt lat="44.64491" lon="5.19955">
        <ele>1503</ele>
        <time>2026-05-25T11:28:04.000Z</time>
      </trkpt>
      <trkpt lat="44.64491" lon="5.19955">
        <ele>1503</ele>
        <time>2026-05-25T11:28:05.000Z</time>
      </trkpt>
      <trkpt lat="44.64491" lon="5.19955">
        <ele>1503</ele>
        <time>2026-05-25T11:28:06.000Z</time>
      </trkpt>
      <trkpt lat="44.64491" lon="5.19955">
        <ele>1503</ele>
        <time>2026-05-25T11:28:07.000Z</time>
      </trkpt>
      <trkpt lat="44.64491" lon="5.19955">
        <ele>1503</ele>
        <time>2026-05-25T11:28:08.000Z</time>
      </trkpt>
      <trkpt lat="44.64491" lon="5.19955">
        <ele>1503</ele>
        <time>2026-05-25T11:28:09.000Z</time>
      </trkpt>
      <trkpt lat="44.64491" lon="5.19955">
        <ele>1503</ele>
        <time>2026-05-25T11:28:10.000Z</time>
      </trkpt>
      <trkpt lat="44.64491" lon="5.19955">
        <ele>1503</ele>
        <time>2026-05-25T11:28:11.000Z</time>
      </trkpt>
      <trkpt lat="44.64491" lon="5.19955">
        <ele>1503</ele>
        <time>2026-05-25T11:28:12.000Z</time>
      </trkpt>
      <trkpt lat="44.64491" lon="5.19955">
        <ele>1503</ele>
        <time>2026-05-25T11:28:13.000Z</time>
      </trkpt>
      <trkpt lat="44.64491" lon="5.19955">
        <ele>1503</ele>
        <time>2026-05-25T11:28:14.000Z</time>
      </trkpt>
      <trkpt lat="44.64491" lon="5.19955">
        <ele>1503</ele>
        <time>2026-05-25T11:28:15.000Z</time>
      </trkpt>
      <trkpt lat="44.64491" lon="5.19955">
        <ele>1503</ele>
        <time>2026-05-25T11:28:16.000Z</time>
      </trkpt>
      <trkpt lat="44.64491" lon="5.19955">
        <ele>1503</ele>
        <time>2026-05-25T11:28:17.000Z</time>
      </trkpt>
      <trkpt lat="44.64491" lon="5.19955">
        <ele>1503</ele>
        <time>2026-05-25T11:28:18.000Z</time>
      </trkpt>
      <trkpt lat="44.64491" lon="5.19955">
        <ele>1503</ele>
        <time>2026-05-25T11:28:19.000Z</time>
      </trkpt>
      <trkpt lat="44.64491" lon="5.19955">
        <ele>1503</ele>
        <time>2026-05-25T11:28:20.000Z</time>
      </trkpt>
      <trkpt lat="44.64491" lon="5.19955">
        <ele>1503</ele>
        <time>2026-05-25T11:28:21.000Z</time>
      </trkpt>
      <trkpt lat="44.64491" lon="5.19955">
        <ele>1503</ele>
        <time>2026-05-25T11:28:22.000Z</time>
      </trkpt>
      <trkpt lat="44.64491" lon="5.19955">
        <ele>1503</ele>
        <time>2026-05-25T11:28:23.000Z</time>
      </trkpt>
      <trkpt lat="44.64491" lon="5.19955">
        <ele>1503</ele>
        <time>2026-05-25T11:28:24.000Z</time>
      </trkpt>
      <trkpt lat="44.64491" lon="5.19955">
        <ele>1503</ele>
        <time>2026-05-25T11:28:25.000Z</time>
      </trkpt>
      <trkpt lat="44.64491" lon="5.19955">
        <ele>1503</ele>
        <time>2026-05-25T11:28:26.000Z</time>
      </trkpt>
      <trkpt lat="44.64491" lon="5.19955">
        <ele>1503</ele>
        <time>2026-05-25T11:28:27.000Z</time>
      </trkpt>
      <trkpt lat="44.64491" lon="5.19955">
        <ele>1503</ele>
        <time>2026-05-25T11:28:28.000Z</time>
      </trkpt>
      <trkpt lat="44.64491" lon="5.19955">
        <ele>1503</ele>
        <time>2026-05-25T11:28:29.000Z</time>
      </trkpt>
      <trkpt lat="44.64491" lon="5.19955">
        <ele>1503</ele>
        <time>2026-05-25T11:28:30.000Z</time>
      </trkpt>
      <trkpt lat="44.64491" lon="5.19955">
        <ele>1503</ele>
        <time>2026-05-25T11:28:31.000Z</time>
      </trkpt>
      <trkpt lat="44.64491" lon="5.19955">
        <ele>1503</ele>
        <time>2026-05-25T11:28:32.000Z</time>
      </trkpt>
      <trkpt lat="44.64491" lon="5.19955">
        <ele>1503</ele>
        <time>2026-05-25T11:28:33.000Z</time>
      </trkpt>
      <trkpt lat="44.64491" lon="5.19955">
        <ele>1503</ele>
        <time>2026-05-25T11:28:34.000Z</time>
      </trkpt>
      <trkpt lat="44.64491" lon="5.19955">
        <ele>1503</ele>
        <time>2026-05-25T11:28:35.000Z</time>
      </trkpt>
      <trkpt lat="44.64491" lon="5.19955">
        <ele>1503</ele>
        <time>2026-05-25T11:28:36.000Z</time>
      </trkpt>
      <trkpt lat="44.64491" lon="5.19955">
        <ele>1503</ele>
        <time>2026-05-25T11:28:37.000Z</time>
      </trkpt>
      <trkpt lat="44.64491" lon="5.19955">
        <ele>1503</ele>
        <time>2026-05-25T11:28:38.000Z</time>
      </trkpt>
      <trkpt lat="44.64491" lon="5.19955">
        <ele>1503</ele>
        <time>2026-05-25T11:28:39.000Z</time>
      </trkpt>
      <trkpt lat="44.64491" lon="5.19955">
        <ele>1503</ele>
        <time>2026-05-25T11:28:40.000Z</time>
      </trkpt>
      <trkpt lat="44.64491" lon="5.19955">
        <ele>1503</ele>
        <time>2026-05-25T11:28:41.000Z</time>
      </trkpt>
      <trkpt lat="44.64491" lon="5.19955">
        <ele>1503</ele>
        <time>2026-05-25T11:28:42.000Z</time>
      </trkpt>
      <trkpt lat="44.64491" lon="5.19955">
        <ele>1503</ele>
        <time>2026-05-25T11:28:43.000Z</time>
      </trkpt>
      <trkpt lat="44.64491" lon="5.19954">
        <ele>1503</ele>
        <time>2026-05-25T11:28:44.000Z</time>
      </trkpt>
      <trkpt lat="44.64491" lon="5.19953">
        <ele>1503</ele>
        <time>2026-05-25T11:28:45.000Z</time>
      </trkpt>
      <trkpt lat="44.6449" lon="5.19954">
        <ele>1503</ele>
        <time>2026-05-25T11:28:46.000Z</time>
      </trkpt>
      <trkpt lat="44.64489" lon="5.19955">
        <ele>1504</ele>
        <time>2026-05-25T11:28:47.000Z</time>
      </trkpt>
      <trkpt lat="44.64489" lon="5.19955">
        <ele>1503</ele>
        <time>2026-05-25T11:28:48.000Z</time>
      </trkpt>
      <trkpt lat="44.6449" lon="5.19955">
        <ele>1503</ele>
        <time>2026-05-25T11:28:49.000Z</time>
      </trkpt>
      <trkpt lat="44.6449" lon="5.19954">
        <ele>1503</ele>
        <time>2026-05-25T11:28:50.000Z</time>
      </trkpt>
      <trkpt lat="44.64491" lon="5.19954">
        <ele>1503</ele>
        <time>2026-05-25T11:28:51.000Z</time>
      </trkpt>
      <trkpt lat="44.64491" lon="5.19954">
        <ele>1503</ele>
        <time>2026-05-25T11:28:52.000Z</time>
      </trkpt>
      <trkpt lat="44.64491" lon="5.19954">
        <ele>1503</ele>
        <time>2026-05-25T11:28:53.000Z</time>
      </trkpt>
      <trkpt lat="44.64491" lon="5.19954">
        <ele>1503</ele>
        <time>2026-05-25T11:28:54.000Z</time>
      </trkpt>
      <trkpt lat="44.64491" lon="5.19954">
        <ele>1503</ele>
        <time>2026-05-25T11:28:55.000Z</time>
      </trkpt>
      <trkpt lat="44.64491" lon="5.19954">
        <ele>1503</ele>
        <time>2026-05-25T11:28:56.000Z</time>
      </trkpt>
      <trkpt lat="44.64491" lon="5.19954">
        <ele>1503</ele>
        <time>2026-05-25T11:28:57.000Z</time>
      </trkpt>
      <trkpt lat="44.64491" lon="5.19954">
        <ele>1503</ele>
        <time>2026-05-25T11:28:58.000Z</time>
      </trkpt>
      <trkpt lat="44.64491" lon="5.19954">
        <ele>1503</ele>
        <time>2026-05-25T11:28:59.000Z</time>
      </trkpt>
      <trkpt lat="44.64491" lon="5.19954">
        <ele>1503</ele>
        <time>2026-05-25T11:29:00.000Z</time>
      </trkpt>
      <trkpt lat="44.64491" lon="5.19954">
        <ele>1503</ele>
        <time>2026-05-25T11:29:01.000Z</time>
      </trkpt>
      <trkpt lat="44.64491" lon="5.19954">
        <ele>1503</ele>
        <time>2026-05-25T11:29:02.000Z</time>
      </trkpt>
      <trkpt lat="44.64491" lon="5.19954">
        <ele>1503</ele>
        <time>2026-05-25T11:29:03.000Z</time>
      </trkpt>
      <trkpt lat="44.64491" lon="5.19954">
        <ele>1503</ele>
        <time>2026-05-25T11:29:04.000Z</time>
      </trkpt>
      <trkpt lat="44.64491" lon="5.19954">
        <ele>1503</ele>
        <time>2026-05-25T11:29:05.000Z</time>
      </trkpt>
      <trkpt lat="44.64491" lon="5.19954">
        <ele>1503</ele>
        <time>2026-05-25T11:29:06.000Z</time>
      </trkpt>
      <trkpt lat="44.64491" lon="5.19954">
        <ele>1503</ele>
        <time>2026-05-25T11:29:07.000Z</time>
      </trkpt>
      <trkpt lat="44.64491" lon="5.19954">
        <ele>1503</ele>
        <time>2026-05-25T11:29:08.000Z</time>
      </trkpt>
      <trkpt lat="44.64491" lon="5.19954">
        <ele>1503</ele>
        <time>2026-05-25T11:29:09.000Z</time>
      </trkpt>
      <trkpt lat="44.64491" lon="5.19954">
        <ele>1503</ele>
        <time>2026-05-25T11:29:10.000Z</time>
      </trkpt>
      <trkpt lat="44.64491" lon="5.19954">
        <ele>1503</ele>
        <time>2026-05-25T11:29:11.000Z</time>
      </trkpt>
      <trkpt lat="44.64491" lon="5.19954">
        <ele>1503</ele>
        <time>2026-05-25T11:29:12.000Z</time>
      </trkpt>
      <trkpt lat="44.64491" lon="5.19954">
        <ele>1503</ele>
        <time>2026-05-25T11:29:13.000Z</time>
      </trkpt>
      <trkpt lat="44.64491" lon="5.19954">
        <ele>1503</ele>
        <time>2026-05-25T11:29:14.000Z</time>
      </trkpt>
      <trkpt lat="44.64491" lon="5.19954">
        <ele>1503</ele>
        <time>2026-05-25T11:29:15.000Z</time>
      </trkpt>
      <trkpt lat="44.64491" lon="5.19954">
        <ele>1503</ele>
        <time>2026-05-25T11:29:16.000Z</time>
      </trkpt>
      <trkpt lat="44.64491" lon="5.19954">
        <ele>1503</ele>
        <time>2026-05-25T11:29:17.000Z</time>
      </trkpt>
      <trkpt lat="44.64491" lon="5.19954">
        <ele>1503</ele>
        <time>2026-05-25T11:29:18.000Z</time>
      </trkpt>
      <trkpt lat="44.64491" lon="5.19954">
        <ele>1503</ele>
        <time>2026-05-25T11:29:19.000Z</time>
      </trkpt>
      <trkpt lat="44.64491" lon="5.19954">
        <ele>1503</ele>
        <time>2026-05-25T11:29:20.000Z</time>
      </trkpt>
      <trkpt lat="44.64491" lon="5.19954">
        <ele>1503</ele>
        <time>2026-05-25T11:29:21.000Z</time>
      </trkpt>
      <trkpt lat="44.64491" lon="5.19954">
        <ele>1503</ele>
        <time>2026-05-25T11:29:22.000Z</time>
      </trkpt>
      <trkpt lat="44.64491" lon="5.19954">
        <ele>1503</ele>
        <time>2026-05-25T11:29:23.000Z</time>
      </trkpt>
      <trkpt lat="44.64491" lon="5.19954">
        <ele>1503</ele>
        <time>2026-05-25T11:29:24.000Z</time>
      </trkpt>
      <trkpt lat="44.64491" lon="5.19954">
        <ele>1503</ele>
        <time>2026-05-25T11:29:25.000Z</time>
      </trkpt>
      <trkpt lat="44.64491" lon="5.19954">
        <ele>1503</ele>
        <time>2026-05-25T11:29:26.000Z</time>
      </trkpt>
      <trkpt lat="44.64491" lon="5.19954">
        <ele>1503</ele>
        <time>2026-05-25T11:29:27.000Z</time>
      </trkpt>
      <trkpt lat="44.64491" lon="5.19954">
        <ele>1503</ele>
        <time>2026-05-25T11:29:28.000Z</time>
      </trkpt>
      <trkpt lat="44.64491" lon="5.19954">
        <ele>1503</ele>
        <time>2026-05-25T11:29:29.000Z</time>
      </trkpt>
      <trkpt lat="44.64491" lon="5.19954">
        <ele>1503</ele>
        <time>2026-05-25T11:29:30.000Z</time>
      </trkpt>
      <trkpt lat="44.64491" lon="5.19954">
        <ele>1503</ele>
        <time>2026-05-25T11:29:31.000Z</time>
      </trkpt>
      <trkpt lat="44.64491" lon="5.19954">
        <ele>1503</ele>
        <time>2026-05-25T11:29:32.000Z</time>
      </trkpt>
      <trkpt lat="44.64491" lon="5.19954">
        <ele>1503</ele>
        <time>2026-05-25T11:29:33.000Z</time>
      </trkpt>
      <trkpt lat="44.64491" lon="5.19954">
        <ele>1503</ele>
        <time>2026-05-25T11:29:34.000Z</time>
      </trkpt>
      <trkpt lat="44.64491" lon="5.19954">
        <ele>1503</ele>
        <time>2026-05-25T11:29:35.000Z</time>
      </trkpt>
      <trkpt lat="44.64491" lon="5.19954">
        <ele>1503</ele>
        <time>2026-05-25T11:29:36.000Z</time>
      </trkpt>
      <trkpt lat="44.64491" lon="5.19954">
        <ele>1503</ele>
        <time>2026-05-25T11:29:37.000Z</time>
      </trkpt>
      <trkpt lat="44.64491" lon="5.19954">
        <ele>1503</ele>
        <time>2026-05-25T11:29:38.000Z</time>
      </trkpt>
      <trkpt lat="44.64491" lon="5.19954">
        <ele>1503</ele>
        <time>2026-05-25T11:29:39.000Z</time>
      </trkpt>
      <trkpt lat="44.64491" lon="5.19954">
        <ele>1503</ele>
        <time>2026-05-25T11:29:40.000Z</time>
      </trkpt>
      <trkpt lat="44.64491" lon="5.19954">
        <ele>1503</ele>
        <time>2026-05-25T11:29:41.000Z</time>
      </trkpt>
      <trkpt lat="44.64491" lon="5.19954">
        <ele>1503</ele>
        <time>2026-05-25T11:29:42.000Z</time>
      </trkpt>
      <trkpt lat="44.64491" lon="5.19954">
        <ele>1503</ele>
        <time>2026-05-25T11:29:43.000Z</time>
      </trkpt>
      <trkpt lat="44.64491" lon="5.19954">
        <ele>1503</ele>
        <time>2026-05-25T11:29:44.000Z</time>
      </trkpt>
      <trkpt lat="44.64491" lon="5.19954">
        <ele>1503</ele>
        <time>2026-05-25T11:29:45.000Z</time>
      </trkpt>
      <trkpt lat="44.64491" lon="5.19954">
        <ele>1503</ele>
        <time>2026-05-25T11:29:46.000Z</time>
      </trkpt>
      <trkpt lat="44.64491" lon="5.19954">
        <ele>1503</ele>
        <time>2026-05-25T11:29:47.000Z</time>
      </trkpt>
      <trkpt lat="44.64491" lon="5.19954">
        <ele>1503</ele>
        <time>2026-05-25T11:29:48.000Z</time>
      </trkpt>
      <trkpt lat="44.64491" lon="5.19954">
        <ele>1503</ele>
        <time>2026-05-25T11:29:49.000Z</time>
      </trkpt>
      <trkpt lat="44.64491" lon="5.19954">
        <ele>1503</ele>
        <time>2026-05-25T11:29:50.000Z</time>
      </trkpt>
      <trkpt lat="44.64491" lon="5.19954">
        <ele>1503</ele>
        <time>2026-05-25T11:29:51.000Z</time>
      </trkpt>
      <trkpt lat="44.64491" lon="5.19954">
        <ele>1503</ele>
        <time>2026-05-25T11:29:52.000Z</time>
      </trkpt>
      <trkpt lat="44.64491" lon="5.19954">
        <ele>1503</ele>
        <time>2026-05-25T11:29:53.000Z</time>
      </trkpt>
      <trkpt lat="44.64491" lon="5.19954">
        <ele>1503</ele>
        <time>2026-05-25T11:29:54.000Z</time>
      </trkpt>
      <trkpt lat="44.64491" lon="5.19954">
        <ele>1503</ele>
        <time>2026-05-25T11:29:55.000Z</time>
      </trkpt>
      <trkpt lat="44.64491" lon="5.19954">
        <ele>1503</ele>
        <time>2026-05-25T11:29:56.000Z</time>
      </trkpt>
      <trkpt lat="44.64491" lon="5.19954">
        <ele>1503</ele>
        <time>2026-05-25T11:29:57.000Z</time>
      </trkpt>
      <trkpt lat="44.64491" lon="5.19954">
        <ele>1503</ele>
        <time>2026-05-25T11:29:58.000Z</time>
      </trkpt>
      <trkpt lat="44.64491" lon="5.19954">
        <ele>1503</ele>
        <time>2026-05-25T11:29:59.000Z</time>
      </trkpt>
      <trkpt lat="44.64491" lon="5.19954">
        <ele>1503</ele>
        <time>2026-05-25T11:30:00.000Z</time>
      </trkpt>
      <trkpt lat="44.64491" lon="5.19954">
        <ele>1503</ele>
        <time>2026-05-25T11:30:01.000Z</time>
      </trkpt>
      <trkpt lat="44.64491" lon="5.19954">
        <ele>1503</ele>
        <time>2026-05-25T11:30:02.000Z</time>
      </trkpt>
      <trkpt lat="44.64491" lon="5.19954">
        <ele>1503</ele>
        <time>2026-05-25T11:30:03.000Z</time>
      </trkpt>
      <trkpt lat="44.64491" lon="5.19954">
        <ele>1503</ele>
        <time>2026-05-25T11:30:04.000Z</time>
      </trkpt>
      <trkpt lat="44.64491" lon="5.19954">
        <ele>1503</ele>
        <time>2026-05-25T11:30:05.000Z</time>
      </trkpt>
      <trkpt lat="44.64491" lon="5.19954">
        <ele>1503</ele>
        <time>2026-05-25T11:30:06.000Z</time>
      </trkpt>
      <trkpt lat="44.64491" lon="5.19954">
        <ele>1503</ele>
        <time>2026-05-25T11:30:07.000Z</time>
      </trkpt>
      <trkpt lat="44.64491" lon="5.19954">
        <ele>1503</ele>
        <time>2026-05-25T11:30:08.000Z</time>
      </trkpt>
      <trkpt lat="44.64491" lon="5.19954">
        <ele>1503</ele>
        <time>2026-05-25T11:30:09.000Z</time>
      </trkpt>
      <trkpt lat="44.64491" lon="5.19954">
        <ele>1503</ele>
        <time>2026-05-25T11:30:10.000Z</time>
      </trkpt>
      <trkpt lat="44.64491" lon="5.19954">
        <ele>1503</ele>
        <time>2026-05-25T11:30:11.000Z</time>
      </trkpt>
      <trkpt lat="44.64491" lon="5.19954">
        <ele>1503</ele>
        <time>2026-05-25T11:30:12.000Z</time>
      </trkpt>
      <trkpt lat="44.64491" lon="5.19954">
        <ele>1503</ele>
        <time>2026-05-25T11:30:13.000Z</time>
      </trkpt>
      <trkpt lat="44.64491" lon="5.19954">
        <ele>1503</ele>
        <time>2026-05-25T11:30:14.000Z</time>
      </trkpt>
      <trkpt lat="44.64491" lon="5.19954">
        <ele>1503</ele>
        <time>2026-05-25T11:30:15.000Z</time>
      </trkpt>
      <trkpt lat="44.64491" lon="5.19954">
        <ele>1503</ele>
        <time>2026-05-25T11:30:16.000Z</time>
      </trkpt>
      <trkpt lat="44.64491" lon="5.19954">
        <ele>1503</ele>
        <time>2026-05-25T11:30:17.000Z</time>
      </trkpt>
      <trkpt lat="44.64491" lon="5.19954">
        <ele>1503</ele>
        <time>2026-05-25T11:30:18.000Z</time>
      </trkpt>
      <trkpt lat="44.64491" lon="5.19954">
        <ele>1503</ele>
        <time>2026-05-25T11:30:19.000Z</time>
      </trkpt>
      <trkpt lat="44.64491" lon="5.19954">
        <ele>1503</ele>
        <time>2026-05-25T11:30:20.000Z</time>
      </trkpt>
      <trkpt lat="44.64491" lon="5.19954">
        <ele>1503</ele>
        <time>2026-05-25T11:30:21.000Z</time>
      </trkpt>
      <trkpt lat="44.64491" lon="5.19954">
        <ele>1503</ele>
        <time>2026-05-25T11:30:22.000Z</time>
      </trkpt>
      <trkpt lat="44.64491" lon="5.19954">
        <ele>1503</ele>
        <time>2026-05-25T11:30:23.000Z</time>
      </trkpt>
      <trkpt lat="44.64491" lon="5.19954">
        <ele>1503</ele>
        <time>2026-05-25T11:30:24.000Z</time>
      </trkpt>
      <trkpt lat="44.64491" lon="5.19954">
        <ele>1503</ele>
        <time>2026-05-25T11:30:25.000Z</time>
      </trkpt>
      <trkpt lat="44.64491" lon="5.19954">
        <ele>1503</ele>
        <time>2026-05-25T11:30:26.000Z</time>
      </trkpt>
      <trkpt lat="44.64491" lon="5.19954">
        <ele>1503</ele>
        <time>2026-05-25T11:30:27.000Z</time>
      </trkpt>
      <trkpt lat="44.64491" lon="5.19954">
        <ele>1503</ele>
        <time>2026-05-25T11:30:28.000Z</time>
      </trkpt>
      <trkpt lat="44.64491" lon="5.19954">
        <ele>1503</ele>
        <time>2026-05-25T11:30:29.000Z</time>
      </trkpt>
      <trkpt lat="44.64491" lon="5.19954">
        <ele>1503</ele>
        <time>2026-05-25T11:30:30.000Z</time>
      </trkpt>
      <trkpt lat="44.64491" lon="5.19954">
        <ele>1503</ele>
        <time>2026-05-25T11:30:31.000Z</time>
      </trkpt>
      <trkpt lat="44.64491" lon="5.19954">
        <ele>1503</ele>
        <time>2026-05-25T11:30:32.000Z</time>
      </trkpt>
      <trkpt lat="44.64491" lon="5.19954">
        <ele>1503</ele>
        <time>2026-05-25T11:30:33.000Z</time>
      </trkpt>
      <trkpt lat="44.64491" lon="5.19954">
        <ele>1503</ele>
        <time>2026-05-25T11:30:34.000Z</time>
      </trkpt>
      <trkpt lat="44.64491" lon="5.19954">
        <ele>1503</ele>
        <time>2026-05-25T11:30:35.000Z</time>
      </trkpt>
      <trkpt lat="44.64491" lon="5.19954">
        <ele>1503</ele>
        <time>2026-05-25T11:30:36.000Z</time>
      </trkpt>
      <trkpt lat="44.64491" lon="5.19954">
        <ele>1503</ele>
        <time>2026-05-25T11:30:37.000Z</time>
      </trkpt>
      <trkpt lat="44.64491" lon="5.19954">
        <ele>1503</ele>
        <time>2026-05-25T11:30:38.000Z</time>
      </trkpt>
      <trkpt lat="44.64491" lon="5.19954">
        <ele>1503</ele>
        <time>2026-05-25T11:30:39.000Z</time>
      </trkpt>
      <trkpt lat="44.64491" lon="5.19954">
        <ele>1503</ele>
        <time>2026-05-25T11:30:40.000Z</time>
      </trkpt>
      <trkpt lat="44.64491" lon="5.19954">
        <ele>1503</ele>
        <time>2026-05-25T11:30:41.000Z</time>
      </trkpt>
      <trkpt lat="44.6449" lon="5.19954">
        <ele>1503</ele>
        <time>2026-05-25T11:30:42.000Z</time>
      </trkpt>
      <trkpt lat="44.6449" lon="5.19954">
        <ele>1503</ele>
        <time>2026-05-25T11:30:43.000Z</time>
      </trkpt>
      <trkpt lat="44.6449" lon="5.19955">
        <ele>1503</ele>
        <time>2026-05-25T11:30:44.000Z</time>
      </trkpt>
      <trkpt lat="44.64491" lon="5.19954">
        <ele>1503</ele>
        <time>2026-05-25T11:30:45.000Z</time>
      </trkpt>
      <trkpt lat="44.64491" lon="5.19954">
        <ele>1503</ele>
        <time>2026-05-25T11:30:46.000Z</time>
      </trkpt>
      <trkpt lat="44.64491" lon="5.19954">
        <ele>1503</ele>
        <time>2026-05-25T11:30:47.000Z</time>
      </trkpt>
      <trkpt lat="44.64491" lon="5.19954">
        <ele>1503</ele>
        <time>2026-05-25T11:30:48.000Z</time>
      </trkpt>
      <trkpt lat="44.64491" lon="5.19954">
        <ele>1503</ele>
        <time>2026-05-25T11:30:49.000Z</time>
      </trkpt>
      <trkpt lat="44.64491" lon="5.19952">
        <ele>1503</ele>
        <time>2026-05-25T11:30:50.000Z</time>
      </trkpt>
      <trkpt lat="44.64491" lon="5.19951">
        <ele>1504</ele>
        <time>2026-05-25T11:30:51.000Z</time>
      </trkpt>
      <trkpt lat="44.64491" lon="5.19952">
        <ele>1504</ele>
        <time>2026-05-25T11:30:52.000Z</time>
      </trkpt>
      <trkpt lat="44.6449" lon="5.19952">
        <ele>1504</ele>
        <time>2026-05-25T11:30:53.000Z</time>
      </trkpt>
      <trkpt lat="44.6449" lon="5.19952">
        <ele>1504</ele>
        <time>2026-05-25T11:30:54.000Z</time>
      </trkpt>
      <trkpt lat="44.6449" lon="5.19952">
        <ele>1504</ele>
        <time>2026-05-25T11:30:55.000Z</time>
      </trkpt>
      <trkpt lat="44.6449" lon="5.19952">
        <ele>1504</ele>
        <time>2026-05-25T11:30:56.000Z</time>
      </trkpt>
      <trkpt lat="44.6449" lon="5.19952">
        <ele>1504</ele>
        <time>2026-05-25T11:30:57.000Z</time>
      </trkpt>
      <trkpt lat="44.6449" lon="5.19952">
        <ele>1504</ele>
        <time>2026-05-25T11:30:58.000Z</time>
      </trkpt>
      <trkpt lat="44.6449" lon="5.19952">
        <ele>1504</ele>
        <time>2026-05-25T11:30:59.000Z</time>
      </trkpt>
      <trkpt lat="44.6449" lon="5.19952">
        <ele>1504</ele>
        <time>2026-05-25T11:31:00.000Z</time>
      </trkpt>
      <trkpt lat="44.6449" lon="5.19952">
        <ele>1504</ele>
        <time>2026-05-25T11:31:01.000Z</time>
      </trkpt>
      <trkpt lat="44.6449" lon="5.19955">
        <ele>1503</ele>
        <time>2026-05-25T11:31:02.000Z</time>
      </trkpt>
      <trkpt lat="44.6449" lon="5.19957">
        <ele>1503</ele>
        <time>2026-05-25T11:31:03.000Z</time>
      </trkpt>
      <trkpt lat="44.64491" lon="5.19958">
        <ele>1502</ele>
        <time>2026-05-25T11:31:04.000Z</time>
      </trkpt>
      <trkpt lat="44.64491" lon="5.19959">
        <ele>1502</ele>
        <time>2026-05-25T11:31:05.000Z</time>
      </trkpt>
      <trkpt lat="44.64491" lon="5.19959">
        <ele>1501</ele>
        <time>2026-05-25T11:31:06.000Z</time>
      </trkpt>
      <trkpt lat="44.64491" lon="5.19959">
        <ele>1501</ele>
        <time>2026-05-25T11:31:07.000Z</time>
      </trkpt>
      <trkpt lat="44.64492" lon="5.19961">
        <ele>1501</ele>
        <time>2026-05-25T11:31:08.000Z</time>
      </trkpt>
      <trkpt lat="44.64492" lon="5.19962">
        <ele>1500</ele>
        <time>2026-05-25T11:31:09.000Z</time>
      </trkpt>
      <trkpt lat="44.64493" lon="5.19962">
        <ele>1500</ele>
        <time>2026-05-25T11:31:10.000Z</time>
      </trkpt>
      <trkpt lat="44.64493" lon="5.19962">
        <ele>1500</ele>
        <time>2026-05-25T11:31:11.000Z</time>
      </trkpt>
      <trkpt lat="44.64494" lon="5.19963">
        <ele>1500</ele>
        <time>2026-05-25T11:31:12.000Z</time>
      </trkpt>
      <trkpt lat="44.64495" lon="5.19963">
        <ele>1500</ele>
        <time>2026-05-25T11:31:13.000Z</time>
      </trkpt>
      <trkpt lat="44.64496" lon="5.19963">
        <ele>1500</ele>
        <time>2026-05-25T11:31:14.000Z</time>
      </trkpt>
      <trkpt lat="44.64496" lon="5.19963">
        <ele>1501</ele>
        <time>2026-05-25T11:31:15.000Z</time>
      </trkpt>
      <trkpt lat="44.64497" lon="5.19963">
        <ele>1501</ele>
        <time>2026-05-25T11:31:16.000Z</time>
      </trkpt>
      <trkpt lat="44.64498" lon="5.19964">
        <ele>1501</ele>
        <time>2026-05-25T11:31:17.000Z</time>
      </trkpt>
      <trkpt lat="44.64498" lon="5.19964">
        <ele>1501</ele>
        <time>2026-05-25T11:31:18.000Z</time>
      </trkpt>
      <trkpt lat="44.64499" lon="5.19965">
        <ele>1501</ele>
        <time>2026-05-25T11:31:19.000Z</time>
      </trkpt>
      <trkpt lat="44.645" lon="5.19965">
        <ele>1501</ele>
        <time>2026-05-25T11:31:20.000Z</time>
      </trkpt>
      <trkpt lat="44.645" lon="5.19965">
        <ele>1501</ele>
        <time>2026-05-25T11:31:21.000Z</time>
      </trkpt>
      <trkpt lat="44.645" lon="5.19965">
        <ele>1501</ele>
        <time>2026-05-25T11:31:22.000Z</time>
      </trkpt>
      <trkpt lat="44.645" lon="5.19965">
        <ele>1501</ele>
        <time>2026-05-25T11:31:23.000Z</time>
      </trkpt>
      <trkpt lat="44.645" lon="5.19965">
        <ele>1501</ele>
        <time>2026-05-25T11:31:24.000Z</time>
      </trkpt>
      <trkpt lat="44.645" lon="5.19965">
        <ele>1501</ele>
        <time>2026-05-25T11:31:25.000Z</time>
      </trkpt>
      <trkpt lat="44.645" lon="5.19965">
        <ele>1501</ele>
        <time>2026-05-25T11:31:26.000Z</time>
      </trkpt>
      <trkpt lat="44.64501" lon="5.19965">
        <ele>1501</ele>
        <time>2026-05-25T11:31:27.000Z</time>
      </trkpt>
      <trkpt lat="44.64502" lon="5.19965">
        <ele>1501</ele>
        <time>2026-05-25T11:31:28.000Z</time>
      </trkpt>
      <trkpt lat="44.64502" lon="5.19964">
        <ele>1502</ele>
        <time>2026-05-25T11:31:29.000Z</time>
      </trkpt>
      <trkpt lat="44.64502" lon="5.19964">
        <ele>1502</ele>
        <time>2026-05-25T11:31:30.000Z</time>
      </trkpt>
      <trkpt lat="44.64502" lon="5.19964">
        <ele>1502</ele>
        <time>2026-05-25T11:31:31.000Z</time>
      </trkpt>
      <trkpt lat="44.64502" lon="5.19964">
        <ele>1502</ele>
        <time>2026-05-25T11:31:32.000Z</time>
      </trkpt>
      <trkpt lat="44.64502" lon="5.19964">
        <ele>1502</ele>
        <time>2026-05-25T11:31:33.000Z</time>
      </trkpt>
      <trkpt lat="44.64502" lon="5.19964">
        <ele>1502</ele>
        <time>2026-05-25T11:31:34.000Z</time>
      </trkpt>
      <trkpt lat="44.64502" lon="5.19964">
        <ele>1502</ele>
        <time>2026-05-25T11:31:35.000Z</time>
      </trkpt>
      <trkpt lat="44.64502" lon="5.19964">
        <ele>1502</ele>
        <time>2026-05-25T11:31:36.000Z</time>
      </trkpt>
      <trkpt lat="44.64502" lon="5.19964">
        <ele>1502</ele>
        <time>2026-05-25T11:31:37.000Z</time>
      </trkpt>
      <trkpt lat="44.64501" lon="5.19963">
        <ele>1502</ele>
        <time>2026-05-25T11:31:38.000Z</time>
      </trkpt>
      <trkpt lat="44.645" lon="5.19964">
        <ele>1502</ele>
        <time>2026-05-25T11:31:39.000Z</time>
      </trkpt>
      <trkpt lat="44.645" lon="5.19964">
        <ele>1502</ele>
        <time>2026-05-25T11:31:40.000Z</time>
      </trkpt>
      <trkpt lat="44.64499" lon="5.19964">
        <ele>1501</ele>
        <time>2026-05-25T11:31:41.000Z</time>
      </trkpt>
      <trkpt lat="44.645" lon="5.19963">
        <ele>1501</ele>
        <time>2026-05-25T11:31:42.000Z</time>
      </trkpt>
      <trkpt lat="44.645" lon="5.19963">
        <ele>1501</ele>
        <time>2026-05-25T11:31:43.000Z</time>
      </trkpt>
      <trkpt lat="44.645" lon="5.19963">
        <ele>1502</ele>
        <time>2026-05-25T11:31:44.000Z</time>
      </trkpt>
      <trkpt lat="44.645" lon="5.19963">
        <ele>1502</ele>
        <time>2026-05-25T11:31:45.000Z</time>
      </trkpt>
      <trkpt lat="44.645" lon="5.19963">
        <ele>1502</ele>
        <time>2026-05-25T11:31:46.000Z</time>
      </trkpt>
      <trkpt lat="44.645" lon="5.19962">
        <ele>1500</ele>
        <time>2026-05-25T11:31:47.000Z</time>
      </trkpt>
      <trkpt lat="44.645" lon="5.19962">
        <ele>1500</ele>
        <time>2026-05-25T11:31:48.000Z</time>
      </trkpt>
      <trkpt lat="44.645" lon="5.19962">
        <ele>1500</ele>
        <time>2026-05-25T11:31:49.000Z</time>
      </trkpt>
      <trkpt lat="44.64499" lon="5.19962">
        <ele>1501</ele>
        <time>2026-05-25T11:31:50.000Z</time>
      </trkpt>
      <trkpt lat="44.645" lon="5.19962">
        <ele>1501</ele>
        <time>2026-05-25T11:31:51.000Z</time>
      </trkpt>
      <trkpt lat="44.645" lon="5.19962">
        <ele>1501</ele>
        <time>2026-05-25T11:31:52.000Z</time>
      </trkpt>
      <trkpt lat="44.645" lon="5.19962">
        <ele>1501</ele>
        <time>2026-05-25T11:31:53.000Z</time>
      </trkpt>
      <trkpt lat="44.645" lon="5.19962">
        <ele>1501</ele>
        <time>2026-05-25T11:31:54.000Z</time>
      </trkpt>
      <trkpt lat="44.645" lon="5.19962">
        <ele>1501</ele>
        <time>2026-05-25T11:31:55.000Z</time>
      </trkpt>
      <trkpt lat="44.645" lon="5.19962">
        <ele>1501</ele>
        <time>2026-05-25T11:31:56.000Z</time>
      </trkpt>
      <trkpt lat="44.64499" lon="5.19962">
        <ele>1501</ele>
        <time>2026-05-25T11:31:57.000Z</time>
      </trkpt>
      <trkpt lat="44.645" lon="5.19963">
        <ele>1501</ele>
        <time>2026-05-25T11:31:58.000Z</time>
      </trkpt>
      <trkpt lat="44.645" lon="5.19963">
        <ele>1501</ele>
        <time>2026-05-25T11:31:59.000Z</time>
      </trkpt>
      <trkpt lat="44.645" lon="5.19962">
        <ele>1501</ele>
        <time>2026-05-25T11:32:00.000Z</time>
      </trkpt>
      <trkpt lat="44.645" lon="5.19962">
        <ele>1501</ele>
        <time>2026-05-25T11:32:01.000Z</time>
      </trkpt>
      <trkpt lat="44.645" lon="5.19962">
        <ele>1501</ele>
        <time>2026-05-25T11:32:02.000Z</time>
      </trkpt>
      <trkpt lat="44.645" lon="5.19962">
        <ele>1501</ele>
        <time>2026-05-25T11:32:03.000Z</time>
      </trkpt>
      <trkpt lat="44.645" lon="5.19962">
        <ele>1501</ele>
        <time>2026-05-25T11:32:04.000Z</time>
      </trkpt>
      <trkpt lat="44.645" lon="5.19962">
        <ele>1501</ele>
        <time>2026-05-25T11:32:05.000Z</time>
      </trkpt>
      <trkpt lat="44.645" lon="5.19962">
        <ele>1501</ele>
        <time>2026-05-25T11:32:06.000Z</time>
      </trkpt>
      <trkpt lat="44.645" lon="5.19962">
        <ele>1501</ele>
        <time>2026-05-25T11:32:07.000Z</time>
      </trkpt>
      <trkpt lat="44.645" lon="5.19962">
        <ele>1501</ele>
        <time>2026-05-25T11:32:08.000Z</time>
      </trkpt>
      <trkpt lat="44.645" lon="5.19962">
        <ele>1501</ele>
        <time>2026-05-25T11:32:09.000Z</time>
      </trkpt>
      <trkpt lat="44.645" lon="5.19962">
        <ele>1501</ele>
        <time>2026-05-25T11:32:10.000Z</time>
      </trkpt>
      <trkpt lat="44.645" lon="5.19962">
        <ele>1501</ele>
        <time>2026-05-25T11:32:11.000Z</time>
      </trkpt>
      <trkpt lat="44.645" lon="5.19962">
        <ele>1501</ele>
        <time>2026-05-25T11:32:12.000Z</time>
      </trkpt>
      <trkpt lat="44.645" lon="5.19962">
        <ele>1501</ele>
        <time>2026-05-25T11:32:13.000Z</time>
      </trkpt>
      <trkpt lat="44.645" lon="5.19962">
        <ele>1501</ele>
        <time>2026-05-25T11:32:14.000Z</time>
      </trkpt>
      <trkpt lat="44.645" lon="5.19962">
        <ele>1501</ele>
        <time>2026-05-25T11:32:15.000Z</time>
      </trkpt>
      <trkpt lat="44.645" lon="5.19962">
        <ele>1501</ele>
        <time>2026-05-25T11:32:16.000Z</time>
      </trkpt>
      <trkpt lat="44.645" lon="5.19962">
        <ele>1501</ele>
        <time>2026-05-25T11:32:17.000Z</time>
      </trkpt>
      <trkpt lat="44.645" lon="5.19962">
        <ele>1501</ele>
        <time>2026-05-25T11:32:18.000Z</time>
      </trkpt>
      <trkpt lat="44.645" lon="5.19962">
        <ele>1501</ele>
        <time>2026-05-25T11:32:19.000Z</time>
      </trkpt>
      <trkpt lat="44.645" lon="5.19962">
        <ele>1501</ele>
        <time>2026-05-25T11:32:20.000Z</time>
      </trkpt>
      <trkpt lat="44.645" lon="5.19962">
        <ele>1501</ele>
        <time>2026-05-25T11:32:21.000Z</time>
      </trkpt>
      <trkpt lat="44.645" lon="5.19962">
        <ele>1501</ele>
        <time>2026-05-25T11:32:22.000Z</time>
      </trkpt>
      <trkpt lat="44.645" lon="5.19962">
        <ele>1501</ele>
        <time>2026-05-25T11:32:23.000Z</time>
      </trkpt>
      <trkpt lat="44.645" lon="5.19962">
        <ele>1501</ele>
        <time>2026-05-25T11:32:24.000Z</time>
      </trkpt>
      <trkpt lat="44.645" lon="5.19962">
        <ele>1501</ele>
        <time>2026-05-25T11:32:25.000Z</time>
      </trkpt>
      <trkpt lat="44.645" lon="5.19962">
        <ele>1501</ele>
        <time>2026-05-25T11:32:26.000Z</time>
      </trkpt>
      <trkpt lat="44.645" lon="5.19962">
        <ele>1501</ele>
        <time>2026-05-25T11:32:27.000Z</time>
      </trkpt>
      <trkpt lat="44.645" lon="5.19962">
        <ele>1501</ele>
        <time>2026-05-25T11:32:28.000Z</time>
      </trkpt>
      <trkpt lat="44.645" lon="5.19962">
        <ele>1501</ele>
        <time>2026-05-25T11:32:29.000Z</time>
      </trkpt>
      <trkpt lat="44.645" lon="5.19962">
        <ele>1501</ele>
        <time>2026-05-25T11:32:30.000Z</time>
      </trkpt>
      <trkpt lat="44.645" lon="5.19962">
        <ele>1501</ele>
        <time>2026-05-25T11:32:31.000Z</time>
      </trkpt>
      <trkpt lat="44.645" lon="5.19962">
        <ele>1501</ele>
        <time>2026-05-25T11:32:32.000Z</time>
      </trkpt>
      <trkpt lat="44.645" lon="5.19962">
        <ele>1501</ele>
        <time>2026-05-25T11:32:33.000Z</time>
      </trkpt>
      <trkpt lat="44.645" lon="5.19962">
        <ele>1501</ele>
        <time>2026-05-25T11:32:34.000Z</time>
      </trkpt>
      <trkpt lat="44.645" lon="5.19962">
        <ele>1501</ele>
        <time>2026-05-25T11:32:35.000Z</time>
      </trkpt>
      <trkpt lat="44.645" lon="5.19962">
        <ele>1501</ele>
        <time>2026-05-25T11:32:36.000Z</time>
      </trkpt>
      <trkpt lat="44.645" lon="5.19962">
        <ele>1501</ele>
        <time>2026-05-25T11:32:37.000Z</time>
      </trkpt>
      <trkpt lat="44.645" lon="5.19962">
        <ele>1501</ele>
        <time>2026-05-25T11:32:38.000Z</time>
      </trkpt>
      <trkpt lat="44.645" lon="5.19962">
        <ele>1501</ele>
        <time>2026-05-25T11:32:39.000Z</time>
      </trkpt>
      <trkpt lat="44.64501" lon="5.19963">
        <ele>1501</ele>
        <time>2026-05-25T11:32:40.000Z</time>
      </trkpt>
      <trkpt lat="44.64502" lon="5.19963">
        <ele>1501</ele>
        <time>2026-05-25T11:32:41.000Z</time>
      </trkpt>
      <trkpt lat="44.64503" lon="5.19962">
        <ele>1501</ele>
        <time>2026-05-25T11:32:42.000Z</time>
      </trkpt>
      <trkpt lat="44.64503" lon="5.19962">
        <ele>1501</ele>
        <time>2026-05-25T11:32:43.000Z</time>
      </trkpt>
      <trkpt lat="44.64503" lon="5.19963">
        <ele>1501</ele>
        <time>2026-05-25T11:32:44.000Z</time>
      </trkpt>
      <trkpt lat="44.64504" lon="5.19964">
        <ele>1501</ele>
        <time>2026-05-25T11:32:45.000Z</time>
      </trkpt>
      <trkpt lat="44.64504" lon="5.19964">
        <ele>1501</ele>
        <time>2026-05-25T11:32:46.000Z</time>
      </trkpt>
      <trkpt lat="44.64504" lon="5.19964">
        <ele>1501</ele>
        <time>2026-05-25T11:32:47.000Z</time>
      </trkpt>
      <trkpt lat="44.64504" lon="5.19964">
        <ele>1501</ele>
        <time>2026-05-25T11:32:48.000Z</time>
      </trkpt>
      <trkpt lat="44.64504" lon="5.19964">
        <ele>1501</ele>
        <time>2026-05-25T11:32:49.000Z</time>
      </trkpt>
      <trkpt lat="44.64504" lon="5.19964">
        <ele>1501</ele>
        <time>2026-05-25T11:32:50.000Z</time>
      </trkpt>
      <trkpt lat="44.64504" lon="5.19964">
        <ele>1501</ele>
        <time>2026-05-25T11:32:51.000Z</time>
      </trkpt>
      <trkpt lat="44.64504" lon="5.19964">
        <ele>1501</ele>
        <time>2026-05-25T11:32:52.000Z</time>
      </trkpt>
      <trkpt lat="44.64504" lon="5.19964">
        <ele>1501</ele>
        <time>2026-05-25T11:32:53.000Z</time>
      </trkpt>
      <trkpt lat="44.64503" lon="5.19964">
        <ele>1501</ele>
        <time>2026-05-25T11:32:54.000Z</time>
      </trkpt>
      <trkpt lat="44.64502" lon="5.19964">
        <ele>1500</ele>
        <time>2026-05-25T11:32:55.000Z</time>
      </trkpt>
      <trkpt lat="44.64502" lon="5.19964">
        <ele>1500</ele>
        <time>2026-05-25T11:32:56.000Z</time>
      </trkpt>
      <trkpt lat="44.64502" lon="5.19964">
        <ele>1500</ele>
        <time>2026-05-25T11:32:57.000Z</time>
      </trkpt>
      <trkpt lat="44.64501" lon="5.19965">
        <ele>1500</ele>
        <time>2026-05-25T11:32:58.000Z</time>
      </trkpt>
      <trkpt lat="44.64501" lon="5.19965">
        <ele>1500</ele>
        <time>2026-05-25T11:32:59.000Z</time>
      </trkpt>
      <trkpt lat="44.64501" lon="5.19965">
        <ele>1500</ele>
        <time>2026-05-25T11:33:00.000Z</time>
      </trkpt>
      <trkpt lat="44.64501" lon="5.19965">
        <ele>1500</ele>
        <time>2026-05-25T11:33:01.000Z</time>
      </trkpt>
      <trkpt lat="44.64501" lon="5.19965">
        <ele>1500</ele>
        <time>2026-05-25T11:33:02.000Z</time>
      </trkpt>
      <trkpt lat="44.64501" lon="5.19965">
        <ele>1500</ele>
        <time>2026-05-25T11:33:03.000Z</time>
      </trkpt>
      <trkpt lat="44.64501" lon="5.19965">
        <ele>1500</ele>
        <time>2026-05-25T11:33:04.000Z</time>
      </trkpt>
      <trkpt lat="44.645" lon="5.19964">
        <ele>1500</ele>
        <time>2026-05-25T11:33:05.000Z</time>
      </trkpt>
      <trkpt lat="44.645" lon="5.19964">
        <ele>1500</ele>
        <time>2026-05-25T11:33:06.000Z</time>
      </trkpt>
      <trkpt lat="44.645" lon="5.19963">
        <ele>1500</ele>
        <time>2026-05-25T11:33:07.000Z</time>
      </trkpt>
      <trkpt lat="44.64501" lon="5.19964">
        <ele>1500</ele>
        <time>2026-05-25T11:33:08.000Z</time>
      </trkpt>
      <trkpt lat="44.64501" lon="5.19964">
        <ele>1500</ele>
        <time>2026-05-25T11:33:09.000Z</time>
      </trkpt>
      <trkpt lat="44.64501" lon="5.19964">
        <ele>1500</ele>
        <time>2026-05-25T11:33:10.000Z</time>
      </trkpt>
      <trkpt lat="44.64501" lon="5.19964">
        <ele>1500</ele>
        <time>2026-05-25T11:33:11.000Z</time>
      </trkpt>
      <trkpt lat="44.64501" lon="5.19964">
        <ele>1500</ele>
        <time>2026-05-25T11:33:12.000Z</time>
      </trkpt>
      <trkpt lat="44.64501" lon="5.19964">
        <ele>1500</ele>
        <time>2026-05-25T11:33:13.000Z</time>
      </trkpt>
      <trkpt lat="44.64501" lon="5.19964">
        <ele>1500</ele>
        <time>2026-05-25T11:33:14.000Z</time>
      </trkpt>
      <trkpt lat="44.64501" lon="5.19964">
        <ele>1500</ele>
        <time>2026-05-25T11:33:15.000Z</time>
      </trkpt>
      <trkpt lat="44.64501" lon="5.19964">
        <ele>1500</ele>
        <time>2026-05-25T11:33:16.000Z</time>
      </trkpt>
      <trkpt lat="44.64501" lon="5.19964">
        <ele>1500</ele>
        <time>2026-05-25T11:33:17.000Z</time>
      </trkpt>
      <trkpt lat="44.64501" lon="5.19964">
        <ele>1500</ele>
        <time>2026-05-25T11:33:18.000Z</time>
      </trkpt>
      <trkpt lat="44.64501" lon="5.19964">
        <ele>1500</ele>
        <time>2026-05-25T11:33:19.000Z</time>
      </trkpt>
      <trkpt lat="44.64501" lon="5.19964">
        <ele>1500</ele>
        <time>2026-05-25T11:33:20.000Z</time>
      </trkpt>
      <trkpt lat="44.64501" lon="5.19964">
        <ele>1500</ele>
        <time>2026-05-25T11:33:21.000Z</time>
      </trkpt>
      <trkpt lat="44.64501" lon="5.19964">
        <ele>1500</ele>
        <time>2026-05-25T11:33:22.000Z</time>
      </trkpt>
      <trkpt lat="44.64501" lon="5.19964">
        <ele>1500</ele>
        <time>2026-05-25T11:33:23.000Z</time>
      </trkpt>
      <trkpt lat="44.64501" lon="5.19964">
        <ele>1500</ele>
        <time>2026-05-25T11:33:24.000Z</time>
      </trkpt>
      <trkpt lat="44.64501" lon="5.19964">
        <ele>1500</ele>
        <time>2026-05-25T11:33:25.000Z</time>
      </trkpt>
      <trkpt lat="44.64501" lon="5.19964">
        <ele>1500</ele>
        <time>2026-05-25T11:33:26.000Z</time>
      </trkpt>
      <trkpt lat="44.64501" lon="5.19964">
        <ele>1500</ele>
        <time>2026-05-25T11:33:27.000Z</time>
      </trkpt>
      <trkpt lat="44.64501" lon="5.19964">
        <ele>1500</ele>
        <time>2026-05-25T11:33:28.000Z</time>
      </trkpt>
      <trkpt lat="44.64501" lon="5.19964">
        <ele>1500</ele>
        <time>2026-05-25T11:33:29.000Z</time>
      </trkpt>
      <trkpt lat="44.64501" lon="5.19964">
        <ele>1500</ele>
        <time>2026-05-25T11:33:30.000Z</time>
      </trkpt>
      <trkpt lat="44.64501" lon="5.19964">
        <ele>1500</ele>
        <time>2026-05-25T11:33:31.000Z</time>
      </trkpt>
      <trkpt lat="44.64501" lon="5.19964">
        <ele>1500</ele>
        <time>2026-05-25T11:33:32.000Z</time>
      </trkpt>
      <trkpt lat="44.64501" lon="5.19964">
        <ele>1500</ele>
        <time>2026-05-25T11:33:33.000Z</time>
      </trkpt>
      <trkpt lat="44.64501" lon="5.19964">
        <ele>1500</ele>
        <time>2026-05-25T11:33:34.000Z</time>
      </trkpt>
      <trkpt lat="44.64501" lon="5.19964">
        <ele>1500</ele>
        <time>2026-05-25T11:33:35.000Z</time>
      </trkpt>
      <trkpt lat="44.64501" lon="5.19964">
        <ele>1500</ele>
        <time>2026-05-25T11:33:36.000Z</time>
      </trkpt>
      <trkpt lat="44.645" lon="5.19965">
        <ele>1499</ele>
        <time>2026-05-25T11:33:37.000Z</time>
      </trkpt>
      <trkpt lat="44.645" lon="5.19965">
        <ele>1499</ele>
        <time>2026-05-25T11:33:38.000Z</time>
      </trkpt>
      <trkpt lat="44.645" lon="5.19965">
        <ele>1499</ele>
        <time>2026-05-25T11:33:39.000Z</time>
      </trkpt>
      <trkpt lat="44.645" lon="5.19965">
        <ele>1499</ele>
        <time>2026-05-25T11:33:40.000Z</time>
      </trkpt>
      <trkpt lat="44.645" lon="5.19965">
        <ele>1500</ele>
        <time>2026-05-25T11:33:41.000Z</time>
      </trkpt>
      <trkpt lat="44.645" lon="5.19964">
        <ele>1499</ele>
        <time>2026-05-25T11:33:42.000Z</time>
      </trkpt>
      <trkpt lat="44.645" lon="5.19964">
        <ele>1499</ele>
        <time>2026-05-25T11:33:43.000Z</time>
      </trkpt>
      <trkpt lat="44.645" lon="5.19964">
        <ele>1499</ele>
        <time>2026-05-25T11:33:44.000Z</time>
      </trkpt>
      <trkpt lat="44.645" lon="5.19964">
        <ele>1499</ele>
        <time>2026-05-25T11:33:45.000Z</time>
      </trkpt>
      <trkpt lat="44.645" lon="5.19964">
        <ele>1499</ele>
        <time>2026-05-25T11:33:46.000Z</time>
      </trkpt>
      <trkpt lat="44.645" lon="5.19964">
        <ele>1499</ele>
        <time>2026-05-25T11:33:47.000Z</time>
      </trkpt>
      <trkpt lat="44.645" lon="5.19964">
        <ele>1499</ele>
        <time>2026-05-25T11:33:48.000Z</time>
      </trkpt>
      <trkpt lat="44.645" lon="5.19964">
        <ele>1499</ele>
        <time>2026-05-25T11:33:49.000Z</time>
      </trkpt>
      <trkpt lat="44.645" lon="5.19963">
        <ele>1498</ele>
        <time>2026-05-25T11:33:50.000Z</time>
      </trkpt>
      <trkpt lat="44.645" lon="5.19963">
        <ele>1498</ele>
        <time>2026-05-25T11:33:51.000Z</time>
      </trkpt>
      <trkpt lat="44.645" lon="5.19963">
        <ele>1498</ele>
        <time>2026-05-25T11:33:52.000Z</time>
      </trkpt>
      <trkpt lat="44.645" lon="5.19963">
        <ele>1498</ele>
        <time>2026-05-25T11:33:53.000Z</time>
      </trkpt>
      <trkpt lat="44.645" lon="5.19963">
        <ele>1498</ele>
        <time>2026-05-25T11:33:54.000Z</time>
      </trkpt>
      <trkpt lat="44.645" lon="5.19963">
        <ele>1498</ele>
        <time>2026-05-25T11:33:55.000Z</time>
      </trkpt>
      <trkpt lat="44.645" lon="5.19963">
        <ele>1498</ele>
        <time>2026-05-25T11:33:56.000Z</time>
      </trkpt>
      <trkpt lat="44.645" lon="5.19963">
        <ele>1498</ele>
        <time>2026-05-25T11:33:57.000Z</time>
      </trkpt>
      <trkpt lat="44.645" lon="5.19963">
        <ele>1498</ele>
        <time>2026-05-25T11:33:58.000Z</time>
      </trkpt>
      <trkpt lat="44.645" lon="5.19963">
        <ele>1498</ele>
        <time>2026-05-25T11:33:59.000Z</time>
      </trkpt>
      <trkpt lat="44.645" lon="5.19963">
        <ele>1498</ele>
        <time>2026-05-25T11:34:00.000Z</time>
      </trkpt>
      <trkpt lat="44.645" lon="5.19963">
        <ele>1498</ele>
        <time>2026-05-25T11:34:01.000Z</time>
      </trkpt>
      <trkpt lat="44.645" lon="5.19963">
        <ele>1498</ele>
        <time>2026-05-25T11:34:02.000Z</time>
      </trkpt>
      <trkpt lat="44.645" lon="5.19963">
        <ele>1498</ele>
        <time>2026-05-25T11:34:03.000Z</time>
      </trkpt>
      <trkpt lat="44.645" lon="5.19963">
        <ele>1498</ele>
        <time>2026-05-25T11:34:04.000Z</time>
      </trkpt>
      <trkpt lat="44.645" lon="5.19963">
        <ele>1498</ele>
        <time>2026-05-25T11:34:05.000Z</time>
      </trkpt>
      <trkpt lat="44.645" lon="5.19963">
        <ele>1498</ele>
        <time>2026-05-25T11:34:06.000Z</time>
      </trkpt>
      <trkpt lat="44.645" lon="5.19963">
        <ele>1498</ele>
        <time>2026-05-25T11:34:07.000Z</time>
      </trkpt>
      <trkpt lat="44.645" lon="5.19963">
        <ele>1498</ele>
        <time>2026-05-25T11:34:08.000Z</time>
      </trkpt>
      <trkpt lat="44.645" lon="5.19963">
        <ele>1498</ele>
        <time>2026-05-25T11:34:09.000Z</time>
      </trkpt>
      <trkpt lat="44.645" lon="5.19963">
        <ele>1498</ele>
        <time>2026-05-25T11:34:10.000Z</time>
      </trkpt>
      <trkpt lat="44.645" lon="5.19963">
        <ele>1498</ele>
        <time>2026-05-25T11:34:11.000Z</time>
      </trkpt>
      <trkpt lat="44.645" lon="5.19963">
        <ele>1498</ele>
        <time>2026-05-25T11:34:12.000Z</time>
      </trkpt>
      <trkpt lat="44.645" lon="5.19963">
        <ele>1498</ele>
        <time>2026-05-25T11:34:13.000Z</time>
      </trkpt>
      <trkpt lat="44.645" lon="5.19963">
        <ele>1498</ele>
        <time>2026-05-25T11:34:14.000Z</time>
      </trkpt>
      <trkpt lat="44.645" lon="5.19963">
        <ele>1498</ele>
        <time>2026-05-25T11:34:15.000Z</time>
      </trkpt>
      <trkpt lat="44.645" lon="5.19963">
        <ele>1498</ele>
        <time>2026-05-25T11:34:16.000Z</time>
      </trkpt>
      <trkpt lat="44.645" lon="5.19963">
        <ele>1498</ele>
        <time>2026-05-25T11:34:17.000Z</time>
      </trkpt>
      <trkpt lat="44.645" lon="5.19963">
        <ele>1498</ele>
        <time>2026-05-25T11:34:18.000Z</time>
      </trkpt>
      <trkpt lat="44.645" lon="5.19963">
        <ele>1498</ele>
        <time>2026-05-25T11:34:19.000Z</time>
      </trkpt>
      <trkpt lat="44.645" lon="5.19963">
        <ele>1498</ele>
        <time>2026-05-25T11:34:20.000Z</time>
      </trkpt>
      <trkpt lat="44.645" lon="5.19963">
        <ele>1498</ele>
        <time>2026-05-25T11:34:21.000Z</time>
      </trkpt>
      <trkpt lat="44.645" lon="5.19963">
        <ele>1498</ele>
        <time>2026-05-25T11:34:22.000Z</time>
      </trkpt>
      <trkpt lat="44.645" lon="5.19963">
        <ele>1498</ele>
        <time>2026-05-25T11:34:23.000Z</time>
      </trkpt>
      <trkpt lat="44.645" lon="5.19963">
        <ele>1498</ele>
        <time>2026-05-25T11:34:24.000Z</time>
      </trkpt>
      <trkpt lat="44.645" lon="5.19963">
        <ele>1498</ele>
        <time>2026-05-25T11:34:25.000Z</time>
      </trkpt>
      <trkpt lat="44.645" lon="5.19963">
        <ele>1498</ele>
        <time>2026-05-25T11:34:26.000Z</time>
      </trkpt>
      <trkpt lat="44.645" lon="5.19963">
        <ele>1498</ele>
        <time>2026-05-25T11:34:27.000Z</time>
      </trkpt>
      <trkpt lat="44.645" lon="5.19963">
        <ele>1498</ele>
        <time>2026-05-25T11:34:28.000Z</time>
      </trkpt>
      <trkpt lat="44.645" lon="5.19963">
        <ele>1498</ele>
        <time>2026-05-25T11:34:29.000Z</time>
      </trkpt>
      <trkpt lat="44.645" lon="5.19963">
        <ele>1498</ele>
        <time>2026-05-25T11:34:30.000Z</time>
      </trkpt>
      <trkpt lat="44.645" lon="5.19963">
        <ele>1498</ele>
        <time>2026-05-25T11:34:31.000Z</time>
      </trkpt>
      <trkpt lat="44.645" lon="5.19963">
        <ele>1498</ele>
        <time>2026-05-25T11:34:32.000Z</time>
      </trkpt>
      <trkpt lat="44.645" lon="5.19963">
        <ele>1498</ele>
        <time>2026-05-25T11:34:33.000Z</time>
      </trkpt>
      <trkpt lat="44.645" lon="5.19963">
        <ele>1498</ele>
        <time>2026-05-25T11:34:34.000Z</time>
      </trkpt>
      <trkpt lat="44.645" lon="5.19963">
        <ele>1498</ele>
        <time>2026-05-25T11:34:35.000Z</time>
      </trkpt>
      <trkpt lat="44.645" lon="5.19963">
        <ele>1498</ele>
        <time>2026-05-25T11:34:36.000Z</time>
      </trkpt>
      <trkpt lat="44.645" lon="5.19963">
        <ele>1498</ele>
        <time>2026-05-25T11:34:37.000Z</time>
      </trkpt>
      <trkpt lat="44.645" lon="5.19963">
        <ele>1498</ele>
        <time>2026-05-25T11:34:38.000Z</time>
      </trkpt>
      <trkpt lat="44.645" lon="5.19963">
        <ele>1498</ele>
        <time>2026-05-25T11:34:39.000Z</time>
      </trkpt>
      <trkpt lat="44.645" lon="5.19963">
        <ele>1498</ele>
        <time>2026-05-25T11:34:40.000Z</time>
      </trkpt>
      <trkpt lat="44.645" lon="5.19963">
        <ele>1498</ele>
        <time>2026-05-25T11:34:41.000Z</time>
      </trkpt>
      <trkpt lat="44.645" lon="5.19963">
        <ele>1498</ele>
        <time>2026-05-25T11:34:42.000Z</time>
      </trkpt>
      <trkpt lat="44.645" lon="5.19963">
        <ele>1498</ele>
        <time>2026-05-25T11:34:43.000Z</time>
      </trkpt>
      <trkpt lat="44.645" lon="5.19963">
        <ele>1498</ele>
        <time>2026-05-25T11:34:44.000Z</time>
      </trkpt>
      <trkpt lat="44.645" lon="5.19963">
        <ele>1498</ele>
        <time>2026-05-25T11:34:45.000Z</time>
      </trkpt>
      <trkpt lat="44.645" lon="5.19963">
        <ele>1498</ele>
        <time>2026-05-25T11:34:46.000Z</time>
      </trkpt>
      <trkpt lat="44.645" lon="5.19963">
        <ele>1498</ele>
        <time>2026-05-25T11:34:47.000Z</time>
      </trkpt>
      <trkpt lat="44.645" lon="5.19963">
        <ele>1498</ele>
        <time>2026-05-25T11:34:48.000Z</time>
      </trkpt>
      <trkpt lat="44.645" lon="5.19963">
        <ele>1498</ele>
        <time>2026-05-25T11:34:49.000Z</time>
      </trkpt>
      <trkpt lat="44.645" lon="5.19963">
        <ele>1498</ele>
        <time>2026-05-25T11:34:50.000Z</time>
      </trkpt>
      <trkpt lat="44.645" lon="5.19963">
        <ele>1498</ele>
        <time>2026-05-25T11:34:51.000Z</time>
      </trkpt>
      <trkpt lat="44.645" lon="5.19963">
        <ele>1498</ele>
        <time>2026-05-25T11:34:52.000Z</time>
      </trkpt>
      <trkpt lat="44.645" lon="5.19963">
        <ele>1498</ele>
        <time>2026-05-25T11:34:53.000Z</time>
      </trkpt>
      <trkpt lat="44.645" lon="5.19963">
        <ele>1498</ele>
        <time>2026-05-25T11:34:54.000Z</time>
      </trkpt>
      <trkpt lat="44.645" lon="5.19963">
        <ele>1498</ele>
        <time>2026-05-25T11:34:55.000Z</time>
      </trkpt>
      <trkpt lat="44.645" lon="5.19963">
        <ele>1498</ele>
        <time>2026-05-25T11:34:56.000Z</time>
      </trkpt>
      <trkpt lat="44.645" lon="5.19963">
        <ele>1498</ele>
        <time>2026-05-25T11:34:57.000Z</time>
      </trkpt>
      <trkpt lat="44.645" lon="5.19963">
        <ele>1498</ele>
        <time>2026-05-25T11:34:58.000Z</time>
      </trkpt>
      <trkpt lat="44.645" lon="5.19963">
        <ele>1498</ele>
        <time>2026-05-25T11:34:59.000Z</time>
      </trkpt>
      <trkpt lat="44.645" lon="5.19963">
        <ele>1498</ele>
        <time>2026-05-25T11:35:00.000Z</time>
      </trkpt>
      <trkpt lat="44.645" lon="5.19963">
        <ele>1498</ele>
        <time>2026-05-25T11:35:01.000Z</time>
      </trkpt>
      <trkpt lat="44.645" lon="5.19963">
        <ele>1498</ele>
        <time>2026-05-25T11:35:02.000Z</time>
      </trkpt>
      <trkpt lat="44.645" lon="5.19963">
        <ele>1498</ele>
        <time>2026-05-25T11:35:03.000Z</time>
      </trkpt>
      <trkpt lat="44.645" lon="5.19963">
        <ele>1498</ele>
        <time>2026-05-25T11:35:04.000Z</time>
      </trkpt>
      <trkpt lat="44.645" lon="5.19963">
        <ele>1498</ele>
        <time>2026-05-25T11:35:05.000Z</time>
      </trkpt>
      <trkpt lat="44.645" lon="5.19963">
        <ele>1498</ele>
        <time>2026-05-25T11:35:06.000Z</time>
      </trkpt>
      <trkpt lat="44.645" lon="5.19963">
        <ele>1498</ele>
        <time>2026-05-25T11:35:07.000Z</time>
      </trkpt>
      <trkpt lat="44.645" lon="5.19963">
        <ele>1498</ele>
        <time>2026-05-25T11:35:08.000Z</time>
      </trkpt>
      <trkpt lat="44.645" lon="5.19963">
        <ele>1498</ele>
        <time>2026-05-25T11:35:09.000Z</time>
      </trkpt>
      <trkpt lat="44.645" lon="5.19963">
        <ele>1498</ele>
        <time>2026-05-25T11:35:10.000Z</time>
      </trkpt>
      <trkpt lat="44.645" lon="5.19963">
        <ele>1498</ele>
        <time>2026-05-25T11:35:11.000Z</time>
      </trkpt>
      <trkpt lat="44.645" lon="5.19963">
        <ele>1498</ele>
        <time>2026-05-25T11:35:12.000Z</time>
      </trkpt>
      <trkpt lat="44.645" lon="5.19963">
        <ele>1498</ele>
        <time>2026-05-25T11:35:13.000Z</time>
      </trkpt>
      <trkpt lat="44.645" lon="5.19963">
        <ele>1498</ele>
        <time>2026-05-25T11:35:14.000Z</time>
      </trkpt>
      <trkpt lat="44.645" lon="5.19963">
        <ele>1498</ele>
        <time>2026-05-25T11:35:15.000Z</time>
      </trkpt>
      <trkpt lat="44.645" lon="5.19963">
        <ele>1498</ele>
        <time>2026-05-25T11:35:16.000Z</time>
      </trkpt>
      <trkpt lat="44.645" lon="5.19963">
        <ele>1498</ele>
        <time>2026-05-25T11:35:17.000Z</time>
      </trkpt>
      <trkpt lat="44.645" lon="5.19963">
        <ele>1498</ele>
        <time>2026-05-25T11:35:18.000Z</time>
      </trkpt>
      <trkpt lat="44.645" lon="5.19963">
        <ele>1498</ele>
        <time>2026-05-25T11:35:19.000Z</time>
      </trkpt>
      <trkpt lat="44.645" lon="5.19963">
        <ele>1498</ele>
        <time>2026-05-25T11:35:20.000Z</time>
      </trkpt>
      <trkpt lat="44.645" lon="5.19963">
        <ele>1498</ele>
        <time>2026-05-25T11:35:21.000Z</time>
      </trkpt>
      <trkpt lat="44.645" lon="5.19963">
        <ele>1498</ele>
        <time>2026-05-25T11:35:22.000Z</time>
      </trkpt>
      <trkpt lat="44.645" lon="5.19963">
        <ele>1498</ele>
        <time>2026-05-25T11:35:23.000Z</time>
      </trkpt>
      <trkpt lat="44.645" lon="5.19963">
        <ele>1498</ele>
        <time>2026-05-25T11:35:24.000Z</time>
      </trkpt>
      <trkpt lat="44.645" lon="5.19963">
        <ele>1498</ele>
        <time>2026-05-25T11:35:25.000Z</time>
      </trkpt>
      <trkpt lat="44.645" lon="5.19963">
        <ele>1498</ele>
        <time>2026-05-25T11:35:26.000Z</time>
      </trkpt>
      <trkpt lat="44.645" lon="5.19963">
        <ele>1498</ele>
        <time>2026-05-25T11:35:27.000Z</time>
      </trkpt>
      <trkpt lat="44.645" lon="5.19963">
        <ele>1498</ele>
        <time>2026-05-25T11:35:28.000Z</time>
      </trkpt>
      <trkpt lat="44.645" lon="5.19963">
        <ele>1498</ele>
        <time>2026-05-25T11:35:29.000Z</time>
      </trkpt>
      <trkpt lat="44.645" lon="5.19963">
        <ele>1498</ele>
        <time>2026-05-25T11:35:30.000Z</time>
      </trkpt>
      <trkpt lat="44.645" lon="5.19963">
        <ele>1498</ele>
        <time>2026-05-25T11:35:31.000Z</time>
      </trkpt>
      <trkpt lat="44.645" lon="5.19963">
        <ele>1498</ele>
        <time>2026-05-25T11:35:32.000Z</time>
      </trkpt>
      <trkpt lat="44.645" lon="5.19963">
        <ele>1498</ele>
        <time>2026-05-25T11:35:33.000Z</time>
      </trkpt>
      <trkpt lat="44.645" lon="5.19963">
        <ele>1498</ele>
        <time>2026-05-25T11:35:34.000Z</time>
      </trkpt>
      <trkpt lat="44.645" lon="5.19963">
        <ele>1498</ele>
        <time>2026-05-25T11:35:35.000Z</time>
      </trkpt>
      <trkpt lat="44.645" lon="5.19963">
        <ele>1498</ele>
        <time>2026-05-25T11:35:36.000Z</time>
      </trkpt>
      <trkpt lat="44.645" lon="5.19963">
        <ele>1498</ele>
        <time>2026-05-25T11:35:37.000Z</time>
      </trkpt>
      <trkpt lat="44.645" lon="5.19963">
        <ele>1498</ele>
        <time>2026-05-25T11:35:38.000Z</time>
      </trkpt>
      <trkpt lat="44.645" lon="5.19963">
        <ele>1498</ele>
        <time>2026-05-25T11:35:39.000Z</time>
      </trkpt>
      <trkpt lat="44.645" lon="5.19963">
        <ele>1498</ele>
        <time>2026-05-25T11:35:40.000Z</time>
      </trkpt>
      <trkpt lat="44.645" lon="5.19963">
        <ele>1498</ele>
        <time>2026-05-25T11:35:41.000Z</time>
      </trkpt>
      <trkpt lat="44.645" lon="5.19963">
        <ele>1498</ele>
        <time>2026-05-25T11:35:42.000Z</time>
      </trkpt>
      <trkpt lat="44.645" lon="5.19963">
        <ele>1498</ele>
        <time>2026-05-25T11:35:43.000Z</time>
      </trkpt>
      <trkpt lat="44.645" lon="5.19963">
        <ele>1498</ele>
        <time>2026-05-25T11:35:44.000Z</time>
      </trkpt>
      <trkpt lat="44.645" lon="5.19963">
        <ele>1498</ele>
        <time>2026-05-25T11:35:45.000Z</time>
      </trkpt>
      <trkpt lat="44.645" lon="5.19963">
        <ele>1498</ele>
        <time>2026-05-25T11:35:46.000Z</time>
      </trkpt>
      <trkpt lat="44.645" lon="5.19963">
        <ele>1498</ele>
        <time>2026-05-25T11:35:47.000Z</time>
      </trkpt>
      <trkpt lat="44.645" lon="5.19963">
        <ele>1498</ele>
        <time>2026-05-25T11:35:48.000Z</time>
      </trkpt>
      <trkpt lat="44.645" lon="5.19963">
        <ele>1498</ele>
        <time>2026-05-25T11:35:49.000Z</time>
      </trkpt>
      <trkpt lat="44.645" lon="5.19963">
        <ele>1498</ele>
        <time>2026-05-25T11:35:50.000Z</time>
      </trkpt>
      <trkpt lat="44.645" lon="5.19963">
        <ele>1498</ele>
        <time>2026-05-25T11:35:51.000Z</time>
      </trkpt>
      <trkpt lat="44.645" lon="5.19963">
        <ele>1498</ele>
        <time>2026-05-25T11:35:52.000Z</time>
      </trkpt>
      <trkpt lat="44.645" lon="5.19963">
        <ele>1498</ele>
        <time>2026-05-25T11:35:53.000Z</time>
      </trkpt>
      <trkpt lat="44.645" lon="5.19963">
        <ele>1498</ele>
        <time>2026-05-25T11:35:54.000Z</time>
      </trkpt>
      <trkpt lat="44.645" lon="5.19963">
        <ele>1498</ele>
        <time>2026-05-25T11:35:55.000Z</time>
      </trkpt>
      <trkpt lat="44.645" lon="5.19963">
        <ele>1498</ele>
        <time>2026-05-25T11:35:56.000Z</time>
      </trkpt>
      <trkpt lat="44.645" lon="5.19963">
        <ele>1498</ele>
        <time>2026-05-25T11:35:57.000Z</time>
      </trkpt>
      <trkpt lat="44.645" lon="5.19963">
        <ele>1498</ele>
        <time>2026-05-25T11:35:58.000Z</time>
      </trkpt>
      <trkpt lat="44.645" lon="5.19963">
        <ele>1498</ele>
        <time>2026-05-25T11:35:59.000Z</time>
      </trkpt>
      <trkpt lat="44.645" lon="5.19963">
        <ele>1498</ele>
        <time>2026-05-25T11:36:00.000Z</time>
      </trkpt>
      <trkpt lat="44.645" lon="5.19963">
        <ele>1498</ele>
        <time>2026-05-25T11:36:01.000Z</time>
      </trkpt>
      <trkpt lat="44.645" lon="5.19963">
        <ele>1498</ele>
        <time>2026-05-25T11:36:02.000Z</time>
      </trkpt>
      <trkpt lat="44.645" lon="5.19963">
        <ele>1498</ele>
        <time>2026-05-25T11:36:03.000Z</time>
      </trkpt>
      <trkpt lat="44.645" lon="5.19963">
        <ele>1498</ele>
        <time>2026-05-25T11:36:04.000Z</time>
      </trkpt>
      <trkpt lat="44.645" lon="5.19963">
        <ele>1498</ele>
        <time>2026-05-25T11:36:05.000Z</time>
      </trkpt>
      <trkpt lat="44.645" lon="5.19963">
        <ele>1498</ele>
        <time>2026-05-25T11:36:06.000Z</time>
      </trkpt>
      <trkpt lat="44.645" lon="5.19963">
        <ele>1498</ele>
        <time>2026-05-25T11:36:07.000Z</time>
      </trkpt>
      <trkpt lat="44.645" lon="5.19963">
        <ele>1498</ele>
        <time>2026-05-25T11:36:08.000Z</time>
      </trkpt>
      <trkpt lat="44.645" lon="5.19963">
        <ele>1498</ele>
        <time>2026-05-25T11:36:09.000Z</time>
      </trkpt>
      <trkpt lat="44.645" lon="5.19963">
        <ele>1498</ele>
        <time>2026-05-25T11:36:10.000Z</time>
      </trkpt>
      <trkpt lat="44.645" lon="5.19963">
        <ele>1498</ele>
        <time>2026-05-25T11:36:11.000Z</time>
      </trkpt>
      <trkpt lat="44.645" lon="5.19963">
        <ele>1498</ele>
        <time>2026-05-25T11:36:12.000Z</time>
      </trkpt>
      <trkpt lat="44.645" lon="5.19963">
        <ele>1498</ele>
        <time>2026-05-25T11:36:13.000Z</time>
      </trkpt>
      <trkpt lat="44.645" lon="5.19963">
        <ele>1498</ele>
        <time>2026-05-25T11:36:14.000Z</time>
      </trkpt>
      <trkpt lat="44.645" lon="5.19963">
        <ele>1498</ele>
        <time>2026-05-25T11:36:15.000Z</time>
      </trkpt>
      <trkpt lat="44.645" lon="5.19963">
        <ele>1498</ele>
        <time>2026-05-25T11:36:16.000Z</time>
      </trkpt>
      <trkpt lat="44.645" lon="5.19963">
        <ele>1498</ele>
        <time>2026-05-25T11:36:17.000Z</time>
      </trkpt>
      <trkpt lat="44.645" lon="5.19963">
        <ele>1498</ele>
        <time>2026-05-25T11:36:18.000Z</time>
      </trkpt>
      <trkpt lat="44.645" lon="5.19963">
        <ele>1498</ele>
        <time>2026-05-25T11:36:19.000Z</time>
      </trkpt>
      <trkpt lat="44.645" lon="5.19963">
        <ele>1498</ele>
        <time>2026-05-25T11:36:20.000Z</time>
      </trkpt>
      <trkpt lat="44.645" lon="5.19963">
        <ele>1498</ele>
        <time>2026-05-25T11:36:21.000Z</time>
      </trkpt>
      <trkpt lat="44.645" lon="5.19963">
        <ele>1498</ele>
        <time>2026-05-25T11:36:22.000Z</time>
      </trkpt>
      <trkpt lat="44.645" lon="5.19963">
        <ele>1498</ele>
        <time>2026-05-25T11:36:23.000Z</time>
      </trkpt>
      <trkpt lat="44.645" lon="5.19963">
        <ele>1498</ele>
        <time>2026-05-25T11:36:24.000Z</time>
      </trkpt>
      <trkpt lat="44.645" lon="5.19963">
        <ele>1498</ele>
        <time>2026-05-25T11:36:25.000Z</time>
      </trkpt>
      <trkpt lat="44.645" lon="5.19963">
        <ele>1498</ele>
        <time>2026-05-25T11:36:26.000Z</time>
      </trkpt>
      <trkpt lat="44.645" lon="5.19963">
        <ele>1498</ele>
        <time>2026-05-25T11:36:27.000Z</time>
      </trkpt>
      <trkpt lat="44.645" lon="5.19963">
        <ele>1498</ele>
        <time>2026-05-25T11:36:28.000Z</time>
      </trkpt>
      <trkpt lat="44.645" lon="5.19963">
        <ele>1498</ele>
        <time>2026-05-25T11:36:29.000Z</time>
      </trkpt>
      <trkpt lat="44.645" lon="5.19963">
        <ele>1498</ele>
        <time>2026-05-25T11:36:30.000Z</time>
      </trkpt>
      <trkpt lat="44.645" lon="5.19963">
        <ele>1498</ele>
        <time>2026-05-25T11:36:31.000Z</time>
      </trkpt>
      <trkpt lat="44.645" lon="5.19963">
        <ele>1498</ele>
        <time>2026-05-25T11:36:32.000Z</time>
      </trkpt>
      <trkpt lat="44.645" lon="5.19963">
        <ele>1498</ele>
        <time>2026-05-25T11:36:33.000Z</time>
      </trkpt>
      <trkpt lat="44.645" lon="5.19963">
        <ele>1498</ele>
        <time>2026-05-25T11:36:34.000Z</time>
      </trkpt>
      <trkpt lat="44.645" lon="5.19963">
        <ele>1498</ele>
        <time>2026-05-25T11:36:35.000Z</time>
      </trkpt>
      <trkpt lat="44.645" lon="5.19963">
        <ele>1498</ele>
        <time>2026-05-25T11:36:36.000Z</time>
      </trkpt>
      <trkpt lat="44.645" lon="5.19963">
        <ele>1498</ele>
        <time>2026-05-25T11:36:37.000Z</time>
      </trkpt>
      <trkpt lat="44.645" lon="5.19963">
        <ele>1498</ele>
        <time>2026-05-25T11:36:38.000Z</time>
      </trkpt>
      <trkpt lat="44.645" lon="5.19963">
        <ele>1498</ele>
        <time>2026-05-25T11:36:39.000Z</time>
      </trkpt>
      <trkpt lat="44.645" lon="5.19963">
        <ele>1498</ele>
        <time>2026-05-25T11:36:40.000Z</time>
      </trkpt>
      <trkpt lat="44.645" lon="5.19963">
        <ele>1498</ele>
        <time>2026-05-25T11:36:41.000Z</time>
      </trkpt>
      <trkpt lat="44.645" lon="5.19963">
        <ele>1498</ele>
        <time>2026-05-25T11:36:42.000Z</time>
      </trkpt>
      <trkpt lat="44.645" lon="5.19963">
        <ele>1498</ele>
        <time>2026-05-25T11:36:43.000Z</time>
      </trkpt>
      <trkpt lat="44.645" lon="5.19963">
        <ele>1498</ele>
        <time>2026-05-25T11:36:44.000Z</time>
      </trkpt>
      <trkpt lat="44.645" lon="5.19963">
        <ele>1498</ele>
        <time>2026-05-25T11:36:45.000Z</time>
      </trkpt>
      <trkpt lat="44.645" lon="5.19963">
        <ele>1498</ele>
        <time>2026-05-25T11:36:46.000Z</time>
      </trkpt>
      <trkpt lat="44.645" lon="5.19963">
        <ele>1498</ele>
        <time>2026-05-25T11:36:47.000Z</time>
      </trkpt>
      <trkpt lat="44.645" lon="5.19963">
        <ele>1498</ele>
        <time>2026-05-25T11:36:48.000Z</time>
      </trkpt>
      <trkpt lat="44.645" lon="5.19963">
        <ele>1498</ele>
        <time>2026-05-25T11:36:49.000Z</time>
      </trkpt>
      <trkpt lat="44.645" lon="5.19962">
        <ele>1502</ele>
        <time>2026-05-25T11:39:51.000Z</time>
      </trkpt>
      <trkpt lat="44.645" lon="5.19963">
        <ele>1502</ele>
        <time>2026-05-25T11:39:52.000Z</time>
      </trkpt>
      <trkpt lat="44.64499" lon="5.19964">
        <ele>1503</ele>
        <time>2026-05-25T11:39:53.000Z</time>
      </trkpt>
      <trkpt lat="44.64499" lon="5.19964">
        <ele>1503</ele>
        <time>2026-05-25T11:39:54.000Z</time>
      </trkpt>
      <trkpt lat="44.64499" lon="5.19964">
        <ele>1503</ele>
        <time>2026-05-25T11:39:55.000Z</time>
      </trkpt>
      <trkpt lat="44.64499" lon="5.19964">
        <ele>1503</ele>
        <time>2026-05-25T11:39:56.000Z</time>
      </trkpt>
      <trkpt lat="44.64499" lon="5.19964">
        <ele>1503</ele>
        <time>2026-05-25T11:39:57.000Z</time>
      </trkpt>
      <trkpt lat="44.64499" lon="5.19964">
        <ele>1503</ele>
        <time>2026-05-25T11:39:58.000Z</time>
      </trkpt>
      <trkpt lat="44.64499" lon="5.19964">
        <ele>1503</ele>
        <time>2026-05-25T11:39:59.000Z</time>
      </trkpt>
      <trkpt lat="44.64499" lon="5.19964">
        <ele>1503</ele>
        <time>2026-05-25T11:40:00.000Z</time>
      </trkpt>
      <trkpt lat="44.64499" lon="5.19964">
        <ele>1503</ele>
        <time>2026-05-25T11:40:01.000Z</time>
      </trkpt>
      <trkpt lat="44.64499" lon="5.19964">
        <ele>1503</ele>
        <time>2026-05-25T11:40:02.000Z</time>
      </trkpt>
      <trkpt lat="44.64499" lon="5.19964">
        <ele>1503</ele>
        <time>2026-05-25T11:40:03.000Z</time>
      </trkpt>
      <trkpt lat="44.64499" lon="5.19964">
        <ele>1503</ele>
        <time>2026-05-25T11:40:04.000Z</time>
      </trkpt>
      <trkpt lat="44.64499" lon="5.19964">
        <ele>1503</ele>
        <time>2026-05-25T11:40:05.000Z</time>
      </trkpt>
      <trkpt lat="44.64499" lon="5.19964">
        <ele>1503</ele>
        <time>2026-05-25T11:40:06.000Z</time>
      </trkpt>
      <trkpt lat="44.64499" lon="5.19964">
        <ele>1503</ele>
        <time>2026-05-25T11:40:07.000Z</time>
      </trkpt>
      <trkpt lat="44.64499" lon="5.19964">
        <ele>1503</ele>
        <time>2026-05-25T11:40:08.000Z</time>
      </trkpt>
      <trkpt lat="44.64499" lon="5.19964">
        <ele>1503</ele>
        <time>2026-05-25T11:40:09.000Z</time>
      </trkpt>
      <trkpt lat="44.64499" lon="5.19964">
        <ele>1503</ele>
        <time>2026-05-25T11:40:10.000Z</time>
      </trkpt>
      <trkpt lat="44.64499" lon="5.19964">
        <ele>1503</ele>
        <time>2026-05-25T11:40:11.000Z</time>
      </trkpt>
      <trkpt lat="44.64499" lon="5.19964">
        <ele>1503</ele>
        <time>2026-05-25T11:40:12.000Z</time>
      </trkpt>
      <trkpt lat="44.64499" lon="5.19964">
        <ele>1503</ele>
        <time>2026-05-25T11:40:13.000Z</time>
      </trkpt>
      <trkpt lat="44.64499" lon="5.19964">
        <ele>1503</ele>
        <time>2026-05-25T11:40:14.000Z</time>
      </trkpt>
      <trkpt lat="44.64499" lon="5.19964">
        <ele>1503</ele>
        <time>2026-05-25T11:40:15.000Z</time>
      </trkpt>
      <trkpt lat="44.64499" lon="5.19964">
        <ele>1503</ele>
        <time>2026-05-25T11:40:16.000Z</time>
      </trkpt>
      <trkpt lat="44.64499" lon="5.19964">
        <ele>1503</ele>
        <time>2026-05-25T11:40:17.000Z</time>
      </trkpt>
      <trkpt lat="44.64499" lon="5.19964">
        <ele>1503</ele>
        <time>2026-05-25T11:40:18.000Z</time>
      </trkpt>
      <trkpt lat="44.64499" lon="5.19964">
        <ele>1503</ele>
        <time>2026-05-25T11:40:19.000Z</time>
      </trkpt>
      <trkpt lat="44.64499" lon="5.19964">
        <ele>1503</ele>
        <time>2026-05-25T11:40:20.000Z</time>
      </trkpt>
      <trkpt lat="44.64499" lon="5.19964">
        <ele>1503</ele>
        <time>2026-05-25T11:40:21.000Z</time>
      </trkpt>
      <trkpt lat="44.64499" lon="5.19964">
        <ele>1503</ele>
        <time>2026-05-25T11:40:22.000Z</time>
      </trkpt>
      <trkpt lat="44.64499" lon="5.19964">
        <ele>1503</ele>
        <time>2026-05-25T11:40:23.000Z</time>
      </trkpt>
      <trkpt lat="44.64499" lon="5.19964">
        <ele>1503</ele>
        <time>2026-05-25T11:40:24.000Z</time>
      </trkpt>
      <trkpt lat="44.64499" lon="5.19964">
        <ele>1503</ele>
        <time>2026-05-25T11:40:25.000Z</time>
      </trkpt>
      <trkpt lat="44.64499" lon="5.19964">
        <ele>1503</ele>
        <time>2026-05-25T11:40:26.000Z</time>
      </trkpt>
      <trkpt lat="44.64499" lon="5.19964">
        <ele>1503</ele>
        <time>2026-05-25T11:40:27.000Z</time>
      </trkpt>
      <trkpt lat="44.64499" lon="5.19964">
        <ele>1503</ele>
        <time>2026-05-25T11:40:28.000Z</time>
      </trkpt>
      <trkpt lat="44.64499" lon="5.19964">
        <ele>1503</ele>
        <time>2026-05-25T11:40:29.000Z</time>
      </trkpt>
      <trkpt lat="44.64499" lon="5.19964">
        <ele>1503</ele>
        <time>2026-05-25T11:40:30.000Z</time>
      </trkpt>
      <trkpt lat="44.64499" lon="5.19964">
        <ele>1503</ele>
        <time>2026-05-25T11:40:31.000Z</time>
      </trkpt>
      <trkpt lat="44.64499" lon="5.19964">
        <ele>1503</ele>
        <time>2026-05-25T11:40:32.000Z</time>
      </trkpt>
      <trkpt lat="44.64499" lon="5.19964">
        <ele>1503</ele>
        <time>2026-05-25T11:40:33.000Z</time>
      </trkpt>
      <trkpt lat="44.64499" lon="5.19964">
        <ele>1503</ele>
        <time>2026-05-25T11:40:34.000Z</time>
      </trkpt>
      <trkpt lat="44.64499" lon="5.19964">
        <ele>1503</ele>
        <time>2026-05-25T11:40:35.000Z</time>
      </trkpt>
      <trkpt lat="44.64499" lon="5.19964">
        <ele>1503</ele>
        <time>2026-05-25T11:40:36.000Z</time>
      </trkpt>
      <trkpt lat="44.64499" lon="5.19964">
        <ele>1503</ele>
        <time>2026-05-25T11:40:37.000Z</time>
      </trkpt>
      <trkpt lat="44.64499" lon="5.19964">
        <ele>1503</ele>
        <time>2026-05-25T11:40:38.000Z</time>
      </trkpt>
      <trkpt lat="44.64499" lon="5.19964">
        <ele>1503</ele>
        <time>2026-05-25T11:40:39.000Z</time>
      </trkpt>
      <trkpt lat="44.64499" lon="5.19964">
        <ele>1503</ele>
        <time>2026-05-25T11:40:40.000Z</time>
      </trkpt>
      <trkpt lat="44.64499" lon="5.19964">
        <ele>1503</ele>
        <time>2026-05-25T11:40:41.000Z</time>
      </trkpt>
      <trkpt lat="44.64499" lon="5.19964">
        <ele>1503</ele>
        <time>2026-05-25T11:40:42.000Z</time>
      </trkpt>
      <trkpt lat="44.64499" lon="5.19964">
        <ele>1503</ele>
        <time>2026-05-25T11:40:43.000Z</time>
      </trkpt>
      <trkpt lat="44.64499" lon="5.19964">
        <ele>1503</ele>
        <time>2026-05-25T11:40:44.000Z</time>
      </trkpt>
      <trkpt lat="44.64499" lon="5.19964">
        <ele>1503</ele>
        <time>2026-05-25T11:40:45.000Z</time>
      </trkpt>
      <trkpt lat="44.64499" lon="5.19964">
        <ele>1503</ele>
        <time>2026-05-25T11:40:46.000Z</time>
      </trkpt>
      <trkpt lat="44.64499" lon="5.19964">
        <ele>1503</ele>
        <time>2026-05-25T11:40:47.000Z</time>
      </trkpt>
      <trkpt lat="44.64499" lon="5.19964">
        <ele>1503</ele>
        <time>2026-05-25T11:40:48.000Z</time>
      </trkpt>
      <trkpt lat="44.64499" lon="5.19964">
        <ele>1503</ele>
        <time>2026-05-25T11:40:49.000Z</time>
      </trkpt>
      <trkpt lat="44.64499" lon="5.19964">
        <ele>1503</ele>
        <time>2026-05-25T11:40:50.000Z</time>
      </trkpt>
      <trkpt lat="44.64499" lon="5.19964">
        <ele>1503</ele>
        <time>2026-05-25T11:40:51.000Z</time>
      </trkpt>
      <trkpt lat="44.64499" lon="5.19964">
        <ele>1503</ele>
        <time>2026-05-25T11:40:52.000Z</time>
      </trkpt>
      <trkpt lat="44.64499" lon="5.19964">
        <ele>1503</ele>
        <time>2026-05-25T11:40:53.000Z</time>
      </trkpt>
      <trkpt lat="44.64499" lon="5.19964">
        <ele>1503</ele>
        <time>2026-05-25T11:40:54.000Z</time>
      </trkpt>
      <trkpt lat="44.64499" lon="5.19964">
        <ele>1503</ele>
        <time>2026-05-25T11:40:55.000Z</time>
      </trkpt>
      <trkpt lat="44.64499" lon="5.19964">
        <ele>1503</ele>
        <time>2026-05-25T11:40:56.000Z</time>
      </trkpt>
      <trkpt lat="44.64499" lon="5.19964">
        <ele>1503</ele>
        <time>2026-05-25T11:40:57.000Z</time>
      </trkpt>
      <trkpt lat="44.64499" lon="5.19964">
        <ele>1503</ele>
        <time>2026-05-25T11:40:58.000Z</time>
      </trkpt>
      <trkpt lat="44.64499" lon="5.19964">
        <ele>1503</ele>
        <time>2026-05-25T11:40:59.000Z</time>
      </trkpt>
      <trkpt lat="44.64499" lon="5.19964">
        <ele>1503</ele>
        <time>2026-05-25T11:41:00.000Z</time>
      </trkpt>
      <trkpt lat="44.64499" lon="5.19964">
        <ele>1503</ele>
        <time>2026-05-25T11:41:01.000Z</time>
      </trkpt>
      <trkpt lat="44.64499" lon="5.19964">
        <ele>1503</ele>
        <time>2026-05-25T11:41:02.000Z</time>
      </trkpt>
      <trkpt lat="44.64499" lon="5.19964">
        <ele>1503</ele>
        <time>2026-05-25T11:41:03.000Z</time>
      </trkpt>
      <trkpt lat="44.64499" lon="5.19964">
        <ele>1503</ele>
        <time>2026-05-25T11:41:04.000Z</time>
      </trkpt>
      <trkpt lat="44.64499" lon="5.19964">
        <ele>1503</ele>
        <time>2026-05-25T11:41:05.000Z</time>
      </trkpt>
      <trkpt lat="44.64499" lon="5.19964">
        <ele>1503</ele>
        <time>2026-05-25T11:41:06.000Z</time>
      </trkpt>
      <trkpt lat="44.64499" lon="5.19964">
        <ele>1503</ele>
        <time>2026-05-25T11:41:07.000Z</time>
      </trkpt>
      <trkpt lat="44.64499" lon="5.19964">
        <ele>1503</ele>
        <time>2026-05-25T11:41:08.000Z</time>
      </trkpt>
      <trkpt lat="44.64499" lon="5.19964">
        <ele>1503</ele>
        <time>2026-05-25T11:41:09.000Z</time>
      </trkpt>
      <trkpt lat="44.64499" lon="5.19964">
        <ele>1503</ele>
        <time>2026-05-25T11:41:10.000Z</time>
      </trkpt>
      <trkpt lat="44.64499" lon="5.19964">
        <ele>1503</ele>
        <time>2026-05-25T11:41:11.000Z</time>
      </trkpt>
      <trkpt lat="44.64499" lon="5.19964">
        <ele>1503</ele>
        <time>2026-05-25T11:41:12.000Z</time>
      </trkpt>
      <trkpt lat="44.64499" lon="5.19964">
        <ele>1503</ele>
        <time>2026-05-25T11:41:13.000Z</time>
      </trkpt>
      <trkpt lat="44.64499" lon="5.19964">
        <ele>1503</ele>
        <time>2026-05-25T11:41:14.000Z</time>
      </trkpt>
      <trkpt lat="44.64499" lon="5.19964">
        <ele>1503</ele>
        <time>2026-05-25T11:41:15.000Z</time>
      </trkpt>
      <trkpt lat="44.64499" lon="5.19964">
        <ele>1503</ele>
        <time>2026-05-25T11:41:16.000Z</time>
      </trkpt>
      <trkpt lat="44.64499" lon="5.19964">
        <ele>1503</ele>
        <time>2026-05-25T11:41:17.000Z</time>
      </trkpt>
      <trkpt lat="44.64499" lon="5.19964">
        <ele>1503</ele>
        <time>2026-05-25T11:41:18.000Z</time>
      </trkpt>
      <trkpt lat="44.64499" lon="5.19964">
        <ele>1503</ele>
        <time>2026-05-25T11:41:19.000Z</time>
      </trkpt>
      <trkpt lat="44.64499" lon="5.19964">
        <ele>1503</ele>
        <time>2026-05-25T11:41:20.000Z</time>
      </trkpt>
      <trkpt lat="44.64499" lon="5.19964">
        <ele>1503</ele>
        <time>2026-05-25T11:41:21.000Z</time>
      </trkpt>
      <trkpt lat="44.64499" lon="5.19964">
        <ele>1503</ele>
        <time>2026-05-25T11:41:22.000Z</time>
      </trkpt>
      <trkpt lat="44.64499" lon="5.19964">
        <ele>1503</ele>
        <time>2026-05-25T11:41:23.000Z</time>
      </trkpt>
      <trkpt lat="44.64499" lon="5.19964">
        <ele>1503</ele>
        <time>2026-05-25T11:41:24.000Z</time>
      </trkpt>
      <trkpt lat="44.64499" lon="5.19964">
        <ele>1503</ele>
        <time>2026-05-25T11:41:25.000Z</time>
      </trkpt>
      <trkpt lat="44.64499" lon="5.19964">
        <ele>1503</ele>
        <time>2026-05-25T11:41:26.000Z</time>
      </trkpt>
      <trkpt lat="44.64499" lon="5.19964">
        <ele>1503</ele>
        <time>2026-05-25T11:41:27.000Z</time>
      </trkpt>
      <trkpt lat="44.64499" lon="5.19964">
        <ele>1503</ele>
        <time>2026-05-25T11:41:28.000Z</time>
      </trkpt>
      <trkpt lat="44.64499" lon="5.19964">
        <ele>1503</ele>
        <time>2026-05-25T11:41:29.000Z</time>
      </trkpt>
      <trkpt lat="44.64499" lon="5.19964">
        <ele>1503</ele>
        <time>2026-05-25T11:41:30.000Z</time>
      </trkpt>
      <trkpt lat="44.64499" lon="5.19964">
        <ele>1503</ele>
        <time>2026-05-25T11:41:31.000Z</time>
      </trkpt>
      <trkpt lat="44.64499" lon="5.19964">
        <ele>1503</ele>
        <time>2026-05-25T11:41:32.000Z</time>
      </trkpt>
      <trkpt lat="44.64499" lon="5.19964">
        <ele>1503</ele>
        <time>2026-05-25T11:41:33.000Z</time>
      </trkpt>
      <trkpt lat="44.64499" lon="5.19964">
        <ele>1503</ele>
        <time>2026-05-25T11:41:34.000Z</time>
      </trkpt>
      <trkpt lat="44.64499" lon="5.19964">
        <ele>1503</ele>
        <time>2026-05-25T11:41:35.000Z</time>
      </trkpt>
      <trkpt lat="44.64499" lon="5.19964">
        <ele>1503</ele>
        <time>2026-05-25T11:41:36.000Z</time>
      </trkpt>
      <trkpt lat="44.64499" lon="5.19964">
        <ele>1503</ele>
        <time>2026-05-25T11:41:37.000Z</time>
      </trkpt>
      <trkpt lat="44.64499" lon="5.19964">
        <ele>1503</ele>
        <time>2026-05-25T11:41:38.000Z</time>
      </trkpt>
      <trkpt lat="44.64499" lon="5.19964">
        <ele>1503</ele>
        <time>2026-05-25T11:41:39.000Z</time>
      </trkpt>
      <trkpt lat="44.64499" lon="5.19964">
        <ele>1503</ele>
        <time>2026-05-25T11:41:40.000Z</time>
      </trkpt>
      <trkpt lat="44.64499" lon="5.19964">
        <ele>1503</ele>
        <time>2026-05-25T11:41:41.000Z</time>
      </trkpt>
      <trkpt lat="44.64499" lon="5.19964">
        <ele>1503</ele>
        <time>2026-05-25T11:41:42.000Z</time>
      </trkpt>
      <trkpt lat="44.64499" lon="5.19964">
        <ele>1503</ele>
        <time>2026-05-25T11:41:43.000Z</time>
      </trkpt>
      <trkpt lat="44.64499" lon="5.19964">
        <ele>1503</ele>
        <time>2026-05-25T11:41:44.000Z</time>
      </trkpt>
      <trkpt lat="44.64499" lon="5.19964">
        <ele>1503</ele>
        <time>2026-05-25T11:41:45.000Z</time>
      </trkpt>
      <trkpt lat="44.64499" lon="5.19964">
        <ele>1503</ele>
        <time>2026-05-25T11:41:46.000Z</time>
      </trkpt>
      <trkpt lat="44.64499" lon="5.19964">
        <ele>1503</ele>
        <time>2026-05-25T11:41:47.000Z</time>
      </trkpt>
      <trkpt lat="44.64499" lon="5.19964">
        <ele>1503</ele>
        <time>2026-05-25T11:41:48.000Z</time>
      </trkpt>
      <trkpt lat="44.64499" lon="5.19964">
        <ele>1503</ele>
        <time>2026-05-25T11:41:49.000Z</time>
      </trkpt>
      <trkpt lat="44.64499" lon="5.19964">
        <ele>1503</ele>
        <time>2026-05-25T11:41:50.000Z</time>
      </trkpt>
      <trkpt lat="44.64499" lon="5.19964">
        <ele>1503</ele>
        <time>2026-05-25T11:41:51.000Z</time>
      </trkpt>
      <trkpt lat="44.64499" lon="5.19964">
        <ele>1503</ele>
        <time>2026-05-25T11:41:52.000Z</time>
      </trkpt>
      <trkpt lat="44.64499" lon="5.19964">
        <ele>1503</ele>
        <time>2026-05-25T11:41:53.000Z</time>
      </trkpt>
      <trkpt lat="44.64499" lon="5.19964">
        <ele>1503</ele>
        <time>2026-05-25T11:41:54.000Z</time>
      </trkpt>
      <trkpt lat="44.64499" lon="5.19964">
        <ele>1503</ele>
        <time>2026-05-25T11:41:55.000Z</time>
      </trkpt>
      <trkpt lat="44.64499" lon="5.19964">
        <ele>1503</ele>
        <time>2026-05-25T11:41:56.000Z</time>
      </trkpt>
      <trkpt lat="44.64499" lon="5.19964">
        <ele>1503</ele>
        <time>2026-05-25T11:41:57.000Z</time>
      </trkpt>
      <trkpt lat="44.64499" lon="5.19964">
        <ele>1503</ele>
        <time>2026-05-25T11:41:58.000Z</time>
      </trkpt>
      <trkpt lat="44.64499" lon="5.19964">
        <ele>1503</ele>
        <time>2026-05-25T11:41:59.000Z</time>
      </trkpt>
      <trkpt lat="44.64499" lon="5.19964">
        <ele>1503</ele>
        <time>2026-05-25T11:42:00.000Z</time>
      </trkpt>
      <trkpt lat="44.64499" lon="5.19964">
        <ele>1503</ele>
        <time>2026-05-25T11:42:01.000Z</time>
      </trkpt>
      <trkpt lat="44.64499" lon="5.19964">
        <ele>1503</ele>
        <time>2026-05-25T11:42:02.000Z</time>
      </trkpt>
      <trkpt lat="44.64499" lon="5.19964">
        <ele>1503</ele>
        <time>2026-05-25T11:42:03.000Z</time>
      </trkpt>
      <trkpt lat="44.64499" lon="5.19964">
        <ele>1503</ele>
        <time>2026-05-25T11:42:04.000Z</time>
      </trkpt>
      <trkpt lat="44.64499" lon="5.19964">
        <ele>1503</ele>
        <time>2026-05-25T11:42:05.000Z</time>
      </trkpt>
      <trkpt lat="44.64499" lon="5.19964">
        <ele>1503</ele>
        <time>2026-05-25T11:42:06.000Z</time>
      </trkpt>
      <trkpt lat="44.64499" lon="5.19964">
        <ele>1503</ele>
        <time>2026-05-25T11:42:07.000Z</time>
      </trkpt>
      <trkpt lat="44.64499" lon="5.19964">
        <ele>1503</ele>
        <time>2026-05-25T11:42:08.000Z</time>
      </trkpt>
      <trkpt lat="44.64499" lon="5.19964">
        <ele>1503</ele>
        <time>2026-05-25T11:42:09.000Z</time>
      </trkpt>
      <trkpt lat="44.64499" lon="5.19964">
        <ele>1503</ele>
        <time>2026-05-25T11:42:10.000Z</time>
      </trkpt>
      <trkpt lat="44.64499" lon="5.19964">
        <ele>1503</ele>
        <time>2026-05-25T11:42:11.000Z</time>
      </trkpt>
      <trkpt lat="44.64499" lon="5.19964">
        <ele>1503</ele>
        <time>2026-05-25T11:42:12.000Z</time>
      </trkpt>
      <trkpt lat="44.64499" lon="5.19964">
        <ele>1503</ele>
        <time>2026-05-25T11:42:13.000Z</time>
      </trkpt>
      <trkpt lat="44.64499" lon="5.19964">
        <ele>1503</ele>
        <time>2026-05-25T11:42:14.000Z</time>
      </trkpt>
      <trkpt lat="44.64499" lon="5.19964">
        <ele>1503</ele>
        <time>2026-05-25T11:42:15.000Z</time>
      </trkpt>
      <trkpt lat="44.64499" lon="5.19964">
        <ele>1503</ele>
        <time>2026-05-25T11:42:16.000Z</time>
      </trkpt>
      <trkpt lat="44.64499" lon="5.19964">
        <ele>1503</ele>
        <time>2026-05-25T11:42:17.000Z</time>
      </trkpt>
      <trkpt lat="44.64499" lon="5.19964">
        <ele>1503</ele>
        <time>2026-05-25T11:42:18.000Z</time>
      </trkpt>
      <trkpt lat="44.64499" lon="5.19964">
        <ele>1503</ele>
        <time>2026-05-25T11:42:19.000Z</time>
      </trkpt>
      <trkpt lat="44.64499" lon="5.19964">
        <ele>1503</ele>
        <time>2026-05-25T11:42:20.000Z</time>
      </trkpt>
      <trkpt lat="44.64499" lon="5.19964">
        <ele>1503</ele>
        <time>2026-05-25T11:42:21.000Z</time>
      </trkpt>
      <trkpt lat="44.64499" lon="5.19964">
        <ele>1503</ele>
        <time>2026-05-25T11:42:22.000Z</time>
      </trkpt>
      <trkpt lat="44.64499" lon="5.19964">
        <ele>1503</ele>
        <time>2026-05-25T11:42:23.000Z</time>
      </trkpt>
      <trkpt lat="44.64499" lon="5.19964">
        <ele>1503</ele>
        <time>2026-05-25T11:42:24.000Z</time>
      </trkpt>
      <trkpt lat="44.64499" lon="5.19964">
        <ele>1503</ele>
        <time>2026-05-25T11:42:25.000Z</time>
      </trkpt>
      <trkpt lat="44.64499" lon="5.19964">
        <ele>1503</ele>
        <time>2026-05-25T11:42:26.000Z</time>
      </trkpt>
      <trkpt lat="44.64499" lon="5.19964">
        <ele>1503</ele>
        <time>2026-05-25T11:42:27.000Z</time>
      </trkpt>
      <trkpt lat="44.64499" lon="5.19964">
        <ele>1503</ele>
        <time>2026-05-25T11:42:28.000Z</time>
      </trkpt>
      <trkpt lat="44.64499" lon="5.19964">
        <ele>1503</ele>
        <time>2026-05-25T11:42:29.000Z</time>
      </trkpt>
      <trkpt lat="44.64499" lon="5.19964">
        <ele>1503</ele>
        <time>2026-05-25T11:42:30.000Z</time>
      </trkpt>
      <trkpt lat="44.64499" lon="5.19964">
        <ele>1503</ele>
        <time>2026-05-25T11:42:31.000Z</time>
      </trkpt>
      <trkpt lat="44.64499" lon="5.19964">
        <ele>1503</ele>
        <time>2026-05-25T11:42:32.000Z</time>
      </trkpt>
      <trkpt lat="44.64499" lon="5.19964">
        <ele>1503</ele>
        <time>2026-05-25T11:42:33.000Z</time>
      </trkpt>
      <trkpt lat="44.64499" lon="5.19964">
        <ele>1503</ele>
        <time>2026-05-25T11:42:34.000Z</time>
      </trkpt>
      <trkpt lat="44.64499" lon="5.19964">
        <ele>1503</ele>
        <time>2026-05-25T11:42:35.000Z</time>
      </trkpt>
      <trkpt lat="44.64499" lon="5.19964">
        <ele>1503</ele>
        <time>2026-05-25T11:42:36.000Z</time>
      </trkpt>
      <trkpt lat="44.64499" lon="5.19964">
        <ele>1503</ele>
        <time>2026-05-25T11:42:37.000Z</time>
      </trkpt>
      <trkpt lat="44.64499" lon="5.19964">
        <ele>1503</ele>
        <time>2026-05-25T11:42:38.000Z</time>
      </trkpt>
      <trkpt lat="44.64499" lon="5.19964">
        <ele>1503</ele>
        <time>2026-05-25T11:42:39.000Z</time>
      </trkpt>
      <trkpt lat="44.64499" lon="5.19964">
        <ele>1503</ele>
        <time>2026-05-25T11:42:40.000Z</time>
      </trkpt>
      <trkpt lat="44.64499" lon="5.19964">
        <ele>1503</ele>
        <time>2026-05-25T11:42:41.000Z</time>
      </trkpt>
      <trkpt lat="44.64499" lon="5.19964">
        <ele>1503</ele>
        <time>2026-05-25T11:42:42.000Z</time>
      </trkpt>
      <trkpt lat="44.64499" lon="5.19964">
        <ele>1503</ele>
        <time>2026-05-25T11:42:43.000Z</time>
      </trkpt>
      <trkpt lat="44.64499" lon="5.19964">
        <ele>1503</ele>
        <time>2026-05-25T11:42:44.000Z</time>
      </trkpt>
      <trkpt lat="44.64503" lon="5.19964">
        <ele>1506</ele>
        <time>2026-05-25T11:49:35.001Z</time>
      </trkpt>
      <trkpt lat="44.64501" lon="5.19964">
        <ele>1501</ele>
        <time>2026-05-25T11:49:37.002Z</time>
      </trkpt>
      <trkpt lat="44.645" lon="5.19963">
        <ele>1497</ele>
        <time>2026-05-25T11:49:39.000Z</time>
      </trkpt>
      <trkpt lat="44.645" lon="5.19963">
        <ele>1497</ele>
        <time>2026-05-25T11:49:40.000Z</time>
      </trkpt>
      <trkpt lat="44.645" lon="5.19963">
        <ele>1497</ele>
        <time>2026-05-25T11:49:41.000Z</time>
      </trkpt>
      <trkpt lat="44.645" lon="5.19963">
        <ele>1497</ele>
        <time>2026-05-25T11:49:42.000Z</time>
      </trkpt>
      <trkpt lat="44.645" lon="5.19963">
        <ele>1497</ele>
        <time>2026-05-25T11:49:43.000Z</time>
      </trkpt>
      <trkpt lat="44.645" lon="5.19963">
        <ele>1497</ele>
        <time>2026-05-25T11:49:44.000Z</time>
      </trkpt>
      <trkpt lat="44.645" lon="5.19963">
        <ele>1497</ele>
        <time>2026-05-25T11:49:45.000Z</time>
      </trkpt>
      <trkpt lat="44.645" lon="5.19963">
        <ele>1497</ele>
        <time>2026-05-25T11:49:46.000Z</time>
      </trkpt>
      <trkpt lat="44.645" lon="5.19963">
        <ele>1497</ele>
        <time>2026-05-25T11:49:47.000Z</time>
      </trkpt>
      <trkpt lat="44.645" lon="5.19963">
        <ele>1497</ele>
        <time>2026-05-25T11:49:48.000Z</time>
      </trkpt>
      <trkpt lat="44.645" lon="5.19963">
        <ele>1497</ele>
        <time>2026-05-25T11:49:49.000Z</time>
      </trkpt>
      <trkpt lat="44.645" lon="5.19963">
        <ele>1497</ele>
        <time>2026-05-25T11:49:50.000Z</time>
      </trkpt>
      <trkpt lat="44.645" lon="5.19963">
        <ele>1497</ele>
        <time>2026-05-25T11:49:51.000Z</time>
      </trkpt>
      <trkpt lat="44.645" lon="5.19963">
        <ele>1497</ele>
        <time>2026-05-25T11:49:52.000Z</time>
      </trkpt>
      <trkpt lat="44.645" lon="5.19963">
        <ele>1497</ele>
        <time>2026-05-25T11:49:53.000Z</time>
      </trkpt>
      <trkpt lat="44.645" lon="5.19963">
        <ele>1497</ele>
        <time>2026-05-25T11:49:54.000Z</time>
      </trkpt>
      <trkpt lat="44.645" lon="5.19963">
        <ele>1497</ele>
        <time>2026-05-25T11:49:55.000Z</time>
      </trkpt>
      <trkpt lat="44.645" lon="5.19963">
        <ele>1497</ele>
        <time>2026-05-25T11:49:56.000Z</time>
      </trkpt>
      <trkpt lat="44.645" lon="5.19963">
        <ele>1497</ele>
        <time>2026-05-25T11:49:57.000Z</time>
      </trkpt>
      <trkpt lat="44.645" lon="5.19963">
        <ele>1497</ele>
        <time>2026-05-25T11:49:58.000Z</time>
      </trkpt>
      <trkpt lat="44.645" lon="5.19963">
        <ele>1497</ele>
        <time>2026-05-25T11:49:59.000Z</time>
      </trkpt>
      <trkpt lat="44.645" lon="5.19963">
        <ele>1497</ele>
        <time>2026-05-25T11:50:00.000Z</time>
      </trkpt>
      <trkpt lat="44.645" lon="5.19963">
        <ele>1497</ele>
        <time>2026-05-25T11:50:01.000Z</time>
      </trkpt>
      <trkpt lat="44.645" lon="5.19963">
        <ele>1497</ele>
        <time>2026-05-25T11:50:02.000Z</time>
      </trkpt>
      <trkpt lat="44.645" lon="5.19963">
        <ele>1497</ele>
        <time>2026-05-25T11:50:03.000Z</time>
      </trkpt>
      <trkpt lat="44.645" lon="5.19963">
        <ele>1497</ele>
        <time>2026-05-25T11:50:04.000Z</time>
      </trkpt>
      <trkpt lat="44.645" lon="5.19963">
        <ele>1497</ele>
        <time>2026-05-25T11:50:05.000Z</time>
      </trkpt>
      <trkpt lat="44.645" lon="5.19963">
        <ele>1497</ele>
        <time>2026-05-25T11:50:06.000Z</time>
      </trkpt>
      <trkpt lat="44.645" lon="5.19963">
        <ele>1497</ele>
        <time>2026-05-25T11:50:07.000Z</time>
      </trkpt>
      <trkpt lat="44.645" lon="5.19963">
        <ele>1497</ele>
        <time>2026-05-25T11:50:08.000Z</time>
      </trkpt>
      <trkpt lat="44.645" lon="5.19963">
        <ele>1497</ele>
        <time>2026-05-25T11:50:09.000Z</time>
      </trkpt>
      <trkpt lat="44.645" lon="5.19963">
        <ele>1497</ele>
        <time>2026-05-25T11:50:10.000Z</time>
      </trkpt>
      <trkpt lat="44.645" lon="5.19963">
        <ele>1497</ele>
        <time>2026-05-25T11:50:11.000Z</time>
      </trkpt>
      <trkpt lat="44.645" lon="5.19963">
        <ele>1497</ele>
        <time>2026-05-25T11:50:12.000Z</time>
      </trkpt>
      <trkpt lat="44.645" lon="5.19963">
        <ele>1497</ele>
        <time>2026-05-25T11:50:13.000Z</time>
      </trkpt>
      <trkpt lat="44.645" lon="5.19963">
        <ele>1497</ele>
        <time>2026-05-25T11:50:14.000Z</time>
      </trkpt>
      <trkpt lat="44.645" lon="5.19963">
        <ele>1497</ele>
        <time>2026-05-25T11:50:15.000Z</time>
      </trkpt>
      <trkpt lat="44.645" lon="5.19963">
        <ele>1497</ele>
        <time>2026-05-25T11:50:16.000Z</time>
      </trkpt>
      <trkpt lat="44.645" lon="5.19963">
        <ele>1497</ele>
        <time>2026-05-25T11:50:17.000Z</time>
      </trkpt>
      <trkpt lat="44.645" lon="5.19963">
        <ele>1497</ele>
        <time>2026-05-25T11:50:18.000Z</time>
      </trkpt>
      <trkpt lat="44.645" lon="5.19963">
        <ele>1497</ele>
        <time>2026-05-25T11:50:19.000Z</time>
      </trkpt>
      <trkpt lat="44.645" lon="5.19963">
        <ele>1497</ele>
        <time>2026-05-25T11:50:20.000Z</time>
      </trkpt>
      <trkpt lat="44.645" lon="5.19963">
        <ele>1497</ele>
        <time>2026-05-25T11:50:21.000Z</time>
      </trkpt>
      <trkpt lat="44.645" lon="5.19963">
        <ele>1497</ele>
        <time>2026-05-25T11:50:22.000Z</time>
      </trkpt>
      <trkpt lat="44.645" lon="5.19963">
        <ele>1497</ele>
        <time>2026-05-25T11:50:23.000Z</time>
      </trkpt>
      <trkpt lat="44.645" lon="5.19963">
        <ele>1497</ele>
        <time>2026-05-25T11:50:24.000Z</time>
      </trkpt>
      <trkpt lat="44.645" lon="5.19963">
        <ele>1497</ele>
        <time>2026-05-25T11:50:25.000Z</time>
      </trkpt>
      <trkpt lat="44.645" lon="5.19963">
        <ele>1497</ele>
        <time>2026-05-25T11:50:26.000Z</time>
      </trkpt>
      <trkpt lat="44.645" lon="5.19963">
        <ele>1497</ele>
        <time>2026-05-25T11:50:27.000Z</time>
      </trkpt>
      <trkpt lat="44.645" lon="5.19963">
        <ele>1497</ele>
        <time>2026-05-25T11:50:28.000Z</time>
      </trkpt>
      <trkpt lat="44.645" lon="5.19963">
        <ele>1497</ele>
        <time>2026-05-25T11:50:29.000Z</time>
      </trkpt>
      <trkpt lat="44.645" lon="5.19963">
        <ele>1497</ele>
        <time>2026-05-25T11:50:30.000Z</time>
      </trkpt>
      <trkpt lat="44.645" lon="5.19963">
        <ele>1497</ele>
        <time>2026-05-25T11:50:31.000Z</time>
      </trkpt>
      <trkpt lat="44.645" lon="5.19963">
        <ele>1497</ele>
        <time>2026-05-25T11:50:32.000Z</time>
      </trkpt>
      <trkpt lat="44.645" lon="5.19963">
        <ele>1497</ele>
        <time>2026-05-25T11:50:33.000Z</time>
      </trkpt>
      <trkpt lat="44.645" lon="5.19963">
        <ele>1497</ele>
        <time>2026-05-25T11:50:34.000Z</time>
      </trkpt>
      <trkpt lat="44.645" lon="5.19963">
        <ele>1497</ele>
        <time>2026-05-25T11:50:35.000Z</time>
      </trkpt>
      <trkpt lat="44.645" lon="5.19963">
        <ele>1497</ele>
        <time>2026-05-25T11:50:36.000Z</time>
      </trkpt>
      <trkpt lat="44.645" lon="5.19963">
        <ele>1497</ele>
        <time>2026-05-25T11:50:37.000Z</time>
      </trkpt>
      <trkpt lat="44.645" lon="5.19963">
        <ele>1497</ele>
        <time>2026-05-25T11:50:38.000Z</time>
      </trkpt>
      <trkpt lat="44.645" lon="5.19963">
        <ele>1497</ele>
        <time>2026-05-25T11:50:39.000Z</time>
      </trkpt>
      <trkpt lat="44.645" lon="5.19963">
        <ele>1497</ele>
        <time>2026-05-25T11:50:40.000Z</time>
      </trkpt>
      <trkpt lat="44.645" lon="5.19963">
        <ele>1497</ele>
        <time>2026-05-25T11:50:41.000Z</time>
      </trkpt>
      <trkpt lat="44.645" lon="5.19963">
        <ele>1497</ele>
        <time>2026-05-25T11:50:42.000Z</time>
      </trkpt>
      <trkpt lat="44.645" lon="5.19963">
        <ele>1497</ele>
        <time>2026-05-25T11:50:43.000Z</time>
      </trkpt>
      <trkpt lat="44.645" lon="5.19963">
        <ele>1497</ele>
        <time>2026-05-25T11:50:44.000Z</time>
      </trkpt>
      <trkpt lat="44.645" lon="5.19963">
        <ele>1497</ele>
        <time>2026-05-25T11:50:45.000Z</time>
      </trkpt>
      <trkpt lat="44.645" lon="5.19963">
        <ele>1497</ele>
        <time>2026-05-25T11:50:46.000Z</time>
      </trkpt>
      <trkpt lat="44.645" lon="5.19963">
        <ele>1497</ele>
        <time>2026-05-25T11:50:47.000Z</time>
      </trkpt>
      <trkpt lat="44.645" lon="5.19963">
        <ele>1497</ele>
        <time>2026-05-25T11:50:48.000Z</time>
      </trkpt>
      <trkpt lat="44.645" lon="5.19963">
        <ele>1497</ele>
        <time>2026-05-25T11:50:49.000Z</time>
      </trkpt>
      <trkpt lat="44.645" lon="5.19963">
        <ele>1497</ele>
        <time>2026-05-25T11:50:50.000Z</time>
      </trkpt>
      <trkpt lat="44.645" lon="5.19963">
        <ele>1497</ele>
        <time>2026-05-25T11:50:51.000Z</time>
      </trkpt>
      <trkpt lat="44.645" lon="5.19963">
        <ele>1497</ele>
        <time>2026-05-25T11:50:52.000Z</time>
      </trkpt>
      <trkpt lat="44.645" lon="5.19963">
        <ele>1497</ele>
        <time>2026-05-25T11:50:53.000Z</time>
      </trkpt>
      <trkpt lat="44.645" lon="5.19963">
        <ele>1497</ele>
        <time>2026-05-25T11:50:54.000Z</time>
      </trkpt>
      <trkpt lat="44.645" lon="5.19963">
        <ele>1497</ele>
        <time>2026-05-25T11:50:55.000Z</time>
      </trkpt>
      <trkpt lat="44.645" lon="5.19963">
        <ele>1497</ele>
        <time>2026-05-25T11:50:56.000Z</time>
      </trkpt>
      <trkpt lat="44.645" lon="5.19963">
        <ele>1497</ele>
        <time>2026-05-25T11:50:57.000Z</time>
      </trkpt>
      <trkpt lat="44.645" lon="5.19963">
        <ele>1497</ele>
        <time>2026-05-25T11:50:58.000Z</time>
      </trkpt>
      <trkpt lat="44.645" lon="5.19963">
        <ele>1497</ele>
        <time>2026-05-25T11:50:59.000Z</time>
      </trkpt>
      <trkpt lat="44.645" lon="5.19963">
        <ele>1497</ele>
        <time>2026-05-25T11:51:00.000Z</time>
      </trkpt>
      <trkpt lat="44.645" lon="5.19963">
        <ele>1497</ele>
        <time>2026-05-25T11:51:01.000Z</time>
      </trkpt>
      <trkpt lat="44.645" lon="5.19963">
        <ele>1497</ele>
        <time>2026-05-25T11:51:02.000Z</time>
      </trkpt>
      <trkpt lat="44.645" lon="5.19963">
        <ele>1497</ele>
        <time>2026-05-25T11:51:03.000Z</time>
      </trkpt>
      <trkpt lat="44.645" lon="5.19963">
        <ele>1497</ele>
        <time>2026-05-25T11:51:04.000Z</time>
      </trkpt>
      <trkpt lat="44.645" lon="5.19963">
        <ele>1497</ele>
        <time>2026-05-25T11:51:05.000Z</time>
      </trkpt>
      <trkpt lat="44.645" lon="5.19963">
        <ele>1497</ele>
        <time>2026-05-25T11:51:06.000Z</time>
      </trkpt>
      <trkpt lat="44.645" lon="5.19963">
        <ele>1497</ele>
        <time>2026-05-25T11:51:07.000Z</time>
      </trkpt>
      <trkpt lat="44.645" lon="5.19963">
        <ele>1497</ele>
        <time>2026-05-25T11:51:08.000Z</time>
      </trkpt>
      <trkpt lat="44.645" lon="5.19963">
        <ele>1497</ele>
        <time>2026-05-25T11:51:09.000Z</time>
      </trkpt>
      <trkpt lat="44.645" lon="5.19963">
        <ele>1497</ele>
        <time>2026-05-25T11:51:10.000Z</time>
      </trkpt>
      <trkpt lat="44.645" lon="5.19963">
        <ele>1497</ele>
        <time>2026-05-25T11:51:11.000Z</time>
      </trkpt>
      <trkpt lat="44.645" lon="5.19963">
        <ele>1497</ele>
        <time>2026-05-25T11:51:12.000Z</time>
      </trkpt>
      <trkpt lat="44.645" lon="5.19963">
        <ele>1497</ele>
        <time>2026-05-25T11:51:13.000Z</time>
      </trkpt>
      <trkpt lat="44.645" lon="5.19963">
        <ele>1497</ele>
        <time>2026-05-25T11:51:14.000Z</time>
      </trkpt>
      <trkpt lat="44.645" lon="5.19963">
        <ele>1497</ele>
        <time>2026-05-25T11:51:15.000Z</time>
      </trkpt>
      <trkpt lat="44.645" lon="5.19963">
        <ele>1497</ele>
        <time>2026-05-25T11:51:16.000Z</time>
      </trkpt>
      <trkpt lat="44.645" lon="5.19963">
        <ele>1497</ele>
        <time>2026-05-25T11:51:17.000Z</time>
      </trkpt>
      <trkpt lat="44.645" lon="5.19963">
        <ele>1497</ele>
        <time>2026-05-25T11:51:18.000Z</time>
      </trkpt>
      <trkpt lat="44.645" lon="5.19963">
        <ele>1497</ele>
        <time>2026-05-25T11:51:19.000Z</time>
      </trkpt>
      <trkpt lat="44.645" lon="5.19963">
        <ele>1497</ele>
        <time>2026-05-25T11:51:20.000Z</time>
      </trkpt>
      <trkpt lat="44.645" lon="5.19963">
        <ele>1497</ele>
        <time>2026-05-25T11:51:21.000Z</time>
      </trkpt>
      <trkpt lat="44.645" lon="5.19963">
        <ele>1497</ele>
        <time>2026-05-25T11:51:22.000Z</time>
      </trkpt>
      <trkpt lat="44.645" lon="5.19963">
        <ele>1497</ele>
        <time>2026-05-25T11:51:23.000Z</time>
      </trkpt>
      <trkpt lat="44.645" lon="5.19963">
        <ele>1497</ele>
        <time>2026-05-25T11:51:24.000Z</time>
      </trkpt>
      <trkpt lat="44.645" lon="5.19963">
        <ele>1497</ele>
        <time>2026-05-25T11:51:25.000Z</time>
      </trkpt>
      <trkpt lat="44.645" lon="5.19963">
        <ele>1497</ele>
        <time>2026-05-25T11:51:26.000Z</time>
      </trkpt>
      <trkpt lat="44.645" lon="5.19963">
        <ele>1497</ele>
        <time>2026-05-25T11:51:27.000Z</time>
      </trkpt>
      <trkpt lat="44.645" lon="5.19963">
        <ele>1497</ele>
        <time>2026-05-25T11:51:28.000Z</time>
      </trkpt>
      <trkpt lat="44.645" lon="5.19963">
        <ele>1497</ele>
        <time>2026-05-25T11:51:29.000Z</time>
      </trkpt>
      <trkpt lat="44.645" lon="5.19963">
        <ele>1497</ele>
        <time>2026-05-25T11:51:30.000Z</time>
      </trkpt>
      <trkpt lat="44.645" lon="5.19963">
        <ele>1497</ele>
        <time>2026-05-25T11:51:31.000Z</time>
      </trkpt>
      <trkpt lat="44.645" lon="5.19963">
        <ele>1497</ele>
        <time>2026-05-25T11:51:32.000Z</time>
      </trkpt>
      <trkpt lat="44.645" lon="5.19963">
        <ele>1497</ele>
        <time>2026-05-25T11:51:33.000Z</time>
      </trkpt>
      <trkpt lat="44.645" lon="5.19963">
        <ele>1497</ele>
        <time>2026-05-25T11:51:34.000Z</time>
      </trkpt>
      <trkpt lat="44.645" lon="5.19963">
        <ele>1497</ele>
        <time>2026-05-25T11:51:35.000Z</time>
      </trkpt>
      <trkpt lat="44.645" lon="5.19963">
        <ele>1497</ele>
        <time>2026-05-25T11:51:36.000Z</time>
      </trkpt>
      <trkpt lat="44.645" lon="5.19963">
        <ele>1497</ele>
        <time>2026-05-25T11:51:37.000Z</time>
      </trkpt>
      <trkpt lat="44.645" lon="5.19963">
        <ele>1497</ele>
        <time>2026-05-25T11:51:38.000Z</time>
      </trkpt>
      <trkpt lat="44.645" lon="5.19963">
        <ele>1497</ele>
        <time>2026-05-25T11:51:39.000Z</time>
      </trkpt>
      <trkpt lat="44.645" lon="5.19963">
        <ele>1497</ele>
        <time>2026-05-25T11:51:40.000Z</time>
      </trkpt>
      <trkpt lat="44.645" lon="5.19963">
        <ele>1497</ele>
        <time>2026-05-25T11:51:41.000Z</time>
      </trkpt>
      <trkpt lat="44.645" lon="5.19963">
        <ele>1497</ele>
        <time>2026-05-25T11:51:42.000Z</time>
      </trkpt>
      <trkpt lat="44.645" lon="5.19963">
        <ele>1497</ele>
        <time>2026-05-25T11:51:43.000Z</time>
      </trkpt>
      <trkpt lat="44.645" lon="5.19963">
        <ele>1497</ele>
        <time>2026-05-25T11:51:44.000Z</time>
      </trkpt>
      <trkpt lat="44.645" lon="5.19963">
        <ele>1497</ele>
        <time>2026-05-25T11:51:45.000Z</time>
      </trkpt>
      <trkpt lat="44.645" lon="5.19963">
        <ele>1497</ele>
        <time>2026-05-25T11:51:46.000Z</time>
      </trkpt>
      <trkpt lat="44.645" lon="5.19963">
        <ele>1497</ele>
        <time>2026-05-25T11:51:47.000Z</time>
      </trkpt>
      <trkpt lat="44.645" lon="5.19963">
        <ele>1497</ele>
        <time>2026-05-25T11:51:48.000Z</time>
      </trkpt>
      <trkpt lat="44.645" lon="5.19963">
        <ele>1497</ele>
        <time>2026-05-25T11:51:49.000Z</time>
      </trkpt>
      <trkpt lat="44.645" lon="5.19963">
        <ele>1497</ele>
        <time>2026-05-25T11:51:50.000Z</time>
      </trkpt>
      <trkpt lat="44.645" lon="5.19963">
        <ele>1497</ele>
        <time>2026-05-25T11:51:51.000Z</time>
      </trkpt>
      <trkpt lat="44.645" lon="5.19963">
        <ele>1497</ele>
        <time>2026-05-25T11:51:52.000Z</time>
      </trkpt>
      <trkpt lat="44.645" lon="5.19963">
        <ele>1497</ele>
        <time>2026-05-25T11:51:53.000Z</time>
      </trkpt>
      <trkpt lat="44.645" lon="5.19963">
        <ele>1497</ele>
        <time>2026-05-25T11:51:54.000Z</time>
      </trkpt>
      <trkpt lat="44.645" lon="5.19963">
        <ele>1497</ele>
        <time>2026-05-25T11:51:55.000Z</time>
      </trkpt>
      <trkpt lat="44.645" lon="5.19963">
        <ele>1497</ele>
        <time>2026-05-25T11:51:56.000Z</time>
      </trkpt>
      <trkpt lat="44.645" lon="5.19963">
        <ele>1497</ele>
        <time>2026-05-25T11:51:57.000Z</time>
      </trkpt>
      <trkpt lat="44.645" lon="5.19963">
        <ele>1497</ele>
        <time>2026-05-25T11:51:58.000Z</time>
      </trkpt>
      <trkpt lat="44.645" lon="5.19963">
        <ele>1497</ele>
        <time>2026-05-25T11:51:59.000Z</time>
      </trkpt>
      <trkpt lat="44.645" lon="5.19963">
        <ele>1497</ele>
        <time>2026-05-25T11:52:00.000Z</time>
      </trkpt>
      <trkpt lat="44.645" lon="5.19963">
        <ele>1497</ele>
        <time>2026-05-25T11:52:01.000Z</time>
      </trkpt>
      <trkpt lat="44.645" lon="5.19963">
        <ele>1497</ele>
        <time>2026-05-25T11:52:02.000Z</time>
      </trkpt>
      <trkpt lat="44.645" lon="5.19963">
        <ele>1497</ele>
        <time>2026-05-25T11:52:03.000Z</time>
      </trkpt>
      <trkpt lat="44.64499" lon="5.19964">
        <ele>1497</ele>
        <time>2026-05-25T11:52:04.000Z</time>
      </trkpt>
      <trkpt lat="44.64499" lon="5.19964">
        <ele>1497</ele>
        <time>2026-05-25T11:52:05.000Z</time>
      </trkpt>
      <trkpt lat="44.64499" lon="5.19964">
        <ele>1497</ele>
        <time>2026-05-25T11:52:06.000Z</time>
      </trkpt>
      <trkpt lat="44.64499" lon="5.19964">
        <ele>1497</ele>
        <time>2026-05-25T11:52:07.000Z</time>
      </trkpt>
      <trkpt lat="44.64499" lon="5.19964">
        <ele>1497</ele>
        <time>2026-05-25T11:52:08.000Z</time>
      </trkpt>
      <trkpt lat="44.64499" lon="5.19964">
        <ele>1497</ele>
        <time>2026-05-25T11:52:09.000Z</time>
      </trkpt>
      <trkpt lat="44.64499" lon="5.19964">
        <ele>1497</ele>
        <time>2026-05-25T11:52:10.000Z</time>
      </trkpt>
      <trkpt lat="44.64499" lon="5.19964">
        <ele>1497</ele>
        <time>2026-05-25T11:52:11.000Z</time>
      </trkpt>
      <trkpt lat="44.64499" lon="5.19964">
        <ele>1497</ele>
        <time>2026-05-25T11:52:12.000Z</time>
      </trkpt>
      <trkpt lat="44.64499" lon="5.19964">
        <ele>1497</ele>
        <time>2026-05-25T11:52:13.000Z</time>
      </trkpt>
      <trkpt lat="44.64499" lon="5.19964">
        <ele>1497</ele>
        <time>2026-05-25T11:52:14.000Z</time>
      </trkpt>
      <trkpt lat="44.64499" lon="5.19964">
        <ele>1497</ele>
        <time>2026-05-25T11:52:15.000Z</time>
      </trkpt>
      <trkpt lat="44.64499" lon="5.19964">
        <ele>1497</ele>
        <time>2026-05-25T11:52:16.000Z</time>
      </trkpt>
      <trkpt lat="44.64499" lon="5.19964">
        <ele>1497</ele>
        <time>2026-05-25T11:52:17.000Z</time>
      </trkpt>
      <trkpt lat="44.64499" lon="5.19964">
        <ele>1497</ele>
        <time>2026-05-25T11:52:18.000Z</time>
      </trkpt>
      <trkpt lat="44.64499" lon="5.19964">
        <ele>1497</ele>
        <time>2026-05-25T11:52:19.000Z</time>
      </trkpt>
      <trkpt lat="44.64499" lon="5.19964">
        <ele>1497</ele>
        <time>2026-05-25T11:52:20.000Z</time>
      </trkpt>
      <trkpt lat="44.64499" lon="5.19964">
        <ele>1497</ele>
        <time>2026-05-25T11:52:21.000Z</time>
      </trkpt>
      <trkpt lat="44.64499" lon="5.19964">
        <ele>1497</ele>
        <time>2026-05-25T11:52:22.000Z</time>
      </trkpt>
      <trkpt lat="44.64499" lon="5.19964">
        <ele>1497</ele>
        <time>2026-05-25T11:52:23.000Z</time>
      </trkpt>
      <trkpt lat="44.64499" lon="5.19964">
        <ele>1497</ele>
        <time>2026-05-25T11:52:24.000Z</time>
      </trkpt>
      <trkpt lat="44.64499" lon="5.19964">
        <ele>1497</ele>
        <time>2026-05-25T11:52:25.000Z</time>
      </trkpt>
      <trkpt lat="44.64499" lon="5.19964">
        <ele>1497</ele>
        <time>2026-05-25T11:52:26.000Z</time>
      </trkpt>
      <trkpt lat="44.64499" lon="5.19964">
        <ele>1497</ele>
        <time>2026-05-25T11:52:27.000Z</time>
      </trkpt>
      <trkpt lat="44.64499" lon="5.19964">
        <ele>1497</ele>
        <time>2026-05-25T11:52:28.000Z</time>
      </trkpt>
      <trkpt lat="44.64499" lon="5.19964">
        <ele>1497</ele>
        <time>2026-05-25T11:52:29.000Z</time>
      </trkpt>
      <trkpt lat="44.64499" lon="5.19964">
        <ele>1497</ele>
        <time>2026-05-25T11:52:30.000Z</time>
      </trkpt>
      <trkpt lat="44.64499" lon="5.19964">
        <ele>1497</ele>
        <time>2026-05-25T11:52:31.000Z</time>
      </trkpt>
      <trkpt lat="44.64499" lon="5.19964">
        <ele>1497</ele>
        <time>2026-05-25T11:52:32.000Z</time>
      </trkpt>
      <trkpt lat="44.64499" lon="5.19964">
        <ele>1497</ele>
        <time>2026-05-25T11:52:33.000Z</time>
      </trkpt>
      <trkpt lat="44.64499" lon="5.19964">
        <ele>1497</ele>
        <time>2026-05-25T11:52:34.000Z</time>
      </trkpt>
      <trkpt lat="44.64499" lon="5.19964">
        <ele>1497</ele>
        <time>2026-05-25T11:52:35.000Z</time>
      </trkpt>
      <trkpt lat="44.64499" lon="5.19964">
        <ele>1497</ele>
        <time>2026-05-25T11:52:36.000Z</time>
      </trkpt>
      <trkpt lat="44.64499" lon="5.19964">
        <ele>1497</ele>
        <time>2026-05-25T11:52:37.000Z</time>
      </trkpt>
      <trkpt lat="44.64499" lon="5.19964">
        <ele>1497</ele>
        <time>2026-05-25T11:52:38.000Z</time>
      </trkpt>
      <trkpt lat="44.64499" lon="5.19964">
        <ele>1497</ele>
        <time>2026-05-25T11:52:39.000Z</time>
      </trkpt>
      <trkpt lat="44.64499" lon="5.19964">
        <ele>1497</ele>
        <time>2026-05-25T11:52:40.000Z</time>
      </trkpt>
      <trkpt lat="44.64499" lon="5.19964">
        <ele>1497</ele>
        <time>2026-05-25T11:52:41.000Z</time>
      </trkpt>
      <trkpt lat="44.64499" lon="5.19964">
        <ele>1497</ele>
        <time>2026-05-25T11:52:42.000Z</time>
      </trkpt>
      <trkpt lat="44.64499" lon="5.19964">
        <ele>1497</ele>
        <time>2026-05-25T11:52:43.000Z</time>
      </trkpt>
      <trkpt lat="44.64499" lon="5.19964">
        <ele>1497</ele>
        <time>2026-05-25T11:52:44.000Z</time>
      </trkpt>
      <trkpt lat="44.64499" lon="5.19964">
        <ele>1497</ele>
        <time>2026-05-25T11:52:45.000Z</time>
      </trkpt>
      <trkpt lat="44.64499" lon="5.19964">
        <ele>1497</ele>
        <time>2026-05-25T11:52:46.000Z</time>
      </trkpt>
      <trkpt lat="44.64499" lon="5.19964">
        <ele>1497</ele>
        <time>2026-05-25T11:52:47.000Z</time>
      </trkpt>
      <trkpt lat="44.64499" lon="5.19964">
        <ele>1497</ele>
        <time>2026-05-25T11:52:48.000Z</time>
      </trkpt>
      <trkpt lat="44.64499" lon="5.19964">
        <ele>1497</ele>
        <time>2026-05-25T11:52:49.000Z</time>
      </trkpt>
      <trkpt lat="44.64499" lon="5.19964">
        <ele>1497</ele>
        <time>2026-05-25T11:52:50.000Z</time>
      </trkpt>
      <trkpt lat="44.64499" lon="5.19964">
        <ele>1497</ele>
        <time>2026-05-25T11:52:51.000Z</time>
      </trkpt>
      <trkpt lat="44.64499" lon="5.19964">
        <ele>1497</ele>
        <time>2026-05-25T11:52:52.000Z</time>
      </trkpt>
      <trkpt lat="44.64499" lon="5.19964">
        <ele>1497</ele>
        <time>2026-05-25T11:52:53.000Z</time>
      </trkpt>
      <trkpt lat="44.64499" lon="5.19964">
        <ele>1497</ele>
        <time>2026-05-25T11:52:54.000Z</time>
      </trkpt>
      <trkpt lat="44.64499" lon="5.19964">
        <ele>1497</ele>
        <time>2026-05-25T11:52:55.000Z</time>
      </trkpt>
      <trkpt lat="44.64499" lon="5.19964">
        <ele>1497</ele>
        <time>2026-05-25T11:52:56.000Z</time>
      </trkpt>
      <trkpt lat="44.64499" lon="5.19964">
        <ele>1497</ele>
        <time>2026-05-25T11:52:57.000Z</time>
      </trkpt>
      <trkpt lat="44.64499" lon="5.19964">
        <ele>1497</ele>
        <time>2026-05-25T11:52:58.000Z</time>
      </trkpt>
      <trkpt lat="44.64499" lon="5.19964">
        <ele>1497</ele>
        <time>2026-05-25T11:52:59.000Z</time>
      </trkpt>
      <trkpt lat="44.64499" lon="5.19964">
        <ele>1497</ele>
        <time>2026-05-25T11:53:00.000Z</time>
      </trkpt>
      <trkpt lat="44.64499" lon="5.19964">
        <ele>1497</ele>
        <time>2026-05-25T11:53:01.000Z</time>
      </trkpt>
      <trkpt lat="44.64499" lon="5.19964">
        <ele>1497</ele>
        <time>2026-05-25T11:53:02.000Z</time>
      </trkpt>
      <trkpt lat="44.64499" lon="5.19964">
        <ele>1497</ele>
        <time>2026-05-25T11:53:03.000Z</time>
      </trkpt>
      <trkpt lat="44.64499" lon="5.19964">
        <ele>1497</ele>
        <time>2026-05-25T11:53:04.000Z</time>
      </trkpt>
      <trkpt lat="44.64499" lon="5.19964">
        <ele>1497</ele>
        <time>2026-05-25T11:53:05.000Z</time>
      </trkpt>
      <trkpt lat="44.64499" lon="5.19964">
        <ele>1497</ele>
        <time>2026-05-25T11:53:06.000Z</time>
      </trkpt>
      <trkpt lat="44.64499" lon="5.19964">
        <ele>1497</ele>
        <time>2026-05-25T11:53:07.000Z</time>
      </trkpt>
      <trkpt lat="44.64499" lon="5.19964">
        <ele>1497</ele>
        <time>2026-05-25T11:53:08.000Z</time>
      </trkpt>
      <trkpt lat="44.64499" lon="5.19964">
        <ele>1497</ele>
        <time>2026-05-25T11:53:09.000Z</time>
      </trkpt>
      <trkpt lat="44.64499" lon="5.19964">
        <ele>1497</ele>
        <time>2026-05-25T11:53:10.000Z</time>
      </trkpt>
      <trkpt lat="44.64499" lon="5.19964">
        <ele>1497</ele>
        <time>2026-05-25T11:53:11.000Z</time>
      </trkpt>
      <trkpt lat="44.64499" lon="5.19964">
        <ele>1497</ele>
        <time>2026-05-25T11:53:12.000Z</time>
      </trkpt>
      <trkpt lat="44.64499" lon="5.19964">
        <ele>1497</ele>
        <time>2026-05-25T11:53:13.000Z</time>
      </trkpt>
      <trkpt lat="44.64499" lon="5.19964">
        <ele>1497</ele>
        <time>2026-05-25T11:53:14.000Z</time>
      </trkpt>
      <trkpt lat="44.64499" lon="5.19964">
        <ele>1497</ele>
        <time>2026-05-25T11:53:15.000Z</time>
      </trkpt>
      <trkpt lat="44.64499" lon="5.19964">
        <ele>1497</ele>
        <time>2026-05-25T11:53:16.000Z</time>
      </trkpt>
      <trkpt lat="44.64499" lon="5.19964">
        <ele>1497</ele>
        <time>2026-05-25T11:53:17.000Z</time>
      </trkpt>
      <trkpt lat="44.64499" lon="5.19964">
        <ele>1497</ele>
        <time>2026-05-25T11:53:18.000Z</time>
      </trkpt>
      <trkpt lat="44.64499" lon="5.19964">
        <ele>1497</ele>
        <time>2026-05-25T11:53:19.000Z</time>
      </trkpt>
      <trkpt lat="44.64499" lon="5.19964">
        <ele>1497</ele>
        <time>2026-05-25T11:53:20.000Z</time>
      </trkpt>
      <trkpt lat="44.64499" lon="5.19964">
        <ele>1497</ele>
        <time>2026-05-25T11:53:21.000Z</time>
      </trkpt>
      <trkpt lat="44.64499" lon="5.19964">
        <ele>1497</ele>
        <time>2026-05-25T11:53:22.000Z</time>
      </trkpt>
      <trkpt lat="44.64499" lon="5.19964">
        <ele>1497</ele>
        <time>2026-05-25T11:53:23.000Z</time>
      </trkpt>
      <trkpt lat="44.64499" lon="5.19964">
        <ele>1497</ele>
        <time>2026-05-25T11:53:24.000Z</time>
      </trkpt>
      <trkpt lat="44.64499" lon="5.19964">
        <ele>1497</ele>
        <time>2026-05-25T11:53:25.000Z</time>
      </trkpt>
      <trkpt lat="44.64499" lon="5.19964">
        <ele>1497</ele>
        <time>2026-05-25T11:53:26.000Z</time>
      </trkpt>
      <trkpt lat="44.64499" lon="5.19964">
        <ele>1497</ele>
        <time>2026-05-25T11:53:27.000Z</time>
      </trkpt>
      <trkpt lat="44.64499" lon="5.19964">
        <ele>1497</ele>
        <time>2026-05-25T11:53:28.000Z</time>
      </trkpt>
      <trkpt lat="44.64499" lon="5.19964">
        <ele>1497</ele>
        <time>2026-05-25T11:53:29.000Z</time>
      </trkpt>
      <trkpt lat="44.64499" lon="5.19964">
        <ele>1497</ele>
        <time>2026-05-25T11:53:30.000Z</time>
      </trkpt>
      <trkpt lat="44.64499" lon="5.19964">
        <ele>1497</ele>
        <time>2026-05-25T11:53:31.000Z</time>
      </trkpt>
      <trkpt lat="44.64499" lon="5.19964">
        <ele>1497</ele>
        <time>2026-05-25T11:53:32.000Z</time>
      </trkpt>
      <trkpt lat="44.64499" lon="5.19964">
        <ele>1497</ele>
        <time>2026-05-25T11:53:33.000Z</time>
      </trkpt>
      <trkpt lat="44.64499" lon="5.19964">
        <ele>1497</ele>
        <time>2026-05-25T11:53:34.000Z</time>
      </trkpt>
      <trkpt lat="44.64499" lon="5.19964">
        <ele>1497</ele>
        <time>2026-05-25T11:53:35.000Z</time>
      </trkpt>
      <trkpt lat="44.64499" lon="5.19964">
        <ele>1497</ele>
        <time>2026-05-25T11:53:36.000Z</time>
      </trkpt>
      <trkpt lat="44.64499" lon="5.19964">
        <ele>1497</ele>
        <time>2026-05-25T11:53:37.000Z</time>
      </trkpt>
      <trkpt lat="44.64499" lon="5.19964">
        <ele>1497</ele>
        <time>2026-05-25T11:53:38.000Z</time>
      </trkpt>
      <trkpt lat="44.64499" lon="5.19964">
        <ele>1497</ele>
        <time>2026-05-25T11:53:39.000Z</time>
      </trkpt>
      <trkpt lat="44.64499" lon="5.19964">
        <ele>1497</ele>
        <time>2026-05-25T11:53:40.000Z</time>
      </trkpt>
      <trkpt lat="44.64499" lon="5.19964">
        <ele>1497</ele>
        <time>2026-05-25T11:53:41.000Z</time>
      </trkpt>
      <trkpt lat="44.64499" lon="5.19964">
        <ele>1497</ele>
        <time>2026-05-25T11:53:42.000Z</time>
      </trkpt>
      <trkpt lat="44.64499" lon="5.19964">
        <ele>1497</ele>
        <time>2026-05-25T11:53:43.000Z</time>
      </trkpt>
      <trkpt lat="44.64499" lon="5.19964">
        <ele>1497</ele>
        <time>2026-05-25T11:53:44.000Z</time>
      </trkpt>
      <trkpt lat="44.64499" lon="5.19964">
        <ele>1497</ele>
        <time>2026-05-25T11:53:45.000Z</time>
      </trkpt>
      <trkpt lat="44.64499" lon="5.19964">
        <ele>1497</ele>
        <time>2026-05-25T11:53:46.000Z</time>
      </trkpt>
      <trkpt lat="44.64499" lon="5.19964">
        <ele>1497</ele>
        <time>2026-05-25T11:53:47.000Z</time>
      </trkpt>
      <trkpt lat="44.64499" lon="5.19964">
        <ele>1497</ele>
        <time>2026-05-25T11:53:48.000Z</time>
      </trkpt>
      <trkpt lat="44.64499" lon="5.19964">
        <ele>1497</ele>
        <time>2026-05-25T11:53:49.000Z</time>
      </trkpt>
      <trkpt lat="44.64499" lon="5.19964">
        <ele>1497</ele>
        <time>2026-05-25T11:53:50.000Z</time>
      </trkpt>
      <trkpt lat="44.64499" lon="5.19964">
        <ele>1497</ele>
        <time>2026-05-25T11:53:51.000Z</time>
      </trkpt>
      <trkpt lat="44.64499" lon="5.19964">
        <ele>1497</ele>
        <time>2026-05-25T11:53:52.000Z</time>
      </trkpt>
      <trkpt lat="44.64499" lon="5.19964">
        <ele>1497</ele>
        <time>2026-05-25T11:53:53.000Z</time>
      </trkpt>
      <trkpt lat="44.64499" lon="5.19964">
        <ele>1497</ele>
        <time>2026-05-25T11:53:54.000Z</time>
      </trkpt>
      <trkpt lat="44.64499" lon="5.19964">
        <ele>1497</ele>
        <time>2026-05-25T11:53:55.000Z</time>
      </trkpt>
      <trkpt lat="44.64499" lon="5.19964">
        <ele>1497</ele>
        <time>2026-05-25T11:53:56.000Z</time>
      </trkpt>
      <trkpt lat="44.64499" lon="5.19964">
        <ele>1497</ele>
        <time>2026-05-25T11:53:57.000Z</time>
      </trkpt>
      <trkpt lat="44.64499" lon="5.19964">
        <ele>1497</ele>
        <time>2026-05-25T11:53:58.000Z</time>
      </trkpt>
      <trkpt lat="44.64499" lon="5.19964">
        <ele>1497</ele>
        <time>2026-05-25T11:53:59.000Z</time>
      </trkpt>
      <trkpt lat="44.64499" lon="5.19964">
        <ele>1497</ele>
        <time>2026-05-25T11:54:00.000Z</time>
      </trkpt>
      <trkpt lat="44.64499" lon="5.19964">
        <ele>1497</ele>
        <time>2026-05-25T11:54:01.000Z</time>
      </trkpt>
      <trkpt lat="44.64499" lon="5.19964">
        <ele>1497</ele>
        <time>2026-05-25T11:54:02.000Z</time>
      </trkpt>
      <trkpt lat="44.64499" lon="5.19964">
        <ele>1497</ele>
        <time>2026-05-25T11:54:03.000Z</time>
      </trkpt>
      <trkpt lat="44.64499" lon="5.19964">
        <ele>1497</ele>
        <time>2026-05-25T11:54:04.000Z</time>
      </trkpt>
      <trkpt lat="44.64499" lon="5.19964">
        <ele>1497</ele>
        <time>2026-05-25T11:54:05.000Z</time>
      </trkpt>
      <trkpt lat="44.64499" lon="5.19964">
        <ele>1497</ele>
        <time>2026-05-25T11:54:06.000Z</time>
      </trkpt>
      <trkpt lat="44.64499" lon="5.19964">
        <ele>1497</ele>
        <time>2026-05-25T11:54:07.000Z</time>
      </trkpt>
      <trkpt lat="44.64499" lon="5.19964">
        <ele>1497</ele>
        <time>2026-05-25T11:54:08.000Z</time>
      </trkpt>
      <trkpt lat="44.64499" lon="5.19964">
        <ele>1497</ele>
        <time>2026-05-25T11:54:09.000Z</time>
      </trkpt>
      <trkpt lat="44.64499" lon="5.19964">
        <ele>1497</ele>
        <time>2026-05-25T11:54:10.000Z</time>
      </trkpt>
      <trkpt lat="44.64499" lon="5.19964">
        <ele>1497</ele>
        <time>2026-05-25T11:54:11.000Z</time>
      </trkpt>
      <trkpt lat="44.64499" lon="5.19964">
        <ele>1497</ele>
        <time>2026-05-25T11:54:12.000Z</time>
      </trkpt>
      <trkpt lat="44.64499" lon="5.19964">
        <ele>1497</ele>
        <time>2026-05-25T11:54:13.000Z</time>
      </trkpt>
      <trkpt lat="44.64499" lon="5.19964">
        <ele>1497</ele>
        <time>2026-05-25T11:54:14.000Z</time>
      </trkpt>
      <trkpt lat="44.64499" lon="5.19964">
        <ele>1497</ele>
        <time>2026-05-25T11:54:15.000Z</time>
      </trkpt>
      <trkpt lat="44.64499" lon="5.19964">
        <ele>1497</ele>
        <time>2026-05-25T11:54:16.000Z</time>
      </trkpt>
      <trkpt lat="44.64499" lon="5.19964">
        <ele>1497</ele>
        <time>2026-05-25T11:54:17.000Z</time>
      </trkpt>
      <trkpt lat="44.64499" lon="5.19964">
        <ele>1497</ele>
        <time>2026-05-25T11:54:18.000Z</time>
      </trkpt>
      <trkpt lat="44.64499" lon="5.19964">
        <ele>1497</ele>
        <time>2026-05-25T11:54:19.000Z</time>
      </trkpt>
      <trkpt lat="44.64499" lon="5.19964">
        <ele>1497</ele>
        <time>2026-05-25T11:54:20.000Z</time>
      </trkpt>
      <trkpt lat="44.64499" lon="5.19964">
        <ele>1497</ele>
        <time>2026-05-25T11:54:21.000Z</time>
      </trkpt>
      <trkpt lat="44.64499" lon="5.19964">
        <ele>1497</ele>
        <time>2026-05-25T11:54:22.000Z</time>
      </trkpt>
      <trkpt lat="44.64499" lon="5.19964">
        <ele>1497</ele>
        <time>2026-05-25T11:54:23.000Z</time>
      </trkpt>
      <trkpt lat="44.64499" lon="5.19964">
        <ele>1497</ele>
        <time>2026-05-25T11:54:24.000Z</time>
      </trkpt>
      <trkpt lat="44.64499" lon="5.19964">
        <ele>1497</ele>
        <time>2026-05-25T11:54:25.000Z</time>
      </trkpt>
      <trkpt lat="44.64499" lon="5.19964">
        <ele>1497</ele>
        <time>2026-05-25T11:54:26.000Z</time>
      </trkpt>
      <trkpt lat="44.64499" lon="5.19964">
        <ele>1497</ele>
        <time>2026-05-25T11:54:27.000Z</time>
      </trkpt>
      <trkpt lat="44.64499" lon="5.19964">
        <ele>1497</ele>
        <time>2026-05-25T11:54:28.000Z</time>
      </trkpt>
      <trkpt lat="44.64499" lon="5.19964">
        <ele>1497</ele>
        <time>2026-05-25T11:54:29.000Z</time>
      </trkpt>
      <trkpt lat="44.64499" lon="5.19964">
        <ele>1497</ele>
        <time>2026-05-25T11:54:30.000Z</time>
      </trkpt>
      <trkpt lat="44.64499" lon="5.19964">
        <ele>1497</ele>
        <time>2026-05-25T11:54:31.000Z</time>
      </trkpt>
      <trkpt lat="44.64499" lon="5.19964">
        <ele>1497</ele>
        <time>2026-05-25T11:54:32.000Z</time>
      </trkpt>
      <trkpt lat="44.64499" lon="5.19964">
        <ele>1497</ele>
        <time>2026-05-25T11:54:33.000Z</time>
      </trkpt>
      <trkpt lat="44.64499" lon="5.19964">
        <ele>1497</ele>
        <time>2026-05-25T11:54:34.000Z</time>
      </trkpt>
      <trkpt lat="44.64499" lon="5.19964">
        <ele>1497</ele>
        <time>2026-05-25T11:54:35.000Z</time>
      </trkpt>
      <trkpt lat="44.64499" lon="5.19964">
        <ele>1497</ele>
        <time>2026-05-25T11:54:36.000Z</time>
      </trkpt>
      <trkpt lat="44.64499" lon="5.19964">
        <ele>1497</ele>
        <time>2026-05-25T11:54:37.000Z</time>
      </trkpt>
      <trkpt lat="44.64499" lon="5.19964">
        <ele>1497</ele>
        <time>2026-05-25T11:54:38.000Z</time>
      </trkpt>
      <trkpt lat="44.64499" lon="5.19964">
        <ele>1497</ele>
        <time>2026-05-25T11:54:39.000Z</time>
      </trkpt>
      <trkpt lat="44.64499" lon="5.19964">
        <ele>1497</ele>
        <time>2026-05-25T11:54:40.000Z</time>
      </trkpt>
      <trkpt lat="44.64499" lon="5.19964">
        <ele>1497</ele>
        <time>2026-05-25T11:54:41.000Z</time>
      </trkpt>
      <trkpt lat="44.64499" lon="5.19964">
        <ele>1497</ele>
        <time>2026-05-25T11:54:42.000Z</time>
      </trkpt>
      <trkpt lat="44.64499" lon="5.19964">
        <ele>1497</ele>
        <time>2026-05-25T11:54:43.000Z</time>
      </trkpt>
      <trkpt lat="44.64499" lon="5.19964">
        <ele>1497</ele>
        <time>2026-05-25T11:54:44.000Z</time>
      </trkpt>
      <trkpt lat="44.64499" lon="5.19964">
        <ele>1497</ele>
        <time>2026-05-25T11:54:45.000Z</time>
      </trkpt>
      <trkpt lat="44.64499" lon="5.19964">
        <ele>1497</ele>
        <time>2026-05-25T11:54:46.000Z</time>
      </trkpt>
      <trkpt lat="44.64499" lon="5.19964">
        <ele>1497</ele>
        <time>2026-05-25T11:54:47.000Z</time>
      </trkpt>
      <trkpt lat="44.64499" lon="5.19964">
        <ele>1497</ele>
        <time>2026-05-25T11:54:48.000Z</time>
      </trkpt>
      <trkpt lat="44.64499" lon="5.19964">
        <ele>1497</ele>
        <time>2026-05-25T11:54:49.000Z</time>
      </trkpt>
      <trkpt lat="44.64499" lon="5.19964">
        <ele>1497</ele>
        <time>2026-05-25T11:54:50.000Z</time>
      </trkpt>
      <trkpt lat="44.64499" lon="5.19964">
        <ele>1497</ele>
        <time>2026-05-25T11:54:51.000Z</time>
      </trkpt>
      <trkpt lat="44.64499" lon="5.19964">
        <ele>1497</ele>
        <time>2026-05-25T11:54:52.000Z</time>
      </trkpt>
      <trkpt lat="44.64499" lon="5.19964">
        <ele>1497</ele>
        <time>2026-05-25T11:54:53.000Z</time>
      </trkpt>
      <trkpt lat="44.64499" lon="5.19964">
        <ele>1497</ele>
        <time>2026-05-25T11:54:54.000Z</time>
      </trkpt>
      <trkpt lat="44.64499" lon="5.19964">
        <ele>1497</ele>
        <time>2026-05-25T11:54:55.000Z</time>
      </trkpt>
      <trkpt lat="44.64499" lon="5.19964">
        <ele>1497</ele>
        <time>2026-05-25T11:54:56.000Z</time>
      </trkpt>
      <trkpt lat="44.64499" lon="5.19964">
        <ele>1497</ele>
        <time>2026-05-25T11:54:57.000Z</time>
      </trkpt>
      <trkpt lat="44.64499" lon="5.19964">
        <ele>1497</ele>
        <time>2026-05-25T11:54:58.000Z</time>
      </trkpt>
      <trkpt lat="44.64499" lon="5.19964">
        <ele>1497</ele>
        <time>2026-05-25T11:54:59.000Z</time>
      </trkpt>
      <trkpt lat="44.64499" lon="5.19964">
        <ele>1497</ele>
        <time>2026-05-25T11:55:00.000Z</time>
      </trkpt>
      <trkpt lat="44.64499" lon="5.19964">
        <ele>1497</ele>
        <time>2026-05-25T11:55:01.000Z</time>
      </trkpt>
      <trkpt lat="44.64499" lon="5.19964">
        <ele>1497</ele>
        <time>2026-05-25T11:55:02.000Z</time>
      </trkpt>
      <trkpt lat="44.64499" lon="5.19964">
        <ele>1497</ele>
        <time>2026-05-25T11:55:03.000Z</time>
      </trkpt>
      <trkpt lat="44.64499" lon="5.19964">
        <ele>1497</ele>
        <time>2026-05-25T11:55:04.000Z</time>
      </trkpt>
      <trkpt lat="44.64499" lon="5.19964">
        <ele>1497</ele>
        <time>2026-05-25T11:55:05.000Z</time>
      </trkpt>
      <trkpt lat="44.64499" lon="5.19964">
        <ele>1497</ele>
        <time>2026-05-25T11:55:06.000Z</time>
      </trkpt>
      <trkpt lat="44.64499" lon="5.19964">
        <ele>1497</ele>
        <time>2026-05-25T11:55:07.000Z</time>
      </trkpt>
      <trkpt lat="44.64499" lon="5.19964">
        <ele>1497</ele>
        <time>2026-05-25T11:55:08.000Z</time>
      </trkpt>
      <trkpt lat="44.64499" lon="5.19964">
        <ele>1497</ele>
        <time>2026-05-25T11:55:09.000Z</time>
      </trkpt>
      <trkpt lat="44.64499" lon="5.19964">
        <ele>1497</ele>
        <time>2026-05-25T11:55:10.000Z</time>
      </trkpt>
      <trkpt lat="44.64499" lon="5.19964">
        <ele>1497</ele>
        <time>2026-05-25T11:55:11.000Z</time>
      </trkpt>
      <trkpt lat="44.64499" lon="5.19964">
        <ele>1497</ele>
        <time>2026-05-25T11:55:12.000Z</time>
      </trkpt>
      <trkpt lat="44.64499" lon="5.19964">
        <ele>1497</ele>
        <time>2026-05-25T11:55:13.000Z</time>
      </trkpt>
      <trkpt lat="44.64499" lon="5.19964">
        <ele>1497</ele>
        <time>2026-05-25T11:55:14.000Z</time>
      </trkpt>
      <trkpt lat="44.64499" lon="5.19964">
        <ele>1497</ele>
        <time>2026-05-25T11:55:15.000Z</time>
      </trkpt>
      <trkpt lat="44.64499" lon="5.19964">
        <ele>1497</ele>
        <time>2026-05-25T11:55:16.000Z</time>
      </trkpt>
      <trkpt lat="44.64499" lon="5.19964">
        <ele>1497</ele>
        <time>2026-05-25T11:55:17.000Z</time>
      </trkpt>
      <trkpt lat="44.64499" lon="5.19964">
        <ele>1497</ele>
        <time>2026-05-25T11:55:18.000Z</time>
      </trkpt>
      <trkpt lat="44.64499" lon="5.19964">
        <ele>1497</ele>
        <time>2026-05-25T11:55:19.000Z</time>
      </trkpt>
      <trkpt lat="44.64499" lon="5.19964">
        <ele>1498</ele>
        <time>2026-05-25T11:55:20.000Z</time>
      </trkpt>
      <trkpt lat="44.64499" lon="5.19963">
        <ele>1499</ele>
        <time>2026-05-25T11:55:21.000Z</time>
      </trkpt>
      <trkpt lat="44.645" lon="5.19963">
        <ele>1497</ele>
        <time>2026-05-25T11:55:22.000Z</time>
      </trkpt>
      <trkpt lat="44.645" lon="5.19963">
        <ele>1495</ele>
        <time>2026-05-25T11:55:23.000Z</time>
      </trkpt>
      <trkpt lat="44.64501" lon="5.19965">
        <ele>1494</ele>
        <time>2026-05-25T11:55:24.000Z</time>
      </trkpt>
      <trkpt lat="44.64501" lon="5.19965">
        <ele>1493</ele>
        <time>2026-05-25T11:55:25.000Z</time>
      </trkpt>
      <trkpt lat="44.645" lon="5.19965">
        <ele>1493</ele>
        <time>2026-05-25T11:55:26.000Z</time>
      </trkpt>
      <trkpt lat="44.64499" lon="5.19965">
        <ele>1493</ele>
        <time>2026-05-25T11:55:27.000Z</time>
      </trkpt>
      <trkpt lat="44.64498" lon="5.19964">
        <ele>1493</ele>
        <time>2026-05-25T11:55:28.000Z</time>
      </trkpt>
      <trkpt lat="44.64498" lon="5.19964">
        <ele>1495</ele>
        <time>2026-05-25T11:55:29.000Z</time>
      </trkpt>
      <trkpt lat="44.64497" lon="5.19963">
        <ele>1495</ele>
        <time>2026-05-25T11:55:30.000Z</time>
      </trkpt>
      <trkpt lat="44.64496" lon="5.19963">
        <ele>1495</ele>
        <time>2026-05-25T11:55:31.000Z</time>
      </trkpt>
      <trkpt lat="44.64495" lon="5.19962">
        <ele>1496</ele>
        <time>2026-05-25T11:55:32.000Z</time>
      </trkpt>
      <trkpt lat="44.64494" lon="5.19962">
        <ele>1497</ele>
        <time>2026-05-25T11:55:33.000Z</time>
      </trkpt>
      <trkpt lat="44.64493" lon="5.19962">
        <ele>1497</ele>
        <time>2026-05-25T11:55:34.000Z</time>
      </trkpt>
      <trkpt lat="44.64493" lon="5.19962">
        <ele>1497</ele>
        <time>2026-05-25T11:55:35.000Z</time>
      </trkpt>
      <trkpt lat="44.64492" lon="5.19962">
        <ele>1498</ele>
        <time>2026-05-25T11:55:36.000Z</time>
      </trkpt>
      <trkpt lat="44.64492" lon="5.19961">
        <ele>1498</ele>
        <time>2026-05-25T11:55:37.000Z</time>
      </trkpt>
      <trkpt lat="44.64491" lon="5.19961">
        <ele>1498</ele>
        <time>2026-05-25T11:55:38.000Z</time>
      </trkpt>
      <trkpt lat="44.64491" lon="5.19961">
        <ele>1498</ele>
        <time>2026-05-25T11:55:39.000Z</time>
      </trkpt>
      <trkpt lat="44.6449" lon="5.19959">
        <ele>1499</ele>
        <time>2026-05-25T11:55:40.000Z</time>
      </trkpt>
      <trkpt lat="44.64489" lon="5.19958">
        <ele>1499</ele>
        <time>2026-05-25T11:55:41.000Z</time>
      </trkpt>
      <trkpt lat="44.64489" lon="5.19957">
        <ele>1499</ele>
        <time>2026-05-25T11:55:42.000Z</time>
      </trkpt>
      <trkpt lat="44.64488" lon="5.19955">
        <ele>1499</ele>
        <time>2026-05-25T11:55:43.000Z</time>
      </trkpt>
      <trkpt lat="44.64488" lon="5.19954">
        <ele>1500</ele>
        <time>2026-05-25T11:55:44.000Z</time>
      </trkpt>
      <trkpt lat="44.64488" lon="5.19953">
        <ele>1500</ele>
        <time>2026-05-25T11:55:45.000Z</time>
      </trkpt>
      <trkpt lat="44.64489" lon="5.19951">
        <ele>1501</ele>
        <time>2026-05-25T11:55:46.000Z</time>
      </trkpt>
      <trkpt lat="44.64489" lon="5.19949">
        <ele>1501</ele>
        <time>2026-05-25T11:55:47.000Z</time>
      </trkpt>
      <trkpt lat="44.6449" lon="5.19948">
        <ele>1501</ele>
        <time>2026-05-25T11:55:48.000Z</time>
      </trkpt>
      <trkpt lat="44.6449" lon="5.19948">
        <ele>1502</ele>
        <time>2026-05-25T11:55:49.000Z</time>
      </trkpt>
      <trkpt lat="44.6449" lon="5.19947">
        <ele>1502</ele>
        <time>2026-05-25T11:55:50.000Z</time>
      </trkpt>
      <trkpt lat="44.6449" lon="5.19946">
        <ele>1502</ele>
        <time>2026-05-25T11:55:51.000Z</time>
      </trkpt>
      <trkpt lat="44.6449" lon="5.19946">
        <ele>1502</ele>
        <time>2026-05-25T11:55:52.000Z</time>
      </trkpt>
      <trkpt lat="44.6449" lon="5.19946">
        <ele>1502</ele>
        <time>2026-05-25T11:55:53.000Z</time>
      </trkpt>
      <trkpt lat="44.6449" lon="5.19945">
        <ele>1502</ele>
        <time>2026-05-25T11:55:54.000Z</time>
      </trkpt>
      <trkpt lat="44.64491" lon="5.19945">
        <ele>1502</ele>
        <time>2026-05-25T11:55:55.000Z</time>
      </trkpt>
      <trkpt lat="44.64491" lon="5.19945">
        <ele>1502</ele>
        <time>2026-05-25T11:55:56.000Z</time>
      </trkpt>
      <trkpt lat="44.64491" lon="5.19943">
        <ele>1503</ele>
        <time>2026-05-25T11:55:57.000Z</time>
      </trkpt>
      <trkpt lat="44.64491" lon="5.19943">
        <ele>1501</ele>
        <time>2026-05-25T11:55:58.000Z</time>
      </trkpt>
      <trkpt lat="44.64491" lon="5.19942">
        <ele>1501</ele>
        <time>2026-05-25T11:55:59.000Z</time>
      </trkpt>
      <trkpt lat="44.64491" lon="5.19943">
        <ele>1501</ele>
        <time>2026-05-25T11:56:00.000Z</time>
      </trkpt>
      <trkpt lat="44.64491" lon="5.19943">
        <ele>1501</ele>
        <time>2026-05-25T11:56:01.000Z</time>
      </trkpt>
      <trkpt lat="44.64491" lon="5.19943">
        <ele>1501</ele>
        <time>2026-05-25T11:56:02.000Z</time>
      </trkpt>
      <trkpt lat="44.64491" lon="5.19943">
        <ele>1501</ele>
        <time>2026-05-25T11:56:03.000Z</time>
      </trkpt>
      <trkpt lat="44.64491" lon="5.19943">
        <ele>1501</ele>
        <time>2026-05-25T11:56:04.000Z</time>
      </trkpt>
      <trkpt lat="44.64491" lon="5.19942">
        <ele>1503</ele>
        <time>2026-05-25T11:56:05.000Z</time>
      </trkpt>
      <trkpt lat="44.64491" lon="5.19941">
        <ele>1503</ele>
        <time>2026-05-25T11:56:06.000Z</time>
      </trkpt>
      <trkpt lat="44.6449" lon="5.19941">
        <ele>1504</ele>
        <time>2026-05-25T11:56:07.000Z</time>
      </trkpt>
      <trkpt lat="44.64489" lon="5.19941">
        <ele>1504</ele>
        <time>2026-05-25T11:56:08.000Z</time>
      </trkpt>
      <trkpt lat="44.64489" lon="5.19941">
        <ele>1504</ele>
        <time>2026-05-25T11:56:09.000Z</time>
      </trkpt>
      <trkpt lat="44.6449" lon="5.1994">
        <ele>1504</ele>
        <time>2026-05-25T11:56:10.000Z</time>
      </trkpt>
      <trkpt lat="44.6449" lon="5.19939">
        <ele>1504</ele>
        <time>2026-05-25T11:56:11.000Z</time>
      </trkpt>
      <trkpt lat="44.64489" lon="5.19938">
        <ele>1503</ele>
        <time>2026-05-25T11:56:12.000Z</time>
      </trkpt>
      <trkpt lat="44.64489" lon="5.19937">
        <ele>1502</ele>
        <time>2026-05-25T11:56:13.000Z</time>
      </trkpt>
      <trkpt lat="44.64489" lon="5.19936">
        <ele>1502</ele>
        <time>2026-05-25T11:56:14.000Z</time>
      </trkpt>
      <trkpt lat="44.64489" lon="5.19934">
        <ele>1501</ele>
        <time>2026-05-25T11:56:15.000Z</time>
      </trkpt>
      <trkpt lat="44.64489" lon="5.19934">
        <ele>1501</ele>
        <time>2026-05-25T11:56:16.000Z</time>
      </trkpt>
      <trkpt lat="44.64489" lon="5.19934">
        <ele>1501</ele>
        <time>2026-05-25T11:56:17.000Z</time>
      </trkpt>
      <trkpt lat="44.64488" lon="5.19933">
        <ele>1501</ele>
        <time>2026-05-25T11:56:18.000Z</time>
      </trkpt>
      <trkpt lat="44.64488" lon="5.19932">
        <ele>1500</ele>
        <time>2026-05-25T11:56:19.000Z</time>
      </trkpt>
      <trkpt lat="44.64489" lon="5.1993">
        <ele>1500</ele>
        <time>2026-05-25T11:56:20.000Z</time>
      </trkpt>
      <trkpt lat="44.64489" lon="5.19928">
        <ele>1499</ele>
        <time>2026-05-25T11:56:21.000Z</time>
      </trkpt>
      <trkpt lat="44.64489" lon="5.19926">
        <ele>1500</ele>
        <time>2026-05-25T11:56:22.000Z</time>
      </trkpt>
      <trkpt lat="44.64489" lon="5.19924">
        <ele>1500</ele>
        <time>2026-05-25T11:56:23.000Z</time>
      </trkpt>
      <trkpt lat="44.64488" lon="5.19923">
        <ele>1500</ele>
        <time>2026-05-25T11:56:24.000Z</time>
      </trkpt>
      <trkpt lat="44.64488" lon="5.19921">
        <ele>1499</ele>
        <time>2026-05-25T11:56:25.000Z</time>
      </trkpt>
      <trkpt lat="44.64488" lon="5.1992">
        <ele>1499</ele>
        <time>2026-05-25T11:56:26.000Z</time>
      </trkpt>
      <trkpt lat="44.64487" lon="5.19918">
        <ele>1499</ele>
        <time>2026-05-25T11:56:27.000Z</time>
      </trkpt>
      <trkpt lat="44.64487" lon="5.19917">
        <ele>1499</ele>
        <time>2026-05-25T11:56:28.000Z</time>
      </trkpt>
      <trkpt lat="44.64486" lon="5.19916">
        <ele>1499</ele>
        <time>2026-05-25T11:56:29.000Z</time>
      </trkpt>
      <trkpt lat="44.64485" lon="5.19916">
        <ele>1499</ele>
        <time>2026-05-25T11:56:30.000Z</time>
      </trkpt>
      <trkpt lat="44.64485" lon="5.19914">
        <ele>1499</ele>
        <time>2026-05-25T11:56:31.000Z</time>
      </trkpt>
      <trkpt lat="44.64484" lon="5.19913">
        <ele>1498</ele>
        <time>2026-05-25T11:56:32.000Z</time>
      </trkpt>
      <trkpt lat="44.64484" lon="5.19912">
        <ele>1498</ele>
        <time>2026-05-25T11:56:33.000Z</time>
      </trkpt>
      <trkpt lat="44.64483" lon="5.19911">
        <ele>1498</ele>
        <time>2026-05-25T11:56:34.000Z</time>
      </trkpt>
      <trkpt lat="44.64482" lon="5.1991">
        <ele>1497</ele>
        <time>2026-05-25T11:56:35.000Z</time>
      </trkpt>
      <trkpt lat="44.64481" lon="5.19909">
        <ele>1497</ele>
        <time>2026-05-25T11:56:36.000Z</time>
      </trkpt>
      <trkpt lat="44.6448" lon="5.19908">
        <ele>1498</ele>
        <time>2026-05-25T11:56:37.000Z</time>
      </trkpt>
      <trkpt lat="44.6448" lon="5.19907">
        <ele>1499</ele>
        <time>2026-05-25T11:56:38.000Z</time>
      </trkpt>
      <trkpt lat="44.64479" lon="5.19906">
        <ele>1499</ele>
        <time>2026-05-25T11:56:39.000Z</time>
      </trkpt>
      <trkpt lat="44.64478" lon="5.19906">
        <ele>1499</ele>
        <time>2026-05-25T11:56:40.000Z</time>
      </trkpt>
      <trkpt lat="44.64477" lon="5.19905">
        <ele>1498</ele>
        <time>2026-05-25T11:56:41.000Z</time>
      </trkpt>
      <trkpt lat="44.64477" lon="5.19903">
        <ele>1498</ele>
        <time>2026-05-25T11:56:42.000Z</time>
      </trkpt>
      <trkpt lat="44.64476" lon="5.19902">
        <ele>1498</ele>
        <time>2026-05-25T11:56:43.000Z</time>
      </trkpt>
      <trkpt lat="44.64476" lon="5.19901">
        <ele>1497</ele>
        <time>2026-05-25T11:56:44.000Z</time>
      </trkpt>
      <trkpt lat="44.64476" lon="5.199">
        <ele>1497</ele>
        <time>2026-05-25T11:56:45.000Z</time>
      </trkpt>
      <trkpt lat="44.64475" lon="5.19898">
        <ele>1496</ele>
        <time>2026-05-25T11:56:46.000Z</time>
      </trkpt>
      <trkpt lat="44.64474" lon="5.19897">
        <ele>1496</ele>
        <time>2026-05-25T11:56:47.000Z</time>
      </trkpt>
      <trkpt lat="44.64474" lon="5.19896">
        <ele>1496</ele>
        <time>2026-05-25T11:56:48.000Z</time>
      </trkpt>
      <trkpt lat="44.64474" lon="5.19895">
        <ele>1496</ele>
        <time>2026-05-25T11:56:49.000Z</time>
      </trkpt>
      <trkpt lat="44.64473" lon="5.19893">
        <ele>1496</ele>
        <time>2026-05-25T11:56:50.000Z</time>
      </trkpt>
      <trkpt lat="44.64473" lon="5.19891">
        <ele>1496</ele>
        <time>2026-05-25T11:56:51.000Z</time>
      </trkpt>
      <trkpt lat="44.64473" lon="5.1989">
        <ele>1496</ele>
        <time>2026-05-25T11:56:52.000Z</time>
      </trkpt>
      <trkpt lat="44.64473" lon="5.19889">
        <ele>1496</ele>
        <time>2026-05-25T11:56:53.000Z</time>
      </trkpt>
      <trkpt lat="44.64472" lon="5.19888">
        <ele>1496</ele>
        <time>2026-05-25T11:56:54.000Z</time>
      </trkpt>
      <trkpt lat="44.64472" lon="5.19887">
        <ele>1495</ele>
        <time>2026-05-25T11:56:55.000Z</time>
      </trkpt>
      <trkpt lat="44.64471" lon="5.19887">
        <ele>1494</ele>
        <time>2026-05-25T11:56:56.000Z</time>
      </trkpt>
      <trkpt lat="44.64471" lon="5.19886">
        <ele>1494</ele>
        <time>2026-05-25T11:56:57.000Z</time>
      </trkpt>
      <trkpt lat="44.64471" lon="5.19884">
        <ele>1493</ele>
        <time>2026-05-25T11:56:58.000Z</time>
      </trkpt>
      <trkpt lat="44.64471" lon="5.19882">
        <ele>1492</ele>
        <time>2026-05-25T11:56:59.000Z</time>
      </trkpt>
      <trkpt lat="44.64471" lon="5.1988">
        <ele>1491</ele>
        <time>2026-05-25T11:57:00.000Z</time>
      </trkpt>
      <trkpt lat="44.64471" lon="5.19879">
        <ele>1491</ele>
        <time>2026-05-25T11:57:01.000Z</time>
      </trkpt>
      <trkpt lat="44.64471" lon="5.19877">
        <ele>1491</ele>
        <time>2026-05-25T11:57:02.000Z</time>
      </trkpt>
      <trkpt lat="44.64471" lon="5.19875">
        <ele>1490</ele>
        <time>2026-05-25T11:57:03.000Z</time>
      </trkpt>
      <trkpt lat="44.64471" lon="5.19873">
        <ele>1490</ele>
        <time>2026-05-25T11:57:04.000Z</time>
      </trkpt>
      <trkpt lat="44.64471" lon="5.19872">
        <ele>1489</ele>
        <time>2026-05-25T11:57:05.000Z</time>
      </trkpt>
      <trkpt lat="44.64471" lon="5.1987">
        <ele>1489</ele>
        <time>2026-05-25T11:57:06.000Z</time>
      </trkpt>
      <trkpt lat="44.6447" lon="5.19868">
        <ele>1489</ele>
        <time>2026-05-25T11:57:07.000Z</time>
      </trkpt>
      <trkpt lat="44.6447" lon="5.19867">
        <ele>1488</ele>
        <time>2026-05-25T11:57:08.000Z</time>
      </trkpt>
      <trkpt lat="44.6447" lon="5.19865">
        <ele>1488</ele>
        <time>2026-05-25T11:57:09.000Z</time>
      </trkpt>
      <trkpt lat="44.64469" lon="5.19864">
        <ele>1488</ele>
        <time>2026-05-25T11:57:10.000Z</time>
      </trkpt>
      <trkpt lat="44.64469" lon="5.19862">
        <ele>1487</ele>
        <time>2026-05-25T11:57:11.000Z</time>
      </trkpt>
      <trkpt lat="44.64468" lon="5.19861">
        <ele>1486</ele>
        <time>2026-05-25T11:57:12.000Z</time>
      </trkpt>
      <trkpt lat="44.64467" lon="5.19859">
        <ele>1486</ele>
        <time>2026-05-25T11:57:13.000Z</time>
      </trkpt>
      <trkpt lat="44.64467" lon="5.19858">
        <ele>1485</ele>
        <time>2026-05-25T11:57:14.000Z</time>
      </trkpt>
      <trkpt lat="44.64468" lon="5.19857">
        <ele>1485</ele>
        <time>2026-05-25T11:57:15.000Z</time>
      </trkpt>
      <trkpt lat="44.64468" lon="5.19855">
        <ele>1485</ele>
        <time>2026-05-25T11:57:16.000Z</time>
      </trkpt>
      <trkpt lat="44.64468" lon="5.19854">
        <ele>1486</ele>
        <time>2026-05-25T11:57:17.000Z</time>
      </trkpt>
      <trkpt lat="44.64468" lon="5.19852">
        <ele>1485</ele>
        <time>2026-05-25T11:57:18.000Z</time>
      </trkpt>
      <trkpt lat="44.64467" lon="5.19851">
        <ele>1485</ele>
        <time>2026-05-25T11:57:19.000Z</time>
      </trkpt>
      <trkpt lat="44.64467" lon="5.19849">
        <ele>1485</ele>
        <time>2026-05-25T11:57:20.000Z</time>
      </trkpt>
      <trkpt lat="44.64467" lon="5.19848">
        <ele>1485</ele>
        <time>2026-05-25T11:57:21.000Z</time>
      </trkpt>
      <trkpt lat="44.64467" lon="5.19846">
        <ele>1484</ele>
        <time>2026-05-25T11:57:22.000Z</time>
      </trkpt>
      <trkpt lat="44.64467" lon="5.19844">
        <ele>1484</ele>
        <time>2026-05-25T11:57:23.000Z</time>
      </trkpt>
      <trkpt lat="44.64467" lon="5.19842">
        <ele>1484</ele>
        <time>2026-05-25T11:57:24.000Z</time>
      </trkpt>
      <trkpt lat="44.64467" lon="5.19841">
        <ele>1484</ele>
        <time>2026-05-25T11:57:25.000Z</time>
      </trkpt>
      <trkpt lat="44.64467" lon="5.19839">
        <ele>1483</ele>
        <time>2026-05-25T11:57:26.000Z</time>
      </trkpt>
      <trkpt lat="44.64466" lon="5.19837">
        <ele>1483</ele>
        <time>2026-05-25T11:57:27.000Z</time>
      </trkpt>
      <trkpt lat="44.64466" lon="5.19836">
        <ele>1483</ele>
        <time>2026-05-25T11:57:28.000Z</time>
      </trkpt>
      <trkpt lat="44.64466" lon="5.19834">
        <ele>1483</ele>
        <time>2026-05-25T11:57:29.000Z</time>
      </trkpt>
      <trkpt lat="44.64467" lon="5.19832">
        <ele>1483</ele>
        <time>2026-05-25T11:57:30.000Z</time>
      </trkpt>
      <trkpt lat="44.64467" lon="5.19831">
        <ele>1482</ele>
        <time>2026-05-25T11:57:31.000Z</time>
      </trkpt>
      <trkpt lat="44.64467" lon="5.19829">
        <ele>1482</ele>
        <time>2026-05-25T11:57:32.000Z</time>
      </trkpt>
      <trkpt lat="44.64467" lon="5.19828">
        <ele>1482</ele>
        <time>2026-05-25T11:57:33.000Z</time>
      </trkpt>
      <trkpt lat="44.64467" lon="5.19826">
        <ele>1482</ele>
        <time>2026-05-25T11:57:34.000Z</time>
      </trkpt>
      <trkpt lat="44.64467" lon="5.19825">
        <ele>1482</ele>
        <time>2026-05-25T11:57:35.000Z</time>
      </trkpt>
      <trkpt lat="44.64467" lon="5.19823">
        <ele>1481</ele>
        <time>2026-05-25T11:57:36.000Z</time>
      </trkpt>
      <trkpt lat="44.64467" lon="5.19821">
        <ele>1481</ele>
        <time>2026-05-25T11:57:37.000Z</time>
      </trkpt>
      <trkpt lat="44.64467" lon="5.19819">
        <ele>1480</ele>
        <time>2026-05-25T11:57:38.000Z</time>
      </trkpt>
      <trkpt lat="44.64467" lon="5.19818">
        <ele>1480</ele>
        <time>2026-05-25T11:57:39.000Z</time>
      </trkpt>
      <trkpt lat="44.64467" lon="5.19816">
        <ele>1480</ele>
        <time>2026-05-25T11:57:40.000Z</time>
      </trkpt>
      <trkpt lat="44.64468" lon="5.19815">
        <ele>1479</ele>
        <time>2026-05-25T11:57:41.000Z</time>
      </trkpt>
      <trkpt lat="44.64468" lon="5.19813">
        <ele>1480</ele>
        <time>2026-05-25T11:57:42.000Z</time>
      </trkpt>
      <trkpt lat="44.64468" lon="5.19812">
        <ele>1479</ele>
        <time>2026-05-25T11:57:43.000Z</time>
      </trkpt>
      <trkpt lat="44.64468" lon="5.1981">
        <ele>1478</ele>
        <time>2026-05-25T11:57:44.000Z</time>
      </trkpt>
      <trkpt lat="44.64468" lon="5.19809">
        <ele>1478</ele>
        <time>2026-05-25T11:57:45.000Z</time>
      </trkpt>
      <trkpt lat="44.64468" lon="5.19807">
        <ele>1477</ele>
        <time>2026-05-25T11:57:46.000Z</time>
      </trkpt>
      <trkpt lat="44.64468" lon="5.19805">
        <ele>1477</ele>
        <time>2026-05-25T11:57:47.000Z</time>
      </trkpt>
      <trkpt lat="44.64468" lon="5.19803">
        <ele>1476</ele>
        <time>2026-05-25T11:57:48.000Z</time>
      </trkpt>
      <trkpt lat="44.64468" lon="5.19802">
        <ele>1477</ele>
        <time>2026-05-25T11:57:49.000Z</time>
      </trkpt>
      <trkpt lat="44.64468" lon="5.198">
        <ele>1477</ele>
        <time>2026-05-25T11:57:50.000Z</time>
      </trkpt>
      <trkpt lat="44.64467" lon="5.19799">
        <ele>1477</ele>
        <time>2026-05-25T11:57:51.000Z</time>
      </trkpt>
      <trkpt lat="44.64467" lon="5.19797">
        <ele>1476</ele>
        <time>2026-05-25T11:57:52.000Z</time>
      </trkpt>
      <trkpt lat="44.64467" lon="5.19796">
        <ele>1476</ele>
        <time>2026-05-25T11:57:53.000Z</time>
      </trkpt>
      <trkpt lat="44.64467" lon="5.19795">
        <ele>1476</ele>
        <time>2026-05-25T11:57:54.000Z</time>
      </trkpt>
      <trkpt lat="44.64466" lon="5.19793">
        <ele>1476</ele>
        <time>2026-05-25T11:57:55.000Z</time>
      </trkpt>
      <trkpt lat="44.64466" lon="5.19792">
        <ele>1476</ele>
        <time>2026-05-25T11:57:56.000Z</time>
      </trkpt>
      <trkpt lat="44.64466" lon="5.1979">
        <ele>1475</ele>
        <time>2026-05-25T11:57:57.000Z</time>
      </trkpt>
      <trkpt lat="44.64466" lon="5.19788">
        <ele>1475</ele>
        <time>2026-05-25T11:57:58.000Z</time>
      </trkpt>
      <trkpt lat="44.64465" lon="5.19787">
        <ele>1474</ele>
        <time>2026-05-25T11:57:59.000Z</time>
      </trkpt>
      <trkpt lat="44.64465" lon="5.19785">
        <ele>1474</ele>
        <time>2026-05-25T11:58:00.000Z</time>
      </trkpt>
      <trkpt lat="44.64465" lon="5.19783">
        <ele>1474</ele>
        <time>2026-05-25T11:58:01.000Z</time>
      </trkpt>
      <trkpt lat="44.64464" lon="5.19782">
        <ele>1474</ele>
        <time>2026-05-25T11:58:02.000Z</time>
      </trkpt>
      <trkpt lat="44.64464" lon="5.1978">
        <ele>1473</ele>
        <time>2026-05-25T11:58:03.000Z</time>
      </trkpt>
      <trkpt lat="44.64464" lon="5.19778">
        <ele>1473</ele>
        <time>2026-05-25T11:58:04.000Z</time>
      </trkpt>
      <trkpt lat="44.64463" lon="5.19777">
        <ele>1473</ele>
        <time>2026-05-25T11:58:05.000Z</time>
      </trkpt>
      <trkpt lat="44.64463" lon="5.19776">
        <ele>1473</ele>
        <time>2026-05-25T11:58:06.000Z</time>
      </trkpt>
      <trkpt lat="44.64463" lon="5.19774">
        <ele>1472</ele>
        <time>2026-05-25T11:58:07.000Z</time>
      </trkpt>
      <trkpt lat="44.64463" lon="5.19772">
        <ele>1472</ele>
        <time>2026-05-25T11:58:08.000Z</time>
      </trkpt>
      <trkpt lat="44.64462" lon="5.1977">
        <ele>1471</ele>
        <time>2026-05-25T11:58:09.000Z</time>
      </trkpt>
      <trkpt lat="44.64462" lon="5.19768">
        <ele>1471</ele>
        <time>2026-05-25T11:58:10.000Z</time>
      </trkpt>
      <trkpt lat="44.64461" lon="5.19767">
        <ele>1471</ele>
        <time>2026-05-25T11:58:11.000Z</time>
      </trkpt>
      <trkpt lat="44.64461" lon="5.19766">
        <ele>1470</ele>
        <time>2026-05-25T11:58:12.000Z</time>
      </trkpt>
      <trkpt lat="44.64461" lon="5.19765">
        <ele>1470</ele>
        <time>2026-05-25T11:58:13.000Z</time>
      </trkpt>
      <trkpt lat="44.6446" lon="5.19763">
        <ele>1469</ele>
        <time>2026-05-25T11:58:14.000Z</time>
      </trkpt>
      <trkpt lat="44.6446" lon="5.19761">
        <ele>1469</ele>
        <time>2026-05-25T11:58:15.000Z</time>
      </trkpt>
      <trkpt lat="44.6446" lon="5.1976">
        <ele>1468</ele>
        <time>2026-05-25T11:58:16.000Z</time>
      </trkpt>
      <trkpt lat="44.6446" lon="5.19758">
        <ele>1467</ele>
        <time>2026-05-25T11:58:17.000Z</time>
      </trkpt>
      <trkpt lat="44.64461" lon="5.19756">
        <ele>1466</ele>
        <time>2026-05-25T11:58:18.000Z</time>
      </trkpt>
      <trkpt lat="44.64461" lon="5.19754">
        <ele>1466</ele>
        <time>2026-05-25T11:58:19.000Z</time>
      </trkpt>
      <trkpt lat="44.64461" lon="5.19753">
        <ele>1466</ele>
        <time>2026-05-25T11:58:20.000Z</time>
      </trkpt>
      <trkpt lat="44.6446" lon="5.19751">
        <ele>1465</ele>
        <time>2026-05-25T11:58:21.000Z</time>
      </trkpt>
      <trkpt lat="44.6446" lon="5.1975">
        <ele>1465</ele>
        <time>2026-05-25T11:58:22.000Z</time>
      </trkpt>
      <trkpt lat="44.64461" lon="5.19749">
        <ele>1466</ele>
        <time>2026-05-25T11:58:23.000Z</time>
      </trkpt>
      <trkpt lat="44.6446" lon="5.19748">
        <ele>1466</ele>
        <time>2026-05-25T11:58:24.000Z</time>
      </trkpt>
      <trkpt lat="44.64461" lon="5.19748">
        <ele>1465</ele>
        <time>2026-05-25T11:58:25.000Z</time>
      </trkpt>
      <trkpt lat="44.6446" lon="5.19747">
        <ele>1465</ele>
        <time>2026-05-25T11:58:26.000Z</time>
      </trkpt>
      <trkpt lat="44.64461" lon="5.19746">
        <ele>1465</ele>
        <time>2026-05-25T11:58:27.000Z</time>
      </trkpt>
      <trkpt lat="44.64461" lon="5.19745">
        <ele>1465</ele>
        <time>2026-05-25T11:58:28.000Z</time>
      </trkpt>
      <trkpt lat="44.64461" lon="5.19743">
        <ele>1466</ele>
        <time>2026-05-25T11:58:29.000Z</time>
      </trkpt>
      <trkpt lat="44.64461" lon="5.19742">
        <ele>1465</ele>
        <time>2026-05-25T11:58:30.000Z</time>
      </trkpt>
      <trkpt lat="44.64462" lon="5.1974">
        <ele>1465</ele>
        <time>2026-05-25T11:58:31.000Z</time>
      </trkpt>
      <trkpt lat="44.64462" lon="5.19739">
        <ele>1465</ele>
        <time>2026-05-25T11:58:32.000Z</time>
      </trkpt>
      <trkpt lat="44.64463" lon="5.19737">
        <ele>1465</ele>
        <time>2026-05-25T11:58:33.000Z</time>
      </trkpt>
      <trkpt lat="44.64462" lon="5.19736">
        <ele>1465</ele>
        <time>2026-05-25T11:58:34.000Z</time>
      </trkpt>
      <trkpt lat="44.64462" lon="5.19735">
        <ele>1465</ele>
        <time>2026-05-25T11:58:35.000Z</time>
      </trkpt>
      <trkpt lat="44.64462" lon="5.19734">
        <ele>1463</ele>
        <time>2026-05-25T11:58:36.000Z</time>
      </trkpt>
      <trkpt lat="44.64461" lon="5.19732">
        <ele>1463</ele>
        <time>2026-05-25T11:58:37.000Z</time>
      </trkpt>
      <trkpt lat="44.64461" lon="5.19731">
        <ele>1463</ele>
        <time>2026-05-25T11:58:38.000Z</time>
      </trkpt>
      <trkpt lat="44.64461" lon="5.19729">
        <ele>1463</ele>
        <time>2026-05-25T11:58:39.000Z</time>
      </trkpt>
      <trkpt lat="44.64461" lon="5.19728">
        <ele>1462</ele>
        <time>2026-05-25T11:58:40.000Z</time>
      </trkpt>
      <trkpt lat="44.64462" lon="5.19727">
        <ele>1462</ele>
        <time>2026-05-25T11:58:41.000Z</time>
      </trkpt>
      <trkpt lat="44.64462" lon="5.19725">
        <ele>1463</ele>
        <time>2026-05-25T11:58:42.000Z</time>
      </trkpt>
      <trkpt lat="44.64462" lon="5.19723">
        <ele>1463</ele>
        <time>2026-05-25T11:58:43.000Z</time>
      </trkpt>
      <trkpt lat="44.64463" lon="5.19722">
        <ele>1463</ele>
        <time>2026-05-25T11:58:44.000Z</time>
      </trkpt>
      <trkpt lat="44.64463" lon="5.1972">
        <ele>1463</ele>
        <time>2026-05-25T11:58:45.000Z</time>
      </trkpt>
      <trkpt lat="44.64463" lon="5.19719">
        <ele>1463</ele>
        <time>2026-05-25T11:58:46.000Z</time>
      </trkpt>
      <trkpt lat="44.64463" lon="5.19718">
        <ele>1463</ele>
        <time>2026-05-25T11:58:47.000Z</time>
      </trkpt>
      <trkpt lat="44.64462" lon="5.19716">
        <ele>1463</ele>
        <time>2026-05-25T11:58:48.000Z</time>
      </trkpt>
      <trkpt lat="44.64462" lon="5.19715">
        <ele>1462</ele>
        <time>2026-05-25T11:58:49.000Z</time>
      </trkpt>
      <trkpt lat="44.64463" lon="5.19714">
        <ele>1462</ele>
        <time>2026-05-25T11:58:50.000Z</time>
      </trkpt>
      <trkpt lat="44.64464" lon="5.19713">
        <ele>1462</ele>
        <time>2026-05-25T11:58:51.000Z</time>
      </trkpt>
      <trkpt lat="44.64465" lon="5.19711">
        <ele>1462</ele>
        <time>2026-05-25T11:58:52.000Z</time>
      </trkpt>
      <trkpt lat="44.64465" lon="5.1971">
        <ele>1462</ele>
        <time>2026-05-25T11:58:53.000Z</time>
      </trkpt>
      <trkpt lat="44.64465" lon="5.1971">
        <ele>1463</ele>
        <time>2026-05-25T11:58:54.000Z</time>
      </trkpt>
      <trkpt lat="44.64464" lon="5.19711">
        <ele>1463</ele>
        <time>2026-05-25T11:58:55.000Z</time>
      </trkpt>
      <trkpt lat="44.64464" lon="5.19711">
        <ele>1462</ele>
        <time>2026-05-25T11:58:56.000Z</time>
      </trkpt>
      <trkpt lat="44.64464" lon="5.19712">
        <ele>1461</ele>
        <time>2026-05-25T11:58:57.000Z</time>
      </trkpt>
      <trkpt lat="44.64464" lon="5.1971">
        <ele>1460</ele>
        <time>2026-05-25T11:58:58.000Z</time>
      </trkpt>
      <trkpt lat="44.64465" lon="5.19709">
        <ele>1459</ele>
        <time>2026-05-25T11:58:59.000Z</time>
      </trkpt>
      <trkpt lat="44.64465" lon="5.19707">
        <ele>1459</ele>
        <time>2026-05-25T11:59:00.000Z</time>
      </trkpt>
      <trkpt lat="44.64465" lon="5.19706">
        <ele>1460</ele>
        <time>2026-05-25T11:59:01.000Z</time>
      </trkpt>
      <trkpt lat="44.64466" lon="5.19705">
        <ele>1459</ele>
        <time>2026-05-25T11:59:02.000Z</time>
      </trkpt>
      <trkpt lat="44.64466" lon="5.19703">
        <ele>1459</ele>
        <time>2026-05-25T11:59:03.000Z</time>
      </trkpt>
      <trkpt lat="44.64466" lon="5.19702">
        <ele>1458</ele>
        <time>2026-05-25T11:59:04.000Z</time>
      </trkpt>
      <trkpt lat="44.64467" lon="5.197">
        <ele>1458</ele>
        <time>2026-05-25T11:59:05.000Z</time>
      </trkpt>
      <trkpt lat="44.64467" lon="5.19699">
        <ele>1458</ele>
        <time>2026-05-25T11:59:06.000Z</time>
      </trkpt>
      <trkpt lat="44.64468" lon="5.19697">
        <ele>1457</ele>
        <time>2026-05-25T11:59:07.000Z</time>
      </trkpt>
      <trkpt lat="44.64468" lon="5.19696">
        <ele>1457</ele>
        <time>2026-05-25T11:59:08.000Z</time>
      </trkpt>
      <trkpt lat="44.64469" lon="5.19695">
        <ele>1457</ele>
        <time>2026-05-25T11:59:09.000Z</time>
      </trkpt>
      <trkpt lat="44.6447" lon="5.19694">
        <ele>1457</ele>
        <time>2026-05-25T11:59:10.000Z</time>
      </trkpt>
      <trkpt lat="44.64472" lon="5.19692">
        <ele>1459</ele>
        <time>2026-05-25T11:59:11.000Z</time>
      </trkpt>
      <trkpt lat="44.64473" lon="5.19691">
        <ele>1458</ele>
        <time>2026-05-25T11:59:12.000Z</time>
      </trkpt>
      <trkpt lat="44.64474" lon="5.19689">
        <ele>1459</ele>
        <time>2026-05-25T11:59:13.000Z</time>
      </trkpt>
      <trkpt lat="44.64475" lon="5.19688">
        <ele>1458</ele>
        <time>2026-05-25T11:59:14.000Z</time>
      </trkpt>
      <trkpt lat="44.64476" lon="5.19687">
        <ele>1458</ele>
        <time>2026-05-25T11:59:15.000Z</time>
      </trkpt>
      <trkpt lat="44.64477" lon="5.19685">
        <ele>1457</ele>
        <time>2026-05-25T11:59:16.000Z</time>
      </trkpt>
      <trkpt lat="44.64478" lon="5.19683">
        <ele>1457</ele>
        <time>2026-05-25T11:59:17.000Z</time>
      </trkpt>
      <trkpt lat="44.64478" lon="5.19682">
        <ele>1457</ele>
        <time>2026-05-25T11:59:18.000Z</time>
      </trkpt>
      <trkpt lat="44.64479" lon="5.1968">
        <ele>1458</ele>
        <time>2026-05-25T11:59:19.000Z</time>
      </trkpt>
      <trkpt lat="44.64479" lon="5.19678">
        <ele>1458</ele>
        <time>2026-05-25T11:59:20.000Z</time>
      </trkpt>
      <trkpt lat="44.6448" lon="5.19674">
        <ele>1457</ele>
        <time>2026-05-25T11:59:21.000Z</time>
      </trkpt>
      <trkpt lat="44.6448" lon="5.19669">
        <ele>1456</ele>
        <time>2026-05-25T11:59:22.000Z</time>
      </trkpt>
      <trkpt lat="44.6448" lon="5.19663">
        <ele>1456</ele>
        <time>2026-05-25T11:59:23.000Z</time>
      </trkpt>
      <trkpt lat="44.64479" lon="5.19661">
        <ele>1455</ele>
        <time>2026-05-25T11:59:24.000Z</time>
      </trkpt>
      <trkpt lat="44.64479" lon="5.19659">
        <ele>1455</ele>
        <time>2026-05-25T11:59:25.000Z</time>
      </trkpt>
      <trkpt lat="44.64479" lon="5.19657">
        <ele>1455</ele>
        <time>2026-05-25T11:59:26.000Z</time>
      </trkpt>
      <trkpt lat="44.64478" lon="5.19654">
        <ele>1453</ele>
        <time>2026-05-25T11:59:27.000Z</time>
      </trkpt>
      <trkpt lat="44.64478" lon="5.19652">
        <ele>1452</ele>
        <time>2026-05-25T11:59:28.000Z</time>
      </trkpt>
      <trkpt lat="44.64478" lon="5.1965">
        <ele>1452</ele>
        <time>2026-05-25T11:59:29.000Z</time>
      </trkpt>
      <trkpt lat="44.64478" lon="5.19649">
        <ele>1453</ele>
        <time>2026-05-25T11:59:30.000Z</time>
      </trkpt>
      <trkpt lat="44.64478" lon="5.19648">
        <ele>1453</ele>
        <time>2026-05-25T11:59:31.000Z</time>
      </trkpt>
      <trkpt lat="44.64478" lon="5.19647">
        <ele>1452</ele>
        <time>2026-05-25T11:59:32.000Z</time>
      </trkpt>
      <trkpt lat="44.64479" lon="5.19646">
        <ele>1451</ele>
        <time>2026-05-25T11:59:33.000Z</time>
      </trkpt>
      <trkpt lat="44.64479" lon="5.19645">
        <ele>1451</ele>
        <time>2026-05-25T11:59:34.000Z</time>
      </trkpt>
      <trkpt lat="44.64479" lon="5.19643">
        <ele>1451</ele>
        <time>2026-05-25T11:59:35.000Z</time>
      </trkpt>
      <trkpt lat="44.64479" lon="5.19642">
        <ele>1451</ele>
        <time>2026-05-25T11:59:36.000Z</time>
      </trkpt>
      <trkpt lat="44.64479" lon="5.1964">
        <ele>1451</ele>
        <time>2026-05-25T11:59:37.000Z</time>
      </trkpt>
      <trkpt lat="44.6448" lon="5.19639">
        <ele>1450</ele>
        <time>2026-05-25T11:59:38.000Z</time>
      </trkpt>
      <trkpt lat="44.6448" lon="5.19637">
        <ele>1450</ele>
        <time>2026-05-25T11:59:39.000Z</time>
      </trkpt>
      <trkpt lat="44.6448" lon="5.19635">
        <ele>1449</ele>
        <time>2026-05-25T11:59:40.000Z</time>
      </trkpt>
      <trkpt lat="44.6448" lon="5.19634">
        <ele>1447</ele>
        <time>2026-05-25T11:59:41.000Z</time>
      </trkpt>
      <trkpt lat="44.64481" lon="5.19633">
        <ele>1447</ele>
        <time>2026-05-25T11:59:42.000Z</time>
      </trkpt>
      <trkpt lat="44.64482" lon="5.19632">
        <ele>1448</ele>
        <time>2026-05-25T11:59:43.000Z</time>
      </trkpt>
      <trkpt lat="44.64482" lon="5.1963">
        <ele>1448</ele>
        <time>2026-05-25T11:59:44.000Z</time>
      </trkpt>
      <trkpt lat="44.64481" lon="5.19628">
        <ele>1447</ele>
        <time>2026-05-25T11:59:45.000Z</time>
      </trkpt>
      <trkpt lat="44.64482" lon="5.19625">
        <ele>1447</ele>
        <time>2026-05-25T11:59:46.000Z</time>
      </trkpt>
      <trkpt lat="44.64482" lon="5.19622">
        <ele>1446</ele>
        <time>2026-05-25T11:59:47.000Z</time>
      </trkpt>
      <trkpt lat="44.64482" lon="5.19622">
        <ele>1445</ele>
        <time>2026-05-25T11:59:48.000Z</time>
      </trkpt>
      <trkpt lat="44.64482" lon="5.1962">
        <ele>1444</ele>
        <time>2026-05-25T11:59:49.000Z</time>
      </trkpt>
      <trkpt lat="44.64482" lon="5.19618">
        <ele>1445</ele>
        <time>2026-05-25T11:59:50.000Z</time>
      </trkpt>
      <trkpt lat="44.64482" lon="5.19617">
        <ele>1446</ele>
        <time>2026-05-25T11:59:51.000Z</time>
      </trkpt>
      <trkpt lat="44.64483" lon="5.19616">
        <ele>1445</ele>
        <time>2026-05-25T11:59:52.000Z</time>
      </trkpt>
      <trkpt lat="44.64483" lon="5.19614">
        <ele>1446</ele>
        <time>2026-05-25T11:59:53.000Z</time>
      </trkpt>
      <trkpt lat="44.64483" lon="5.19613">
        <ele>1445</ele>
        <time>2026-05-25T11:59:54.000Z</time>
      </trkpt>
      <trkpt lat="44.64484" lon="5.19611">
        <ele>1445</ele>
        <time>2026-05-25T11:59:55.000Z</time>
      </trkpt>
      <trkpt lat="44.64485" lon="5.19609">
        <ele>1446</ele>
        <time>2026-05-25T11:59:56.000Z</time>
      </trkpt>
      <trkpt lat="44.64486" lon="5.19607">
        <ele>1446</ele>
        <time>2026-05-25T11:59:57.000Z</time>
      </trkpt>
      <trkpt lat="44.64486" lon="5.19605">
        <ele>1445</ele>
        <time>2026-05-25T11:59:58.000Z</time>
      </trkpt>
      <trkpt lat="44.64487" lon="5.19604">
        <ele>1445</ele>
        <time>2026-05-25T11:59:59.000Z</time>
      </trkpt>
      <trkpt lat="44.64487" lon="5.19603">
        <ele>1445</ele>
        <time>2026-05-25T12:00:00.000Z</time>
      </trkpt>
      <trkpt lat="44.64488" lon="5.19602">
        <ele>1444</ele>
        <time>2026-05-25T12:00:01.000Z</time>
      </trkpt>
      <trkpt lat="44.64488" lon="5.19598">
        <ele>1443</ele>
        <time>2026-05-25T12:00:02.000Z</time>
      </trkpt>
      <trkpt lat="44.64488" lon="5.19596">
        <ele>1443</ele>
        <time>2026-05-25T12:00:03.000Z</time>
      </trkpt>
      <trkpt lat="44.64488" lon="5.19595">
        <ele>1443</ele>
        <time>2026-05-25T12:00:04.000Z</time>
      </trkpt>
      <trkpt lat="44.64487" lon="5.19594">
        <ele>1442</ele>
        <time>2026-05-25T12:00:05.000Z</time>
      </trkpt>
      <trkpt lat="44.64487" lon="5.19593">
        <ele>1443</ele>
        <time>2026-05-25T12:00:06.000Z</time>
      </trkpt>
      <trkpt lat="44.64487" lon="5.19592">
        <ele>1444</ele>
        <time>2026-05-25T12:00:07.000Z</time>
      </trkpt>
      <trkpt lat="44.64488" lon="5.19591">
        <ele>1444</ele>
        <time>2026-05-25T12:00:08.000Z</time>
      </trkpt>
      <trkpt lat="44.64488" lon="5.19589">
        <ele>1444</ele>
        <time>2026-05-25T12:00:09.000Z</time>
      </trkpt>
      <trkpt lat="44.64488" lon="5.19588">
        <ele>1442</ele>
        <time>2026-05-25T12:00:10.000Z</time>
      </trkpt>
      <trkpt lat="44.64487" lon="5.19587">
        <ele>1442</ele>
        <time>2026-05-25T12:00:11.000Z</time>
      </trkpt>
      <trkpt lat="44.64487" lon="5.19585">
        <ele>1442</ele>
        <time>2026-05-25T12:00:12.000Z</time>
      </trkpt>
      <trkpt lat="44.64487" lon="5.19583">
        <ele>1442</ele>
        <time>2026-05-25T12:00:13.000Z</time>
      </trkpt>
      <trkpt lat="44.64487" lon="5.1958">
        <ele>1441</ele>
        <time>2026-05-25T12:00:14.000Z</time>
      </trkpt>
      <trkpt lat="44.64487" lon="5.19579">
        <ele>1441</ele>
        <time>2026-05-25T12:00:15.000Z</time>
      </trkpt>
      <trkpt lat="44.64487" lon="5.19576">
        <ele>1440</ele>
        <time>2026-05-25T12:00:16.000Z</time>
      </trkpt>
      <trkpt lat="44.64488" lon="5.19574">
        <ele>1439</ele>
        <time>2026-05-25T12:00:17.000Z</time>
      </trkpt>
      <trkpt lat="44.64489" lon="5.19573">
        <ele>1439</ele>
        <time>2026-05-25T12:00:18.000Z</time>
      </trkpt>
      <trkpt lat="44.64489" lon="5.19571">
        <ele>1438</ele>
        <time>2026-05-25T12:00:19.000Z</time>
      </trkpt>
      <trkpt lat="44.64489" lon="5.19568">
        <ele>1437</ele>
        <time>2026-05-25T12:00:20.000Z</time>
      </trkpt>
      <trkpt lat="44.64489" lon="5.19568">
        <ele>1437</ele>
        <time>2026-05-25T12:00:21.000Z</time>
      </trkpt>
      <trkpt lat="44.6449" lon="5.19567">
        <ele>1437</ele>
        <time>2026-05-25T12:00:22.000Z</time>
      </trkpt>
      <trkpt lat="44.6449" lon="5.19566">
        <ele>1437</ele>
        <time>2026-05-25T12:00:23.000Z</time>
      </trkpt>
      <trkpt lat="44.64491" lon="5.19565">
        <ele>1437</ele>
        <time>2026-05-25T12:00:24.000Z</time>
      </trkpt>
      <trkpt lat="44.64491" lon="5.19565">
        <ele>1437</ele>
        <time>2026-05-25T12:00:25.000Z</time>
      </trkpt>
      <trkpt lat="44.64492" lon="5.19565">
        <ele>1437</ele>
        <time>2026-05-25T12:00:26.000Z</time>
      </trkpt>
      <trkpt lat="44.64493" lon="5.19563">
        <ele>1437</ele>
        <time>2026-05-25T12:00:27.000Z</time>
      </trkpt>
      <trkpt lat="44.64493" lon="5.19563">
        <ele>1436</ele>
        <time>2026-05-25T12:00:28.000Z</time>
      </trkpt>
      <trkpt lat="44.64494" lon="5.19562">
        <ele>1435</ele>
        <time>2026-05-25T12:00:29.000Z</time>
      </trkpt>
      <trkpt lat="44.64494" lon="5.19561">
        <ele>1434</ele>
        <time>2026-05-25T12:00:30.000Z</time>
      </trkpt>
      <trkpt lat="44.64495" lon="5.19559">
        <ele>1433</ele>
        <time>2026-05-25T12:00:31.000Z</time>
      </trkpt>
      <trkpt lat="44.64495" lon="5.19557">
        <ele>1433</ele>
        <time>2026-05-25T12:00:32.000Z</time>
      </trkpt>
      <trkpt lat="44.64496" lon="5.19555">
        <ele>1433</ele>
        <time>2026-05-25T12:00:33.000Z</time>
      </trkpt>
      <trkpt lat="44.64496" lon="5.19553">
        <ele>1433</ele>
        <time>2026-05-25T12:00:34.000Z</time>
      </trkpt>
      <trkpt lat="44.64496" lon="5.1955">
        <ele>1432</ele>
        <time>2026-05-25T12:00:35.000Z</time>
      </trkpt>
      <trkpt lat="44.64496" lon="5.19549">
        <ele>1432</ele>
        <time>2026-05-25T12:00:36.000Z</time>
      </trkpt>
      <trkpt lat="44.64496" lon="5.19547">
        <ele>1432</ele>
        <time>2026-05-25T12:00:37.000Z</time>
      </trkpt>
      <trkpt lat="44.64496" lon="5.19545">
        <ele>1432</ele>
        <time>2026-05-25T12:00:38.000Z</time>
      </trkpt>
      <trkpt lat="44.64496" lon="5.19544">
        <ele>1433</ele>
        <time>2026-05-25T12:00:39.000Z</time>
      </trkpt>
      <trkpt lat="44.64497" lon="5.19543">
        <ele>1432</ele>
        <time>2026-05-25T12:00:40.000Z</time>
      </trkpt>
      <trkpt lat="44.64497" lon="5.19542">
        <ele>1432</ele>
        <time>2026-05-25T12:00:41.000Z</time>
      </trkpt>
      <trkpt lat="44.64497" lon="5.19541">
        <ele>1432</ele>
        <time>2026-05-25T12:00:42.000Z</time>
      </trkpt>
      <trkpt lat="44.64495" lon="5.1954">
        <ele>1432</ele>
        <time>2026-05-25T12:00:43.000Z</time>
      </trkpt>
      <trkpt lat="44.64496" lon="5.19539">
        <ele>1431</ele>
        <time>2026-05-25T12:00:44.000Z</time>
      </trkpt>
      <trkpt lat="44.64495" lon="5.19537">
        <ele>1430</ele>
        <time>2026-05-25T12:00:45.000Z</time>
      </trkpt>
      <trkpt lat="44.64496" lon="5.19535">
        <ele>1430</ele>
        <time>2026-05-25T12:00:46.000Z</time>
      </trkpt>
      <trkpt lat="44.64496" lon="5.19533">
        <ele>1429</ele>
        <time>2026-05-25T12:00:47.000Z</time>
      </trkpt>
      <trkpt lat="44.64496" lon="5.19532">
        <ele>1428</ele>
        <time>2026-05-25T12:00:48.000Z</time>
      </trkpt>
      <trkpt lat="44.64496" lon="5.19529">
        <ele>1427</ele>
        <time>2026-05-25T12:00:49.000Z</time>
      </trkpt>
      <trkpt lat="44.64496" lon="5.19527">
        <ele>1427</ele>
        <time>2026-05-25T12:00:50.000Z</time>
      </trkpt>
      <trkpt lat="44.64497" lon="5.19525">
        <ele>1427</ele>
        <time>2026-05-25T12:00:51.000Z</time>
      </trkpt>
      <trkpt lat="44.64496" lon="5.19523">
        <ele>1427</ele>
        <time>2026-05-25T12:00:52.000Z</time>
      </trkpt>
      <trkpt lat="44.64497" lon="5.19522">
        <ele>1427</ele>
        <time>2026-05-25T12:00:53.000Z</time>
      </trkpt>
      <trkpt lat="44.64496" lon="5.19521">
        <ele>1426</ele>
        <time>2026-05-25T12:00:54.000Z</time>
      </trkpt>
      <trkpt lat="44.64497" lon="5.1952">
        <ele>1425</ele>
        <time>2026-05-25T12:00:55.000Z</time>
      </trkpt>
      <trkpt lat="44.64497" lon="5.19518">
        <ele>1425</ele>
        <time>2026-05-25T12:00:56.000Z</time>
      </trkpt>
      <trkpt lat="44.64497" lon="5.19516">
        <ele>1425</ele>
        <time>2026-05-25T12:00:57.000Z</time>
      </trkpt>
      <trkpt lat="44.64497" lon="5.19514">
        <ele>1426</ele>
        <time>2026-05-25T12:00:58.000Z</time>
      </trkpt>
      <trkpt lat="44.64497" lon="5.19514">
        <ele>1426</ele>
        <time>2026-05-25T12:00:59.000Z</time>
      </trkpt>
      <trkpt lat="44.64497" lon="5.19513">
        <ele>1426</ele>
        <time>2026-05-25T12:01:00.000Z</time>
      </trkpt>
      <trkpt lat="44.64497" lon="5.19512">
        <ele>1424</ele>
        <time>2026-05-25T12:01:01.000Z</time>
      </trkpt>
      <trkpt lat="44.64498" lon="5.1951">
        <ele>1424</ele>
        <time>2026-05-25T12:01:02.000Z</time>
      </trkpt>
      <trkpt lat="44.64498" lon="5.1951">
        <ele>1424</ele>
        <time>2026-05-25T12:01:03.000Z</time>
      </trkpt>
      <trkpt lat="44.64499" lon="5.19508">
        <ele>1423</ele>
        <time>2026-05-25T12:01:04.000Z</time>
      </trkpt>
      <trkpt lat="44.645" lon="5.19507">
        <ele>1423</ele>
        <time>2026-05-25T12:01:05.000Z</time>
      </trkpt>
      <trkpt lat="44.64501" lon="5.19505">
        <ele>1423</ele>
        <time>2026-05-25T12:01:06.000Z</time>
      </trkpt>
      <trkpt lat="44.64501" lon="5.19504">
        <ele>1423</ele>
        <time>2026-05-25T12:01:07.000Z</time>
      </trkpt>
      <trkpt lat="44.64502" lon="5.19503">
        <ele>1422</ele>
        <time>2026-05-25T12:01:08.000Z</time>
      </trkpt>
      <trkpt lat="44.64502" lon="5.19501">
        <ele>1421</ele>
        <time>2026-05-25T12:01:09.000Z</time>
      </trkpt>
      <trkpt lat="44.64502" lon="5.195">
        <ele>1420</ele>
        <time>2026-05-25T12:01:10.000Z</time>
      </trkpt>
      <trkpt lat="44.64502" lon="5.19499">
        <ele>1420</ele>
        <time>2026-05-25T12:01:11.000Z</time>
      </trkpt>
      <trkpt lat="44.64503" lon="5.19497">
        <ele>1420</ele>
        <time>2026-05-25T12:01:12.000Z</time>
      </trkpt>
      <trkpt lat="44.64503" lon="5.19496">
        <ele>1419</ele>
        <time>2026-05-25T12:01:13.000Z</time>
      </trkpt>
      <trkpt lat="44.64503" lon="5.19495">
        <ele>1419</ele>
        <time>2026-05-25T12:01:14.000Z</time>
      </trkpt>
      <trkpt lat="44.64503" lon="5.19493">
        <ele>1418</ele>
        <time>2026-05-25T12:01:15.000Z</time>
      </trkpt>
      <trkpt lat="44.64503" lon="5.19492">
        <ele>1418</ele>
        <time>2026-05-25T12:01:16.000Z</time>
      </trkpt>
      <trkpt lat="44.64504" lon="5.1949">
        <ele>1418</ele>
        <time>2026-05-25T12:01:17.000Z</time>
      </trkpt>
      <trkpt lat="44.64504" lon="5.19489">
        <ele>1418</ele>
        <time>2026-05-25T12:01:18.000Z</time>
      </trkpt>
      <trkpt lat="44.64505" lon="5.19487">
        <ele>1418</ele>
        <time>2026-05-25T12:01:19.000Z</time>
      </trkpt>
      <trkpt lat="44.64505" lon="5.19485">
        <ele>1418</ele>
        <time>2026-05-25T12:01:20.000Z</time>
      </trkpt>
      <trkpt lat="44.64505" lon="5.19483">
        <ele>1418</ele>
        <time>2026-05-25T12:01:21.000Z</time>
      </trkpt>
      <trkpt lat="44.64506" lon="5.19481">
        <ele>1417</ele>
        <time>2026-05-25T12:01:22.000Z</time>
      </trkpt>
      <trkpt lat="44.64507" lon="5.19479">
        <ele>1417</ele>
        <time>2026-05-25T12:01:23.000Z</time>
      </trkpt>
      <trkpt lat="44.64507" lon="5.19478">
        <ele>1418</ele>
        <time>2026-05-25T12:01:24.000Z</time>
      </trkpt>
      <trkpt lat="44.64508" lon="5.19477">
        <ele>1417</ele>
        <time>2026-05-25T12:01:25.000Z</time>
      </trkpt>
      <trkpt lat="44.64508" lon="5.19476">
        <ele>1417</ele>
        <time>2026-05-25T12:01:26.000Z</time>
      </trkpt>
      <trkpt lat="44.64509" lon="5.19474">
        <ele>1416</ele>
        <time>2026-05-25T12:01:27.000Z</time>
      </trkpt>
      <trkpt lat="44.64509" lon="5.19473">
        <ele>1415</ele>
        <time>2026-05-25T12:01:28.000Z</time>
      </trkpt>
      <trkpt lat="44.64509" lon="5.19472">
        <ele>1415</ele>
        <time>2026-05-25T12:01:29.000Z</time>
      </trkpt>
      <trkpt lat="44.64509" lon="5.19471">
        <ele>1415</ele>
        <time>2026-05-25T12:01:30.000Z</time>
      </trkpt>
      <trkpt lat="44.6451" lon="5.1947">
        <ele>1414</ele>
        <time>2026-05-25T12:01:31.000Z</time>
      </trkpt>
      <trkpt lat="44.64511" lon="5.19468">
        <ele>1414</ele>
        <time>2026-05-25T12:01:32.000Z</time>
      </trkpt>
      <trkpt lat="44.64511" lon="5.19466">
        <ele>1413</ele>
        <time>2026-05-25T12:01:33.000Z</time>
      </trkpt>
      <trkpt lat="44.64512" lon="5.19465">
        <ele>1412</ele>
        <time>2026-05-25T12:01:34.000Z</time>
      </trkpt>
      <trkpt lat="44.64512" lon="5.19463">
        <ele>1412</ele>
        <time>2026-05-25T12:01:35.000Z</time>
      </trkpt>
      <trkpt lat="44.64512" lon="5.19462">
        <ele>1411</ele>
        <time>2026-05-25T12:01:36.000Z</time>
      </trkpt>
      <trkpt lat="44.64512" lon="5.19461">
        <ele>1410</ele>
        <time>2026-05-25T12:01:37.000Z</time>
      </trkpt>
      <trkpt lat="44.64512" lon="5.19459">
        <ele>1409</ele>
        <time>2026-05-25T12:01:38.000Z</time>
      </trkpt>
      <trkpt lat="44.64512" lon="5.19459">
        <ele>1408</ele>
        <time>2026-05-25T12:01:39.000Z</time>
      </trkpt>
      <trkpt lat="44.64512" lon="5.19458">
        <ele>1408</ele>
        <time>2026-05-25T12:01:40.000Z</time>
      </trkpt>
      <trkpt lat="44.64512" lon="5.19457">
        <ele>1407</ele>
        <time>2026-05-25T12:01:41.000Z</time>
      </trkpt>
      <trkpt lat="44.64512" lon="5.19455">
        <ele>1408</ele>
        <time>2026-05-25T12:01:42.000Z</time>
      </trkpt>
      <trkpt lat="44.64511" lon="5.19454">
        <ele>1408</ele>
        <time>2026-05-25T12:01:43.000Z</time>
      </trkpt>
      <trkpt lat="44.64513" lon="5.19451">
        <ele>1407</ele>
        <time>2026-05-25T12:01:44.000Z</time>
      </trkpt>
      <trkpt lat="44.64513" lon="5.1945">
        <ele>1407</ele>
        <time>2026-05-25T12:01:45.000Z</time>
      </trkpt>
      <trkpt lat="44.64513" lon="5.19448">
        <ele>1406</ele>
        <time>2026-05-25T12:01:46.000Z</time>
      </trkpt>
      <trkpt lat="44.64513" lon="5.19447">
        <ele>1406</ele>
        <time>2026-05-25T12:01:47.000Z</time>
      </trkpt>
      <trkpt lat="44.64514" lon="5.19445">
        <ele>1406</ele>
        <time>2026-05-25T12:01:48.000Z</time>
      </trkpt>
      <trkpt lat="44.64515" lon="5.19446">
        <ele>1406</ele>
        <time>2026-05-25T12:01:49.000Z</time>
      </trkpt>
      <trkpt lat="44.64515" lon="5.19443">
        <ele>1406</ele>
        <time>2026-05-25T12:01:50.000Z</time>
      </trkpt>
      <trkpt lat="44.64515" lon="5.19442">
        <ele>1405</ele>
        <time>2026-05-25T12:01:51.000Z</time>
      </trkpt>
      <trkpt lat="44.64515" lon="5.1944">
        <ele>1405</ele>
        <time>2026-05-25T12:01:52.000Z</time>
      </trkpt>
      <trkpt lat="44.64514" lon="5.19438">
        <ele>1405</ele>
        <time>2026-05-25T12:01:53.000Z</time>
      </trkpt>
      <trkpt lat="44.64515" lon="5.19436">
        <ele>1405</ele>
        <time>2026-05-25T12:01:54.000Z</time>
      </trkpt>
      <trkpt lat="44.64514" lon="5.19434">
        <ele>1406</ele>
        <time>2026-05-25T12:01:55.000Z</time>
      </trkpt>
      <trkpt lat="44.64514" lon="5.19434">
        <ele>1406</ele>
        <time>2026-05-25T12:01:56.000Z</time>
      </trkpt>
      <trkpt lat="44.64514" lon="5.19432">
        <ele>1407</ele>
        <time>2026-05-25T12:01:57.000Z</time>
      </trkpt>
      <trkpt lat="44.64514" lon="5.19431">
        <ele>1406</ele>
        <time>2026-05-25T12:01:58.000Z</time>
      </trkpt>
      <trkpt lat="44.64515" lon="5.1943">
        <ele>1406</ele>
        <time>2026-05-25T12:01:59.000Z</time>
      </trkpt>
      <trkpt lat="44.64514" lon="5.19429">
        <ele>1406</ele>
        <time>2026-05-25T12:02:00.000Z</time>
      </trkpt>
      <trkpt lat="44.64515" lon="5.19427">
        <ele>1405</ele>
        <time>2026-05-25T12:02:01.000Z</time>
      </trkpt>
      <trkpt lat="44.64515" lon="5.19426">
        <ele>1405</ele>
        <time>2026-05-25T12:02:02.000Z</time>
      </trkpt>
      <trkpt lat="44.64515" lon="5.19425">
        <ele>1405</ele>
        <time>2026-05-25T12:02:03.000Z</time>
      </trkpt>
      <trkpt lat="44.64515" lon="5.19423">
        <ele>1404</ele>
        <time>2026-05-25T12:02:04.000Z</time>
      </trkpt>
      <trkpt lat="44.64516" lon="5.19422">
        <ele>1404</ele>
        <time>2026-05-25T12:02:05.000Z</time>
      </trkpt>
      <trkpt lat="44.64516" lon="5.19421">
        <ele>1403</ele>
        <time>2026-05-25T12:02:06.000Z</time>
      </trkpt>
      <trkpt lat="44.64517" lon="5.1942">
        <ele>1402</ele>
        <time>2026-05-25T12:02:07.000Z</time>
      </trkpt>
      <trkpt lat="44.64517" lon="5.19418">
        <ele>1401</ele>
        <time>2026-05-25T12:02:08.000Z</time>
      </trkpt>
      <trkpt lat="44.64518" lon="5.19416">
        <ele>1401</ele>
        <time>2026-05-25T12:02:09.000Z</time>
      </trkpt>
      <trkpt lat="44.64518" lon="5.19415">
        <ele>1401</ele>
        <time>2026-05-25T12:02:10.000Z</time>
      </trkpt>
      <trkpt lat="44.64519" lon="5.19414">
        <ele>1401</ele>
        <time>2026-05-25T12:02:11.000Z</time>
      </trkpt>
      <trkpt lat="44.64519" lon="5.19414">
        <ele>1400</ele>
        <time>2026-05-25T12:02:12.000Z</time>
      </trkpt>
      <trkpt lat="44.64519" lon="5.19412">
        <ele>1399</ele>
        <time>2026-05-25T12:02:13.000Z</time>
      </trkpt>
      <trkpt lat="44.6452" lon="5.19411">
        <ele>1399</ele>
        <time>2026-05-25T12:02:14.000Z</time>
      </trkpt>
      <trkpt lat="44.6452" lon="5.1941">
        <ele>1398</ele>
        <time>2026-05-25T12:02:15.000Z</time>
      </trkpt>
      <trkpt lat="44.64521" lon="5.19408">
        <ele>1398</ele>
        <time>2026-05-25T12:02:16.000Z</time>
      </trkpt>
      <trkpt lat="44.64521" lon="5.19407">
        <ele>1397</ele>
        <time>2026-05-25T12:02:17.000Z</time>
      </trkpt>
      <trkpt lat="44.64522" lon="5.19406">
        <ele>1397</ele>
        <time>2026-05-25T12:02:18.000Z</time>
      </trkpt>
      <trkpt lat="44.64522" lon="5.19405">
        <ele>1396</ele>
        <time>2026-05-25T12:02:19.000Z</time>
      </trkpt>
      <trkpt lat="44.64523" lon="5.19405">
        <ele>1397</ele>
        <time>2026-05-25T12:02:20.000Z</time>
      </trkpt>
      <trkpt lat="44.64523" lon="5.19404">
        <ele>1397</ele>
        <time>2026-05-25T12:02:21.000Z</time>
      </trkpt>
      <trkpt lat="44.64523" lon="5.19403">
        <ele>1396</ele>
        <time>2026-05-25T12:02:22.000Z</time>
      </trkpt>
      <trkpt lat="44.64524" lon="5.19401">
        <ele>1396</ele>
        <time>2026-05-25T12:02:23.000Z</time>
      </trkpt>
      <trkpt lat="44.64524" lon="5.194">
        <ele>1395</ele>
        <time>2026-05-25T12:02:24.000Z</time>
      </trkpt>
      <trkpt lat="44.64525" lon="5.19398">
        <ele>1395</ele>
        <time>2026-05-25T12:02:25.000Z</time>
      </trkpt>
      <trkpt lat="44.64525" lon="5.19397">
        <ele>1394</ele>
        <time>2026-05-25T12:02:26.000Z</time>
      </trkpt>
      <trkpt lat="44.64525" lon="5.19396">
        <ele>1394</ele>
        <time>2026-05-25T12:02:27.000Z</time>
      </trkpt>
      <trkpt lat="44.64525" lon="5.19395">
        <ele>1394</ele>
        <time>2026-05-25T12:02:28.000Z</time>
      </trkpt>
      <trkpt lat="44.64526" lon="5.19392">
        <ele>1394</ele>
        <time>2026-05-25T12:02:29.000Z</time>
      </trkpt>
      <trkpt lat="44.64526" lon="5.19391">
        <ele>1394</ele>
        <time>2026-05-25T12:02:30.000Z</time>
      </trkpt>
      <trkpt lat="44.64526" lon="5.19389">
        <ele>1392</ele>
        <time>2026-05-25T12:02:31.000Z</time>
      </trkpt>
      <trkpt lat="44.64526" lon="5.19388">
        <ele>1392</ele>
        <time>2026-05-25T12:02:32.000Z</time>
      </trkpt>
      <trkpt lat="44.64525" lon="5.19386">
        <ele>1392</ele>
        <time>2026-05-25T12:02:33.000Z</time>
      </trkpt>
      <trkpt lat="44.64525" lon="5.19385">
        <ele>1392</ele>
        <time>2026-05-25T12:02:34.000Z</time>
      </trkpt>
      <trkpt lat="44.64525" lon="5.19383">
        <ele>1392</ele>
        <time>2026-05-25T12:02:35.000Z</time>
      </trkpt>
      <trkpt lat="44.64525" lon="5.19382">
        <ele>1392</ele>
        <time>2026-05-25T12:02:36.000Z</time>
      </trkpt>
      <trkpt lat="44.64526" lon="5.1938">
        <ele>1391</ele>
        <time>2026-05-25T12:02:37.000Z</time>
      </trkpt>
      <trkpt lat="44.64526" lon="5.19378">
        <ele>1391</ele>
        <time>2026-05-25T12:02:38.000Z</time>
      </trkpt>
      <trkpt lat="44.64524" lon="5.19376">
        <ele>1391</ele>
        <time>2026-05-25T12:02:39.000Z</time>
      </trkpt>
      <trkpt lat="44.64524" lon="5.19375">
        <ele>1390</ele>
        <time>2026-05-25T12:02:40.000Z</time>
      </trkpt>
      <trkpt lat="44.64522" lon="5.19374">
        <ele>1390</ele>
        <time>2026-05-25T12:02:41.000Z</time>
      </trkpt>
      <trkpt lat="44.64521" lon="5.19374">
        <ele>1390</ele>
        <time>2026-05-25T12:02:42.000Z</time>
      </trkpt>
      <trkpt lat="44.6452" lon="5.19375">
        <ele>1389</ele>
        <time>2026-05-25T12:02:43.000Z</time>
      </trkpt>
      <trkpt lat="44.64519" lon="5.19375">
        <ele>1389</ele>
        <time>2026-05-25T12:02:44.000Z</time>
      </trkpt>
      <trkpt lat="44.64519" lon="5.19376">
        <ele>1390</ele>
        <time>2026-05-25T12:02:45.000Z</time>
      </trkpt>
      <trkpt lat="44.64518" lon="5.19376">
        <ele>1389</ele>
        <time>2026-05-25T12:02:46.000Z</time>
      </trkpt>
      <trkpt lat="44.64516" lon="5.19376">
        <ele>1389</ele>
        <time>2026-05-25T12:02:47.000Z</time>
      </trkpt>
      <trkpt lat="44.64514" lon="5.19377">
        <ele>1389</ele>
        <time>2026-05-25T12:02:48.000Z</time>
      </trkpt>
      <trkpt lat="44.64513" lon="5.19377">
        <ele>1389</ele>
        <time>2026-05-25T12:02:49.000Z</time>
      </trkpt>
      <trkpt lat="44.64511" lon="5.19377">
        <ele>1388</ele>
        <time>2026-05-25T12:02:50.000Z</time>
      </trkpt>
      <trkpt lat="44.6451" lon="5.19378">
        <ele>1389</ele>
        <time>2026-05-25T12:02:51.000Z</time>
      </trkpt>
      <trkpt lat="44.6451" lon="5.19379">
        <ele>1388</ele>
        <time>2026-05-25T12:02:52.000Z</time>
      </trkpt>
      <trkpt lat="44.64509" lon="5.1938">
        <ele>1387</ele>
        <time>2026-05-25T12:02:53.000Z</time>
      </trkpt>
      <trkpt lat="44.64509" lon="5.1938">
        <ele>1387</ele>
        <time>2026-05-25T12:02:54.000Z</time>
      </trkpt>
      <trkpt lat="44.64508" lon="5.1938">
        <ele>1387</ele>
        <time>2026-05-25T12:02:55.000Z</time>
      </trkpt>
      <trkpt lat="44.64507" lon="5.1938">
        <ele>1387</ele>
        <time>2026-05-25T12:02:56.000Z</time>
      </trkpt>
      <trkpt lat="44.64506" lon="5.1938">
        <ele>1387</ele>
        <time>2026-05-25T12:02:57.000Z</time>
      </trkpt>
      <trkpt lat="44.64505" lon="5.1938">
        <ele>1387</ele>
        <time>2026-05-25T12:02:58.000Z</time>
      </trkpt>
      <trkpt lat="44.64503" lon="5.19379">
        <ele>1388</ele>
        <time>2026-05-25T12:02:59.000Z</time>
      </trkpt>
      <trkpt lat="44.64502" lon="5.19379">
        <ele>1387</ele>
        <time>2026-05-25T12:03:00.000Z</time>
      </trkpt>
      <trkpt lat="44.64502" lon="5.19378">
        <ele>1387</ele>
        <time>2026-05-25T12:03:01.000Z</time>
      </trkpt>
      <trkpt lat="44.645" lon="5.19377">
        <ele>1387</ele>
        <time>2026-05-25T12:03:02.000Z</time>
      </trkpt>
      <trkpt lat="44.645" lon="5.19376">
        <ele>1387</ele>
        <time>2026-05-25T12:03:03.000Z</time>
      </trkpt>
      <trkpt lat="44.645" lon="5.19375">
        <ele>1388</ele>
        <time>2026-05-25T12:03:04.000Z</time>
      </trkpt>
      <trkpt lat="44.64499" lon="5.19374">
        <ele>1388</ele>
        <time>2026-05-25T12:03:05.000Z</time>
      </trkpt>
      <trkpt lat="44.64499" lon="5.19372">
        <ele>1388</ele>
        <time>2026-05-25T12:03:06.000Z</time>
      </trkpt>
      <trkpt lat="44.64499" lon="5.19371">
        <ele>1388</ele>
        <time>2026-05-25T12:03:07.000Z</time>
      </trkpt>
      <trkpt lat="44.64498" lon="5.1937">
        <ele>1387</ele>
        <time>2026-05-25T12:03:08.000Z</time>
      </trkpt>
      <trkpt lat="44.64497" lon="5.19368">
        <ele>1388</ele>
        <time>2026-05-25T12:03:09.000Z</time>
      </trkpt>
      <trkpt lat="44.64497" lon="5.19368">
        <ele>1388</ele>
        <time>2026-05-25T12:03:10.000Z</time>
      </trkpt>
      <trkpt lat="44.64496" lon="5.19366">
        <ele>1388</ele>
        <time>2026-05-25T12:03:11.000Z</time>
      </trkpt>
      <trkpt lat="44.64496" lon="5.19365">
        <ele>1388</ele>
        <time>2026-05-25T12:03:12.000Z</time>
      </trkpt>
      <trkpt lat="44.64496" lon="5.19363">
        <ele>1387</ele>
        <time>2026-05-25T12:03:13.000Z</time>
      </trkpt>
      <trkpt lat="44.64496" lon="5.19362">
        <ele>1386</ele>
        <time>2026-05-25T12:03:14.000Z</time>
      </trkpt>
      <trkpt lat="44.64496" lon="5.19361">
        <ele>1385</ele>
        <time>2026-05-25T12:03:15.000Z</time>
      </trkpt>
      <trkpt lat="44.64496" lon="5.19359">
        <ele>1384</ele>
        <time>2026-05-25T12:03:16.000Z</time>
      </trkpt>
      <trkpt lat="44.64496" lon="5.19358">
        <ele>1383</ele>
        <time>2026-05-25T12:03:17.000Z</time>
      </trkpt>
      <trkpt lat="44.64496" lon="5.19355">
        <ele>1383</ele>
        <time>2026-05-25T12:03:18.000Z</time>
      </trkpt>
      <trkpt lat="44.64495" lon="5.19354">
        <ele>1383</ele>
        <time>2026-05-25T12:03:19.000Z</time>
      </trkpt>
      <trkpt lat="44.64494" lon="5.19352">
        <ele>1383</ele>
        <time>2026-05-25T12:03:20.000Z</time>
      </trkpt>
      <trkpt lat="44.64493" lon="5.19351">
        <ele>1383</ele>
        <time>2026-05-25T12:03:21.000Z</time>
      </trkpt>
      <trkpt lat="44.64493" lon="5.19349">
        <ele>1382</ele>
        <time>2026-05-25T12:03:22.000Z</time>
      </trkpt>
      <trkpt lat="44.64493" lon="5.19348">
        <ele>1382</ele>
        <time>2026-05-25T12:03:23.000Z</time>
      </trkpt>
      <trkpt lat="44.64492" lon="5.19347">
        <ele>1381</ele>
        <time>2026-05-25T12:03:24.000Z</time>
      </trkpt>
      <trkpt lat="44.64492" lon="5.19346">
        <ele>1381</ele>
        <time>2026-05-25T12:03:25.000Z</time>
      </trkpt>
      <trkpt lat="44.64492" lon="5.19345">
        <ele>1381</ele>
        <time>2026-05-25T12:03:26.000Z</time>
      </trkpt>
      <trkpt lat="44.64491" lon="5.19344">
        <ele>1381</ele>
        <time>2026-05-25T12:03:27.000Z</time>
      </trkpt>
      <trkpt lat="44.64491" lon="5.19342">
        <ele>1380</ele>
        <time>2026-05-25T12:03:28.000Z</time>
      </trkpt>
      <trkpt lat="44.64491" lon="5.1934">
        <ele>1380</ele>
        <time>2026-05-25T12:03:29.000Z</time>
      </trkpt>
      <trkpt lat="44.64491" lon="5.19339">
        <ele>1380</ele>
        <time>2026-05-25T12:03:30.000Z</time>
      </trkpt>
      <trkpt lat="44.64491" lon="5.19337">
        <ele>1379</ele>
        <time>2026-05-25T12:03:31.000Z</time>
      </trkpt>
      <trkpt lat="44.64491" lon="5.19335">
        <ele>1378</ele>
        <time>2026-05-25T12:03:32.000Z</time>
      </trkpt>
      <trkpt lat="44.64491" lon="5.19334">
        <ele>1377</ele>
        <time>2026-05-25T12:03:33.000Z</time>
      </trkpt>
      <trkpt lat="44.6449" lon="5.19333">
        <ele>1378</ele>
        <time>2026-05-25T12:03:34.000Z</time>
      </trkpt>
      <trkpt lat="44.64489" lon="5.19332">
        <ele>1377</ele>
        <time>2026-05-25T12:03:35.000Z</time>
      </trkpt>
      <trkpt lat="44.64488" lon="5.1933">
        <ele>1376</ele>
        <time>2026-05-25T12:03:36.000Z</time>
      </trkpt>
      <trkpt lat="44.64487" lon="5.19329">
        <ele>1375</ele>
        <time>2026-05-25T12:03:37.000Z</time>
      </trkpt>
      <trkpt lat="44.64486" lon="5.19328">
        <ele>1375</ele>
        <time>2026-05-25T12:03:38.000Z</time>
      </trkpt>
      <trkpt lat="44.64486" lon="5.19326">
        <ele>1375</ele>
        <time>2026-05-25T12:03:39.000Z</time>
      </trkpt>
      <trkpt lat="44.64485" lon="5.19325">
        <ele>1376</ele>
        <time>2026-05-25T12:03:40.000Z</time>
      </trkpt>
      <trkpt lat="44.64484" lon="5.19324">
        <ele>1376</ele>
        <time>2026-05-25T12:03:41.000Z</time>
      </trkpt>
      <trkpt lat="44.64483" lon="5.19323">
        <ele>1376</ele>
        <time>2026-05-25T12:03:42.000Z</time>
      </trkpt>
      <trkpt lat="44.64483" lon="5.19321">
        <ele>1377</ele>
        <time>2026-05-25T12:03:43.000Z</time>
      </trkpt>
      <trkpt lat="44.64483" lon="5.19321">
        <ele>1377</ele>
        <time>2026-05-25T12:03:44.000Z</time>
      </trkpt>
      <trkpt lat="44.64483" lon="5.19321">
        <ele>1377</ele>
        <time>2026-05-25T12:03:45.000Z</time>
      </trkpt>
      <trkpt lat="44.64483" lon="5.19317">
        <ele>1376</ele>
        <time>2026-05-25T12:03:46.000Z</time>
      </trkpt>
      <trkpt lat="44.64483" lon="5.19315">
        <ele>1375</ele>
        <time>2026-05-25T12:03:47.000Z</time>
      </trkpt>
      <trkpt lat="44.64483" lon="5.19313">
        <ele>1376</ele>
        <time>2026-05-25T12:03:48.000Z</time>
      </trkpt>
      <trkpt lat="44.64483" lon="5.19311">
        <ele>1376</ele>
        <time>2026-05-25T12:03:49.000Z</time>
      </trkpt>
      <trkpt lat="44.64483" lon="5.19309">
        <ele>1377</ele>
        <time>2026-05-25T12:03:50.000Z</time>
      </trkpt>
      <trkpt lat="44.64483" lon="5.19307">
        <ele>1377</ele>
        <time>2026-05-25T12:03:51.000Z</time>
      </trkpt>
      <trkpt lat="44.64482" lon="5.19304">
        <ele>1378</ele>
        <time>2026-05-25T12:03:52.000Z</time>
      </trkpt>
      <trkpt lat="44.6448" lon="5.19303">
        <ele>1378</ele>
        <time>2026-05-25T12:03:53.000Z</time>
      </trkpt>
      <trkpt lat="44.6448" lon="5.19302">
        <ele>1378</ele>
        <time>2026-05-25T12:03:54.000Z</time>
      </trkpt>
      <trkpt lat="44.6448" lon="5.193">
        <ele>1378</ele>
        <time>2026-05-25T12:03:55.000Z</time>
      </trkpt>
      <trkpt lat="44.6448" lon="5.19299">
        <ele>1378</ele>
        <time>2026-05-25T12:03:56.000Z</time>
      </trkpt>
      <trkpt lat="44.6448" lon="5.19298">
        <ele>1378</ele>
        <time>2026-05-25T12:03:57.000Z</time>
      </trkpt>
      <trkpt lat="44.6448" lon="5.19297">
        <ele>1378</ele>
        <time>2026-05-25T12:03:58.000Z</time>
      </trkpt>
      <trkpt lat="44.6448" lon="5.19295">
        <ele>1378</ele>
        <time>2026-05-25T12:03:59.000Z</time>
      </trkpt>
      <trkpt lat="44.6448" lon="5.19293">
        <ele>1379</ele>
        <time>2026-05-25T12:04:00.000Z</time>
      </trkpt>
      <trkpt lat="44.6448" lon="5.19291">
        <ele>1378</ele>
        <time>2026-05-25T12:04:01.000Z</time>
      </trkpt>
      <trkpt lat="44.64478" lon="5.19288">
        <ele>1377</ele>
        <time>2026-05-25T12:04:02.000Z</time>
      </trkpt>
      <trkpt lat="44.64476" lon="5.19288">
        <ele>1377</ele>
        <time>2026-05-25T12:04:03.000Z</time>
      </trkpt>
      <trkpt lat="44.64476" lon="5.19287">
        <ele>1377</ele>
        <time>2026-05-25T12:04:04.000Z</time>
      </trkpt>
      <trkpt lat="44.64476" lon="5.19285">
        <ele>1378</ele>
        <time>2026-05-25T12:04:05.000Z</time>
      </trkpt>
      <trkpt lat="44.64476" lon="5.19285">
        <ele>1378</ele>
        <time>2026-05-25T12:04:06.000Z</time>
      </trkpt>
      <trkpt lat="44.64475" lon="5.19282">
        <ele>1377</ele>
        <time>2026-05-25T12:04:07.000Z</time>
      </trkpt>
      <trkpt lat="44.64474" lon="5.1928">
        <ele>1377</ele>
        <time>2026-05-25T12:04:08.000Z</time>
      </trkpt>
      <trkpt lat="44.64473" lon="5.19278">
        <ele>1377</ele>
        <time>2026-05-25T12:04:09.000Z</time>
      </trkpt>
      <trkpt lat="44.64472" lon="5.19276">
        <ele>1376</ele>
        <time>2026-05-25T12:04:10.000Z</time>
      </trkpt>
      <trkpt lat="44.64472" lon="5.19274">
        <ele>1376</ele>
        <time>2026-05-25T12:04:11.000Z</time>
      </trkpt>
      <trkpt lat="44.64472" lon="5.19273">
        <ele>1376</ele>
        <time>2026-05-25T12:04:12.000Z</time>
      </trkpt>
      <trkpt lat="44.64471" lon="5.19271">
        <ele>1376</ele>
        <time>2026-05-25T12:04:13.000Z</time>
      </trkpt>
      <trkpt lat="44.64471" lon="5.1927">
        <ele>1375</ele>
        <time>2026-05-25T12:04:14.000Z</time>
      </trkpt>
      <trkpt lat="44.64471" lon="5.19268">
        <ele>1375</ele>
        <time>2026-05-25T12:04:15.000Z</time>
      </trkpt>
      <trkpt lat="44.64471" lon="5.19266">
        <ele>1374</ele>
        <time>2026-05-25T12:04:16.000Z</time>
      </trkpt>
      <trkpt lat="44.6447" lon="5.19264">
        <ele>1374</ele>
        <time>2026-05-25T12:04:17.000Z</time>
      </trkpt>
      <trkpt lat="44.6447" lon="5.19262">
        <ele>1374</ele>
        <time>2026-05-25T12:04:18.000Z</time>
      </trkpt>
      <trkpt lat="44.6447" lon="5.19261">
        <ele>1374</ele>
        <time>2026-05-25T12:04:19.000Z</time>
      </trkpt>
      <trkpt lat="44.64471" lon="5.19259">
        <ele>1373</ele>
        <time>2026-05-25T12:04:20.000Z</time>
      </trkpt>
      <trkpt lat="44.64471" lon="5.19257">
        <ele>1374</ele>
        <time>2026-05-25T12:04:21.000Z</time>
      </trkpt>
      <trkpt lat="44.64471" lon="5.19254">
        <ele>1373</ele>
        <time>2026-05-25T12:04:22.000Z</time>
      </trkpt>
      <trkpt lat="44.64471" lon="5.19252">
        <ele>1374</ele>
        <time>2026-05-25T12:04:23.000Z</time>
      </trkpt>
      <trkpt lat="44.64471" lon="5.1925">
        <ele>1373</ele>
        <time>2026-05-25T12:04:24.000Z</time>
      </trkpt>
      <trkpt lat="44.64471" lon="5.19249">
        <ele>1373</ele>
        <time>2026-05-25T12:04:25.000Z</time>
      </trkpt>
      <trkpt lat="44.64471" lon="5.19247">
        <ele>1373</ele>
        <time>2026-05-25T12:04:26.000Z</time>
      </trkpt>
      <trkpt lat="44.64471" lon="5.19245">
        <ele>1375</ele>
        <time>2026-05-25T12:04:27.000Z</time>
      </trkpt>
      <trkpt lat="44.64471" lon="5.19244">
        <ele>1374</ele>
        <time>2026-05-25T12:04:28.000Z</time>
      </trkpt>
      <trkpt lat="44.64471" lon="5.19242">
        <ele>1373</ele>
        <time>2026-05-25T12:04:29.000Z</time>
      </trkpt>
      <trkpt lat="44.64471" lon="5.19241">
        <ele>1373</ele>
        <time>2026-05-25T12:04:30.000Z</time>
      </trkpt>
      <trkpt lat="44.64471" lon="5.1924">
        <ele>1374</ele>
        <time>2026-05-25T12:04:31.000Z</time>
      </trkpt>
      <trkpt lat="44.64471" lon="5.19238">
        <ele>1374</ele>
        <time>2026-05-25T12:04:32.000Z</time>
      </trkpt>
      <trkpt lat="44.64471" lon="5.19236">
        <ele>1374</ele>
        <time>2026-05-25T12:04:33.000Z</time>
      </trkpt>
      <trkpt lat="44.64472" lon="5.19235">
        <ele>1374</ele>
        <time>2026-05-25T12:04:34.000Z</time>
      </trkpt>
      <trkpt lat="44.64472" lon="5.19233">
        <ele>1375</ele>
        <time>2026-05-25T12:04:35.000Z</time>
      </trkpt>
      <trkpt lat="44.64471" lon="5.19232">
        <ele>1375</ele>
        <time>2026-05-25T12:04:36.000Z</time>
      </trkpt>
      <trkpt lat="44.64472" lon="5.19231">
        <ele>1375</ele>
        <time>2026-05-25T12:04:37.000Z</time>
      </trkpt>
      <trkpt lat="44.64471" lon="5.19229">
        <ele>1374</ele>
        <time>2026-05-25T12:04:38.000Z</time>
      </trkpt>
      <trkpt lat="44.64472" lon="5.19227">
        <ele>1374</ele>
        <time>2026-05-25T12:04:39.000Z</time>
      </trkpt>
      <trkpt lat="44.64471" lon="5.19226">
        <ele>1373</ele>
        <time>2026-05-25T12:04:40.000Z</time>
      </trkpt>
      <trkpt lat="44.64472" lon="5.19224">
        <ele>1373</ele>
        <time>2026-05-25T12:04:41.000Z</time>
      </trkpt>
      <trkpt lat="44.64472" lon="5.19222">
        <ele>1372</ele>
        <time>2026-05-25T12:04:42.000Z</time>
      </trkpt>
      <trkpt lat="44.64472" lon="5.19221">
        <ele>1373</ele>
        <time>2026-05-25T12:04:43.000Z</time>
      </trkpt>
      <trkpt lat="44.64472" lon="5.1922">
        <ele>1373</ele>
        <time>2026-05-25T12:04:44.000Z</time>
      </trkpt>
      <trkpt lat="44.64472" lon="5.19218">
        <ele>1372</ele>
        <time>2026-05-25T12:04:45.000Z</time>
      </trkpt>
      <trkpt lat="44.64472" lon="5.19216">
        <ele>1371</ele>
        <time>2026-05-25T12:04:46.000Z</time>
      </trkpt>
      <trkpt lat="44.64472" lon="5.19215">
        <ele>1372</ele>
        <time>2026-05-25T12:04:47.000Z</time>
      </trkpt>
      <trkpt lat="44.64471" lon="5.19213">
        <ele>1372</ele>
        <time>2026-05-25T12:04:48.000Z</time>
      </trkpt>
      <trkpt lat="44.64471" lon="5.19211">
        <ele>1371</ele>
        <time>2026-05-25T12:04:49.000Z</time>
      </trkpt>
      <trkpt lat="44.64471" lon="5.1921">
        <ele>1371</ele>
        <time>2026-05-25T12:04:50.000Z</time>
      </trkpt>
      <trkpt lat="44.64471" lon="5.19209">
        <ele>1370</ele>
        <time>2026-05-25T12:04:51.000Z</time>
      </trkpt>
      <trkpt lat="44.64471" lon="5.19207">
        <ele>1370</ele>
        <time>2026-05-25T12:04:52.000Z</time>
      </trkpt>
      <trkpt lat="44.64471" lon="5.19205">
        <ele>1369</ele>
        <time>2026-05-25T12:04:53.000Z</time>
      </trkpt>
      <trkpt lat="44.6447" lon="5.19203">
        <ele>1371</ele>
        <time>2026-05-25T12:04:54.000Z</time>
      </trkpt>
      <trkpt lat="44.6447" lon="5.19202">
        <ele>1369</ele>
        <time>2026-05-25T12:04:55.000Z</time>
      </trkpt>
      <trkpt lat="44.64468" lon="5.19202">
        <ele>1370</ele>
        <time>2026-05-25T12:04:56.000Z</time>
      </trkpt>
      <trkpt lat="44.64469" lon="5.19202">
        <ele>1370</ele>
        <time>2026-05-25T12:04:57.000Z</time>
      </trkpt>
      <trkpt lat="44.64468" lon="5.192">
        <ele>1371</ele>
        <time>2026-05-25T12:04:58.000Z</time>
      </trkpt>
      <trkpt lat="44.64468" lon="5.19199">
        <ele>1371</ele>
        <time>2026-05-25T12:04:59.000Z</time>
      </trkpt>
      <trkpt lat="44.64467" lon="5.19198">
        <ele>1370</ele>
        <time>2026-05-25T12:05:00.000Z</time>
      </trkpt>
      <trkpt lat="44.64467" lon="5.19197">
        <ele>1370</ele>
        <time>2026-05-25T12:05:01.000Z</time>
      </trkpt>
      <trkpt lat="44.64468" lon="5.19195">
        <ele>1370</ele>
        <time>2026-05-25T12:05:02.000Z</time>
      </trkpt>
      <trkpt lat="44.64468" lon="5.19193">
        <ele>1370</ele>
        <time>2026-05-25T12:05:03.000Z</time>
      </trkpt>
      <trkpt lat="44.64467" lon="5.19192">
        <ele>1370</ele>
        <time>2026-05-25T12:05:04.000Z</time>
      </trkpt>
      <trkpt lat="44.64467" lon="5.1919">
        <ele>1370</ele>
        <time>2026-05-25T12:05:05.000Z</time>
      </trkpt>
      <trkpt lat="44.64467" lon="5.19188">
        <ele>1370</ele>
        <time>2026-05-25T12:05:06.000Z</time>
      </trkpt>
      <trkpt lat="44.64466" lon="5.19186">
        <ele>1370</ele>
        <time>2026-05-25T12:05:07.000Z</time>
      </trkpt>
      <trkpt lat="44.64466" lon="5.19186">
        <ele>1370</ele>
        <time>2026-05-25T12:05:08.000Z</time>
      </trkpt>
      <trkpt lat="44.64466" lon="5.19184">
        <ele>1370</ele>
        <time>2026-05-25T12:05:09.000Z</time>
      </trkpt>
      <trkpt lat="44.64466" lon="5.19183">
        <ele>1370</ele>
        <time>2026-05-25T12:05:10.000Z</time>
      </trkpt>
      <trkpt lat="44.64465" lon="5.19181">
        <ele>1369</ele>
        <time>2026-05-25T12:05:11.000Z</time>
      </trkpt>
      <trkpt lat="44.64465" lon="5.19179">
        <ele>1368</ele>
        <time>2026-05-25T12:05:12.000Z</time>
      </trkpt>
      <trkpt lat="44.64465" lon="5.19178">
        <ele>1368</ele>
        <time>2026-05-25T12:05:13.000Z</time>
      </trkpt>
      <trkpt lat="44.64464" lon="5.19176">
        <ele>1368</ele>
        <time>2026-05-25T12:05:14.000Z</time>
      </trkpt>
      <trkpt lat="44.64464" lon="5.19174">
        <ele>1368</ele>
        <time>2026-05-25T12:05:15.000Z</time>
      </trkpt>
      <trkpt lat="44.64464" lon="5.19172">
        <ele>1368</ele>
        <time>2026-05-25T12:05:16.000Z</time>
      </trkpt>
      <trkpt lat="44.64464" lon="5.1917">
        <ele>1368</ele>
        <time>2026-05-25T12:05:17.000Z</time>
      </trkpt>
      <trkpt lat="44.64464" lon="5.19169">
        <ele>1367</ele>
        <time>2026-05-25T12:05:18.000Z</time>
      </trkpt>
      <trkpt lat="44.64463" lon="5.19167">
        <ele>1367</ele>
        <time>2026-05-25T12:05:19.000Z</time>
      </trkpt>
      <trkpt lat="44.64463" lon="5.19164">
        <ele>1368</ele>
        <time>2026-05-25T12:05:20.000Z</time>
      </trkpt>
      <trkpt lat="44.64463" lon="5.19162">
        <ele>1368</ele>
        <time>2026-05-25T12:05:21.000Z</time>
      </trkpt>
      <trkpt lat="44.64463" lon="5.1916">
        <ele>1367</ele>
        <time>2026-05-25T12:05:22.000Z</time>
      </trkpt>
      <trkpt lat="44.64462" lon="5.19159">
        <ele>1367</ele>
        <time>2026-05-25T12:05:23.000Z</time>
      </trkpt>
      <trkpt lat="44.64462" lon="5.19157">
        <ele>1367</ele>
        <time>2026-05-25T12:05:24.000Z</time>
      </trkpt>
      <trkpt lat="44.64461" lon="5.19155">
        <ele>1367</ele>
        <time>2026-05-25T12:05:25.000Z</time>
      </trkpt>
      <trkpt lat="44.6446" lon="5.19154">
        <ele>1367</ele>
        <time>2026-05-25T12:05:26.000Z</time>
      </trkpt>
      <trkpt lat="44.64459" lon="5.19152">
        <ele>1367</ele>
        <time>2026-05-25T12:05:27.000Z</time>
      </trkpt>
      <trkpt lat="44.64458" lon="5.19151">
        <ele>1366</ele>
        <time>2026-05-25T12:05:28.000Z</time>
      </trkpt>
      <trkpt lat="44.64458" lon="5.1915">
        <ele>1366</ele>
        <time>2026-05-25T12:05:29.000Z</time>
      </trkpt>
      <trkpt lat="44.64457" lon="5.19149">
        <ele>1366</ele>
        <time>2026-05-25T12:05:30.000Z</time>
      </trkpt>
      <trkpt lat="44.64456" lon="5.19148">
        <ele>1366</ele>
        <time>2026-05-25T12:05:31.000Z</time>
      </trkpt>
      <trkpt lat="44.64455" lon="5.19146">
        <ele>1365</ele>
        <time>2026-05-25T12:05:32.000Z</time>
      </trkpt>
      <trkpt lat="44.64455" lon="5.19145">
        <ele>1365</ele>
        <time>2026-05-25T12:05:33.000Z</time>
      </trkpt>
      <trkpt lat="44.64454" lon="5.19144">
        <ele>1365</ele>
        <time>2026-05-25T12:05:34.000Z</time>
      </trkpt>
      <trkpt lat="44.64454" lon="5.19143">
        <ele>1364</ele>
        <time>2026-05-25T12:05:35.000Z</time>
      </trkpt>
      <trkpt lat="44.64453" lon="5.19141">
        <ele>1364</ele>
        <time>2026-05-25T12:05:36.000Z</time>
      </trkpt>
      <trkpt lat="44.64454" lon="5.19139">
        <ele>1364</ele>
        <time>2026-05-25T12:05:37.000Z</time>
      </trkpt>
      <trkpt lat="44.64453" lon="5.19137">
        <ele>1365</ele>
        <time>2026-05-25T12:05:38.000Z</time>
      </trkpt>
      <trkpt lat="44.64452" lon="5.19135">
        <ele>1365</ele>
        <time>2026-05-25T12:05:39.000Z</time>
      </trkpt>
      <trkpt lat="44.64452" lon="5.19133">
        <ele>1365</ele>
        <time>2026-05-25T12:05:40.000Z</time>
      </trkpt>
      <trkpt lat="44.64451" lon="5.19131">
        <ele>1366</ele>
        <time>2026-05-25T12:05:41.000Z</time>
      </trkpt>
      <trkpt lat="44.6445" lon="5.19129">
        <ele>1366</ele>
        <time>2026-05-25T12:05:42.000Z</time>
      </trkpt>
      <trkpt lat="44.64449" lon="5.19126">
        <ele>1366</ele>
        <time>2026-05-25T12:05:43.000Z</time>
      </trkpt>
      <trkpt lat="44.64448" lon="5.19124">
        <ele>1365</ele>
        <time>2026-05-25T12:05:44.000Z</time>
      </trkpt>
      <trkpt lat="44.64447" lon="5.19123">
        <ele>1366</ele>
        <time>2026-05-25T12:05:45.000Z</time>
      </trkpt>
      <trkpt lat="44.64447" lon="5.19122">
        <ele>1366</ele>
        <time>2026-05-25T12:05:46.000Z</time>
      </trkpt>
      <trkpt lat="44.64447" lon="5.1912">
        <ele>1365</ele>
        <time>2026-05-25T12:05:47.000Z</time>
      </trkpt>
      <trkpt lat="44.64446" lon="5.19118">
        <ele>1365</ele>
        <time>2026-05-25T12:05:48.000Z</time>
      </trkpt>
      <trkpt lat="44.64445" lon="5.19117">
        <ele>1365</ele>
        <time>2026-05-25T12:05:49.000Z</time>
      </trkpt>
      <trkpt lat="44.64444" lon="5.19116">
        <ele>1365</ele>
        <time>2026-05-25T12:05:50.000Z</time>
      </trkpt>
      <trkpt lat="44.64443" lon="5.19114">
        <ele>1365</ele>
        <time>2026-05-25T12:05:51.000Z</time>
      </trkpt>
      <trkpt lat="44.64442" lon="5.19113">
        <ele>1365</ele>
        <time>2026-05-25T12:05:52.000Z</time>
      </trkpt>
      <trkpt lat="44.64442" lon="5.19112">
        <ele>1365</ele>
        <time>2026-05-25T12:05:53.000Z</time>
      </trkpt>
      <trkpt lat="44.64441" lon="5.1911">
        <ele>1364</ele>
        <time>2026-05-25T12:05:54.000Z</time>
      </trkpt>
      <trkpt lat="44.64441" lon="5.19109">
        <ele>1364</ele>
        <time>2026-05-25T12:05:55.000Z</time>
      </trkpt>
      <trkpt lat="44.6444" lon="5.19108">
        <ele>1364</ele>
        <time>2026-05-25T12:05:56.000Z</time>
      </trkpt>
      <trkpt lat="44.64439" lon="5.19106">
        <ele>1363</ele>
        <time>2026-05-25T12:05:57.000Z</time>
      </trkpt>
      <trkpt lat="44.64439" lon="5.19104">
        <ele>1364</ele>
        <time>2026-05-25T12:05:58.000Z</time>
      </trkpt>
      <trkpt lat="44.64439" lon="5.19103">
        <ele>1363</ele>
        <time>2026-05-25T12:05:59.000Z</time>
      </trkpt>
      <trkpt lat="44.64438" lon="5.19101">
        <ele>1363</ele>
        <time>2026-05-25T12:06:00.000Z</time>
      </trkpt>
      <trkpt lat="44.64437" lon="5.19099">
        <ele>1363</ele>
        <time>2026-05-25T12:06:01.000Z</time>
      </trkpt>
      <trkpt lat="44.64437" lon="5.19098">
        <ele>1362</ele>
        <time>2026-05-25T12:06:02.000Z</time>
      </trkpt>
      <trkpt lat="44.64437" lon="5.19096">
        <ele>1362</ele>
        <time>2026-05-25T12:06:03.000Z</time>
      </trkpt>
      <trkpt lat="44.64436" lon="5.19094">
        <ele>1363</ele>
        <time>2026-05-25T12:06:04.000Z</time>
      </trkpt>
      <trkpt lat="44.64435" lon="5.19092">
        <ele>1362</ele>
        <time>2026-05-25T12:06:05.000Z</time>
      </trkpt>
      <trkpt lat="44.64435" lon="5.1909">
        <ele>1362</ele>
        <time>2026-05-25T12:06:06.000Z</time>
      </trkpt>
      <trkpt lat="44.64434" lon="5.19088">
        <ele>1361</ele>
        <time>2026-05-25T12:06:07.000Z</time>
      </trkpt>
      <trkpt lat="44.64433" lon="5.19087">
        <ele>1362</ele>
        <time>2026-05-25T12:06:08.000Z</time>
      </trkpt>
      <trkpt lat="44.64433" lon="5.19085">
        <ele>1362</ele>
        <time>2026-05-25T12:06:09.000Z</time>
      </trkpt>
      <trkpt lat="44.64432" lon="5.19084">
        <ele>1361</ele>
        <time>2026-05-25T12:06:10.000Z</time>
      </trkpt>
      <trkpt lat="44.64432" lon="5.19083">
        <ele>1362</ele>
        <time>2026-05-25T12:06:11.000Z</time>
      </trkpt>
      <trkpt lat="44.64431" lon="5.19082">
        <ele>1362</ele>
        <time>2026-05-25T12:06:12.000Z</time>
      </trkpt>
      <trkpt lat="44.64431" lon="5.1908">
        <ele>1361</ele>
        <time>2026-05-25T12:06:13.000Z</time>
      </trkpt>
      <trkpt lat="44.6443" lon="5.19079">
        <ele>1361</ele>
        <time>2026-05-25T12:06:14.000Z</time>
      </trkpt>
      <trkpt lat="44.6443" lon="5.19077">
        <ele>1361</ele>
        <time>2026-05-25T12:06:15.000Z</time>
      </trkpt>
      <trkpt lat="44.64429" lon="5.19076">
        <ele>1361</ele>
        <time>2026-05-25T12:06:16.000Z</time>
      </trkpt>
      <trkpt lat="44.64428" lon="5.19075">
        <ele>1360</ele>
        <time>2026-05-25T12:06:17.000Z</time>
      </trkpt>
      <trkpt lat="44.64428" lon="5.19074">
        <ele>1360</ele>
        <time>2026-05-25T12:06:18.000Z</time>
      </trkpt>
      <trkpt lat="44.64427" lon="5.19073">
        <ele>1360</ele>
        <time>2026-05-25T12:06:19.000Z</time>
      </trkpt>
      <trkpt lat="44.64426" lon="5.19071">
        <ele>1361</ele>
        <time>2026-05-25T12:06:20.000Z</time>
      </trkpt>
      <trkpt lat="44.64425" lon="5.1907">
        <ele>1360</ele>
        <time>2026-05-25T12:06:21.000Z</time>
      </trkpt>
      <trkpt lat="44.64424" lon="5.19069">
        <ele>1360</ele>
        <time>2026-05-25T12:06:22.000Z</time>
      </trkpt>
      <trkpt lat="44.64423" lon="5.19068">
        <ele>1360</ele>
        <time>2026-05-25T12:06:23.000Z</time>
      </trkpt>
      <trkpt lat="44.64423" lon="5.19066">
        <ele>1359</ele>
        <time>2026-05-25T12:06:24.000Z</time>
      </trkpt>
      <trkpt lat="44.64423" lon="5.19065">
        <ele>1359</ele>
        <time>2026-05-25T12:06:25.000Z</time>
      </trkpt>
      <trkpt lat="44.64422" lon="5.19063">
        <ele>1359</ele>
        <time>2026-05-25T12:06:26.000Z</time>
      </trkpt>
      <trkpt lat="44.64422" lon="5.19062">
        <ele>1358</ele>
        <time>2026-05-25T12:06:27.000Z</time>
      </trkpt>
      <trkpt lat="44.64421" lon="5.19061">
        <ele>1358</ele>
        <time>2026-05-25T12:06:28.000Z</time>
      </trkpt>
      <trkpt lat="44.64421" lon="5.1906">
        <ele>1358</ele>
        <time>2026-05-25T12:06:29.000Z</time>
      </trkpt>
      <trkpt lat="44.6442" lon="5.19059">
        <ele>1358</ele>
        <time>2026-05-25T12:06:30.000Z</time>
      </trkpt>
      <trkpt lat="44.6442" lon="5.19057">
        <ele>1358</ele>
        <time>2026-05-25T12:06:31.000Z</time>
      </trkpt>
      <trkpt lat="44.64419" lon="5.19056">
        <ele>1357</ele>
        <time>2026-05-25T12:06:32.000Z</time>
      </trkpt>
      <trkpt lat="44.64418" lon="5.19054">
        <ele>1357</ele>
        <time>2026-05-25T12:06:33.000Z</time>
      </trkpt>
      <trkpt lat="44.64417" lon="5.19052">
        <ele>1358</ele>
        <time>2026-05-25T12:06:34.000Z</time>
      </trkpt>
      <trkpt lat="44.64416" lon="5.19051">
        <ele>1358</ele>
        <time>2026-05-25T12:06:35.000Z</time>
      </trkpt>
      <trkpt lat="44.64415" lon="5.19049">
        <ele>1358</ele>
        <time>2026-05-25T12:06:36.000Z</time>
      </trkpt>
      <trkpt lat="44.64415" lon="5.19047">
        <ele>1358</ele>
        <time>2026-05-25T12:06:37.000Z</time>
      </trkpt>
      <trkpt lat="44.64414" lon="5.19045">
        <ele>1357</ele>
        <time>2026-05-25T12:06:38.000Z</time>
      </trkpt>
      <trkpt lat="44.64413" lon="5.19044">
        <ele>1357</ele>
        <time>2026-05-25T12:06:39.000Z</time>
      </trkpt>
      <trkpt lat="44.64412" lon="5.19042">
        <ele>1356</ele>
        <time>2026-05-25T12:06:40.000Z</time>
      </trkpt>
      <trkpt lat="44.64412" lon="5.19041">
        <ele>1356</ele>
        <time>2026-05-25T12:06:41.000Z</time>
      </trkpt>
      <trkpt lat="44.64411" lon="5.19039">
        <ele>1356</ele>
        <time>2026-05-25T12:06:42.000Z</time>
      </trkpt>
      <trkpt lat="44.64411" lon="5.19039">
        <ele>1356</ele>
        <time>2026-05-25T12:06:43.000Z</time>
      </trkpt>
      <trkpt lat="44.64411" lon="5.19038">
        <ele>1357</ele>
        <time>2026-05-25T12:06:44.000Z</time>
      </trkpt>
      <trkpt lat="44.64411" lon="5.19036">
        <ele>1357</ele>
        <time>2026-05-25T12:06:45.000Z</time>
      </trkpt>
      <trkpt lat="44.6441" lon="5.19034">
        <ele>1357</ele>
        <time>2026-05-25T12:06:46.000Z</time>
      </trkpt>
      <trkpt lat="44.6441" lon="5.19032">
        <ele>1356</ele>
        <time>2026-05-25T12:06:47.000Z</time>
      </trkpt>
      <trkpt lat="44.64409" lon="5.1903">
        <ele>1357</ele>
        <time>2026-05-25T12:06:48.000Z</time>
      </trkpt>
      <trkpt lat="44.64408" lon="5.19029">
        <ele>1356</ele>
        <time>2026-05-25T12:06:49.000Z</time>
      </trkpt>
      <trkpt lat="44.64407" lon="5.19027">
        <ele>1357</ele>
        <time>2026-05-25T12:06:50.000Z</time>
      </trkpt>
      <trkpt lat="44.64407" lon="5.19026">
        <ele>1356</ele>
        <time>2026-05-25T12:06:51.000Z</time>
      </trkpt>
      <trkpt lat="44.64406" lon="5.19025">
        <ele>1356</ele>
        <time>2026-05-25T12:06:52.000Z</time>
      </trkpt>
      <trkpt lat="44.64405" lon="5.19023">
        <ele>1355</ele>
        <time>2026-05-25T12:06:53.000Z</time>
      </trkpt>
      <trkpt lat="44.64404" lon="5.19022">
        <ele>1356</ele>
        <time>2026-05-25T12:06:54.000Z</time>
      </trkpt>
      <trkpt lat="44.64405" lon="5.19021">
        <ele>1356</ele>
        <time>2026-05-25T12:06:55.000Z</time>
      </trkpt>
      <trkpt lat="44.64404" lon="5.19019">
        <ele>1356</ele>
        <time>2026-05-25T12:06:56.000Z</time>
      </trkpt>
      <trkpt lat="44.64404" lon="5.19018">
        <ele>1356</ele>
        <time>2026-05-25T12:06:57.000Z</time>
      </trkpt>
      <trkpt lat="44.64403" lon="5.19017">
        <ele>1356</ele>
        <time>2026-05-25T12:06:58.000Z</time>
      </trkpt>
      <trkpt lat="44.64402" lon="5.19016">
        <ele>1355</ele>
        <time>2026-05-25T12:06:59.000Z</time>
      </trkpt>
      <trkpt lat="44.64402" lon="5.19014">
        <ele>1355</ele>
        <time>2026-05-25T12:07:00.000Z</time>
      </trkpt>
      <trkpt lat="44.64402" lon="5.19013">
        <ele>1355</ele>
        <time>2026-05-25T12:07:01.000Z</time>
      </trkpt>
      <trkpt lat="44.64401" lon="5.19012">
        <ele>1355</ele>
        <time>2026-05-25T12:07:02.000Z</time>
      </trkpt>
      <trkpt lat="44.64401" lon="5.1901">
        <ele>1355</ele>
        <time>2026-05-25T12:07:03.000Z</time>
      </trkpt>
      <trkpt lat="44.644" lon="5.19009">
        <ele>1355</ele>
        <time>2026-05-25T12:07:04.000Z</time>
      </trkpt>
      <trkpt lat="44.644" lon="5.19007">
        <ele>1354</ele>
        <time>2026-05-25T12:07:05.000Z</time>
      </trkpt>
      <trkpt lat="44.644" lon="5.19005">
        <ele>1355</ele>
        <time>2026-05-25T12:07:06.000Z</time>
      </trkpt>
      <trkpt lat="44.644" lon="5.19003">
        <ele>1356</ele>
        <time>2026-05-25T12:07:07.000Z</time>
      </trkpt>
      <trkpt lat="44.644" lon="5.19001">
        <ele>1355</ele>
        <time>2026-05-25T12:07:08.000Z</time>
      </trkpt>
      <trkpt lat="44.64399" lon="5.18998">
        <ele>1355</ele>
        <time>2026-05-25T12:07:09.000Z</time>
      </trkpt>
      <trkpt lat="44.64399" lon="5.18997">
        <ele>1356</ele>
        <time>2026-05-25T12:07:10.000Z</time>
      </trkpt>
      <trkpt lat="44.64399" lon="5.18996">
        <ele>1355</ele>
        <time>2026-05-25T12:07:11.000Z</time>
      </trkpt>
      <trkpt lat="44.64398" lon="5.18994">
        <ele>1355</ele>
        <time>2026-05-25T12:07:12.000Z</time>
      </trkpt>
      <trkpt lat="44.64398" lon="5.18993">
        <ele>1355</ele>
        <time>2026-05-25T12:07:13.000Z</time>
      </trkpt>
      <trkpt lat="44.64398" lon="5.18991">
        <ele>1354</ele>
        <time>2026-05-25T12:07:14.000Z</time>
      </trkpt>
      <trkpt lat="44.64397" lon="5.18989">
        <ele>1354</ele>
        <time>2026-05-25T12:07:15.000Z</time>
      </trkpt>
      <trkpt lat="44.64397" lon="5.18988">
        <ele>1354</ele>
        <time>2026-05-25T12:07:16.000Z</time>
      </trkpt>
      <trkpt lat="44.64397" lon="5.18986">
        <ele>1354</ele>
        <time>2026-05-25T12:07:17.000Z</time>
      </trkpt>
      <trkpt lat="44.64396" lon="5.18985">
        <ele>1354</ele>
        <time>2026-05-25T12:07:18.000Z</time>
      </trkpt>
      <trkpt lat="44.64396" lon="5.18984">
        <ele>1354</ele>
        <time>2026-05-25T12:07:19.000Z</time>
      </trkpt>
      <trkpt lat="44.64396" lon="5.18985">
        <ele>1353</ele>
        <time>2026-05-25T12:07:20.000Z</time>
      </trkpt>
      <trkpt lat="44.64394" lon="5.18981">
        <ele>1353</ele>
        <time>2026-05-25T12:07:21.000Z</time>
      </trkpt>
      <trkpt lat="44.64394" lon="5.18979">
        <ele>1352</ele>
        <time>2026-05-25T12:07:22.000Z</time>
      </trkpt>
      <trkpt lat="44.64394" lon="5.18979">
        <ele>1352</ele>
        <time>2026-05-25T12:07:23.000Z</time>
      </trkpt>
      <trkpt lat="44.64393" lon="5.18977">
        <ele>1352</ele>
        <time>2026-05-25T12:07:24.000Z</time>
      </trkpt>
      <trkpt lat="44.64393" lon="5.18975">
        <ele>1352</ele>
        <time>2026-05-25T12:07:25.000Z</time>
      </trkpt>
      <trkpt lat="44.64393" lon="5.18974">
        <ele>1352</ele>
        <time>2026-05-25T12:07:26.000Z</time>
      </trkpt>
      <trkpt lat="44.64393" lon="5.18972">
        <ele>1352</ele>
        <time>2026-05-25T12:07:27.000Z</time>
      </trkpt>
      <trkpt lat="44.64392" lon="5.1897">
        <ele>1352</ele>
        <time>2026-05-25T12:07:28.000Z</time>
      </trkpt>
      <trkpt lat="44.64391" lon="5.18969">
        <ele>1353</ele>
        <time>2026-05-25T12:07:29.000Z</time>
      </trkpt>
      <trkpt lat="44.6439" lon="5.18968">
        <ele>1354</ele>
        <time>2026-05-25T12:07:30.000Z</time>
      </trkpt>
      <trkpt lat="44.64389" lon="5.18966">
        <ele>1353</ele>
        <time>2026-05-25T12:07:31.000Z</time>
      </trkpt>
      <trkpt lat="44.64389" lon="5.18964">
        <ele>1353</ele>
        <time>2026-05-25T12:07:32.000Z</time>
      </trkpt>
      <trkpt lat="44.64388" lon="5.18963">
        <ele>1352</ele>
        <time>2026-05-25T12:07:33.000Z</time>
      </trkpt>
      <trkpt lat="44.64388" lon="5.18961">
        <ele>1353</ele>
        <time>2026-05-25T12:07:34.000Z</time>
      </trkpt>
      <trkpt lat="44.64387" lon="5.1896">
        <ele>1352</ele>
        <time>2026-05-25T12:07:35.000Z</time>
      </trkpt>
      <trkpt lat="44.64386" lon="5.18958">
        <ele>1352</ele>
        <time>2026-05-25T12:07:36.000Z</time>
      </trkpt>
      <trkpt lat="44.64386" lon="5.18957">
        <ele>1351</ele>
        <time>2026-05-25T12:07:37.000Z</time>
      </trkpt>
      <trkpt lat="44.64385" lon="5.18955">
        <ele>1351</ele>
        <time>2026-05-25T12:07:38.000Z</time>
      </trkpt>
      <trkpt lat="44.64385" lon="5.18953">
        <ele>1351</ele>
        <time>2026-05-25T12:07:39.000Z</time>
      </trkpt>
      <trkpt lat="44.64384" lon="5.18952">
        <ele>1350</ele>
        <time>2026-05-25T12:07:40.000Z</time>
      </trkpt>
      <trkpt lat="44.64384" lon="5.18951">
        <ele>1349</ele>
        <time>2026-05-25T12:07:41.000Z</time>
      </trkpt>
      <trkpt lat="44.64383" lon="5.1895">
        <ele>1348</ele>
        <time>2026-05-25T12:07:42.000Z</time>
      </trkpt>
      <trkpt lat="44.64382" lon="5.18948">
        <ele>1349</ele>
        <time>2026-05-25T12:07:43.000Z</time>
      </trkpt>
      <trkpt lat="44.64381" lon="5.18947">
        <ele>1348</ele>
        <time>2026-05-25T12:07:44.000Z</time>
      </trkpt>
      <trkpt lat="44.6438" lon="5.18946">
        <ele>1348</ele>
        <time>2026-05-25T12:07:45.000Z</time>
      </trkpt>
      <trkpt lat="44.6438" lon="5.18944">
        <ele>1347</ele>
        <time>2026-05-25T12:07:46.000Z</time>
      </trkpt>
      <trkpt lat="44.64379" lon="5.18942">
        <ele>1347</ele>
        <time>2026-05-25T12:07:47.000Z</time>
      </trkpt>
      <trkpt lat="44.64378" lon="5.18942">
        <ele>1347</ele>
        <time>2026-05-25T12:07:48.000Z</time>
      </trkpt>
      <trkpt lat="44.64377" lon="5.1894">
        <ele>1347</ele>
        <time>2026-05-25T12:07:49.000Z</time>
      </trkpt>
      <trkpt lat="44.64377" lon="5.18938">
        <ele>1346</ele>
        <time>2026-05-25T12:07:50.000Z</time>
      </trkpt>
      <trkpt lat="44.64376" lon="5.18936">
        <ele>1347</ele>
        <time>2026-05-25T12:07:51.000Z</time>
      </trkpt>
      <trkpt lat="44.64375" lon="5.18935">
        <ele>1347</ele>
        <time>2026-05-25T12:07:52.000Z</time>
      </trkpt>
      <trkpt lat="44.64374" lon="5.18934">
        <ele>1346</ele>
        <time>2026-05-25T12:07:53.000Z</time>
      </trkpt>
      <trkpt lat="44.64373" lon="5.18932">
        <ele>1346</ele>
        <time>2026-05-25T12:07:54.000Z</time>
      </trkpt>
      <trkpt lat="44.64372" lon="5.18931">
        <ele>1346</ele>
        <time>2026-05-25T12:07:55.000Z</time>
      </trkpt>
      <trkpt lat="44.64371" lon="5.1893">
        <ele>1346</ele>
        <time>2026-05-25T12:07:56.000Z</time>
      </trkpt>
      <trkpt lat="44.64371" lon="5.18928">
        <ele>1346</ele>
        <time>2026-05-25T12:07:57.000Z</time>
      </trkpt>
      <trkpt lat="44.6437" lon="5.18927">
        <ele>1345</ele>
        <time>2026-05-25T12:07:58.000Z</time>
      </trkpt>
      <trkpt lat="44.6437" lon="5.18925">
        <ele>1345</ele>
        <time>2026-05-25T12:07:59.000Z</time>
      </trkpt>
      <trkpt lat="44.64369" lon="5.18923">
        <ele>1345</ele>
        <time>2026-05-25T12:08:00.000Z</time>
      </trkpt>
      <trkpt lat="44.64368" lon="5.18922">
        <ele>1345</ele>
        <time>2026-05-25T12:08:01.000Z</time>
      </trkpt>
      <trkpt lat="44.64368" lon="5.18921">
        <ele>1345</ele>
        <time>2026-05-25T12:08:02.000Z</time>
      </trkpt>
      <trkpt lat="44.64367" lon="5.1892">
        <ele>1345</ele>
        <time>2026-05-25T12:08:03.000Z</time>
      </trkpt>
      <trkpt lat="44.64367" lon="5.18919">
        <ele>1346</ele>
        <time>2026-05-25T12:08:04.000Z</time>
      </trkpt>
      <trkpt lat="44.64366" lon="5.18918">
        <ele>1345</ele>
        <time>2026-05-25T12:08:05.000Z</time>
      </trkpt>
      <trkpt lat="44.64365" lon="5.18916">
        <ele>1345</ele>
        <time>2026-05-25T12:08:06.000Z</time>
      </trkpt>
      <trkpt lat="44.64365" lon="5.18915">
        <ele>1345</ele>
        <time>2026-05-25T12:08:07.000Z</time>
      </trkpt>
      <trkpt lat="44.64364" lon="5.18913">
        <ele>1344</ele>
        <time>2026-05-25T12:08:08.000Z</time>
      </trkpt>
      <trkpt lat="44.64363" lon="5.18912">
        <ele>1344</ele>
        <time>2026-05-25T12:08:09.000Z</time>
      </trkpt>
      <trkpt lat="44.64363" lon="5.1891">
        <ele>1344</ele>
        <time>2026-05-25T12:08:10.000Z</time>
      </trkpt>
      <trkpt lat="44.64362" lon="5.18909">
        <ele>1344</ele>
        <time>2026-05-25T12:08:11.000Z</time>
      </trkpt>
      <trkpt lat="44.64361" lon="5.18907">
        <ele>1344</ele>
        <time>2026-05-25T12:08:12.000Z</time>
      </trkpt>
      <trkpt lat="44.6436" lon="5.18906">
        <ele>1343</ele>
        <time>2026-05-25T12:08:13.000Z</time>
      </trkpt>
      <trkpt lat="44.64359" lon="5.18905">
        <ele>1343</ele>
        <time>2026-05-25T12:08:14.000Z</time>
      </trkpt>
      <trkpt lat="44.64358" lon="5.18903">
        <ele>1343</ele>
        <time>2026-05-25T12:08:15.000Z</time>
      </trkpt>
      <trkpt lat="44.64357" lon="5.18902">
        <ele>1343</ele>
        <time>2026-05-25T12:08:16.000Z</time>
      </trkpt>
      <trkpt lat="44.64356" lon="5.18902">
        <ele>1343</ele>
        <time>2026-05-25T12:08:17.000Z</time>
      </trkpt>
      <trkpt lat="44.64355" lon="5.18901">
        <ele>1343</ele>
        <time>2026-05-25T12:08:18.000Z</time>
      </trkpt>
      <trkpt lat="44.64355" lon="5.18899">
        <ele>1343</ele>
        <time>2026-05-25T12:08:19.000Z</time>
      </trkpt>
      <trkpt lat="44.64354" lon="5.18897">
        <ele>1343</ele>
        <time>2026-05-25T12:08:20.000Z</time>
      </trkpt>
      <trkpt lat="44.64353" lon="5.18897">
        <ele>1343</ele>
        <time>2026-05-25T12:08:21.000Z</time>
      </trkpt>
      <trkpt lat="44.64353" lon="5.18895">
        <ele>1343</ele>
        <time>2026-05-25T12:08:22.000Z</time>
      </trkpt>
      <trkpt lat="44.64352" lon="5.18893">
        <ele>1342</ele>
        <time>2026-05-25T12:08:23.000Z</time>
      </trkpt>
      <trkpt lat="44.64352" lon="5.18891">
        <ele>1343</ele>
        <time>2026-05-25T12:08:24.000Z</time>
      </trkpt>
      <trkpt lat="44.64352" lon="5.1889">
        <ele>1343</ele>
        <time>2026-05-25T12:08:25.000Z</time>
      </trkpt>
      <trkpt lat="44.64351" lon="5.18888">
        <ele>1343</ele>
        <time>2026-05-25T12:08:26.000Z</time>
      </trkpt>
      <trkpt lat="44.64351" lon="5.18887">
        <ele>1343</ele>
        <time>2026-05-25T12:08:27.000Z</time>
      </trkpt>
      <trkpt lat="44.6435" lon="5.18886">
        <ele>1343</ele>
        <time>2026-05-25T12:08:28.000Z</time>
      </trkpt>
      <trkpt lat="44.64349" lon="5.18885">
        <ele>1343</ele>
        <time>2026-05-25T12:08:29.000Z</time>
      </trkpt>
      <trkpt lat="44.64348" lon="5.18884">
        <ele>1343</ele>
        <time>2026-05-25T12:08:30.000Z</time>
      </trkpt>
      <trkpt lat="44.64347" lon="5.18883">
        <ele>1342</ele>
        <time>2026-05-25T12:08:31.000Z</time>
      </trkpt>
      <trkpt lat="44.64346" lon="5.18882">
        <ele>1342</ele>
        <time>2026-05-25T12:08:32.000Z</time>
      </trkpt>
      <trkpt lat="44.64345" lon="5.18881">
        <ele>1341</ele>
        <time>2026-05-25T12:08:33.000Z</time>
      </trkpt>
      <trkpt lat="44.64345" lon="5.1888">
        <ele>1341</ele>
        <time>2026-05-25T12:08:34.000Z</time>
      </trkpt>
      <trkpt lat="44.64344" lon="5.18879">
        <ele>1341</ele>
        <time>2026-05-25T12:08:35.000Z</time>
      </trkpt>
      <trkpt lat="44.64344" lon="5.18877">
        <ele>1342</ele>
        <time>2026-05-25T12:08:36.000Z</time>
      </trkpt>
      <trkpt lat="44.64343" lon="5.18875">
        <ele>1342</ele>
        <time>2026-05-25T12:08:37.000Z</time>
      </trkpt>
      <trkpt lat="44.64342" lon="5.18874">
        <ele>1342</ele>
        <time>2026-05-25T12:08:38.000Z</time>
      </trkpt>
      <trkpt lat="44.64342" lon="5.18873">
        <ele>1342</ele>
        <time>2026-05-25T12:08:39.000Z</time>
      </trkpt>
      <trkpt lat="44.64341" lon="5.18873">
        <ele>1342</ele>
        <time>2026-05-25T12:08:40.000Z</time>
      </trkpt>
      <trkpt lat="44.6434" lon="5.18872">
        <ele>1342</ele>
        <time>2026-05-25T12:08:41.000Z</time>
      </trkpt>
      <trkpt lat="44.64339" lon="5.1887">
        <ele>1342</ele>
        <time>2026-05-25T12:08:42.000Z</time>
      </trkpt>
      <trkpt lat="44.64338" lon="5.18869">
        <ele>1342</ele>
        <time>2026-05-25T12:08:43.000Z</time>
      </trkpt>
      <trkpt lat="44.64337" lon="5.18868">
        <ele>1342</ele>
        <time>2026-05-25T12:08:44.000Z</time>
      </trkpt>
      <trkpt lat="44.64336" lon="5.18866">
        <ele>1342</ele>
        <time>2026-05-25T12:08:45.000Z</time>
      </trkpt>
      <trkpt lat="44.64335" lon="5.18865">
        <ele>1341</ele>
        <time>2026-05-25T12:08:46.000Z</time>
      </trkpt>
      <trkpt lat="44.64334" lon="5.18863">
        <ele>1341</ele>
        <time>2026-05-25T12:08:47.000Z</time>
      </trkpt>
      <trkpt lat="44.64333" lon="5.18862">
        <ele>1341</ele>
        <time>2026-05-25T12:08:48.000Z</time>
      </trkpt>
      <trkpt lat="44.64332" lon="5.18861">
        <ele>1340</ele>
        <time>2026-05-25T12:08:49.000Z</time>
      </trkpt>
      <trkpt lat="44.64332" lon="5.1886">
        <ele>1339</ele>
        <time>2026-05-25T12:08:50.000Z</time>
      </trkpt>
      <trkpt lat="44.64331" lon="5.18858">
        <ele>1339</ele>
        <time>2026-05-25T12:08:51.000Z</time>
      </trkpt>
      <trkpt lat="44.6433" lon="5.18857">
        <ele>1339</ele>
        <time>2026-05-25T12:08:52.000Z</time>
      </trkpt>
      <trkpt lat="44.64329" lon="5.18856">
        <ele>1338</ele>
        <time>2026-05-25T12:08:53.000Z</time>
      </trkpt>
      <trkpt lat="44.64328" lon="5.18854">
        <ele>1339</ele>
        <time>2026-05-25T12:08:54.000Z</time>
      </trkpt>
      <trkpt lat="44.64328" lon="5.18852">
        <ele>1338</ele>
        <time>2026-05-25T12:08:55.000Z</time>
      </trkpt>
      <trkpt lat="44.64327" lon="5.18851">
        <ele>1339</ele>
        <time>2026-05-25T12:08:56.000Z</time>
      </trkpt>
      <trkpt lat="44.64326" lon="5.1885">
        <ele>1339</ele>
        <time>2026-05-25T12:08:57.000Z</time>
      </trkpt>
      <trkpt lat="44.64325" lon="5.18848">
        <ele>1339</ele>
        <time>2026-05-25T12:08:58.000Z</time>
      </trkpt>
      <trkpt lat="44.64324" lon="5.18846">
        <ele>1339</ele>
        <time>2026-05-25T12:08:59.000Z</time>
      </trkpt>
      <trkpt lat="44.64323" lon="5.18845">
        <ele>1339</ele>
        <time>2026-05-25T12:09:00.000Z</time>
      </trkpt>
      <trkpt lat="44.64322" lon="5.18844">
        <ele>1338</ele>
        <time>2026-05-25T12:09:01.000Z</time>
      </trkpt>
      <trkpt lat="44.64321" lon="5.18843">
        <ele>1338</ele>
        <time>2026-05-25T12:09:02.000Z</time>
      </trkpt>
      <trkpt lat="44.6432" lon="5.18842">
        <ele>1338</ele>
        <time>2026-05-25T12:09:03.000Z</time>
      </trkpt>
      <trkpt lat="44.64319" lon="5.18841">
        <ele>1338</ele>
        <time>2026-05-25T12:09:04.000Z</time>
      </trkpt>
      <trkpt lat="44.64318" lon="5.1884">
        <ele>1338</ele>
        <time>2026-05-25T12:09:05.000Z</time>
      </trkpt>
      <trkpt lat="44.64317" lon="5.18839">
        <ele>1338</ele>
        <time>2026-05-25T12:09:06.000Z</time>
      </trkpt>
      <trkpt lat="44.64317" lon="5.18838">
        <ele>1338</ele>
        <time>2026-05-25T12:09:07.000Z</time>
      </trkpt>
      <trkpt lat="44.64316" lon="5.18837">
        <ele>1338</ele>
        <time>2026-05-25T12:09:08.000Z</time>
      </trkpt>
      <trkpt lat="44.64315" lon="5.18836">
        <ele>1337</ele>
        <time>2026-05-25T12:09:09.000Z</time>
      </trkpt>
      <trkpt lat="44.64314" lon="5.18834">
        <ele>1337</ele>
        <time>2026-05-25T12:09:10.000Z</time>
      </trkpt>
      <trkpt lat="44.64313" lon="5.18833">
        <ele>1338</ele>
        <time>2026-05-25T12:09:11.000Z</time>
      </trkpt>
      <trkpt lat="44.64312" lon="5.18832">
        <ele>1338</ele>
        <time>2026-05-25T12:09:12.000Z</time>
      </trkpt>
      <trkpt lat="44.64312" lon="5.1883">
        <ele>1339</ele>
        <time>2026-05-25T12:09:13.000Z</time>
      </trkpt>
      <trkpt lat="44.64311" lon="5.18829">
        <ele>1339</ele>
        <time>2026-05-25T12:09:14.000Z</time>
      </trkpt>
      <trkpt lat="44.6431" lon="5.18827">
        <ele>1339</ele>
        <time>2026-05-25T12:09:15.000Z</time>
      </trkpt>
      <trkpt lat="44.6431" lon="5.18825">
        <ele>1338</ele>
        <time>2026-05-25T12:09:16.000Z</time>
      </trkpt>
      <trkpt lat="44.64309" lon="5.18823">
        <ele>1338</ele>
        <time>2026-05-25T12:09:17.000Z</time>
      </trkpt>
      <trkpt lat="44.64307" lon="5.18821">
        <ele>1338</ele>
        <time>2026-05-25T12:09:18.000Z</time>
      </trkpt>
      <trkpt lat="44.64306" lon="5.18821">
        <ele>1337</ele>
        <time>2026-05-25T12:09:19.000Z</time>
      </trkpt>
      <trkpt lat="44.64305" lon="5.18819">
        <ele>1337</ele>
        <time>2026-05-25T12:09:20.000Z</time>
      </trkpt>
      <trkpt lat="44.64305" lon="5.18818">
        <ele>1337</ele>
        <time>2026-05-25T12:09:21.000Z</time>
      </trkpt>
      <trkpt lat="44.64304" lon="5.18817">
        <ele>1337</ele>
        <time>2026-05-25T12:09:22.000Z</time>
      </trkpt>
      <trkpt lat="44.64304" lon="5.18815">
        <ele>1337</ele>
        <time>2026-05-25T12:09:23.000Z</time>
      </trkpt>
      <trkpt lat="44.64303" lon="5.18814">
        <ele>1337</ele>
        <time>2026-05-25T12:09:24.000Z</time>
      </trkpt>
      <trkpt lat="44.64303" lon="5.18813">
        <ele>1336</ele>
        <time>2026-05-25T12:09:25.000Z</time>
      </trkpt>
      <trkpt lat="44.64302" lon="5.18812">
        <ele>1336</ele>
        <time>2026-05-25T12:09:26.000Z</time>
      </trkpt>
      <trkpt lat="44.64301" lon="5.1881">
        <ele>1336</ele>
        <time>2026-05-25T12:09:27.000Z</time>
      </trkpt>
      <trkpt lat="44.643" lon="5.18809">
        <ele>1336</ele>
        <time>2026-05-25T12:09:28.000Z</time>
      </trkpt>
      <trkpt lat="44.643" lon="5.18808">
        <ele>1336</ele>
        <time>2026-05-25T12:09:29.000Z</time>
      </trkpt>
      <trkpt lat="44.643" lon="5.18807">
        <ele>1336</ele>
        <time>2026-05-25T12:09:30.000Z</time>
      </trkpt>
      <trkpt lat="44.64299" lon="5.18805">
        <ele>1337</ele>
        <time>2026-05-25T12:09:31.000Z</time>
      </trkpt>
      <trkpt lat="44.64298" lon="5.18804">
        <ele>1337</ele>
        <time>2026-05-25T12:09:32.000Z</time>
      </trkpt>
      <trkpt lat="44.64298" lon="5.18802">
        <ele>1337</ele>
        <time>2026-05-25T12:09:33.000Z</time>
      </trkpt>
      <trkpt lat="44.64297" lon="5.188">
        <ele>1337</ele>
        <time>2026-05-25T12:09:34.000Z</time>
      </trkpt>
      <trkpt lat="44.64296" lon="5.18799">
        <ele>1337</ele>
        <time>2026-05-25T12:09:35.000Z</time>
      </trkpt>
      <trkpt lat="44.64295" lon="5.18798">
        <ele>1336</ele>
        <time>2026-05-25T12:09:36.000Z</time>
      </trkpt>
      <trkpt lat="44.64294" lon="5.18796">
        <ele>1336</ele>
        <time>2026-05-25T12:09:37.000Z</time>
      </trkpt>
      <trkpt lat="44.64293" lon="5.18794">
        <ele>1335</ele>
        <time>2026-05-25T12:09:38.000Z</time>
      </trkpt>
      <trkpt lat="44.64293" lon="5.18793">
        <ele>1335</ele>
        <time>2026-05-25T12:09:39.000Z</time>
      </trkpt>
      <trkpt lat="44.64292" lon="5.18792">
        <ele>1334</ele>
        <time>2026-05-25T12:09:40.000Z</time>
      </trkpt>
      <trkpt lat="44.64291" lon="5.18791">
        <ele>1334</ele>
        <time>2026-05-25T12:09:41.000Z</time>
      </trkpt>
      <trkpt lat="44.64289" lon="5.18789">
        <ele>1334</ele>
        <time>2026-05-25T12:09:42.000Z</time>
      </trkpt>
      <trkpt lat="44.64289" lon="5.18788">
        <ele>1334</ele>
        <time>2026-05-25T12:09:43.000Z</time>
      </trkpt>
      <trkpt lat="44.64288" lon="5.18787">
        <ele>1334</ele>
        <time>2026-05-25T12:09:44.000Z</time>
      </trkpt>
      <trkpt lat="44.64287" lon="5.18786">
        <ele>1334</ele>
        <time>2026-05-25T12:09:45.000Z</time>
      </trkpt>
      <trkpt lat="44.64286" lon="5.18785">
        <ele>1334</ele>
        <time>2026-05-25T12:09:46.000Z</time>
      </trkpt>
      <trkpt lat="44.64286" lon="5.18784">
        <ele>1334</ele>
        <time>2026-05-25T12:09:47.000Z</time>
      </trkpt>
      <trkpt lat="44.64285" lon="5.18783">
        <ele>1334</ele>
        <time>2026-05-25T12:09:48.000Z</time>
      </trkpt>
      <trkpt lat="44.64284" lon="5.18782">
        <ele>1334</ele>
        <time>2026-05-25T12:09:49.000Z</time>
      </trkpt>
      <trkpt lat="44.64283" lon="5.18781">
        <ele>1334</ele>
        <time>2026-05-25T12:09:50.000Z</time>
      </trkpt>
      <trkpt lat="44.64282" lon="5.1878">
        <ele>1334</ele>
        <time>2026-05-25T12:09:51.000Z</time>
      </trkpt>
      <trkpt lat="44.64281" lon="5.18779">
        <ele>1334</ele>
        <time>2026-05-25T12:09:52.000Z</time>
      </trkpt>
      <trkpt lat="44.6428" lon="5.18777">
        <ele>1334</ele>
        <time>2026-05-25T12:09:53.000Z</time>
      </trkpt>
      <trkpt lat="44.6428" lon="5.18776">
        <ele>1334</ele>
        <time>2026-05-25T12:09:54.000Z</time>
      </trkpt>
      <trkpt lat="44.64279" lon="5.18774">
        <ele>1334</ele>
        <time>2026-05-25T12:09:55.000Z</time>
      </trkpt>
      <trkpt lat="44.64278" lon="5.18773">
        <ele>1334</ele>
        <time>2026-05-25T12:09:56.000Z</time>
      </trkpt>
      <trkpt lat="44.64277" lon="5.18771">
        <ele>1334</ele>
        <time>2026-05-25T12:09:57.000Z</time>
      </trkpt>
      <trkpt lat="44.64276" lon="5.1877">
        <ele>1334</ele>
        <time>2026-05-25T12:09:58.000Z</time>
      </trkpt>
      <trkpt lat="44.64276" lon="5.18769">
        <ele>1334</ele>
        <time>2026-05-25T12:09:59.000Z</time>
      </trkpt>
      <trkpt lat="44.64275" lon="5.18767">
        <ele>1334</ele>
        <time>2026-05-25T12:10:00.000Z</time>
      </trkpt>
      <trkpt lat="44.64274" lon="5.18766">
        <ele>1334</ele>
        <time>2026-05-25T12:10:01.000Z</time>
      </trkpt>
      <trkpt lat="44.64273" lon="5.18765">
        <ele>1334</ele>
        <time>2026-05-25T12:10:02.000Z</time>
      </trkpt>
      <trkpt lat="44.64272" lon="5.18764">
        <ele>1333</ele>
        <time>2026-05-25T12:10:03.000Z</time>
      </trkpt>
      <trkpt lat="44.64272" lon="5.18762">
        <ele>1333</ele>
        <time>2026-05-25T12:10:04.000Z</time>
      </trkpt>
      <trkpt lat="44.64271" lon="5.18761">
        <ele>1333</ele>
        <time>2026-05-25T12:10:05.000Z</time>
      </trkpt>
      <trkpt lat="44.6427" lon="5.18759">
        <ele>1333</ele>
        <time>2026-05-25T12:10:06.000Z</time>
      </trkpt>
      <trkpt lat="44.6427" lon="5.18757">
        <ele>1332</ele>
        <time>2026-05-25T12:10:07.000Z</time>
      </trkpt>
      <trkpt lat="44.64268" lon="5.18756">
        <ele>1332</ele>
        <time>2026-05-25T12:10:08.000Z</time>
      </trkpt>
      <trkpt lat="44.64267" lon="5.18754">
        <ele>1331</ele>
        <time>2026-05-25T12:10:09.000Z</time>
      </trkpt>
      <trkpt lat="44.64266" lon="5.18753">
        <ele>1331</ele>
        <time>2026-05-25T12:10:10.000Z</time>
      </trkpt>
      <trkpt lat="44.64265" lon="5.18753">
        <ele>1331</ele>
        <time>2026-05-25T12:10:11.000Z</time>
      </trkpt>
      <trkpt lat="44.64264" lon="5.18751">
        <ele>1331</ele>
        <time>2026-05-25T12:10:12.000Z</time>
      </trkpt>
      <trkpt lat="44.64264" lon="5.1875">
        <ele>1331</ele>
        <time>2026-05-25T12:10:13.000Z</time>
      </trkpt>
      <trkpt lat="44.64264" lon="5.18748">
        <ele>1331</ele>
        <time>2026-05-25T12:10:14.000Z</time>
      </trkpt>
      <trkpt lat="44.64263" lon="5.18747">
        <ele>1331</ele>
        <time>2026-05-25T12:10:15.000Z</time>
      </trkpt>
      <trkpt lat="44.64262" lon="5.18746">
        <ele>1331</ele>
        <time>2026-05-25T12:10:16.000Z</time>
      </trkpt>
      <trkpt lat="44.64262" lon="5.18745">
        <ele>1330</ele>
        <time>2026-05-25T12:10:17.000Z</time>
      </trkpt>
      <trkpt lat="44.64261" lon="5.18743">
        <ele>1330</ele>
        <time>2026-05-25T12:10:18.000Z</time>
      </trkpt>
      <trkpt lat="44.64259" lon="5.18742">
        <ele>1329</ele>
        <time>2026-05-25T12:10:19.000Z</time>
      </trkpt>
      <trkpt lat="44.64259" lon="5.18741">
        <ele>1329</ele>
        <time>2026-05-25T12:10:20.000Z</time>
      </trkpt>
      <trkpt lat="44.64258" lon="5.18739">
        <ele>1328</ele>
        <time>2026-05-25T12:10:21.000Z</time>
      </trkpt>
      <trkpt lat="44.64258" lon="5.18738">
        <ele>1328</ele>
        <time>2026-05-25T12:10:22.000Z</time>
      </trkpt>
      <trkpt lat="44.64257" lon="5.18737">
        <ele>1328</ele>
        <time>2026-05-25T12:10:23.000Z</time>
      </trkpt>
      <trkpt lat="44.64256" lon="5.18736">
        <ele>1328</ele>
        <time>2026-05-25T12:10:24.000Z</time>
      </trkpt>
      <trkpt lat="44.64255" lon="5.18734">
        <ele>1327</ele>
        <time>2026-05-25T12:10:25.000Z</time>
      </trkpt>
      <trkpt lat="44.64254" lon="5.18733">
        <ele>1327</ele>
        <time>2026-05-25T12:10:26.000Z</time>
      </trkpt>
      <trkpt lat="44.64253" lon="5.18732">
        <ele>1327</ele>
        <time>2026-05-25T12:10:27.000Z</time>
      </trkpt>
      <trkpt lat="44.64252" lon="5.18731">
        <ele>1327</ele>
        <time>2026-05-25T12:10:28.000Z</time>
      </trkpt>
      <trkpt lat="44.64251" lon="5.1873">
        <ele>1327</ele>
        <time>2026-05-25T12:10:29.000Z</time>
      </trkpt>
      <trkpt lat="44.6425" lon="5.18728">
        <ele>1326</ele>
        <time>2026-05-25T12:10:30.000Z</time>
      </trkpt>
      <trkpt lat="44.64249" lon="5.18727">
        <ele>1326</ele>
        <time>2026-05-25T12:10:31.000Z</time>
      </trkpt>
      <trkpt lat="44.64249" lon="5.18726">
        <ele>1326</ele>
        <time>2026-05-25T12:10:32.000Z</time>
      </trkpt>
      <trkpt lat="44.64249" lon="5.18724">
        <ele>1326</ele>
        <time>2026-05-25T12:10:33.000Z</time>
      </trkpt>
      <trkpt lat="44.64249" lon="5.18723">
        <ele>1327</ele>
        <time>2026-05-25T12:10:34.000Z</time>
      </trkpt>
      <trkpt lat="44.64249" lon="5.18721">
        <ele>1327</ele>
        <time>2026-05-25T12:10:35.000Z</time>
      </trkpt>
      <trkpt lat="44.6425" lon="5.18719">
        <ele>1328</ele>
        <time>2026-05-25T12:10:36.000Z</time>
      </trkpt>
      <trkpt lat="44.6425" lon="5.18719">
        <ele>1328</ele>
        <time>2026-05-25T12:10:37.000Z</time>
      </trkpt>
      <trkpt lat="44.64251" lon="5.18718">
        <ele>1328</ele>
        <time>2026-05-25T12:10:38.000Z</time>
      </trkpt>
      <trkpt lat="44.64252" lon="5.18718">
        <ele>1328</ele>
        <time>2026-05-25T12:10:39.000Z</time>
      </trkpt>
      <trkpt lat="44.64253" lon="5.18718">
        <ele>1328</ele>
        <time>2026-05-25T12:10:40.000Z</time>
      </trkpt>
      <trkpt lat="44.64254" lon="5.18718">
        <ele>1328</ele>
        <time>2026-05-25T12:10:41.000Z</time>
      </trkpt>
      <trkpt lat="44.64256" lon="5.18719">
        <ele>1328</ele>
        <time>2026-05-25T12:10:42.000Z</time>
      </trkpt>
      <trkpt lat="44.64257" lon="5.18719">
        <ele>1328</ele>
        <time>2026-05-25T12:10:43.000Z</time>
      </trkpt>
      <trkpt lat="44.64257" lon="5.1872">
        <ele>1328</ele>
        <time>2026-05-25T12:10:44.000Z</time>
      </trkpt>
      <trkpt lat="44.64258" lon="5.1872">
        <ele>1329</ele>
        <time>2026-05-25T12:10:45.000Z</time>
      </trkpt>
      <trkpt lat="44.64259" lon="5.18721">
        <ele>1328</ele>
        <time>2026-05-25T12:10:46.000Z</time>
      </trkpt>
      <trkpt lat="44.6426" lon="5.18722">
        <ele>1329</ele>
        <time>2026-05-25T12:10:47.000Z</time>
      </trkpt>
      <trkpt lat="44.64261" lon="5.18723">
        <ele>1328</ele>
        <time>2026-05-25T12:10:48.000Z</time>
      </trkpt>
      <trkpt lat="44.64263" lon="5.18724">
        <ele>1328</ele>
        <time>2026-05-25T12:10:49.000Z</time>
      </trkpt>
      <trkpt lat="44.64264" lon="5.18724">
        <ele>1328</ele>
        <time>2026-05-25T12:10:50.000Z</time>
      </trkpt>
      <trkpt lat="44.64265" lon="5.18725">
        <ele>1328</ele>
        <time>2026-05-25T12:10:51.000Z</time>
      </trkpt>
      <trkpt lat="44.64265" lon="5.18726">
        <ele>1328</ele>
        <time>2026-05-25T12:10:52.000Z</time>
      </trkpt>
      <trkpt lat="44.64266" lon="5.18727">
        <ele>1328</ele>
        <time>2026-05-25T12:10:53.000Z</time>
      </trkpt>
      <trkpt lat="44.64267" lon="5.18728">
        <ele>1328</ele>
        <time>2026-05-25T12:10:54.000Z</time>
      </trkpt>
      <trkpt lat="44.64268" lon="5.18729">
        <ele>1327</ele>
        <time>2026-05-25T12:10:55.000Z</time>
      </trkpt>
      <trkpt lat="44.6427" lon="5.1873">
        <ele>1327</ele>
        <time>2026-05-25T12:10:56.000Z</time>
      </trkpt>
      <trkpt lat="44.64271" lon="5.18731">
        <ele>1328</ele>
        <time>2026-05-25T12:10:57.000Z</time>
      </trkpt>
      <trkpt lat="44.64272" lon="5.18733">
        <ele>1327</ele>
        <time>2026-05-25T12:10:58.000Z</time>
      </trkpt>
      <trkpt lat="44.64273" lon="5.18733">
        <ele>1327</ele>
        <time>2026-05-25T12:10:59.000Z</time>
      </trkpt>
      <trkpt lat="44.64274" lon="5.18735">
        <ele>1327</ele>
        <time>2026-05-25T12:11:00.000Z</time>
      </trkpt>
      <trkpt lat="44.64274" lon="5.18736">
        <ele>1327</ele>
        <time>2026-05-25T12:11:01.000Z</time>
      </trkpt>
      <trkpt lat="44.64275" lon="5.18737">
        <ele>1327</ele>
        <time>2026-05-25T12:11:02.000Z</time>
      </trkpt>
      <trkpt lat="44.64276" lon="5.18738">
        <ele>1327</ele>
        <time>2026-05-25T12:11:03.000Z</time>
      </trkpt>
      <trkpt lat="44.64277" lon="5.1874">
        <ele>1327</ele>
        <time>2026-05-25T12:11:04.000Z</time>
      </trkpt>
      <trkpt lat="44.64278" lon="5.18741">
        <ele>1327</ele>
        <time>2026-05-25T12:11:05.000Z</time>
      </trkpt>
      <trkpt lat="44.64279" lon="5.18742">
        <ele>1328</ele>
        <time>2026-05-25T12:11:06.000Z</time>
      </trkpt>
      <trkpt lat="44.6428" lon="5.18744">
        <ele>1328</ele>
        <time>2026-05-25T12:11:07.000Z</time>
      </trkpt>
      <trkpt lat="44.6428" lon="5.18745">
        <ele>1328</ele>
        <time>2026-05-25T12:11:08.000Z</time>
      </trkpt>
      <trkpt lat="44.64281" lon="5.18746">
        <ele>1328</ele>
        <time>2026-05-25T12:11:09.000Z</time>
      </trkpt>
      <trkpt lat="44.64282" lon="5.18747">
        <ele>1328</ele>
        <time>2026-05-25T12:11:10.000Z</time>
      </trkpt>
      <trkpt lat="44.64283" lon="5.18748">
        <ele>1327</ele>
        <time>2026-05-25T12:11:11.000Z</time>
      </trkpt>
      <trkpt lat="44.64284" lon="5.1875">
        <ele>1327</ele>
        <time>2026-05-25T12:11:12.000Z</time>
      </trkpt>
      <trkpt lat="44.64285" lon="5.18752">
        <ele>1328</ele>
        <time>2026-05-25T12:11:13.000Z</time>
      </trkpt>
      <trkpt lat="44.64285" lon="5.18753">
        <ele>1328</ele>
        <time>2026-05-25T12:11:14.000Z</time>
      </trkpt>
      <trkpt lat="44.64286" lon="5.18754">
        <ele>1327</ele>
        <time>2026-05-25T12:11:15.000Z</time>
      </trkpt>
      <trkpt lat="44.64287" lon="5.18755">
        <ele>1328</ele>
        <time>2026-05-25T12:11:16.000Z</time>
      </trkpt>
      <trkpt lat="44.64288" lon="5.18756">
        <ele>1328</ele>
        <time>2026-05-25T12:11:17.000Z</time>
      </trkpt>
      <trkpt lat="44.64289" lon="5.18757">
        <ele>1328</ele>
        <time>2026-05-25T12:11:18.000Z</time>
      </trkpt>
      <trkpt lat="44.6429" lon="5.18757">
        <ele>1327</ele>
        <time>2026-05-25T12:11:19.000Z</time>
      </trkpt>
      <trkpt lat="44.6429" lon="5.18757">
        <ele>1326</ele>
        <time>2026-05-25T12:11:20.000Z</time>
      </trkpt>
      <trkpt lat="44.6429" lon="5.18757">
        <ele>1326</ele>
        <time>2026-05-25T12:11:21.000Z</time>
      </trkpt>
      <trkpt lat="44.6429" lon="5.18757">
        <ele>1326</ele>
        <time>2026-05-25T12:11:22.000Z</time>
      </trkpt>
      <trkpt lat="44.6429" lon="5.18757">
        <ele>1326</ele>
        <time>2026-05-25T12:11:23.000Z</time>
      </trkpt>
      <trkpt lat="44.6429" lon="5.18757">
        <ele>1326</ele>
        <time>2026-05-25T12:11:24.000Z</time>
      </trkpt>
      <trkpt lat="44.6429" lon="5.18757">
        <ele>1326</ele>
        <time>2026-05-25T12:11:25.000Z</time>
      </trkpt>
      <trkpt lat="44.6429" lon="5.18757">
        <ele>1326</ele>
        <time>2026-05-25T12:11:26.000Z</time>
      </trkpt>
      <trkpt lat="44.6429" lon="5.18757">
        <ele>1326</ele>
        <time>2026-05-25T12:11:27.000Z</time>
      </trkpt>
      <trkpt lat="44.6429" lon="5.18757">
        <ele>1326</ele>
        <time>2026-05-25T12:11:28.000Z</time>
      </trkpt>
      <trkpt lat="44.6429" lon="5.18758">
        <ele>1326</ele>
        <time>2026-05-25T12:11:29.000Z</time>
      </trkpt>
      <trkpt lat="44.64291" lon="5.18759">
        <ele>1326</ele>
        <time>2026-05-25T12:11:30.000Z</time>
      </trkpt>
      <trkpt lat="44.64292" lon="5.18761">
        <ele>1326</ele>
        <time>2026-05-25T12:11:31.000Z</time>
      </trkpt>
      <trkpt lat="44.64292" lon="5.18762">
        <ele>1325</ele>
        <time>2026-05-25T12:11:32.000Z</time>
      </trkpt>
      <trkpt lat="44.64293" lon="5.18763">
        <ele>1325</ele>
        <time>2026-05-25T12:11:33.000Z</time>
      </trkpt>
      <trkpt lat="44.64294" lon="5.18764">
        <ele>1326</ele>
        <time>2026-05-25T12:11:34.000Z</time>
      </trkpt>
      <trkpt lat="44.64295" lon="5.18765">
        <ele>1326</ele>
        <time>2026-05-25T12:11:35.000Z</time>
      </trkpt>
      <trkpt lat="44.64295" lon="5.18767">
        <ele>1326</ele>
        <time>2026-05-25T12:11:36.000Z</time>
      </trkpt>
      <trkpt lat="44.64296" lon="5.18768">
        <ele>1326</ele>
        <time>2026-05-25T12:11:37.000Z</time>
      </trkpt>
      <trkpt lat="44.64296" lon="5.1877">
        <ele>1326</ele>
        <time>2026-05-25T12:11:38.000Z</time>
      </trkpt>
      <trkpt lat="44.64297" lon="5.18771">
        <ele>1326</ele>
        <time>2026-05-25T12:11:39.000Z</time>
      </trkpt>
      <trkpt lat="44.64298" lon="5.18772">
        <ele>1325</ele>
        <time>2026-05-25T12:11:40.000Z</time>
      </trkpt>
      <trkpt lat="44.64298" lon="5.18773">
        <ele>1324</ele>
        <time>2026-05-25T12:11:41.000Z</time>
      </trkpt>
      <trkpt lat="44.64299" lon="5.18774">
        <ele>1324</ele>
        <time>2026-05-25T12:11:42.000Z</time>
      </trkpt>
      <trkpt lat="44.643" lon="5.18775">
        <ele>1324</ele>
        <time>2026-05-25T12:11:43.000Z</time>
      </trkpt>
      <trkpt lat="44.64302" lon="5.18776">
        <ele>1324</ele>
        <time>2026-05-25T12:11:44.000Z</time>
      </trkpt>
      <trkpt lat="44.64303" lon="5.18778">
        <ele>1324</ele>
        <time>2026-05-25T12:11:45.000Z</time>
      </trkpt>
      <trkpt lat="44.64304" lon="5.18779">
        <ele>1324</ele>
        <time>2026-05-25T12:11:46.000Z</time>
      </trkpt>
      <trkpt lat="44.64305" lon="5.18779">
        <ele>1324</ele>
        <time>2026-05-25T12:11:47.000Z</time>
      </trkpt>
      <trkpt lat="44.64305" lon="5.18781">
        <ele>1324</ele>
        <time>2026-05-25T12:11:48.000Z</time>
      </trkpt>
      <trkpt lat="44.64306" lon="5.18783">
        <ele>1324</ele>
        <time>2026-05-25T12:11:49.000Z</time>
      </trkpt>
      <trkpt lat="44.64307" lon="5.18784">
        <ele>1324</ele>
        <time>2026-05-25T12:11:50.000Z</time>
      </trkpt>
      <trkpt lat="44.64307" lon="5.18786">
        <ele>1324</ele>
        <time>2026-05-25T12:11:51.000Z</time>
      </trkpt>
      <trkpt lat="44.64308" lon="5.18787">
        <ele>1325</ele>
        <time>2026-05-25T12:11:52.000Z</time>
      </trkpt>
      <trkpt lat="44.64309" lon="5.18787">
        <ele>1325</ele>
        <time>2026-05-25T12:11:53.000Z</time>
      </trkpt>
      <trkpt lat="44.6431" lon="5.18788">
        <ele>1325</ele>
        <time>2026-05-25T12:11:54.000Z</time>
      </trkpt>
      <trkpt lat="44.6431" lon="5.1879">
        <ele>1324</ele>
        <time>2026-05-25T12:11:55.000Z</time>
      </trkpt>
      <trkpt lat="44.64312" lon="5.18791">
        <ele>1323</ele>
        <time>2026-05-25T12:11:56.000Z</time>
      </trkpt>
      <trkpt lat="44.64313" lon="5.18791">
        <ele>1323</ele>
        <time>2026-05-25T12:11:57.000Z</time>
      </trkpt>
      <trkpt lat="44.64314" lon="5.18792">
        <ele>1323</ele>
        <time>2026-05-25T12:11:58.000Z</time>
      </trkpt>
      <trkpt lat="44.64315" lon="5.18793">
        <ele>1323</ele>
        <time>2026-05-25T12:11:59.000Z</time>
      </trkpt>
      <trkpt lat="44.64316" lon="5.18794">
        <ele>1323</ele>
        <time>2026-05-25T12:12:00.000Z</time>
      </trkpt>
      <trkpt lat="44.64317" lon="5.18795">
        <ele>1323</ele>
        <time>2026-05-25T12:12:01.000Z</time>
      </trkpt>
      <trkpt lat="44.64318" lon="5.18796">
        <ele>1323</ele>
        <time>2026-05-25T12:12:02.000Z</time>
      </trkpt>
      <trkpt lat="44.64319" lon="5.18797">
        <ele>1324</ele>
        <time>2026-05-25T12:12:03.000Z</time>
      </trkpt>
      <trkpt lat="44.6432" lon="5.18798">
        <ele>1324</ele>
        <time>2026-05-25T12:12:04.000Z</time>
      </trkpt>
      <trkpt lat="44.64321" lon="5.18799">
        <ele>1325</ele>
        <time>2026-05-25T12:12:05.000Z</time>
      </trkpt>
      <trkpt lat="44.64323" lon="5.188">
        <ele>1325</ele>
        <time>2026-05-25T12:12:06.000Z</time>
      </trkpt>
      <trkpt lat="44.64324" lon="5.188">
        <ele>1324</ele>
        <time>2026-05-25T12:12:07.000Z</time>
      </trkpt>
      <trkpt lat="44.64325" lon="5.18801">
        <ele>1324</ele>
        <time>2026-05-25T12:12:08.000Z</time>
      </trkpt>
      <trkpt lat="44.64326" lon="5.18802">
        <ele>1323</ele>
        <time>2026-05-25T12:12:09.000Z</time>
      </trkpt>
      <trkpt lat="44.64326" lon="5.18803">
        <ele>1323</ele>
        <time>2026-05-25T12:12:10.000Z</time>
      </trkpt>
      <trkpt lat="44.64328" lon="5.18804">
        <ele>1323</ele>
        <time>2026-05-25T12:12:11.000Z</time>
      </trkpt>
      <trkpt lat="44.64329" lon="5.18805">
        <ele>1323</ele>
        <time>2026-05-25T12:12:12.000Z</time>
      </trkpt>
      <trkpt lat="44.6433" lon="5.18806">
        <ele>1324</ele>
        <time>2026-05-25T12:12:13.000Z</time>
      </trkpt>
      <trkpt lat="44.64331" lon="5.18806">
        <ele>1324</ele>
        <time>2026-05-25T12:12:14.000Z</time>
      </trkpt>
      <trkpt lat="44.64332" lon="5.18807">
        <ele>1324</ele>
        <time>2026-05-25T12:12:15.000Z</time>
      </trkpt>
      <trkpt lat="44.64333" lon="5.18808">
        <ele>1323</ele>
        <time>2026-05-25T12:12:16.000Z</time>
      </trkpt>
      <trkpt lat="44.64334" lon="5.1881">
        <ele>1323</ele>
        <time>2026-05-25T12:12:17.000Z</time>
      </trkpt>
      <trkpt lat="44.64335" lon="5.18812">
        <ele>1322</ele>
        <time>2026-05-25T12:12:18.000Z</time>
      </trkpt>
      <trkpt lat="44.64336" lon="5.18813">
        <ele>1322</ele>
        <time>2026-05-25T12:12:19.000Z</time>
      </trkpt>
      <trkpt lat="44.64337" lon="5.18813">
        <ele>1321</ele>
        <time>2026-05-25T12:12:20.000Z</time>
      </trkpt>
      <trkpt lat="44.64338" lon="5.18814">
        <ele>1321</ele>
        <time>2026-05-25T12:12:21.000Z</time>
      </trkpt>
      <trkpt lat="44.64339" lon="5.18814">
        <ele>1321</ele>
        <time>2026-05-25T12:12:22.000Z</time>
      </trkpt>
      <trkpt lat="44.6434" lon="5.18816">
        <ele>1320</ele>
        <time>2026-05-25T12:12:23.000Z</time>
      </trkpt>
      <trkpt lat="44.6434" lon="5.18817">
        <ele>1320</ele>
        <time>2026-05-25T12:12:24.000Z</time>
      </trkpt>
      <trkpt lat="44.6434" lon="5.18818">
        <ele>1320</ele>
        <time>2026-05-25T12:12:25.000Z</time>
      </trkpt>
      <trkpt lat="44.64341" lon="5.18818">
        <ele>1320</ele>
        <time>2026-05-25T12:12:26.000Z</time>
      </trkpt>
      <trkpt lat="44.64342" lon="5.18819">
        <ele>1321</ele>
        <time>2026-05-25T12:12:27.000Z</time>
      </trkpt>
      <trkpt lat="44.64343" lon="5.18821">
        <ele>1320</ele>
        <time>2026-05-25T12:12:28.000Z</time>
      </trkpt>
      <trkpt lat="44.64344" lon="5.18821">
        <ele>1320</ele>
        <time>2026-05-25T12:12:29.000Z</time>
      </trkpt>
      <trkpt lat="44.64345" lon="5.18822">
        <ele>1320</ele>
        <time>2026-05-25T12:12:30.000Z</time>
      </trkpt>
      <trkpt lat="44.64347" lon="5.18822">
        <ele>1319</ele>
        <time>2026-05-25T12:12:31.000Z</time>
      </trkpt>
      <trkpt lat="44.64348" lon="5.18822">
        <ele>1319</ele>
        <time>2026-05-25T12:12:32.000Z</time>
      </trkpt>
      <trkpt lat="44.64348" lon="5.18823">
        <ele>1320</ele>
        <time>2026-05-25T12:12:33.000Z</time>
      </trkpt>
      <trkpt lat="44.64349" lon="5.18824">
        <ele>1319</ele>
        <time>2026-05-25T12:12:34.000Z</time>
      </trkpt>
      <trkpt lat="44.6435" lon="5.18825">
        <ele>1319</ele>
        <time>2026-05-25T12:12:35.000Z</time>
      </trkpt>
      <trkpt lat="44.64351" lon="5.18826">
        <ele>1320</ele>
        <time>2026-05-25T12:12:36.000Z</time>
      </trkpt>
      <trkpt lat="44.64352" lon="5.18827">
        <ele>1318</ele>
        <time>2026-05-25T12:12:37.000Z</time>
      </trkpt>
      <trkpt lat="44.64352" lon="5.18828">
        <ele>1320</ele>
        <time>2026-05-25T12:12:38.000Z</time>
      </trkpt>
      <trkpt lat="44.64353" lon="5.18828">
        <ele>1320</ele>
        <time>2026-05-25T12:12:39.000Z</time>
      </trkpt>
      <trkpt lat="44.64355" lon="5.1883">
        <ele>1320</ele>
        <time>2026-05-25T12:12:40.000Z</time>
      </trkpt>
      <trkpt lat="44.64356" lon="5.18831">
        <ele>1320</ele>
        <time>2026-05-25T12:12:41.000Z</time>
      </trkpt>
      <trkpt lat="44.64358" lon="5.18832">
        <ele>1319</ele>
        <time>2026-05-25T12:12:42.000Z</time>
      </trkpt>
      <trkpt lat="44.64359" lon="5.18832">
        <ele>1319</ele>
        <time>2026-05-25T12:12:43.000Z</time>
      </trkpt>
      <trkpt lat="44.6436" lon="5.18833">
        <ele>1319</ele>
        <time>2026-05-25T12:12:44.000Z</time>
      </trkpt>
      <trkpt lat="44.64361" lon="5.18834">
        <ele>1320</ele>
        <time>2026-05-25T12:12:45.000Z</time>
      </trkpt>
      <trkpt lat="44.64362" lon="5.18834">
        <ele>1320</ele>
        <time>2026-05-25T12:12:46.000Z</time>
      </trkpt>
      <trkpt lat="44.64362" lon="5.18835">
        <ele>1319</ele>
        <time>2026-05-25T12:12:47.000Z</time>
      </trkpt>
      <trkpt lat="44.64363" lon="5.18837">
        <ele>1319</ele>
        <time>2026-05-25T12:12:48.000Z</time>
      </trkpt>
      <trkpt lat="44.64363" lon="5.18838">
        <ele>1319</ele>
        <time>2026-05-25T12:12:49.000Z</time>
      </trkpt>
      <trkpt lat="44.64364" lon="5.18839">
        <ele>1319</ele>
        <time>2026-05-25T12:12:50.000Z</time>
      </trkpt>
      <trkpt lat="44.64365" lon="5.18839">
        <ele>1319</ele>
        <time>2026-05-25T12:12:51.000Z</time>
      </trkpt>
      <trkpt lat="44.64366" lon="5.1884">
        <ele>1318</ele>
        <time>2026-05-25T12:12:52.000Z</time>
      </trkpt>
      <trkpt lat="44.64367" lon="5.18841">
        <ele>1318</ele>
        <time>2026-05-25T12:12:53.000Z</time>
      </trkpt>
      <trkpt lat="44.64368" lon="5.18842">
        <ele>1316</ele>
        <time>2026-05-25T12:12:54.000Z</time>
      </trkpt>
      <trkpt lat="44.64368" lon="5.18843">
        <ele>1316</ele>
        <time>2026-05-25T12:12:55.000Z</time>
      </trkpt>
      <trkpt lat="44.64369" lon="5.18844">
        <ele>1316</ele>
        <time>2026-05-25T12:12:56.000Z</time>
      </trkpt>
      <trkpt lat="44.6437" lon="5.18845">
        <ele>1316</ele>
        <time>2026-05-25T12:12:57.000Z</time>
      </trkpt>
      <trkpt lat="44.6437" lon="5.18845">
        <ele>1317</ele>
        <time>2026-05-25T12:12:58.000Z</time>
      </trkpt>
      <trkpt lat="44.64371" lon="5.18846">
        <ele>1316</ele>
        <time>2026-05-25T12:12:59.000Z</time>
      </trkpt>
      <trkpt lat="44.64372" lon="5.18846">
        <ele>1315</ele>
        <time>2026-05-25T12:13:00.000Z</time>
      </trkpt>
      <trkpt lat="44.64373" lon="5.18847">
        <ele>1315</ele>
        <time>2026-05-25T12:13:01.000Z</time>
      </trkpt>
      <trkpt lat="44.64374" lon="5.18848">
        <ele>1315</ele>
        <time>2026-05-25T12:13:02.000Z</time>
      </trkpt>
      <trkpt lat="44.64375" lon="5.18848">
        <ele>1316</ele>
        <time>2026-05-25T12:13:03.000Z</time>
      </trkpt>
      <trkpt lat="44.64377" lon="5.18849">
        <ele>1315</ele>
        <time>2026-05-25T12:13:04.000Z</time>
      </trkpt>
      <trkpt lat="44.64378" lon="5.1885">
        <ele>1315</ele>
        <time>2026-05-25T12:13:05.000Z</time>
      </trkpt>
      <trkpt lat="44.64379" lon="5.18852">
        <ele>1315</ele>
        <time>2026-05-25T12:13:06.000Z</time>
      </trkpt>
      <trkpt lat="44.64381" lon="5.18852">
        <ele>1314</ele>
        <time>2026-05-25T12:13:07.000Z</time>
      </trkpt>
      <trkpt lat="44.64382" lon="5.18853">
        <ele>1314</ele>
        <time>2026-05-25T12:13:08.000Z</time>
      </trkpt>
      <trkpt lat="44.64383" lon="5.18855">
        <ele>1314</ele>
        <time>2026-05-25T12:13:09.000Z</time>
      </trkpt>
      <trkpt lat="44.64385" lon="5.18857">
        <ele>1313</ele>
        <time>2026-05-25T12:13:10.000Z</time>
      </trkpt>
      <trkpt lat="44.64386" lon="5.18858">
        <ele>1313</ele>
        <time>2026-05-25T12:13:11.000Z</time>
      </trkpt>
      <trkpt lat="44.64387" lon="5.18859">
        <ele>1313</ele>
        <time>2026-05-25T12:13:12.000Z</time>
      </trkpt>
      <trkpt lat="44.64388" lon="5.1886">
        <ele>1313</ele>
        <time>2026-05-25T12:13:13.000Z</time>
      </trkpt>
      <trkpt lat="44.64389" lon="5.18861">
        <ele>1313</ele>
        <time>2026-05-25T12:13:14.000Z</time>
      </trkpt>
      <trkpt lat="44.6439" lon="5.18862">
        <ele>1313</ele>
        <time>2026-05-25T12:13:15.000Z</time>
      </trkpt>
      <trkpt lat="44.64391" lon="5.18863">
        <ele>1314</ele>
        <time>2026-05-25T12:13:16.000Z</time>
      </trkpt>
      <trkpt lat="44.64392" lon="5.18864">
        <ele>1314</ele>
        <time>2026-05-25T12:13:17.000Z</time>
      </trkpt>
      <trkpt lat="44.64393" lon="5.18865">
        <ele>1313</ele>
        <time>2026-05-25T12:13:18.000Z</time>
      </trkpt>
      <trkpt lat="44.64395" lon="5.18866">
        <ele>1313</ele>
        <time>2026-05-25T12:13:19.000Z</time>
      </trkpt>
      <trkpt lat="44.64396" lon="5.18867">
        <ele>1312</ele>
        <time>2026-05-25T12:13:20.000Z</time>
      </trkpt>
      <trkpt lat="44.64396" lon="5.18867">
        <ele>1312</ele>
        <time>2026-05-25T12:13:21.000Z</time>
      </trkpt>
      <trkpt lat="44.64397" lon="5.18868">
        <ele>1311</ele>
        <time>2026-05-25T12:13:22.000Z</time>
      </trkpt>
      <trkpt lat="44.64398" lon="5.18869">
        <ele>1311</ele>
        <time>2026-05-25T12:13:23.000Z</time>
      </trkpt>
      <trkpt lat="44.64399" lon="5.18871">
        <ele>1310</ele>
        <time>2026-05-25T12:13:24.000Z</time>
      </trkpt>
      <trkpt lat="44.644" lon="5.18871">
        <ele>1311</ele>
        <time>2026-05-25T12:13:25.000Z</time>
      </trkpt>
      <trkpt lat="44.64401" lon="5.18872">
        <ele>1311</ele>
        <time>2026-05-25T12:13:26.000Z</time>
      </trkpt>
      <trkpt lat="44.64402" lon="5.18873">
        <ele>1311</ele>
        <time>2026-05-25T12:13:27.000Z</time>
      </trkpt>
      <trkpt lat="44.64403" lon="5.18874">
        <ele>1311</ele>
        <time>2026-05-25T12:13:28.000Z</time>
      </trkpt>
      <trkpt lat="44.64404" lon="5.18875">
        <ele>1311</ele>
        <time>2026-05-25T12:13:29.000Z</time>
      </trkpt>
      <trkpt lat="44.64405" lon="5.18876">
        <ele>1311</ele>
        <time>2026-05-25T12:13:30.000Z</time>
      </trkpt>
      <trkpt lat="44.64406" lon="5.18877">
        <ele>1310</ele>
        <time>2026-05-25T12:13:31.000Z</time>
      </trkpt>
      <trkpt lat="44.64407" lon="5.18878">
        <ele>1310</ele>
        <time>2026-05-25T12:13:32.000Z</time>
      </trkpt>
      <trkpt lat="44.64409" lon="5.18878">
        <ele>1310</ele>
        <time>2026-05-25T12:13:33.000Z</time>
      </trkpt>
      <trkpt lat="44.6441" lon="5.18879">
        <ele>1310</ele>
        <time>2026-05-25T12:13:34.000Z</time>
      </trkpt>
      <trkpt lat="44.64411" lon="5.1888">
        <ele>1310</ele>
        <time>2026-05-25T12:13:35.000Z</time>
      </trkpt>
      <trkpt lat="44.64412" lon="5.1888">
        <ele>1310</ele>
        <time>2026-05-25T12:13:36.000Z</time>
      </trkpt>
      <trkpt lat="44.64413" lon="5.18881">
        <ele>1310</ele>
        <time>2026-05-25T12:13:37.000Z</time>
      </trkpt>
      <trkpt lat="44.64413" lon="5.18883">
        <ele>1311</ele>
        <time>2026-05-25T12:13:38.000Z</time>
      </trkpt>
      <trkpt lat="44.64414" lon="5.18884">
        <ele>1310</ele>
        <time>2026-05-25T12:13:39.000Z</time>
      </trkpt>
      <trkpt lat="44.64415" lon="5.18885">
        <ele>1310</ele>
        <time>2026-05-25T12:13:40.000Z</time>
      </trkpt>
      <trkpt lat="44.64416" lon="5.18887">
        <ele>1311</ele>
        <time>2026-05-25T12:13:41.000Z</time>
      </trkpt>
      <trkpt lat="44.64416" lon="5.18888">
        <ele>1311</ele>
        <time>2026-05-25T12:13:42.000Z</time>
      </trkpt>
      <trkpt lat="44.64417" lon="5.18888">
        <ele>1311</ele>
        <time>2026-05-25T12:13:43.000Z</time>
      </trkpt>
      <trkpt lat="44.64418" lon="5.18889">
        <ele>1310</ele>
        <time>2026-05-25T12:13:44.000Z</time>
      </trkpt>
      <trkpt lat="44.64419" lon="5.18889">
        <ele>1310</ele>
        <time>2026-05-25T12:13:45.000Z</time>
      </trkpt>
      <trkpt lat="44.64421" lon="5.18891">
        <ele>1308</ele>
        <time>2026-05-25T12:13:46.000Z</time>
      </trkpt>
      <trkpt lat="44.64422" lon="5.18893">
        <ele>1309</ele>
        <time>2026-05-25T12:13:47.000Z</time>
      </trkpt>
      <trkpt lat="44.64423" lon="5.18895">
        <ele>1309</ele>
        <time>2026-05-25T12:13:48.000Z</time>
      </trkpt>
      <trkpt lat="44.64424" lon="5.18896">
        <ele>1308</ele>
        <time>2026-05-25T12:13:49.000Z</time>
      </trkpt>
      <trkpt lat="44.64425" lon="5.18897">
        <ele>1307</ele>
        <time>2026-05-25T12:13:50.000Z</time>
      </trkpt>
      <trkpt lat="44.64427" lon="5.18899">
        <ele>1307</ele>
        <time>2026-05-25T12:13:51.000Z</time>
      </trkpt>
      <trkpt lat="44.64428" lon="5.189">
        <ele>1307</ele>
        <time>2026-05-25T12:13:52.000Z</time>
      </trkpt>
      <trkpt lat="44.64429" lon="5.18901">
        <ele>1307</ele>
        <time>2026-05-25T12:13:53.000Z</time>
      </trkpt>
      <trkpt lat="44.64429" lon="5.18903">
        <ele>1307</ele>
        <time>2026-05-25T12:13:54.000Z</time>
      </trkpt>
      <trkpt lat="44.6443" lon="5.18904">
        <ele>1307</ele>
        <time>2026-05-25T12:13:55.000Z</time>
      </trkpt>
      <trkpt lat="44.6443" lon="5.18906">
        <ele>1306</ele>
        <time>2026-05-25T12:13:56.000Z</time>
      </trkpt>
      <trkpt lat="44.64431" lon="5.18906">
        <ele>1306</ele>
        <time>2026-05-25T12:13:57.000Z</time>
      </trkpt>
      <trkpt lat="44.64432" lon="5.18907">
        <ele>1306</ele>
        <time>2026-05-25T12:13:58.000Z</time>
      </trkpt>
      <trkpt lat="44.64433" lon="5.18909">
        <ele>1305</ele>
        <time>2026-05-25T12:13:59.000Z</time>
      </trkpt>
      <trkpt lat="44.64434" lon="5.18909">
        <ele>1304</ele>
        <time>2026-05-25T12:14:00.000Z</time>
      </trkpt>
      <trkpt lat="44.64435" lon="5.1891">
        <ele>1304</ele>
        <time>2026-05-25T12:14:01.000Z</time>
      </trkpt>
      <trkpt lat="44.64435" lon="5.18912">
        <ele>1304</ele>
        <time>2026-05-25T12:14:02.000Z</time>
      </trkpt>
      <trkpt lat="44.64436" lon="5.18913">
        <ele>1304</ele>
        <time>2026-05-25T12:14:03.000Z</time>
      </trkpt>
      <trkpt lat="44.64437" lon="5.18914">
        <ele>1305</ele>
        <time>2026-05-25T12:14:04.000Z</time>
      </trkpt>
      <trkpt lat="44.64438" lon="5.18916">
        <ele>1305</ele>
        <time>2026-05-25T12:14:05.000Z</time>
      </trkpt>
      <trkpt lat="44.64438" lon="5.18917">
        <ele>1305</ele>
        <time>2026-05-25T12:14:06.000Z</time>
      </trkpt>
      <trkpt lat="44.64439" lon="5.18918">
        <ele>1305</ele>
        <time>2026-05-25T12:14:07.000Z</time>
      </trkpt>
      <trkpt lat="44.64439" lon="5.18919">
        <ele>1305</ele>
        <time>2026-05-25T12:14:08.000Z</time>
      </trkpt>
      <trkpt lat="44.6444" lon="5.1892">
        <ele>1305</ele>
        <time>2026-05-25T12:14:09.000Z</time>
      </trkpt>
      <trkpt lat="44.64441" lon="5.18922">
        <ele>1305</ele>
        <time>2026-05-25T12:14:10.000Z</time>
      </trkpt>
      <trkpt lat="44.64442" lon="5.18923">
        <ele>1306</ele>
        <time>2026-05-25T12:14:11.000Z</time>
      </trkpt>
      <trkpt lat="44.64443" lon="5.18924">
        <ele>1306</ele>
        <time>2026-05-25T12:14:12.000Z</time>
      </trkpt>
      <trkpt lat="44.64444" lon="5.18924">
        <ele>1307</ele>
        <time>2026-05-25T12:14:13.000Z</time>
      </trkpt>
      <trkpt lat="44.64444" lon="5.18925">
        <ele>1307</ele>
        <time>2026-05-25T12:14:14.000Z</time>
      </trkpt>
      <trkpt lat="44.64445" lon="5.18926">
        <ele>1307</ele>
        <time>2026-05-25T12:14:15.000Z</time>
      </trkpt>
      <trkpt lat="44.64446" lon="5.18927">
        <ele>1307</ele>
        <time>2026-05-25T12:14:16.000Z</time>
      </trkpt>
      <trkpt lat="44.64447" lon="5.18928">
        <ele>1307</ele>
        <time>2026-05-25T12:14:17.000Z</time>
      </trkpt>
      <trkpt lat="44.64448" lon="5.18929">
        <ele>1307</ele>
        <time>2026-05-25T12:14:18.000Z</time>
      </trkpt>
      <trkpt lat="44.6445" lon="5.1893">
        <ele>1308</ele>
        <time>2026-05-25T12:14:19.000Z</time>
      </trkpt>
      <trkpt lat="44.64451" lon="5.18931">
        <ele>1308</ele>
        <time>2026-05-25T12:14:20.000Z</time>
      </trkpt>
      <trkpt lat="44.64452" lon="5.18932">
        <ele>1308</ele>
        <time>2026-05-25T12:14:21.000Z</time>
      </trkpt>
      <trkpt lat="44.64452" lon="5.18933">
        <ele>1307</ele>
        <time>2026-05-25T12:14:22.000Z</time>
      </trkpt>
      <trkpt lat="44.64453" lon="5.18934">
        <ele>1307</ele>
        <time>2026-05-25T12:14:23.000Z</time>
      </trkpt>
      <trkpt lat="44.64454" lon="5.18936">
        <ele>1306</ele>
        <time>2026-05-25T12:14:24.000Z</time>
      </trkpt>
      <trkpt lat="44.64454" lon="5.18938">
        <ele>1306</ele>
        <time>2026-05-25T12:14:25.000Z</time>
      </trkpt>
      <trkpt lat="44.64455" lon="5.18939">
        <ele>1305</ele>
        <time>2026-05-25T12:14:26.000Z</time>
      </trkpt>
      <trkpt lat="44.64456" lon="5.1894">
        <ele>1305</ele>
        <time>2026-05-25T12:14:27.000Z</time>
      </trkpt>
      <trkpt lat="44.64457" lon="5.18941">
        <ele>1306</ele>
        <time>2026-05-25T12:14:28.000Z</time>
      </trkpt>
      <trkpt lat="44.64458" lon="5.18942">
        <ele>1305</ele>
        <time>2026-05-25T12:14:29.000Z</time>
      </trkpt>
      <trkpt lat="44.6446" lon="5.18943">
        <ele>1304</ele>
        <time>2026-05-25T12:14:30.000Z</time>
      </trkpt>
      <trkpt lat="44.64461" lon="5.18944">
        <ele>1303</ele>
        <time>2026-05-25T12:14:31.000Z</time>
      </trkpt>
      <trkpt lat="44.64462" lon="5.18945">
        <ele>1301</ele>
        <time>2026-05-25T12:14:32.000Z</time>
      </trkpt>
      <trkpt lat="44.64463" lon="5.18946">
        <ele>1301</ele>
        <time>2026-05-25T12:14:33.000Z</time>
      </trkpt>
      <trkpt lat="44.64464" lon="5.18948">
        <ele>1301</ele>
        <time>2026-05-25T12:14:34.000Z</time>
      </trkpt>
      <trkpt lat="44.64465" lon="5.1895">
        <ele>1300</ele>
        <time>2026-05-25T12:14:35.000Z</time>
      </trkpt>
      <trkpt lat="44.64466" lon="5.18951">
        <ele>1300</ele>
        <time>2026-05-25T12:14:36.000Z</time>
      </trkpt>
      <trkpt lat="44.64467" lon="5.18952">
        <ele>1300</ele>
        <time>2026-05-25T12:14:37.000Z</time>
      </trkpt>
      <trkpt lat="44.64468" lon="5.18953">
        <ele>1299</ele>
        <time>2026-05-25T12:14:38.000Z</time>
      </trkpt>
      <trkpt lat="44.64469" lon="5.18955">
        <ele>1300</ele>
        <time>2026-05-25T12:14:39.000Z</time>
      </trkpt>
      <trkpt lat="44.6447" lon="5.18956">
        <ele>1300</ele>
        <time>2026-05-25T12:14:40.000Z</time>
      </trkpt>
      <trkpt lat="44.6447" lon="5.18957">
        <ele>1300</ele>
        <time>2026-05-25T12:14:41.000Z</time>
      </trkpt>
      <trkpt lat="44.64471" lon="5.18959">
        <ele>1300</ele>
        <time>2026-05-25T12:14:42.000Z</time>
      </trkpt>
      <trkpt lat="44.64472" lon="5.18959">
        <ele>1298</ele>
        <time>2026-05-25T12:14:43.000Z</time>
      </trkpt>
      <trkpt lat="44.64474" lon="5.18959">
        <ele>1297</ele>
        <time>2026-05-25T12:14:44.000Z</time>
      </trkpt>
      <trkpt lat="44.64475" lon="5.18961">
        <ele>1298</ele>
        <time>2026-05-25T12:14:45.000Z</time>
      </trkpt>
      <trkpt lat="44.64476" lon="5.18962">
        <ele>1297</ele>
        <time>2026-05-25T12:14:46.000Z</time>
      </trkpt>
      <trkpt lat="44.64476" lon="5.18964">
        <ele>1297</ele>
        <time>2026-05-25T12:14:47.000Z</time>
      </trkpt>
      <trkpt lat="44.64477" lon="5.18965">
        <ele>1298</ele>
        <time>2026-05-25T12:14:48.000Z</time>
      </trkpt>
      <trkpt lat="44.64478" lon="5.18966">
        <ele>1298</ele>
        <time>2026-05-25T12:14:49.000Z</time>
      </trkpt>
      <trkpt lat="44.64479" lon="5.18967">
        <ele>1298</ele>
        <time>2026-05-25T12:14:50.000Z</time>
      </trkpt>
      <trkpt lat="44.64481" lon="5.18968">
        <ele>1298</ele>
        <time>2026-05-25T12:14:51.000Z</time>
      </trkpt>
      <trkpt lat="44.64481" lon="5.18969">
        <ele>1298</ele>
        <time>2026-05-25T12:14:52.000Z</time>
      </trkpt>
      <trkpt lat="44.64483" lon="5.18971">
        <ele>1297</ele>
        <time>2026-05-25T12:14:53.000Z</time>
      </trkpt>
      <trkpt lat="44.64483" lon="5.18972">
        <ele>1297</ele>
        <time>2026-05-25T12:14:54.000Z</time>
      </trkpt>
      <trkpt lat="44.64484" lon="5.18975">
        <ele>1297</ele>
        <time>2026-05-25T12:14:55.000Z</time>
      </trkpt>
      <trkpt lat="44.64484" lon="5.18976">
        <ele>1297</ele>
        <time>2026-05-25T12:14:56.000Z</time>
      </trkpt>
      <trkpt lat="44.64485" lon="5.18977">
        <ele>1297</ele>
        <time>2026-05-25T12:14:57.000Z</time>
      </trkpt>
      <trkpt lat="44.64486" lon="5.18978">
        <ele>1298</ele>
        <time>2026-05-25T12:14:58.000Z</time>
      </trkpt>
      <trkpt lat="44.64486" lon="5.18979">
        <ele>1298</ele>
        <time>2026-05-25T12:14:59.000Z</time>
      </trkpt>
      <trkpt lat="44.64486" lon="5.1898">
        <ele>1298</ele>
        <time>2026-05-25T12:15:00.000Z</time>
      </trkpt>
      <trkpt lat="44.64487" lon="5.18982">
        <ele>1298</ele>
        <time>2026-05-25T12:15:01.000Z</time>
      </trkpt>
      <trkpt lat="44.64488" lon="5.18983">
        <ele>1299</ele>
        <time>2026-05-25T12:15:02.000Z</time>
      </trkpt>
      <trkpt lat="44.64489" lon="5.18984">
        <ele>1299</ele>
        <time>2026-05-25T12:15:03.000Z</time>
      </trkpt>
      <trkpt lat="44.64489" lon="5.18985">
        <ele>1298</ele>
        <time>2026-05-25T12:15:04.000Z</time>
      </trkpt>
      <trkpt lat="44.64491" lon="5.18988">
        <ele>1300</ele>
        <time>2026-05-25T12:15:05.000Z</time>
      </trkpt>
      <trkpt lat="44.64491" lon="5.18989">
        <ele>1300</ele>
        <time>2026-05-25T12:15:06.000Z</time>
      </trkpt>
      <trkpt lat="44.64492" lon="5.18991">
        <ele>1299</ele>
        <time>2026-05-25T12:15:07.000Z</time>
      </trkpt>
      <trkpt lat="44.64493" lon="5.18992">
        <ele>1300</ele>
        <time>2026-05-25T12:15:08.000Z</time>
      </trkpt>
      <trkpt lat="44.64494" lon="5.18993">
        <ele>1298</ele>
        <time>2026-05-25T12:15:09.000Z</time>
      </trkpt>
      <trkpt lat="44.64495" lon="5.18994">
        <ele>1299</ele>
        <time>2026-05-25T12:15:10.000Z</time>
      </trkpt>
      <trkpt lat="44.64496" lon="5.18996">
        <ele>1299</ele>
        <time>2026-05-25T12:15:11.000Z</time>
      </trkpt>
      <trkpt lat="44.64496" lon="5.18997">
        <ele>1298</ele>
        <time>2026-05-25T12:15:12.000Z</time>
      </trkpt>
      <trkpt lat="44.64497" lon="5.18998">
        <ele>1299</ele>
        <time>2026-05-25T12:15:13.000Z</time>
      </trkpt>
      <trkpt lat="44.64498" lon="5.19">
        <ele>1299</ele>
        <time>2026-05-25T12:15:14.000Z</time>
      </trkpt>
      <trkpt lat="44.64498" lon="5.19001">
        <ele>1299</ele>
        <time>2026-05-25T12:15:15.000Z</time>
      </trkpt>
      <trkpt lat="44.645" lon="5.19002">
        <ele>1299</ele>
        <time>2026-05-25T12:15:16.000Z</time>
      </trkpt>
      <trkpt lat="44.64501" lon="5.19003">
        <ele>1297</ele>
        <time>2026-05-25T12:15:17.000Z</time>
      </trkpt>
      <trkpt lat="44.64503" lon="5.19003">
        <ele>1297</ele>
        <time>2026-05-25T12:15:18.000Z</time>
      </trkpt>
      <trkpt lat="44.64505" lon="5.19003">
        <ele>1298</ele>
        <time>2026-05-25T12:15:19.000Z</time>
      </trkpt>
      <trkpt lat="44.64505" lon="5.19004">
        <ele>1297</ele>
        <time>2026-05-25T12:15:20.000Z</time>
      </trkpt>
      <trkpt lat="44.64506" lon="5.19005">
        <ele>1298</ele>
        <time>2026-05-25T12:15:21.000Z</time>
      </trkpt>
      <trkpt lat="44.64506" lon="5.19006">
        <ele>1298</ele>
        <time>2026-05-25T12:15:22.000Z</time>
      </trkpt>
      <trkpt lat="44.64507" lon="5.19008">
        <ele>1299</ele>
        <time>2026-05-25T12:15:23.000Z</time>
      </trkpt>
      <trkpt lat="44.64508" lon="5.19009">
        <ele>1298</ele>
        <time>2026-05-25T12:15:24.000Z</time>
      </trkpt>
      <trkpt lat="44.64508" lon="5.19009">
        <ele>1299</ele>
        <time>2026-05-25T12:15:25.000Z</time>
      </trkpt>
      <trkpt lat="44.64509" lon="5.1901">
        <ele>1300</ele>
        <time>2026-05-25T12:15:26.000Z</time>
      </trkpt>
      <trkpt lat="44.6451" lon="5.1901">
        <ele>1299</ele>
        <time>2026-05-25T12:15:27.000Z</time>
      </trkpt>
      <trkpt lat="44.64511" lon="5.19012">
        <ele>1300</ele>
        <time>2026-05-25T12:15:28.000Z</time>
      </trkpt>
      <trkpt lat="44.64512" lon="5.19012">
        <ele>1301</ele>
        <time>2026-05-25T12:15:29.000Z</time>
      </trkpt>
      <trkpt lat="44.64513" lon="5.19014">
        <ele>1301</ele>
        <time>2026-05-25T12:15:30.000Z</time>
      </trkpt>
      <trkpt lat="44.64514" lon="5.19014">
        <ele>1301</ele>
        <time>2026-05-25T12:15:31.000Z</time>
      </trkpt>
      <trkpt lat="44.64514" lon="5.19015">
        <ele>1301</ele>
        <time>2026-05-25T12:15:32.000Z</time>
      </trkpt>
      <trkpt lat="44.64515" lon="5.19015">
        <ele>1301</ele>
        <time>2026-05-25T12:15:33.000Z</time>
      </trkpt>
      <trkpt lat="44.64516" lon="5.19016">
        <ele>1300</ele>
        <time>2026-05-25T12:15:34.000Z</time>
      </trkpt>
      <trkpt lat="44.64516" lon="5.19018">
        <ele>1300</ele>
        <time>2026-05-25T12:15:35.000Z</time>
      </trkpt>
      <trkpt lat="44.64517" lon="5.19018">
        <ele>1300</ele>
        <time>2026-05-25T12:15:36.000Z</time>
      </trkpt>
      <trkpt lat="44.64518" lon="5.19019">
        <ele>1301</ele>
        <time>2026-05-25T12:15:37.000Z</time>
      </trkpt>
      <trkpt lat="44.64519" lon="5.1902">
        <ele>1301</ele>
        <time>2026-05-25T12:15:38.000Z</time>
      </trkpt>
      <trkpt lat="44.6452" lon="5.19021">
        <ele>1300</ele>
        <time>2026-05-25T12:15:39.000Z</time>
      </trkpt>
      <trkpt lat="44.6452" lon="5.19021">
        <ele>1300</ele>
        <time>2026-05-25T12:15:40.000Z</time>
      </trkpt>
      <trkpt lat="44.64522" lon="5.19022">
        <ele>1300</ele>
        <time>2026-05-25T12:15:41.000Z</time>
      </trkpt>
      <trkpt lat="44.64523" lon="5.19022">
        <ele>1299</ele>
        <time>2026-05-25T12:15:42.000Z</time>
      </trkpt>
      <trkpt lat="44.64524" lon="5.19022">
        <ele>1299</ele>
        <time>2026-05-25T12:15:43.000Z</time>
      </trkpt>
      <trkpt lat="44.64525" lon="5.19022">
        <ele>1299</ele>
        <time>2026-05-25T12:15:44.000Z</time>
      </trkpt>
      <trkpt lat="44.64526" lon="5.19022">
        <ele>1299</ele>
        <time>2026-05-25T12:15:45.000Z</time>
      </trkpt>
      <trkpt lat="44.64526" lon="5.19022">
        <ele>1298</ele>
        <time>2026-05-25T12:15:46.000Z</time>
      </trkpt>
      <trkpt lat="44.64527" lon="5.19022">
        <ele>1298</ele>
        <time>2026-05-25T12:15:47.000Z</time>
      </trkpt>
      <trkpt lat="44.64527" lon="5.19022">
        <ele>1298</ele>
        <time>2026-05-25T12:15:48.000Z</time>
      </trkpt>
      <trkpt lat="44.64528" lon="5.19023">
        <ele>1298</ele>
        <time>2026-05-25T12:15:49.000Z</time>
      </trkpt>
      <trkpt lat="44.64529" lon="5.19022">
        <ele>1297</ele>
        <time>2026-05-25T12:15:50.000Z</time>
      </trkpt>
      <trkpt lat="44.6453" lon="5.19022">
        <ele>1297</ele>
        <time>2026-05-25T12:15:51.000Z</time>
      </trkpt>
      <trkpt lat="44.64529" lon="5.19021">
        <ele>1298</ele>
        <time>2026-05-25T12:15:52.000Z</time>
      </trkpt>
      <trkpt lat="44.6453" lon="5.1902">
        <ele>1297</ele>
        <time>2026-05-25T12:15:53.000Z</time>
      </trkpt>
      <trkpt lat="44.64531" lon="5.19018">
        <ele>1296</ele>
        <time>2026-05-25T12:15:54.000Z</time>
      </trkpt>
      <trkpt lat="44.64532" lon="5.19017">
        <ele>1295</ele>
        <time>2026-05-25T12:15:55.000Z</time>
      </trkpt>
      <trkpt lat="44.64533" lon="5.19015">
        <ele>1294</ele>
        <time>2026-05-25T12:15:56.000Z</time>
      </trkpt>
      <trkpt lat="44.64535" lon="5.19013">
        <ele>1293</ele>
        <time>2026-05-25T12:15:57.000Z</time>
      </trkpt>
      <trkpt lat="44.64536" lon="5.19011">
        <ele>1292</ele>
        <time>2026-05-25T12:15:58.000Z</time>
      </trkpt>
      <trkpt lat="44.64537" lon="5.19009">
        <ele>1291</ele>
        <time>2026-05-25T12:15:59.000Z</time>
      </trkpt>
      <trkpt lat="44.64538" lon="5.19008">
        <ele>1291</ele>
        <time>2026-05-25T12:16:00.000Z</time>
      </trkpt>
      <trkpt lat="44.64538" lon="5.19007">
        <ele>1290</ele>
        <time>2026-05-25T12:16:01.000Z</time>
      </trkpt>
      <trkpt lat="44.64539" lon="5.19007">
        <ele>1290</ele>
        <time>2026-05-25T12:16:02.000Z</time>
      </trkpt>
      <trkpt lat="44.64539" lon="5.19007">
        <ele>1290</ele>
        <time>2026-05-25T12:16:03.000Z</time>
      </trkpt>
      <trkpt lat="44.6454" lon="5.19005">
        <ele>1291</ele>
        <time>2026-05-25T12:16:04.000Z</time>
      </trkpt>
      <trkpt lat="44.6454" lon="5.19004">
        <ele>1290</ele>
        <time>2026-05-25T12:16:05.000Z</time>
      </trkpt>
      <trkpt lat="44.64541" lon="5.19003">
        <ele>1289</ele>
        <time>2026-05-25T12:16:06.000Z</time>
      </trkpt>
      <trkpt lat="44.64542" lon="5.19002">
        <ele>1289</ele>
        <time>2026-05-25T12:16:07.000Z</time>
      </trkpt>
      <trkpt lat="44.64543" lon="5.19002">
        <ele>1290</ele>
        <time>2026-05-25T12:16:08.000Z</time>
      </trkpt>
      <trkpt lat="44.64544" lon="5.19001">
        <ele>1290</ele>
        <time>2026-05-25T12:16:09.000Z</time>
      </trkpt>
      <trkpt lat="44.64544" lon="5.19001">
        <ele>1290</ele>
        <time>2026-05-25T12:16:10.000Z</time>
      </trkpt>
      <trkpt lat="44.64546" lon="5.18999">
        <ele>1290</ele>
        <time>2026-05-25T12:16:11.000Z</time>
      </trkpt>
      <trkpt lat="44.64546" lon="5.18999">
        <ele>1290</ele>
        <time>2026-05-25T12:16:12.000Z</time>
      </trkpt>
      <trkpt lat="44.64547" lon="5.18999">
        <ele>1292</ele>
        <time>2026-05-25T12:16:13.000Z</time>
      </trkpt>
      <trkpt lat="44.64548" lon="5.18999">
        <ele>1291</ele>
        <time>2026-05-25T12:16:14.000Z</time>
      </trkpt>
      <trkpt lat="44.64548" lon="5.18999">
        <ele>1291</ele>
        <time>2026-05-25T12:16:15.000Z</time>
      </trkpt>
      <trkpt lat="44.64548" lon="5.18999">
        <ele>1291</ele>
        <time>2026-05-25T12:16:16.000Z</time>
      </trkpt>
      <trkpt lat="44.64548" lon="5.18999">
        <ele>1291</ele>
        <time>2026-05-25T12:16:17.000Z</time>
      </trkpt>
      <trkpt lat="44.64548" lon="5.18999">
        <ele>1291</ele>
        <time>2026-05-25T12:16:18.000Z</time>
      </trkpt>
      <trkpt lat="44.64548" lon="5.18999">
        <ele>1291</ele>
        <time>2026-05-25T12:16:19.000Z</time>
      </trkpt>
      <trkpt lat="44.64548" lon="5.18999">
        <ele>1291</ele>
        <time>2026-05-25T12:16:20.000Z</time>
      </trkpt>
      <trkpt lat="44.64548" lon="5.18999">
        <ele>1291</ele>
        <time>2026-05-25T12:16:21.000Z</time>
      </trkpt>
      <trkpt lat="44.64548" lon="5.18999">
        <ele>1291</ele>
        <time>2026-05-25T12:16:22.000Z</time>
      </trkpt>
      <trkpt lat="44.64546" lon="5.19002">
        <ele>1293</ele>
        <time>2026-05-25T12:16:23.000Z</time>
      </trkpt>
      <trkpt lat="44.64546" lon="5.19002">
        <ele>1293</ele>
        <time>2026-05-25T12:16:24.000Z</time>
      </trkpt>
      <trkpt lat="44.64546" lon="5.19002">
        <ele>1293</ele>
        <time>2026-05-25T12:16:25.000Z</time>
      </trkpt>
      <trkpt lat="44.64546" lon="5.19002">
        <ele>1293</ele>
        <time>2026-05-25T12:16:26.000Z</time>
      </trkpt>
      <trkpt lat="44.64546" lon="5.19002">
        <ele>1293</ele>
        <time>2026-05-25T12:16:27.000Z</time>
      </trkpt>
      <trkpt lat="44.64546" lon="5.19002">
        <ele>1293</ele>
        <time>2026-05-25T12:16:28.000Z</time>
      </trkpt>
      <trkpt lat="44.64546" lon="5.19002">
        <ele>1293</ele>
        <time>2026-05-25T12:16:29.000Z</time>
      </trkpt>
      <trkpt lat="44.64546" lon="5.19002">
        <ele>1293</ele>
        <time>2026-05-25T12:16:30.000Z</time>
      </trkpt>
      <trkpt lat="44.64546" lon="5.19002">
        <ele>1293</ele>
        <time>2026-05-25T12:16:31.000Z</time>
      </trkpt>
      <trkpt lat="44.64546" lon="5.19002">
        <ele>1293</ele>
        <time>2026-05-25T12:16:32.000Z</time>
      </trkpt>
      <trkpt lat="44.64546" lon="5.19002">
        <ele>1293</ele>
        <time>2026-05-25T12:16:33.000Z</time>
      </trkpt>
      <trkpt lat="44.64546" lon="5.19002">
        <ele>1293</ele>
        <time>2026-05-25T12:16:34.000Z</time>
      </trkpt>
      <trkpt lat="44.64546" lon="5.19002">
        <ele>1293</ele>
        <time>2026-05-25T12:16:35.000Z</time>
      </trkpt>
      <trkpt lat="44.64546" lon="5.19002">
        <ele>1293</ele>
        <time>2026-05-25T12:16:36.000Z</time>
      </trkpt>
      <trkpt lat="44.64546" lon="5.19002">
        <ele>1293</ele>
        <time>2026-05-25T12:16:37.000Z</time>
      </trkpt>
      <trkpt lat="44.64546" lon="5.19002">
        <ele>1293</ele>
        <time>2026-05-25T12:16:38.000Z</time>
      </trkpt>
      <trkpt lat="44.64546" lon="5.19002">
        <ele>1293</ele>
        <time>2026-05-25T12:16:39.000Z</time>
      </trkpt>
      <trkpt lat="44.64547" lon="5.19003">
        <ele>1293</ele>
        <time>2026-05-25T12:16:40.000Z</time>
      </trkpt>
      <trkpt lat="44.64548" lon="5.19003">
        <ele>1293</ele>
        <time>2026-05-25T12:16:41.000Z</time>
      </trkpt>
      <trkpt lat="44.64548" lon="5.19003">
        <ele>1293</ele>
        <time>2026-05-25T12:16:42.000Z</time>
      </trkpt>
      <trkpt lat="44.64548" lon="5.19003">
        <ele>1293</ele>
        <time>2026-05-25T12:16:43.000Z</time>
      </trkpt>
      <trkpt lat="44.64548" lon="5.19003">
        <ele>1293</ele>
        <time>2026-05-25T12:16:44.000Z</time>
      </trkpt>
      <trkpt lat="44.64548" lon="5.19003">
        <ele>1293</ele>
        <time>2026-05-25T12:16:45.000Z</time>
      </trkpt>
      <trkpt lat="44.64548" lon="5.19003">
        <ele>1293</ele>
        <time>2026-05-25T12:16:46.000Z</time>
      </trkpt>
      <trkpt lat="44.64548" lon="5.19003">
        <ele>1293</ele>
        <time>2026-05-25T12:16:47.000Z</time>
      </trkpt>
      <trkpt lat="44.64548" lon="5.19002">
        <ele>1293</ele>
        <time>2026-05-25T12:16:48.000Z</time>
      </trkpt>
      <trkpt lat="44.64548" lon="5.19002">
        <ele>1293</ele>
        <time>2026-05-25T12:16:49.000Z</time>
      </trkpt>
      <trkpt lat="44.64548" lon="5.19002">
        <ele>1293</ele>
        <time>2026-05-25T12:16:50.000Z</time>
      </trkpt>
      <trkpt lat="44.64548" lon="5.19002">
        <ele>1293</ele>
        <time>2026-05-25T12:16:51.000Z</time>
      </trkpt>
      <trkpt lat="44.64548" lon="5.19002">
        <ele>1293</ele>
        <time>2026-05-25T12:16:52.000Z</time>
      </trkpt>
      <trkpt lat="44.64548" lon="5.19002">
        <ele>1293</ele>
        <time>2026-05-25T12:16:53.000Z</time>
      </trkpt>
      <trkpt lat="44.64548" lon="5.19002">
        <ele>1293</ele>
        <time>2026-05-25T12:16:54.000Z</time>
      </trkpt>
      <trkpt lat="44.64548" lon="5.19002">
        <ele>1293</ele>
        <time>2026-05-25T12:16:55.000Z</time>
      </trkpt>
      <trkpt lat="44.64548" lon="5.19002">
        <ele>1293</ele>
        <time>2026-05-25T12:16:56.000Z</time>
      </trkpt>
      <trkpt lat="44.64548" lon="5.19002">
        <ele>1293</ele>
        <time>2026-05-25T12:16:57.000Z</time>
      </trkpt>
      <trkpt lat="44.64549" lon="5.19003">
        <ele>1294</ele>
        <time>2026-05-25T12:16:58.000Z</time>
      </trkpt>
      <trkpt lat="44.64549" lon="5.19003">
        <ele>1294</ele>
        <time>2026-05-25T12:16:59.000Z</time>
      </trkpt>
      <trkpt lat="44.64549" lon="5.19003">
        <ele>1294</ele>
        <time>2026-05-25T12:17:00.000Z</time>
      </trkpt>
      <trkpt lat="44.6455" lon="5.19003">
        <ele>1294</ele>
        <time>2026-05-25T12:17:01.000Z</time>
      </trkpt>
      <trkpt lat="44.6455" lon="5.19004">
        <ele>1295</ele>
        <time>2026-05-25T12:17:02.000Z</time>
      </trkpt>
      <trkpt lat="44.6455" lon="5.19005">
        <ele>1295</ele>
        <time>2026-05-25T12:17:03.000Z</time>
      </trkpt>
      <trkpt lat="44.64551" lon="5.19005">
        <ele>1295</ele>
        <time>2026-05-25T12:17:04.000Z</time>
      </trkpt>
      <trkpt lat="44.64551" lon="5.19005">
        <ele>1295</ele>
        <time>2026-05-25T12:17:05.000Z</time>
      </trkpt>
      <trkpt lat="44.64551" lon="5.19005">
        <ele>1295</ele>
        <time>2026-05-25T12:17:06.000Z</time>
      </trkpt>
      <trkpt lat="44.64551" lon="5.19005">
        <ele>1295</ele>
        <time>2026-05-25T12:17:07.000Z</time>
      </trkpt>
      <trkpt lat="44.64551" lon="5.19005">
        <ele>1295</ele>
        <time>2026-05-25T12:17:08.000Z</time>
      </trkpt>
      <trkpt lat="44.64551" lon="5.19005">
        <ele>1295</ele>
        <time>2026-05-25T12:17:09.000Z</time>
      </trkpt>
      <trkpt lat="44.64551" lon="5.19005">
        <ele>1295</ele>
        <time>2026-05-25T12:17:10.000Z</time>
      </trkpt>
      <trkpt lat="44.64551" lon="5.19004">
        <ele>1293</ele>
        <time>2026-05-25T12:17:11.000Z</time>
      </trkpt>
      <trkpt lat="44.64551" lon="5.19002">
        <ele>1291</ele>
        <time>2026-05-25T12:17:12.000Z</time>
      </trkpt>
      <trkpt lat="44.64551" lon="5.19002">
        <ele>1286</ele>
        <time>2026-05-25T12:17:13.000Z</time>
      </trkpt>
      <trkpt lat="44.64551" lon="5.19002">
        <ele>1285</ele>
        <time>2026-05-25T12:17:14.000Z</time>
      </trkpt>
      <trkpt lat="44.6455" lon="5.19002">
        <ele>1284</ele>
        <time>2026-05-25T12:17:15.000Z</time>
      </trkpt>
      <trkpt lat="44.6455" lon="5.19002">
        <ele>1284</ele>
        <time>2026-05-25T12:17:16.000Z</time>
      </trkpt>
      <trkpt lat="44.6455" lon="5.19002">
        <ele>1284</ele>
        <time>2026-05-25T12:17:17.000Z</time>
      </trkpt>
      <trkpt lat="44.6455" lon="5.19002">
        <ele>1284</ele>
        <time>2026-05-25T12:17:18.000Z</time>
      </trkpt>
      <trkpt lat="44.6455" lon="5.19002">
        <ele>1284</ele>
        <time>2026-05-25T12:17:19.000Z</time>
      </trkpt>
      <trkpt lat="44.6455" lon="5.19002">
        <ele>1284</ele>
        <time>2026-05-25T12:17:20.000Z</time>
      </trkpt>
      <trkpt lat="44.6455" lon="5.19002">
        <ele>1284</ele>
        <time>2026-05-25T12:17:21.000Z</time>
      </trkpt>
      <trkpt lat="44.6455" lon="5.19002">
        <ele>1284</ele>
        <time>2026-05-25T12:17:22.000Z</time>
      </trkpt>
      <trkpt lat="44.6455" lon="5.19002">
        <ele>1284</ele>
        <time>2026-05-25T12:17:23.000Z</time>
      </trkpt>
      <trkpt lat="44.64546" lon="5.19002">
        <ele>1285</ele>
        <time>2026-05-25T12:17:24.000Z</time>
      </trkpt>
      <trkpt lat="44.64546" lon="5.19002">
        <ele>1285</ele>
        <time>2026-05-25T12:17:25.000Z</time>
      </trkpt>
      <trkpt lat="44.64546" lon="5.19002">
        <ele>1285</ele>
        <time>2026-05-25T12:17:26.000Z</time>
      </trkpt>
      <trkpt lat="44.64545" lon="5.19002">
        <ele>1284</ele>
        <time>2026-05-25T12:17:27.000Z</time>
      </trkpt>
      <trkpt lat="44.64545" lon="5.19002">
        <ele>1284</ele>
        <time>2026-05-25T12:17:28.000Z</time>
      </trkpt>
      <trkpt lat="44.64545" lon="5.19002">
        <ele>1284</ele>
        <time>2026-05-25T12:17:29.000Z</time>
      </trkpt>
      <trkpt lat="44.64545" lon="5.19002">
        <ele>1284</ele>
        <time>2026-05-25T12:17:30.000Z</time>
      </trkpt>
      <trkpt lat="44.64545" lon="5.19002">
        <ele>1284</ele>
        <time>2026-05-25T12:17:31.000Z</time>
      </trkpt>
      <trkpt lat="44.64545" lon="5.19002">
        <ele>1284</ele>
        <time>2026-05-25T12:17:32.000Z</time>
      </trkpt>
      <trkpt lat="44.64545" lon="5.19002">
        <ele>1284</ele>
        <time>2026-05-25T12:17:33.000Z</time>
      </trkpt>
      <trkpt lat="44.64545" lon="5.19002">
        <ele>1284</ele>
        <time>2026-05-25T12:17:34.000Z</time>
      </trkpt>
      <trkpt lat="44.64546" lon="5.19002">
        <ele>1285</ele>
        <time>2026-05-25T12:17:35.000Z</time>
      </trkpt>
      <trkpt lat="44.64546" lon="5.19002">
        <ele>1285</ele>
        <time>2026-05-25T12:17:36.000Z</time>
      </trkpt>
      <trkpt lat="44.64546" lon="5.19002">
        <ele>1285</ele>
        <time>2026-05-25T12:17:37.000Z</time>
      </trkpt>
      <trkpt lat="44.64546" lon="5.19002">
        <ele>1285</ele>
        <time>2026-05-25T12:17:38.000Z</time>
      </trkpt>
      <trkpt lat="44.64546" lon="5.19002">
        <ele>1285</ele>
        <time>2026-05-25T12:17:39.000Z</time>
      </trkpt>
      <trkpt lat="44.64546" lon="5.19002">
        <ele>1285</ele>
        <time>2026-05-25T12:17:40.000Z</time>
      </trkpt>
      <trkpt lat="44.64546" lon="5.19002">
        <ele>1285</ele>
        <time>2026-05-25T12:17:41.000Z</time>
      </trkpt>
      <trkpt lat="44.64546" lon="5.19002">
        <ele>1285</ele>
        <time>2026-05-25T12:17:42.000Z</time>
      </trkpt>
      <trkpt lat="44.64545" lon="5.19002">
        <ele>1285</ele>
        <time>2026-05-25T12:17:43.000Z</time>
      </trkpt>
      <trkpt lat="44.64545" lon="5.19001">
        <ele>1285</ele>
        <time>2026-05-25T12:17:44.000Z</time>
      </trkpt>
      <trkpt lat="44.64544" lon="5.19001">
        <ele>1284</ele>
        <time>2026-05-25T12:17:45.000Z</time>
      </trkpt>
      <trkpt lat="44.64544" lon="5.19001">
        <ele>1285</ele>
        <time>2026-05-25T12:17:46.000Z</time>
      </trkpt>
      <trkpt lat="44.64544" lon="5.19001">
        <ele>1285</ele>
        <time>2026-05-25T12:17:47.000Z</time>
      </trkpt>
      <trkpt lat="44.64544" lon="5.19001">
        <ele>1285</ele>
        <time>2026-05-25T12:17:48.000Z</time>
      </trkpt>
      <trkpt lat="44.64544" lon="5.19001">
        <ele>1285</ele>
        <time>2026-05-25T12:17:49.000Z</time>
      </trkpt>
      <trkpt lat="44.64544" lon="5.19001">
        <ele>1285</ele>
        <time>2026-05-25T12:17:50.000Z</time>
      </trkpt>
      <trkpt lat="44.64544" lon="5.19001">
        <ele>1285</ele>
        <time>2026-05-25T12:17:51.000Z</time>
      </trkpt>
      <trkpt lat="44.64543" lon="5.19001">
        <ele>1288</ele>
        <time>2026-05-25T12:17:52.000Z</time>
      </trkpt>
      <trkpt lat="44.64542" lon="5.19001">
        <ele>1289</ele>
        <time>2026-05-25T12:17:53.000Z</time>
      </trkpt>
      <trkpt lat="44.6454" lon="5.19001">
        <ele>1289</ele>
        <time>2026-05-25T12:17:54.000Z</time>
      </trkpt>
      <trkpt lat="44.6454" lon="5.19">
        <ele>1288</ele>
        <time>2026-05-25T12:17:55.000Z</time>
      </trkpt>
      <trkpt lat="44.64539" lon="5.19">
        <ele>1288</ele>
        <time>2026-05-25T12:17:56.000Z</time>
      </trkpt>
      <trkpt lat="44.64539" lon="5.18999">
        <ele>1287</ele>
        <time>2026-05-25T12:17:57.000Z</time>
      </trkpt>
      <trkpt lat="44.64538" lon="5.18998">
        <ele>1287</ele>
        <time>2026-05-25T12:17:58.000Z</time>
      </trkpt>
      <trkpt lat="44.64537" lon="5.18996">
        <ele>1287</ele>
        <time>2026-05-25T12:17:59.000Z</time>
      </trkpt>
      <trkpt lat="44.64537" lon="5.18994">
        <ele>1286</ele>
        <time>2026-05-25T12:18:00.000Z</time>
      </trkpt>
      <trkpt lat="44.64536" lon="5.18994">
        <ele>1286</ele>
        <time>2026-05-25T12:18:01.000Z</time>
      </trkpt>
      <trkpt lat="44.64535" lon="5.18992">
        <ele>1285</ele>
        <time>2026-05-25T12:18:02.000Z</time>
      </trkpt>
      <trkpt lat="44.64534" lon="5.1899">
        <ele>1285</ele>
        <time>2026-05-25T12:18:03.000Z</time>
      </trkpt>
      <trkpt lat="44.64534" lon="5.18989">
        <ele>1285</ele>
        <time>2026-05-25T12:18:04.000Z</time>
      </trkpt>
      <trkpt lat="44.64533" lon="5.18988">
        <ele>1285</ele>
        <time>2026-05-25T12:18:05.000Z</time>
      </trkpt>
      <trkpt lat="44.64533" lon="5.18986">
        <ele>1285</ele>
        <time>2026-05-25T12:18:06.000Z</time>
      </trkpt>
      <trkpt lat="44.64533" lon="5.18985">
        <ele>1285</ele>
        <time>2026-05-25T12:18:07.000Z</time>
      </trkpt>
      <trkpt lat="44.64532" lon="5.18985">
        <ele>1283</ele>
        <time>2026-05-25T12:18:08.000Z</time>
      </trkpt>
      <trkpt lat="44.6453" lon="5.18984">
        <ele>1284</ele>
        <time>2026-05-25T12:18:09.000Z</time>
      </trkpt>
      <trkpt lat="44.64528" lon="5.18982">
        <ele>1283</ele>
        <time>2026-05-25T12:18:10.000Z</time>
      </trkpt>
      <trkpt lat="44.64528" lon="5.18981">
        <ele>1284</ele>
        <time>2026-05-25T12:18:11.000Z</time>
      </trkpt>
      <trkpt lat="44.64527" lon="5.18979">
        <ele>1283</ele>
        <time>2026-05-25T12:18:12.000Z</time>
      </trkpt>
      <trkpt lat="44.64527" lon="5.18978">
        <ele>1283</ele>
        <time>2026-05-25T12:18:13.000Z</time>
      </trkpt>
      <trkpt lat="44.64527" lon="5.18977">
        <ele>1282</ele>
        <time>2026-05-25T12:18:14.000Z</time>
      </trkpt>
      <trkpt lat="44.64526" lon="5.18976">
        <ele>1283</ele>
        <time>2026-05-25T12:18:15.000Z</time>
      </trkpt>
      <trkpt lat="44.64526" lon="5.18975">
        <ele>1284</ele>
        <time>2026-05-25T12:18:16.000Z</time>
      </trkpt>
      <trkpt lat="44.64526" lon="5.18973">
        <ele>1283</ele>
        <time>2026-05-25T12:18:17.000Z</time>
      </trkpt>
      <trkpt lat="44.64527" lon="5.18972">
        <ele>1281</ele>
        <time>2026-05-25T12:18:18.000Z</time>
      </trkpt>
      <trkpt lat="44.64527" lon="5.18969">
        <ele>1280</ele>
        <time>2026-05-25T12:18:19.000Z</time>
      </trkpt>
      <trkpt lat="44.64527" lon="5.18968">
        <ele>1281</ele>
        <time>2026-05-25T12:18:20.000Z</time>
      </trkpt>
      <trkpt lat="44.64527" lon="5.18967">
        <ele>1280</ele>
        <time>2026-05-25T12:18:21.000Z</time>
      </trkpt>
      <trkpt lat="44.64526" lon="5.18965">
        <ele>1280</ele>
        <time>2026-05-25T12:18:22.000Z</time>
      </trkpt>
      <trkpt lat="44.64525" lon="5.18964">
        <ele>1281</ele>
        <time>2026-05-25T12:18:23.000Z</time>
      </trkpt>
      <trkpt lat="44.64524" lon="5.18963">
        <ele>1281</ele>
        <time>2026-05-25T12:18:24.000Z</time>
      </trkpt>
      <trkpt lat="44.64523" lon="5.18962">
        <ele>1281</ele>
        <time>2026-05-25T12:18:25.000Z</time>
      </trkpt>
      <trkpt lat="44.64522" lon="5.18962">
        <ele>1279</ele>
        <time>2026-05-25T12:18:26.000Z</time>
      </trkpt>
      <trkpt lat="44.64523" lon="5.18963">
        <ele>1280</ele>
        <time>2026-05-25T12:18:27.000Z</time>
      </trkpt>
      <trkpt lat="44.64524" lon="5.18963">
        <ele>1279</ele>
        <time>2026-05-25T12:18:28.000Z</time>
      </trkpt>
      <trkpt lat="44.64524" lon="5.18964">
        <ele>1280</ele>
        <time>2026-05-25T12:18:29.000Z</time>
      </trkpt>
      <trkpt lat="44.64524" lon="5.18964">
        <ele>1279</ele>
        <time>2026-05-25T12:18:30.000Z</time>
      </trkpt>
      <trkpt lat="44.64524" lon="5.18963">
        <ele>1279</ele>
        <time>2026-05-25T12:18:31.000Z</time>
      </trkpt>
      <trkpt lat="44.64523" lon="5.18962">
        <ele>1277</ele>
        <time>2026-05-25T12:18:32.000Z</time>
      </trkpt>
      <trkpt lat="44.64521" lon="5.18959">
        <ele>1277</ele>
        <time>2026-05-25T12:18:33.000Z</time>
      </trkpt>
      <trkpt lat="44.6452" lon="5.18957">
        <ele>1277</ele>
        <time>2026-05-25T12:18:34.000Z</time>
      </trkpt>
      <trkpt lat="44.64518" lon="5.18954">
        <ele>1277</ele>
        <time>2026-05-25T12:18:35.000Z</time>
      </trkpt>
      <trkpt lat="44.64517" lon="5.18953">
        <ele>1278</ele>
        <time>2026-05-25T12:18:36.000Z</time>
      </trkpt>
      <trkpt lat="44.64517" lon="5.18953">
        <ele>1278</ele>
        <time>2026-05-25T12:18:37.000Z</time>
      </trkpt>
      <trkpt lat="44.64517" lon="5.18951">
        <ele>1277</ele>
        <time>2026-05-25T12:18:38.000Z</time>
      </trkpt>
      <trkpt lat="44.64517" lon="5.18949">
        <ele>1276</ele>
        <time>2026-05-25T12:18:39.000Z</time>
      </trkpt>
      <trkpt lat="44.64518" lon="5.18947">
        <ele>1276</ele>
        <time>2026-05-25T12:18:40.000Z</time>
      </trkpt>
      <trkpt lat="44.64517" lon="5.18946">
        <ele>1277</ele>
        <time>2026-05-25T12:18:41.000Z</time>
      </trkpt>
      <trkpt lat="44.64517" lon="5.18943">
        <ele>1276</ele>
        <time>2026-05-25T12:18:42.000Z</time>
      </trkpt>
      <trkpt lat="44.64517" lon="5.18943">
        <ele>1276</ele>
        <time>2026-05-25T12:18:43.000Z</time>
      </trkpt>
      <trkpt lat="44.64517" lon="5.18943">
        <ele>1276</ele>
        <time>2026-05-25T12:18:44.000Z</time>
      </trkpt>
      <trkpt lat="44.64517" lon="5.18939">
        <ele>1274</ele>
        <time>2026-05-25T12:18:45.000Z</time>
      </trkpt>
      <trkpt lat="44.64517" lon="5.18937">
        <ele>1273</ele>
        <time>2026-05-25T12:18:46.000Z</time>
      </trkpt>
      <trkpt lat="44.64516" lon="5.18936">
        <ele>1273</ele>
        <time>2026-05-25T12:18:47.000Z</time>
      </trkpt>
      <trkpt lat="44.64515" lon="5.18933">
        <ele>1272</ele>
        <time>2026-05-25T12:18:48.000Z</time>
      </trkpt>
      <trkpt lat="44.64515" lon="5.1893">
        <ele>1272</ele>
        <time>2026-05-25T12:18:49.000Z</time>
      </trkpt>
      <trkpt lat="44.64515" lon="5.18929">
        <ele>1272</ele>
        <time>2026-05-25T12:18:50.000Z</time>
      </trkpt>
      <trkpt lat="44.64515" lon="5.18927">
        <ele>1272</ele>
        <time>2026-05-25T12:18:51.000Z</time>
      </trkpt>
      <trkpt lat="44.64515" lon="5.18925">
        <ele>1271</ele>
        <time>2026-05-25T12:18:52.000Z</time>
      </trkpt>
      <trkpt lat="44.64514" lon="5.18923">
        <ele>1270</ele>
        <time>2026-05-25T12:18:53.000Z</time>
      </trkpt>
      <trkpt lat="44.64514" lon="5.1892">
        <ele>1270</ele>
        <time>2026-05-25T12:18:54.000Z</time>
      </trkpt>
      <trkpt lat="44.64514" lon="5.18919">
        <ele>1271</ele>
        <time>2026-05-25T12:18:55.000Z</time>
      </trkpt>
      <trkpt lat="44.64513" lon="5.18917">
        <ele>1270</ele>
        <time>2026-05-25T12:18:56.000Z</time>
      </trkpt>
      <trkpt lat="44.64512" lon="5.18914">
        <ele>1270</ele>
        <time>2026-05-25T12:18:57.000Z</time>
      </trkpt>
      <trkpt lat="44.64512" lon="5.18912">
        <ele>1269</ele>
        <time>2026-05-25T12:18:58.000Z</time>
      </trkpt>
      <trkpt lat="44.64512" lon="5.1891">
        <ele>1269</ele>
        <time>2026-05-25T12:18:59.000Z</time>
      </trkpt>
      <trkpt lat="44.64512" lon="5.18909">
        <ele>1270</ele>
        <time>2026-05-25T12:19:00.000Z</time>
      </trkpt>
      <trkpt lat="44.64512" lon="5.18907">
        <ele>1268</ele>
        <time>2026-05-25T12:19:01.000Z</time>
      </trkpt>
      <trkpt lat="44.64511" lon="5.18907">
        <ele>1268</ele>
        <time>2026-05-25T12:19:02.000Z</time>
      </trkpt>
      <trkpt lat="44.64511" lon="5.18905">
        <ele>1267</ele>
        <time>2026-05-25T12:19:03.000Z</time>
      </trkpt>
      <trkpt lat="44.6451" lon="5.18905">
        <ele>1267</ele>
        <time>2026-05-25T12:19:04.000Z</time>
      </trkpt>
      <trkpt lat="44.64511" lon="5.18903">
        <ele>1267</ele>
        <time>2026-05-25T12:19:05.000Z</time>
      </trkpt>
      <trkpt lat="44.64511" lon="5.18902">
        <ele>1267</ele>
        <time>2026-05-25T12:19:06.000Z</time>
      </trkpt>
      <trkpt lat="44.64511" lon="5.18901">
        <ele>1267</ele>
        <time>2026-05-25T12:19:07.000Z</time>
      </trkpt>
      <trkpt lat="44.64511" lon="5.18899">
        <ele>1268</ele>
        <time>2026-05-25T12:19:08.000Z</time>
      </trkpt>
      <trkpt lat="44.64511" lon="5.18897">
        <ele>1268</ele>
        <time>2026-05-25T12:19:09.000Z</time>
      </trkpt>
      <trkpt lat="44.6451" lon="5.18896">
        <ele>1269</ele>
        <time>2026-05-25T12:19:10.000Z</time>
      </trkpt>
      <trkpt lat="44.64509" lon="5.18894">
        <ele>1269</ele>
        <time>2026-05-25T12:19:11.000Z</time>
      </trkpt>
      <trkpt lat="44.64508" lon="5.18892">
        <ele>1268</ele>
        <time>2026-05-25T12:19:12.000Z</time>
      </trkpt>
      <trkpt lat="44.64507" lon="5.18892">
        <ele>1269</ele>
        <time>2026-05-25T12:19:13.000Z</time>
      </trkpt>
      <trkpt lat="44.64507" lon="5.1889">
        <ele>1270</ele>
        <time>2026-05-25T12:19:14.000Z</time>
      </trkpt>
      <trkpt lat="44.64507" lon="5.18889">
        <ele>1270</ele>
        <time>2026-05-25T12:19:15.000Z</time>
      </trkpt>
      <trkpt lat="44.64506" lon="5.18887">
        <ele>1269</ele>
        <time>2026-05-25T12:19:16.000Z</time>
      </trkpt>
      <trkpt lat="44.64506" lon="5.18885">
        <ele>1269</ele>
        <time>2026-05-25T12:19:17.000Z</time>
      </trkpt>
      <trkpt lat="44.64506" lon="5.18883">
        <ele>1269</ele>
        <time>2026-05-25T12:19:18.000Z</time>
      </trkpt>
      <trkpt lat="44.64506" lon="5.18882">
        <ele>1268</ele>
        <time>2026-05-25T12:19:19.000Z</time>
      </trkpt>
      <trkpt lat="44.64505" lon="5.18881">
        <ele>1266</ele>
        <time>2026-05-25T12:19:20.000Z</time>
      </trkpt>
      <trkpt lat="44.64505" lon="5.18878">
        <ele>1266</ele>
        <time>2026-05-25T12:19:21.000Z</time>
      </trkpt>
      <trkpt lat="44.64504" lon="5.18878">
        <ele>1267</ele>
        <time>2026-05-25T12:19:22.000Z</time>
      </trkpt>
      <trkpt lat="44.64503" lon="5.18877">
        <ele>1267</ele>
        <time>2026-05-25T12:19:23.000Z</time>
      </trkpt>
      <trkpt lat="44.64503" lon="5.18876">
        <ele>1267</ele>
        <time>2026-05-25T12:19:24.000Z</time>
      </trkpt>
      <trkpt lat="44.64502" lon="5.18875">
        <ele>1265</ele>
        <time>2026-05-25T12:19:25.000Z</time>
      </trkpt>
      <trkpt lat="44.64502" lon="5.18872">
        <ele>1265</ele>
        <time>2026-05-25T12:19:26.000Z</time>
      </trkpt>
      <trkpt lat="44.64502" lon="5.18871">
        <ele>1265</ele>
        <time>2026-05-25T12:19:27.000Z</time>
      </trkpt>
      <trkpt lat="44.645" lon="5.18869">
        <ele>1263</ele>
        <time>2026-05-25T12:19:28.000Z</time>
      </trkpt>
      <trkpt lat="44.645" lon="5.18869">
        <ele>1262</ele>
        <time>2026-05-25T12:19:29.000Z</time>
      </trkpt>
      <trkpt lat="44.645" lon="5.18868">
        <ele>1262</ele>
        <time>2026-05-25T12:19:30.000Z</time>
      </trkpt>
      <trkpt lat="44.64499" lon="5.18866">
        <ele>1262</ele>
        <time>2026-05-25T12:19:31.000Z</time>
      </trkpt>
      <trkpt lat="44.64499" lon="5.18863">
        <ele>1260</ele>
        <time>2026-05-25T12:19:32.000Z</time>
      </trkpt>
      <trkpt lat="44.64498" lon="5.18862">
        <ele>1260</ele>
        <time>2026-05-25T12:19:33.000Z</time>
      </trkpt>
      <trkpt lat="44.64499" lon="5.1886">
        <ele>1261</ele>
        <time>2026-05-25T12:19:34.000Z</time>
      </trkpt>
      <trkpt lat="44.64499" lon="5.18859">
        <ele>1260</ele>
        <time>2026-05-25T12:19:35.000Z</time>
      </trkpt>
      <trkpt lat="44.64499" lon="5.18857">
        <ele>1260</ele>
        <time>2026-05-25T12:19:36.000Z</time>
      </trkpt>
      <trkpt lat="44.64499" lon="5.18855">
        <ele>1259</ele>
        <time>2026-05-25T12:19:37.000Z</time>
      </trkpt>
      <trkpt lat="44.64498" lon="5.18853">
        <ele>1259</ele>
        <time>2026-05-25T12:19:38.000Z</time>
      </trkpt>
      <trkpt lat="44.64498" lon="5.18852">
        <ele>1258</ele>
        <time>2026-05-25T12:19:39.000Z</time>
      </trkpt>
      <trkpt lat="44.64498" lon="5.1885">
        <ele>1257</ele>
        <time>2026-05-25T12:19:40.000Z</time>
      </trkpt>
      <trkpt lat="44.64497" lon="5.18849">
        <ele>1257</ele>
        <time>2026-05-25T12:19:41.000Z</time>
      </trkpt>
      <trkpt lat="44.64496" lon="5.18848">
        <ele>1257</ele>
        <time>2026-05-25T12:19:42.000Z</time>
      </trkpt>
      <trkpt lat="44.64496" lon="5.18847">
        <ele>1257</ele>
        <time>2026-05-25T12:19:43.000Z</time>
      </trkpt>
      <trkpt lat="44.64495" lon="5.18847">
        <ele>1258</ele>
        <time>2026-05-25T12:19:44.000Z</time>
      </trkpt>
      <trkpt lat="44.64494" lon="5.18846">
        <ele>1257</ele>
        <time>2026-05-25T12:19:45.000Z</time>
      </trkpt>
      <trkpt lat="44.64493" lon="5.18845">
        <ele>1257</ele>
        <time>2026-05-25T12:19:46.000Z</time>
      </trkpt>
      <trkpt lat="44.64493" lon="5.18843">
        <ele>1257</ele>
        <time>2026-05-25T12:19:47.000Z</time>
      </trkpt>
      <trkpt lat="44.64493" lon="5.18841">
        <ele>1257</ele>
        <time>2026-05-25T12:19:48.000Z</time>
      </trkpt>
      <trkpt lat="44.64492" lon="5.1884">
        <ele>1256</ele>
        <time>2026-05-25T12:19:49.000Z</time>
      </trkpt>
      <trkpt lat="44.64491" lon="5.18838">
        <ele>1256</ele>
        <time>2026-05-25T12:19:50.000Z</time>
      </trkpt>
      <trkpt lat="44.64491" lon="5.18837">
        <ele>1254</ele>
        <time>2026-05-25T12:19:51.000Z</time>
      </trkpt>
      <trkpt lat="44.6449" lon="5.18836">
        <ele>1254</ele>
        <time>2026-05-25T12:19:52.000Z</time>
      </trkpt>
      <trkpt lat="44.64489" lon="5.18834">
        <ele>1252</ele>
        <time>2026-05-25T12:19:53.000Z</time>
      </trkpt>
      <trkpt lat="44.64488" lon="5.18832">
        <ele>1251</ele>
        <time>2026-05-25T12:19:54.000Z</time>
      </trkpt>
      <trkpt lat="44.64488" lon="5.1883">
        <ele>1251</ele>
        <time>2026-05-25T12:19:55.000Z</time>
      </trkpt>
      <trkpt lat="44.64487" lon="5.18829">
        <ele>1251</ele>
        <time>2026-05-25T12:19:56.000Z</time>
      </trkpt>
      <trkpt lat="44.64487" lon="5.18827">
        <ele>1251</ele>
        <time>2026-05-25T12:19:57.000Z</time>
      </trkpt>
      <trkpt lat="44.64486" lon="5.18826">
        <ele>1250</ele>
        <time>2026-05-25T12:19:58.000Z</time>
      </trkpt>
      <trkpt lat="44.64486" lon="5.18825">
        <ele>1249</ele>
        <time>2026-05-25T12:19:59.000Z</time>
      </trkpt>
      <trkpt lat="44.64485" lon="5.18824">
        <ele>1249</ele>
        <time>2026-05-25T12:20:00.000Z</time>
      </trkpt>
      <trkpt lat="44.64485" lon="5.18822">
        <ele>1250</ele>
        <time>2026-05-25T12:20:01.000Z</time>
      </trkpt>
      <trkpt lat="44.64484" lon="5.18821">
        <ele>1249</ele>
        <time>2026-05-25T12:20:02.000Z</time>
      </trkpt>
      <trkpt lat="44.64484" lon="5.1882">
        <ele>1249</ele>
        <time>2026-05-25T12:20:03.000Z</time>
      </trkpt>
      <trkpt lat="44.64483" lon="5.18818">
        <ele>1249</ele>
        <time>2026-05-25T12:20:04.000Z</time>
      </trkpt>
      <trkpt lat="44.64481" lon="5.18817">
        <ele>1248</ele>
        <time>2026-05-25T12:20:05.000Z</time>
      </trkpt>
      <trkpt lat="44.6448" lon="5.18815">
        <ele>1248</ele>
        <time>2026-05-25T12:20:06.000Z</time>
      </trkpt>
      <trkpt lat="44.6448" lon="5.18814">
        <ele>1248</ele>
        <time>2026-05-25T12:20:07.000Z</time>
      </trkpt>
      <trkpt lat="44.64479" lon="5.18813">
        <ele>1248</ele>
        <time>2026-05-25T12:20:08.000Z</time>
      </trkpt>
      <trkpt lat="44.64479" lon="5.1881">
        <ele>1248</ele>
        <time>2026-05-25T12:20:09.000Z</time>
      </trkpt>
      <trkpt lat="44.64479" lon="5.18808">
        <ele>1248</ele>
        <time>2026-05-25T12:20:10.000Z</time>
      </trkpt>
      <trkpt lat="44.64479" lon="5.18807">
        <ele>1248</ele>
        <time>2026-05-25T12:20:11.000Z</time>
      </trkpt>
      <trkpt lat="44.64478" lon="5.18807">
        <ele>1249</ele>
        <time>2026-05-25T12:20:12.000Z</time>
      </trkpt>
      <trkpt lat="44.64477" lon="5.18805">
        <ele>1248</ele>
        <time>2026-05-25T12:20:13.000Z</time>
      </trkpt>
      <trkpt lat="44.64477" lon="5.18804">
        <ele>1248</ele>
        <time>2026-05-25T12:20:14.000Z</time>
      </trkpt>
      <trkpt lat="44.64475" lon="5.18804">
        <ele>1248</ele>
        <time>2026-05-25T12:20:15.000Z</time>
      </trkpt>
      <trkpt lat="44.64474" lon="5.18804">
        <ele>1250</ele>
        <time>2026-05-25T12:20:16.000Z</time>
      </trkpt>
      <trkpt lat="44.64474" lon="5.18803">
        <ele>1250</ele>
        <time>2026-05-25T12:20:17.000Z</time>
      </trkpt>
      <trkpt lat="44.64473" lon="5.18802">
        <ele>1249</ele>
        <time>2026-05-25T12:20:18.000Z</time>
      </trkpt>
      <trkpt lat="44.64473" lon="5.18802">
        <ele>1249</ele>
        <time>2026-05-25T12:20:19.000Z</time>
      </trkpt>
      <trkpt lat="44.64472" lon="5.188">
        <ele>1249</ele>
        <time>2026-05-25T12:20:20.000Z</time>
      </trkpt>
      <trkpt lat="44.64472" lon="5.18799">
        <ele>1248</ele>
        <time>2026-05-25T12:20:21.000Z</time>
      </trkpt>
      <trkpt lat="44.64472" lon="5.18798">
        <ele>1248</ele>
        <time>2026-05-25T12:20:22.000Z</time>
      </trkpt>
      <trkpt lat="44.64471" lon="5.18798">
        <ele>1248</ele>
        <time>2026-05-25T12:20:23.000Z</time>
      </trkpt>
      <trkpt lat="44.6447" lon="5.18797">
        <ele>1248</ele>
        <time>2026-05-25T12:20:24.000Z</time>
      </trkpt>
      <trkpt lat="44.64469" lon="5.18796">
        <ele>1247</ele>
        <time>2026-05-25T12:20:25.000Z</time>
      </trkpt>
      <trkpt lat="44.64468" lon="5.18795">
        <ele>1246</ele>
        <time>2026-05-25T12:20:26.000Z</time>
      </trkpt>
      <trkpt lat="44.64467" lon="5.18793">
        <ele>1247</ele>
        <time>2026-05-25T12:20:27.000Z</time>
      </trkpt>
      <trkpt lat="44.64465" lon="5.18792">
        <ele>1247</ele>
        <time>2026-05-25T12:20:28.000Z</time>
      </trkpt>
      <trkpt lat="44.64465" lon="5.1879">
        <ele>1247</ele>
        <time>2026-05-25T12:20:29.000Z</time>
      </trkpt>
      <trkpt lat="44.64464" lon="5.18789">
        <ele>1246</ele>
        <time>2026-05-25T12:20:30.000Z</time>
      </trkpt>
      <trkpt lat="44.64463" lon="5.18788">
        <ele>1246</ele>
        <time>2026-05-25T12:20:31.000Z</time>
      </trkpt>
      <trkpt lat="44.64462" lon="5.18786">
        <ele>1246</ele>
        <time>2026-05-25T12:20:32.000Z</time>
      </trkpt>
      <trkpt lat="44.64461" lon="5.18784">
        <ele>1245</ele>
        <time>2026-05-25T12:20:33.000Z</time>
      </trkpt>
      <trkpt lat="44.6446" lon="5.18782">
        <ele>1245</ele>
        <time>2026-05-25T12:20:34.000Z</time>
      </trkpt>
      <trkpt lat="44.6446" lon="5.1878">
        <ele>1245</ele>
        <time>2026-05-25T12:20:35.000Z</time>
      </trkpt>
      <trkpt lat="44.64459" lon="5.18778">
        <ele>1245</ele>
        <time>2026-05-25T12:20:36.000Z</time>
      </trkpt>
      <trkpt lat="44.64458" lon="5.18776">
        <ele>1245</ele>
        <time>2026-05-25T12:20:37.000Z</time>
      </trkpt>
      <trkpt lat="44.64457" lon="5.18775">
        <ele>1244</ele>
        <time>2026-05-25T12:20:38.000Z</time>
      </trkpt>
      <trkpt lat="44.64456" lon="5.18774">
        <ele>1244</ele>
        <time>2026-05-25T12:20:39.000Z</time>
      </trkpt>
      <trkpt lat="44.64454" lon="5.18773">
        <ele>1244</ele>
        <time>2026-05-25T12:20:40.000Z</time>
      </trkpt>
      <trkpt lat="44.64453" lon="5.18772">
        <ele>1243</ele>
        <time>2026-05-25T12:20:41.000Z</time>
      </trkpt>
      <trkpt lat="44.64452" lon="5.18771">
        <ele>1244</ele>
        <time>2026-05-25T12:20:42.000Z</time>
      </trkpt>
      <trkpt lat="44.64451" lon="5.1877">
        <ele>1243</ele>
        <time>2026-05-25T12:20:43.000Z</time>
      </trkpt>
      <trkpt lat="44.64449" lon="5.18768">
        <ele>1242</ele>
        <time>2026-05-25T12:20:44.000Z</time>
      </trkpt>
      <trkpt lat="44.64449" lon="5.18767">
        <ele>1242</ele>
        <time>2026-05-25T12:20:45.000Z</time>
      </trkpt>
      <trkpt lat="44.64448" lon="5.18767">
        <ele>1243</ele>
        <time>2026-05-25T12:20:46.000Z</time>
      </trkpt>
      <trkpt lat="44.64447" lon="5.18766">
        <ele>1242</ele>
        <time>2026-05-25T12:20:47.000Z</time>
      </trkpt>
      <trkpt lat="44.64447" lon="5.18764">
        <ele>1242</ele>
        <time>2026-05-25T12:20:48.000Z</time>
      </trkpt>
      <trkpt lat="44.64446" lon="5.18763">
        <ele>1241</ele>
        <time>2026-05-25T12:20:49.000Z</time>
      </trkpt>
      <trkpt lat="44.64446" lon="5.18761">
        <ele>1242</ele>
        <time>2026-05-25T12:20:50.000Z</time>
      </trkpt>
      <trkpt lat="44.64446" lon="5.1876">
        <ele>1242</ele>
        <time>2026-05-25T12:20:51.000Z</time>
      </trkpt>
      <trkpt lat="44.64445" lon="5.18759">
        <ele>1242</ele>
        <time>2026-05-25T12:20:52.000Z</time>
      </trkpt>
      <trkpt lat="44.64445" lon="5.18758">
        <ele>1241</ele>
        <time>2026-05-25T12:20:53.000Z</time>
      </trkpt>
      <trkpt lat="44.64445" lon="5.18756">
        <ele>1240</ele>
        <time>2026-05-25T12:20:54.000Z</time>
      </trkpt>
      <trkpt lat="44.64445" lon="5.18755">
        <ele>1240</ele>
        <time>2026-05-25T12:20:55.000Z</time>
      </trkpt>
      <trkpt lat="44.64443" lon="5.18755">
        <ele>1241</ele>
        <time>2026-05-25T12:20:56.000Z</time>
      </trkpt>
      <trkpt lat="44.64441" lon="5.18755">
        <ele>1242</ele>
        <time>2026-05-25T12:20:57.000Z</time>
      </trkpt>
      <trkpt lat="44.64441" lon="5.18755">
        <ele>1242</ele>
        <time>2026-05-25T12:20:58.000Z</time>
      </trkpt>
      <trkpt lat="44.6444" lon="5.18755">
        <ele>1242</ele>
        <time>2026-05-25T12:20:59.000Z</time>
      </trkpt>
      <trkpt lat="44.6444" lon="5.18755">
        <ele>1242</ele>
        <time>2026-05-25T12:21:00.000Z</time>
      </trkpt>
      <trkpt lat="44.6444" lon="5.18755">
        <ele>1242</ele>
        <time>2026-05-25T12:21:01.000Z</time>
      </trkpt>
      <trkpt lat="44.6444" lon="5.18755">
        <ele>1242</ele>
        <time>2026-05-25T12:21:02.000Z</time>
      </trkpt>
      <trkpt lat="44.6444" lon="5.18755">
        <ele>1242</ele>
        <time>2026-05-25T12:21:03.000Z</time>
      </trkpt>
      <trkpt lat="44.6444" lon="5.18755">
        <ele>1242</ele>
        <time>2026-05-25T12:21:04.000Z</time>
      </trkpt>
      <trkpt lat="44.6444" lon="5.18755">
        <ele>1242</ele>
        <time>2026-05-25T12:21:05.000Z</time>
      </trkpt>
      <trkpt lat="44.6444" lon="5.18755">
        <ele>1242</ele>
        <time>2026-05-25T12:21:06.000Z</time>
      </trkpt>
      <trkpt lat="44.6444" lon="5.18755">
        <ele>1242</ele>
        <time>2026-05-25T12:21:07.000Z</time>
      </trkpt>
      <trkpt lat="44.6444" lon="5.18755">
        <ele>1242</ele>
        <time>2026-05-25T12:21:08.000Z</time>
      </trkpt>
      <trkpt lat="44.6444" lon="5.18755">
        <ele>1242</ele>
        <time>2026-05-25T12:21:09.000Z</time>
      </trkpt>
      <trkpt lat="44.6444" lon="5.18755">
        <ele>1242</ele>
        <time>2026-05-25T12:21:10.000Z</time>
      </trkpt>
      <trkpt lat="44.6444" lon="5.18755">
        <ele>1242</ele>
        <time>2026-05-25T12:21:11.000Z</time>
      </trkpt>
      <trkpt lat="44.6444" lon="5.18755">
        <ele>1242</ele>
        <time>2026-05-25T12:21:12.000Z</time>
      </trkpt>
      <trkpt lat="44.6444" lon="5.18755">
        <ele>1242</ele>
        <time>2026-05-25T12:21:13.000Z</time>
      </trkpt>
      <trkpt lat="44.6444" lon="5.18755">
        <ele>1242</ele>
        <time>2026-05-25T12:21:14.000Z</time>
      </trkpt>
      <trkpt lat="44.6444" lon="5.18755">
        <ele>1242</ele>
        <time>2026-05-25T12:21:15.000Z</time>
      </trkpt>
      <trkpt lat="44.6444" lon="5.18755">
        <ele>1242</ele>
        <time>2026-05-25T12:21:16.000Z</time>
      </trkpt>
      <trkpt lat="44.6444" lon="5.18755">
        <ele>1242</ele>
        <time>2026-05-25T12:21:17.000Z</time>
      </trkpt>
      <trkpt lat="44.6444" lon="5.18755">
        <ele>1242</ele>
        <time>2026-05-25T12:21:18.000Z</time>
      </trkpt>
      <trkpt lat="44.6444" lon="5.18755">
        <ele>1242</ele>
        <time>2026-05-25T12:21:19.000Z</time>
      </trkpt>
      <trkpt lat="44.6444" lon="5.18755">
        <ele>1242</ele>
        <time>2026-05-25T12:21:20.000Z</time>
      </trkpt>
      <trkpt lat="44.6444" lon="5.18755">
        <ele>1242</ele>
        <time>2026-05-25T12:21:21.000Z</time>
      </trkpt>
      <trkpt lat="44.6444" lon="5.18755">
        <ele>1242</ele>
        <time>2026-05-25T12:21:22.000Z</time>
      </trkpt>
      <trkpt lat="44.6444" lon="5.18755">
        <ele>1242</ele>
        <time>2026-05-25T12:21:23.000Z</time>
      </trkpt>
      <trkpt lat="44.6444" lon="5.18755">
        <ele>1242</ele>
        <time>2026-05-25T12:21:24.000Z</time>
      </trkpt>
      <trkpt lat="44.6444" lon="5.18755">
        <ele>1242</ele>
        <time>2026-05-25T12:21:25.000Z</time>
      </trkpt>
      <trkpt lat="44.6444" lon="5.18755">
        <ele>1242</ele>
        <time>2026-05-25T12:21:26.000Z</time>
      </trkpt>
      <trkpt lat="44.6444" lon="5.18755">
        <ele>1242</ele>
        <time>2026-05-25T12:21:27.000Z</time>
      </trkpt>
      <trkpt lat="44.6444" lon="5.18755">
        <ele>1242</ele>
        <time>2026-05-25T12:21:28.000Z</time>
      </trkpt>
      <trkpt lat="44.6444" lon="5.18755">
        <ele>1242</ele>
        <time>2026-05-25T12:21:29.000Z</time>
      </trkpt>
      <trkpt lat="44.6444" lon="5.18755">
        <ele>1242</ele>
        <time>2026-05-25T12:21:30.000Z</time>
      </trkpt>
      <trkpt lat="44.6444" lon="5.18755">
        <ele>1242</ele>
        <time>2026-05-25T12:21:31.000Z</time>
      </trkpt>
      <trkpt lat="44.6444" lon="5.18755">
        <ele>1242</ele>
        <time>2026-05-25T12:21:32.000Z</time>
      </trkpt>
      <trkpt lat="44.6444" lon="5.18755">
        <ele>1242</ele>
        <time>2026-05-25T12:21:33.000Z</time>
      </trkpt>
      <trkpt lat="44.6444" lon="5.18755">
        <ele>1242</ele>
        <time>2026-05-25T12:21:34.000Z</time>
      </trkpt>
      <trkpt lat="44.6444" lon="5.18755">
        <ele>1242</ele>
        <time>2026-05-25T12:21:35.000Z</time>
      </trkpt>
      <trkpt lat="44.6444" lon="5.18755">
        <ele>1242</ele>
        <time>2026-05-25T12:21:36.000Z</time>
      </trkpt>
      <trkpt lat="44.64439" lon="5.18752">
        <ele>1243</ele>
        <time>2026-05-25T12:21:37.000Z</time>
      </trkpt>
      <trkpt lat="44.64439" lon="5.18752">
        <ele>1243</ele>
        <time>2026-05-25T12:21:38.000Z</time>
      </trkpt>
      <trkpt lat="44.64439" lon="5.18752">
        <ele>1243</ele>
        <time>2026-05-25T12:21:39.000Z</time>
      </trkpt>
      <trkpt lat="44.64438" lon="5.18751">
        <ele>1242</ele>
        <time>2026-05-25T12:21:40.000Z</time>
      </trkpt>
      <trkpt lat="44.64438" lon="5.1875">
        <ele>1241</ele>
        <time>2026-05-25T12:21:41.000Z</time>
      </trkpt>
      <trkpt lat="44.64437" lon="5.18748">
        <ele>1241</ele>
        <time>2026-05-25T12:21:42.000Z</time>
      </trkpt>
      <trkpt lat="44.64436" lon="5.18747">
        <ele>1241</ele>
        <time>2026-05-25T12:21:43.000Z</time>
      </trkpt>
      <trkpt lat="44.64436" lon="5.18745">
        <ele>1240</ele>
        <time>2026-05-25T12:21:44.000Z</time>
      </trkpt>
      <trkpt lat="44.64436" lon="5.18743">
        <ele>1240</ele>
        <time>2026-05-25T12:21:45.000Z</time>
      </trkpt>
      <trkpt lat="44.64435" lon="5.18743">
        <ele>1240</ele>
        <time>2026-05-25T12:21:46.000Z</time>
      </trkpt>
      <trkpt lat="44.64435" lon="5.18742">
        <ele>1240</ele>
        <time>2026-05-25T12:21:47.000Z</time>
      </trkpt>
      <trkpt lat="44.64434" lon="5.18742">
        <ele>1240</ele>
        <time>2026-05-25T12:21:48.000Z</time>
      </trkpt>
      <trkpt lat="44.64434" lon="5.18742">
        <ele>1240</ele>
        <time>2026-05-25T12:21:49.000Z</time>
      </trkpt>
      <trkpt lat="44.64434" lon="5.18742">
        <ele>1240</ele>
        <time>2026-05-25T12:21:50.000Z</time>
      </trkpt>
      <trkpt lat="44.64432" lon="5.18742">
        <ele>1242</ele>
        <time>2026-05-25T12:21:51.000Z</time>
      </trkpt>
      <trkpt lat="44.6443" lon="5.18741">
        <ele>1241</ele>
        <time>2026-05-25T12:21:52.000Z</time>
      </trkpt>
      <trkpt lat="44.64429" lon="5.18741">
        <ele>1241</ele>
        <time>2026-05-25T12:21:53.000Z</time>
      </trkpt>
      <trkpt lat="44.64428" lon="5.18739">
        <ele>1241</ele>
        <time>2026-05-25T12:21:54.000Z</time>
      </trkpt>
      <trkpt lat="44.64427" lon="5.18738">
        <ele>1241</ele>
        <time>2026-05-25T12:21:55.000Z</time>
      </trkpt>
      <trkpt lat="44.64426" lon="5.18737">
        <ele>1241</ele>
        <time>2026-05-25T12:21:56.000Z</time>
      </trkpt>
      <trkpt lat="44.64425" lon="5.18736">
        <ele>1242</ele>
        <time>2026-05-25T12:21:57.000Z</time>
      </trkpt>
      <trkpt lat="44.64424" lon="5.18734">
        <ele>1243</ele>
        <time>2026-05-25T12:21:58.000Z</time>
      </trkpt>
      <trkpt lat="44.64423" lon="5.18733">
        <ele>1243</ele>
        <time>2026-05-25T12:21:59.000Z</time>
      </trkpt>
      <trkpt lat="44.64423" lon="5.18732">
        <ele>1242</ele>
        <time>2026-05-25T12:22:00.000Z</time>
      </trkpt>
      <trkpt lat="44.64423" lon="5.1873">
        <ele>1242</ele>
        <time>2026-05-25T12:22:01.000Z</time>
      </trkpt>
      <trkpt lat="44.64421" lon="5.18731">
        <ele>1242</ele>
        <time>2026-05-25T12:22:02.000Z</time>
      </trkpt>
      <trkpt lat="44.64421" lon="5.18731">
        <ele>1241</ele>
        <time>2026-05-25T12:22:03.000Z</time>
      </trkpt>
      <trkpt lat="44.6442" lon="5.1873">
        <ele>1241</ele>
        <time>2026-05-25T12:22:04.000Z</time>
      </trkpt>
      <trkpt lat="44.64419" lon="5.18729">
        <ele>1241</ele>
        <time>2026-05-25T12:22:05.000Z</time>
      </trkpt>
      <trkpt lat="44.64419" lon="5.18728">
        <ele>1240</ele>
        <time>2026-05-25T12:22:06.000Z</time>
      </trkpt>
      <trkpt lat="44.64419" lon="5.18726">
        <ele>1241</ele>
        <time>2026-05-25T12:22:07.000Z</time>
      </trkpt>
      <trkpt lat="44.64418" lon="5.18726">
        <ele>1242</ele>
        <time>2026-05-25T12:22:08.000Z</time>
      </trkpt>
      <trkpt lat="44.64418" lon="5.18726">
        <ele>1241</ele>
        <time>2026-05-25T12:22:09.000Z</time>
      </trkpt>
      <trkpt lat="44.64417" lon="5.18725">
        <ele>1241</ele>
        <time>2026-05-25T12:22:10.000Z</time>
      </trkpt>
      <trkpt lat="44.64416" lon="5.18724">
        <ele>1240</ele>
        <time>2026-05-25T12:22:11.000Z</time>
      </trkpt>
      <trkpt lat="44.64415" lon="5.18724">
        <ele>1240</ele>
        <time>2026-05-25T12:22:12.000Z</time>
      </trkpt>
      <trkpt lat="44.64414" lon="5.18724">
        <ele>1241</ele>
        <time>2026-05-25T12:22:13.000Z</time>
      </trkpt>
      <trkpt lat="44.64414" lon="5.18724">
        <ele>1241</ele>
        <time>2026-05-25T12:22:14.000Z</time>
      </trkpt>
      <trkpt lat="44.64414" lon="5.18724">
        <ele>1241</ele>
        <time>2026-05-25T12:22:15.000Z</time>
      </trkpt>
      <trkpt lat="44.64412" lon="5.18719">
        <ele>1243</ele>
        <time>2026-05-25T12:22:16.000Z</time>
      </trkpt>
      <trkpt lat="44.64409" lon="5.1872">
        <ele>1245</ele>
        <time>2026-05-25T12:22:17.000Z</time>
      </trkpt>
      <trkpt lat="44.64409" lon="5.1872">
        <ele>1245</ele>
        <time>2026-05-25T12:22:18.000Z</time>
      </trkpt>
      <trkpt lat="44.64409" lon="5.18719">
        <ele>1244</ele>
        <time>2026-05-25T12:22:19.000Z</time>
      </trkpt>
      <trkpt lat="44.64409" lon="5.18718">
        <ele>1244</ele>
        <time>2026-05-25T12:22:20.000Z</time>
      </trkpt>
      <trkpt lat="44.64407" lon="5.18717">
        <ele>1244</ele>
        <time>2026-05-25T12:22:21.000Z</time>
      </trkpt>
      <trkpt lat="44.64405" lon="5.18715">
        <ele>1244</ele>
        <time>2026-05-25T12:22:22.000Z</time>
      </trkpt>
      <trkpt lat="44.64405" lon="5.18714">
        <ele>1244</ele>
        <time>2026-05-25T12:22:23.000Z</time>
      </trkpt>
      <trkpt lat="44.64405" lon="5.18713">
        <ele>1244</ele>
        <time>2026-05-25T12:22:24.000Z</time>
      </trkpt>
      <trkpt lat="44.64404" lon="5.18712">
        <ele>1244</ele>
        <time>2026-05-25T12:22:25.000Z</time>
      </trkpt>
      <trkpt lat="44.64403" lon="5.18711">
        <ele>1243</ele>
        <time>2026-05-25T12:22:26.000Z</time>
      </trkpt>
      <trkpt lat="44.64402" lon="5.18709">
        <ele>1244</ele>
        <time>2026-05-25T12:22:27.000Z</time>
      </trkpt>
      <trkpt lat="44.64401" lon="5.18708">
        <ele>1243</ele>
        <time>2026-05-25T12:22:28.000Z</time>
      </trkpt>
      <trkpt lat="44.64401" lon="5.18707">
        <ele>1243</ele>
        <time>2026-05-25T12:22:29.000Z</time>
      </trkpt>
      <trkpt lat="44.644" lon="5.18706">
        <ele>1244</ele>
        <time>2026-05-25T12:22:30.000Z</time>
      </trkpt>
      <trkpt lat="44.64399" lon="5.18706">
        <ele>1244</ele>
        <time>2026-05-25T12:22:31.000Z</time>
      </trkpt>
      <trkpt lat="44.64399" lon="5.18705">
        <ele>1244</ele>
        <time>2026-05-25T12:22:32.000Z</time>
      </trkpt>
      <trkpt lat="44.64397" lon="5.18704">
        <ele>1244</ele>
        <time>2026-05-25T12:22:33.000Z</time>
      </trkpt>
      <trkpt lat="44.64397" lon="5.18703">
        <ele>1243</ele>
        <time>2026-05-25T12:22:34.000Z</time>
      </trkpt>
      <trkpt lat="44.64396" lon="5.18702">
        <ele>1243</ele>
        <time>2026-05-25T12:22:35.000Z</time>
      </trkpt>
      <trkpt lat="44.64396" lon="5.18701">
        <ele>1243</ele>
        <time>2026-05-25T12:22:36.000Z</time>
      </trkpt>
      <trkpt lat="44.64395" lon="5.187">
        <ele>1243</ele>
        <time>2026-05-25T12:22:37.000Z</time>
      </trkpt>
      <trkpt lat="44.64394" lon="5.18699">
        <ele>1244</ele>
        <time>2026-05-25T12:22:38.000Z</time>
      </trkpt>
      <trkpt lat="44.64394" lon="5.18697">
        <ele>1244</ele>
        <time>2026-05-25T12:22:39.000Z</time>
      </trkpt>
      <trkpt lat="44.64393" lon="5.18696">
        <ele>1243</ele>
        <time>2026-05-25T12:22:40.000Z</time>
      </trkpt>
      <trkpt lat="44.64392" lon="5.18694">
        <ele>1244</ele>
        <time>2026-05-25T12:22:41.000Z</time>
      </trkpt>
      <trkpt lat="44.64392" lon="5.18693">
        <ele>1244</ele>
        <time>2026-05-25T12:22:42.000Z</time>
      </trkpt>
      <trkpt lat="44.64391" lon="5.18692">
        <ele>1244</ele>
        <time>2026-05-25T12:22:43.000Z</time>
      </trkpt>
      <trkpt lat="44.6439" lon="5.18691">
        <ele>1244</ele>
        <time>2026-05-25T12:22:44.000Z</time>
      </trkpt>
      <trkpt lat="44.64389" lon="5.1869">
        <ele>1244</ele>
        <time>2026-05-25T12:22:45.000Z</time>
      </trkpt>
      <trkpt lat="44.64388" lon="5.18689">
        <ele>1244</ele>
        <time>2026-05-25T12:22:46.000Z</time>
      </trkpt>
      <trkpt lat="44.64387" lon="5.18687">
        <ele>1244</ele>
        <time>2026-05-25T12:22:47.000Z</time>
      </trkpt>
      <trkpt lat="44.64386" lon="5.18686">
        <ele>1244</ele>
        <time>2026-05-25T12:22:48.000Z</time>
      </trkpt>
      <trkpt lat="44.64385" lon="5.18685">
        <ele>1245</ele>
        <time>2026-05-25T12:22:49.000Z</time>
      </trkpt>
      <trkpt lat="44.64384" lon="5.18684">
        <ele>1245</ele>
        <time>2026-05-25T12:22:50.000Z</time>
      </trkpt>
      <trkpt lat="44.64384" lon="5.18683">
        <ele>1245</ele>
        <time>2026-05-25T12:22:51.000Z</time>
      </trkpt>
      <trkpt lat="44.64382" lon="5.18683">
        <ele>1244</ele>
        <time>2026-05-25T12:22:52.000Z</time>
      </trkpt>
      <trkpt lat="44.64381" lon="5.18681">
        <ele>1244</ele>
        <time>2026-05-25T12:22:53.000Z</time>
      </trkpt>
      <trkpt lat="44.64381" lon="5.18679">
        <ele>1244</ele>
        <time>2026-05-25T12:22:54.000Z</time>
      </trkpt>
      <trkpt lat="44.6438" lon="5.18679">
        <ele>1244</ele>
        <time>2026-05-25T12:22:55.000Z</time>
      </trkpt>
      <trkpt lat="44.6438" lon="5.18677">
        <ele>1244</ele>
        <time>2026-05-25T12:22:56.000Z</time>
      </trkpt>
      <trkpt lat="44.64379" lon="5.18676">
        <ele>1245</ele>
        <time>2026-05-25T12:22:57.000Z</time>
      </trkpt>
      <trkpt lat="44.64379" lon="5.18675">
        <ele>1245</ele>
        <time>2026-05-25T12:22:58.000Z</time>
      </trkpt>
      <trkpt lat="44.64378" lon="5.18674">
        <ele>1245</ele>
        <time>2026-05-25T12:22:59.000Z</time>
      </trkpt>
      <trkpt lat="44.64378" lon="5.18674">
        <ele>1246</ele>
        <time>2026-05-25T12:23:00.000Z</time>
      </trkpt>
      <trkpt lat="44.64377" lon="5.18673">
        <ele>1245</ele>
        <time>2026-05-25T12:23:01.000Z</time>
      </trkpt>
      <trkpt lat="44.64376" lon="5.18672">
        <ele>1246</ele>
        <time>2026-05-25T12:23:02.000Z</time>
      </trkpt>
      <trkpt lat="44.64375" lon="5.1867">
        <ele>1246</ele>
        <time>2026-05-25T12:23:03.000Z</time>
      </trkpt>
      <trkpt lat="44.64375" lon="5.18669">
        <ele>1246</ele>
        <time>2026-05-25T12:23:04.000Z</time>
      </trkpt>
      <trkpt lat="44.64374" lon="5.18668">
        <ele>1246</ele>
        <time>2026-05-25T12:23:05.000Z</time>
      </trkpt>
      <trkpt lat="44.64373" lon="5.18667">
        <ele>1246</ele>
        <time>2026-05-25T12:23:06.000Z</time>
      </trkpt>
      <trkpt lat="44.64373" lon="5.18666">
        <ele>1246</ele>
        <time>2026-05-25T12:23:07.000Z</time>
      </trkpt>
      <trkpt lat="44.64372" lon="5.18664">
        <ele>1245</ele>
        <time>2026-05-25T12:23:08.000Z</time>
      </trkpt>
      <trkpt lat="44.64372" lon="5.18663">
        <ele>1246</ele>
        <time>2026-05-25T12:23:09.000Z</time>
      </trkpt>
      <trkpt lat="44.64371" lon="5.18662">
        <ele>1246</ele>
        <time>2026-05-25T12:23:10.000Z</time>
      </trkpt>
      <trkpt lat="44.6437" lon="5.18661">
        <ele>1245</ele>
        <time>2026-05-25T12:23:11.000Z</time>
      </trkpt>
      <trkpt lat="44.64369" lon="5.1866">
        <ele>1246</ele>
        <time>2026-05-25T12:23:12.000Z</time>
      </trkpt>
      <trkpt lat="44.64368" lon="5.18659">
        <ele>1246</ele>
        <time>2026-05-25T12:23:13.000Z</time>
      </trkpt>
      <trkpt lat="44.64368" lon="5.18657">
        <ele>1246</ele>
        <time>2026-05-25T12:23:14.000Z</time>
      </trkpt>
      <trkpt lat="44.64367" lon="5.18656">
        <ele>1245</ele>
        <time>2026-05-25T12:23:15.000Z</time>
      </trkpt>
      <trkpt lat="44.64367" lon="5.18655">
        <ele>1245</ele>
        <time>2026-05-25T12:23:16.000Z</time>
      </trkpt>
      <trkpt lat="44.64366" lon="5.18654">
        <ele>1246</ele>
        <time>2026-05-25T12:23:17.000Z</time>
      </trkpt>
      <trkpt lat="44.64366" lon="5.18652">
        <ele>1246</ele>
        <time>2026-05-25T12:23:18.000Z</time>
      </trkpt>
      <trkpt lat="44.64365" lon="5.1865">
        <ele>1247</ele>
        <time>2026-05-25T12:23:19.000Z</time>
      </trkpt>
      <trkpt lat="44.64365" lon="5.18649">
        <ele>1248</ele>
        <time>2026-05-25T12:23:20.000Z</time>
      </trkpt>
      <trkpt lat="44.64365" lon="5.18647">
        <ele>1248</ele>
        <time>2026-05-25T12:23:21.000Z</time>
      </trkpt>
      <trkpt lat="44.64364" lon="5.18646">
        <ele>1248</ele>
        <time>2026-05-25T12:23:22.000Z</time>
      </trkpt>
      <trkpt lat="44.64363" lon="5.18644">
        <ele>1248</ele>
        <time>2026-05-25T12:23:23.000Z</time>
      </trkpt>
      <trkpt lat="44.64363" lon="5.18642">
        <ele>1248</ele>
        <time>2026-05-25T12:23:24.000Z</time>
      </trkpt>
      <trkpt lat="44.64362" lon="5.18641">
        <ele>1248</ele>
        <time>2026-05-25T12:23:25.000Z</time>
      </trkpt>
      <trkpt lat="44.6436" lon="5.18641">
        <ele>1247</ele>
        <time>2026-05-25T12:23:26.000Z</time>
      </trkpt>
      <trkpt lat="44.6436" lon="5.1864">
        <ele>1248</ele>
        <time>2026-05-25T12:23:27.000Z</time>
      </trkpt>
      <trkpt lat="44.64359" lon="5.18639">
        <ele>1248</ele>
        <time>2026-05-25T12:23:28.000Z</time>
      </trkpt>
      <trkpt lat="44.64358" lon="5.18638">
        <ele>1248</ele>
        <time>2026-05-25T12:23:29.000Z</time>
      </trkpt>
      <trkpt lat="44.64357" lon="5.18637">
        <ele>1248</ele>
        <time>2026-05-25T12:23:30.000Z</time>
      </trkpt>
      <trkpt lat="44.64356" lon="5.18635">
        <ele>1247</ele>
        <time>2026-05-25T12:23:31.000Z</time>
      </trkpt>
      <trkpt lat="44.64355" lon="5.18633">
        <ele>1247</ele>
        <time>2026-05-25T12:23:32.000Z</time>
      </trkpt>
      <trkpt lat="44.64354" lon="5.18633">
        <ele>1247</ele>
        <time>2026-05-25T12:23:33.000Z</time>
      </trkpt>
      <trkpt lat="44.64353" lon="5.18632">
        <ele>1247</ele>
        <time>2026-05-25T12:23:34.000Z</time>
      </trkpt>
      <trkpt lat="44.64352" lon="5.18631">
        <ele>1247</ele>
        <time>2026-05-25T12:23:35.000Z</time>
      </trkpt>
      <trkpt lat="44.64352" lon="5.1863">
        <ele>1247</ele>
        <time>2026-05-25T12:23:36.000Z</time>
      </trkpt>
      <trkpt lat="44.64351" lon="5.18628">
        <ele>1247</ele>
        <time>2026-05-25T12:23:37.000Z</time>
      </trkpt>
      <trkpt lat="44.64351" lon="5.18626">
        <ele>1247</ele>
        <time>2026-05-25T12:23:38.000Z</time>
      </trkpt>
      <trkpt lat="44.6435" lon="5.18625">
        <ele>1247</ele>
        <time>2026-05-25T12:23:39.000Z</time>
      </trkpt>
      <trkpt lat="44.64349" lon="5.18624">
        <ele>1248</ele>
        <time>2026-05-25T12:23:40.000Z</time>
      </trkpt>
      <trkpt lat="44.64348" lon="5.18622">
        <ele>1248</ele>
        <time>2026-05-25T12:23:41.000Z</time>
      </trkpt>
      <trkpt lat="44.64347" lon="5.18621">
        <ele>1248</ele>
        <time>2026-05-25T12:23:42.000Z</time>
      </trkpt>
      <trkpt lat="44.64346" lon="5.1862">
        <ele>1248</ele>
        <time>2026-05-25T12:23:43.000Z</time>
      </trkpt>
      <trkpt lat="44.64345" lon="5.18619">
        <ele>1248</ele>
        <time>2026-05-25T12:23:44.000Z</time>
      </trkpt>
      <trkpt lat="44.64345" lon="5.18617">
        <ele>1248</ele>
        <time>2026-05-25T12:23:45.000Z</time>
      </trkpt>
      <trkpt lat="44.64345" lon="5.18616">
        <ele>1249</ele>
        <time>2026-05-25T12:23:46.000Z</time>
      </trkpt>
      <trkpt lat="44.64344" lon="5.18615">
        <ele>1249</ele>
        <time>2026-05-25T12:23:47.000Z</time>
      </trkpt>
      <trkpt lat="44.64344" lon="5.18614">
        <ele>1250</ele>
        <time>2026-05-25T12:23:48.000Z</time>
      </trkpt>
      <trkpt lat="44.64343" lon="5.18613">
        <ele>1249</ele>
        <time>2026-05-25T12:23:49.000Z</time>
      </trkpt>
      <trkpt lat="44.64343" lon="5.18612">
        <ele>1249</ele>
        <time>2026-05-25T12:23:50.000Z</time>
      </trkpt>
      <trkpt lat="44.64342" lon="5.1861">
        <ele>1249</ele>
        <time>2026-05-25T12:23:51.000Z</time>
      </trkpt>
      <trkpt lat="44.64341" lon="5.18609">
        <ele>1249</ele>
        <time>2026-05-25T12:23:52.000Z</time>
      </trkpt>
      <trkpt lat="44.64341" lon="5.18608">
        <ele>1249</ele>
        <time>2026-05-25T12:23:53.000Z</time>
      </trkpt>
      <trkpt lat="44.6434" lon="5.18606">
        <ele>1249</ele>
        <time>2026-05-25T12:23:54.000Z</time>
      </trkpt>
      <trkpt lat="44.64338" lon="5.18606">
        <ele>1250</ele>
        <time>2026-05-25T12:23:55.000Z</time>
      </trkpt>
      <trkpt lat="44.64338" lon="5.18606">
        <ele>1250</ele>
        <time>2026-05-25T12:23:56.000Z</time>
      </trkpt>
      <trkpt lat="44.64336" lon="5.18606">
        <ele>1249</ele>
        <time>2026-05-25T12:23:57.000Z</time>
      </trkpt>
      <trkpt lat="44.64336" lon="5.18604">
        <ele>1250</ele>
        <time>2026-05-25T12:23:58.000Z</time>
      </trkpt>
      <trkpt lat="44.64335" lon="5.18604">
        <ele>1249</ele>
        <time>2026-05-25T12:23:59.000Z</time>
      </trkpt>
      <trkpt lat="44.64334" lon="5.18604">
        <ele>1249</ele>
        <time>2026-05-25T12:24:00.000Z</time>
      </trkpt>
      <trkpt lat="44.64333" lon="5.18603">
        <ele>1249</ele>
        <time>2026-05-25T12:24:01.000Z</time>
      </trkpt>
      <trkpt lat="44.64332" lon="5.18604">
        <ele>1248</ele>
        <time>2026-05-25T12:24:02.000Z</time>
      </trkpt>
      <trkpt lat="44.64331" lon="5.18605">
        <ele>1249</ele>
        <time>2026-05-25T12:24:03.000Z</time>
      </trkpt>
      <trkpt lat="44.6433" lon="5.18604">
        <ele>1250</ele>
        <time>2026-05-25T12:24:04.000Z</time>
      </trkpt>
      <trkpt lat="44.64329" lon="5.18605">
        <ele>1250</ele>
        <time>2026-05-25T12:24:05.000Z</time>
      </trkpt>
      <trkpt lat="44.64327" lon="5.18605">
        <ele>1251</ele>
        <time>2026-05-25T12:24:06.000Z</time>
      </trkpt>
      <trkpt lat="44.64327" lon="5.18604">
        <ele>1251</ele>
        <time>2026-05-25T12:24:07.000Z</time>
      </trkpt>
      <trkpt lat="44.64326" lon="5.18603">
        <ele>1250</ele>
        <time>2026-05-25T12:24:08.000Z</time>
      </trkpt>
      <trkpt lat="44.64325" lon="5.18603">
        <ele>1250</ele>
        <time>2026-05-25T12:24:09.000Z</time>
      </trkpt>
      <trkpt lat="44.64324" lon="5.18602">
        <ele>1249</ele>
        <time>2026-05-25T12:24:10.000Z</time>
      </trkpt>
      <trkpt lat="44.64322" lon="5.18602">
        <ele>1248</ele>
        <time>2026-05-25T12:24:11.000Z</time>
      </trkpt>
      <trkpt lat="44.64321" lon="5.18601">
        <ele>1248</ele>
        <time>2026-05-25T12:24:12.000Z</time>
      </trkpt>
      <trkpt lat="44.6432" lon="5.186">
        <ele>1249</ele>
        <time>2026-05-25T12:24:13.000Z</time>
      </trkpt>
      <trkpt lat="44.64319" lon="5.186">
        <ele>1249</ele>
        <time>2026-05-25T12:24:14.000Z</time>
      </trkpt>
      <trkpt lat="44.64319" lon="5.186">
        <ele>1249</ele>
        <time>2026-05-25T12:24:15.000Z</time>
      </trkpt>
      <trkpt lat="44.64317" lon="5.18598">
        <ele>1249</ele>
        <time>2026-05-25T12:24:16.000Z</time>
      </trkpt>
      <trkpt lat="44.64317" lon="5.18596">
        <ele>1250</ele>
        <time>2026-05-25T12:24:17.000Z</time>
      </trkpt>
      <trkpt lat="44.64315" lon="5.18595">
        <ele>1251</ele>
        <time>2026-05-25T12:24:18.000Z</time>
      </trkpt>
      <trkpt lat="44.64314" lon="5.18594">
        <ele>1251</ele>
        <time>2026-05-25T12:24:19.000Z</time>
      </trkpt>
      <trkpt lat="44.64313" lon="5.18594">
        <ele>1251</ele>
        <time>2026-05-25T12:24:20.000Z</time>
      </trkpt>
      <trkpt lat="44.64312" lon="5.18594">
        <ele>1250</ele>
        <time>2026-05-25T12:24:21.000Z</time>
      </trkpt>
      <trkpt lat="44.64311" lon="5.18594">
        <ele>1251</ele>
        <time>2026-05-25T12:24:22.000Z</time>
      </trkpt>
      <trkpt lat="44.6431" lon="5.18595">
        <ele>1251</ele>
        <time>2026-05-25T12:24:23.000Z</time>
      </trkpt>
      <trkpt lat="44.64309" lon="5.18595">
        <ele>1250</ele>
        <time>2026-05-25T12:24:24.000Z</time>
      </trkpt>
      <trkpt lat="44.64308" lon="5.18594">
        <ele>1250</ele>
        <time>2026-05-25T12:24:25.000Z</time>
      </trkpt>
      <trkpt lat="44.64307" lon="5.18594">
        <ele>1250</ele>
        <time>2026-05-25T12:24:26.000Z</time>
      </trkpt>
      <trkpt lat="44.64305" lon="5.18593">
        <ele>1249</ele>
        <time>2026-05-25T12:24:27.000Z</time>
      </trkpt>
      <trkpt lat="44.64305" lon="5.18592">
        <ele>1249</ele>
        <time>2026-05-25T12:24:28.000Z</time>
      </trkpt>
      <trkpt lat="44.64304" lon="5.18591">
        <ele>1250</ele>
        <time>2026-05-25T12:24:29.000Z</time>
      </trkpt>
      <trkpt lat="44.64303" lon="5.18591">
        <ele>1250</ele>
        <time>2026-05-25T12:24:30.000Z</time>
      </trkpt>
      <trkpt lat="44.64301" lon="5.18591">
        <ele>1250</ele>
        <time>2026-05-25T12:24:31.000Z</time>
      </trkpt>
      <trkpt lat="44.643" lon="5.18591">
        <ele>1251</ele>
        <time>2026-05-25T12:24:32.000Z</time>
      </trkpt>
      <trkpt lat="44.64299" lon="5.18591">
        <ele>1252</ele>
        <time>2026-05-25T12:24:33.000Z</time>
      </trkpt>
      <trkpt lat="44.64298" lon="5.18591">
        <ele>1251</ele>
        <time>2026-05-25T12:24:34.000Z</time>
      </trkpt>
      <trkpt lat="44.64297" lon="5.1859">
        <ele>1252</ele>
        <time>2026-05-25T12:24:35.000Z</time>
      </trkpt>
      <trkpt lat="44.64297" lon="5.18589">
        <ele>1251</ele>
        <time>2026-05-25T12:24:36.000Z</time>
      </trkpt>
      <trkpt lat="44.64296" lon="5.18588">
        <ele>1251</ele>
        <time>2026-05-25T12:24:37.000Z</time>
      </trkpt>
      <trkpt lat="44.64295" lon="5.18588">
        <ele>1251</ele>
        <time>2026-05-25T12:24:38.000Z</time>
      </trkpt>
      <trkpt lat="44.64294" lon="5.18587">
        <ele>1251</ele>
        <time>2026-05-25T12:24:39.000Z</time>
      </trkpt>
      <trkpt lat="44.64293" lon="5.18586">
        <ele>1251</ele>
        <time>2026-05-25T12:24:40.000Z</time>
      </trkpt>
      <trkpt lat="44.64292" lon="5.18586">
        <ele>1250</ele>
        <time>2026-05-25T12:24:41.000Z</time>
      </trkpt>
      <trkpt lat="44.64291" lon="5.18585">
        <ele>1250</ele>
        <time>2026-05-25T12:24:42.000Z</time>
      </trkpt>
      <trkpt lat="44.6429" lon="5.18585">
        <ele>1250</ele>
        <time>2026-05-25T12:24:43.000Z</time>
      </trkpt>
      <trkpt lat="44.64289" lon="5.18585">
        <ele>1250</ele>
        <time>2026-05-25T12:24:44.000Z</time>
      </trkpt>
      <trkpt lat="44.64288" lon="5.18584">
        <ele>1249</ele>
        <time>2026-05-25T12:24:45.000Z</time>
      </trkpt>
      <trkpt lat="44.64286" lon="5.18583">
        <ele>1249</ele>
        <time>2026-05-25T12:24:46.000Z</time>
      </trkpt>
      <trkpt lat="44.64285" lon="5.18583">
        <ele>1249</ele>
        <time>2026-05-25T12:24:47.000Z</time>
      </trkpt>
      <trkpt lat="44.64284" lon="5.18582">
        <ele>1248</ele>
        <time>2026-05-25T12:24:48.000Z</time>
      </trkpt>
      <trkpt lat="44.64283" lon="5.18581">
        <ele>1247</ele>
        <time>2026-05-25T12:24:49.000Z</time>
      </trkpt>
      <trkpt lat="44.64282" lon="5.18581">
        <ele>1248</ele>
        <time>2026-05-25T12:24:50.000Z</time>
      </trkpt>
      <trkpt lat="44.64282" lon="5.18579">
        <ele>1247</ele>
        <time>2026-05-25T12:24:51.000Z</time>
      </trkpt>
      <trkpt lat="44.64281" lon="5.18578">
        <ele>1247</ele>
        <time>2026-05-25T12:24:52.000Z</time>
      </trkpt>
      <trkpt lat="44.64281" lon="5.18578">
        <ele>1246</ele>
        <time>2026-05-25T12:24:53.000Z</time>
      </trkpt>
      <trkpt lat="44.6428" lon="5.18577">
        <ele>1246</ele>
        <time>2026-05-25T12:24:54.000Z</time>
      </trkpt>
      <trkpt lat="44.64279" lon="5.18577">
        <ele>1246</ele>
        <time>2026-05-25T12:24:55.000Z</time>
      </trkpt>
      <trkpt lat="44.64278" lon="5.18576">
        <ele>1246</ele>
        <time>2026-05-25T12:24:56.000Z</time>
      </trkpt>
      <trkpt lat="44.64276" lon="5.18575">
        <ele>1246</ele>
        <time>2026-05-25T12:24:57.000Z</time>
      </trkpt>
      <trkpt lat="44.64275" lon="5.18574">
        <ele>1246</ele>
        <time>2026-05-25T12:24:58.000Z</time>
      </trkpt>
      <trkpt lat="44.64274" lon="5.18574">
        <ele>1245</ele>
        <time>2026-05-25T12:24:59.000Z</time>
      </trkpt>
      <trkpt lat="44.64273" lon="5.18574">
        <ele>1246</ele>
        <time>2026-05-25T12:25:00.000Z</time>
      </trkpt>
      <trkpt lat="44.64272" lon="5.18573">
        <ele>1246</ele>
        <time>2026-05-25T12:25:01.000Z</time>
      </trkpt>
      <trkpt lat="44.64271" lon="5.18572">
        <ele>1247</ele>
        <time>2026-05-25T12:25:02.000Z</time>
      </trkpt>
      <trkpt lat="44.6427" lon="5.18573">
        <ele>1247</ele>
        <time>2026-05-25T12:25:03.000Z</time>
      </trkpt>
      <trkpt lat="44.64269" lon="5.18573">
        <ele>1247</ele>
        <time>2026-05-25T12:25:04.000Z</time>
      </trkpt>
      <trkpt lat="44.64268" lon="5.18572">
        <ele>1247</ele>
        <time>2026-05-25T12:25:05.000Z</time>
      </trkpt>
      <trkpt lat="44.64267" lon="5.18571">
        <ele>1247</ele>
        <time>2026-05-25T12:25:06.000Z</time>
      </trkpt>
      <trkpt lat="44.64266" lon="5.18571">
        <ele>1246</ele>
        <time>2026-05-25T12:25:07.000Z</time>
      </trkpt>
      <trkpt lat="44.64265" lon="5.18571">
        <ele>1246</ele>
        <time>2026-05-25T12:25:08.000Z</time>
      </trkpt>
      <trkpt lat="44.64264" lon="5.18571">
        <ele>1247</ele>
        <time>2026-05-25T12:25:09.000Z</time>
      </trkpt>
      <trkpt lat="44.64264" lon="5.18571">
        <ele>1247</ele>
        <time>2026-05-25T12:25:10.000Z</time>
      </trkpt>
      <trkpt lat="44.64263" lon="5.18571">
        <ele>1247</ele>
        <time>2026-05-25T12:25:11.000Z</time>
      </trkpt>
      <trkpt lat="44.64262" lon="5.18571">
        <ele>1248</ele>
        <time>2026-05-25T12:25:12.000Z</time>
      </trkpt>
      <trkpt lat="44.64262" lon="5.18572">
        <ele>1248</ele>
        <time>2026-05-25T12:25:13.000Z</time>
      </trkpt>
      <trkpt lat="44.64261" lon="5.18571">
        <ele>1249</ele>
        <time>2026-05-25T12:25:14.000Z</time>
      </trkpt>
      <trkpt lat="44.64261" lon="5.18571">
        <ele>1249</ele>
        <time>2026-05-25T12:25:15.000Z</time>
      </trkpt>
      <trkpt lat="44.64261" lon="5.1857">
        <ele>1249</ele>
        <time>2026-05-25T12:25:16.000Z</time>
      </trkpt>
      <trkpt lat="44.6426" lon="5.1857">
        <ele>1248</ele>
        <time>2026-05-25T12:25:17.000Z</time>
      </trkpt>
      <trkpt lat="44.6426" lon="5.1857">
        <ele>1248</ele>
        <time>2026-05-25T12:25:18.000Z</time>
      </trkpt>
      <trkpt lat="44.6426" lon="5.1857">
        <ele>1248</ele>
        <time>2026-05-25T12:25:19.000Z</time>
      </trkpt>
      <trkpt lat="44.64259" lon="5.1857">
        <ele>1250</ele>
        <time>2026-05-25T12:25:20.000Z</time>
      </trkpt>
      <trkpt lat="44.64258" lon="5.1857">
        <ele>1250</ele>
        <time>2026-05-25T12:25:21.000Z</time>
      </trkpt>
      <trkpt lat="44.64257" lon="5.1857">
        <ele>1250</ele>
        <time>2026-05-25T12:25:22.000Z</time>
      </trkpt>
      <trkpt lat="44.64257" lon="5.18569">
        <ele>1252</ele>
        <time>2026-05-25T12:25:23.000Z</time>
      </trkpt>
      <trkpt lat="44.64255" lon="5.18568">
        <ele>1251</ele>
        <time>2026-05-25T12:25:24.000Z</time>
      </trkpt>
      <trkpt lat="44.64254" lon="5.18567">
        <ele>1250</ele>
        <time>2026-05-25T12:25:25.000Z</time>
      </trkpt>
      <trkpt lat="44.64254" lon="5.18567">
        <ele>1250</ele>
        <time>2026-05-25T12:25:26.000Z</time>
      </trkpt>
      <trkpt lat="44.64254" lon="5.18567">
        <ele>1250</ele>
        <time>2026-05-25T12:25:27.000Z</time>
      </trkpt>
      <trkpt lat="44.64254" lon="5.18567">
        <ele>1250</ele>
        <time>2026-05-25T12:25:28.000Z</time>
      </trkpt>
      <trkpt lat="44.64251" lon="5.18567">
        <ele>1252</ele>
        <time>2026-05-25T12:25:29.000Z</time>
      </trkpt>
      <trkpt lat="44.6425" lon="5.18567">
        <ele>1253</ele>
        <time>2026-05-25T12:25:30.000Z</time>
      </trkpt>
      <trkpt lat="44.6425" lon="5.18567">
        <ele>1253</ele>
        <time>2026-05-25T12:25:31.000Z</time>
      </trkpt>
      <trkpt lat="44.64249" lon="5.18566">
        <ele>1254</ele>
        <time>2026-05-25T12:25:32.000Z</time>
      </trkpt>
      <trkpt lat="44.64249" lon="5.18566">
        <ele>1254</ele>
        <time>2026-05-25T12:25:33.000Z</time>
      </trkpt>
      <trkpt lat="44.64249" lon="5.18566">
        <ele>1254</ele>
        <time>2026-05-25T12:25:34.000Z</time>
      </trkpt>
      <trkpt lat="44.64246" lon="5.18567">
        <ele>1254</ele>
        <time>2026-05-25T12:25:35.000Z</time>
      </trkpt>
      <trkpt lat="44.64246" lon="5.18566">
        <ele>1255</ele>
        <time>2026-05-25T12:25:36.000Z</time>
      </trkpt>
      <trkpt lat="44.64244" lon="5.18565">
        <ele>1255</ele>
        <time>2026-05-25T12:25:37.000Z</time>
      </trkpt>
      <trkpt lat="44.64244" lon="5.18564">
        <ele>1255</ele>
        <time>2026-05-25T12:25:38.000Z</time>
      </trkpt>
      <trkpt lat="44.64244" lon="5.18564">
        <ele>1255</ele>
        <time>2026-05-25T12:25:39.000Z</time>
      </trkpt>
      <trkpt lat="44.64243" lon="5.18563">
        <ele>1255</ele>
        <time>2026-05-25T12:25:40.000Z</time>
      </trkpt>
      <trkpt lat="44.64243" lon="5.18563">
        <ele>1255</ele>
        <time>2026-05-25T12:25:41.000Z</time>
      </trkpt>
      <trkpt lat="44.64243" lon="5.18563">
        <ele>1255</ele>
        <time>2026-05-25T12:25:42.000Z</time>
      </trkpt>
      <trkpt lat="44.64241" lon="5.18562">
        <ele>1258</ele>
        <time>2026-05-25T12:25:43.000Z</time>
      </trkpt>
      <trkpt lat="44.64241" lon="5.18561">
        <ele>1259</ele>
        <time>2026-05-25T12:25:44.000Z</time>
      </trkpt>
      <trkpt lat="44.6424" lon="5.18561">
        <ele>1260</ele>
        <time>2026-05-25T12:25:45.000Z</time>
      </trkpt>
      <trkpt lat="44.64241" lon="5.1856">
        <ele>1260</ele>
        <time>2026-05-25T12:25:46.000Z</time>
      </trkpt>
      <trkpt lat="44.64241" lon="5.1856">
        <ele>1260</ele>
        <time>2026-05-25T12:25:47.000Z</time>
      </trkpt>
      <trkpt lat="44.64241" lon="5.1856">
        <ele>1260</ele>
        <time>2026-05-25T12:25:48.000Z</time>
      </trkpt>
      <trkpt lat="44.64238" lon="5.1856">
        <ele>1260</ele>
        <time>2026-05-25T12:25:49.000Z</time>
      </trkpt>
      <trkpt lat="44.64237" lon="5.1856">
        <ele>1260</ele>
        <time>2026-05-25T12:25:50.000Z</time>
      </trkpt>
      <trkpt lat="44.64236" lon="5.18559">
        <ele>1260</ele>
        <time>2026-05-25T12:25:51.000Z</time>
      </trkpt>
      <trkpt lat="44.64236" lon="5.18559">
        <ele>1260</ele>
        <time>2026-05-25T12:25:52.000Z</time>
      </trkpt>
      <trkpt lat="44.64236" lon="5.18559">
        <ele>1260</ele>
        <time>2026-05-25T12:25:53.000Z</time>
      </trkpt>
      <trkpt lat="44.64236" lon="5.18559">
        <ele>1260</ele>
        <time>2026-05-25T12:25:54.000Z</time>
      </trkpt>
      <trkpt lat="44.64236" lon="5.18559">
        <ele>1260</ele>
        <time>2026-05-25T12:25:55.000Z</time>
      </trkpt>
      <trkpt lat="44.64236" lon="5.18559">
        <ele>1260</ele>
        <time>2026-05-25T12:25:56.000Z</time>
      </trkpt>
      <trkpt lat="44.64236" lon="5.18559">
        <ele>1260</ele>
        <time>2026-05-25T12:25:57.000Z</time>
      </trkpt>
      <trkpt lat="44.64233" lon="5.18557">
        <ele>1259</ele>
        <time>2026-05-25T12:25:58.000Z</time>
      </trkpt>
      <trkpt lat="44.64232" lon="5.18557">
        <ele>1259</ele>
        <time>2026-05-25T12:25:59.000Z</time>
      </trkpt>
      <trkpt lat="44.64231" lon="5.18556">
        <ele>1260</ele>
        <time>2026-05-25T12:26:00.000Z</time>
      </trkpt>
      <trkpt lat="44.64231" lon="5.18555">
        <ele>1261</ele>
        <time>2026-05-25T12:26:01.000Z</time>
      </trkpt>
      <trkpt lat="44.64231" lon="5.18555">
        <ele>1261</ele>
        <time>2026-05-25T12:26:02.000Z</time>
      </trkpt>
      <trkpt lat="44.6423" lon="5.18555">
        <ele>1263</ele>
        <time>2026-05-25T12:26:03.000Z</time>
      </trkpt>
      <trkpt lat="44.64229" lon="5.18555">
        <ele>1262</ele>
        <time>2026-05-25T12:26:04.000Z</time>
      </trkpt>
      <trkpt lat="44.64229" lon="5.18555">
        <ele>1262</ele>
        <time>2026-05-25T12:26:05.000Z</time>
      </trkpt>
      <trkpt lat="44.64228" lon="5.18555">
        <ele>1263</ele>
        <time>2026-05-25T12:26:06.000Z</time>
      </trkpt>
      <trkpt lat="44.64228" lon="5.18554">
        <ele>1264</ele>
        <time>2026-05-25T12:26:07.000Z</time>
      </trkpt>
      <trkpt lat="44.64228" lon="5.18554">
        <ele>1264</ele>
        <time>2026-05-25T12:26:08.000Z</time>
      </trkpt>
      <trkpt lat="44.64228" lon="5.18554">
        <ele>1264</ele>
        <time>2026-05-25T12:26:09.000Z</time>
      </trkpt>
      <trkpt lat="44.64228" lon="5.18554">
        <ele>1264</ele>
        <time>2026-05-25T12:26:10.000Z</time>
      </trkpt>
      <trkpt lat="44.64226" lon="5.18554">
        <ele>1264</ele>
        <time>2026-05-25T12:26:11.000Z</time>
      </trkpt>
      <trkpt lat="44.64226" lon="5.18554">
        <ele>1265</ele>
        <time>2026-05-25T12:26:12.000Z</time>
      </trkpt>
      <trkpt lat="44.64224" lon="5.18553">
        <ele>1264</ele>
        <time>2026-05-25T12:26:13.000Z</time>
      </trkpt>
      <trkpt lat="44.64223" lon="5.18553">
        <ele>1265</ele>
        <time>2026-05-25T12:26:14.000Z</time>
      </trkpt>
      <trkpt lat="44.64221" lon="5.18552">
        <ele>1265</ele>
        <time>2026-05-25T12:26:15.000Z</time>
      </trkpt>
      <trkpt lat="44.6422" lon="5.18551">
        <ele>1265</ele>
        <time>2026-05-25T12:26:16.000Z</time>
      </trkpt>
      <trkpt lat="44.64218" lon="5.18549">
        <ele>1264</ele>
        <time>2026-05-25T12:26:17.000Z</time>
      </trkpt>
      <trkpt lat="44.64218" lon="5.18549">
        <ele>1264</ele>
        <time>2026-05-25T12:26:18.000Z</time>
      </trkpt>
      <trkpt lat="44.64218" lon="5.18549">
        <ele>1264</ele>
        <time>2026-05-25T12:26:19.000Z</time>
      </trkpt>
      <trkpt lat="44.64218" lon="5.18549">
        <ele>1264</ele>
        <time>2026-05-25T12:26:20.000Z</time>
      </trkpt>
      <trkpt lat="44.64218" lon="5.18549">
        <ele>1264</ele>
        <time>2026-05-25T12:26:21.000Z</time>
      </trkpt>
      <trkpt lat="44.64218" lon="5.18549">
        <ele>1264</ele>
        <time>2026-05-25T12:26:22.000Z</time>
      </trkpt>
      <trkpt lat="44.64218" lon="5.18549">
        <ele>1264</ele>
        <time>2026-05-25T12:26:23.000Z</time>
      </trkpt>
      <trkpt lat="44.64218" lon="5.18549">
        <ele>1264</ele>
        <time>2026-05-25T12:26:24.000Z</time>
      </trkpt>
      <trkpt lat="44.64216" lon="5.18544">
        <ele>1264</ele>
        <time>2026-05-25T12:26:25.000Z</time>
      </trkpt>
      <trkpt lat="44.64215" lon="5.18544">
        <ele>1264</ele>
        <time>2026-05-25T12:26:26.000Z</time>
      </trkpt>
      <trkpt lat="44.64214" lon="5.18543">
        <ele>1264</ele>
        <time>2026-05-25T12:26:27.000Z</time>
      </trkpt>
      <trkpt lat="44.64214" lon="5.18543">
        <ele>1263</ele>
        <time>2026-05-25T12:26:28.000Z</time>
      </trkpt>
      <trkpt lat="44.64213" lon="5.18543">
        <ele>1264</ele>
        <time>2026-05-25T12:26:29.000Z</time>
      </trkpt>
      <trkpt lat="44.64214" lon="5.18541">
        <ele>1263</ele>
        <time>2026-05-25T12:26:30.000Z</time>
      </trkpt>
      <trkpt lat="44.64214" lon="5.18541">
        <ele>1263</ele>
        <time>2026-05-25T12:26:31.000Z</time>
      </trkpt>
      <trkpt lat="44.64214" lon="5.18541">
        <ele>1263</ele>
        <time>2026-05-25T12:26:32.000Z</time>
      </trkpt>
      <trkpt lat="44.64214" lon="5.18539">
        <ele>1261</ele>
        <time>2026-05-25T12:26:33.000Z</time>
      </trkpt>
      <trkpt lat="44.64214" lon="5.18539">
        <ele>1261</ele>
        <time>2026-05-25T12:26:34.000Z</time>
      </trkpt>
      <trkpt lat="44.64213" lon="5.18538">
        <ele>1260</ele>
        <time>2026-05-25T12:26:35.000Z</time>
      </trkpt>
      <trkpt lat="44.64214" lon="5.18537">
        <ele>1260</ele>
        <time>2026-05-25T12:26:36.000Z</time>
      </trkpt>
      <trkpt lat="44.64214" lon="5.18536">
        <ele>1259</ele>
        <time>2026-05-25T12:26:37.000Z</time>
      </trkpt>
      <trkpt lat="44.64213" lon="5.18536">
        <ele>1258</ele>
        <time>2026-05-25T12:26:38.000Z</time>
      </trkpt>
      <trkpt lat="44.64213" lon="5.18535">
        <ele>1258</ele>
        <time>2026-05-25T12:26:39.000Z</time>
      </trkpt>
      <trkpt lat="44.64212" lon="5.18534">
        <ele>1257</ele>
        <time>2026-05-25T12:26:40.000Z</time>
      </trkpt>
      <trkpt lat="44.6421" lon="5.18535">
        <ele>1257</ele>
        <time>2026-05-25T12:26:41.000Z</time>
      </trkpt>
      <trkpt lat="44.64209" lon="5.18534">
        <ele>1256</ele>
        <time>2026-05-25T12:26:42.000Z</time>
      </trkpt>
      <trkpt lat="44.64208" lon="5.18533">
        <ele>1256</ele>
        <time>2026-05-25T12:26:43.000Z</time>
      </trkpt>
      <trkpt lat="44.64207" lon="5.18534">
        <ele>1256</ele>
        <time>2026-05-25T12:26:44.000Z</time>
      </trkpt>
      <trkpt lat="44.64205" lon="5.18534">
        <ele>1256</ele>
        <time>2026-05-25T12:26:45.000Z</time>
      </trkpt>
      <trkpt lat="44.64205" lon="5.18533">
        <ele>1256</ele>
        <time>2026-05-25T12:26:46.000Z</time>
      </trkpt>
      <trkpt lat="44.64204" lon="5.18532">
        <ele>1256</ele>
        <time>2026-05-25T12:26:47.000Z</time>
      </trkpt>
      <trkpt lat="44.64203" lon="5.18531">
        <ele>1256</ele>
        <time>2026-05-25T12:26:48.000Z</time>
      </trkpt>
      <trkpt lat="44.64203" lon="5.18531">
        <ele>1256</ele>
        <time>2026-05-25T12:26:49.000Z</time>
      </trkpt>
      <trkpt lat="44.64202" lon="5.1853">
        <ele>1257</ele>
        <time>2026-05-25T12:26:50.000Z</time>
      </trkpt>
      <trkpt lat="44.64202" lon="5.1853">
        <ele>1257</ele>
        <time>2026-05-25T12:26:51.000Z</time>
      </trkpt>
      <trkpt lat="44.64202" lon="5.1853">
        <ele>1257</ele>
        <time>2026-05-25T12:26:52.000Z</time>
      </trkpt>
      <trkpt lat="44.64201" lon="5.1853">
        <ele>1258</ele>
        <time>2026-05-25T12:26:53.000Z</time>
      </trkpt>
      <trkpt lat="44.642" lon="5.1853">
        <ele>1259</ele>
        <time>2026-05-25T12:26:54.000Z</time>
      </trkpt>
      <trkpt lat="44.64199" lon="5.18529">
        <ele>1259</ele>
        <time>2026-05-25T12:26:55.000Z</time>
      </trkpt>
      <trkpt lat="44.64198" lon="5.18529">
        <ele>1258</ele>
        <time>2026-05-25T12:26:56.000Z</time>
      </trkpt>
      <trkpt lat="44.64197" lon="5.18528">
        <ele>1258</ele>
        <time>2026-05-25T12:26:57.000Z</time>
      </trkpt>
      <trkpt lat="44.64197" lon="5.18525">
        <ele>1259</ele>
        <time>2026-05-25T12:26:58.000Z</time>
      </trkpt>
      <trkpt lat="44.64197" lon="5.18523">
        <ele>1259</ele>
        <time>2026-05-25T12:26:59.000Z</time>
      </trkpt>
      <trkpt lat="44.64196" lon="5.18523">
        <ele>1259</ele>
        <time>2026-05-25T12:27:00.000Z</time>
      </trkpt>
      <trkpt lat="44.64195" lon="5.18522">
        <ele>1259</ele>
        <time>2026-05-25T12:27:01.000Z</time>
      </trkpt>
      <trkpt lat="44.64194" lon="5.18521">
        <ele>1259</ele>
        <time>2026-05-25T12:27:02.000Z</time>
      </trkpt>
      <trkpt lat="44.64193" lon="5.18521">
        <ele>1259</ele>
        <time>2026-05-25T12:27:03.000Z</time>
      </trkpt>
      <trkpt lat="44.64192" lon="5.1852">
        <ele>1260</ele>
        <time>2026-05-25T12:27:04.000Z</time>
      </trkpt>
      <trkpt lat="44.64191" lon="5.18519">
        <ele>1260</ele>
        <time>2026-05-25T12:27:05.000Z</time>
      </trkpt>
      <trkpt lat="44.64191" lon="5.18519">
        <ele>1260</ele>
        <time>2026-05-25T12:27:06.000Z</time>
      </trkpt>
      <trkpt lat="44.6419" lon="5.18517">
        <ele>1260</ele>
        <time>2026-05-25T12:27:07.000Z</time>
      </trkpt>
      <trkpt lat="44.64189" lon="5.18516">
        <ele>1260</ele>
        <time>2026-05-25T12:27:08.000Z</time>
      </trkpt>
      <trkpt lat="44.64188" lon="5.18515">
        <ele>1259</ele>
        <time>2026-05-25T12:27:09.000Z</time>
      </trkpt>
      <trkpt lat="44.64186" lon="5.18513">
        <ele>1260</ele>
        <time>2026-05-25T12:27:10.000Z</time>
      </trkpt>
      <trkpt lat="44.64185" lon="5.18513">
        <ele>1260</ele>
        <time>2026-05-25T12:27:11.000Z</time>
      </trkpt>
      <trkpt lat="44.64184" lon="5.18512">
        <ele>1260</ele>
        <time>2026-05-25T12:27:12.000Z</time>
      </trkpt>
      <trkpt lat="44.64182" lon="5.18512">
        <ele>1260</ele>
        <time>2026-05-25T12:27:13.000Z</time>
      </trkpt>
      <trkpt lat="44.64182" lon="5.18511">
        <ele>1260</ele>
        <time>2026-05-25T12:27:14.000Z</time>
      </trkpt>
      <trkpt lat="44.64181" lon="5.1851">
        <ele>1260</ele>
        <time>2026-05-25T12:27:15.000Z</time>
      </trkpt>
      <trkpt lat="44.6418" lon="5.18509">
        <ele>1259</ele>
        <time>2026-05-25T12:27:16.000Z</time>
      </trkpt>
      <trkpt lat="44.6418" lon="5.18507">
        <ele>1259</ele>
        <time>2026-05-25T12:27:17.000Z</time>
      </trkpt>
      <trkpt lat="44.6418" lon="5.18506">
        <ele>1259</ele>
        <time>2026-05-25T12:27:18.000Z</time>
      </trkpt>
      <trkpt lat="44.64179" lon="5.18505">
        <ele>1259</ele>
        <time>2026-05-25T12:27:19.000Z</time>
      </trkpt>
      <trkpt lat="44.64178" lon="5.18504">
        <ele>1259</ele>
        <time>2026-05-25T12:27:20.000Z</time>
      </trkpt>
      <trkpt lat="44.64177" lon="5.18503">
        <ele>1258</ele>
        <time>2026-05-25T12:27:21.000Z</time>
      </trkpt>
      <trkpt lat="44.64176" lon="5.18502">
        <ele>1258</ele>
        <time>2026-05-25T12:27:22.000Z</time>
      </trkpt>
      <trkpt lat="44.64176" lon="5.18501">
        <ele>1258</ele>
        <time>2026-05-25T12:27:23.000Z</time>
      </trkpt>
      <trkpt lat="44.64175" lon="5.185">
        <ele>1258</ele>
        <time>2026-05-25T12:27:24.000Z</time>
      </trkpt>
      <trkpt lat="44.64174" lon="5.18499">
        <ele>1258</ele>
        <time>2026-05-25T12:27:25.000Z</time>
      </trkpt>
      <trkpt lat="44.64173" lon="5.18498">
        <ele>1258</ele>
        <time>2026-05-25T12:27:26.000Z</time>
      </trkpt>
      <trkpt lat="44.64172" lon="5.18497">
        <ele>1259</ele>
        <time>2026-05-25T12:27:27.000Z</time>
      </trkpt>
      <trkpt lat="44.64171" lon="5.18495">
        <ele>1258</ele>
        <time>2026-05-25T12:27:28.000Z</time>
      </trkpt>
      <trkpt lat="44.6417" lon="5.18493">
        <ele>1258</ele>
        <time>2026-05-25T12:27:29.000Z</time>
      </trkpt>
      <trkpt lat="44.6417" lon="5.18491">
        <ele>1258</ele>
        <time>2026-05-25T12:27:30.000Z</time>
      </trkpt>
      <trkpt lat="44.6417" lon="5.1849">
        <ele>1259</ele>
        <time>2026-05-25T12:27:31.000Z</time>
      </trkpt>
      <trkpt lat="44.64169" lon="5.18489">
        <ele>1259</ele>
        <time>2026-05-25T12:27:32.000Z</time>
      </trkpt>
      <trkpt lat="44.64168" lon="5.18488">
        <ele>1258</ele>
        <time>2026-05-25T12:27:33.000Z</time>
      </trkpt>
      <trkpt lat="44.64166" lon="5.18487">
        <ele>1259</ele>
        <time>2026-05-25T12:27:34.000Z</time>
      </trkpt>
      <trkpt lat="44.64165" lon="5.18487">
        <ele>1260</ele>
        <time>2026-05-25T12:27:35.000Z</time>
      </trkpt>
      <trkpt lat="44.64165" lon="5.18486">
        <ele>1260</ele>
        <time>2026-05-25T12:27:36.000Z</time>
      </trkpt>
      <trkpt lat="44.64164" lon="5.18485">
        <ele>1259</ele>
        <time>2026-05-25T12:27:37.000Z</time>
      </trkpt>
      <trkpt lat="44.64163" lon="5.18484">
        <ele>1259</ele>
        <time>2026-05-25T12:27:38.000Z</time>
      </trkpt>
      <trkpt lat="44.64162" lon="5.18484">
        <ele>1259</ele>
        <time>2026-05-25T12:27:39.000Z</time>
      </trkpt>
      <trkpt lat="44.64161" lon="5.18483">
        <ele>1259</ele>
        <time>2026-05-25T12:27:40.000Z</time>
      </trkpt>
      <trkpt lat="44.6416" lon="5.18483">
        <ele>1259</ele>
        <time>2026-05-25T12:27:41.000Z</time>
      </trkpt>
      <trkpt lat="44.64159" lon="5.18482">
        <ele>1260</ele>
        <time>2026-05-25T12:27:42.000Z</time>
      </trkpt>
      <trkpt lat="44.64158" lon="5.18483">
        <ele>1261</ele>
        <time>2026-05-25T12:27:43.000Z</time>
      </trkpt>
      <trkpt lat="44.64158" lon="5.18483">
        <ele>1261</ele>
        <time>2026-05-25T12:27:44.000Z</time>
      </trkpt>
      <trkpt lat="44.64156" lon="5.18483">
        <ele>1261</ele>
        <time>2026-05-25T12:27:45.000Z</time>
      </trkpt>
      <trkpt lat="44.64155" lon="5.18482">
        <ele>1260</ele>
        <time>2026-05-25T12:27:46.000Z</time>
      </trkpt>
      <trkpt lat="44.64155" lon="5.18482">
        <ele>1260</ele>
        <time>2026-05-25T12:27:47.000Z</time>
      </trkpt>
      <trkpt lat="44.64154" lon="5.18482">
        <ele>1260</ele>
        <time>2026-05-25T12:27:48.000Z</time>
      </trkpt>
      <trkpt lat="44.64153" lon="5.18482">
        <ele>1260</ele>
        <time>2026-05-25T12:27:49.000Z</time>
      </trkpt>
      <trkpt lat="44.64152" lon="5.18482">
        <ele>1259</ele>
        <time>2026-05-25T12:27:50.000Z</time>
      </trkpt>
      <trkpt lat="44.64152" lon="5.18482">
        <ele>1260</ele>
        <time>2026-05-25T12:27:51.000Z</time>
      </trkpt>
      <trkpt lat="44.64151" lon="5.18482">
        <ele>1260</ele>
        <time>2026-05-25T12:27:52.000Z</time>
      </trkpt>
      <trkpt lat="44.6415" lon="5.18482">
        <ele>1259</ele>
        <time>2026-05-25T12:27:53.000Z</time>
      </trkpt>
      <trkpt lat="44.6415" lon="5.18482">
        <ele>1259</ele>
        <time>2026-05-25T12:27:54.000Z</time>
      </trkpt>
      <trkpt lat="44.6415" lon="5.18482">
        <ele>1259</ele>
        <time>2026-05-25T12:27:55.000Z</time>
      </trkpt>
      <trkpt lat="44.6415" lon="5.18481">
        <ele>1259</ele>
        <time>2026-05-25T12:27:56.000Z</time>
      </trkpt>
      <trkpt lat="44.64148" lon="5.1848">
        <ele>1260</ele>
        <time>2026-05-25T12:27:57.000Z</time>
      </trkpt>
      <trkpt lat="44.64148" lon="5.18481">
        <ele>1261</ele>
        <time>2026-05-25T12:27:58.000Z</time>
      </trkpt>
      <trkpt lat="44.64148" lon="5.18481">
        <ele>1261</ele>
        <time>2026-05-25T12:27:59.000Z</time>
      </trkpt>
      <trkpt lat="44.64148" lon="5.18481">
        <ele>1261</ele>
        <time>2026-05-25T12:28:00.000Z</time>
      </trkpt>
      <trkpt lat="44.64149" lon="5.1848">
        <ele>1261</ele>
        <time>2026-05-25T12:28:01.000Z</time>
      </trkpt>
      <trkpt lat="44.64149" lon="5.18478">
        <ele>1261</ele>
        <time>2026-05-25T12:28:02.000Z</time>
      </trkpt>
      <trkpt lat="44.64148" lon="5.18477">
        <ele>1262</ele>
        <time>2026-05-25T12:28:03.000Z</time>
      </trkpt>
      <trkpt lat="44.64148" lon="5.18477">
        <ele>1262</ele>
        <time>2026-05-25T12:28:04.000Z</time>
      </trkpt>
      <trkpt lat="44.64148" lon="5.18477">
        <ele>1262</ele>
        <time>2026-05-25T12:28:05.000Z</time>
      </trkpt>
      <trkpt lat="44.64147" lon="5.18477">
        <ele>1264</ele>
        <time>2026-05-25T12:28:06.000Z</time>
      </trkpt>
      <trkpt lat="44.64147" lon="5.18477">
        <ele>1264</ele>
        <time>2026-05-25T12:28:07.000Z</time>
      </trkpt>
      <trkpt lat="44.64147" lon="5.18477">
        <ele>1264</ele>
        <time>2026-05-25T12:28:08.000Z</time>
      </trkpt>
      <trkpt lat="44.64147" lon="5.18477">
        <ele>1264</ele>
        <time>2026-05-25T12:28:09.000Z</time>
      </trkpt>
      <trkpt lat="44.64148" lon="5.18478">
        <ele>1266</ele>
        <time>2026-05-25T12:28:10.000Z</time>
      </trkpt>
      <trkpt lat="44.64148" lon="5.18478">
        <ele>1267</ele>
        <time>2026-05-25T12:28:11.000Z</time>
      </trkpt>
      <trkpt lat="44.64149" lon="5.18479">
        <ele>1268</ele>
        <time>2026-05-25T12:28:12.000Z</time>
      </trkpt>
      <trkpt lat="44.64149" lon="5.18479">
        <ele>1267</ele>
        <time>2026-05-25T12:28:13.000Z</time>
      </trkpt>
      <trkpt lat="44.64149" lon="5.1848">
        <ele>1266</ele>
        <time>2026-05-25T12:28:14.000Z</time>
      </trkpt>
      <trkpt lat="44.64149" lon="5.18481">
        <ele>1266</ele>
        <time>2026-05-25T12:28:15.000Z</time>
      </trkpt>
      <trkpt lat="44.6415" lon="5.18482">
        <ele>1268</ele>
        <time>2026-05-25T12:28:16.000Z</time>
      </trkpt>
      <trkpt lat="44.64151" lon="5.18482">
        <ele>1268</ele>
        <time>2026-05-25T12:28:17.000Z</time>
      </trkpt>
      <trkpt lat="44.6415" lon="5.18482">
        <ele>1268</ele>
        <time>2026-05-25T12:28:18.000Z</time>
      </trkpt>
      <trkpt lat="44.6415" lon="5.18482">
        <ele>1268</ele>
        <time>2026-05-25T12:28:19.000Z</time>
      </trkpt>
      <trkpt lat="44.6415" lon="5.18482">
        <ele>1268</ele>
        <time>2026-05-25T12:28:20.000Z</time>
      </trkpt>
      <trkpt lat="44.6415" lon="5.18482">
        <ele>1268</ele>
        <time>2026-05-25T12:28:21.000Z</time>
      </trkpt>
      <trkpt lat="44.6415" lon="5.18484">
        <ele>1268</ele>
        <time>2026-05-25T12:28:22.000Z</time>
      </trkpt>
      <trkpt lat="44.64151" lon="5.18486">
        <ele>1268</ele>
        <time>2026-05-25T12:28:23.000Z</time>
      </trkpt>
      <trkpt lat="44.64151" lon="5.18488">
        <ele>1268</ele>
        <time>2026-05-25T12:28:24.000Z</time>
      </trkpt>
      <trkpt lat="44.64151" lon="5.1849">
        <ele>1268</ele>
        <time>2026-05-25T12:28:25.000Z</time>
      </trkpt>
      <trkpt lat="44.64151" lon="5.18492">
        <ele>1267</ele>
        <time>2026-05-25T12:28:26.000Z</time>
      </trkpt>
      <trkpt lat="44.64151" lon="5.18493">
        <ele>1267</ele>
        <time>2026-05-25T12:28:27.000Z</time>
      </trkpt>
      <trkpt lat="44.64151" lon="5.18495">
        <ele>1268</ele>
        <time>2026-05-25T12:28:28.000Z</time>
      </trkpt>
      <trkpt lat="44.64151" lon="5.18497">
        <ele>1268</ele>
        <time>2026-05-25T12:28:29.000Z</time>
      </trkpt>
      <trkpt lat="44.64151" lon="5.18499">
        <ele>1268</ele>
        <time>2026-05-25T12:28:30.000Z</time>
      </trkpt>
      <trkpt lat="44.64151" lon="5.185">
        <ele>1268</ele>
        <time>2026-05-25T12:28:31.000Z</time>
      </trkpt>
      <trkpt lat="44.64151" lon="5.18502">
        <ele>1269</ele>
        <time>2026-05-25T12:28:32.000Z</time>
      </trkpt>
      <trkpt lat="44.64151" lon="5.18503">
        <ele>1268</ele>
        <time>2026-05-25T12:28:33.000Z</time>
      </trkpt>
      <trkpt lat="44.64151" lon="5.18505">
        <ele>1268</ele>
        <time>2026-05-25T12:28:34.000Z</time>
      </trkpt>
      <trkpt lat="44.64152" lon="5.18507">
        <ele>1269</ele>
        <time>2026-05-25T12:28:35.000Z</time>
      </trkpt>
      <trkpt lat="44.64152" lon="5.18508">
        <ele>1269</ele>
        <time>2026-05-25T12:28:36.000Z</time>
      </trkpt>
      <trkpt lat="44.64152" lon="5.1851">
        <ele>1269</ele>
        <time>2026-05-25T12:28:37.000Z</time>
      </trkpt>
      <trkpt lat="44.64153" lon="5.18511">
        <ele>1269</ele>
        <time>2026-05-25T12:28:38.000Z</time>
      </trkpt>
      <trkpt lat="44.64153" lon="5.18513">
        <ele>1268</ele>
        <time>2026-05-25T12:28:39.000Z</time>
      </trkpt>
      <trkpt lat="44.64153" lon="5.18514">
        <ele>1268</ele>
        <time>2026-05-25T12:28:40.000Z</time>
      </trkpt>
      <trkpt lat="44.64154" lon="5.18516">
        <ele>1268</ele>
        <time>2026-05-25T12:28:41.000Z</time>
      </trkpt>
      <trkpt lat="44.64154" lon="5.18517">
        <ele>1268</ele>
        <time>2026-05-25T12:28:42.000Z</time>
      </trkpt>
      <trkpt lat="44.64154" lon="5.18519">
        <ele>1269</ele>
        <time>2026-05-25T12:28:43.000Z</time>
      </trkpt>
      <trkpt lat="44.64155" lon="5.1852">
        <ele>1268</ele>
        <time>2026-05-25T12:28:44.000Z</time>
      </trkpt>
      <trkpt lat="44.64156" lon="5.18521">
        <ele>1268</ele>
        <time>2026-05-25T12:28:45.000Z</time>
      </trkpt>
      <trkpt lat="44.64156" lon="5.18523">
        <ele>1269</ele>
        <time>2026-05-25T12:28:46.000Z</time>
      </trkpt>
      <trkpt lat="44.64157" lon="5.18525">
        <ele>1270</ele>
        <time>2026-05-25T12:28:47.000Z</time>
      </trkpt>
      <trkpt lat="44.64157" lon="5.18526">
        <ele>1269</ele>
        <time>2026-05-25T12:28:48.000Z</time>
      </trkpt>
      <trkpt lat="44.64158" lon="5.18527">
        <ele>1269</ele>
        <time>2026-05-25T12:28:49.000Z</time>
      </trkpt>
      <trkpt lat="44.64159" lon="5.18527">
        <ele>1269</ele>
        <time>2026-05-25T12:28:50.000Z</time>
      </trkpt>
      <trkpt lat="44.64159" lon="5.18529">
        <ele>1269</ele>
        <time>2026-05-25T12:28:51.000Z</time>
      </trkpt>
      <trkpt lat="44.6416" lon="5.1853">
        <ele>1269</ele>
        <time>2026-05-25T12:28:52.000Z</time>
      </trkpt>
      <trkpt lat="44.6416" lon="5.18531">
        <ele>1270</ele>
        <time>2026-05-25T12:28:53.000Z</time>
      </trkpt>
      <trkpt lat="44.64161" lon="5.18533">
        <ele>1269</ele>
        <time>2026-05-25T12:28:54.000Z</time>
      </trkpt>
      <trkpt lat="44.64161" lon="5.18535">
        <ele>1270</ele>
        <time>2026-05-25T12:28:55.000Z</time>
      </trkpt>
      <trkpt lat="44.64162" lon="5.18537">
        <ele>1269</ele>
        <time>2026-05-25T12:28:56.000Z</time>
      </trkpt>
      <trkpt lat="44.64162" lon="5.18539">
        <ele>1271</ele>
        <time>2026-05-25T12:28:57.000Z</time>
      </trkpt>
      <trkpt lat="44.64163" lon="5.18541">
        <ele>1271</ele>
        <time>2026-05-25T12:28:58.000Z</time>
      </trkpt>
      <trkpt lat="44.64163" lon="5.18542">
        <ele>1271</ele>
        <time>2026-05-25T12:28:59.000Z</time>
      </trkpt>
      <trkpt lat="44.64164" lon="5.18544">
        <ele>1270</ele>
        <time>2026-05-25T12:29:00.000Z</time>
      </trkpt>
      <trkpt lat="44.64164" lon="5.18545">
        <ele>1270</ele>
        <time>2026-05-25T12:29:01.000Z</time>
      </trkpt>
      <trkpt lat="44.64164" lon="5.18546">
        <ele>1270</ele>
        <time>2026-05-25T12:29:02.000Z</time>
      </trkpt>
      <trkpt lat="44.64165" lon="5.18548">
        <ele>1270</ele>
        <time>2026-05-25T12:29:03.000Z</time>
      </trkpt>
      <trkpt lat="44.64165" lon="5.1855">
        <ele>1270</ele>
        <time>2026-05-25T12:29:04.000Z</time>
      </trkpt>
      <trkpt lat="44.64165" lon="5.18551">
        <ele>1269</ele>
        <time>2026-05-25T12:29:05.000Z</time>
      </trkpt>
      <trkpt lat="44.64165" lon="5.18553">
        <ele>1269</ele>
        <time>2026-05-25T12:29:06.000Z</time>
      </trkpt>
      <trkpt lat="44.64166" lon="5.18555">
        <ele>1268</ele>
        <time>2026-05-25T12:29:07.000Z</time>
      </trkpt>
      <trkpt lat="44.64166" lon="5.18557">
        <ele>1268</ele>
        <time>2026-05-25T12:29:08.000Z</time>
      </trkpt>
      <trkpt lat="44.64166" lon="5.18559">
        <ele>1268</ele>
        <time>2026-05-25T12:29:09.000Z</time>
      </trkpt>
      <trkpt lat="44.64166" lon="5.1856">
        <ele>1267</ele>
        <time>2026-05-25T12:29:10.000Z</time>
      </trkpt>
      <trkpt lat="44.64166" lon="5.18562">
        <ele>1267</ele>
        <time>2026-05-25T12:29:11.000Z</time>
      </trkpt>
      <trkpt lat="44.64166" lon="5.18564">
        <ele>1267</ele>
        <time>2026-05-25T12:29:12.000Z</time>
      </trkpt>
      <trkpt lat="44.64167" lon="5.18565">
        <ele>1267</ele>
        <time>2026-05-25T12:29:13.000Z</time>
      </trkpt>
      <trkpt lat="44.64167" lon="5.18567">
        <ele>1268</ele>
        <time>2026-05-25T12:29:14.000Z</time>
      </trkpt>
      <trkpt lat="44.64167" lon="5.18569">
        <ele>1268</ele>
        <time>2026-05-25T12:29:15.000Z</time>
      </trkpt>
      <trkpt lat="44.64167" lon="5.18571">
        <ele>1268</ele>
        <time>2026-05-25T12:29:16.000Z</time>
      </trkpt>
      <trkpt lat="44.64167" lon="5.18573">
        <ele>1270</ele>
        <time>2026-05-25T12:29:17.000Z</time>
      </trkpt>
      <trkpt lat="44.64167" lon="5.18574">
        <ele>1271</ele>
        <time>2026-05-25T12:29:18.000Z</time>
      </trkpt>
      <trkpt lat="44.64167" lon="5.18575">
        <ele>1271</ele>
        <time>2026-05-25T12:29:19.000Z</time>
      </trkpt>
      <trkpt lat="44.64167" lon="5.18576">
        <ele>1272</ele>
        <time>2026-05-25T12:29:20.000Z</time>
      </trkpt>
      <trkpt lat="44.64167" lon="5.18578">
        <ele>1271</ele>
        <time>2026-05-25T12:29:21.000Z</time>
      </trkpt>
      <trkpt lat="44.64168" lon="5.18579">
        <ele>1271</ele>
        <time>2026-05-25T12:29:22.000Z</time>
      </trkpt>
      <trkpt lat="44.64168" lon="5.1858">
        <ele>1271</ele>
        <time>2026-05-25T12:29:23.000Z</time>
      </trkpt>
      <trkpt lat="44.64168" lon="5.18582">
        <ele>1271</ele>
        <time>2026-05-25T12:29:24.000Z</time>
      </trkpt>
      <trkpt lat="44.64168" lon="5.18583">
        <ele>1271</ele>
        <time>2026-05-25T12:29:25.000Z</time>
      </trkpt>
      <trkpt lat="44.64168" lon="5.18584">
        <ele>1271</ele>
        <time>2026-05-25T12:29:26.000Z</time>
      </trkpt>
      <trkpt lat="44.64167" lon="5.18586">
        <ele>1271</ele>
        <time>2026-05-25T12:29:27.000Z</time>
      </trkpt>
      <trkpt lat="44.64168" lon="5.18588">
        <ele>1271</ele>
        <time>2026-05-25T12:29:28.000Z</time>
      </trkpt>
      <trkpt lat="44.64168" lon="5.18589">
        <ele>1271</ele>
        <time>2026-05-25T12:29:29.000Z</time>
      </trkpt>
      <trkpt lat="44.64168" lon="5.1859">
        <ele>1271</ele>
        <time>2026-05-25T12:29:30.000Z</time>
      </trkpt>
      <trkpt lat="44.64168" lon="5.18592">
        <ele>1271</ele>
        <time>2026-05-25T12:29:31.000Z</time>
      </trkpt>
      <trkpt lat="44.64168" lon="5.18593">
        <ele>1271</ele>
        <time>2026-05-25T12:29:32.000Z</time>
      </trkpt>
      <trkpt lat="44.64169" lon="5.18594">
        <ele>1271</ele>
        <time>2026-05-25T12:29:33.000Z</time>
      </trkpt>
      <trkpt lat="44.64169" lon="5.18596">
        <ele>1271</ele>
        <time>2026-05-25T12:29:34.000Z</time>
      </trkpt>
      <trkpt lat="44.64169" lon="5.18597">
        <ele>1270</ele>
        <time>2026-05-25T12:29:35.000Z</time>
      </trkpt>
      <trkpt lat="44.64169" lon="5.18599">
        <ele>1270</ele>
        <time>2026-05-25T12:29:36.000Z</time>
      </trkpt>
      <trkpt lat="44.64169" lon="5.18601">
        <ele>1270</ele>
        <time>2026-05-25T12:29:37.000Z</time>
      </trkpt>
      <trkpt lat="44.64169" lon="5.18603">
        <ele>1271</ele>
        <time>2026-05-25T12:29:38.000Z</time>
      </trkpt>
      <trkpt lat="44.64169" lon="5.18604">
        <ele>1271</ele>
        <time>2026-05-25T12:29:39.000Z</time>
      </trkpt>
      <trkpt lat="44.64169" lon="5.18605">
        <ele>1270</ele>
        <time>2026-05-25T12:29:40.000Z</time>
      </trkpt>
      <trkpt lat="44.64169" lon="5.18607">
        <ele>1271</ele>
        <time>2026-05-25T12:29:41.000Z</time>
      </trkpt>
      <trkpt lat="44.64168" lon="5.18608">
        <ele>1270</ele>
        <time>2026-05-25T12:29:42.000Z</time>
      </trkpt>
      <trkpt lat="44.64168" lon="5.18609">
        <ele>1270</ele>
        <time>2026-05-25T12:29:43.000Z</time>
      </trkpt>
      <trkpt lat="44.64168" lon="5.18611">
        <ele>1271</ele>
        <time>2026-05-25T12:29:44.000Z</time>
      </trkpt>
      <trkpt lat="44.64168" lon="5.18612">
        <ele>1271</ele>
        <time>2026-05-25T12:29:45.000Z</time>
      </trkpt>
      <trkpt lat="44.64167" lon="5.18614">
        <ele>1271</ele>
        <time>2026-05-25T12:29:46.000Z</time>
      </trkpt>
      <trkpt lat="44.64167" lon="5.18615">
        <ele>1271</ele>
        <time>2026-05-25T12:29:47.000Z</time>
      </trkpt>
      <trkpt lat="44.64166" lon="5.18616">
        <ele>1271</ele>
        <time>2026-05-25T12:29:48.000Z</time>
      </trkpt>
      <trkpt lat="44.64166" lon="5.18618">
        <ele>1270</ele>
        <time>2026-05-25T12:29:49.000Z</time>
      </trkpt>
      <trkpt lat="44.64166" lon="5.1862">
        <ele>1270</ele>
        <time>2026-05-25T12:29:50.000Z</time>
      </trkpt>
      <trkpt lat="44.64165" lon="5.18622">
        <ele>1271</ele>
        <time>2026-05-25T12:29:51.000Z</time>
      </trkpt>
      <trkpt lat="44.64165" lon="5.18624">
        <ele>1271</ele>
        <time>2026-05-25T12:29:52.000Z</time>
      </trkpt>
      <trkpt lat="44.64165" lon="5.18625">
        <ele>1271</ele>
        <time>2026-05-25T12:29:53.000Z</time>
      </trkpt>
      <trkpt lat="44.64165" lon="5.18626">
        <ele>1270</ele>
        <time>2026-05-25T12:29:54.000Z</time>
      </trkpt>
      <trkpt lat="44.64165" lon="5.18629">
        <ele>1271</ele>
        <time>2026-05-25T12:29:55.000Z</time>
      </trkpt>
      <trkpt lat="44.64165" lon="5.1863">
        <ele>1271</ele>
        <time>2026-05-25T12:29:56.000Z</time>
      </trkpt>
      <trkpt lat="44.64165" lon="5.18631">
        <ele>1271</ele>
        <time>2026-05-25T12:29:57.000Z</time>
      </trkpt>
      <trkpt lat="44.64165" lon="5.18632">
        <ele>1271</ele>
        <time>2026-05-25T12:29:58.000Z</time>
      </trkpt>
      <trkpt lat="44.64165" lon="5.18634">
        <ele>1271</ele>
        <time>2026-05-25T12:29:59.000Z</time>
      </trkpt>
      <trkpt lat="44.64165" lon="5.18635">
        <ele>1271</ele>
        <time>2026-05-25T12:30:00.000Z</time>
      </trkpt>
      <trkpt lat="44.64165" lon="5.18637">
        <ele>1270</ele>
        <time>2026-05-25T12:30:01.000Z</time>
      </trkpt>
      <trkpt lat="44.64165" lon="5.1864">
        <ele>1270</ele>
        <time>2026-05-25T12:30:02.000Z</time>
      </trkpt>
      <trkpt lat="44.64165" lon="5.18642">
        <ele>1271</ele>
        <time>2026-05-25T12:30:03.000Z</time>
      </trkpt>
      <trkpt lat="44.64165" lon="5.18643">
        <ele>1271</ele>
        <time>2026-05-25T12:30:04.000Z</time>
      </trkpt>
      <trkpt lat="44.64165" lon="5.18645">
        <ele>1270</ele>
        <time>2026-05-25T12:30:05.000Z</time>
      </trkpt>
      <trkpt lat="44.64164" lon="5.18645">
        <ele>1270</ele>
        <time>2026-05-25T12:30:06.000Z</time>
      </trkpt>
      <trkpt lat="44.64164" lon="5.18647">
        <ele>1270</ele>
        <time>2026-05-25T12:30:07.000Z</time>
      </trkpt>
      <trkpt lat="44.64164" lon="5.18648">
        <ele>1268</ele>
        <time>2026-05-25T12:30:08.000Z</time>
      </trkpt>
      <trkpt lat="44.64163" lon="5.1865">
        <ele>1268</ele>
        <time>2026-05-25T12:30:09.000Z</time>
      </trkpt>
      <trkpt lat="44.64163" lon="5.18651">
        <ele>1267</ele>
        <time>2026-05-25T12:30:10.000Z</time>
      </trkpt>
      <trkpt lat="44.64163" lon="5.18652">
        <ele>1266</ele>
        <time>2026-05-25T12:30:11.000Z</time>
      </trkpt>
      <trkpt lat="44.64162" lon="5.18653">
        <ele>1265</ele>
        <time>2026-05-25T12:30:12.000Z</time>
      </trkpt>
      <trkpt lat="44.64162" lon="5.18655">
        <ele>1265</ele>
        <time>2026-05-25T12:30:13.000Z</time>
      </trkpt>
      <trkpt lat="44.64161" lon="5.18655">
        <ele>1265</ele>
        <time>2026-05-25T12:30:14.000Z</time>
      </trkpt>
      <trkpt lat="44.64161" lon="5.18655">
        <ele>1265</ele>
        <time>2026-05-25T12:30:15.000Z</time>
      </trkpt>
      <trkpt lat="44.6416" lon="5.18656">
        <ele>1266</ele>
        <time>2026-05-25T12:30:16.000Z</time>
      </trkpt>
      <trkpt lat="44.64159" lon="5.18657">
        <ele>1265</ele>
        <time>2026-05-25T12:30:17.000Z</time>
      </trkpt>
      <trkpt lat="44.64159" lon="5.18659">
        <ele>1265</ele>
        <time>2026-05-25T12:30:18.000Z</time>
      </trkpt>
      <trkpt lat="44.64159" lon="5.1866">
        <ele>1266</ele>
        <time>2026-05-25T12:30:19.000Z</time>
      </trkpt>
      <trkpt lat="44.64159" lon="5.18661">
        <ele>1266</ele>
        <time>2026-05-25T12:30:20.000Z</time>
      </trkpt>
      <trkpt lat="44.64158" lon="5.18662">
        <ele>1266</ele>
        <time>2026-05-25T12:30:21.000Z</time>
      </trkpt>
      <trkpt lat="44.64157" lon="5.18664">
        <ele>1267</ele>
        <time>2026-05-25T12:30:22.000Z</time>
      </trkpt>
      <trkpt lat="44.64157" lon="5.18665">
        <ele>1268</ele>
        <time>2026-05-25T12:30:23.000Z</time>
      </trkpt>
      <trkpt lat="44.64157" lon="5.18666">
        <ele>1268</ele>
        <time>2026-05-25T12:30:24.000Z</time>
      </trkpt>
      <trkpt lat="44.64156" lon="5.18668">
        <ele>1268</ele>
        <time>2026-05-25T12:30:25.000Z</time>
      </trkpt>
      <trkpt lat="44.64156" lon="5.18669">
        <ele>1268</ele>
        <time>2026-05-25T12:30:26.000Z</time>
      </trkpt>
      <trkpt lat="44.64156" lon="5.1867">
        <ele>1269</ele>
        <time>2026-05-25T12:30:27.000Z</time>
      </trkpt>
      <trkpt lat="44.64156" lon="5.1867">
        <ele>1269</ele>
        <time>2026-05-25T12:30:28.000Z</time>
      </trkpt>
      <trkpt lat="44.64154" lon="5.18672">
        <ele>1269</ele>
        <time>2026-05-25T12:30:29.000Z</time>
      </trkpt>
      <trkpt lat="44.64154" lon="5.18674">
        <ele>1269</ele>
        <time>2026-05-25T12:30:30.000Z</time>
      </trkpt>
      <trkpt lat="44.64154" lon="5.18675">
        <ele>1269</ele>
        <time>2026-05-25T12:30:31.000Z</time>
      </trkpt>
      <trkpt lat="44.64153" lon="5.18676">
        <ele>1269</ele>
        <time>2026-05-25T12:30:32.000Z</time>
      </trkpt>
      <trkpt lat="44.64153" lon="5.18678">
        <ele>1269</ele>
        <time>2026-05-25T12:30:33.000Z</time>
      </trkpt>
      <trkpt lat="44.64153" lon="5.1868">
        <ele>1270</ele>
        <time>2026-05-25T12:30:34.000Z</time>
      </trkpt>
      <trkpt lat="44.64152" lon="5.18681">
        <ele>1269</ele>
        <time>2026-05-25T12:30:35.000Z</time>
      </trkpt>
      <trkpt lat="44.64151" lon="5.18683">
        <ele>1269</ele>
        <time>2026-05-25T12:30:36.000Z</time>
      </trkpt>
      <trkpt lat="44.64151" lon="5.18684">
        <ele>1269</ele>
        <time>2026-05-25T12:30:37.000Z</time>
      </trkpt>
      <trkpt lat="44.6415" lon="5.18686">
        <ele>1269</ele>
        <time>2026-05-25T12:30:38.000Z</time>
      </trkpt>
      <trkpt lat="44.6415" lon="5.18687">
        <ele>1268</ele>
        <time>2026-05-25T12:30:39.000Z</time>
      </trkpt>
      <trkpt lat="44.6415" lon="5.18688">
        <ele>1268</ele>
        <time>2026-05-25T12:30:40.000Z</time>
      </trkpt>
      <trkpt lat="44.6415" lon="5.1869">
        <ele>1269</ele>
        <time>2026-05-25T12:30:41.000Z</time>
      </trkpt>
      <trkpt lat="44.6415" lon="5.18691">
        <ele>1269</ele>
        <time>2026-05-25T12:30:42.000Z</time>
      </trkpt>
      <trkpt lat="44.64149" lon="5.18692">
        <ele>1269</ele>
        <time>2026-05-25T12:30:43.000Z</time>
      </trkpt>
      <trkpt lat="44.64149" lon="5.18693">
        <ele>1269</ele>
        <time>2026-05-25T12:30:44.000Z</time>
      </trkpt>
      <trkpt lat="44.64149" lon="5.18695">
        <ele>1269</ele>
        <time>2026-05-25T12:30:45.000Z</time>
      </trkpt>
      <trkpt lat="44.64149" lon="5.18696">
        <ele>1269</ele>
        <time>2026-05-25T12:30:46.000Z</time>
      </trkpt>
      <trkpt lat="44.64149" lon="5.18697">
        <ele>1270</ele>
        <time>2026-05-25T12:30:47.000Z</time>
      </trkpt>
      <trkpt lat="44.64148" lon="5.18698">
        <ele>1268</ele>
        <time>2026-05-25T12:30:48.000Z</time>
      </trkpt>
      <trkpt lat="44.64147" lon="5.18699">
        <ele>1268</ele>
        <time>2026-05-25T12:30:49.000Z</time>
      </trkpt>
      <trkpt lat="44.64147" lon="5.187">
        <ele>1269</ele>
        <time>2026-05-25T12:30:50.000Z</time>
      </trkpt>
      <trkpt lat="44.64147" lon="5.18703">
        <ele>1270</ele>
        <time>2026-05-25T12:30:51.000Z</time>
      </trkpt>
      <trkpt lat="44.64147" lon="5.18704">
        <ele>1270</ele>
        <time>2026-05-25T12:30:52.000Z</time>
      </trkpt>
      <trkpt lat="44.64147" lon="5.18706">
        <ele>1270</ele>
        <time>2026-05-25T12:30:53.000Z</time>
      </trkpt>
      <trkpt lat="44.64147" lon="5.18707">
        <ele>1269</ele>
        <time>2026-05-25T12:30:54.000Z</time>
      </trkpt>
      <trkpt lat="44.64147" lon="5.18709">
        <ele>1268</ele>
        <time>2026-05-25T12:30:55.000Z</time>
      </trkpt>
      <trkpt lat="44.64146" lon="5.1871">
        <ele>1268</ele>
        <time>2026-05-25T12:30:56.000Z</time>
      </trkpt>
      <trkpt lat="44.64146" lon="5.18712">
        <ele>1268</ele>
        <time>2026-05-25T12:30:57.000Z</time>
      </trkpt>
      <trkpt lat="44.64145" lon="5.18714">
        <ele>1267</ele>
        <time>2026-05-25T12:30:58.000Z</time>
      </trkpt>
      <trkpt lat="44.64145" lon="5.18715">
        <ele>1268</ele>
        <time>2026-05-25T12:30:59.000Z</time>
      </trkpt>
      <trkpt lat="44.64145" lon="5.18716">
        <ele>1269</ele>
        <time>2026-05-25T12:31:00.000Z</time>
      </trkpt>
      <trkpt lat="44.64145" lon="5.18718">
        <ele>1269</ele>
        <time>2026-05-25T12:31:01.000Z</time>
      </trkpt>
      <trkpt lat="44.64145" lon="5.18719">
        <ele>1268</ele>
        <time>2026-05-25T12:31:02.000Z</time>
      </trkpt>
      <trkpt lat="44.64145" lon="5.18721">
        <ele>1269</ele>
        <time>2026-05-25T12:31:03.000Z</time>
      </trkpt>
      <trkpt lat="44.64145" lon="5.18722">
        <ele>1269</ele>
        <time>2026-05-25T12:31:04.000Z</time>
      </trkpt>
      <trkpt lat="44.64144" lon="5.18723">
        <ele>1268</ele>
        <time>2026-05-25T12:31:05.000Z</time>
      </trkpt>
      <trkpt lat="44.64144" lon="5.18724">
        <ele>1267</ele>
        <time>2026-05-25T12:31:06.000Z</time>
      </trkpt>
      <trkpt lat="44.64143" lon="5.18726">
        <ele>1268</ele>
        <time>2026-05-25T12:31:07.000Z</time>
      </trkpt>
      <trkpt lat="44.64142" lon="5.18727">
        <ele>1267</ele>
        <time>2026-05-25T12:31:08.000Z</time>
      </trkpt>
      <trkpt lat="44.64141" lon="5.18728">
        <ele>1268</ele>
        <time>2026-05-25T12:31:09.000Z</time>
      </trkpt>
      <trkpt lat="44.64141" lon="5.1873">
        <ele>1269</ele>
        <time>2026-05-25T12:31:10.000Z</time>
      </trkpt>
      <trkpt lat="44.64141" lon="5.18732">
        <ele>1269</ele>
        <time>2026-05-25T12:31:11.000Z</time>
      </trkpt>
      <trkpt lat="44.64141" lon="5.18734">
        <ele>1268</ele>
        <time>2026-05-25T12:31:12.000Z</time>
      </trkpt>
      <trkpt lat="44.64141" lon="5.18736">
        <ele>1268</ele>
        <time>2026-05-25T12:31:13.000Z</time>
      </trkpt>
      <trkpt lat="44.64142" lon="5.18738">
        <ele>1268</ele>
        <time>2026-05-25T12:31:14.000Z</time>
      </trkpt>
      <trkpt lat="44.64141" lon="5.18739">
        <ele>1268</ele>
        <time>2026-05-25T12:31:15.000Z</time>
      </trkpt>
      <trkpt lat="44.64141" lon="5.1874">
        <ele>1268</ele>
        <time>2026-05-25T12:31:16.000Z</time>
      </trkpt>
      <trkpt lat="44.6414" lon="5.18742">
        <ele>1268</ele>
        <time>2026-05-25T12:31:17.000Z</time>
      </trkpt>
      <trkpt lat="44.6414" lon="5.18743">
        <ele>1268</ele>
        <time>2026-05-25T12:31:18.000Z</time>
      </trkpt>
      <trkpt lat="44.64141" lon="5.18745">
        <ele>1269</ele>
        <time>2026-05-25T12:31:19.000Z</time>
      </trkpt>
      <trkpt lat="44.6414" lon="5.18746">
        <ele>1269</ele>
        <time>2026-05-25T12:31:20.000Z</time>
      </trkpt>
      <trkpt lat="44.6414" lon="5.18747">
        <ele>1268</ele>
        <time>2026-05-25T12:31:21.000Z</time>
      </trkpt>
      <trkpt lat="44.6414" lon="5.18748">
        <ele>1268</ele>
        <time>2026-05-25T12:31:22.000Z</time>
      </trkpt>
      <trkpt lat="44.64139" lon="5.18749">
        <ele>1267</ele>
        <time>2026-05-25T12:31:23.000Z</time>
      </trkpt>
      <trkpt lat="44.64139" lon="5.18751">
        <ele>1268</ele>
        <time>2026-05-25T12:31:24.000Z</time>
      </trkpt>
      <trkpt lat="44.64139" lon="5.18752">
        <ele>1268</ele>
        <time>2026-05-25T12:31:25.000Z</time>
      </trkpt>
      <trkpt lat="44.64139" lon="5.18753">
        <ele>1268</ele>
        <time>2026-05-25T12:31:26.000Z</time>
      </trkpt>
      <trkpt lat="44.64139" lon="5.18755">
        <ele>1268</ele>
        <time>2026-05-25T12:31:27.000Z</time>
      </trkpt>
      <trkpt lat="44.64139" lon="5.18757">
        <ele>1269</ele>
        <time>2026-05-25T12:31:28.000Z</time>
      </trkpt>
      <trkpt lat="44.64139" lon="5.18759">
        <ele>1270</ele>
        <time>2026-05-25T12:31:29.000Z</time>
      </trkpt>
      <trkpt lat="44.6414" lon="5.1876">
        <ele>1270</ele>
        <time>2026-05-25T12:31:30.000Z</time>
      </trkpt>
      <trkpt lat="44.6414" lon="5.18761">
        <ele>1270</ele>
        <time>2026-05-25T12:31:31.000Z</time>
      </trkpt>
      <trkpt lat="44.6414" lon="5.18763">
        <ele>1270</ele>
        <time>2026-05-25T12:31:32.000Z</time>
      </trkpt>
      <trkpt lat="44.6414" lon="5.18764">
        <ele>1270</ele>
        <time>2026-05-25T12:31:33.000Z</time>
      </trkpt>
      <trkpt lat="44.64139" lon="5.18765">
        <ele>1270</ele>
        <time>2026-05-25T12:31:34.000Z</time>
      </trkpt>
      <trkpt lat="44.64139" lon="5.18767">
        <ele>1270</ele>
        <time>2026-05-25T12:31:35.000Z</time>
      </trkpt>
      <trkpt lat="44.64139" lon="5.18768">
        <ele>1270</ele>
        <time>2026-05-25T12:31:36.000Z</time>
      </trkpt>
      <trkpt lat="44.64139" lon="5.18769">
        <ele>1270</ele>
        <time>2026-05-25T12:31:37.000Z</time>
      </trkpt>
      <trkpt lat="44.64139" lon="5.18771">
        <ele>1270</ele>
        <time>2026-05-25T12:31:38.000Z</time>
      </trkpt>
      <trkpt lat="44.64139" lon="5.18772">
        <ele>1270</ele>
        <time>2026-05-25T12:31:39.000Z</time>
      </trkpt>
      <trkpt lat="44.64139" lon="5.18773">
        <ele>1270</ele>
        <time>2026-05-25T12:31:40.000Z</time>
      </trkpt>
      <trkpt lat="44.64139" lon="5.18775">
        <ele>1270</ele>
        <time>2026-05-25T12:31:41.000Z</time>
      </trkpt>
      <trkpt lat="44.64139" lon="5.18776">
        <ele>1270</ele>
        <time>2026-05-25T12:31:42.000Z</time>
      </trkpt>
      <trkpt lat="44.64138" lon="5.18777">
        <ele>1270</ele>
        <time>2026-05-25T12:31:43.000Z</time>
      </trkpt>
      <trkpt lat="44.64138" lon="5.18778">
        <ele>1271</ele>
        <time>2026-05-25T12:31:44.000Z</time>
      </trkpt>
      <trkpt lat="44.64138" lon="5.18779">
        <ele>1271</ele>
        <time>2026-05-25T12:31:45.000Z</time>
      </trkpt>
      <trkpt lat="44.64138" lon="5.18779">
        <ele>1271</ele>
        <time>2026-05-25T12:31:46.000Z</time>
      </trkpt>
      <trkpt lat="44.64138" lon="5.18779">
        <ele>1271</ele>
        <time>2026-05-25T12:31:47.000Z</time>
      </trkpt>
      <trkpt lat="44.64138" lon="5.18783">
        <ele>1272</ele>
        <time>2026-05-25T12:31:48.000Z</time>
      </trkpt>
      <trkpt lat="44.64139" lon="5.18784">
        <ele>1273</ele>
        <time>2026-05-25T12:31:49.000Z</time>
      </trkpt>
      <trkpt lat="44.64139" lon="5.18786">
        <ele>1273</ele>
        <time>2026-05-25T12:31:50.000Z</time>
      </trkpt>
      <trkpt lat="44.64139" lon="5.18787">
        <ele>1272</ele>
        <time>2026-05-25T12:31:51.000Z</time>
      </trkpt>
      <trkpt lat="44.64139" lon="5.18788">
        <ele>1273</ele>
        <time>2026-05-25T12:31:52.000Z</time>
      </trkpt>
      <trkpt lat="44.6414" lon="5.1879">
        <ele>1273</ele>
        <time>2026-05-25T12:31:53.000Z</time>
      </trkpt>
      <trkpt lat="44.6414" lon="5.18791">
        <ele>1273</ele>
        <time>2026-05-25T12:31:54.000Z</time>
      </trkpt>
      <trkpt lat="44.6414" lon="5.18793">
        <ele>1272</ele>
        <time>2026-05-25T12:31:55.000Z</time>
      </trkpt>
      <trkpt lat="44.64139" lon="5.18794">
        <ele>1271</ele>
        <time>2026-05-25T12:31:56.000Z</time>
      </trkpt>
      <trkpt lat="44.64139" lon="5.18795">
        <ele>1271</ele>
        <time>2026-05-25T12:31:57.000Z</time>
      </trkpt>
      <trkpt lat="44.64139" lon="5.18796">
        <ele>1270</ele>
        <time>2026-05-25T12:31:58.000Z</time>
      </trkpt>
      <trkpt lat="44.64139" lon="5.18797">
        <ele>1269</ele>
        <time>2026-05-25T12:31:59.000Z</time>
      </trkpt>
      <trkpt lat="44.64139" lon="5.18799">
        <ele>1270</ele>
        <time>2026-05-25T12:32:00.000Z</time>
      </trkpt>
      <trkpt lat="44.6414" lon="5.18801">
        <ele>1270</ele>
        <time>2026-05-25T12:32:01.000Z</time>
      </trkpt>
      <trkpt lat="44.6414" lon="5.18803">
        <ele>1271</ele>
        <time>2026-05-25T12:32:02.000Z</time>
      </trkpt>
      <trkpt lat="44.6414" lon="5.18803">
        <ele>1272</ele>
        <time>2026-05-25T12:32:03.000Z</time>
      </trkpt>
      <trkpt lat="44.6414" lon="5.18805">
        <ele>1273</ele>
        <time>2026-05-25T12:32:04.000Z</time>
      </trkpt>
      <trkpt lat="44.6414" lon="5.18807">
        <ele>1274</ele>
        <time>2026-05-25T12:32:05.000Z</time>
      </trkpt>
      <trkpt lat="44.6414" lon="5.18809">
        <ele>1274</ele>
        <time>2026-05-25T12:32:06.000Z</time>
      </trkpt>
      <trkpt lat="44.64139" lon="5.1881">
        <ele>1275</ele>
        <time>2026-05-25T12:32:07.000Z</time>
      </trkpt>
      <trkpt lat="44.64139" lon="5.18811">
        <ele>1275</ele>
        <time>2026-05-25T12:32:08.000Z</time>
      </trkpt>
      <trkpt lat="44.64139" lon="5.18812">
        <ele>1275</ele>
        <time>2026-05-25T12:32:09.000Z</time>
      </trkpt>
      <trkpt lat="44.64139" lon="5.18814">
        <ele>1275</ele>
        <time>2026-05-25T12:32:10.000Z</time>
      </trkpt>
      <trkpt lat="44.64139" lon="5.18816">
        <ele>1275</ele>
        <time>2026-05-25T12:32:11.000Z</time>
      </trkpt>
      <trkpt lat="44.6414" lon="5.18818">
        <ele>1275</ele>
        <time>2026-05-25T12:32:12.000Z</time>
      </trkpt>
      <trkpt lat="44.6414" lon="5.18819">
        <ele>1275</ele>
        <time>2026-05-25T12:32:13.000Z</time>
      </trkpt>
      <trkpt lat="44.6414" lon="5.1882">
        <ele>1274</ele>
        <time>2026-05-25T12:32:14.000Z</time>
      </trkpt>
      <trkpt lat="44.64139" lon="5.18821">
        <ele>1274</ele>
        <time>2026-05-25T12:32:15.000Z</time>
      </trkpt>
      <trkpt lat="44.64139" lon="5.18823">
        <ele>1273</ele>
        <time>2026-05-25T12:32:16.000Z</time>
      </trkpt>
      <trkpt lat="44.64139" lon="5.18825">
        <ele>1275</ele>
        <time>2026-05-25T12:32:17.000Z</time>
      </trkpt>
      <trkpt lat="44.6414" lon="5.18827">
        <ele>1275</ele>
        <time>2026-05-25T12:32:18.000Z</time>
      </trkpt>
      <trkpt lat="44.6414" lon="5.1883">
        <ele>1274</ele>
        <time>2026-05-25T12:32:19.000Z</time>
      </trkpt>
      <trkpt lat="44.64139" lon="5.18831">
        <ele>1273</ele>
        <time>2026-05-25T12:32:20.000Z</time>
      </trkpt>
      <trkpt lat="44.6414" lon="5.18832">
        <ele>1273</ele>
        <time>2026-05-25T12:32:21.000Z</time>
      </trkpt>
      <trkpt lat="44.64139" lon="5.18833">
        <ele>1273</ele>
        <time>2026-05-25T12:32:22.000Z</time>
      </trkpt>
      <trkpt lat="44.64139" lon="5.18834">
        <ele>1273</ele>
        <time>2026-05-25T12:32:23.000Z</time>
      </trkpt>
      <trkpt lat="44.64139" lon="5.18836">
        <ele>1274</ele>
        <time>2026-05-25T12:32:24.000Z</time>
      </trkpt>
      <trkpt lat="44.64139" lon="5.18837">
        <ele>1274</ele>
        <time>2026-05-25T12:32:25.000Z</time>
      </trkpt>
      <trkpt lat="44.64139" lon="5.18839">
        <ele>1274</ele>
        <time>2026-05-25T12:32:26.000Z</time>
      </trkpt>
      <trkpt lat="44.64139" lon="5.18841">
        <ele>1275</ele>
        <time>2026-05-25T12:32:27.000Z</time>
      </trkpt>
      <trkpt lat="44.64138" lon="5.18842">
        <ele>1275</ele>
        <time>2026-05-25T12:32:28.000Z</time>
      </trkpt>
      <trkpt lat="44.64139" lon="5.18844">
        <ele>1275</ele>
        <time>2026-05-25T12:32:29.000Z</time>
      </trkpt>
      <trkpt lat="44.64138" lon="5.18845">
        <ele>1275</ele>
        <time>2026-05-25T12:32:30.000Z</time>
      </trkpt>
      <trkpt lat="44.64139" lon="5.18847">
        <ele>1274</ele>
        <time>2026-05-25T12:32:31.000Z</time>
      </trkpt>
      <trkpt lat="44.64138" lon="5.18848">
        <ele>1274</ele>
        <time>2026-05-25T12:32:32.000Z</time>
      </trkpt>
      <trkpt lat="44.64138" lon="5.18849">
        <ele>1274</ele>
        <time>2026-05-25T12:32:33.000Z</time>
      </trkpt>
      <trkpt lat="44.64138" lon="5.18851">
        <ele>1275</ele>
        <time>2026-05-25T12:32:34.000Z</time>
      </trkpt>
      <trkpt lat="44.64139" lon="5.1885">
        <ele>1273</ele>
        <time>2026-05-25T12:32:35.000Z</time>
      </trkpt>
      <trkpt lat="44.64139" lon="5.18848">
        <ele>1272</ele>
        <time>2026-05-25T12:32:36.000Z</time>
      </trkpt>
      <trkpt lat="44.64139" lon="5.18848">
        <ele>1271</ele>
        <time>2026-05-25T12:32:37.000Z</time>
      </trkpt>
      <trkpt lat="44.64139" lon="5.18849">
        <ele>1271</ele>
        <time>2026-05-25T12:32:38.000Z</time>
      </trkpt>
      <trkpt lat="44.64139" lon="5.18849">
        <ele>1271</ele>
        <time>2026-05-25T12:32:39.000Z</time>
      </trkpt>
      <trkpt lat="44.64139" lon="5.18849">
        <ele>1271</ele>
        <time>2026-05-25T12:32:40.000Z</time>
      </trkpt>
      <trkpt lat="44.64139" lon="5.18849">
        <ele>1271</ele>
        <time>2026-05-25T12:32:41.000Z</time>
      </trkpt>
      <trkpt lat="44.64139" lon="5.18849">
        <ele>1271</ele>
        <time>2026-05-25T12:32:42.000Z</time>
      </trkpt>
      <trkpt lat="44.64141" lon="5.18848">
        <ele>1269</ele>
        <time>2026-05-25T12:32:43.000Z</time>
      </trkpt>
      <trkpt lat="44.64141" lon="5.18848">
        <ele>1270</ele>
        <time>2026-05-25T12:32:44.000Z</time>
      </trkpt>
      <trkpt lat="44.6414" lon="5.18848">
        <ele>1271</ele>
        <time>2026-05-25T12:32:45.000Z</time>
      </trkpt>
      <trkpt lat="44.6414" lon="5.18849">
        <ele>1272</ele>
        <time>2026-05-25T12:32:46.000Z</time>
      </trkpt>
      <trkpt lat="44.6414" lon="5.18849">
        <ele>1272</ele>
        <time>2026-05-25T12:32:47.000Z</time>
      </trkpt>
      <trkpt lat="44.6414" lon="5.18849">
        <ele>1273</ele>
        <time>2026-05-25T12:32:48.000Z</time>
      </trkpt>
      <trkpt lat="44.6414" lon="5.18849">
        <ele>1273</ele>
        <time>2026-05-25T12:32:49.000Z</time>
      </trkpt>
      <trkpt lat="44.6414" lon="5.18849">
        <ele>1273</ele>
        <time>2026-05-25T12:32:50.000Z</time>
      </trkpt>
      <trkpt lat="44.6414" lon="5.18849">
        <ele>1273</ele>
        <time>2026-05-25T12:32:51.000Z</time>
      </trkpt>
      <trkpt lat="44.6414" lon="5.18849">
        <ele>1273</ele>
        <time>2026-05-25T12:32:52.000Z</time>
      </trkpt>
      <trkpt lat="44.6414" lon="5.18849">
        <ele>1273</ele>
        <time>2026-05-25T12:32:53.000Z</time>
      </trkpt>
      <trkpt lat="44.6414" lon="5.1885">
        <ele>1274</ele>
        <time>2026-05-25T12:32:54.000Z</time>
      </trkpt>
      <trkpt lat="44.6414" lon="5.1885">
        <ele>1274</ele>
        <time>2026-05-25T12:32:55.000Z</time>
      </trkpt>
      <trkpt lat="44.6414" lon="5.1885">
        <ele>1274</ele>
        <time>2026-05-25T12:32:56.000Z</time>
      </trkpt>
      <trkpt lat="44.6414" lon="5.1885">
        <ele>1274</ele>
        <time>2026-05-25T12:32:57.000Z</time>
      </trkpt>
      <trkpt lat="44.6414" lon="5.1885">
        <ele>1274</ele>
        <time>2026-05-25T12:32:58.000Z</time>
      </trkpt>
      <trkpt lat="44.6414" lon="5.1885">
        <ele>1274</ele>
        <time>2026-05-25T12:32:59.000Z</time>
      </trkpt>
      <trkpt lat="44.6414" lon="5.1885">
        <ele>1274</ele>
        <time>2026-05-25T12:33:00.000Z</time>
      </trkpt>
      <trkpt lat="44.6414" lon="5.1885">
        <ele>1274</ele>
        <time>2026-05-25T12:33:01.000Z</time>
      </trkpt>
      <trkpt lat="44.6414" lon="5.1885">
        <ele>1274</ele>
        <time>2026-05-25T12:33:02.000Z</time>
      </trkpt>
      <trkpt lat="44.6414" lon="5.1885">
        <ele>1274</ele>
        <time>2026-05-25T12:33:03.000Z</time>
      </trkpt>
      <trkpt lat="44.6414" lon="5.1885">
        <ele>1274</ele>
        <time>2026-05-25T12:33:04.000Z</time>
      </trkpt>
      <trkpt lat="44.6414" lon="5.1885">
        <ele>1274</ele>
        <time>2026-05-25T12:33:05.000Z</time>
      </trkpt>
      <trkpt lat="44.6414" lon="5.1885">
        <ele>1274</ele>
        <time>2026-05-25T12:33:06.000Z</time>
      </trkpt>
      <trkpt lat="44.6414" lon="5.1885">
        <ele>1274</ele>
        <time>2026-05-25T12:33:07.000Z</time>
      </trkpt>
      <trkpt lat="44.6414" lon="5.1885">
        <ele>1274</ele>
        <time>2026-05-25T12:33:08.000Z</time>
      </trkpt>
      <trkpt lat="44.6414" lon="5.1885">
        <ele>1274</ele>
        <time>2026-05-25T12:33:09.000Z</time>
      </trkpt>
      <trkpt lat="44.6414" lon="5.1885">
        <ele>1274</ele>
        <time>2026-05-25T12:33:10.000Z</time>
      </trkpt>
      <trkpt lat="44.6414" lon="5.1885">
        <ele>1274</ele>
        <time>2026-05-25T12:33:11.000Z</time>
      </trkpt>
      <trkpt lat="44.6414" lon="5.1885">
        <ele>1274</ele>
        <time>2026-05-25T12:33:12.000Z</time>
      </trkpt>
      <trkpt lat="44.6414" lon="5.1885">
        <ele>1274</ele>
        <time>2026-05-25T12:33:13.000Z</time>
      </trkpt>
      <trkpt lat="44.6414" lon="5.18847">
        <ele>1273</ele>
        <time>2026-05-25T12:33:14.000Z</time>
      </trkpt>
      <trkpt lat="44.6414" lon="5.18846">
        <ele>1273</ele>
        <time>2026-05-25T12:33:15.000Z</time>
      </trkpt>
      <trkpt lat="44.6414" lon="5.18846">
        <ele>1273</ele>
        <time>2026-05-25T12:33:16.000Z</time>
      </trkpt>
      <trkpt lat="44.6414" lon="5.18846">
        <ele>1273</ele>
        <time>2026-05-25T12:33:17.000Z</time>
      </trkpt>
      <trkpt lat="44.6414" lon="5.18846">
        <ele>1273</ele>
        <time>2026-05-25T12:33:18.000Z</time>
      </trkpt>
      <trkpt lat="44.6414" lon="5.18846">
        <ele>1273</ele>
        <time>2026-05-25T12:33:19.000Z</time>
      </trkpt>
      <trkpt lat="44.6414" lon="5.18846">
        <ele>1273</ele>
        <time>2026-05-25T12:33:20.000Z</time>
      </trkpt>
      <trkpt lat="44.6414" lon="5.18846">
        <ele>1273</ele>
        <time>2026-05-25T12:33:21.000Z</time>
      </trkpt>
      <trkpt lat="44.6414" lon="5.18846">
        <ele>1273</ele>
        <time>2026-05-25T12:33:22.000Z</time>
      </trkpt>
      <trkpt lat="44.6414" lon="5.18846">
        <ele>1273</ele>
        <time>2026-05-25T12:33:23.000Z</time>
      </trkpt>
      <trkpt lat="44.6414" lon="5.18846">
        <ele>1273</ele>
        <time>2026-05-25T12:33:24.000Z</time>
      </trkpt>
      <trkpt lat="44.6414" lon="5.18846">
        <ele>1273</ele>
        <time>2026-05-25T12:33:25.000Z</time>
      </trkpt>
      <trkpt lat="44.6414" lon="5.18846">
        <ele>1273</ele>
        <time>2026-05-25T12:33:26.000Z</time>
      </trkpt>
      <trkpt lat="44.6414" lon="5.18846">
        <ele>1273</ele>
        <time>2026-05-25T12:33:27.000Z</time>
      </trkpt>
      <trkpt lat="44.6414" lon="5.18846">
        <ele>1273</ele>
        <time>2026-05-25T12:33:28.000Z</time>
      </trkpt>
      <trkpt lat="44.6414" lon="5.18846">
        <ele>1273</ele>
        <time>2026-05-25T12:33:29.000Z</time>
      </trkpt>
      <trkpt lat="44.6414" lon="5.18846">
        <ele>1273</ele>
        <time>2026-05-25T12:33:30.000Z</time>
      </trkpt>
      <trkpt lat="44.6414" lon="5.18846">
        <ele>1273</ele>
        <time>2026-05-25T12:33:31.000Z</time>
      </trkpt>
      <trkpt lat="44.6414" lon="5.18846">
        <ele>1273</ele>
        <time>2026-05-25T12:33:32.000Z</time>
      </trkpt>
      <trkpt lat="44.6414" lon="5.18846">
        <ele>1273</ele>
        <time>2026-05-25T12:33:33.000Z</time>
      </trkpt>
      <trkpt lat="44.6414" lon="5.18846">
        <ele>1273</ele>
        <time>2026-05-25T12:33:34.000Z</time>
      </trkpt>
      <trkpt lat="44.6414" lon="5.18846">
        <ele>1273</ele>
        <time>2026-05-25T12:33:35.000Z</time>
      </trkpt>
      <trkpt lat="44.6414" lon="5.18846">
        <ele>1273</ele>
        <time>2026-05-25T12:33:36.000Z</time>
      </trkpt>
      <trkpt lat="44.6414" lon="5.18846">
        <ele>1273</ele>
        <time>2026-05-25T12:33:37.000Z</time>
      </trkpt>
      <trkpt lat="44.6414" lon="5.18846">
        <ele>1273</ele>
        <time>2026-05-25T12:33:38.000Z</time>
      </trkpt>
      <trkpt lat="44.6414" lon="5.18846">
        <ele>1273</ele>
        <time>2026-05-25T12:33:39.000Z</time>
      </trkpt>
      <trkpt lat="44.6414" lon="5.18846">
        <ele>1273</ele>
        <time>2026-05-25T12:33:40.000Z</time>
      </trkpt>
      <trkpt lat="44.6414" lon="5.18846">
        <ele>1273</ele>
        <time>2026-05-25T12:33:41.000Z</time>
      </trkpt>
      <trkpt lat="44.6414" lon="5.18846">
        <ele>1273</ele>
        <time>2026-05-25T12:33:42.000Z</time>
      </trkpt>
      <trkpt lat="44.6414" lon="5.18846">
        <ele>1273</ele>
        <time>2026-05-25T12:33:43.000Z</time>
      </trkpt>
      <trkpt lat="44.6414" lon="5.18846">
        <ele>1273</ele>
        <time>2026-05-25T12:33:44.000Z</time>
      </trkpt>
      <trkpt lat="44.6414" lon="5.18846">
        <ele>1273</ele>
        <time>2026-05-25T12:33:45.000Z</time>
      </trkpt>
      <trkpt lat="44.6414" lon="5.18846">
        <ele>1273</ele>
        <time>2026-05-25T12:33:46.000Z</time>
      </trkpt>
      <trkpt lat="44.6414" lon="5.18846">
        <ele>1273</ele>
        <time>2026-05-25T12:33:47.000Z</time>
      </trkpt>
      <trkpt lat="44.6414" lon="5.18846">
        <ele>1273</ele>
        <time>2026-05-25T12:33:48.000Z</time>
      </trkpt>
      <trkpt lat="44.6414" lon="5.18846">
        <ele>1273</ele>
        <time>2026-05-25T12:33:49.000Z</time>
      </trkpt>
      <trkpt lat="44.6414" lon="5.18846">
        <ele>1273</ele>
        <time>2026-05-25T12:33:50.000Z</time>
      </trkpt>
      <trkpt lat="44.6414" lon="5.18846">
        <ele>1273</ele>
        <time>2026-05-25T12:33:51.000Z</time>
      </trkpt>
      <trkpt lat="44.6414" lon="5.18846">
        <ele>1273</ele>
        <time>2026-05-25T12:33:52.000Z</time>
      </trkpt>
      <trkpt lat="44.6414" lon="5.18846">
        <ele>1273</ele>
        <time>2026-05-25T12:33:53.000Z</time>
      </trkpt>
      <trkpt lat="44.6414" lon="5.18846">
        <ele>1273</ele>
        <time>2026-05-25T12:33:54.000Z</time>
      </trkpt>
      <trkpt lat="44.64139" lon="5.18847">
        <ele>1273</ele>
        <time>2026-05-25T12:33:55.000Z</time>
      </trkpt>
      <trkpt lat="44.64139" lon="5.18847">
        <ele>1273</ele>
        <time>2026-05-25T12:33:56.000Z</time>
      </trkpt>
      <trkpt lat="44.64139" lon="5.18848">
        <ele>1273</ele>
        <time>2026-05-25T12:33:57.000Z</time>
      </trkpt>
      <trkpt lat="44.64139" lon="5.18849">
        <ele>1273</ele>
        <time>2026-05-25T12:33:58.000Z</time>
      </trkpt>
      <trkpt lat="44.64139" lon="5.18849">
        <ele>1273</ele>
        <time>2026-05-25T12:33:59.000Z</time>
      </trkpt>
      <trkpt lat="44.64139" lon="5.18851">
        <ele>1274</ele>
        <time>2026-05-25T12:34:00.000Z</time>
      </trkpt>
      <trkpt lat="44.64138" lon="5.18852">
        <ele>1274</ele>
        <time>2026-05-25T12:34:01.000Z</time>
      </trkpt>
      <trkpt lat="44.64138" lon="5.18854">
        <ele>1273</ele>
        <time>2026-05-25T12:34:02.000Z</time>
      </trkpt>
      <trkpt lat="44.64137" lon="5.18856">
        <ele>1274</ele>
        <time>2026-05-25T12:34:03.000Z</time>
      </trkpt>
      <trkpt lat="44.64137" lon="5.18858">
        <ele>1275</ele>
        <time>2026-05-25T12:34:04.000Z</time>
      </trkpt>
      <trkpt lat="44.64135" lon="5.1886">
        <ele>1276</ele>
        <time>2026-05-25T12:34:05.000Z</time>
      </trkpt>
      <trkpt lat="44.64133" lon="5.18862">
        <ele>1276</ele>
        <time>2026-05-25T12:34:06.000Z</time>
      </trkpt>
      <trkpt lat="44.64133" lon="5.18864">
        <ele>1277</ele>
        <time>2026-05-25T12:34:07.000Z</time>
      </trkpt>
      <trkpt lat="44.64132" lon="5.18866">
        <ele>1277</ele>
        <time>2026-05-25T12:34:08.000Z</time>
      </trkpt>
      <trkpt lat="44.64132" lon="5.18867">
        <ele>1276</ele>
        <time>2026-05-25T12:34:09.000Z</time>
      </trkpt>
      <trkpt lat="44.64132" lon="5.18869">
        <ele>1276</ele>
        <time>2026-05-25T12:34:10.000Z</time>
      </trkpt>
      <trkpt lat="44.64131" lon="5.18871">
        <ele>1276</ele>
        <time>2026-05-25T12:34:11.000Z</time>
      </trkpt>
      <trkpt lat="44.64131" lon="5.18871">
        <ele>1276</ele>
        <time>2026-05-25T12:34:12.000Z</time>
      </trkpt>
      <trkpt lat="44.64131" lon="5.18873">
        <ele>1276</ele>
        <time>2026-05-25T12:34:13.000Z</time>
      </trkpt>
      <trkpt lat="44.64133" lon="5.18873">
        <ele>1275</ele>
        <time>2026-05-25T12:34:14.000Z</time>
      </trkpt>
      <trkpt lat="44.64133" lon="5.18874">
        <ele>1275</ele>
        <time>2026-05-25T12:34:15.000Z</time>
      </trkpt>
      <trkpt lat="44.64131" lon="5.18875">
        <ele>1275</ele>
        <time>2026-05-25T12:34:16.000Z</time>
      </trkpt>
      <trkpt lat="44.64131" lon="5.18877">
        <ele>1275</ele>
        <time>2026-05-25T12:34:17.000Z</time>
      </trkpt>
      <trkpt lat="44.64131" lon="5.18879">
        <ele>1275</ele>
        <time>2026-05-25T12:34:18.000Z</time>
      </trkpt>
      <trkpt lat="44.64131" lon="5.18881">
        <ele>1274</ele>
        <time>2026-05-25T12:34:19.000Z</time>
      </trkpt>
      <trkpt lat="44.6413" lon="5.18883">
        <ele>1274</ele>
        <time>2026-05-25T12:34:20.000Z</time>
      </trkpt>
      <trkpt lat="44.64131" lon="5.18884">
        <ele>1274</ele>
        <time>2026-05-25T12:34:21.000Z</time>
      </trkpt>
      <trkpt lat="44.6413" lon="5.18886">
        <ele>1273</ele>
        <time>2026-05-25T12:34:22.000Z</time>
      </trkpt>
      <trkpt lat="44.6413" lon="5.18888">
        <ele>1272</ele>
        <time>2026-05-25T12:34:23.000Z</time>
      </trkpt>
      <trkpt lat="44.64129" lon="5.1889">
        <ele>1272</ele>
        <time>2026-05-25T12:34:24.000Z</time>
      </trkpt>
      <trkpt lat="44.64129" lon="5.18892">
        <ele>1271</ele>
        <time>2026-05-25T12:34:25.000Z</time>
      </trkpt>
      <trkpt lat="44.64128" lon="5.18893">
        <ele>1270</ele>
        <time>2026-05-25T12:34:26.000Z</time>
      </trkpt>
      <trkpt lat="44.64128" lon="5.18893">
        <ele>1270</ele>
        <time>2026-05-25T12:34:27.000Z</time>
      </trkpt>
      <trkpt lat="44.64127" lon="5.18895">
        <ele>1269</ele>
        <time>2026-05-25T12:34:28.000Z</time>
      </trkpt>
      <trkpt lat="44.64126" lon="5.18896">
        <ele>1269</ele>
        <time>2026-05-25T12:34:29.000Z</time>
      </trkpt>
      <trkpt lat="44.64126" lon="5.18898">
        <ele>1268</ele>
        <time>2026-05-25T12:34:30.000Z</time>
      </trkpt>
      <trkpt lat="44.64126" lon="5.18899">
        <ele>1267</ele>
        <time>2026-05-25T12:34:31.000Z</time>
      </trkpt>
      <trkpt lat="44.64126" lon="5.18898">
        <ele>1266</ele>
        <time>2026-05-25T12:34:32.000Z</time>
      </trkpt>
      <trkpt lat="44.64125" lon="5.18897">
        <ele>1267</ele>
        <time>2026-05-25T12:34:33.000Z</time>
      </trkpt>
      <trkpt lat="44.64124" lon="5.18899">
        <ele>1267</ele>
        <time>2026-05-25T12:34:34.000Z</time>
      </trkpt>
      <trkpt lat="44.64123" lon="5.18902">
        <ele>1268</ele>
        <time>2026-05-25T12:34:35.000Z</time>
      </trkpt>
      <trkpt lat="44.64122" lon="5.18903">
        <ele>1268</ele>
        <time>2026-05-25T12:34:36.000Z</time>
      </trkpt>
      <trkpt lat="44.64121" lon="5.18904">
        <ele>1268</ele>
        <time>2026-05-25T12:34:37.000Z</time>
      </trkpt>
      <trkpt lat="44.6412" lon="5.18905">
        <ele>1269</ele>
        <time>2026-05-25T12:34:38.000Z</time>
      </trkpt>
      <trkpt lat="44.64118" lon="5.18907">
        <ele>1269</ele>
        <time>2026-05-25T12:34:39.000Z</time>
      </trkpt>
      <trkpt lat="44.64118" lon="5.18909">
        <ele>1268</ele>
        <time>2026-05-25T12:34:40.000Z</time>
      </trkpt>
      <trkpt lat="44.64117" lon="5.18911">
        <ele>1268</ele>
        <time>2026-05-25T12:34:41.000Z</time>
      </trkpt>
      <trkpt lat="44.64116" lon="5.18911">
        <ele>1267</ele>
        <time>2026-05-25T12:34:42.000Z</time>
      </trkpt>
      <trkpt lat="44.64115" lon="5.18912">
        <ele>1268</ele>
        <time>2026-05-25T12:34:43.000Z</time>
      </trkpt>
      <trkpt lat="44.64114" lon="5.18914">
        <ele>1269</ele>
        <time>2026-05-25T12:34:44.000Z</time>
      </trkpt>
      <trkpt lat="44.64115" lon="5.18915">
        <ele>1268</ele>
        <time>2026-05-25T12:34:45.000Z</time>
      </trkpt>
      <trkpt lat="44.64114" lon="5.18915">
        <ele>1267</ele>
        <time>2026-05-25T12:34:46.000Z</time>
      </trkpt>
      <trkpt lat="44.64113" lon="5.18917">
        <ele>1268</ele>
        <time>2026-05-25T12:34:47.000Z</time>
      </trkpt>
      <trkpt lat="44.64112" lon="5.18918">
        <ele>1268</ele>
        <time>2026-05-25T12:34:48.000Z</time>
      </trkpt>
      <trkpt lat="44.64111" lon="5.1892">
        <ele>1267</ele>
        <time>2026-05-25T12:34:49.000Z</time>
      </trkpt>
      <trkpt lat="44.6411" lon="5.18921">
        <ele>1266</ele>
        <time>2026-05-25T12:34:50.000Z</time>
      </trkpt>
      <trkpt lat="44.64109" lon="5.18922">
        <ele>1267</ele>
        <time>2026-05-25T12:34:51.000Z</time>
      </trkpt>
      <trkpt lat="44.64109" lon="5.18923">
        <ele>1267</ele>
        <time>2026-05-25T12:34:52.000Z</time>
      </trkpt>
      <trkpt lat="44.64109" lon="5.18924">
        <ele>1267</ele>
        <time>2026-05-25T12:34:53.000Z</time>
      </trkpt>
      <trkpt lat="44.64108" lon="5.18925">
        <ele>1268</ele>
        <time>2026-05-25T12:34:54.000Z</time>
      </trkpt>
      <trkpt lat="44.64107" lon="5.18926">
        <ele>1268</ele>
        <time>2026-05-25T12:34:55.000Z</time>
      </trkpt>
      <trkpt lat="44.64107" lon="5.18927">
        <ele>1268</ele>
        <time>2026-05-25T12:34:56.000Z</time>
      </trkpt>
      <trkpt lat="44.64107" lon="5.18929">
        <ele>1268</ele>
        <time>2026-05-25T12:34:57.000Z</time>
      </trkpt>
      <trkpt lat="44.64106" lon="5.1893">
        <ele>1267</ele>
        <time>2026-05-25T12:34:58.000Z</time>
      </trkpt>
      <trkpt lat="44.64105" lon="5.1893">
        <ele>1267</ele>
        <time>2026-05-25T12:34:59.000Z</time>
      </trkpt>
      <trkpt lat="44.64103" lon="5.18931">
        <ele>1268</ele>
        <time>2026-05-25T12:35:00.000Z</time>
      </trkpt>
      <trkpt lat="44.64103" lon="5.18933">
        <ele>1268</ele>
        <time>2026-05-25T12:35:01.000Z</time>
      </trkpt>
      <trkpt lat="44.64102" lon="5.18932">
        <ele>1268</ele>
        <time>2026-05-25T12:35:02.000Z</time>
      </trkpt>
      <trkpt lat="44.64101" lon="5.18932">
        <ele>1267</ele>
        <time>2026-05-25T12:35:03.000Z</time>
      </trkpt>
      <trkpt lat="44.64101" lon="5.18932">
        <ele>1267</ele>
        <time>2026-05-25T12:35:04.000Z</time>
      </trkpt>
      <trkpt lat="44.64098" lon="5.18932">
        <ele>1267</ele>
        <time>2026-05-25T12:35:05.000Z</time>
      </trkpt>
      <trkpt lat="44.64096" lon="5.18933">
        <ele>1267</ele>
        <time>2026-05-25T12:35:06.000Z</time>
      </trkpt>
      <trkpt lat="44.64094" lon="5.18934">
        <ele>1268</ele>
        <time>2026-05-25T12:35:07.000Z</time>
      </trkpt>
      <trkpt lat="44.64094" lon="5.18933">
        <ele>1268</ele>
        <time>2026-05-25T12:35:08.000Z</time>
      </trkpt>
      <trkpt lat="44.64092" lon="5.18934">
        <ele>1267</ele>
        <time>2026-05-25T12:35:09.000Z</time>
      </trkpt>
      <trkpt lat="44.64091" lon="5.18935">
        <ele>1267</ele>
        <time>2026-05-25T12:35:10.000Z</time>
      </trkpt>
      <trkpt lat="44.6409" lon="5.18935">
        <ele>1267</ele>
        <time>2026-05-25T12:35:11.000Z</time>
      </trkpt>
      <trkpt lat="44.64089" lon="5.18934">
        <ele>1265</ele>
        <time>2026-05-25T12:35:12.000Z</time>
      </trkpt>
      <trkpt lat="44.64088" lon="5.18933">
        <ele>1264</ele>
        <time>2026-05-25T12:35:13.000Z</time>
      </trkpt>
      <trkpt lat="44.64087" lon="5.18932">
        <ele>1263</ele>
        <time>2026-05-25T12:35:14.000Z</time>
      </trkpt>
      <trkpt lat="44.64086" lon="5.18931">
        <ele>1262</ele>
        <time>2026-05-25T12:35:15.000Z</time>
      </trkpt>
      <trkpt lat="44.64085" lon="5.18929">
        <ele>1262</ele>
        <time>2026-05-25T12:35:16.000Z</time>
      </trkpt>
      <trkpt lat="44.64086" lon="5.18928">
        <ele>1261</ele>
        <time>2026-05-25T12:35:17.000Z</time>
      </trkpt>
      <trkpt lat="44.64086" lon="5.18927">
        <ele>1261</ele>
        <time>2026-05-25T12:35:18.000Z</time>
      </trkpt>
      <trkpt lat="44.64086" lon="5.18926">
        <ele>1261</ele>
        <time>2026-05-25T12:35:19.000Z</time>
      </trkpt>
      <trkpt lat="44.64086" lon="5.18926">
        <ele>1262</ele>
        <time>2026-05-25T12:35:20.000Z</time>
      </trkpt>
      <trkpt lat="44.64086" lon="5.18926">
        <ele>1262</ele>
        <time>2026-05-25T12:35:21.000Z</time>
      </trkpt>
      <trkpt lat="44.64086" lon="5.18926">
        <ele>1262</ele>
        <time>2026-05-25T12:35:22.000Z</time>
      </trkpt>
      <trkpt lat="44.64086" lon="5.18922">
        <ele>1264</ele>
        <time>2026-05-25T12:35:23.000Z</time>
      </trkpt>
      <trkpt lat="44.64085" lon="5.1892">
        <ele>1264</ele>
        <time>2026-05-25T12:35:24.000Z</time>
      </trkpt>
      <trkpt lat="44.64085" lon="5.18917">
        <ele>1265</ele>
        <time>2026-05-25T12:35:25.000Z</time>
      </trkpt>
      <trkpt lat="44.64085" lon="5.18915">
        <ele>1266</ele>
        <time>2026-05-25T12:35:26.000Z</time>
      </trkpt>
      <trkpt lat="44.64084" lon="5.18913">
        <ele>1266</ele>
        <time>2026-05-25T12:35:27.000Z</time>
      </trkpt>
      <trkpt lat="44.64084" lon="5.18911">
        <ele>1267</ele>
        <time>2026-05-25T12:35:28.000Z</time>
      </trkpt>
      <trkpt lat="44.64084" lon="5.18909">
        <ele>1266</ele>
        <time>2026-05-25T12:35:29.000Z</time>
      </trkpt>
      <trkpt lat="44.64083" lon="5.18908">
        <ele>1267</ele>
        <time>2026-05-25T12:35:30.000Z</time>
      </trkpt>
      <trkpt lat="44.64083" lon="5.18907">
        <ele>1266</ele>
        <time>2026-05-25T12:35:31.000Z</time>
      </trkpt>
      <trkpt lat="44.64084" lon="5.18906">
        <ele>1267</ele>
        <time>2026-05-25T12:35:32.000Z</time>
      </trkpt>
      <trkpt lat="44.64083" lon="5.18905">
        <ele>1268</ele>
        <time>2026-05-25T12:35:33.000Z</time>
      </trkpt>
      <trkpt lat="44.64082" lon="5.18904">
        <ele>1269</ele>
        <time>2026-05-25T12:35:34.000Z</time>
      </trkpt>
      <trkpt lat="44.64082" lon="5.18902">
        <ele>1269</ele>
        <time>2026-05-25T12:35:35.000Z</time>
      </trkpt>
      <trkpt lat="44.64082" lon="5.18901">
        <ele>1268</ele>
        <time>2026-05-25T12:35:36.000Z</time>
      </trkpt>
      <trkpt lat="44.64082" lon="5.18899">
        <ele>1268</ele>
        <time>2026-05-25T12:35:37.000Z</time>
      </trkpt>
      <trkpt lat="44.64081" lon="5.18897">
        <ele>1268</ele>
        <time>2026-05-25T12:35:38.000Z</time>
      </trkpt>
      <trkpt lat="44.64081" lon="5.18895">
        <ele>1269</ele>
        <time>2026-05-25T12:35:39.000Z</time>
      </trkpt>
      <trkpt lat="44.64081" lon="5.18894">
        <ele>1270</ele>
        <time>2026-05-25T12:35:40.000Z</time>
      </trkpt>
      <trkpt lat="44.64081" lon="5.18892">
        <ele>1269</ele>
        <time>2026-05-25T12:35:41.000Z</time>
      </trkpt>
      <trkpt lat="44.64082" lon="5.1889">
        <ele>1269</ele>
        <time>2026-05-25T12:35:42.000Z</time>
      </trkpt>
      <trkpt lat="44.64082" lon="5.18888">
        <ele>1269</ele>
        <time>2026-05-25T12:35:43.000Z</time>
      </trkpt>
      <trkpt lat="44.64082" lon="5.18886">
        <ele>1268</ele>
        <time>2026-05-25T12:35:44.000Z</time>
      </trkpt>
      <trkpt lat="44.64081" lon="5.18886">
        <ele>1269</ele>
        <time>2026-05-25T12:35:45.000Z</time>
      </trkpt>
      <trkpt lat="44.64081" lon="5.18885">
        <ele>1269</ele>
        <time>2026-05-25T12:35:46.000Z</time>
      </trkpt>
      <trkpt lat="44.6408" lon="5.18885">
        <ele>1269</ele>
        <time>2026-05-25T12:35:47.000Z</time>
      </trkpt>
      <trkpt lat="44.6408" lon="5.18883">
        <ele>1269</ele>
        <time>2026-05-25T12:35:48.000Z</time>
      </trkpt>
      <trkpt lat="44.64079" lon="5.18882">
        <ele>1270</ele>
        <time>2026-05-25T12:35:49.000Z</time>
      </trkpt>
      <trkpt lat="44.64079" lon="5.1888">
        <ele>1270</ele>
        <time>2026-05-25T12:35:50.000Z</time>
      </trkpt>
      <trkpt lat="44.64078" lon="5.18878">
        <ele>1270</ele>
        <time>2026-05-25T12:35:51.000Z</time>
      </trkpt>
      <trkpt lat="44.64078" lon="5.18876">
        <ele>1270</ele>
        <time>2026-05-25T12:35:52.000Z</time>
      </trkpt>
      <trkpt lat="44.64078" lon="5.18875">
        <ele>1270</ele>
        <time>2026-05-25T12:35:53.000Z</time>
      </trkpt>
      <trkpt lat="44.64077" lon="5.18873">
        <ele>1270</ele>
        <time>2026-05-25T12:35:54.000Z</time>
      </trkpt>
      <trkpt lat="44.64077" lon="5.18872">
        <ele>1268</ele>
        <time>2026-05-25T12:35:55.000Z</time>
      </trkpt>
      <trkpt lat="44.64075" lon="5.1887">
        <ele>1267</ele>
        <time>2026-05-25T12:35:56.000Z</time>
      </trkpt>
      <trkpt lat="44.64074" lon="5.18869">
        <ele>1267</ele>
        <time>2026-05-25T12:35:57.000Z</time>
      </trkpt>
      <trkpt lat="44.64075" lon="5.18867">
        <ele>1266</ele>
        <time>2026-05-25T12:35:58.000Z</time>
      </trkpt>
      <trkpt lat="44.64074" lon="5.18866">
        <ele>1268</ele>
        <time>2026-05-25T12:35:59.000Z</time>
      </trkpt>
      <trkpt lat="44.64074" lon="5.18865">
        <ele>1268</ele>
        <time>2026-05-25T12:36:00.000Z</time>
      </trkpt>
      <trkpt lat="44.64073" lon="5.18864">
        <ele>1268</ele>
        <time>2026-05-25T12:36:01.000Z</time>
      </trkpt>
      <trkpt lat="44.64073" lon="5.18862">
        <ele>1269</ele>
        <time>2026-05-25T12:36:02.000Z</time>
      </trkpt>
      <trkpt lat="44.64073" lon="5.18861">
        <ele>1269</ele>
        <time>2026-05-25T12:36:03.000Z</time>
      </trkpt>
      <trkpt lat="44.64073" lon="5.18859">
        <ele>1268</ele>
        <time>2026-05-25T12:36:04.000Z</time>
      </trkpt>
      <trkpt lat="44.64072" lon="5.18858">
        <ele>1268</ele>
        <time>2026-05-25T12:36:05.000Z</time>
      </trkpt>
      <trkpt lat="44.64072" lon="5.18857">
        <ele>1268</ele>
        <time>2026-05-25T12:36:06.000Z</time>
      </trkpt>
      <trkpt lat="44.64072" lon="5.18855">
        <ele>1268</ele>
        <time>2026-05-25T12:36:07.000Z</time>
      </trkpt>
      <trkpt lat="44.64071" lon="5.18853">
        <ele>1267</ele>
        <time>2026-05-25T12:36:08.000Z</time>
      </trkpt>
      <trkpt lat="44.64071" lon="5.18853">
        <ele>1267</ele>
        <time>2026-05-25T12:36:09.000Z</time>
      </trkpt>
      <trkpt lat="44.64071" lon="5.18853">
        <ele>1267</ele>
        <time>2026-05-25T12:36:10.000Z</time>
      </trkpt>
      <trkpt lat="44.64071" lon="5.18853">
        <ele>1267</ele>
        <time>2026-05-25T12:36:11.000Z</time>
      </trkpt>
      <trkpt lat="44.64071" lon="5.18853">
        <ele>1267</ele>
        <time>2026-05-25T12:36:12.000Z</time>
      </trkpt>
      <trkpt lat="44.64071" lon="5.18854">
        <ele>1266</ele>
        <time>2026-05-25T12:36:13.000Z</time>
      </trkpt>
      <trkpt lat="44.6407" lon="5.18852">
        <ele>1266</ele>
        <time>2026-05-25T12:36:14.000Z</time>
      </trkpt>
      <trkpt lat="44.6407" lon="5.18851">
        <ele>1267</ele>
        <time>2026-05-25T12:36:15.000Z</time>
      </trkpt>
      <trkpt lat="44.6407" lon="5.18849">
        <ele>1267</ele>
        <time>2026-05-25T12:36:16.000Z</time>
      </trkpt>
      <trkpt lat="44.64069" lon="5.18849">
        <ele>1267</ele>
        <time>2026-05-25T12:36:17.000Z</time>
      </trkpt>
      <trkpt lat="44.64069" lon="5.18847">
        <ele>1266</ele>
        <time>2026-05-25T12:36:18.000Z</time>
      </trkpt>
      <trkpt lat="44.64068" lon="5.18845">
        <ele>1265</ele>
        <time>2026-05-25T12:36:19.000Z</time>
      </trkpt>
      <trkpt lat="44.64067" lon="5.18844">
        <ele>1265</ele>
        <time>2026-05-25T12:36:20.000Z</time>
      </trkpt>
      <trkpt lat="44.64066" lon="5.18843">
        <ele>1265</ele>
        <time>2026-05-25T12:36:21.000Z</time>
      </trkpt>
      <trkpt lat="44.64065" lon="5.18841">
        <ele>1265</ele>
        <time>2026-05-25T12:36:22.000Z</time>
      </trkpt>
      <trkpt lat="44.64064" lon="5.1884">
        <ele>1266</ele>
        <time>2026-05-25T12:36:23.000Z</time>
      </trkpt>
      <trkpt lat="44.64064" lon="5.18839">
        <ele>1265</ele>
        <time>2026-05-25T12:36:24.000Z</time>
      </trkpt>
      <trkpt lat="44.64063" lon="5.18838">
        <ele>1265</ele>
        <time>2026-05-25T12:36:25.000Z</time>
      </trkpt>
      <trkpt lat="44.64063" lon="5.18837">
        <ele>1265</ele>
        <time>2026-05-25T12:36:26.000Z</time>
      </trkpt>
      <trkpt lat="44.64062" lon="5.18836">
        <ele>1265</ele>
        <time>2026-05-25T12:36:27.000Z</time>
      </trkpt>
      <trkpt lat="44.64061" lon="5.18835">
        <ele>1266</ele>
        <time>2026-05-25T12:36:28.000Z</time>
      </trkpt>
      <trkpt lat="44.6406" lon="5.18834">
        <ele>1266</ele>
        <time>2026-05-25T12:36:29.000Z</time>
      </trkpt>
      <trkpt lat="44.6406" lon="5.18833">
        <ele>1266</ele>
        <time>2026-05-25T12:36:30.000Z</time>
      </trkpt>
      <trkpt lat="44.64058" lon="5.18832">
        <ele>1267</ele>
        <time>2026-05-25T12:36:31.000Z</time>
      </trkpt>
      <trkpt lat="44.64058" lon="5.18831">
        <ele>1267</ele>
        <time>2026-05-25T12:36:32.000Z</time>
      </trkpt>
      <trkpt lat="44.64057" lon="5.1883">
        <ele>1268</ele>
        <time>2026-05-25T12:36:33.000Z</time>
      </trkpt>
      <trkpt lat="44.64057" lon="5.18829">
        <ele>1266</ele>
        <time>2026-05-25T12:36:34.000Z</time>
      </trkpt>
      <trkpt lat="44.64056" lon="5.18828">
        <ele>1266</ele>
        <time>2026-05-25T12:36:35.000Z</time>
      </trkpt>
      <trkpt lat="44.64055" lon="5.18827">
        <ele>1266</ele>
        <time>2026-05-25T12:36:36.000Z</time>
      </trkpt>
      <trkpt lat="44.64054" lon="5.18825">
        <ele>1265</ele>
        <time>2026-05-25T12:36:37.000Z</time>
      </trkpt>
      <trkpt lat="44.64054" lon="5.18824">
        <ele>1265</ele>
        <time>2026-05-25T12:36:38.000Z</time>
      </trkpt>
      <trkpt lat="44.64053" lon="5.18823">
        <ele>1265</ele>
        <time>2026-05-25T12:36:39.000Z</time>
      </trkpt>
      <trkpt lat="44.64052" lon="5.18822">
        <ele>1265</ele>
        <time>2026-05-25T12:36:40.000Z</time>
      </trkpt>
      <trkpt lat="44.64052" lon="5.1882">
        <ele>1265</ele>
        <time>2026-05-25T12:36:41.000Z</time>
      </trkpt>
      <trkpt lat="44.64051" lon="5.18819">
        <ele>1265</ele>
        <time>2026-05-25T12:36:42.000Z</time>
      </trkpt>
      <trkpt lat="44.6405" lon="5.18818">
        <ele>1264</ele>
        <time>2026-05-25T12:36:43.000Z</time>
      </trkpt>
      <trkpt lat="44.64049" lon="5.18816">
        <ele>1265</ele>
        <time>2026-05-25T12:36:44.000Z</time>
      </trkpt>
      <trkpt lat="44.64048" lon="5.18815">
        <ele>1265</ele>
        <time>2026-05-25T12:36:45.000Z</time>
      </trkpt>
      <trkpt lat="44.64047" lon="5.18813">
        <ele>1265</ele>
        <time>2026-05-25T12:36:46.000Z</time>
      </trkpt>
      <trkpt lat="44.64046" lon="5.18812">
        <ele>1266</ele>
        <time>2026-05-25T12:36:47.000Z</time>
      </trkpt>
      <trkpt lat="44.64046" lon="5.1881">
        <ele>1267</ele>
        <time>2026-05-25T12:36:48.000Z</time>
      </trkpt>
      <trkpt lat="44.64046" lon="5.18809">
        <ele>1267</ele>
        <time>2026-05-25T12:36:49.000Z</time>
      </trkpt>
      <trkpt lat="44.64046" lon="5.18808">
        <ele>1267</ele>
        <time>2026-05-25T12:36:50.000Z</time>
      </trkpt>
      <trkpt lat="44.64045" lon="5.18808">
        <ele>1267</ele>
        <time>2026-05-25T12:36:51.000Z</time>
      </trkpt>
      <trkpt lat="44.64045" lon="5.18807">
        <ele>1268</ele>
        <time>2026-05-25T12:36:52.000Z</time>
      </trkpt>
      <trkpt lat="44.64044" lon="5.18806">
        <ele>1267</ele>
        <time>2026-05-25T12:36:53.000Z</time>
      </trkpt>
      <trkpt lat="44.64043" lon="5.18804">
        <ele>1266</ele>
        <time>2026-05-25T12:36:54.000Z</time>
      </trkpt>
      <trkpt lat="44.64043" lon="5.18803">
        <ele>1266</ele>
        <time>2026-05-25T12:36:55.000Z</time>
      </trkpt>
      <trkpt lat="44.64042" lon="5.18801">
        <ele>1266</ele>
        <time>2026-05-25T12:36:56.000Z</time>
      </trkpt>
      <trkpt lat="44.64042" lon="5.188">
        <ele>1266</ele>
        <time>2026-05-25T12:36:57.000Z</time>
      </trkpt>
      <trkpt lat="44.64041" lon="5.18799">
        <ele>1266</ele>
        <time>2026-05-25T12:36:58.000Z</time>
      </trkpt>
      <trkpt lat="44.64041" lon="5.18797">
        <ele>1266</ele>
        <time>2026-05-25T12:36:59.000Z</time>
      </trkpt>
      <trkpt lat="44.64041" lon="5.18795">
        <ele>1266</ele>
        <time>2026-05-25T12:37:00.000Z</time>
      </trkpt>
      <trkpt lat="44.6404" lon="5.18794">
        <ele>1267</ele>
        <time>2026-05-25T12:37:01.000Z</time>
      </trkpt>
      <trkpt lat="44.64039" lon="5.18792">
        <ele>1267</ele>
        <time>2026-05-25T12:37:02.000Z</time>
      </trkpt>
      <trkpt lat="44.64039" lon="5.1879">
        <ele>1268</ele>
        <time>2026-05-25T12:37:03.000Z</time>
      </trkpt>
      <trkpt lat="44.64038" lon="5.18789">
        <ele>1266</ele>
        <time>2026-05-25T12:37:04.000Z</time>
      </trkpt>
      <trkpt lat="44.64038" lon="5.18787">
        <ele>1266</ele>
        <time>2026-05-25T12:37:05.000Z</time>
      </trkpt>
      <trkpt lat="44.64039" lon="5.18785">
        <ele>1266</ele>
        <time>2026-05-25T12:37:06.000Z</time>
      </trkpt>
      <trkpt lat="44.64039" lon="5.18784">
        <ele>1267</ele>
        <time>2026-05-25T12:37:07.000Z</time>
      </trkpt>
      <trkpt lat="44.64039" lon="5.18783">
        <ele>1266</ele>
        <time>2026-05-25T12:37:08.000Z</time>
      </trkpt>
      <trkpt lat="44.64038" lon="5.18782">
        <ele>1267</ele>
        <time>2026-05-25T12:37:09.000Z</time>
      </trkpt>
      <trkpt lat="44.64037" lon="5.18781">
        <ele>1266</ele>
        <time>2026-05-25T12:37:10.000Z</time>
      </trkpt>
      <trkpt lat="44.64036" lon="5.18781">
        <ele>1266</ele>
        <time>2026-05-25T12:37:11.000Z</time>
      </trkpt>
      <trkpt lat="44.64036" lon="5.18781">
        <ele>1266</ele>
        <time>2026-05-25T12:37:12.000Z</time>
      </trkpt>
      <trkpt lat="44.64036" lon="5.18781">
        <ele>1266</ele>
        <time>2026-05-25T12:37:13.000Z</time>
      </trkpt>
      <trkpt lat="44.64036" lon="5.18781">
        <ele>1266</ele>
        <time>2026-05-25T12:37:14.000Z</time>
      </trkpt>
      <trkpt lat="44.64036" lon="5.18781">
        <ele>1266</ele>
        <time>2026-05-25T12:37:15.000Z</time>
      </trkpt>
      <trkpt lat="44.64036" lon="5.18781">
        <ele>1266</ele>
        <time>2026-05-25T12:37:16.000Z</time>
      </trkpt>
      <trkpt lat="44.64036" lon="5.18786">
        <ele>1270</ele>
        <time>2026-05-25T12:37:17.000Z</time>
      </trkpt>
      <trkpt lat="44.64036" lon="5.18786">
        <ele>1270</ele>
        <time>2026-05-25T12:37:18.000Z</time>
      </trkpt>
      <trkpt lat="44.64036" lon="5.18786">
        <ele>1270</ele>
        <time>2026-05-25T12:37:19.000Z</time>
      </trkpt>
      <trkpt lat="44.64035" lon="5.18787">
        <ele>1272</ele>
        <time>2026-05-25T12:37:20.000Z</time>
      </trkpt>
      <trkpt lat="44.64035" lon="5.18787">
        <ele>1272</ele>
        <time>2026-05-25T12:37:21.000Z</time>
      </trkpt>
      <trkpt lat="44.64035" lon="5.18787">
        <ele>1272</ele>
        <time>2026-05-25T12:37:22.000Z</time>
      </trkpt>
      <trkpt lat="44.64035" lon="5.18787">
        <ele>1272</ele>
        <time>2026-05-25T12:37:23.000Z</time>
      </trkpt>
      <trkpt lat="44.64035" lon="5.18787">
        <ele>1272</ele>
        <time>2026-05-25T12:37:24.000Z</time>
      </trkpt>
      <trkpt lat="44.64035" lon="5.18787">
        <ele>1272</ele>
        <time>2026-05-25T12:37:25.000Z</time>
      </trkpt>
      <trkpt lat="44.64036" lon="5.18787">
        <ele>1274</ele>
        <time>2026-05-25T12:37:26.000Z</time>
      </trkpt>
      <trkpt lat="44.64037" lon="5.18787">
        <ele>1274</ele>
        <time>2026-05-25T12:37:27.000Z</time>
      </trkpt>
      <trkpt lat="44.64036" lon="5.18787">
        <ele>1274</ele>
        <time>2026-05-25T12:37:28.000Z</time>
      </trkpt>
      <trkpt lat="44.64035" lon="5.18786">
        <ele>1274</ele>
        <time>2026-05-25T12:37:29.000Z</time>
      </trkpt>
      <trkpt lat="44.64035" lon="5.18786">
        <ele>1274</ele>
        <time>2026-05-25T12:37:30.000Z</time>
      </trkpt>
      <trkpt lat="44.64037" lon="5.18784">
        <ele>1272</ele>
        <time>2026-05-25T12:37:31.000Z</time>
      </trkpt>
      <trkpt lat="44.64036" lon="5.18783">
        <ele>1272</ele>
        <time>2026-05-25T12:37:32.000Z</time>
      </trkpt>
      <trkpt lat="44.64036" lon="5.18781">
        <ele>1272</ele>
        <time>2026-05-25T12:37:33.000Z</time>
      </trkpt>
      <trkpt lat="44.64037" lon="5.18779">
        <ele>1272</ele>
        <time>2026-05-25T12:37:34.000Z</time>
      </trkpt>
      <trkpt lat="44.64037" lon="5.18777">
        <ele>1272</ele>
        <time>2026-05-25T12:37:35.000Z</time>
      </trkpt>
      <trkpt lat="44.64037" lon="5.18775">
        <ele>1272</ele>
        <time>2026-05-25T12:37:36.000Z</time>
      </trkpt>
      <trkpt lat="44.64037" lon="5.18773">
        <ele>1272</ele>
        <time>2026-05-25T12:37:37.000Z</time>
      </trkpt>
      <trkpt lat="44.64036" lon="5.18773">
        <ele>1272</ele>
        <time>2026-05-25T12:37:38.000Z</time>
      </trkpt>
      <trkpt lat="44.64036" lon="5.18771">
        <ele>1271</ele>
        <time>2026-05-25T12:37:39.000Z</time>
      </trkpt>
      <trkpt lat="44.64036" lon="5.1877">
        <ele>1271</ele>
        <time>2026-05-25T12:37:40.000Z</time>
      </trkpt>
      <trkpt lat="44.64035" lon="5.18769">
        <ele>1272</ele>
        <time>2026-05-25T12:37:41.000Z</time>
      </trkpt>
      <trkpt lat="44.64034" lon="5.18768">
        <ele>1271</ele>
        <time>2026-05-25T12:37:42.000Z</time>
      </trkpt>
      <trkpt lat="44.64032" lon="5.18768">
        <ele>1271</ele>
        <time>2026-05-25T12:37:43.000Z</time>
      </trkpt>
      <trkpt lat="44.6403" lon="5.18767">
        <ele>1271</ele>
        <time>2026-05-25T12:37:44.000Z</time>
      </trkpt>
      <trkpt lat="44.6403" lon="5.18766">
        <ele>1270</ele>
        <time>2026-05-25T12:37:45.000Z</time>
      </trkpt>
      <trkpt lat="44.64029" lon="5.18763">
        <ele>1271</ele>
        <time>2026-05-25T12:37:46.000Z</time>
      </trkpt>
      <trkpt lat="44.64029" lon="5.18762">
        <ele>1269</ele>
        <time>2026-05-25T12:37:47.000Z</time>
      </trkpt>
      <trkpt lat="44.64029" lon="5.1876">
        <ele>1269</ele>
        <time>2026-05-25T12:37:48.000Z</time>
      </trkpt>
      <trkpt lat="44.64028" lon="5.18758">
        <ele>1268</ele>
        <time>2026-05-25T12:37:49.000Z</time>
      </trkpt>
      <trkpt lat="44.64028" lon="5.18757">
        <ele>1268</ele>
        <time>2026-05-25T12:37:50.000Z</time>
      </trkpt>
      <trkpt lat="44.64027" lon="5.18756">
        <ele>1268</ele>
        <time>2026-05-25T12:37:51.000Z</time>
      </trkpt>
      <trkpt lat="44.64026" lon="5.18755">
        <ele>1268</ele>
        <time>2026-05-25T12:37:52.000Z</time>
      </trkpt>
      <trkpt lat="44.64026" lon="5.18753">
        <ele>1268</ele>
        <time>2026-05-25T12:37:53.000Z</time>
      </trkpt>
      <trkpt lat="44.64025" lon="5.18751">
        <ele>1268</ele>
        <time>2026-05-25T12:37:54.000Z</time>
      </trkpt>
      <trkpt lat="44.64024" lon="5.1875">
        <ele>1267</ele>
        <time>2026-05-25T12:37:55.000Z</time>
      </trkpt>
      <trkpt lat="44.64023" lon="5.18748">
        <ele>1267</ele>
        <time>2026-05-25T12:37:56.000Z</time>
      </trkpt>
      <trkpt lat="44.64022" lon="5.18746">
        <ele>1268</ele>
        <time>2026-05-25T12:37:57.000Z</time>
      </trkpt>
      <trkpt lat="44.64022" lon="5.18745">
        <ele>1267</ele>
        <time>2026-05-25T12:37:58.000Z</time>
      </trkpt>
      <trkpt lat="44.64021" lon="5.18744">
        <ele>1267</ele>
        <time>2026-05-25T12:37:59.000Z</time>
      </trkpt>
      <trkpt lat="44.64021" lon="5.18744">
        <ele>1267</ele>
        <time>2026-05-25T12:38:00.000Z</time>
      </trkpt>
      <trkpt lat="44.64021" lon="5.18742">
        <ele>1267</ele>
        <time>2026-05-25T12:38:01.000Z</time>
      </trkpt>
      <trkpt lat="44.64021" lon="5.18741">
        <ele>1267</ele>
        <time>2026-05-25T12:38:02.000Z</time>
      </trkpt>
      <trkpt lat="44.6402" lon="5.1874">
        <ele>1267</ele>
        <time>2026-05-25T12:38:03.000Z</time>
      </trkpt>
      <trkpt lat="44.64019" lon="5.18739">
        <ele>1267</ele>
        <time>2026-05-25T12:38:04.000Z</time>
      </trkpt>
      <trkpt lat="44.64019" lon="5.18737">
        <ele>1267</ele>
        <time>2026-05-25T12:38:05.000Z</time>
      </trkpt>
      <trkpt lat="44.64019" lon="5.18735">
        <ele>1267</ele>
        <time>2026-05-25T12:38:06.000Z</time>
      </trkpt>
      <trkpt lat="44.64018" lon="5.18733">
        <ele>1267</ele>
        <time>2026-05-25T12:38:07.000Z</time>
      </trkpt>
      <trkpt lat="44.64018" lon="5.18732">
        <ele>1266</ele>
        <time>2026-05-25T12:38:08.000Z</time>
      </trkpt>
      <trkpt lat="44.64017" lon="5.1873">
        <ele>1267</ele>
        <time>2026-05-25T12:38:09.000Z</time>
      </trkpt>
      <trkpt lat="44.64017" lon="5.18728">
        <ele>1267</ele>
        <time>2026-05-25T12:38:10.000Z</time>
      </trkpt>
      <trkpt lat="44.64016" lon="5.18728">
        <ele>1267</ele>
        <time>2026-05-25T12:38:11.000Z</time>
      </trkpt>
      <trkpt lat="44.64015" lon="5.18726">
        <ele>1268</ele>
        <time>2026-05-25T12:38:12.000Z</time>
      </trkpt>
      <trkpt lat="44.64014" lon="5.18724">
        <ele>1268</ele>
        <time>2026-05-25T12:38:13.000Z</time>
      </trkpt>
      <trkpt lat="44.64013" lon="5.18723">
        <ele>1268</ele>
        <time>2026-05-25T12:38:14.000Z</time>
      </trkpt>
      <trkpt lat="44.64013" lon="5.18722">
        <ele>1268</ele>
        <time>2026-05-25T12:38:15.000Z</time>
      </trkpt>
      <trkpt lat="44.64013" lon="5.18721">
        <ele>1268</ele>
        <time>2026-05-25T12:38:16.000Z</time>
      </trkpt>
      <trkpt lat="44.64012" lon="5.18719">
        <ele>1268</ele>
        <time>2026-05-25T12:38:17.000Z</time>
      </trkpt>
      <trkpt lat="44.64011" lon="5.18718">
        <ele>1269</ele>
        <time>2026-05-25T12:38:18.000Z</time>
      </trkpt>
      <trkpt lat="44.6401" lon="5.18717">
        <ele>1269</ele>
        <time>2026-05-25T12:38:19.000Z</time>
      </trkpt>
      <trkpt lat="44.64009" lon="5.18715">
        <ele>1268</ele>
        <time>2026-05-25T12:38:20.000Z</time>
      </trkpt>
      <trkpt lat="44.64008" lon="5.18714">
        <ele>1268</ele>
        <time>2026-05-25T12:38:21.000Z</time>
      </trkpt>
      <trkpt lat="44.64008" lon="5.18713">
        <ele>1268</ele>
        <time>2026-05-25T12:38:22.000Z</time>
      </trkpt>
      <trkpt lat="44.64007" lon="5.18711">
        <ele>1267</ele>
        <time>2026-05-25T12:38:23.000Z</time>
      </trkpt>
      <trkpt lat="44.64006" lon="5.1871">
        <ele>1267</ele>
        <time>2026-05-25T12:38:24.000Z</time>
      </trkpt>
      <trkpt lat="44.64005" lon="5.18709">
        <ele>1267</ele>
        <time>2026-05-25T12:38:25.000Z</time>
      </trkpt>
      <trkpt lat="44.64004" lon="5.18708">
        <ele>1267</ele>
        <time>2026-05-25T12:38:26.000Z</time>
      </trkpt>
      <trkpt lat="44.64003" lon="5.18706">
        <ele>1268</ele>
        <time>2026-05-25T12:38:27.000Z</time>
      </trkpt>
      <trkpt lat="44.64002" lon="5.18705">
        <ele>1267</ele>
        <time>2026-05-25T12:38:28.000Z</time>
      </trkpt>
      <trkpt lat="44.64001" lon="5.18703">
        <ele>1267</ele>
        <time>2026-05-25T12:38:29.000Z</time>
      </trkpt>
      <trkpt lat="44.64" lon="5.18702">
        <ele>1266</ele>
        <time>2026-05-25T12:38:30.000Z</time>
      </trkpt>
      <trkpt lat="44.63999" lon="5.18701">
        <ele>1265</ele>
        <time>2026-05-25T12:38:31.000Z</time>
      </trkpt>
      <trkpt lat="44.63998" lon="5.18701">
        <ele>1265</ele>
        <time>2026-05-25T12:38:32.000Z</time>
      </trkpt>
      <trkpt lat="44.63997" lon="5.187">
        <ele>1264</ele>
        <time>2026-05-25T12:38:33.000Z</time>
      </trkpt>
      <trkpt lat="44.63996" lon="5.18699">
        <ele>1264</ele>
        <time>2026-05-25T12:38:34.000Z</time>
      </trkpt>
      <trkpt lat="44.63995" lon="5.18698">
        <ele>1264</ele>
        <time>2026-05-25T12:38:35.000Z</time>
      </trkpt>
      <trkpt lat="44.63994" lon="5.18698">
        <ele>1263</ele>
        <time>2026-05-25T12:38:36.000Z</time>
      </trkpt>
      <trkpt lat="44.63994" lon="5.18697">
        <ele>1264</ele>
        <time>2026-05-25T12:38:37.000Z</time>
      </trkpt>
      <trkpt lat="44.63992" lon="5.18696">
        <ele>1264</ele>
        <time>2026-05-25T12:38:38.000Z</time>
      </trkpt>
      <trkpt lat="44.63991" lon="5.18696">
        <ele>1264</ele>
        <time>2026-05-25T12:38:39.000Z</time>
      </trkpt>
      <trkpt lat="44.6399" lon="5.18695">
        <ele>1264</ele>
        <time>2026-05-25T12:38:40.000Z</time>
      </trkpt>
      <trkpt lat="44.63989" lon="5.18694">
        <ele>1264</ele>
        <time>2026-05-25T12:38:41.000Z</time>
      </trkpt>
      <trkpt lat="44.63988" lon="5.18694">
        <ele>1264</ele>
        <time>2026-05-25T12:38:42.000Z</time>
      </trkpt>
      <trkpt lat="44.63986" lon="5.18694">
        <ele>1264</ele>
        <time>2026-05-25T12:38:43.000Z</time>
      </trkpt>
      <trkpt lat="44.63985" lon="5.18693">
        <ele>1265</ele>
        <time>2026-05-25T12:38:44.000Z</time>
      </trkpt>
      <trkpt lat="44.63984" lon="5.18693">
        <ele>1264</ele>
        <time>2026-05-25T12:38:45.000Z</time>
      </trkpt>
      <trkpt lat="44.63982" lon="5.18692">
        <ele>1264</ele>
        <time>2026-05-25T12:38:46.000Z</time>
      </trkpt>
      <trkpt lat="44.63981" lon="5.18691">
        <ele>1264</ele>
        <time>2026-05-25T12:38:47.000Z</time>
      </trkpt>
      <trkpt lat="44.6398" lon="5.18691">
        <ele>1264</ele>
        <time>2026-05-25T12:38:48.000Z</time>
      </trkpt>
      <trkpt lat="44.63979" lon="5.18691">
        <ele>1265</ele>
        <time>2026-05-25T12:38:49.000Z</time>
      </trkpt>
      <trkpt lat="44.63978" lon="5.18691">
        <ele>1265</ele>
        <time>2026-05-25T12:38:50.000Z</time>
      </trkpt>
      <trkpt lat="44.63977" lon="5.1869">
        <ele>1265</ele>
        <time>2026-05-25T12:38:51.000Z</time>
      </trkpt>
      <trkpt lat="44.63975" lon="5.1869">
        <ele>1265</ele>
        <time>2026-05-25T12:38:52.000Z</time>
      </trkpt>
      <trkpt lat="44.63974" lon="5.18689">
        <ele>1264</ele>
        <time>2026-05-25T12:38:53.000Z</time>
      </trkpt>
      <trkpt lat="44.63974" lon="5.18688">
        <ele>1264</ele>
        <time>2026-05-25T12:38:54.000Z</time>
      </trkpt>
      <trkpt lat="44.63972" lon="5.18687">
        <ele>1264</ele>
        <time>2026-05-25T12:38:55.000Z</time>
      </trkpt>
      <trkpt lat="44.63971" lon="5.18687">
        <ele>1263</ele>
        <time>2026-05-25T12:38:56.000Z</time>
      </trkpt>
      <trkpt lat="44.6397" lon="5.18687">
        <ele>1264</ele>
        <time>2026-05-25T12:38:57.000Z</time>
      </trkpt>
      <trkpt lat="44.6397" lon="5.18687">
        <ele>1263</ele>
        <time>2026-05-25T12:38:58.000Z</time>
      </trkpt>
      <trkpt lat="44.63969" lon="5.18686">
        <ele>1263</ele>
        <time>2026-05-25T12:38:59.000Z</time>
      </trkpt>
      <trkpt lat="44.63968" lon="5.18686">
        <ele>1263</ele>
        <time>2026-05-25T12:39:00.000Z</time>
      </trkpt>
      <trkpt lat="44.63967" lon="5.18686">
        <ele>1262</ele>
        <time>2026-05-25T12:39:01.000Z</time>
      </trkpt>
      <trkpt lat="44.63966" lon="5.18687">
        <ele>1262</ele>
        <time>2026-05-25T12:39:02.000Z</time>
      </trkpt>
      <trkpt lat="44.63964" lon="5.18688">
        <ele>1263</ele>
        <time>2026-05-25T12:39:03.000Z</time>
      </trkpt>
      <trkpt lat="44.63963" lon="5.18687">
        <ele>1263</ele>
        <time>2026-05-25T12:39:04.000Z</time>
      </trkpt>
      <trkpt lat="44.63961" lon="5.18687">
        <ele>1263</ele>
        <time>2026-05-25T12:39:05.000Z</time>
      </trkpt>
      <trkpt lat="44.6396" lon="5.18687">
        <ele>1263</ele>
        <time>2026-05-25T12:39:06.000Z</time>
      </trkpt>
      <trkpt lat="44.63958" lon="5.18687">
        <ele>1263</ele>
        <time>2026-05-25T12:39:07.000Z</time>
      </trkpt>
      <trkpt lat="44.63958" lon="5.18685">
        <ele>1263</ele>
        <time>2026-05-25T12:39:08.000Z</time>
      </trkpt>
      <trkpt lat="44.63956" lon="5.18686">
        <ele>1263</ele>
        <time>2026-05-25T12:39:09.000Z</time>
      </trkpt>
      <trkpt lat="44.63956" lon="5.18686">
        <ele>1263</ele>
        <time>2026-05-25T12:39:10.000Z</time>
      </trkpt>
      <trkpt lat="44.63955" lon="5.18685">
        <ele>1263</ele>
        <time>2026-05-25T12:39:11.000Z</time>
      </trkpt>
      <trkpt lat="44.63953" lon="5.18685">
        <ele>1263</ele>
        <time>2026-05-25T12:39:12.000Z</time>
      </trkpt>
      <trkpt lat="44.63951" lon="5.18684">
        <ele>1263</ele>
        <time>2026-05-25T12:39:13.000Z</time>
      </trkpt>
      <trkpt lat="44.6395" lon="5.18684">
        <ele>1263</ele>
        <time>2026-05-25T12:39:14.000Z</time>
      </trkpt>
      <trkpt lat="44.6395" lon="5.18683">
        <ele>1263</ele>
        <time>2026-05-25T12:39:15.000Z</time>
      </trkpt>
      <trkpt lat="44.63949" lon="5.18684">
        <ele>1263</ele>
        <time>2026-05-25T12:39:16.000Z</time>
      </trkpt>
      <trkpt lat="44.63948" lon="5.18685">
        <ele>1262</ele>
        <time>2026-05-25T12:39:17.000Z</time>
      </trkpt>
      <trkpt lat="44.63947" lon="5.18684">
        <ele>1263</ele>
        <time>2026-05-25T12:39:18.000Z</time>
      </trkpt>
      <trkpt lat="44.63946" lon="5.18684">
        <ele>1263</ele>
        <time>2026-05-25T12:39:19.000Z</time>
      </trkpt>
      <trkpt lat="44.63945" lon="5.18682">
        <ele>1263</ele>
        <time>2026-05-25T12:39:20.000Z</time>
      </trkpt>
      <trkpt lat="44.63944" lon="5.18682">
        <ele>1263</ele>
        <time>2026-05-25T12:39:21.000Z</time>
      </trkpt>
      <trkpt lat="44.63944" lon="5.1868">
        <ele>1263</ele>
        <time>2026-05-25T12:39:22.000Z</time>
      </trkpt>
      <trkpt lat="44.63942" lon="5.1868">
        <ele>1263</ele>
        <time>2026-05-25T12:39:23.000Z</time>
      </trkpt>
      <trkpt lat="44.63941" lon="5.1868">
        <ele>1262</ele>
        <time>2026-05-25T12:39:24.000Z</time>
      </trkpt>
      <trkpt lat="44.6394" lon="5.18682">
        <ele>1261</ele>
        <time>2026-05-25T12:39:25.000Z</time>
      </trkpt>
      <trkpt lat="44.63938" lon="5.18682">
        <ele>1261</ele>
        <time>2026-05-25T12:39:26.000Z</time>
      </trkpt>
      <trkpt lat="44.63936" lon="5.18681">
        <ele>1260</ele>
        <time>2026-05-25T12:39:27.000Z</time>
      </trkpt>
      <trkpt lat="44.63935" lon="5.18682">
        <ele>1260</ele>
        <time>2026-05-25T12:39:28.000Z</time>
      </trkpt>
      <trkpt lat="44.63935" lon="5.18682">
        <ele>1260</ele>
        <time>2026-05-25T12:39:29.000Z</time>
      </trkpt>
      <trkpt lat="44.63933" lon="5.18681">
        <ele>1259</ele>
        <time>2026-05-25T12:39:30.000Z</time>
      </trkpt>
      <trkpt lat="44.63932" lon="5.18681">
        <ele>1259</ele>
        <time>2026-05-25T12:39:31.000Z</time>
      </trkpt>
      <trkpt lat="44.63931" lon="5.1868">
        <ele>1259</ele>
        <time>2026-05-25T12:39:32.000Z</time>
      </trkpt>
      <trkpt lat="44.6393" lon="5.1868">
        <ele>1259</ele>
        <time>2026-05-25T12:39:33.000Z</time>
      </trkpt>
      <trkpt lat="44.63929" lon="5.1868">
        <ele>1259</ele>
        <time>2026-05-25T12:39:34.000Z</time>
      </trkpt>
      <trkpt lat="44.63927" lon="5.1868">
        <ele>1260</ele>
        <time>2026-05-25T12:39:35.000Z</time>
      </trkpt>
      <trkpt lat="44.63926" lon="5.1868">
        <ele>1260</ele>
        <time>2026-05-25T12:39:36.000Z</time>
      </trkpt>
      <trkpt lat="44.63925" lon="5.1868">
        <ele>1260</ele>
        <time>2026-05-25T12:39:37.000Z</time>
      </trkpt>
      <trkpt lat="44.63924" lon="5.1868">
        <ele>1260</ele>
        <time>2026-05-25T12:39:38.000Z</time>
      </trkpt>
      <trkpt lat="44.63923" lon="5.18679">
        <ele>1260</ele>
        <time>2026-05-25T12:39:39.000Z</time>
      </trkpt>
      <trkpt lat="44.63922" lon="5.18678">
        <ele>1260</ele>
        <time>2026-05-25T12:39:40.000Z</time>
      </trkpt>
      <trkpt lat="44.63922" lon="5.18678">
        <ele>1260</ele>
        <time>2026-05-25T12:39:41.000Z</time>
      </trkpt>
      <trkpt lat="44.6392" lon="5.18677">
        <ele>1260</ele>
        <time>2026-05-25T12:39:42.000Z</time>
      </trkpt>
      <trkpt lat="44.63919" lon="5.18677">
        <ele>1259</ele>
        <time>2026-05-25T12:39:43.000Z</time>
      </trkpt>
      <trkpt lat="44.63918" lon="5.18676">
        <ele>1259</ele>
        <time>2026-05-25T12:39:44.000Z</time>
      </trkpt>
      <trkpt lat="44.63917" lon="5.18676">
        <ele>1259</ele>
        <time>2026-05-25T12:39:45.000Z</time>
      </trkpt>
      <trkpt lat="44.63915" lon="5.18675">
        <ele>1259</ele>
        <time>2026-05-25T12:39:46.000Z</time>
      </trkpt>
      <trkpt lat="44.63914" lon="5.18675">
        <ele>1259</ele>
        <time>2026-05-25T12:39:47.000Z</time>
      </trkpt>
      <trkpt lat="44.63913" lon="5.18674">
        <ele>1259</ele>
        <time>2026-05-25T12:39:48.000Z</time>
      </trkpt>
      <trkpt lat="44.63912" lon="5.18673">
        <ele>1259</ele>
        <time>2026-05-25T12:39:49.000Z</time>
      </trkpt>
      <trkpt lat="44.63911" lon="5.18673">
        <ele>1259</ele>
        <time>2026-05-25T12:39:50.000Z</time>
      </trkpt>
      <trkpt lat="44.63909" lon="5.18672">
        <ele>1259</ele>
        <time>2026-05-25T12:39:51.000Z</time>
      </trkpt>
      <trkpt lat="44.63908" lon="5.18672">
        <ele>1259</ele>
        <time>2026-05-25T12:39:52.000Z</time>
      </trkpt>
      <trkpt lat="44.63908" lon="5.18671">
        <ele>1259</ele>
        <time>2026-05-25T12:39:53.000Z</time>
      </trkpt>
      <trkpt lat="44.63907" lon="5.18671">
        <ele>1259</ele>
        <time>2026-05-25T12:39:54.000Z</time>
      </trkpt>
      <trkpt lat="44.63906" lon="5.18671">
        <ele>1259</ele>
        <time>2026-05-25T12:39:55.000Z</time>
      </trkpt>
      <trkpt lat="44.63905" lon="5.18671">
        <ele>1259</ele>
        <time>2026-05-25T12:39:56.000Z</time>
      </trkpt>
      <trkpt lat="44.63905" lon="5.1867">
        <ele>1259</ele>
        <time>2026-05-25T12:39:57.000Z</time>
      </trkpt>
      <trkpt lat="44.63904" lon="5.18671">
        <ele>1260</ele>
        <time>2026-05-25T12:39:58.000Z</time>
      </trkpt>
      <trkpt lat="44.63902" lon="5.18671">
        <ele>1260</ele>
        <time>2026-05-25T12:39:59.000Z</time>
      </trkpt>
      <trkpt lat="44.639" lon="5.1867">
        <ele>1260</ele>
        <time>2026-05-25T12:40:00.000Z</time>
      </trkpt>
      <trkpt lat="44.63899" lon="5.18669">
        <ele>1260</ele>
        <time>2026-05-25T12:40:01.000Z</time>
      </trkpt>
      <trkpt lat="44.63898" lon="5.18668">
        <ele>1260</ele>
        <time>2026-05-25T12:40:02.000Z</time>
      </trkpt>
      <trkpt lat="44.63897" lon="5.18667">
        <ele>1260</ele>
        <time>2026-05-25T12:40:03.000Z</time>
      </trkpt>
      <trkpt lat="44.63895" lon="5.18666">
        <ele>1260</ele>
        <time>2026-05-25T12:40:04.000Z</time>
      </trkpt>
      <trkpt lat="44.63894" lon="5.18665">
        <ele>1260</ele>
        <time>2026-05-25T12:40:05.000Z</time>
      </trkpt>
      <trkpt lat="44.63893" lon="5.18664">
        <ele>1261</ele>
        <time>2026-05-25T12:40:06.000Z</time>
      </trkpt>
      <trkpt lat="44.63891" lon="5.18664">
        <ele>1261</ele>
        <time>2026-05-25T12:40:07.000Z</time>
      </trkpt>
      <trkpt lat="44.6389" lon="5.18664">
        <ele>1262</ele>
        <time>2026-05-25T12:40:08.000Z</time>
      </trkpt>
      <trkpt lat="44.63889" lon="5.18664">
        <ele>1262</ele>
        <time>2026-05-25T12:40:09.000Z</time>
      </trkpt>
      <trkpt lat="44.63888" lon="5.18663">
        <ele>1262</ele>
        <time>2026-05-25T12:40:10.000Z</time>
      </trkpt>
      <trkpt lat="44.63887" lon="5.18663">
        <ele>1262</ele>
        <time>2026-05-25T12:40:11.000Z</time>
      </trkpt>
      <trkpt lat="44.63886" lon="5.18662">
        <ele>1262</ele>
        <time>2026-05-25T12:40:12.000Z</time>
      </trkpt>
      <trkpt lat="44.63885" lon="5.18662">
        <ele>1261</ele>
        <time>2026-05-25T12:40:13.000Z</time>
      </trkpt>
      <trkpt lat="44.63884" lon="5.18662">
        <ele>1261</ele>
        <time>2026-05-25T12:40:14.000Z</time>
      </trkpt>
      <trkpt lat="44.63883" lon="5.18662">
        <ele>1261</ele>
        <time>2026-05-25T12:40:15.000Z</time>
      </trkpt>
      <trkpt lat="44.63882" lon="5.18661">
        <ele>1261</ele>
        <time>2026-05-25T12:40:16.000Z</time>
      </trkpt>
      <trkpt lat="44.63882" lon="5.18661">
        <ele>1260</ele>
        <time>2026-05-25T12:40:17.000Z</time>
      </trkpt>
      <trkpt lat="44.6388" lon="5.1866">
        <ele>1259</ele>
        <time>2026-05-25T12:40:18.000Z</time>
      </trkpt>
      <trkpt lat="44.63879" lon="5.1866">
        <ele>1259</ele>
        <time>2026-05-25T12:40:19.000Z</time>
      </trkpt>
      <trkpt lat="44.63877" lon="5.1866">
        <ele>1260</ele>
        <time>2026-05-25T12:40:20.000Z</time>
      </trkpt>
      <trkpt lat="44.63877" lon="5.18661">
        <ele>1260</ele>
        <time>2026-05-25T12:40:21.000Z</time>
      </trkpt>
      <trkpt lat="44.63876" lon="5.1866">
        <ele>1260</ele>
        <time>2026-05-25T12:40:22.000Z</time>
      </trkpt>
      <trkpt lat="44.63875" lon="5.18661">
        <ele>1260</ele>
        <time>2026-05-25T12:40:23.000Z</time>
      </trkpt>
      <trkpt lat="44.63875" lon="5.18661">
        <ele>1261</ele>
        <time>2026-05-25T12:40:24.000Z</time>
      </trkpt>
      <trkpt lat="44.63874" lon="5.1866">
        <ele>1260</ele>
        <time>2026-05-25T12:40:25.000Z</time>
      </trkpt>
      <trkpt lat="44.63874" lon="5.18659">
        <ele>1260</ele>
        <time>2026-05-25T12:40:26.000Z</time>
      </trkpt>
      <trkpt lat="44.63873" lon="5.18659">
        <ele>1260</ele>
        <time>2026-05-25T12:40:27.000Z</time>
      </trkpt>
      <trkpt lat="44.63872" lon="5.18658">
        <ele>1260</ele>
        <time>2026-05-25T12:40:28.000Z</time>
      </trkpt>
      <trkpt lat="44.63871" lon="5.18658">
        <ele>1260</ele>
        <time>2026-05-25T12:40:29.000Z</time>
      </trkpt>
      <trkpt lat="44.6387" lon="5.18657">
        <ele>1260</ele>
        <time>2026-05-25T12:40:30.000Z</time>
      </trkpt>
      <trkpt lat="44.6387" lon="5.18657">
        <ele>1260</ele>
        <time>2026-05-25T12:40:31.000Z</time>
      </trkpt>
      <trkpt lat="44.63869" lon="5.18656">
        <ele>1260</ele>
        <time>2026-05-25T12:40:32.000Z</time>
      </trkpt>
      <trkpt lat="44.6387" lon="5.18654">
        <ele>1261</ele>
        <time>2026-05-25T12:40:33.000Z</time>
      </trkpt>
      <trkpt lat="44.63869" lon="5.18653">
        <ele>1262</ele>
        <time>2026-05-25T12:40:34.000Z</time>
      </trkpt>
      <trkpt lat="44.63869" lon="5.18655">
        <ele>1263</ele>
        <time>2026-05-25T12:40:35.000Z</time>
      </trkpt>
      <trkpt lat="44.63869" lon="5.18655">
        <ele>1263</ele>
        <time>2026-05-25T12:40:36.000Z</time>
      </trkpt>
      <trkpt lat="44.6387" lon="5.18656">
        <ele>1267</ele>
        <time>2026-05-25T12:40:37.000Z</time>
      </trkpt>
      <trkpt lat="44.6387" lon="5.18656">
        <ele>1267</ele>
        <time>2026-05-25T12:40:38.000Z</time>
      </trkpt>
      <trkpt lat="44.6387" lon="5.18656">
        <ele>1267</ele>
        <time>2026-05-25T12:40:39.000Z</time>
      </trkpt>
      <trkpt lat="44.6387" lon="5.18656">
        <ele>1267</ele>
        <time>2026-05-25T12:40:40.000Z</time>
      </trkpt>
      <trkpt lat="44.6387" lon="5.18656">
        <ele>1267</ele>
        <time>2026-05-25T12:40:41.000Z</time>
      </trkpt>
      <trkpt lat="44.6387" lon="5.18656">
        <ele>1267</ele>
        <time>2026-05-25T12:40:42.000Z</time>
      </trkpt>
      <trkpt lat="44.6387" lon="5.18656">
        <ele>1267</ele>
        <time>2026-05-25T12:40:43.000Z</time>
      </trkpt>
      <trkpt lat="44.6387" lon="5.18656">
        <ele>1267</ele>
        <time>2026-05-25T12:40:44.000Z</time>
      </trkpt>
      <trkpt lat="44.6387" lon="5.18656">
        <ele>1267</ele>
        <time>2026-05-25T12:40:45.000Z</time>
      </trkpt>
      <trkpt lat="44.6387" lon="5.18656">
        <ele>1267</ele>
        <time>2026-05-25T12:40:46.000Z</time>
      </trkpt>
      <trkpt lat="44.6387" lon="5.18656">
        <ele>1267</ele>
        <time>2026-05-25T12:40:47.000Z</time>
      </trkpt>
      <trkpt lat="44.6387" lon="5.18656">
        <ele>1267</ele>
        <time>2026-05-25T12:40:48.000Z</time>
      </trkpt>
      <trkpt lat="44.6387" lon="5.18656">
        <ele>1267</ele>
        <time>2026-05-25T12:40:49.000Z</time>
      </trkpt>
      <trkpt lat="44.6387" lon="5.18656">
        <ele>1267</ele>
        <time>2026-05-25T12:40:50.000Z</time>
      </trkpt>
      <trkpt lat="44.6387" lon="5.18656">
        <ele>1267</ele>
        <time>2026-05-25T12:40:51.000Z</time>
      </trkpt>
      <trkpt lat="44.6387" lon="5.18656">
        <ele>1267</ele>
        <time>2026-05-25T12:40:52.000Z</time>
      </trkpt>
      <trkpt lat="44.6387" lon="5.18656">
        <ele>1267</ele>
        <time>2026-05-25T12:40:53.000Z</time>
      </trkpt>
      <trkpt lat="44.6387" lon="5.18656">
        <ele>1267</ele>
        <time>2026-05-25T12:40:54.000Z</time>
      </trkpt>
      <trkpt lat="44.6387" lon="5.18656">
        <ele>1267</ele>
        <time>2026-05-25T12:40:55.000Z</time>
      </trkpt>
      <trkpt lat="44.6387" lon="5.18655">
        <ele>1270</ele>
        <time>2026-05-25T12:40:56.000Z</time>
      </trkpt>
      <trkpt lat="44.6387" lon="5.18655">
        <ele>1270</ele>
        <time>2026-05-25T12:40:57.000Z</time>
      </trkpt>
      <trkpt lat="44.6387" lon="5.18655">
        <ele>1270</ele>
        <time>2026-05-25T12:40:58.000Z</time>
      </trkpt>
      <trkpt lat="44.6387" lon="5.18655">
        <ele>1270</ele>
        <time>2026-05-25T12:40:59.000Z</time>
      </trkpt>
      <trkpt lat="44.6387" lon="5.18655">
        <ele>1270</ele>
        <time>2026-05-25T12:41:00.000Z</time>
      </trkpt>
      <trkpt lat="44.6387" lon="5.18655">
        <ele>1270</ele>
        <time>2026-05-25T12:41:01.000Z</time>
      </trkpt>
      <trkpt lat="44.6387" lon="5.18655">
        <ele>1270</ele>
        <time>2026-05-25T12:41:02.000Z</time>
      </trkpt>
      <trkpt lat="44.6387" lon="5.18655">
        <ele>1270</ele>
        <time>2026-05-25T12:41:03.000Z</time>
      </trkpt>
      <trkpt lat="44.6387" lon="5.18655">
        <ele>1270</ele>
        <time>2026-05-25T12:41:04.000Z</time>
      </trkpt>
      <trkpt lat="44.6387" lon="5.18655">
        <ele>1270</ele>
        <time>2026-05-25T12:41:05.000Z</time>
      </trkpt>
      <trkpt lat="44.6387" lon="5.18655">
        <ele>1270</ele>
        <time>2026-05-25T12:41:06.000Z</time>
      </trkpt>
      <trkpt lat="44.6387" lon="5.18655">
        <ele>1270</ele>
        <time>2026-05-25T12:41:07.000Z</time>
      </trkpt>
      <trkpt lat="44.6387" lon="5.18655">
        <ele>1270</ele>
        <time>2026-05-25T12:41:08.000Z</time>
      </trkpt>
      <trkpt lat="44.6387" lon="5.18655">
        <ele>1270</ele>
        <time>2026-05-25T12:41:09.000Z</time>
      </trkpt>
      <trkpt lat="44.6387" lon="5.18655">
        <ele>1270</ele>
        <time>2026-05-25T12:41:10.000Z</time>
      </trkpt>
      <trkpt lat="44.6387" lon="5.18655">
        <ele>1270</ele>
        <time>2026-05-25T12:41:11.000Z</time>
      </trkpt>
      <trkpt lat="44.6387" lon="5.18655">
        <ele>1270</ele>
        <time>2026-05-25T12:41:12.000Z</time>
      </trkpt>
      <trkpt lat="44.63865" lon="5.18655">
        <ele>1269</ele>
        <time>2026-05-25T12:41:13.000Z</time>
      </trkpt>
      <trkpt lat="44.63863" lon="5.18655">
        <ele>1268</ele>
        <time>2026-05-25T12:41:14.000Z</time>
      </trkpt>
      <trkpt lat="44.63862" lon="5.18655">
        <ele>1267</ele>
        <time>2026-05-25T12:41:15.000Z</time>
      </trkpt>
      <trkpt lat="44.6386" lon="5.18655">
        <ele>1267</ele>
        <time>2026-05-25T12:41:16.000Z</time>
      </trkpt>
      <trkpt lat="44.63859" lon="5.18655">
        <ele>1267</ele>
        <time>2026-05-25T12:41:17.000Z</time>
      </trkpt>
      <trkpt lat="44.63858" lon="5.18655">
        <ele>1267</ele>
        <time>2026-05-25T12:41:18.000Z</time>
      </trkpt>
      <trkpt lat="44.63856" lon="5.18654">
        <ele>1266</ele>
        <time>2026-05-25T12:41:19.000Z</time>
      </trkpt>
      <trkpt lat="44.63855" lon="5.18655">
        <ele>1266</ele>
        <time>2026-05-25T12:41:20.000Z</time>
      </trkpt>
      <trkpt lat="44.63855" lon="5.18654">
        <ele>1265</ele>
        <time>2026-05-25T12:41:21.000Z</time>
      </trkpt>
      <trkpt lat="44.63854" lon="5.18654">
        <ele>1265</ele>
        <time>2026-05-25T12:41:22.000Z</time>
      </trkpt>
      <trkpt lat="44.63853" lon="5.18654">
        <ele>1265</ele>
        <time>2026-05-25T12:41:23.000Z</time>
      </trkpt>
      <trkpt lat="44.63852" lon="5.18654">
        <ele>1264</ele>
        <time>2026-05-25T12:41:24.000Z</time>
      </trkpt>
      <trkpt lat="44.63851" lon="5.18655">
        <ele>1264</ele>
        <time>2026-05-25T12:41:25.000Z</time>
      </trkpt>
      <trkpt lat="44.6385" lon="5.18655">
        <ele>1263</ele>
        <time>2026-05-25T12:41:26.000Z</time>
      </trkpt>
      <trkpt lat="44.63848" lon="5.18657">
        <ele>1263</ele>
        <time>2026-05-25T12:41:27.000Z</time>
      </trkpt>
      <trkpt lat="44.63846" lon="5.18657">
        <ele>1263</ele>
        <time>2026-05-25T12:41:28.000Z</time>
      </trkpt>
      <trkpt lat="44.63846" lon="5.18657">
        <ele>1263</ele>
        <time>2026-05-25T12:41:29.000Z</time>
      </trkpt>
      <trkpt lat="44.63845" lon="5.18658">
        <ele>1263</ele>
        <time>2026-05-25T12:41:30.000Z</time>
      </trkpt>
      <trkpt lat="44.63844" lon="5.1866">
        <ele>1263</ele>
        <time>2026-05-25T12:41:31.000Z</time>
      </trkpt>
      <trkpt lat="44.63844" lon="5.1866">
        <ele>1264</ele>
        <time>2026-05-25T12:41:32.000Z</time>
      </trkpt>
      <trkpt lat="44.63845" lon="5.18663">
        <ele>1267</ele>
        <time>2026-05-25T12:41:33.000Z</time>
      </trkpt>
      <trkpt lat="44.63846" lon="5.18663">
        <ele>1269</ele>
        <time>2026-05-25T12:41:34.000Z</time>
      </trkpt>
      <trkpt lat="44.63845" lon="5.18662">
        <ele>1271</ele>
        <time>2026-05-25T12:41:35.000Z</time>
      </trkpt>
      <trkpt lat="44.63844" lon="5.18662">
        <ele>1272</ele>
        <time>2026-05-25T12:41:36.000Z</time>
      </trkpt>
      <trkpt lat="44.63844" lon="5.18663">
        <ele>1271</ele>
        <time>2026-05-25T12:41:37.000Z</time>
      </trkpt>
      <trkpt lat="44.63844" lon="5.18663">
        <ele>1270</ele>
        <time>2026-05-25T12:41:38.000Z</time>
      </trkpt>
      <trkpt lat="44.63843" lon="5.18663">
        <ele>1269</ele>
        <time>2026-05-25T12:41:39.000Z</time>
      </trkpt>
      <trkpt lat="44.63841" lon="5.18665">
        <ele>1269</ele>
        <time>2026-05-25T12:41:40.000Z</time>
      </trkpt>
      <trkpt lat="44.6384" lon="5.18665">
        <ele>1269</ele>
        <time>2026-05-25T12:41:41.000Z</time>
      </trkpt>
      <trkpt lat="44.63839" lon="5.18666">
        <ele>1267</ele>
        <time>2026-05-25T12:41:42.000Z</time>
      </trkpt>
      <trkpt lat="44.63838" lon="5.18666">
        <ele>1267</ele>
        <time>2026-05-25T12:41:43.000Z</time>
      </trkpt>
      <trkpt lat="44.63837" lon="5.18666">
        <ele>1267</ele>
        <time>2026-05-25T12:41:44.000Z</time>
      </trkpt>
      <trkpt lat="44.63836" lon="5.18667">
        <ele>1267</ele>
        <time>2026-05-25T12:41:45.000Z</time>
      </trkpt>
      <trkpt lat="44.63835" lon="5.18668">
        <ele>1266</ele>
        <time>2026-05-25T12:41:46.000Z</time>
      </trkpt>
      <trkpt lat="44.63834" lon="5.18669">
        <ele>1267</ele>
        <time>2026-05-25T12:41:47.000Z</time>
      </trkpt>
      <trkpt lat="44.63832" lon="5.18669">
        <ele>1267</ele>
        <time>2026-05-25T12:41:48.000Z</time>
      </trkpt>
      <trkpt lat="44.63831" lon="5.1867">
        <ele>1267</ele>
        <time>2026-05-25T12:41:49.000Z</time>
      </trkpt>
      <trkpt lat="44.6383" lon="5.18672">
        <ele>1267</ele>
        <time>2026-05-25T12:41:50.000Z</time>
      </trkpt>
      <trkpt lat="44.6383" lon="5.18673">
        <ele>1268</ele>
        <time>2026-05-25T12:41:51.000Z</time>
      </trkpt>
      <trkpt lat="44.63829" lon="5.18674">
        <ele>1269</ele>
        <time>2026-05-25T12:41:52.000Z</time>
      </trkpt>
      <trkpt lat="44.63828" lon="5.18676">
        <ele>1269</ele>
        <time>2026-05-25T12:41:53.000Z</time>
      </trkpt>
      <trkpt lat="44.63827" lon="5.18677">
        <ele>1269</ele>
        <time>2026-05-25T12:41:54.000Z</time>
      </trkpt>
      <trkpt lat="44.63826" lon="5.18678">
        <ele>1269</ele>
        <time>2026-05-25T12:41:55.000Z</time>
      </trkpt>
      <trkpt lat="44.63825" lon="5.18678">
        <ele>1269</ele>
        <time>2026-05-25T12:41:56.000Z</time>
      </trkpt>
      <trkpt lat="44.63824" lon="5.18679">
        <ele>1269</ele>
        <time>2026-05-25T12:41:57.000Z</time>
      </trkpt>
      <trkpt lat="44.63823" lon="5.1868">
        <ele>1269</ele>
        <time>2026-05-25T12:41:58.000Z</time>
      </trkpt>
      <trkpt lat="44.63823" lon="5.18681">
        <ele>1270</ele>
        <time>2026-05-25T12:41:59.000Z</time>
      </trkpt>
      <trkpt lat="44.63821" lon="5.18683">
        <ele>1270</ele>
        <time>2026-05-25T12:42:00.000Z</time>
      </trkpt>
      <trkpt lat="44.6382" lon="5.18684">
        <ele>1270</ele>
        <time>2026-05-25T12:42:01.000Z</time>
      </trkpt>
      <trkpt lat="44.63819" lon="5.18685">
        <ele>1271</ele>
        <time>2026-05-25T12:42:02.000Z</time>
      </trkpt>
      <trkpt lat="44.63818" lon="5.18686">
        <ele>1270</ele>
        <time>2026-05-25T12:42:03.000Z</time>
      </trkpt>
      <trkpt lat="44.63817" lon="5.18687">
        <ele>1270</ele>
        <time>2026-05-25T12:42:04.000Z</time>
      </trkpt>
      <trkpt lat="44.63817" lon="5.18688">
        <ele>1270</ele>
        <time>2026-05-25T12:42:05.000Z</time>
      </trkpt>
      <trkpt lat="44.63816" lon="5.18689">
        <ele>1270</ele>
        <time>2026-05-25T12:42:06.000Z</time>
      </trkpt>
      <trkpt lat="44.63816" lon="5.1869">
        <ele>1270</ele>
        <time>2026-05-25T12:42:07.000Z</time>
      </trkpt>
      <trkpt lat="44.63815" lon="5.18691">
        <ele>1270</ele>
        <time>2026-05-25T12:42:08.000Z</time>
      </trkpt>
      <trkpt lat="44.63814" lon="5.18692">
        <ele>1270</ele>
        <time>2026-05-25T12:42:09.000Z</time>
      </trkpt>
      <trkpt lat="44.63813" lon="5.18693">
        <ele>1270</ele>
        <time>2026-05-25T12:42:10.000Z</time>
      </trkpt>
      <trkpt lat="44.63812" lon="5.18694">
        <ele>1270</ele>
        <time>2026-05-25T12:42:11.000Z</time>
      </trkpt>
      <trkpt lat="44.63811" lon="5.18694">
        <ele>1270</ele>
        <time>2026-05-25T12:42:12.000Z</time>
      </trkpt>
      <trkpt lat="44.6381" lon="5.18695">
        <ele>1270</ele>
        <time>2026-05-25T12:42:13.000Z</time>
      </trkpt>
      <trkpt lat="44.6381" lon="5.18696">
        <ele>1270</ele>
        <time>2026-05-25T12:42:14.000Z</time>
      </trkpt>
      <trkpt lat="44.63809" lon="5.18697">
        <ele>1270</ele>
        <time>2026-05-25T12:42:15.000Z</time>
      </trkpt>
      <trkpt lat="44.63809" lon="5.18697">
        <ele>1270</ele>
        <time>2026-05-25T12:42:16.000Z</time>
      </trkpt>
      <trkpt lat="44.63808" lon="5.18699">
        <ele>1269</ele>
        <time>2026-05-25T12:42:17.000Z</time>
      </trkpt>
      <trkpt lat="44.63807" lon="5.187">
        <ele>1269</ele>
        <time>2026-05-25T12:42:18.000Z</time>
      </trkpt>
      <trkpt lat="44.63806" lon="5.18702">
        <ele>1269</ele>
        <time>2026-05-25T12:42:19.000Z</time>
      </trkpt>
      <trkpt lat="44.63805" lon="5.18703">
        <ele>1269</ele>
        <time>2026-05-25T12:42:20.000Z</time>
      </trkpt>
      <trkpt lat="44.63804" lon="5.18705">
        <ele>1270</ele>
        <time>2026-05-25T12:42:21.000Z</time>
      </trkpt>
      <trkpt lat="44.63804" lon="5.18706">
        <ele>1270</ele>
        <time>2026-05-25T12:42:22.000Z</time>
      </trkpt>
      <trkpt lat="44.63804" lon="5.18707">
        <ele>1269</ele>
        <time>2026-05-25T12:42:23.000Z</time>
      </trkpt>
      <trkpt lat="44.63803" lon="5.18708">
        <ele>1270</ele>
        <time>2026-05-25T12:42:24.000Z</time>
      </trkpt>
      <trkpt lat="44.63803" lon="5.18709">
        <ele>1270</ele>
        <time>2026-05-25T12:42:25.000Z</time>
      </trkpt>
      <trkpt lat="44.63802" lon="5.1871">
        <ele>1270</ele>
        <time>2026-05-25T12:42:26.000Z</time>
      </trkpt>
      <trkpt lat="44.63801" lon="5.18712">
        <ele>1270</ele>
        <time>2026-05-25T12:42:27.000Z</time>
      </trkpt>
      <trkpt lat="44.638" lon="5.18713">
        <ele>1269</ele>
        <time>2026-05-25T12:42:28.000Z</time>
      </trkpt>
      <trkpt lat="44.63799" lon="5.18714">
        <ele>1269</ele>
        <time>2026-05-25T12:42:29.000Z</time>
      </trkpt>
      <trkpt lat="44.63799" lon="5.18715">
        <ele>1268</ele>
        <time>2026-05-25T12:42:30.000Z</time>
      </trkpt>
      <trkpt lat="44.63798" lon="5.18716">
        <ele>1268</ele>
        <time>2026-05-25T12:42:31.000Z</time>
      </trkpt>
      <trkpt lat="44.63797" lon="5.18717">
        <ele>1268</ele>
        <time>2026-05-25T12:42:32.000Z</time>
      </trkpt>
      <trkpt lat="44.63797" lon="5.18719">
        <ele>1268</ele>
        <time>2026-05-25T12:42:33.000Z</time>
      </trkpt>
      <trkpt lat="44.63796" lon="5.18719">
        <ele>1268</ele>
        <time>2026-05-25T12:42:34.000Z</time>
      </trkpt>
      <trkpt lat="44.63795" lon="5.18721">
        <ele>1269</ele>
        <time>2026-05-25T12:42:35.000Z</time>
      </trkpt>
      <trkpt lat="44.63794" lon="5.18721">
        <ele>1269</ele>
        <time>2026-05-25T12:42:36.000Z</time>
      </trkpt>
      <trkpt lat="44.63793" lon="5.18723">
        <ele>1270</ele>
        <time>2026-05-25T12:42:37.000Z</time>
      </trkpt>
      <trkpt lat="44.63792" lon="5.18724">
        <ele>1270</ele>
        <time>2026-05-25T12:42:38.000Z</time>
      </trkpt>
      <trkpt lat="44.63792" lon="5.18725">
        <ele>1270</ele>
        <time>2026-05-25T12:42:39.000Z</time>
      </trkpt>
      <trkpt lat="44.63791" lon="5.18726">
        <ele>1270</ele>
        <time>2026-05-25T12:42:40.000Z</time>
      </trkpt>
      <trkpt lat="44.6379" lon="5.18727">
        <ele>1270</ele>
        <time>2026-05-25T12:42:41.000Z</time>
      </trkpt>
      <trkpt lat="44.6379" lon="5.18729">
        <ele>1270</ele>
        <time>2026-05-25T12:42:42.000Z</time>
      </trkpt>
      <trkpt lat="44.6379" lon="5.18729">
        <ele>1271</ele>
        <time>2026-05-25T12:42:43.000Z</time>
      </trkpt>
      <trkpt lat="44.6379" lon="5.18728">
        <ele>1271</ele>
        <time>2026-05-25T12:42:44.000Z</time>
      </trkpt>
      <trkpt lat="44.63791" lon="5.18728">
        <ele>1271</ele>
        <time>2026-05-25T12:42:45.000Z</time>
      </trkpt>
      <trkpt lat="44.63791" lon="5.18727">
        <ele>1271</ele>
        <time>2026-05-25T12:42:46.000Z</time>
      </trkpt>
      <trkpt lat="44.6379" lon="5.18728">
        <ele>1271</ele>
        <time>2026-05-25T12:42:47.000Z</time>
      </trkpt>
      <trkpt lat="44.6379" lon="5.1873">
        <ele>1271</ele>
        <time>2026-05-25T12:42:48.000Z</time>
      </trkpt>
      <trkpt lat="44.63789" lon="5.18731">
        <ele>1271</ele>
        <time>2026-05-25T12:42:49.000Z</time>
      </trkpt>
      <trkpt lat="44.63788" lon="5.18732">
        <ele>1271</ele>
        <time>2026-05-25T12:42:50.000Z</time>
      </trkpt>
      <trkpt lat="44.63788" lon="5.18734">
        <ele>1271</ele>
        <time>2026-05-25T12:42:51.000Z</time>
      </trkpt>
      <trkpt lat="44.63787" lon="5.18735">
        <ele>1271</ele>
        <time>2026-05-25T12:42:52.000Z</time>
      </trkpt>
      <trkpt lat="44.63786" lon="5.18736">
        <ele>1271</ele>
        <time>2026-05-25T12:42:53.000Z</time>
      </trkpt>
      <trkpt lat="44.63785" lon="5.18737">
        <ele>1272</ele>
        <time>2026-05-25T12:42:54.000Z</time>
      </trkpt>
      <trkpt lat="44.63785" lon="5.18739">
        <ele>1272</ele>
        <time>2026-05-25T12:42:55.000Z</time>
      </trkpt>
      <trkpt lat="44.63784" lon="5.18741">
        <ele>1272</ele>
        <time>2026-05-25T12:42:56.000Z</time>
      </trkpt>
      <trkpt lat="44.63782" lon="5.18744">
        <ele>1271</ele>
        <time>2026-05-25T12:42:57.000Z</time>
      </trkpt>
      <trkpt lat="44.6378" lon="5.18747">
        <ele>1270</ele>
        <time>2026-05-25T12:42:58.000Z</time>
      </trkpt>
      <trkpt lat="44.63778" lon="5.18751">
        <ele>1270</ele>
        <time>2026-05-25T12:42:59.000Z</time>
      </trkpt>
      <trkpt lat="44.63777" lon="5.18753">
        <ele>1269</ele>
        <time>2026-05-25T12:43:00.000Z</time>
      </trkpt>
      <trkpt lat="44.63776" lon="5.18754">
        <ele>1269</ele>
        <time>2026-05-25T12:43:01.000Z</time>
      </trkpt>
      <trkpt lat="44.63775" lon="5.18756">
        <ele>1269</ele>
        <time>2026-05-25T12:43:02.000Z</time>
      </trkpt>
      <trkpt lat="44.63774" lon="5.18757">
        <ele>1269</ele>
        <time>2026-05-25T12:43:03.000Z</time>
      </trkpt>
      <trkpt lat="44.63773" lon="5.18759">
        <ele>1269</ele>
        <time>2026-05-25T12:43:04.000Z</time>
      </trkpt>
      <trkpt lat="44.63773" lon="5.18761">
        <ele>1270</ele>
        <time>2026-05-25T12:43:05.000Z</time>
      </trkpt>
      <trkpt lat="44.63772" lon="5.18763">
        <ele>1270</ele>
        <time>2026-05-25T12:43:06.000Z</time>
      </trkpt>
      <trkpt lat="44.63771" lon="5.18765">
        <ele>1269</ele>
        <time>2026-05-25T12:43:07.000Z</time>
      </trkpt>
      <trkpt lat="44.6377" lon="5.18767">
        <ele>1270</ele>
        <time>2026-05-25T12:43:08.000Z</time>
      </trkpt>
      <trkpt lat="44.63769" lon="5.18768">
        <ele>1270</ele>
        <time>2026-05-25T12:43:09.000Z</time>
      </trkpt>
      <trkpt lat="44.63769" lon="5.18769">
        <ele>1269</ele>
        <time>2026-05-25T12:43:10.000Z</time>
      </trkpt>
      <trkpt lat="44.63768" lon="5.18771">
        <ele>1268</ele>
        <time>2026-05-25T12:43:11.000Z</time>
      </trkpt>
      <trkpt lat="44.63767" lon="5.18772">
        <ele>1268</ele>
        <time>2026-05-25T12:43:12.000Z</time>
      </trkpt>
      <trkpt lat="44.63767" lon="5.18773">
        <ele>1268</ele>
        <time>2026-05-25T12:43:13.000Z</time>
      </trkpt>
      <trkpt lat="44.63767" lon="5.18774">
        <ele>1268</ele>
        <time>2026-05-25T12:43:14.000Z</time>
      </trkpt>
      <trkpt lat="44.63765" lon="5.18776">
        <ele>1268</ele>
        <time>2026-05-25T12:43:15.000Z</time>
      </trkpt>
      <trkpt lat="44.63765" lon="5.18776">
        <ele>1268</ele>
        <time>2026-05-25T12:43:16.000Z</time>
      </trkpt>
      <trkpt lat="44.63764" lon="5.18777">
        <ele>1269</ele>
        <time>2026-05-25T12:43:17.000Z</time>
      </trkpt>
      <trkpt lat="44.63763" lon="5.18778">
        <ele>1269</ele>
        <time>2026-05-25T12:43:18.000Z</time>
      </trkpt>
      <trkpt lat="44.63762" lon="5.18779">
        <ele>1270</ele>
        <time>2026-05-25T12:43:19.000Z</time>
      </trkpt>
      <trkpt lat="44.63761" lon="5.18781">
        <ele>1270</ele>
        <time>2026-05-25T12:43:20.000Z</time>
      </trkpt>
      <trkpt lat="44.63761" lon="5.18782">
        <ele>1270</ele>
        <time>2026-05-25T12:43:21.000Z</time>
      </trkpt>
      <trkpt lat="44.6376" lon="5.18783">
        <ele>1269</ele>
        <time>2026-05-25T12:43:22.000Z</time>
      </trkpt>
      <trkpt lat="44.63759" lon="5.18785">
        <ele>1268</ele>
        <time>2026-05-25T12:43:23.000Z</time>
      </trkpt>
      <trkpt lat="44.63758" lon="5.18787">
        <ele>1268</ele>
        <time>2026-05-25T12:43:24.000Z</time>
      </trkpt>
      <trkpt lat="44.63757" lon="5.18788">
        <ele>1267</ele>
        <time>2026-05-25T12:43:25.000Z</time>
      </trkpt>
      <trkpt lat="44.63757" lon="5.18789">
        <ele>1268</ele>
        <time>2026-05-25T12:43:26.000Z</time>
      </trkpt>
      <trkpt lat="44.63756" lon="5.1879">
        <ele>1267</ele>
        <time>2026-05-25T12:43:27.000Z</time>
      </trkpt>
      <trkpt lat="44.63756" lon="5.18791">
        <ele>1267</ele>
        <time>2026-05-25T12:43:28.000Z</time>
      </trkpt>
      <trkpt lat="44.63756" lon="5.18792">
        <ele>1267</ele>
        <time>2026-05-25T12:43:29.000Z</time>
      </trkpt>
      <trkpt lat="44.63755" lon="5.18794">
        <ele>1267</ele>
        <time>2026-05-25T12:43:30.000Z</time>
      </trkpt>
      <trkpt lat="44.63754" lon="5.18796">
        <ele>1267</ele>
        <time>2026-05-25T12:43:31.000Z</time>
      </trkpt>
      <trkpt lat="44.63753" lon="5.18797">
        <ele>1267</ele>
        <time>2026-05-25T12:43:32.000Z</time>
      </trkpt>
      <trkpt lat="44.63752" lon="5.18798">
        <ele>1267</ele>
        <time>2026-05-25T12:43:33.000Z</time>
      </trkpt>
      <trkpt lat="44.63752" lon="5.18798">
        <ele>1267</ele>
        <time>2026-05-25T12:43:34.000Z</time>
      </trkpt>
      <trkpt lat="44.63751" lon="5.188">
        <ele>1268</ele>
        <time>2026-05-25T12:43:35.000Z</time>
      </trkpt>
      <trkpt lat="44.63751" lon="5.18801">
        <ele>1268</ele>
        <time>2026-05-25T12:43:36.000Z</time>
      </trkpt>
      <trkpt lat="44.63751" lon="5.18803">
        <ele>1268</ele>
        <time>2026-05-25T12:43:37.000Z</time>
      </trkpt>
      <trkpt lat="44.6375" lon="5.18804">
        <ele>1268</ele>
        <time>2026-05-25T12:43:38.000Z</time>
      </trkpt>
      <trkpt lat="44.63749" lon="5.18805">
        <ele>1268</ele>
        <time>2026-05-25T12:43:39.000Z</time>
      </trkpt>
      <trkpt lat="44.63748" lon="5.18806">
        <ele>1267</ele>
        <time>2026-05-25T12:43:40.000Z</time>
      </trkpt>
      <trkpt lat="44.63748" lon="5.18807">
        <ele>1267</ele>
        <time>2026-05-25T12:43:41.000Z</time>
      </trkpt>
      <trkpt lat="44.63747" lon="5.18809">
        <ele>1268</ele>
        <time>2026-05-25T12:43:42.000Z</time>
      </trkpt>
      <trkpt lat="44.63746" lon="5.1881">
        <ele>1268</ele>
        <time>2026-05-25T12:43:43.000Z</time>
      </trkpt>
      <trkpt lat="44.63745" lon="5.18812">
        <ele>1267</ele>
        <time>2026-05-25T12:43:44.000Z</time>
      </trkpt>
      <trkpt lat="44.63744" lon="5.18812">
        <ele>1267</ele>
        <time>2026-05-25T12:43:45.000Z</time>
      </trkpt>
      <trkpt lat="44.63743" lon="5.18814">
        <ele>1267</ele>
        <time>2026-05-25T12:43:46.000Z</time>
      </trkpt>
      <trkpt lat="44.63743" lon="5.18815">
        <ele>1266</ele>
        <time>2026-05-25T12:43:47.000Z</time>
      </trkpt>
      <trkpt lat="44.63742" lon="5.18817">
        <ele>1267</ele>
        <time>2026-05-25T12:43:48.000Z</time>
      </trkpt>
      <trkpt lat="44.6374" lon="5.1882">
        <ele>1267</ele>
        <time>2026-05-25T12:43:49.000Z</time>
      </trkpt>
      <trkpt lat="44.6374" lon="5.18821">
        <ele>1266</ele>
        <time>2026-05-25T12:43:50.000Z</time>
      </trkpt>
      <trkpt lat="44.6374" lon="5.18821">
        <ele>1266</ele>
        <time>2026-05-25T12:43:51.000Z</time>
      </trkpt>
      <trkpt lat="44.6374" lon="5.18823">
        <ele>1265</ele>
        <time>2026-05-25T12:43:52.000Z</time>
      </trkpt>
      <trkpt lat="44.63739" lon="5.18825">
        <ele>1267</ele>
        <time>2026-05-25T12:43:53.000Z</time>
      </trkpt>
      <trkpt lat="44.63738" lon="5.18826">
        <ele>1266</ele>
        <time>2026-05-25T12:43:54.000Z</time>
      </trkpt>
      <trkpt lat="44.63738" lon="5.18827">
        <ele>1267</ele>
        <time>2026-05-25T12:43:55.000Z</time>
      </trkpt>
      <trkpt lat="44.63737" lon="5.18829">
        <ele>1267</ele>
        <time>2026-05-25T12:43:56.000Z</time>
      </trkpt>
      <trkpt lat="44.63736" lon="5.18831">
        <ele>1267</ele>
        <time>2026-05-25T12:43:57.000Z</time>
      </trkpt>
      <trkpt lat="44.63736" lon="5.18832">
        <ele>1267</ele>
        <time>2026-05-25T12:43:58.000Z</time>
      </trkpt>
      <trkpt lat="44.63735" lon="5.18834">
        <ele>1267</ele>
        <time>2026-05-25T12:43:59.000Z</time>
      </trkpt>
      <trkpt lat="44.63734" lon="5.18834">
        <ele>1266</ele>
        <time>2026-05-25T12:44:00.000Z</time>
      </trkpt>
      <trkpt lat="44.63733" lon="5.18835">
        <ele>1266</ele>
        <time>2026-05-25T12:44:01.000Z</time>
      </trkpt>
      <trkpt lat="44.63732" lon="5.18836">
        <ele>1266</ele>
        <time>2026-05-25T12:44:02.000Z</time>
      </trkpt>
      <trkpt lat="44.63731" lon="5.18837">
        <ele>1265</ele>
        <time>2026-05-25T12:44:03.000Z</time>
      </trkpt>
      <trkpt lat="44.6373" lon="5.18838">
        <ele>1265</ele>
        <time>2026-05-25T12:44:04.000Z</time>
      </trkpt>
      <trkpt lat="44.6373" lon="5.1884">
        <ele>1264</ele>
        <time>2026-05-25T12:44:05.000Z</time>
      </trkpt>
      <trkpt lat="44.63729" lon="5.18841">
        <ele>1264</ele>
        <time>2026-05-25T12:44:06.000Z</time>
      </trkpt>
      <trkpt lat="44.63728" lon="5.18842">
        <ele>1265</ele>
        <time>2026-05-25T12:44:07.000Z</time>
      </trkpt>
      <trkpt lat="44.63727" lon="5.18843">
        <ele>1265</ele>
        <time>2026-05-25T12:44:08.000Z</time>
      </trkpt>
      <trkpt lat="44.63727" lon="5.18844">
        <ele>1265</ele>
        <time>2026-05-25T12:44:09.000Z</time>
      </trkpt>
      <trkpt lat="44.63726" lon="5.18846">
        <ele>1266</ele>
        <time>2026-05-25T12:44:10.000Z</time>
      </trkpt>
      <trkpt lat="44.63725" lon="5.18847">
        <ele>1266</ele>
        <time>2026-05-25T12:44:11.000Z</time>
      </trkpt>
      <trkpt lat="44.63724" lon="5.18848">
        <ele>1265</ele>
        <time>2026-05-25T12:44:12.000Z</time>
      </trkpt>
      <trkpt lat="44.63723" lon="5.18849">
        <ele>1265</ele>
        <time>2026-05-25T12:44:13.000Z</time>
      </trkpt>
      <trkpt lat="44.63722" lon="5.18849">
        <ele>1265</ele>
        <time>2026-05-25T12:44:14.000Z</time>
      </trkpt>
      <trkpt lat="44.63721" lon="5.18851">
        <ele>1265</ele>
        <time>2026-05-25T12:44:15.000Z</time>
      </trkpt>
      <trkpt lat="44.6372" lon="5.18852">
        <ele>1265</ele>
        <time>2026-05-25T12:44:16.000Z</time>
      </trkpt>
      <trkpt lat="44.6372" lon="5.18854">
        <ele>1265</ele>
        <time>2026-05-25T12:44:17.000Z</time>
      </trkpt>
      <trkpt lat="44.63719" lon="5.18856">
        <ele>1265</ele>
        <time>2026-05-25T12:44:18.000Z</time>
      </trkpt>
      <trkpt lat="44.63718" lon="5.18858">
        <ele>1266</ele>
        <time>2026-05-25T12:44:19.000Z</time>
      </trkpt>
      <trkpt lat="44.63717" lon="5.18859">
        <ele>1266</ele>
        <time>2026-05-25T12:44:20.000Z</time>
      </trkpt>
      <trkpt lat="44.63716" lon="5.1886">
        <ele>1265</ele>
        <time>2026-05-25T12:44:21.000Z</time>
      </trkpt>
      <trkpt lat="44.63715" lon="5.18861">
        <ele>1265</ele>
        <time>2026-05-25T12:44:22.000Z</time>
      </trkpt>
      <trkpt lat="44.63714" lon="5.18862">
        <ele>1266</ele>
        <time>2026-05-25T12:44:23.000Z</time>
      </trkpt>
      <trkpt lat="44.63713" lon="5.18864">
        <ele>1266</ele>
        <time>2026-05-25T12:44:24.000Z</time>
      </trkpt>
      <trkpt lat="44.63712" lon="5.18865">
        <ele>1266</ele>
        <time>2026-05-25T12:44:25.000Z</time>
      </trkpt>
      <trkpt lat="44.63712" lon="5.18867">
        <ele>1266</ele>
        <time>2026-05-25T12:44:26.000Z</time>
      </trkpt>
      <trkpt lat="44.63712" lon="5.18869">
        <ele>1265</ele>
        <time>2026-05-25T12:44:27.000Z</time>
      </trkpt>
      <trkpt lat="44.63711" lon="5.1887">
        <ele>1265</ele>
        <time>2026-05-25T12:44:28.000Z</time>
      </trkpt>
      <trkpt lat="44.63711" lon="5.18871">
        <ele>1265</ele>
        <time>2026-05-25T12:44:29.000Z</time>
      </trkpt>
      <trkpt lat="44.6371" lon="5.18874">
        <ele>1265</ele>
        <time>2026-05-25T12:44:30.000Z</time>
      </trkpt>
      <trkpt lat="44.63709" lon="5.18875">
        <ele>1265</ele>
        <time>2026-05-25T12:44:31.000Z</time>
      </trkpt>
      <trkpt lat="44.63709" lon="5.18875">
        <ele>1266</ele>
        <time>2026-05-25T12:44:32.000Z</time>
      </trkpt>
      <trkpt lat="44.63707" lon="5.18876">
        <ele>1266</ele>
        <time>2026-05-25T12:44:33.000Z</time>
      </trkpt>
      <trkpt lat="44.63706" lon="5.18877">
        <ele>1265</ele>
        <time>2026-05-25T12:44:34.000Z</time>
      </trkpt>
      <trkpt lat="44.63706" lon="5.18877">
        <ele>1265</ele>
        <time>2026-05-25T12:44:35.000Z</time>
      </trkpt>
      <trkpt lat="44.63705" lon="5.18878">
        <ele>1265</ele>
        <time>2026-05-25T12:44:36.000Z</time>
      </trkpt>
      <trkpt lat="44.63704" lon="5.18879">
        <ele>1265</ele>
        <time>2026-05-25T12:44:37.000Z</time>
      </trkpt>
      <trkpt lat="44.63703" lon="5.1888">
        <ele>1265</ele>
        <time>2026-05-25T12:44:38.000Z</time>
      </trkpt>
      <trkpt lat="44.63702" lon="5.18881">
        <ele>1265</ele>
        <time>2026-05-25T12:44:39.000Z</time>
      </trkpt>
      <trkpt lat="44.63701" lon="5.18882">
        <ele>1265</ele>
        <time>2026-05-25T12:44:40.000Z</time>
      </trkpt>
      <trkpt lat="44.63699" lon="5.18882">
        <ele>1264</ele>
        <time>2026-05-25T12:44:41.000Z</time>
      </trkpt>
      <trkpt lat="44.63698" lon="5.18883">
        <ele>1263</ele>
        <time>2026-05-25T12:44:42.000Z</time>
      </trkpt>
      <trkpt lat="44.63697" lon="5.18885">
        <ele>1264</ele>
        <time>2026-05-25T12:44:43.000Z</time>
      </trkpt>
      <trkpt lat="44.63696" lon="5.18885">
        <ele>1264</ele>
        <time>2026-05-25T12:44:44.000Z</time>
      </trkpt>
      <trkpt lat="44.63696" lon="5.18886">
        <ele>1263</ele>
        <time>2026-05-25T12:44:45.000Z</time>
      </trkpt>
      <trkpt lat="44.63695" lon="5.18887">
        <ele>1264</ele>
        <time>2026-05-25T12:44:46.000Z</time>
      </trkpt>
      <trkpt lat="44.63694" lon="5.18888">
        <ele>1264</ele>
        <time>2026-05-25T12:44:47.000Z</time>
      </trkpt>
      <trkpt lat="44.63693" lon="5.18889">
        <ele>1265</ele>
        <time>2026-05-25T12:44:48.000Z</time>
      </trkpt>
      <trkpt lat="44.63692" lon="5.1889">
        <ele>1265</ele>
        <time>2026-05-25T12:44:49.000Z</time>
      </trkpt>
      <trkpt lat="44.63691" lon="5.18891">
        <ele>1265</ele>
        <time>2026-05-25T12:44:50.000Z</time>
      </trkpt>
      <trkpt lat="44.63689" lon="5.18893">
        <ele>1266</ele>
        <time>2026-05-25T12:44:51.000Z</time>
      </trkpt>
      <trkpt lat="44.63688" lon="5.18894">
        <ele>1266</ele>
        <time>2026-05-25T12:44:52.000Z</time>
      </trkpt>
      <trkpt lat="44.63687" lon="5.18895">
        <ele>1266</ele>
        <time>2026-05-25T12:44:53.000Z</time>
      </trkpt>
      <trkpt lat="44.63686" lon="5.18897">
        <ele>1265</ele>
        <time>2026-05-25T12:44:54.000Z</time>
      </trkpt>
      <trkpt lat="44.63685" lon="5.18899">
        <ele>1265</ele>
        <time>2026-05-25T12:44:55.000Z</time>
      </trkpt>
      <trkpt lat="44.63684" lon="5.189">
        <ele>1265</ele>
        <time>2026-05-25T12:44:56.000Z</time>
      </trkpt>
      <trkpt lat="44.63683" lon="5.18902">
        <ele>1265</ele>
        <time>2026-05-25T12:44:57.000Z</time>
      </trkpt>
      <trkpt lat="44.63682" lon="5.18904">
        <ele>1265</ele>
        <time>2026-05-25T12:44:58.000Z</time>
      </trkpt>
      <trkpt lat="44.63682" lon="5.18904">
        <ele>1265</ele>
        <time>2026-05-25T12:44:59.000Z</time>
      </trkpt>
      <trkpt lat="44.63681" lon="5.18905">
        <ele>1264</ele>
        <time>2026-05-25T12:45:00.000Z</time>
      </trkpt>
      <trkpt lat="44.6368" lon="5.18906">
        <ele>1265</ele>
        <time>2026-05-25T12:45:01.000Z</time>
      </trkpt>
      <trkpt lat="44.6368" lon="5.18906">
        <ele>1266</ele>
        <time>2026-05-25T12:45:02.000Z</time>
      </trkpt>
      <trkpt lat="44.63679" lon="5.18908">
        <ele>1266</ele>
        <time>2026-05-25T12:45:03.000Z</time>
      </trkpt>
      <trkpt lat="44.63678" lon="5.1891">
        <ele>1265</ele>
        <time>2026-05-25T12:45:04.000Z</time>
      </trkpt>
      <trkpt lat="44.63677" lon="5.18912">
        <ele>1265</ele>
        <time>2026-05-25T12:45:05.000Z</time>
      </trkpt>
      <trkpt lat="44.63676" lon="5.18914">
        <ele>1265</ele>
        <time>2026-05-25T12:45:06.000Z</time>
      </trkpt>
      <trkpt lat="44.63675" lon="5.18916">
        <ele>1266</ele>
        <time>2026-05-25T12:45:07.000Z</time>
      </trkpt>
      <trkpt lat="44.63675" lon="5.18917">
        <ele>1267</ele>
        <time>2026-05-25T12:45:08.000Z</time>
      </trkpt>
      <trkpt lat="44.63674" lon="5.18919">
        <ele>1267</ele>
        <time>2026-05-25T12:45:09.000Z</time>
      </trkpt>
      <trkpt lat="44.63674" lon="5.18919">
        <ele>1266</ele>
        <time>2026-05-25T12:45:10.000Z</time>
      </trkpt>
      <trkpt lat="44.63673" lon="5.1892">
        <ele>1266</ele>
        <time>2026-05-25T12:45:11.000Z</time>
      </trkpt>
      <trkpt lat="44.63672" lon="5.18921">
        <ele>1266</ele>
        <time>2026-05-25T12:45:12.000Z</time>
      </trkpt>
      <trkpt lat="44.63671" lon="5.18922">
        <ele>1266</ele>
        <time>2026-05-25T12:45:13.000Z</time>
      </trkpt>
      <trkpt lat="44.6367" lon="5.18924">
        <ele>1266</ele>
        <time>2026-05-25T12:45:14.000Z</time>
      </trkpt>
      <trkpt lat="44.63669" lon="5.18924">
        <ele>1265</ele>
        <time>2026-05-25T12:45:15.000Z</time>
      </trkpt>
      <trkpt lat="44.63668" lon="5.18925">
        <ele>1264</ele>
        <time>2026-05-25T12:45:16.000Z</time>
      </trkpt>
      <trkpt lat="44.63668" lon="5.18926">
        <ele>1265</ele>
        <time>2026-05-25T12:45:17.000Z</time>
      </trkpt>
      <trkpt lat="44.63667" lon="5.18927">
        <ele>1264</ele>
        <time>2026-05-25T12:45:18.000Z</time>
      </trkpt>
      <trkpt lat="44.63666" lon="5.18927">
        <ele>1263</ele>
        <time>2026-05-25T12:45:19.000Z</time>
      </trkpt>
      <trkpt lat="44.63666" lon="5.18928">
        <ele>1263</ele>
        <time>2026-05-25T12:45:20.000Z</time>
      </trkpt>
      <trkpt lat="44.63665" lon="5.18929">
        <ele>1263</ele>
        <time>2026-05-25T12:45:21.000Z</time>
      </trkpt>
      <trkpt lat="44.63665" lon="5.18931">
        <ele>1263</ele>
        <time>2026-05-25T12:45:22.000Z</time>
      </trkpt>
      <trkpt lat="44.63664" lon="5.18934">
        <ele>1262</ele>
        <time>2026-05-25T12:45:23.000Z</time>
      </trkpt>
      <trkpt lat="44.63663" lon="5.18935">
        <ele>1262</ele>
        <time>2026-05-25T12:45:24.000Z</time>
      </trkpt>
      <trkpt lat="44.63662" lon="5.18937">
        <ele>1262</ele>
        <time>2026-05-25T12:45:25.000Z</time>
      </trkpt>
      <trkpt lat="44.63662" lon="5.18939">
        <ele>1263</ele>
        <time>2026-05-25T12:45:26.000Z</time>
      </trkpt>
      <trkpt lat="44.63661" lon="5.1894">
        <ele>1263</ele>
        <time>2026-05-25T12:45:27.000Z</time>
      </trkpt>
      <trkpt lat="44.6366" lon="5.18941">
        <ele>1265</ele>
        <time>2026-05-25T12:45:28.000Z</time>
      </trkpt>
      <trkpt lat="44.63659" lon="5.18942">
        <ele>1265</ele>
        <time>2026-05-25T12:45:29.000Z</time>
      </trkpt>
      <trkpt lat="44.63658" lon="5.18944">
        <ele>1266</ele>
        <time>2026-05-25T12:45:30.000Z</time>
      </trkpt>
      <trkpt lat="44.63657" lon="5.18945">
        <ele>1266</ele>
        <time>2026-05-25T12:45:31.000Z</time>
      </trkpt>
      <trkpt lat="44.63655" lon="5.18945">
        <ele>1266</ele>
        <time>2026-05-25T12:45:32.000Z</time>
      </trkpt>
      <trkpt lat="44.63655" lon="5.18946">
        <ele>1265</ele>
        <time>2026-05-25T12:45:33.000Z</time>
      </trkpt>
      <trkpt lat="44.63653" lon="5.18946">
        <ele>1266</ele>
        <time>2026-05-25T12:45:34.000Z</time>
      </trkpt>
      <trkpt lat="44.63652" lon="5.18947">
        <ele>1266</ele>
        <time>2026-05-25T12:45:35.000Z</time>
      </trkpt>
      <trkpt lat="44.6365" lon="5.18948">
        <ele>1266</ele>
        <time>2026-05-25T12:45:36.000Z</time>
      </trkpt>
      <trkpt lat="44.63649" lon="5.1895">
        <ele>1266</ele>
        <time>2026-05-25T12:45:37.000Z</time>
      </trkpt>
      <trkpt lat="44.63648" lon="5.18952">
        <ele>1267</ele>
        <time>2026-05-25T12:45:38.000Z</time>
      </trkpt>
      <trkpt lat="44.63648" lon="5.18952">
        <ele>1267</ele>
        <time>2026-05-25T12:45:39.000Z</time>
      </trkpt>
      <trkpt lat="44.63647" lon="5.18954">
        <ele>1266</ele>
        <time>2026-05-25T12:45:40.000Z</time>
      </trkpt>
      <trkpt lat="44.63646" lon="5.18956">
        <ele>1266</ele>
        <time>2026-05-25T12:45:41.000Z</time>
      </trkpt>
      <trkpt lat="44.63645" lon="5.18957">
        <ele>1265</ele>
        <time>2026-05-25T12:45:42.000Z</time>
      </trkpt>
      <trkpt lat="44.63644" lon="5.18958">
        <ele>1265</ele>
        <time>2026-05-25T12:45:43.000Z</time>
      </trkpt>
      <trkpt lat="44.63643" lon="5.1896">
        <ele>1265</ele>
        <time>2026-05-25T12:45:44.000Z</time>
      </trkpt>
      <trkpt lat="44.63642" lon="5.18961">
        <ele>1265</ele>
        <time>2026-05-25T12:45:45.000Z</time>
      </trkpt>
      <trkpt lat="44.63641" lon="5.18963">
        <ele>1264</ele>
        <time>2026-05-25T12:45:46.000Z</time>
      </trkpt>
      <trkpt lat="44.6364" lon="5.18964">
        <ele>1264</ele>
        <time>2026-05-25T12:45:47.000Z</time>
      </trkpt>
      <trkpt lat="44.63638" lon="5.18965">
        <ele>1264</ele>
        <time>2026-05-25T12:45:48.000Z</time>
      </trkpt>
      <trkpt lat="44.63638" lon="5.18967">
        <ele>1264</ele>
        <time>2026-05-25T12:45:49.000Z</time>
      </trkpt>
      <trkpt lat="44.63637" lon="5.18968">
        <ele>1263</ele>
        <time>2026-05-25T12:45:50.000Z</time>
      </trkpt>
      <trkpt lat="44.63636" lon="5.18969">
        <ele>1263</ele>
        <time>2026-05-25T12:45:51.000Z</time>
      </trkpt>
      <trkpt lat="44.63635" lon="5.18971">
        <ele>1263</ele>
        <time>2026-05-25T12:45:52.000Z</time>
      </trkpt>
      <trkpt lat="44.63635" lon="5.18972">
        <ele>1262</ele>
        <time>2026-05-25T12:45:53.000Z</time>
      </trkpt>
      <trkpt lat="44.63634" lon="5.18973">
        <ele>1262</ele>
        <time>2026-05-25T12:45:54.000Z</time>
      </trkpt>
      <trkpt lat="44.63634" lon="5.18976">
        <ele>1262</ele>
        <time>2026-05-25T12:45:55.000Z</time>
      </trkpt>
      <trkpt lat="44.63633" lon="5.18977">
        <ele>1262</ele>
        <time>2026-05-25T12:45:56.000Z</time>
      </trkpt>
      <trkpt lat="44.63632" lon="5.18978">
        <ele>1262</ele>
        <time>2026-05-25T12:45:57.000Z</time>
      </trkpt>
      <trkpt lat="44.63632" lon="5.18978">
        <ele>1261</ele>
        <time>2026-05-25T12:45:58.000Z</time>
      </trkpt>
      <trkpt lat="44.63632" lon="5.18978">
        <ele>1263</ele>
        <time>2026-05-25T12:45:59.000Z</time>
      </trkpt>
      <trkpt lat="44.63632" lon="5.18978">
        <ele>1263</ele>
        <time>2026-05-25T12:46:00.000Z</time>
      </trkpt>
      <trkpt lat="44.63632" lon="5.18978">
        <ele>1263</ele>
        <time>2026-05-25T12:46:01.000Z</time>
      </trkpt>
      <trkpt lat="44.63632" lon="5.18978">
        <ele>1263</ele>
        <time>2026-05-25T12:46:02.000Z</time>
      </trkpt>
      <trkpt lat="44.63632" lon="5.18978">
        <ele>1263</ele>
        <time>2026-05-25T12:46:03.000Z</time>
      </trkpt>
      <trkpt lat="44.63632" lon="5.18978">
        <ele>1263</ele>
        <time>2026-05-25T12:46:04.000Z</time>
      </trkpt>
      <trkpt lat="44.63632" lon="5.18978">
        <ele>1263</ele>
        <time>2026-05-25T12:46:05.000Z</time>
      </trkpt>
      <trkpt lat="44.63632" lon="5.18978">
        <ele>1263</ele>
        <time>2026-05-25T12:46:06.000Z</time>
      </trkpt>
      <trkpt lat="44.63632" lon="5.18978">
        <ele>1263</ele>
        <time>2026-05-25T12:46:07.000Z</time>
      </trkpt>
      <trkpt lat="44.63632" lon="5.18978">
        <ele>1263</ele>
        <time>2026-05-25T12:46:08.000Z</time>
      </trkpt>
      <trkpt lat="44.63632" lon="5.18978">
        <ele>1263</ele>
        <time>2026-05-25T12:46:09.000Z</time>
      </trkpt>
      <trkpt lat="44.63632" lon="5.18978">
        <ele>1263</ele>
        <time>2026-05-25T12:46:10.000Z</time>
      </trkpt>
      <trkpt lat="44.63632" lon="5.18978">
        <ele>1263</ele>
        <time>2026-05-25T12:46:11.000Z</time>
      </trkpt>
      <trkpt lat="44.63632" lon="5.18978">
        <ele>1263</ele>
        <time>2026-05-25T12:46:12.000Z</time>
      </trkpt>
      <trkpt lat="44.63632" lon="5.18978">
        <ele>1263</ele>
        <time>2026-05-25T12:46:13.000Z</time>
      </trkpt>
      <trkpt lat="44.63632" lon="5.18978">
        <ele>1263</ele>
        <time>2026-05-25T12:46:14.000Z</time>
      </trkpt>
      <trkpt lat="44.63632" lon="5.18978">
        <ele>1263</ele>
        <time>2026-05-25T12:46:15.000Z</time>
      </trkpt>
      <trkpt lat="44.63632" lon="5.18978">
        <ele>1263</ele>
        <time>2026-05-25T12:46:16.000Z</time>
      </trkpt>
      <trkpt lat="44.63632" lon="5.18978">
        <ele>1263</ele>
        <time>2026-05-25T12:46:17.000Z</time>
      </trkpt>
      <trkpt lat="44.63632" lon="5.18978">
        <ele>1263</ele>
        <time>2026-05-25T12:46:18.000Z</time>
      </trkpt>
      <trkpt lat="44.63632" lon="5.18978">
        <ele>1263</ele>
        <time>2026-05-25T12:46:19.000Z</time>
      </trkpt>
      <trkpt lat="44.63632" lon="5.18978">
        <ele>1263</ele>
        <time>2026-05-25T12:46:20.000Z</time>
      </trkpt>
      <trkpt lat="44.63632" lon="5.18978">
        <ele>1263</ele>
        <time>2026-05-25T12:46:21.000Z</time>
      </trkpt>
      <trkpt lat="44.63632" lon="5.18978">
        <ele>1263</ele>
        <time>2026-05-25T12:46:22.000Z</time>
      </trkpt>
      <trkpt lat="44.63632" lon="5.18978">
        <ele>1263</ele>
        <time>2026-05-25T12:46:23.000Z</time>
      </trkpt>
      <trkpt lat="44.63632" lon="5.18978">
        <ele>1263</ele>
        <time>2026-05-25T12:46:24.000Z</time>
      </trkpt>
      <trkpt lat="44.63632" lon="5.18978">
        <ele>1263</ele>
        <time>2026-05-25T12:46:25.000Z</time>
      </trkpt>
      <trkpt lat="44.63634" lon="5.18978">
        <ele>1264</ele>
        <time>2026-05-25T12:46:26.000Z</time>
      </trkpt>
      <trkpt lat="44.63634" lon="5.18977">
        <ele>1264</ele>
        <time>2026-05-25T12:46:27.000Z</time>
      </trkpt>
      <trkpt lat="44.63634" lon="5.18977">
        <ele>1264</ele>
        <time>2026-05-25T12:46:28.000Z</time>
      </trkpt>
      <trkpt lat="44.63634" lon="5.18978">
        <ele>1265</ele>
        <time>2026-05-25T12:46:29.000Z</time>
      </trkpt>
      <trkpt lat="44.63634" lon="5.18978">
        <ele>1265</ele>
        <time>2026-05-25T12:46:30.000Z</time>
      </trkpt>
      <trkpt lat="44.63634" lon="5.18978">
        <ele>1265</ele>
        <time>2026-05-25T12:46:31.000Z</time>
      </trkpt>
      <trkpt lat="44.63634" lon="5.18978">
        <ele>1265</ele>
        <time>2026-05-25T12:46:32.000Z</time>
      </trkpt>
      <trkpt lat="44.63634" lon="5.18978">
        <ele>1265</ele>
        <time>2026-05-25T12:46:33.000Z</time>
      </trkpt>
      <trkpt lat="44.63634" lon="5.18979">
        <ele>1264</ele>
        <time>2026-05-25T12:46:34.000Z</time>
      </trkpt>
      <trkpt lat="44.63634" lon="5.1898">
        <ele>1264</ele>
        <time>2026-05-25T12:46:35.000Z</time>
      </trkpt>
      <trkpt lat="44.63634" lon="5.1898">
        <ele>1264</ele>
        <time>2026-05-25T12:46:36.000Z</time>
      </trkpt>
      <trkpt lat="44.63634" lon="5.1898">
        <ele>1264</ele>
        <time>2026-05-25T12:46:37.000Z</time>
      </trkpt>
      <trkpt lat="44.63634" lon="5.1898">
        <ele>1264</ele>
        <time>2026-05-25T12:46:38.000Z</time>
      </trkpt>
      <trkpt lat="44.63634" lon="5.1898">
        <ele>1264</ele>
        <time>2026-05-25T12:46:39.000Z</time>
      </trkpt>
      <trkpt lat="44.63634" lon="5.1898">
        <ele>1264</ele>
        <time>2026-05-25T12:46:40.000Z</time>
      </trkpt>
      <trkpt lat="44.63634" lon="5.1898">
        <ele>1264</ele>
        <time>2026-05-25T12:46:41.000Z</time>
      </trkpt>
      <trkpt lat="44.63634" lon="5.1898">
        <ele>1264</ele>
        <time>2026-05-25T12:46:42.000Z</time>
      </trkpt>
      <trkpt lat="44.63634" lon="5.1898">
        <ele>1264</ele>
        <time>2026-05-25T12:46:43.000Z</time>
      </trkpt>
      <trkpt lat="44.63634" lon="5.1898">
        <ele>1264</ele>
        <time>2026-05-25T12:46:44.000Z</time>
      </trkpt>
      <trkpt lat="44.63634" lon="5.1898">
        <ele>1264</ele>
        <time>2026-05-25T12:46:45.000Z</time>
      </trkpt>
      <trkpt lat="44.63634" lon="5.1898">
        <ele>1264</ele>
        <time>2026-05-25T12:46:46.000Z</time>
      </trkpt>
      <trkpt lat="44.63634" lon="5.1898">
        <ele>1264</ele>
        <time>2026-05-25T12:46:47.000Z</time>
      </trkpt>
      <trkpt lat="44.63634" lon="5.1898">
        <ele>1264</ele>
        <time>2026-05-25T12:46:48.000Z</time>
      </trkpt>
      <trkpt lat="44.63634" lon="5.1898">
        <ele>1264</ele>
        <time>2026-05-25T12:46:49.000Z</time>
      </trkpt>
      <trkpt lat="44.63634" lon="5.1898">
        <ele>1264</ele>
        <time>2026-05-25T12:46:50.000Z</time>
      </trkpt>
      <trkpt lat="44.63634" lon="5.1898">
        <ele>1264</ele>
        <time>2026-05-25T12:46:51.000Z</time>
      </trkpt>
      <trkpt lat="44.63634" lon="5.1898">
        <ele>1264</ele>
        <time>2026-05-25T12:46:52.000Z</time>
      </trkpt>
      <trkpt lat="44.63634" lon="5.1898">
        <ele>1264</ele>
        <time>2026-05-25T12:46:53.000Z</time>
      </trkpt>
      <trkpt lat="44.63634" lon="5.1898">
        <ele>1264</ele>
        <time>2026-05-25T12:46:54.000Z</time>
      </trkpt>
      <trkpt lat="44.63634" lon="5.1898">
        <ele>1264</ele>
        <time>2026-05-25T12:46:55.000Z</time>
      </trkpt>
      <trkpt lat="44.63635" lon="5.1898">
        <ele>1265</ele>
        <time>2026-05-25T12:46:56.000Z</time>
      </trkpt>
      <trkpt lat="44.63634" lon="5.1898">
        <ele>1264</ele>
        <time>2026-05-25T12:46:57.000Z</time>
      </trkpt>
      <trkpt lat="44.63634" lon="5.1898">
        <ele>1264</ele>
        <time>2026-05-25T12:46:58.000Z</time>
      </trkpt>
      <trkpt lat="44.63633" lon="5.18981">
        <ele>1263</ele>
        <time>2026-05-25T12:46:59.000Z</time>
      </trkpt>
      <trkpt lat="44.63633" lon="5.1898">
        <ele>1264</ele>
        <time>2026-05-25T12:47:00.000Z</time>
      </trkpt>
      <trkpt lat="44.63633" lon="5.1898">
        <ele>1264</ele>
        <time>2026-05-25T12:47:01.000Z</time>
      </trkpt>
      <trkpt lat="44.63633" lon="5.1898">
        <ele>1264</ele>
        <time>2026-05-25T12:47:02.000Z</time>
      </trkpt>
      <trkpt lat="44.63632" lon="5.18982">
        <ele>1266</ele>
        <time>2026-05-25T12:47:03.000Z</time>
      </trkpt>
      <trkpt lat="44.63631" lon="5.18983">
        <ele>1265</ele>
        <time>2026-05-25T12:47:04.000Z</time>
      </trkpt>
      <trkpt lat="44.6363" lon="5.18985">
        <ele>1266</ele>
        <time>2026-05-25T12:47:05.000Z</time>
      </trkpt>
      <trkpt lat="44.63629" lon="5.18987">
        <ele>1266</ele>
        <time>2026-05-25T12:47:06.000Z</time>
      </trkpt>
      <trkpt lat="44.63629" lon="5.18989">
        <ele>1266</ele>
        <time>2026-05-25T12:47:07.000Z</time>
      </trkpt>
      <trkpt lat="44.63629" lon="5.1899">
        <ele>1266</ele>
        <time>2026-05-25T12:47:08.000Z</time>
      </trkpt>
      <trkpt lat="44.63628" lon="5.18991">
        <ele>1266</ele>
        <time>2026-05-25T12:47:09.000Z</time>
      </trkpt>
      <trkpt lat="44.63629" lon="5.18992">
        <ele>1266</ele>
        <time>2026-05-25T12:47:10.000Z</time>
      </trkpt>
      <trkpt lat="44.63629" lon="5.18994">
        <ele>1266</ele>
        <time>2026-05-25T12:47:11.000Z</time>
      </trkpt>
      <trkpt lat="44.63628" lon="5.18996">
        <ele>1267</ele>
        <time>2026-05-25T12:47:12.000Z</time>
      </trkpt>
      <trkpt lat="44.63628" lon="5.18997">
        <ele>1266</ele>
        <time>2026-05-25T12:47:13.000Z</time>
      </trkpt>
      <trkpt lat="44.63629" lon="5.18997">
        <ele>1266</ele>
        <time>2026-05-25T12:47:14.000Z</time>
      </trkpt>
      <trkpt lat="44.63629" lon="5.18998">
        <ele>1266</ele>
        <time>2026-05-25T12:47:15.000Z</time>
      </trkpt>
      <trkpt lat="44.63629" lon="5.18999">
        <ele>1266</ele>
        <time>2026-05-25T12:47:16.000Z</time>
      </trkpt>
      <trkpt lat="44.6363" lon="5.19">
        <ele>1267</ele>
        <time>2026-05-25T12:47:17.000Z</time>
      </trkpt>
      <trkpt lat="44.63629" lon="5.19">
        <ele>1267</ele>
        <time>2026-05-25T12:47:18.000Z</time>
      </trkpt>
      <trkpt lat="44.63629" lon="5.19001">
        <ele>1267</ele>
        <time>2026-05-25T12:47:19.000Z</time>
      </trkpt>
      <trkpt lat="44.63629" lon="5.19003">
        <ele>1268</ele>
        <time>2026-05-25T12:47:20.000Z</time>
      </trkpt>
      <trkpt lat="44.6363" lon="5.19004">
        <ele>1268</ele>
        <time>2026-05-25T12:47:21.000Z</time>
      </trkpt>
      <trkpt lat="44.6363" lon="5.19004">
        <ele>1269</ele>
        <time>2026-05-25T12:47:22.000Z</time>
      </trkpt>
      <trkpt lat="44.63629" lon="5.19005">
        <ele>1269</ele>
        <time>2026-05-25T12:47:23.000Z</time>
      </trkpt>
      <trkpt lat="44.63628" lon="5.19007">
        <ele>1270</ele>
        <time>2026-05-25T12:47:24.000Z</time>
      </trkpt>
      <trkpt lat="44.63628" lon="5.19007">
        <ele>1269</ele>
        <time>2026-05-25T12:47:25.000Z</time>
      </trkpt>
      <trkpt lat="44.63628" lon="5.19007">
        <ele>1269</ele>
        <time>2026-05-25T12:47:26.000Z</time>
      </trkpt>
      <trkpt lat="44.63628" lon="5.19007">
        <ele>1269</ele>
        <time>2026-05-25T12:47:27.000Z</time>
      </trkpt>
      <trkpt lat="44.63628" lon="5.19007">
        <ele>1268</ele>
        <time>2026-05-25T12:47:28.000Z</time>
      </trkpt>
      <trkpt lat="44.63628" lon="5.19007">
        <ele>1268</ele>
        <time>2026-05-25T12:47:29.000Z</time>
      </trkpt>
      <trkpt lat="44.63628" lon="5.19008">
        <ele>1268</ele>
        <time>2026-05-25T12:47:30.000Z</time>
      </trkpt>
      <trkpt lat="44.63628" lon="5.1901">
        <ele>1268</ele>
        <time>2026-05-25T12:47:31.000Z</time>
      </trkpt>
      <trkpt lat="44.63627" lon="5.19011">
        <ele>1268</ele>
        <time>2026-05-25T12:47:32.000Z</time>
      </trkpt>
      <trkpt lat="44.63627" lon="5.19012">
        <ele>1269</ele>
        <time>2026-05-25T12:47:33.000Z</time>
      </trkpt>
      <trkpt lat="44.63627" lon="5.19013">
        <ele>1270</ele>
        <time>2026-05-25T12:47:34.000Z</time>
      </trkpt>
      <trkpt lat="44.63628" lon="5.19014">
        <ele>1270</ele>
        <time>2026-05-25T12:47:35.000Z</time>
      </trkpt>
      <trkpt lat="44.63628" lon="5.19015">
        <ele>1270</ele>
        <time>2026-05-25T12:47:36.000Z</time>
      </trkpt>
      <trkpt lat="44.63628" lon="5.19016">
        <ele>1271</ele>
        <time>2026-05-25T12:47:37.000Z</time>
      </trkpt>
      <trkpt lat="44.63628" lon="5.19017">
        <ele>1272</ele>
        <time>2026-05-25T12:47:38.000Z</time>
      </trkpt>
      <trkpt lat="44.63628" lon="5.19019">
        <ele>1272</ele>
        <time>2026-05-25T12:47:39.000Z</time>
      </trkpt>
      <trkpt lat="44.63628" lon="5.19019">
        <ele>1273</ele>
        <time>2026-05-25T12:47:40.000Z</time>
      </trkpt>
      <trkpt lat="44.63628" lon="5.19019">
        <ele>1273</ele>
        <time>2026-05-25T12:47:41.000Z</time>
      </trkpt>
      <trkpt lat="44.63627" lon="5.19021">
        <ele>1273</ele>
        <time>2026-05-25T12:47:42.000Z</time>
      </trkpt>
      <trkpt lat="44.63628" lon="5.19022">
        <ele>1273</ele>
        <time>2026-05-25T12:47:43.000Z</time>
      </trkpt>
      <trkpt lat="44.63629" lon="5.19023">
        <ele>1273</ele>
        <time>2026-05-25T12:47:44.000Z</time>
      </trkpt>
      <trkpt lat="44.63628" lon="5.19024">
        <ele>1274</ele>
        <time>2026-05-25T12:47:45.000Z</time>
      </trkpt>
      <trkpt lat="44.63627" lon="5.19026">
        <ele>1274</ele>
        <time>2026-05-25T12:47:46.000Z</time>
      </trkpt>
      <trkpt lat="44.63627" lon="5.19026">
        <ele>1275</ele>
        <time>2026-05-25T12:47:47.000Z</time>
      </trkpt>
      <trkpt lat="44.63627" lon="5.19028">
        <ele>1274</ele>
        <time>2026-05-25T12:47:48.000Z</time>
      </trkpt>
      <trkpt lat="44.63627" lon="5.19028">
        <ele>1273</ele>
        <time>2026-05-25T12:47:49.000Z</time>
      </trkpt>
      <trkpt lat="44.63627" lon="5.1903">
        <ele>1273</ele>
        <time>2026-05-25T12:47:50.000Z</time>
      </trkpt>
      <trkpt lat="44.63628" lon="5.19031">
        <ele>1273</ele>
        <time>2026-05-25T12:47:51.000Z</time>
      </trkpt>
      <trkpt lat="44.63627" lon="5.19032">
        <ele>1273</ele>
        <time>2026-05-25T12:47:52.000Z</time>
      </trkpt>
      <trkpt lat="44.63626" lon="5.19033">
        <ele>1273</ele>
        <time>2026-05-25T12:47:53.000Z</time>
      </trkpt>
      <trkpt lat="44.63627" lon="5.19034">
        <ele>1273</ele>
        <time>2026-05-25T12:47:54.000Z</time>
      </trkpt>
      <trkpt lat="44.63627" lon="5.19035">
        <ele>1274</ele>
        <time>2026-05-25T12:47:55.000Z</time>
      </trkpt>
      <trkpt lat="44.63627" lon="5.19036">
        <ele>1274</ele>
        <time>2026-05-25T12:47:56.000Z</time>
      </trkpt>
      <trkpt lat="44.63627" lon="5.19036">
        <ele>1274</ele>
        <time>2026-05-25T12:47:57.000Z</time>
      </trkpt>
      <trkpt lat="44.63626" lon="5.19037">
        <ele>1274</ele>
        <time>2026-05-25T12:47:58.000Z</time>
      </trkpt>
      <trkpt lat="44.63627" lon="5.19037">
        <ele>1274</ele>
        <time>2026-05-25T12:47:59.000Z</time>
      </trkpt>
      <trkpt lat="44.63626" lon="5.19038">
        <ele>1274</ele>
        <time>2026-05-25T12:48:00.000Z</time>
      </trkpt>
      <trkpt lat="44.63626" lon="5.19039">
        <ele>1276</ele>
        <time>2026-05-25T12:48:01.000Z</time>
      </trkpt>
      <trkpt lat="44.63626" lon="5.19041">
        <ele>1276</ele>
        <time>2026-05-25T12:48:02.000Z</time>
      </trkpt>
      <trkpt lat="44.63625" lon="5.19041">
        <ele>1276</ele>
        <time>2026-05-25T12:48:03.000Z</time>
      </trkpt>
      <trkpt lat="44.63625" lon="5.19042">
        <ele>1276</ele>
        <time>2026-05-25T12:48:04.000Z</time>
      </trkpt>
      <trkpt lat="44.63624" lon="5.19044">
        <ele>1276</ele>
        <time>2026-05-25T12:48:05.000Z</time>
      </trkpt>
      <trkpt lat="44.63624" lon="5.19045">
        <ele>1276</ele>
        <time>2026-05-25T12:48:06.000Z</time>
      </trkpt>
      <trkpt lat="44.63624" lon="5.19046">
        <ele>1275</ele>
        <time>2026-05-25T12:48:07.000Z</time>
      </trkpt>
      <trkpt lat="44.63623" lon="5.19047">
        <ele>1275</ele>
        <time>2026-05-25T12:48:08.000Z</time>
      </trkpt>
      <trkpt lat="44.63622" lon="5.19049">
        <ele>1275</ele>
        <time>2026-05-25T12:48:09.000Z</time>
      </trkpt>
      <trkpt lat="44.63622" lon="5.19051">
        <ele>1276</ele>
        <time>2026-05-25T12:48:10.000Z</time>
      </trkpt>
      <trkpt lat="44.63622" lon="5.19052">
        <ele>1275</ele>
        <time>2026-05-25T12:48:11.000Z</time>
      </trkpt>
      <trkpt lat="44.63621" lon="5.19055">
        <ele>1276</ele>
        <time>2026-05-25T12:48:12.000Z</time>
      </trkpt>
      <trkpt lat="44.63621" lon="5.19055">
        <ele>1276</ele>
        <time>2026-05-25T12:48:13.000Z</time>
      </trkpt>
      <trkpt lat="44.6362" lon="5.19056">
        <ele>1276</ele>
        <time>2026-05-25T12:48:14.000Z</time>
      </trkpt>
      <trkpt lat="44.6362" lon="5.19056">
        <ele>1276</ele>
        <time>2026-05-25T12:48:15.000Z</time>
      </trkpt>
      <trkpt lat="44.6362" lon="5.19058">
        <ele>1276</ele>
        <time>2026-05-25T12:48:16.000Z</time>
      </trkpt>
      <trkpt lat="44.6362" lon="5.19059">
        <ele>1274</ele>
        <time>2026-05-25T12:48:17.000Z</time>
      </trkpt>
      <trkpt lat="44.6362" lon="5.1906">
        <ele>1274</ele>
        <time>2026-05-25T12:48:18.000Z</time>
      </trkpt>
      <trkpt lat="44.6362" lon="5.1906">
        <ele>1274</ele>
        <time>2026-05-25T12:48:19.000Z</time>
      </trkpt>
      <trkpt lat="44.6362" lon="5.19061">
        <ele>1275</ele>
        <time>2026-05-25T12:48:20.000Z</time>
      </trkpt>
      <trkpt lat="44.6362" lon="5.19062">
        <ele>1275</ele>
        <time>2026-05-25T12:48:21.000Z</time>
      </trkpt>
      <trkpt lat="44.63619" lon="5.19063">
        <ele>1275</ele>
        <time>2026-05-25T12:48:22.000Z</time>
      </trkpt>
      <trkpt lat="44.6362" lon="5.19065">
        <ele>1276</ele>
        <time>2026-05-25T12:48:23.000Z</time>
      </trkpt>
      <trkpt lat="44.6362" lon="5.19066">
        <ele>1276</ele>
        <time>2026-05-25T12:48:24.000Z</time>
      </trkpt>
      <trkpt lat="44.6362" lon="5.19067">
        <ele>1277</ele>
        <time>2026-05-25T12:48:25.000Z</time>
      </trkpt>
      <trkpt lat="44.6362" lon="5.19068">
        <ele>1278</ele>
        <time>2026-05-25T12:48:26.000Z</time>
      </trkpt>
      <trkpt lat="44.6362" lon="5.19069">
        <ele>1278</ele>
        <time>2026-05-25T12:48:27.000Z</time>
      </trkpt>
      <trkpt lat="44.63621" lon="5.1907">
        <ele>1279</ele>
        <time>2026-05-25T12:48:28.000Z</time>
      </trkpt>
      <trkpt lat="44.63621" lon="5.19071">
        <ele>1281</ele>
        <time>2026-05-25T12:48:29.000Z</time>
      </trkpt>
      <trkpt lat="44.63621" lon="5.19073">
        <ele>1281</ele>
        <time>2026-05-25T12:48:30.000Z</time>
      </trkpt>
      <trkpt lat="44.6362" lon="5.19074">
        <ele>1281</ele>
        <time>2026-05-25T12:48:31.000Z</time>
      </trkpt>
      <trkpt lat="44.6362" lon="5.19074">
        <ele>1283</ele>
        <time>2026-05-25T12:48:32.000Z</time>
      </trkpt>
      <trkpt lat="44.63619" lon="5.19074">
        <ele>1283</ele>
        <time>2026-05-25T12:48:33.000Z</time>
      </trkpt>
      <trkpt lat="44.63618" lon="5.19075">
        <ele>1282</ele>
        <time>2026-05-25T12:48:34.000Z</time>
      </trkpt>
      <trkpt lat="44.63617" lon="5.19076">
        <ele>1283</ele>
        <time>2026-05-25T12:48:35.000Z</time>
      </trkpt>
      <trkpt lat="44.63617" lon="5.19077">
        <ele>1282</ele>
        <time>2026-05-25T12:48:36.000Z</time>
      </trkpt>
      <trkpt lat="44.63617" lon="5.19077">
        <ele>1284</ele>
        <time>2026-05-25T12:48:37.000Z</time>
      </trkpt>
      <trkpt lat="44.63617" lon="5.1908">
        <ele>1284</ele>
        <time>2026-05-25T12:48:38.000Z</time>
      </trkpt>
      <trkpt lat="44.63618" lon="5.19081">
        <ele>1283</ele>
        <time>2026-05-25T12:48:39.000Z</time>
      </trkpt>
      <trkpt lat="44.63618" lon="5.19083">
        <ele>1284</ele>
        <time>2026-05-25T12:48:40.000Z</time>
      </trkpt>
      <trkpt lat="44.63618" lon="5.19084">
        <ele>1284</ele>
        <time>2026-05-25T12:48:41.000Z</time>
      </trkpt>
      <trkpt lat="44.63618" lon="5.19084">
        <ele>1283</ele>
        <time>2026-05-25T12:48:42.000Z</time>
      </trkpt>
      <trkpt lat="44.63618" lon="5.19085">
        <ele>1284</ele>
        <time>2026-05-25T12:48:43.000Z</time>
      </trkpt>
      <trkpt lat="44.63616" lon="5.19086">
        <ele>1284</ele>
        <time>2026-05-25T12:48:44.000Z</time>
      </trkpt>
      <trkpt lat="44.63617" lon="5.19089">
        <ele>1285</ele>
        <time>2026-05-25T12:48:45.000Z</time>
      </trkpt>
      <trkpt lat="44.63617" lon="5.19091">
        <ele>1286</ele>
        <time>2026-05-25T12:48:46.000Z</time>
      </trkpt>
      <trkpt lat="44.63617" lon="5.19092">
        <ele>1286</ele>
        <time>2026-05-25T12:48:47.000Z</time>
      </trkpt>
      <trkpt lat="44.63617" lon="5.19094">
        <ele>1285</ele>
        <time>2026-05-25T12:48:48.000Z</time>
      </trkpt>
      <trkpt lat="44.63617" lon="5.19094">
        <ele>1285</ele>
        <time>2026-05-25T12:48:49.000Z</time>
      </trkpt>
      <trkpt lat="44.63615" lon="5.19095">
        <ele>1285</ele>
        <time>2026-05-25T12:48:50.000Z</time>
      </trkpt>
      <trkpt lat="44.63615" lon="5.19096">
        <ele>1285</ele>
        <time>2026-05-25T12:48:51.000Z</time>
      </trkpt>
      <trkpt lat="44.63615" lon="5.19098">
        <ele>1286</ele>
        <time>2026-05-25T12:48:52.000Z</time>
      </trkpt>
      <trkpt lat="44.63614" lon="5.19098">
        <ele>1286</ele>
        <time>2026-05-25T12:48:53.000Z</time>
      </trkpt>
      <trkpt lat="44.63614" lon="5.19098">
        <ele>1286</ele>
        <time>2026-05-25T12:48:54.000Z</time>
      </trkpt>
      <trkpt lat="44.63614" lon="5.19099">
        <ele>1287</ele>
        <time>2026-05-25T12:48:55.000Z</time>
      </trkpt>
      <trkpt lat="44.63615" lon="5.19101">
        <ele>1288</ele>
        <time>2026-05-25T12:48:56.000Z</time>
      </trkpt>
      <trkpt lat="44.63615" lon="5.19103">
        <ele>1288</ele>
        <time>2026-05-25T12:48:57.000Z</time>
      </trkpt>
      <trkpt lat="44.63614" lon="5.19103">
        <ele>1287</ele>
        <time>2026-05-25T12:48:58.000Z</time>
      </trkpt>
      <trkpt lat="44.63614" lon="5.19105">
        <ele>1289</ele>
        <time>2026-05-25T12:48:59.000Z</time>
      </trkpt>
      <trkpt lat="44.63613" lon="5.19107">
        <ele>1289</ele>
        <time>2026-05-25T12:49:00.000Z</time>
      </trkpt>
      <trkpt lat="44.63613" lon="5.19108">
        <ele>1288</ele>
        <time>2026-05-25T12:49:01.000Z</time>
      </trkpt>
      <trkpt lat="44.63613" lon="5.1911">
        <ele>1289</ele>
        <time>2026-05-25T12:49:02.000Z</time>
      </trkpt>
      <trkpt lat="44.63612" lon="5.1911">
        <ele>1289</ele>
        <time>2026-05-25T12:49:03.000Z</time>
      </trkpt>
      <trkpt lat="44.63611" lon="5.1911">
        <ele>1288</ele>
        <time>2026-05-25T12:49:04.000Z</time>
      </trkpt>
      <trkpt lat="44.63611" lon="5.1911">
        <ele>1288</ele>
        <time>2026-05-25T12:49:05.000Z</time>
      </trkpt>
      <trkpt lat="44.63611" lon="5.19111">
        <ele>1288</ele>
        <time>2026-05-25T12:49:06.000Z</time>
      </trkpt>
      <trkpt lat="44.6361" lon="5.19111">
        <ele>1287</ele>
        <time>2026-05-25T12:49:07.000Z</time>
      </trkpt>
      <trkpt lat="44.63608" lon="5.19111">
        <ele>1288</ele>
        <time>2026-05-25T12:49:08.000Z</time>
      </trkpt>
      <trkpt lat="44.63607" lon="5.19112">
        <ele>1288</ele>
        <time>2026-05-25T12:49:09.000Z</time>
      </trkpt>
      <trkpt lat="44.63607" lon="5.19112">
        <ele>1288</ele>
        <time>2026-05-25T12:49:10.000Z</time>
      </trkpt>
      <trkpt lat="44.63606" lon="5.19113">
        <ele>1288</ele>
        <time>2026-05-25T12:49:11.000Z</time>
      </trkpt>
      <trkpt lat="44.63605" lon="5.19115">
        <ele>1288</ele>
        <time>2026-05-25T12:49:12.000Z</time>
      </trkpt>
      <trkpt lat="44.63606" lon="5.19116">
        <ele>1288</ele>
        <time>2026-05-25T12:49:13.000Z</time>
      </trkpt>
      <trkpt lat="44.63605" lon="5.19117">
        <ele>1289</ele>
        <time>2026-05-25T12:49:14.000Z</time>
      </trkpt>
      <trkpt lat="44.63605" lon="5.19119">
        <ele>1289</ele>
        <time>2026-05-25T12:49:15.000Z</time>
      </trkpt>
      <trkpt lat="44.63605" lon="5.19119">
        <ele>1288</ele>
        <time>2026-05-25T12:49:16.000Z</time>
      </trkpt>
      <trkpt lat="44.63605" lon="5.19119">
        <ele>1289</ele>
        <time>2026-05-25T12:49:17.000Z</time>
      </trkpt>
      <trkpt lat="44.63603" lon="5.1912">
        <ele>1289</ele>
        <time>2026-05-25T12:49:18.000Z</time>
      </trkpt>
      <trkpt lat="44.63601" lon="5.19122">
        <ele>1288</ele>
        <time>2026-05-25T12:49:19.000Z</time>
      </trkpt>
      <trkpt lat="44.636" lon="5.19123">
        <ele>1289</ele>
        <time>2026-05-25T12:49:20.000Z</time>
      </trkpt>
      <trkpt lat="44.636" lon="5.19124">
        <ele>1288</ele>
        <time>2026-05-25T12:49:21.000Z</time>
      </trkpt>
      <trkpt lat="44.636" lon="5.19126">
        <ele>1288</ele>
        <time>2026-05-25T12:49:22.000Z</time>
      </trkpt>
      <trkpt lat="44.63598" lon="5.19127">
        <ele>1288</ele>
        <time>2026-05-25T12:49:23.000Z</time>
      </trkpt>
      <trkpt lat="44.63598" lon="5.19127">
        <ele>1288</ele>
        <time>2026-05-25T12:49:24.000Z</time>
      </trkpt>
      <trkpt lat="44.63596" lon="5.19128">
        <ele>1289</ele>
        <time>2026-05-25T12:49:25.000Z</time>
      </trkpt>
      <trkpt lat="44.63595" lon="5.19129">
        <ele>1289</ele>
        <time>2026-05-25T12:49:26.000Z</time>
      </trkpt>
      <trkpt lat="44.63594" lon="5.1913">
        <ele>1289</ele>
        <time>2026-05-25T12:49:27.000Z</time>
      </trkpt>
      <trkpt lat="44.63594" lon="5.19132">
        <ele>1290</ele>
        <time>2026-05-25T12:49:28.000Z</time>
      </trkpt>
      <trkpt lat="44.63593" lon="5.19132">
        <ele>1290</ele>
        <time>2026-05-25T12:49:29.000Z</time>
      </trkpt>
      <trkpt lat="44.63592" lon="5.19133">
        <ele>1291</ele>
        <time>2026-05-25T12:49:30.000Z</time>
      </trkpt>
      <trkpt lat="44.63591" lon="5.19133">
        <ele>1290</ele>
        <time>2026-05-25T12:49:31.000Z</time>
      </trkpt>
      <trkpt lat="44.6359" lon="5.19134">
        <ele>1291</ele>
        <time>2026-05-25T12:49:32.000Z</time>
      </trkpt>
      <trkpt lat="44.63589" lon="5.19135">
        <ele>1291</ele>
        <time>2026-05-25T12:49:33.000Z</time>
      </trkpt>
      <trkpt lat="44.63589" lon="5.19136">
        <ele>1291</ele>
        <time>2026-05-25T12:49:34.000Z</time>
      </trkpt>
      <trkpt lat="44.63588" lon="5.19137">
        <ele>1291</ele>
        <time>2026-05-25T12:49:35.000Z</time>
      </trkpt>
      <trkpt lat="44.63588" lon="5.19138">
        <ele>1291</ele>
        <time>2026-05-25T12:49:36.000Z</time>
      </trkpt>
      <trkpt lat="44.63587" lon="5.19139">
        <ele>1291</ele>
        <time>2026-05-25T12:49:37.000Z</time>
      </trkpt>
      <trkpt lat="44.63586" lon="5.1914">
        <ele>1291</ele>
        <time>2026-05-25T12:49:38.000Z</time>
      </trkpt>
      <trkpt lat="44.63585" lon="5.1914">
        <ele>1292</ele>
        <time>2026-05-25T12:49:39.000Z</time>
      </trkpt>
      <trkpt lat="44.63584" lon="5.19141">
        <ele>1292</ele>
        <time>2026-05-25T12:49:40.000Z</time>
      </trkpt>
      <trkpt lat="44.63583" lon="5.19141">
        <ele>1292</ele>
        <time>2026-05-25T12:49:41.000Z</time>
      </trkpt>
      <trkpt lat="44.63582" lon="5.19141">
        <ele>1291</ele>
        <time>2026-05-25T12:49:42.000Z</time>
      </trkpt>
      <trkpt lat="44.63581" lon="5.19141">
        <ele>1292</ele>
        <time>2026-05-25T12:49:43.000Z</time>
      </trkpt>
      <trkpt lat="44.63579" lon="5.19141">
        <ele>1291</ele>
        <time>2026-05-25T12:49:44.000Z</time>
      </trkpt>
      <trkpt lat="44.63579" lon="5.19142">
        <ele>1292</ele>
        <time>2026-05-25T12:49:45.000Z</time>
      </trkpt>
      <trkpt lat="44.63577" lon="5.19144">
        <ele>1292</ele>
        <time>2026-05-25T12:49:46.000Z</time>
      </trkpt>
      <trkpt lat="44.63576" lon="5.19145">
        <ele>1292</ele>
        <time>2026-05-25T12:49:47.000Z</time>
      </trkpt>
      <trkpt lat="44.63575" lon="5.19146">
        <ele>1292</ele>
        <time>2026-05-25T12:49:48.000Z</time>
      </trkpt>
      <trkpt lat="44.63575" lon="5.19145">
        <ele>1291</ele>
        <time>2026-05-25T12:49:49.000Z</time>
      </trkpt>
      <trkpt lat="44.63574" lon="5.19146">
        <ele>1291</ele>
        <time>2026-05-25T12:49:50.000Z</time>
      </trkpt>
      <trkpt lat="44.63573" lon="5.19146">
        <ele>1291</ele>
        <time>2026-05-25T12:49:51.000Z</time>
      </trkpt>
      <trkpt lat="44.63573" lon="5.19146">
        <ele>1291</ele>
        <time>2026-05-25T12:49:52.000Z</time>
      </trkpt>
      <trkpt lat="44.63572" lon="5.19146">
        <ele>1291</ele>
        <time>2026-05-25T12:49:53.000Z</time>
      </trkpt>
      <trkpt lat="44.63571" lon="5.19146">
        <ele>1291</ele>
        <time>2026-05-25T12:49:54.000Z</time>
      </trkpt>
      <trkpt lat="44.63569" lon="5.19147">
        <ele>1292</ele>
        <time>2026-05-25T12:49:55.000Z</time>
      </trkpt>
      <trkpt lat="44.63568" lon="5.19148">
        <ele>1293</ele>
        <time>2026-05-25T12:49:56.000Z</time>
      </trkpt>
      <trkpt lat="44.63567" lon="5.19148">
        <ele>1293</ele>
        <time>2026-05-25T12:49:57.000Z</time>
      </trkpt>
      <trkpt lat="44.63565" lon="5.19149">
        <ele>1294</ele>
        <time>2026-05-25T12:49:58.000Z</time>
      </trkpt>
      <trkpt lat="44.63565" lon="5.1915">
        <ele>1294</ele>
        <time>2026-05-25T12:49:59.000Z</time>
      </trkpt>
      <trkpt lat="44.63565" lon="5.19152">
        <ele>1294</ele>
        <time>2026-05-25T12:50:00.000Z</time>
      </trkpt>
      <trkpt lat="44.63564" lon="5.19153">
        <ele>1294</ele>
        <time>2026-05-25T12:50:01.000Z</time>
      </trkpt>
      <trkpt lat="44.63564" lon="5.19154">
        <ele>1294</ele>
        <time>2026-05-25T12:50:02.000Z</time>
      </trkpt>
      <trkpt lat="44.63563" lon="5.19158">
        <ele>1296</ele>
        <time>2026-05-25T12:50:03.000Z</time>
      </trkpt>
      <trkpt lat="44.63562" lon="5.19158">
        <ele>1298</ele>
        <time>2026-05-25T12:50:04.000Z</time>
      </trkpt>
      <trkpt lat="44.63561" lon="5.19159">
        <ele>1300</ele>
        <time>2026-05-25T12:50:05.000Z</time>
      </trkpt>
      <trkpt lat="44.6356" lon="5.19159">
        <ele>1302</ele>
        <time>2026-05-25T12:50:06.000Z</time>
      </trkpt>
      <trkpt lat="44.6356" lon="5.1916">
        <ele>1302</ele>
        <time>2026-05-25T12:50:07.000Z</time>
      </trkpt>
      <trkpt lat="44.6356" lon="5.19161">
        <ele>1302</ele>
        <time>2026-05-25T12:50:08.000Z</time>
      </trkpt>
      <trkpt lat="44.63559" lon="5.19162">
        <ele>1303</ele>
        <time>2026-05-25T12:50:09.000Z</time>
      </trkpt>
      <trkpt lat="44.63559" lon="5.19162">
        <ele>1303</ele>
        <time>2026-05-25T12:50:10.000Z</time>
      </trkpt>
      <trkpt lat="44.63559" lon="5.19163">
        <ele>1302</ele>
        <time>2026-05-25T12:50:11.000Z</time>
      </trkpt>
      <trkpt lat="44.63559" lon="5.19163">
        <ele>1302</ele>
        <time>2026-05-25T12:50:12.000Z</time>
      </trkpt>
      <trkpt lat="44.63559" lon="5.19163">
        <ele>1302</ele>
        <time>2026-05-25T12:50:13.000Z</time>
      </trkpt>
      <trkpt lat="44.63559" lon="5.19163">
        <ele>1302</ele>
        <time>2026-05-25T12:50:14.000Z</time>
      </trkpt>
      <trkpt lat="44.63559" lon="5.19163">
        <ele>1302</ele>
        <time>2026-05-25T12:50:15.000Z</time>
      </trkpt>
      <trkpt lat="44.63559" lon="5.19163">
        <ele>1302</ele>
        <time>2026-05-25T12:50:16.000Z</time>
      </trkpt>
      <trkpt lat="44.63559" lon="5.19163">
        <ele>1302</ele>
        <time>2026-05-25T12:50:17.000Z</time>
      </trkpt>
      <trkpt lat="44.63559" lon="5.19163">
        <ele>1302</ele>
        <time>2026-05-25T12:50:18.000Z</time>
      </trkpt>
      <trkpt lat="44.63559" lon="5.19163">
        <ele>1302</ele>
        <time>2026-05-25T12:50:19.000Z</time>
      </trkpt>
      <trkpt lat="44.63559" lon="5.19163">
        <ele>1302</ele>
        <time>2026-05-25T12:50:20.000Z</time>
      </trkpt>
      <trkpt lat="44.63559" lon="5.19163">
        <ele>1302</ele>
        <time>2026-05-25T12:50:21.000Z</time>
      </trkpt>
      <trkpt lat="44.63559" lon="5.19163">
        <ele>1302</ele>
        <time>2026-05-25T12:50:22.000Z</time>
      </trkpt>
      <trkpt lat="44.63557" lon="5.19162">
        <ele>1303</ele>
        <time>2026-05-25T12:50:23.000Z</time>
      </trkpt>
      <trkpt lat="44.63556" lon="5.19161">
        <ele>1303</ele>
        <time>2026-05-25T12:50:24.000Z</time>
      </trkpt>
      <trkpt lat="44.63555" lon="5.19161">
        <ele>1303</ele>
        <time>2026-05-25T12:50:25.000Z</time>
      </trkpt>
      <trkpt lat="44.63555" lon="5.19161">
        <ele>1303</ele>
        <time>2026-05-25T12:50:26.000Z</time>
      </trkpt>
      <trkpt lat="44.63555" lon="5.19161">
        <ele>1302</ele>
        <time>2026-05-25T12:50:27.000Z</time>
      </trkpt>
      <trkpt lat="44.63554" lon="5.19161">
        <ele>1302</ele>
        <time>2026-05-25T12:50:28.000Z</time>
      </trkpt>
      <trkpt lat="44.63555" lon="5.19161">
        <ele>1301</ele>
        <time>2026-05-25T12:50:29.000Z</time>
      </trkpt>
      <trkpt lat="44.63554" lon="5.19162">
        <ele>1302</ele>
        <time>2026-05-25T12:50:30.000Z</time>
      </trkpt>
      <trkpt lat="44.63555" lon="5.19161">
        <ele>1302</ele>
        <time>2026-05-25T12:50:31.000Z</time>
      </trkpt>
      <trkpt lat="44.63556" lon="5.19161">
        <ele>1302</ele>
        <time>2026-05-25T12:50:32.000Z</time>
      </trkpt>
      <trkpt lat="44.63556" lon="5.1916">
        <ele>1302</ele>
        <time>2026-05-25T12:50:33.000Z</time>
      </trkpt>
      <trkpt lat="44.63557" lon="5.1916">
        <ele>1302</ele>
        <time>2026-05-25T12:50:34.000Z</time>
      </trkpt>
      <trkpt lat="44.63557" lon="5.1916">
        <ele>1302</ele>
        <time>2026-05-25T12:50:35.000Z</time>
      </trkpt>
      <trkpt lat="44.63557" lon="5.1916">
        <ele>1302</ele>
        <time>2026-05-25T12:50:36.000Z</time>
      </trkpt>
      <trkpt lat="44.63557" lon="5.1916">
        <ele>1302</ele>
        <time>2026-05-25T12:50:37.000Z</time>
      </trkpt>
      <trkpt lat="44.63557" lon="5.1916">
        <ele>1302</ele>
        <time>2026-05-25T12:50:38.000Z</time>
      </trkpt>
      <trkpt lat="44.63557" lon="5.1916">
        <ele>1302</ele>
        <time>2026-05-25T12:50:39.000Z</time>
      </trkpt>
      <trkpt lat="44.63557" lon="5.1916">
        <ele>1302</ele>
        <time>2026-05-25T12:50:40.000Z</time>
      </trkpt>
      <trkpt lat="44.63557" lon="5.1916">
        <ele>1302</ele>
        <time>2026-05-25T12:50:41.000Z</time>
      </trkpt>
      <trkpt lat="44.63557" lon="5.1916">
        <ele>1302</ele>
        <time>2026-05-25T12:50:42.000Z</time>
      </trkpt>
      <trkpt lat="44.63557" lon="5.1916">
        <ele>1302</ele>
        <time>2026-05-25T12:50:43.000Z</time>
      </trkpt>
      <trkpt lat="44.63557" lon="5.1916">
        <ele>1302</ele>
        <time>2026-05-25T12:50:44.000Z</time>
      </trkpt>
      <trkpt lat="44.63557" lon="5.1916">
        <ele>1302</ele>
        <time>2026-05-25T12:50:45.000Z</time>
      </trkpt>
      <trkpt lat="44.63557" lon="5.1916">
        <ele>1302</ele>
        <time>2026-05-25T12:50:46.000Z</time>
      </trkpt>
      <trkpt lat="44.63556" lon="5.19162">
        <ele>1299</ele>
        <time>2026-05-25T12:50:47.000Z</time>
      </trkpt>
      <trkpt lat="44.63556" lon="5.19163">
        <ele>1299</ele>
        <time>2026-05-25T12:50:48.000Z</time>
      </trkpt>
      <trkpt lat="44.63557" lon="5.19164">
        <ele>1300</ele>
        <time>2026-05-25T12:50:49.000Z</time>
      </trkpt>
      <trkpt lat="44.63557" lon="5.19163">
        <ele>1300</ele>
        <time>2026-05-25T12:50:50.000Z</time>
      </trkpt>
      <trkpt lat="44.63556" lon="5.19164">
        <ele>1300</ele>
        <time>2026-05-25T12:50:51.000Z</time>
      </trkpt>
      <trkpt lat="44.63556" lon="5.19165">
        <ele>1302</ele>
        <time>2026-05-25T12:50:52.000Z</time>
      </trkpt>
      <trkpt lat="44.63555" lon="5.19166">
        <ele>1301</ele>
        <time>2026-05-25T12:50:53.000Z</time>
      </trkpt>
      <trkpt lat="44.63554" lon="5.19167">
        <ele>1301</ele>
        <time>2026-05-25T12:50:54.000Z</time>
      </trkpt>
      <trkpt lat="44.63555" lon="5.19168">
        <ele>1300</ele>
        <time>2026-05-25T12:50:55.000Z</time>
      </trkpt>
      <trkpt lat="44.63554" lon="5.19169">
        <ele>1300</ele>
        <time>2026-05-25T12:50:56.000Z</time>
      </trkpt>
      <trkpt lat="44.63553" lon="5.19169">
        <ele>1299</ele>
        <time>2026-05-25T12:50:57.000Z</time>
      </trkpt>
      <trkpt lat="44.63552" lon="5.19171">
        <ele>1300</ele>
        <time>2026-05-25T12:50:58.000Z</time>
      </trkpt>
      <trkpt lat="44.63551" lon="5.19171">
        <ele>1300</ele>
        <time>2026-05-25T12:50:59.000Z</time>
      </trkpt>
      <trkpt lat="44.6355" lon="5.19172">
        <ele>1300</ele>
        <time>2026-05-25T12:51:00.000Z</time>
      </trkpt>
      <trkpt lat="44.63549" lon="5.19172">
        <ele>1300</ele>
        <time>2026-05-25T12:51:01.000Z</time>
      </trkpt>
      <trkpt lat="44.63549" lon="5.19172">
        <ele>1300</ele>
        <time>2026-05-25T12:51:02.000Z</time>
      </trkpt>
      <trkpt lat="44.63549" lon="5.19172">
        <ele>1300</ele>
        <time>2026-05-25T12:51:03.000Z</time>
      </trkpt>
      <trkpt lat="44.63548" lon="5.19172">
        <ele>1300</ele>
        <time>2026-05-25T12:51:04.000Z</time>
      </trkpt>
      <trkpt lat="44.63548" lon="5.19173">
        <ele>1299</ele>
        <time>2026-05-25T12:51:05.000Z</time>
      </trkpt>
      <trkpt lat="44.63546" lon="5.19174">
        <ele>1300</ele>
        <time>2026-05-25T12:51:06.000Z</time>
      </trkpt>
      <trkpt lat="44.63546" lon="5.19175">
        <ele>1299</ele>
        <time>2026-05-25T12:51:07.000Z</time>
      </trkpt>
      <trkpt lat="44.63545" lon="5.19176">
        <ele>1300</ele>
        <time>2026-05-25T12:51:08.000Z</time>
      </trkpt>
      <trkpt lat="44.63544" lon="5.19176">
        <ele>1302</ele>
        <time>2026-05-25T12:51:09.000Z</time>
      </trkpt>
      <trkpt lat="44.63544" lon="5.19177">
        <ele>1301</ele>
        <time>2026-05-25T12:51:10.000Z</time>
      </trkpt>
      <trkpt lat="44.63544" lon="5.19178">
        <ele>1301</ele>
        <time>2026-05-25T12:51:11.000Z</time>
      </trkpt>
      <trkpt lat="44.63543" lon="5.19178">
        <ele>1302</ele>
        <time>2026-05-25T12:51:12.000Z</time>
      </trkpt>
      <trkpt lat="44.63542" lon="5.19178">
        <ele>1303</ele>
        <time>2026-05-25T12:51:13.000Z</time>
      </trkpt>
      <trkpt lat="44.63541" lon="5.19179">
        <ele>1303</ele>
        <time>2026-05-25T12:51:14.000Z</time>
      </trkpt>
      <trkpt lat="44.6354" lon="5.19179">
        <ele>1302</ele>
        <time>2026-05-25T12:51:15.000Z</time>
      </trkpt>
      <trkpt lat="44.63539" lon="5.1918">
        <ele>1302</ele>
        <time>2026-05-25T12:51:16.000Z</time>
      </trkpt>
      <trkpt lat="44.63538" lon="5.1918">
        <ele>1302</ele>
        <time>2026-05-25T12:51:17.000Z</time>
      </trkpt>
      <trkpt lat="44.63537" lon="5.19181">
        <ele>1302</ele>
        <time>2026-05-25T12:51:18.000Z</time>
      </trkpt>
      <trkpt lat="44.63536" lon="5.19181">
        <ele>1302</ele>
        <time>2026-05-25T12:51:19.000Z</time>
      </trkpt>
      <trkpt lat="44.63535" lon="5.1918">
        <ele>1302</ele>
        <time>2026-05-25T12:51:20.000Z</time>
      </trkpt>
      <trkpt lat="44.63534" lon="5.1918">
        <ele>1302</ele>
        <time>2026-05-25T12:51:21.000Z</time>
      </trkpt>
      <trkpt lat="44.63532" lon="5.1918">
        <ele>1301</ele>
        <time>2026-05-25T12:51:22.000Z</time>
      </trkpt>
      <trkpt lat="44.63531" lon="5.1918">
        <ele>1301</ele>
        <time>2026-05-25T12:51:23.000Z</time>
      </trkpt>
      <trkpt lat="44.6353" lon="5.19181">
        <ele>1301</ele>
        <time>2026-05-25T12:51:24.000Z</time>
      </trkpt>
      <trkpt lat="44.63529" lon="5.19183">
        <ele>1301</ele>
        <time>2026-05-25T12:51:25.000Z</time>
      </trkpt>
      <trkpt lat="44.63528" lon="5.19183">
        <ele>1301</ele>
        <time>2026-05-25T12:51:26.000Z</time>
      </trkpt>
      <trkpt lat="44.63528" lon="5.19185">
        <ele>1300</ele>
        <time>2026-05-25T12:51:27.000Z</time>
      </trkpt>
      <trkpt lat="44.63528" lon="5.19185">
        <ele>1301</ele>
        <time>2026-05-25T12:51:28.000Z</time>
      </trkpt>
      <trkpt lat="44.63526" lon="5.19185">
        <ele>1302</ele>
        <time>2026-05-25T12:51:29.000Z</time>
      </trkpt>
      <trkpt lat="44.63525" lon="5.19185">
        <ele>1302</ele>
        <time>2026-05-25T12:51:30.000Z</time>
      </trkpt>
      <trkpt lat="44.63525" lon="5.19186">
        <ele>1303</ele>
        <time>2026-05-25T12:51:31.000Z</time>
      </trkpt>
      <trkpt lat="44.63525" lon="5.19187">
        <ele>1303</ele>
        <time>2026-05-25T12:51:32.000Z</time>
      </trkpt>
      <trkpt lat="44.63523" lon="5.19187">
        <ele>1304</ele>
        <time>2026-05-25T12:51:33.000Z</time>
      </trkpt>
      <trkpt lat="44.63522" lon="5.19187">
        <ele>1304</ele>
        <time>2026-05-25T12:51:34.000Z</time>
      </trkpt>
      <trkpt lat="44.63521" lon="5.19188">
        <ele>1304</ele>
        <time>2026-05-25T12:51:35.000Z</time>
      </trkpt>
      <trkpt lat="44.6352" lon="5.19189">
        <ele>1303</ele>
        <time>2026-05-25T12:51:36.000Z</time>
      </trkpt>
      <trkpt lat="44.63519" lon="5.19189">
        <ele>1304</ele>
        <time>2026-05-25T12:51:37.000Z</time>
      </trkpt>
      <trkpt lat="44.63518" lon="5.1919">
        <ele>1303</ele>
        <time>2026-05-25T12:51:38.000Z</time>
      </trkpt>
      <trkpt lat="44.63518" lon="5.19193">
        <ele>1305</ele>
        <time>2026-05-25T12:51:39.000Z</time>
      </trkpt>
      <trkpt lat="44.63518" lon="5.19194">
        <ele>1305</ele>
        <time>2026-05-25T12:51:40.000Z</time>
      </trkpt>
      <trkpt lat="44.63517" lon="5.19195">
        <ele>1305</ele>
        <time>2026-05-25T12:51:41.000Z</time>
      </trkpt>
      <trkpt lat="44.63515" lon="5.19195">
        <ele>1306</ele>
        <time>2026-05-25T12:51:42.000Z</time>
      </trkpt>
      <trkpt lat="44.63515" lon="5.19196">
        <ele>1306</ele>
        <time>2026-05-25T12:51:43.000Z</time>
      </trkpt>
      <trkpt lat="44.63514" lon="5.19197">
        <ele>1306</ele>
        <time>2026-05-25T12:51:44.000Z</time>
      </trkpt>
      <trkpt lat="44.63513" lon="5.19198">
        <ele>1307</ele>
        <time>2026-05-25T12:51:45.000Z</time>
      </trkpt>
      <trkpt lat="44.63512" lon="5.19198">
        <ele>1307</ele>
        <time>2026-05-25T12:51:46.000Z</time>
      </trkpt>
      <trkpt lat="44.63511" lon="5.19197">
        <ele>1307</ele>
        <time>2026-05-25T12:51:47.000Z</time>
      </trkpt>
      <trkpt lat="44.63511" lon="5.19199">
        <ele>1307</ele>
        <time>2026-05-25T12:51:48.000Z</time>
      </trkpt>
      <trkpt lat="44.6351" lon="5.192">
        <ele>1307</ele>
        <time>2026-05-25T12:51:49.000Z</time>
      </trkpt>
      <trkpt lat="44.6351" lon="5.19201">
        <ele>1307</ele>
        <time>2026-05-25T12:51:50.000Z</time>
      </trkpt>
      <trkpt lat="44.63509" lon="5.19202">
        <ele>1307</ele>
        <time>2026-05-25T12:51:51.000Z</time>
      </trkpt>
      <trkpt lat="44.63509" lon="5.19205">
        <ele>1308</ele>
        <time>2026-05-25T12:51:52.000Z</time>
      </trkpt>
      <trkpt lat="44.63508" lon="5.19206">
        <ele>1309</ele>
        <time>2026-05-25T12:51:53.000Z</time>
      </trkpt>
      <trkpt lat="44.63508" lon="5.19206">
        <ele>1309</ele>
        <time>2026-05-25T12:51:54.000Z</time>
      </trkpt>
      <trkpt lat="44.63507" lon="5.19208">
        <ele>1310</ele>
        <time>2026-05-25T12:51:55.000Z</time>
      </trkpt>
      <trkpt lat="44.63507" lon="5.19208">
        <ele>1310</ele>
        <time>2026-05-25T12:51:56.000Z</time>
      </trkpt>
      <trkpt lat="44.63506" lon="5.19208">
        <ele>1309</ele>
        <time>2026-05-25T12:51:57.000Z</time>
      </trkpt>
      <trkpt lat="44.63506" lon="5.19208">
        <ele>1310</ele>
        <time>2026-05-25T12:51:58.000Z</time>
      </trkpt>
      <trkpt lat="44.63504" lon="5.19209">
        <ele>1310</ele>
        <time>2026-05-25T12:51:59.000Z</time>
      </trkpt>
      <trkpt lat="44.63503" lon="5.1921">
        <ele>1310</ele>
        <time>2026-05-25T12:52:00.000Z</time>
      </trkpt>
      <trkpt lat="44.63502" lon="5.19211">
        <ele>1310</ele>
        <time>2026-05-25T12:52:01.000Z</time>
      </trkpt>
      <trkpt lat="44.63501" lon="5.19212">
        <ele>1310</ele>
        <time>2026-05-25T12:52:02.000Z</time>
      </trkpt>
      <trkpt lat="44.635" lon="5.19212">
        <ele>1311</ele>
        <time>2026-05-25T12:52:03.000Z</time>
      </trkpt>
      <trkpt lat="44.63499" lon="5.19214">
        <ele>1310</ele>
        <time>2026-05-25T12:52:04.000Z</time>
      </trkpt>
      <trkpt lat="44.63499" lon="5.19216">
        <ele>1311</ele>
        <time>2026-05-25T12:52:05.000Z</time>
      </trkpt>
      <trkpt lat="44.63499" lon="5.19216">
        <ele>1311</ele>
        <time>2026-05-25T12:52:06.000Z</time>
      </trkpt>
      <trkpt lat="44.63498" lon="5.19218">
        <ele>1310</ele>
        <time>2026-05-25T12:52:07.000Z</time>
      </trkpt>
      <trkpt lat="44.63498" lon="5.19218">
        <ele>1310</ele>
        <time>2026-05-25T12:52:08.000Z</time>
      </trkpt>
      <trkpt lat="44.63497" lon="5.1922">
        <ele>1311</ele>
        <time>2026-05-25T12:52:09.000Z</time>
      </trkpt>
      <trkpt lat="44.63497" lon="5.1922">
        <ele>1312</ele>
        <time>2026-05-25T12:52:10.000Z</time>
      </trkpt>
      <trkpt lat="44.63496" lon="5.19221">
        <ele>1312</ele>
        <time>2026-05-25T12:52:11.000Z</time>
      </trkpt>
      <trkpt lat="44.63495" lon="5.19222">
        <ele>1312</ele>
        <time>2026-05-25T12:52:12.000Z</time>
      </trkpt>
      <trkpt lat="44.63494" lon="5.19223">
        <ele>1313</ele>
        <time>2026-05-25T12:52:13.000Z</time>
      </trkpt>
      <trkpt lat="44.63493" lon="5.19223">
        <ele>1313</ele>
        <time>2026-05-25T12:52:14.000Z</time>
      </trkpt>
      <trkpt lat="44.63492" lon="5.19224">
        <ele>1313</ele>
        <time>2026-05-25T12:52:15.000Z</time>
      </trkpt>
      <trkpt lat="44.63493" lon="5.19223">
        <ele>1313</ele>
        <time>2026-05-25T12:52:16.000Z</time>
      </trkpt>
      <trkpt lat="44.63492" lon="5.19223">
        <ele>1312</ele>
        <time>2026-05-25T12:52:17.000Z</time>
      </trkpt>
      <trkpt lat="44.63491" lon="5.19224">
        <ele>1313</ele>
        <time>2026-05-25T12:52:18.000Z</time>
      </trkpt>
      <trkpt lat="44.6349" lon="5.19224">
        <ele>1312</ele>
        <time>2026-05-25T12:52:19.000Z</time>
      </trkpt>
      <trkpt lat="44.63489" lon="5.19224">
        <ele>1312</ele>
        <time>2026-05-25T12:52:20.000Z</time>
      </trkpt>
      <trkpt lat="44.63487" lon="5.19224">
        <ele>1312</ele>
        <time>2026-05-25T12:52:21.000Z</time>
      </trkpt>
      <trkpt lat="44.63486" lon="5.19224">
        <ele>1312</ele>
        <time>2026-05-25T12:52:22.000Z</time>
      </trkpt>
      <trkpt lat="44.63486" lon="5.19227">
        <ele>1312</ele>
        <time>2026-05-25T12:52:23.000Z</time>
      </trkpt>
      <trkpt lat="44.63484" lon="5.19228">
        <ele>1312</ele>
        <time>2026-05-25T12:52:24.000Z</time>
      </trkpt>
      <trkpt lat="44.63483" lon="5.19229">
        <ele>1312</ele>
        <time>2026-05-25T12:52:25.000Z</time>
      </trkpt>
      <trkpt lat="44.63483" lon="5.19229">
        <ele>1313</ele>
        <time>2026-05-25T12:52:26.000Z</time>
      </trkpt>
      <trkpt lat="44.63482" lon="5.19231">
        <ele>1315</ele>
        <time>2026-05-25T12:52:27.000Z</time>
      </trkpt>
      <trkpt lat="44.63481" lon="5.19231">
        <ele>1315</ele>
        <time>2026-05-25T12:52:28.000Z</time>
      </trkpt>
      <trkpt lat="44.63481" lon="5.19231">
        <ele>1315</ele>
        <time>2026-05-25T12:52:29.000Z</time>
      </trkpt>
      <trkpt lat="44.6348" lon="5.19231">
        <ele>1315</ele>
        <time>2026-05-25T12:52:30.000Z</time>
      </trkpt>
      <trkpt lat="44.6348" lon="5.19231">
        <ele>1316</ele>
        <time>2026-05-25T12:52:31.000Z</time>
      </trkpt>
      <trkpt lat="44.63479" lon="5.19232">
        <ele>1317</ele>
        <time>2026-05-25T12:52:32.000Z</time>
      </trkpt>
      <trkpt lat="44.63478" lon="5.19232">
        <ele>1317</ele>
        <time>2026-05-25T12:52:33.000Z</time>
      </trkpt>
      <trkpt lat="44.63477" lon="5.19232">
        <ele>1318</ele>
        <time>2026-05-25T12:52:34.000Z</time>
      </trkpt>
      <trkpt lat="44.63476" lon="5.19233">
        <ele>1320</ele>
        <time>2026-05-25T12:52:35.000Z</time>
      </trkpt>
      <trkpt lat="44.63475" lon="5.19235">
        <ele>1320</ele>
        <time>2026-05-25T12:52:36.000Z</time>
      </trkpt>
      <trkpt lat="44.63474" lon="5.19235">
        <ele>1321</ele>
        <time>2026-05-25T12:52:37.000Z</time>
      </trkpt>
      <trkpt lat="44.63473" lon="5.19236">
        <ele>1321</ele>
        <time>2026-05-25T12:52:38.000Z</time>
      </trkpt>
      <trkpt lat="44.63472" lon="5.19238">
        <ele>1321</ele>
        <time>2026-05-25T12:52:39.000Z</time>
      </trkpt>
      <trkpt lat="44.63472" lon="5.19239">
        <ele>1321</ele>
        <time>2026-05-25T12:52:40.000Z</time>
      </trkpt>
      <trkpt lat="44.63471" lon="5.1924">
        <ele>1320</ele>
        <time>2026-05-25T12:52:41.000Z</time>
      </trkpt>
      <trkpt lat="44.63469" lon="5.1924">
        <ele>1321</ele>
        <time>2026-05-25T12:52:42.000Z</time>
      </trkpt>
      <trkpt lat="44.63468" lon="5.1924">
        <ele>1321</ele>
        <time>2026-05-25T12:52:43.000Z</time>
      </trkpt>
      <trkpt lat="44.63469" lon="5.19241">
        <ele>1322</ele>
        <time>2026-05-25T12:52:44.000Z</time>
      </trkpt>
      <trkpt lat="44.63468" lon="5.19242">
        <ele>1322</ele>
        <time>2026-05-25T12:52:45.000Z</time>
      </trkpt>
      <trkpt lat="44.63467" lon="5.19244">
        <ele>1322</ele>
        <time>2026-05-25T12:52:46.000Z</time>
      </trkpt>
      <trkpt lat="44.63466" lon="5.19245">
        <ele>1322</ele>
        <time>2026-05-25T12:52:47.000Z</time>
      </trkpt>
      <trkpt lat="44.63466" lon="5.19247">
        <ele>1322</ele>
        <time>2026-05-25T12:52:48.000Z</time>
      </trkpt>
      <trkpt lat="44.63465" lon="5.19248">
        <ele>1322</ele>
        <time>2026-05-25T12:52:49.000Z</time>
      </trkpt>
      <trkpt lat="44.63465" lon="5.1925">
        <ele>1322</ele>
        <time>2026-05-25T12:52:50.000Z</time>
      </trkpt>
      <trkpt lat="44.63464" lon="5.19251">
        <ele>1321</ele>
        <time>2026-05-25T12:52:51.000Z</time>
      </trkpt>
      <trkpt lat="44.63463" lon="5.19252">
        <ele>1321</ele>
        <time>2026-05-25T12:52:52.000Z</time>
      </trkpt>
      <trkpt lat="44.63463" lon="5.19254">
        <ele>1321</ele>
        <time>2026-05-25T12:52:53.000Z</time>
      </trkpt>
      <trkpt lat="44.63463" lon="5.19254">
        <ele>1322</ele>
        <time>2026-05-25T12:52:54.000Z</time>
      </trkpt>
      <trkpt lat="44.63462" lon="5.19255">
        <ele>1323</ele>
        <time>2026-05-25T12:52:55.000Z</time>
      </trkpt>
      <trkpt lat="44.63461" lon="5.19256">
        <ele>1323</ele>
        <time>2026-05-25T12:52:56.000Z</time>
      </trkpt>
      <trkpt lat="44.63461" lon="5.19257">
        <ele>1324</ele>
        <time>2026-05-25T12:52:57.000Z</time>
      </trkpt>
      <trkpt lat="44.6346" lon="5.19259">
        <ele>1324</ele>
        <time>2026-05-25T12:52:58.000Z</time>
      </trkpt>
      <trkpt lat="44.63459" lon="5.19259">
        <ele>1324</ele>
        <time>2026-05-25T12:52:59.000Z</time>
      </trkpt>
      <trkpt lat="44.63458" lon="5.1926">
        <ele>1324</ele>
        <time>2026-05-25T12:53:00.000Z</time>
      </trkpt>
      <trkpt lat="44.63457" lon="5.1926">
        <ele>1324</ele>
        <time>2026-05-25T12:53:01.000Z</time>
      </trkpt>
      <trkpt lat="44.63456" lon="5.19261">
        <ele>1325</ele>
        <time>2026-05-25T12:53:02.000Z</time>
      </trkpt>
      <trkpt lat="44.63456" lon="5.19264">
        <ele>1326</ele>
        <time>2026-05-25T12:53:03.000Z</time>
      </trkpt>
      <trkpt lat="44.63455" lon="5.19266">
        <ele>1325</ele>
        <time>2026-05-25T12:53:04.000Z</time>
      </trkpt>
      <trkpt lat="44.63455" lon="5.19267">
        <ele>1325</ele>
        <time>2026-05-25T12:53:05.000Z</time>
      </trkpt>
      <trkpt lat="44.63454" lon="5.19269">
        <ele>1325</ele>
        <time>2026-05-25T12:53:06.000Z</time>
      </trkpt>
      <trkpt lat="44.63453" lon="5.1927">
        <ele>1325</ele>
        <time>2026-05-25T12:53:07.000Z</time>
      </trkpt>
      <trkpt lat="44.63452" lon="5.19271">
        <ele>1325</ele>
        <time>2026-05-25T12:53:08.000Z</time>
      </trkpt>
      <trkpt lat="44.63451" lon="5.19272">
        <ele>1325</ele>
        <time>2026-05-25T12:53:09.000Z</time>
      </trkpt>
      <trkpt lat="44.6345" lon="5.19273">
        <ele>1325</ele>
        <time>2026-05-25T12:53:10.000Z</time>
      </trkpt>
      <trkpt lat="44.63449" lon="5.19274">
        <ele>1325</ele>
        <time>2026-05-25T12:53:11.000Z</time>
      </trkpt>
      <trkpt lat="44.63449" lon="5.19275">
        <ele>1325</ele>
        <time>2026-05-25T12:53:12.000Z</time>
      </trkpt>
      <trkpt lat="44.63448" lon="5.19275">
        <ele>1325</ele>
        <time>2026-05-25T12:53:13.000Z</time>
      </trkpt>
      <trkpt lat="44.63448" lon="5.19275">
        <ele>1326</ele>
        <time>2026-05-25T12:53:14.000Z</time>
      </trkpt>
      <trkpt lat="44.63447" lon="5.19276">
        <ele>1326</ele>
        <time>2026-05-25T12:53:15.000Z</time>
      </trkpt>
      <trkpt lat="44.63446" lon="5.19276">
        <ele>1327</ele>
        <time>2026-05-25T12:53:16.000Z</time>
      </trkpt>
      <trkpt lat="44.63446" lon="5.19276">
        <ele>1326</ele>
        <time>2026-05-25T12:53:17.000Z</time>
      </trkpt>
      <trkpt lat="44.63445" lon="5.19278">
        <ele>1327</ele>
        <time>2026-05-25T12:53:18.000Z</time>
      </trkpt>
      <trkpt lat="44.63445" lon="5.19279">
        <ele>1326</ele>
        <time>2026-05-25T12:53:19.000Z</time>
      </trkpt>
      <trkpt lat="44.63443" lon="5.19281">
        <ele>1327</ele>
        <time>2026-05-25T12:53:20.000Z</time>
      </trkpt>
      <trkpt lat="44.63443" lon="5.19282">
        <ele>1328</ele>
        <time>2026-05-25T12:53:21.000Z</time>
      </trkpt>
      <trkpt lat="44.63442" lon="5.19282">
        <ele>1328</ele>
        <time>2026-05-25T12:53:22.000Z</time>
      </trkpt>
      <trkpt lat="44.63442" lon="5.19283">
        <ele>1328</ele>
        <time>2026-05-25T12:53:23.000Z</time>
      </trkpt>
      <trkpt lat="44.63441" lon="5.19284">
        <ele>1328</ele>
        <time>2026-05-25T12:53:24.000Z</time>
      </trkpt>
      <trkpt lat="44.63441" lon="5.19285">
        <ele>1329</ele>
        <time>2026-05-25T12:53:25.000Z</time>
      </trkpt>
      <trkpt lat="44.63439" lon="5.19285">
        <ele>1329</ele>
        <time>2026-05-25T12:53:26.000Z</time>
      </trkpt>
      <trkpt lat="44.63438" lon="5.19286">
        <ele>1329</ele>
        <time>2026-05-25T12:53:27.000Z</time>
      </trkpt>
      <trkpt lat="44.63436" lon="5.19287">
        <ele>1330</ele>
        <time>2026-05-25T12:53:28.000Z</time>
      </trkpt>
      <trkpt lat="44.63435" lon="5.19288">
        <ele>1329</ele>
        <time>2026-05-25T12:53:29.000Z</time>
      </trkpt>
      <trkpt lat="44.63435" lon="5.1929">
        <ele>1330</ele>
        <time>2026-05-25T12:53:30.000Z</time>
      </trkpt>
      <trkpt lat="44.63434" lon="5.19291">
        <ele>1330</ele>
        <time>2026-05-25T12:53:31.000Z</time>
      </trkpt>
      <trkpt lat="44.63433" lon="5.19292">
        <ele>1330</ele>
        <time>2026-05-25T12:53:32.000Z</time>
      </trkpt>
      <trkpt lat="44.63431" lon="5.19293">
        <ele>1331</ele>
        <time>2026-05-25T12:53:33.000Z</time>
      </trkpt>
      <trkpt lat="44.6343" lon="5.19294">
        <ele>1330</ele>
        <time>2026-05-25T12:53:34.000Z</time>
      </trkpt>
      <trkpt lat="44.6343" lon="5.19295">
        <ele>1330</ele>
        <time>2026-05-25T12:53:35.000Z</time>
      </trkpt>
      <trkpt lat="44.63429" lon="5.19297">
        <ele>1330</ele>
        <time>2026-05-25T12:53:36.000Z</time>
      </trkpt>
      <trkpt lat="44.63428" lon="5.19299">
        <ele>1330</ele>
        <time>2026-05-25T12:53:37.000Z</time>
      </trkpt>
      <trkpt lat="44.63427" lon="5.193">
        <ele>1330</ele>
        <time>2026-05-25T12:53:38.000Z</time>
      </trkpt>
      <trkpt lat="44.63427" lon="5.193">
        <ele>1331</ele>
        <time>2026-05-25T12:53:39.000Z</time>
      </trkpt>
      <trkpt lat="44.63426" lon="5.19302">
        <ele>1331</ele>
        <time>2026-05-25T12:53:40.000Z</time>
      </trkpt>
      <trkpt lat="44.63427" lon="5.19304">
        <ele>1331</ele>
        <time>2026-05-25T12:53:41.000Z</time>
      </trkpt>
      <trkpt lat="44.63425" lon="5.19305">
        <ele>1331</ele>
        <time>2026-05-25T12:53:42.000Z</time>
      </trkpt>
      <trkpt lat="44.63425" lon="5.19306">
        <ele>1331</ele>
        <time>2026-05-25T12:53:43.000Z</time>
      </trkpt>
      <trkpt lat="44.63423" lon="5.19306">
        <ele>1332</ele>
        <time>2026-05-25T12:53:44.000Z</time>
      </trkpt>
      <trkpt lat="44.63422" lon="5.19306">
        <ele>1332</ele>
        <time>2026-05-25T12:53:45.000Z</time>
      </trkpt>
      <trkpt lat="44.63421" lon="5.19307">
        <ele>1332</ele>
        <time>2026-05-25T12:53:46.000Z</time>
      </trkpt>
      <trkpt lat="44.6342" lon="5.19308">
        <ele>1334</ele>
        <time>2026-05-25T12:53:47.000Z</time>
      </trkpt>
      <trkpt lat="44.6342" lon="5.19309">
        <ele>1334</ele>
        <time>2026-05-25T12:53:48.000Z</time>
      </trkpt>
      <trkpt lat="44.63419" lon="5.1931">
        <ele>1334</ele>
        <time>2026-05-25T12:53:49.000Z</time>
      </trkpt>
      <trkpt lat="44.63418" lon="5.1931">
        <ele>1334</ele>
        <time>2026-05-25T12:53:50.000Z</time>
      </trkpt>
      <trkpt lat="44.63417" lon="5.19312">
        <ele>1334</ele>
        <time>2026-05-25T12:53:51.000Z</time>
      </trkpt>
      <trkpt lat="44.63416" lon="5.19314">
        <ele>1335</ele>
        <time>2026-05-25T12:53:52.000Z</time>
      </trkpt>
      <trkpt lat="44.63415" lon="5.19314">
        <ele>1335</ele>
        <time>2026-05-25T12:53:53.000Z</time>
      </trkpt>
      <trkpt lat="44.63414" lon="5.19315">
        <ele>1334</ele>
        <time>2026-05-25T12:53:54.000Z</time>
      </trkpt>
      <trkpt lat="44.63413" lon="5.19317">
        <ele>1335</ele>
        <time>2026-05-25T12:53:55.000Z</time>
      </trkpt>
      <trkpt lat="44.63412" lon="5.19318">
        <ele>1335</ele>
        <time>2026-05-25T12:53:56.000Z</time>
      </trkpt>
      <trkpt lat="44.63411" lon="5.1932">
        <ele>1335</ele>
        <time>2026-05-25T12:53:57.000Z</time>
      </trkpt>
      <trkpt lat="44.63411" lon="5.1932">
        <ele>1335</ele>
        <time>2026-05-25T12:53:58.000Z</time>
      </trkpt>
      <trkpt lat="44.6341" lon="5.19319">
        <ele>1334</ele>
        <time>2026-05-25T12:53:59.000Z</time>
      </trkpt>
      <trkpt lat="44.63409" lon="5.1932">
        <ele>1334</ele>
        <time>2026-05-25T12:54:00.000Z</time>
      </trkpt>
      <trkpt lat="44.63408" lon="5.19322">
        <ele>1335</ele>
        <time>2026-05-25T12:54:01.000Z</time>
      </trkpt>
      <trkpt lat="44.63408" lon="5.19324">
        <ele>1335</ele>
        <time>2026-05-25T12:54:02.000Z</time>
      </trkpt>
      <trkpt lat="44.63407" lon="5.19326">
        <ele>1335</ele>
        <time>2026-05-25T12:54:03.000Z</time>
      </trkpt>
      <trkpt lat="44.63406" lon="5.19326">
        <ele>1334</ele>
        <time>2026-05-25T12:54:04.000Z</time>
      </trkpt>
      <trkpt lat="44.63405" lon="5.19326">
        <ele>1335</ele>
        <time>2026-05-25T12:54:05.000Z</time>
      </trkpt>
      <trkpt lat="44.63404" lon="5.19327">
        <ele>1335</ele>
        <time>2026-05-25T12:54:06.000Z</time>
      </trkpt>
      <trkpt lat="44.63403" lon="5.19328">
        <ele>1335</ele>
        <time>2026-05-25T12:54:07.000Z</time>
      </trkpt>
      <trkpt lat="44.63402" lon="5.19329">
        <ele>1335</ele>
        <time>2026-05-25T12:54:08.000Z</time>
      </trkpt>
      <trkpt lat="44.63401" lon="5.1933">
        <ele>1335</ele>
        <time>2026-05-25T12:54:09.000Z</time>
      </trkpt>
      <trkpt lat="44.63401" lon="5.19331">
        <ele>1336</ele>
        <time>2026-05-25T12:54:10.000Z</time>
      </trkpt>
      <trkpt lat="44.63401" lon="5.19333">
        <ele>1336</ele>
        <time>2026-05-25T12:54:11.000Z</time>
      </trkpt>
      <trkpt lat="44.634" lon="5.19334">
        <ele>1337</ele>
        <time>2026-05-25T12:54:12.000Z</time>
      </trkpt>
      <trkpt lat="44.63399" lon="5.19335">
        <ele>1337</ele>
        <time>2026-05-25T12:54:13.000Z</time>
      </trkpt>
      <trkpt lat="44.63398" lon="5.19335">
        <ele>1337</ele>
        <time>2026-05-25T12:54:14.000Z</time>
      </trkpt>
      <trkpt lat="44.63397" lon="5.19337">
        <ele>1338</ele>
        <time>2026-05-25T12:54:15.000Z</time>
      </trkpt>
      <trkpt lat="44.63396" lon="5.19338">
        <ele>1338</ele>
        <time>2026-05-25T12:54:16.000Z</time>
      </trkpt>
      <trkpt lat="44.63395" lon="5.1934">
        <ele>1338</ele>
        <time>2026-05-25T12:54:17.000Z</time>
      </trkpt>
      <trkpt lat="44.63394" lon="5.1934">
        <ele>1339</ele>
        <time>2026-05-25T12:54:18.000Z</time>
      </trkpt>
      <trkpt lat="44.63394" lon="5.1934">
        <ele>1339</ele>
        <time>2026-05-25T12:54:19.000Z</time>
      </trkpt>
      <trkpt lat="44.63393" lon="5.19341">
        <ele>1339</ele>
        <time>2026-05-25T12:54:20.000Z</time>
      </trkpt>
      <trkpt lat="44.63393" lon="5.19341">
        <ele>1339</ele>
        <time>2026-05-25T12:54:21.000Z</time>
      </trkpt>
      <trkpt lat="44.63392" lon="5.19341">
        <ele>1339</ele>
        <time>2026-05-25T12:54:22.000Z</time>
      </trkpt>
      <trkpt lat="44.63391" lon="5.19342">
        <ele>1339</ele>
        <time>2026-05-25T12:54:23.000Z</time>
      </trkpt>
      <trkpt lat="44.6339" lon="5.19343">
        <ele>1340</ele>
        <time>2026-05-25T12:54:24.000Z</time>
      </trkpt>
      <trkpt lat="44.63389" lon="5.19344">
        <ele>1340</ele>
        <time>2026-05-25T12:54:25.000Z</time>
      </trkpt>
      <trkpt lat="44.63388" lon="5.19346">
        <ele>1341</ele>
        <time>2026-05-25T12:54:26.000Z</time>
      </trkpt>
      <trkpt lat="44.63387" lon="5.19346">
        <ele>1341</ele>
        <time>2026-05-25T12:54:27.000Z</time>
      </trkpt>
      <trkpt lat="44.63386" lon="5.19347">
        <ele>1340</ele>
        <time>2026-05-25T12:54:28.000Z</time>
      </trkpt>
      <trkpt lat="44.63384" lon="5.19347">
        <ele>1341</ele>
        <time>2026-05-25T12:54:29.000Z</time>
      </trkpt>
      <trkpt lat="44.63383" lon="5.19348">
        <ele>1341</ele>
        <time>2026-05-25T12:54:30.000Z</time>
      </trkpt>
      <trkpt lat="44.63382" lon="5.19348">
        <ele>1342</ele>
        <time>2026-05-25T12:54:31.000Z</time>
      </trkpt>
      <trkpt lat="44.63381" lon="5.19348">
        <ele>1342</ele>
        <time>2026-05-25T12:54:32.000Z</time>
      </trkpt>
      <trkpt lat="44.63379" lon="5.19349">
        <ele>1343</ele>
        <time>2026-05-25T12:54:33.000Z</time>
      </trkpt>
      <trkpt lat="44.63379" lon="5.1935">
        <ele>1343</ele>
        <time>2026-05-25T12:54:34.000Z</time>
      </trkpt>
      <trkpt lat="44.63377" lon="5.19351">
        <ele>1342</ele>
        <time>2026-05-25T12:54:35.000Z</time>
      </trkpt>
      <trkpt lat="44.63377" lon="5.19352">
        <ele>1342</ele>
        <time>2026-05-25T12:54:36.000Z</time>
      </trkpt>
      <trkpt lat="44.63376" lon="5.19354">
        <ele>1343</ele>
        <time>2026-05-25T12:54:37.000Z</time>
      </trkpt>
      <trkpt lat="44.63375" lon="5.19354">
        <ele>1343</ele>
        <time>2026-05-25T12:54:38.000Z</time>
      </trkpt>
      <trkpt lat="44.63375" lon="5.19355">
        <ele>1343</ele>
        <time>2026-05-25T12:54:39.000Z</time>
      </trkpt>
      <trkpt lat="44.63374" lon="5.19356">
        <ele>1343</ele>
        <time>2026-05-25T12:54:40.000Z</time>
      </trkpt>
      <trkpt lat="44.63374" lon="5.19357">
        <ele>1343</ele>
        <time>2026-05-25T12:54:41.000Z</time>
      </trkpt>
      <trkpt lat="44.63373" lon="5.19359">
        <ele>1342</ele>
        <time>2026-05-25T12:54:42.000Z</time>
      </trkpt>
      <trkpt lat="44.63372" lon="5.19361">
        <ele>1343</ele>
        <time>2026-05-25T12:54:43.000Z</time>
      </trkpt>
      <trkpt lat="44.63371" lon="5.1936">
        <ele>1343</ele>
        <time>2026-05-25T12:54:44.000Z</time>
      </trkpt>
      <trkpt lat="44.63371" lon="5.19361">
        <ele>1343</ele>
        <time>2026-05-25T12:54:45.000Z</time>
      </trkpt>
      <trkpt lat="44.6337" lon="5.19362">
        <ele>1343</ele>
        <time>2026-05-25T12:54:46.000Z</time>
      </trkpt>
      <trkpt lat="44.63369" lon="5.19363">
        <ele>1343</ele>
        <time>2026-05-25T12:54:47.000Z</time>
      </trkpt>
      <trkpt lat="44.63368" lon="5.19364">
        <ele>1343</ele>
        <time>2026-05-25T12:54:48.000Z</time>
      </trkpt>
      <trkpt lat="44.63366" lon="5.19364">
        <ele>1344</ele>
        <time>2026-05-25T12:54:49.000Z</time>
      </trkpt>
      <trkpt lat="44.63365" lon="5.19364">
        <ele>1344</ele>
        <time>2026-05-25T12:54:50.000Z</time>
      </trkpt>
      <trkpt lat="44.63364" lon="5.19364">
        <ele>1345</ele>
        <time>2026-05-25T12:54:51.000Z</time>
      </trkpt>
      <trkpt lat="44.63363" lon="5.19365">
        <ele>1345</ele>
        <time>2026-05-25T12:54:52.000Z</time>
      </trkpt>
      <trkpt lat="44.63362" lon="5.19366">
        <ele>1346</ele>
        <time>2026-05-25T12:54:53.000Z</time>
      </trkpt>
      <trkpt lat="44.63362" lon="5.19368">
        <ele>1345</ele>
        <time>2026-05-25T12:54:54.000Z</time>
      </trkpt>
      <trkpt lat="44.63361" lon="5.19369">
        <ele>1346</ele>
        <time>2026-05-25T12:54:55.000Z</time>
      </trkpt>
      <trkpt lat="44.6336" lon="5.1937">
        <ele>1346</ele>
        <time>2026-05-25T12:54:56.000Z</time>
      </trkpt>
      <trkpt lat="44.63359" lon="5.1937">
        <ele>1346</ele>
        <time>2026-05-25T12:54:57.000Z</time>
      </trkpt>
      <trkpt lat="44.63357" lon="5.19371">
        <ele>1346</ele>
        <time>2026-05-25T12:54:58.000Z</time>
      </trkpt>
      <trkpt lat="44.63356" lon="5.19372">
        <ele>1346</ele>
        <time>2026-05-25T12:54:59.000Z</time>
      </trkpt>
      <trkpt lat="44.63355" lon="5.19373">
        <ele>1346</ele>
        <time>2026-05-25T12:55:00.000Z</time>
      </trkpt>
      <trkpt lat="44.63354" lon="5.19374">
        <ele>1346</ele>
        <time>2026-05-25T12:55:01.000Z</time>
      </trkpt>
      <trkpt lat="44.63353" lon="5.19375">
        <ele>1346</ele>
        <time>2026-05-25T12:55:02.000Z</time>
      </trkpt>
      <trkpt lat="44.63352" lon="5.19375">
        <ele>1346</ele>
        <time>2026-05-25T12:55:03.000Z</time>
      </trkpt>
      <trkpt lat="44.63351" lon="5.19375">
        <ele>1346</ele>
        <time>2026-05-25T12:55:04.000Z</time>
      </trkpt>
      <trkpt lat="44.6335" lon="5.19376">
        <ele>1346</ele>
        <time>2026-05-25T12:55:05.000Z</time>
      </trkpt>
      <trkpt lat="44.63349" lon="5.19376">
        <ele>1346</ele>
        <time>2026-05-25T12:55:06.000Z</time>
      </trkpt>
      <trkpt lat="44.63347" lon="5.19377">
        <ele>1346</ele>
        <time>2026-05-25T12:55:07.000Z</time>
      </trkpt>
      <trkpt lat="44.63346" lon="5.19377">
        <ele>1346</ele>
        <time>2026-05-25T12:55:08.000Z</time>
      </trkpt>
      <trkpt lat="44.63345" lon="5.19378">
        <ele>1346</ele>
        <time>2026-05-25T12:55:09.000Z</time>
      </trkpt>
      <trkpt lat="44.63344" lon="5.19379">
        <ele>1346</ele>
        <time>2026-05-25T12:55:10.000Z</time>
      </trkpt>
      <trkpt lat="44.63343" lon="5.19381">
        <ele>1346</ele>
        <time>2026-05-25T12:55:11.000Z</time>
      </trkpt>
      <trkpt lat="44.63342" lon="5.19381">
        <ele>1346</ele>
        <time>2026-05-25T12:55:12.000Z</time>
      </trkpt>
      <trkpt lat="44.63341" lon="5.19381">
        <ele>1347</ele>
        <time>2026-05-25T12:55:13.000Z</time>
      </trkpt>
      <trkpt lat="44.6334" lon="5.19383">
        <ele>1346</ele>
        <time>2026-05-25T12:55:14.000Z</time>
      </trkpt>
      <trkpt lat="44.63338" lon="5.19384">
        <ele>1346</ele>
        <time>2026-05-25T12:55:15.000Z</time>
      </trkpt>
      <trkpt lat="44.63337" lon="5.19386">
        <ele>1347</ele>
        <time>2026-05-25T12:55:16.000Z</time>
      </trkpt>
      <trkpt lat="44.63336" lon="5.19387">
        <ele>1348</ele>
        <time>2026-05-25T12:55:17.000Z</time>
      </trkpt>
      <trkpt lat="44.63336" lon="5.19386">
        <ele>1348</ele>
        <time>2026-05-25T12:55:18.000Z</time>
      </trkpt>
      <trkpt lat="44.63334" lon="5.19387">
        <ele>1348</ele>
        <time>2026-05-25T12:55:19.000Z</time>
      </trkpt>
      <trkpt lat="44.63333" lon="5.19388">
        <ele>1348</ele>
        <time>2026-05-25T12:55:20.000Z</time>
      </trkpt>
      <trkpt lat="44.63332" lon="5.19389">
        <ele>1348</ele>
        <time>2026-05-25T12:55:21.000Z</time>
      </trkpt>
      <trkpt lat="44.63332" lon="5.1939">
        <ele>1348</ele>
        <time>2026-05-25T12:55:22.000Z</time>
      </trkpt>
      <trkpt lat="44.63331" lon="5.19391">
        <ele>1348</ele>
        <time>2026-05-25T12:55:23.000Z</time>
      </trkpt>
      <trkpt lat="44.6333" lon="5.19392">
        <ele>1349</ele>
        <time>2026-05-25T12:55:24.000Z</time>
      </trkpt>
      <trkpt lat="44.63329" lon="5.19393">
        <ele>1349</ele>
        <time>2026-05-25T12:55:25.000Z</time>
      </trkpt>
      <trkpt lat="44.63328" lon="5.19394">
        <ele>1349</ele>
        <time>2026-05-25T12:55:26.000Z</time>
      </trkpt>
      <trkpt lat="44.63327" lon="5.19395">
        <ele>1349</ele>
        <time>2026-05-25T12:55:27.000Z</time>
      </trkpt>
      <trkpt lat="44.63326" lon="5.19396">
        <ele>1348</ele>
        <time>2026-05-25T12:55:28.000Z</time>
      </trkpt>
      <trkpt lat="44.63326" lon="5.19398">
        <ele>1349</ele>
        <time>2026-05-25T12:55:29.000Z</time>
      </trkpt>
      <trkpt lat="44.63326" lon="5.19398">
        <ele>1350</ele>
        <time>2026-05-25T12:55:30.000Z</time>
      </trkpt>
      <trkpt lat="44.63325" lon="5.19398">
        <ele>1350</ele>
        <time>2026-05-25T12:55:31.000Z</time>
      </trkpt>
      <trkpt lat="44.63324" lon="5.19399">
        <ele>1349</ele>
        <time>2026-05-25T12:55:32.000Z</time>
      </trkpt>
      <trkpt lat="44.63323" lon="5.194">
        <ele>1349</ele>
        <time>2026-05-25T12:55:33.000Z</time>
      </trkpt>
      <trkpt lat="44.63322" lon="5.19401">
        <ele>1349</ele>
        <time>2026-05-25T12:55:34.000Z</time>
      </trkpt>
      <trkpt lat="44.63321" lon="5.19402">
        <ele>1349</ele>
        <time>2026-05-25T12:55:35.000Z</time>
      </trkpt>
      <trkpt lat="44.6332" lon="5.19404">
        <ele>1349</ele>
        <time>2026-05-25T12:55:36.000Z</time>
      </trkpt>
      <trkpt lat="44.63319" lon="5.19405">
        <ele>1350</ele>
        <time>2026-05-25T12:55:37.000Z</time>
      </trkpt>
      <trkpt lat="44.63319" lon="5.19407">
        <ele>1349</ele>
        <time>2026-05-25T12:55:38.000Z</time>
      </trkpt>
      <trkpt lat="44.63318" lon="5.19409">
        <ele>1349</ele>
        <time>2026-05-25T12:55:39.000Z</time>
      </trkpt>
      <trkpt lat="44.63317" lon="5.19411">
        <ele>1348</ele>
        <time>2026-05-25T12:55:40.000Z</time>
      </trkpt>
      <trkpt lat="44.63317" lon="5.19412">
        <ele>1348</ele>
        <time>2026-05-25T12:55:41.000Z</time>
      </trkpt>
      <trkpt lat="44.63317" lon="5.19413">
        <ele>1348</ele>
        <time>2026-05-25T12:55:42.000Z</time>
      </trkpt>
      <trkpt lat="44.63316" lon="5.19415">
        <ele>1348</ele>
        <time>2026-05-25T12:55:43.000Z</time>
      </trkpt>
      <trkpt lat="44.63317" lon="5.19417">
        <ele>1348</ele>
        <time>2026-05-25T12:55:44.000Z</time>
      </trkpt>
      <trkpt lat="44.63316" lon="5.19419">
        <ele>1349</ele>
        <time>2026-05-25T12:55:45.000Z</time>
      </trkpt>
      <trkpt lat="44.63316" lon="5.19421">
        <ele>1350</ele>
        <time>2026-05-25T12:55:46.000Z</time>
      </trkpt>
      <trkpt lat="44.63316" lon="5.19423">
        <ele>1350</ele>
        <time>2026-05-25T12:55:47.000Z</time>
      </trkpt>
      <trkpt lat="44.63316" lon="5.19425">
        <ele>1351</ele>
        <time>2026-05-25T12:55:48.000Z</time>
      </trkpt>
      <trkpt lat="44.63317" lon="5.19427">
        <ele>1351</ele>
        <time>2026-05-25T12:55:49.000Z</time>
      </trkpt>
      <trkpt lat="44.63317" lon="5.19428">
        <ele>1351</ele>
        <time>2026-05-25T12:55:50.000Z</time>
      </trkpt>
      <trkpt lat="44.63318" lon="5.19429">
        <ele>1352</ele>
        <time>2026-05-25T12:55:51.000Z</time>
      </trkpt>
      <trkpt lat="44.63318" lon="5.1943">
        <ele>1352</ele>
        <time>2026-05-25T12:55:52.000Z</time>
      </trkpt>
      <trkpt lat="44.63318" lon="5.19431">
        <ele>1352</ele>
        <time>2026-05-25T12:55:53.000Z</time>
      </trkpt>
      <trkpt lat="44.63319" lon="5.19433">
        <ele>1353</ele>
        <time>2026-05-25T12:55:54.000Z</time>
      </trkpt>
      <trkpt lat="44.6332" lon="5.19434">
        <ele>1353</ele>
        <time>2026-05-25T12:55:55.000Z</time>
      </trkpt>
      <trkpt lat="44.6332" lon="5.19435">
        <ele>1354</ele>
        <time>2026-05-25T12:55:56.000Z</time>
      </trkpt>
      <trkpt lat="44.63321" lon="5.19436">
        <ele>1354</ele>
        <time>2026-05-25T12:55:57.000Z</time>
      </trkpt>
      <trkpt lat="44.63322" lon="5.19438">
        <ele>1354</ele>
        <time>2026-05-25T12:55:58.000Z</time>
      </trkpt>
      <trkpt lat="44.63322" lon="5.19438">
        <ele>1354</ele>
        <time>2026-05-25T12:55:59.000Z</time>
      </trkpt>
      <trkpt lat="44.63323" lon="5.1944">
        <ele>1353</ele>
        <time>2026-05-25T12:56:00.000Z</time>
      </trkpt>
      <trkpt lat="44.63323" lon="5.19442">
        <ele>1353</ele>
        <time>2026-05-25T12:56:01.000Z</time>
      </trkpt>
      <trkpt lat="44.63324" lon="5.19443">
        <ele>1353</ele>
        <time>2026-05-25T12:56:02.000Z</time>
      </trkpt>
      <trkpt lat="44.63325" lon="5.19445">
        <ele>1353</ele>
        <time>2026-05-25T12:56:03.000Z</time>
      </trkpt>
      <trkpt lat="44.63325" lon="5.19446">
        <ele>1353</ele>
        <time>2026-05-25T12:56:04.000Z</time>
      </trkpt>
      <trkpt lat="44.63326" lon="5.19448">
        <ele>1354</ele>
        <time>2026-05-25T12:56:05.000Z</time>
      </trkpt>
      <trkpt lat="44.63326" lon="5.19449">
        <ele>1354</ele>
        <time>2026-05-25T12:56:06.000Z</time>
      </trkpt>
      <trkpt lat="44.63327" lon="5.1945">
        <ele>1355</ele>
        <time>2026-05-25T12:56:07.000Z</time>
      </trkpt>
      <trkpt lat="44.63328" lon="5.19452">
        <ele>1356</ele>
        <time>2026-05-25T12:56:08.000Z</time>
      </trkpt>
      <trkpt lat="44.63327" lon="5.19453">
        <ele>1356</ele>
        <time>2026-05-25T12:56:09.000Z</time>
      </trkpt>
      <trkpt lat="44.63328" lon="5.19454">
        <ele>1358</ele>
        <time>2026-05-25T12:56:10.000Z</time>
      </trkpt>
      <trkpt lat="44.63329" lon="5.19456">
        <ele>1357</ele>
        <time>2026-05-25T12:56:11.000Z</time>
      </trkpt>
      <trkpt lat="44.63328" lon="5.19457">
        <ele>1357</ele>
        <time>2026-05-25T12:56:12.000Z</time>
      </trkpt>
      <trkpt lat="44.63328" lon="5.19458">
        <ele>1357</ele>
        <time>2026-05-25T12:56:13.000Z</time>
      </trkpt>
      <trkpt lat="44.63328" lon="5.1946">
        <ele>1357</ele>
        <time>2026-05-25T12:56:14.000Z</time>
      </trkpt>
      <trkpt lat="44.63328" lon="5.19461">
        <ele>1358</ele>
        <time>2026-05-25T12:56:15.000Z</time>
      </trkpt>
      <trkpt lat="44.63328" lon="5.19463">
        <ele>1359</ele>
        <time>2026-05-25T12:56:16.000Z</time>
      </trkpt>
      <trkpt lat="44.63329" lon="5.19465">
        <ele>1359</ele>
        <time>2026-05-25T12:56:17.000Z</time>
      </trkpt>
      <trkpt lat="44.63329" lon="5.19466">
        <ele>1359</ele>
        <time>2026-05-25T12:56:18.000Z</time>
      </trkpt>
      <trkpt lat="44.6333" lon="5.19467">
        <ele>1359</ele>
        <time>2026-05-25T12:56:19.000Z</time>
      </trkpt>
      <trkpt lat="44.63328" lon="5.19468">
        <ele>1359</ele>
        <time>2026-05-25T12:56:20.000Z</time>
      </trkpt>
      <trkpt lat="44.63328" lon="5.1947">
        <ele>1358</ele>
        <time>2026-05-25T12:56:21.000Z</time>
      </trkpt>
      <trkpt lat="44.63328" lon="5.19472">
        <ele>1358</ele>
        <time>2026-05-25T12:56:22.000Z</time>
      </trkpt>
      <trkpt lat="44.63329" lon="5.19475">
        <ele>1358</ele>
        <time>2026-05-25T12:56:23.000Z</time>
      </trkpt>
      <trkpt lat="44.6333" lon="5.19475">
        <ele>1358</ele>
        <time>2026-05-25T12:56:24.000Z</time>
      </trkpt>
      <trkpt lat="44.6333" lon="5.19477">
        <ele>1358</ele>
        <time>2026-05-25T12:56:25.000Z</time>
      </trkpt>
      <trkpt lat="44.6333" lon="5.19478">
        <ele>1358</ele>
        <time>2026-05-25T12:56:26.000Z</time>
      </trkpt>
      <trkpt lat="44.6333" lon="5.1948">
        <ele>1358</ele>
        <time>2026-05-25T12:56:27.000Z</time>
      </trkpt>
      <trkpt lat="44.63331" lon="5.19482">
        <ele>1357</ele>
        <time>2026-05-25T12:56:28.000Z</time>
      </trkpt>
      <trkpt lat="44.6333" lon="5.19483">
        <ele>1357</ele>
        <time>2026-05-25T12:56:29.000Z</time>
      </trkpt>
      <trkpt lat="44.63329" lon="5.19484">
        <ele>1359</ele>
        <time>2026-05-25T12:56:30.000Z</time>
      </trkpt>
      <trkpt lat="44.63329" lon="5.19485">
        <ele>1358</ele>
        <time>2026-05-25T12:56:31.000Z</time>
      </trkpt>
      <trkpt lat="44.6333" lon="5.19487">
        <ele>1359</ele>
        <time>2026-05-25T12:56:32.000Z</time>
      </trkpt>
      <trkpt lat="44.63331" lon="5.19488">
        <ele>1359</ele>
        <time>2026-05-25T12:56:33.000Z</time>
      </trkpt>
      <trkpt lat="44.63329" lon="5.19489">
        <ele>1359</ele>
        <time>2026-05-25T12:56:34.000Z</time>
      </trkpt>
      <trkpt lat="44.63329" lon="5.1949">
        <ele>1360</ele>
        <time>2026-05-25T12:56:35.000Z</time>
      </trkpt>
      <trkpt lat="44.6333" lon="5.19492">
        <ele>1360</ele>
        <time>2026-05-25T12:56:36.000Z</time>
      </trkpt>
      <trkpt lat="44.63331" lon="5.19493">
        <ele>1360</ele>
        <time>2026-05-25T12:56:37.000Z</time>
      </trkpt>
      <trkpt lat="44.63331" lon="5.19495">
        <ele>1360</ele>
        <time>2026-05-25T12:56:38.000Z</time>
      </trkpt>
      <trkpt lat="44.63332" lon="5.19496">
        <ele>1360</ele>
        <time>2026-05-25T12:56:39.000Z</time>
      </trkpt>
      <trkpt lat="44.63332" lon="5.19497">
        <ele>1360</ele>
        <time>2026-05-25T12:56:40.000Z</time>
      </trkpt>
      <trkpt lat="44.63333" lon="5.19498">
        <ele>1360</ele>
        <time>2026-05-25T12:56:41.000Z</time>
      </trkpt>
      <trkpt lat="44.63333" lon="5.195">
        <ele>1360</ele>
        <time>2026-05-25T12:56:42.000Z</time>
      </trkpt>
      <trkpt lat="44.63333" lon="5.195">
        <ele>1361</ele>
        <time>2026-05-25T12:56:43.000Z</time>
      </trkpt>
      <trkpt lat="44.63333" lon="5.19501">
        <ele>1361</ele>
        <time>2026-05-25T12:56:44.000Z</time>
      </trkpt>
      <trkpt lat="44.63333" lon="5.19502">
        <ele>1362</ele>
        <time>2026-05-25T12:56:45.000Z</time>
      </trkpt>
      <trkpt lat="44.63334" lon="5.19503">
        <ele>1362</ele>
        <time>2026-05-25T12:56:46.000Z</time>
      </trkpt>
      <trkpt lat="44.63334" lon="5.19503">
        <ele>1363</ele>
        <time>2026-05-25T12:56:47.000Z</time>
      </trkpt>
      <trkpt lat="44.63334" lon="5.19505">
        <ele>1363</ele>
        <time>2026-05-25T12:56:48.000Z</time>
      </trkpt>
      <trkpt lat="44.63335" lon="5.19506">
        <ele>1363</ele>
        <time>2026-05-25T12:56:49.000Z</time>
      </trkpt>
      <trkpt lat="44.63335" lon="5.19507">
        <ele>1363</ele>
        <time>2026-05-25T12:56:50.000Z</time>
      </trkpt>
      <trkpt lat="44.63335" lon="5.19508">
        <ele>1363</ele>
        <time>2026-05-25T12:56:51.000Z</time>
      </trkpt>
      <trkpt lat="44.63335" lon="5.1951">
        <ele>1363</ele>
        <time>2026-05-25T12:56:52.000Z</time>
      </trkpt>
      <trkpt lat="44.63336" lon="5.19512">
        <ele>1363</ele>
        <time>2026-05-25T12:56:53.000Z</time>
      </trkpt>
      <trkpt lat="44.63337" lon="5.19514">
        <ele>1364</ele>
        <time>2026-05-25T12:56:54.000Z</time>
      </trkpt>
      <trkpt lat="44.63337" lon="5.19516">
        <ele>1364</ele>
        <time>2026-05-25T12:56:55.000Z</time>
      </trkpt>
      <trkpt lat="44.63338" lon="5.19516">
        <ele>1365</ele>
        <time>2026-05-25T12:56:56.000Z</time>
      </trkpt>
      <trkpt lat="44.63338" lon="5.19517">
        <ele>1365</ele>
        <time>2026-05-25T12:56:57.000Z</time>
      </trkpt>
      <trkpt lat="44.63338" lon="5.19517">
        <ele>1365</ele>
        <time>2026-05-25T12:56:58.000Z</time>
      </trkpt>
      <trkpt lat="44.63338" lon="5.19519">
        <ele>1366</ele>
        <time>2026-05-25T12:56:59.000Z</time>
      </trkpt>
      <trkpt lat="44.63338" lon="5.1952">
        <ele>1366</ele>
        <time>2026-05-25T12:57:00.000Z</time>
      </trkpt>
      <trkpt lat="44.63339" lon="5.19521">
        <ele>1367</ele>
        <time>2026-05-25T12:57:01.000Z</time>
      </trkpt>
      <trkpt lat="44.63339" lon="5.19522">
        <ele>1365</ele>
        <time>2026-05-25T12:57:02.000Z</time>
      </trkpt>
      <trkpt lat="44.63338" lon="5.19523">
        <ele>1366</ele>
        <time>2026-05-25T12:57:03.000Z</time>
      </trkpt>
      <trkpt lat="44.63338" lon="5.19524">
        <ele>1367</ele>
        <time>2026-05-25T12:57:04.000Z</time>
      </trkpt>
      <trkpt lat="44.63338" lon="5.19525">
        <ele>1367</ele>
        <time>2026-05-25T12:57:05.000Z</time>
      </trkpt>
      <trkpt lat="44.63339" lon="5.19527">
        <ele>1367</ele>
        <time>2026-05-25T12:57:06.000Z</time>
      </trkpt>
      <trkpt lat="44.63339" lon="5.19527">
        <ele>1367</ele>
        <time>2026-05-25T12:57:07.000Z</time>
      </trkpt>
      <trkpt lat="44.63339" lon="5.19528">
        <ele>1368</ele>
        <time>2026-05-25T12:57:08.000Z</time>
      </trkpt>
      <trkpt lat="44.63339" lon="5.19528">
        <ele>1368</ele>
        <time>2026-05-25T12:57:09.000Z</time>
      </trkpt>
      <trkpt lat="44.6334" lon="5.19529">
        <ele>1368</ele>
        <time>2026-05-25T12:57:10.000Z</time>
      </trkpt>
      <trkpt lat="44.63338" lon="5.1953">
        <ele>1369</ele>
        <time>2026-05-25T12:57:11.000Z</time>
      </trkpt>
      <trkpt lat="44.63337" lon="5.19531">
        <ele>1369</ele>
        <time>2026-05-25T12:57:12.000Z</time>
      </trkpt>
      <trkpt lat="44.63337" lon="5.19532">
        <ele>1369</ele>
        <time>2026-05-25T12:57:13.000Z</time>
      </trkpt>
      <trkpt lat="44.63337" lon="5.19533">
        <ele>1369</ele>
        <time>2026-05-25T12:57:14.000Z</time>
      </trkpt>
      <trkpt lat="44.63338" lon="5.19535">
        <ele>1369</ele>
        <time>2026-05-25T12:57:15.000Z</time>
      </trkpt>
      <trkpt lat="44.63338" lon="5.19536">
        <ele>1369</ele>
        <time>2026-05-25T12:57:16.000Z</time>
      </trkpt>
      <trkpt lat="44.63339" lon="5.19537">
        <ele>1370</ele>
        <time>2026-05-25T12:57:17.000Z</time>
      </trkpt>
      <trkpt lat="44.63339" lon="5.19539">
        <ele>1370</ele>
        <time>2026-05-25T12:57:18.000Z</time>
      </trkpt>
      <trkpt lat="44.63339" lon="5.1954">
        <ele>1369</ele>
        <time>2026-05-25T12:57:19.000Z</time>
      </trkpt>
      <trkpt lat="44.6334" lon="5.19542">
        <ele>1369</ele>
        <time>2026-05-25T12:57:20.000Z</time>
      </trkpt>
      <trkpt lat="44.6334" lon="5.19543">
        <ele>1370</ele>
        <time>2026-05-25T12:57:21.000Z</time>
      </trkpt>
      <trkpt lat="44.63341" lon="5.19544">
        <ele>1370</ele>
        <time>2026-05-25T12:57:22.000Z</time>
      </trkpt>
      <trkpt lat="44.63341" lon="5.19544">
        <ele>1370</ele>
        <time>2026-05-25T12:57:23.000Z</time>
      </trkpt>
      <trkpt lat="44.63341" lon="5.19545">
        <ele>1371</ele>
        <time>2026-05-25T12:57:24.000Z</time>
      </trkpt>
      <trkpt lat="44.63341" lon="5.19545">
        <ele>1370</ele>
        <time>2026-05-25T12:57:25.000Z</time>
      </trkpt>
      <trkpt lat="44.63341" lon="5.19545">
        <ele>1370</ele>
        <time>2026-05-25T12:57:26.000Z</time>
      </trkpt>
      <trkpt lat="44.63341" lon="5.19544">
        <ele>1371</ele>
        <time>2026-05-25T12:57:27.000Z</time>
      </trkpt>
      <trkpt lat="44.6334" lon="5.19544">
        <ele>1372</ele>
        <time>2026-05-25T12:57:28.000Z</time>
      </trkpt>
      <trkpt lat="44.6334" lon="5.19544">
        <ele>1372</ele>
        <time>2026-05-25T12:57:29.000Z</time>
      </trkpt>
      <trkpt lat="44.6334" lon="5.19544">
        <ele>1373</ele>
        <time>2026-05-25T12:57:30.000Z</time>
      </trkpt>
      <trkpt lat="44.6334" lon="5.19544">
        <ele>1373</ele>
        <time>2026-05-25T12:57:31.000Z</time>
      </trkpt>
      <trkpt lat="44.6334" lon="5.19544">
        <ele>1373</ele>
        <time>2026-05-25T12:57:32.000Z</time>
      </trkpt>
      <trkpt lat="44.6334" lon="5.19543">
        <ele>1373</ele>
        <time>2026-05-25T12:57:33.000Z</time>
      </trkpt>
      <trkpt lat="44.6334" lon="5.19543">
        <ele>1373</ele>
        <time>2026-05-25T12:57:34.000Z</time>
      </trkpt>
      <trkpt lat="44.6334" lon="5.19544">
        <ele>1373</ele>
        <time>2026-05-25T12:57:35.000Z</time>
      </trkpt>
      <trkpt lat="44.6334" lon="5.19544">
        <ele>1373</ele>
        <time>2026-05-25T12:57:36.000Z</time>
      </trkpt>
      <trkpt lat="44.6334" lon="5.19544">
        <ele>1373</ele>
        <time>2026-05-25T12:57:37.000Z</time>
      </trkpt>
      <trkpt lat="44.6334" lon="5.19544">
        <ele>1373</ele>
        <time>2026-05-25T12:57:38.000Z</time>
      </trkpt>
      <trkpt lat="44.6334" lon="5.19544">
        <ele>1373</ele>
        <time>2026-05-25T12:57:39.000Z</time>
      </trkpt>
      <trkpt lat="44.6334" lon="5.19544">
        <ele>1373</ele>
        <time>2026-05-25T12:57:40.000Z</time>
      </trkpt>
      <trkpt lat="44.6334" lon="5.19544">
        <ele>1373</ele>
        <time>2026-05-25T12:57:41.000Z</time>
      </trkpt>
      <trkpt lat="44.6334" lon="5.19544">
        <ele>1373</ele>
        <time>2026-05-25T12:57:42.000Z</time>
      </trkpt>
      <trkpt lat="44.6334" lon="5.19544">
        <ele>1373</ele>
        <time>2026-05-25T12:57:43.000Z</time>
      </trkpt>
      <trkpt lat="44.6334" lon="5.19544">
        <ele>1373</ele>
        <time>2026-05-25T12:57:44.000Z</time>
      </trkpt>
      <trkpt lat="44.6334" lon="5.19544">
        <ele>1373</ele>
        <time>2026-05-25T12:57:45.000Z</time>
      </trkpt>
      <trkpt lat="44.6334" lon="5.19544">
        <ele>1373</ele>
        <time>2026-05-25T12:57:46.000Z</time>
      </trkpt>
      <trkpt lat="44.6334" lon="5.19544">
        <ele>1373</ele>
        <time>2026-05-25T12:57:47.000Z</time>
      </trkpt>
      <trkpt lat="44.6334" lon="5.19544">
        <ele>1373</ele>
        <time>2026-05-25T12:57:48.000Z</time>
      </trkpt>
      <trkpt lat="44.6334" lon="5.19545">
        <ele>1372</ele>
        <time>2026-05-25T12:57:49.000Z</time>
      </trkpt>
      <trkpt lat="44.6334" lon="5.19544">
        <ele>1372</ele>
        <time>2026-05-25T12:57:50.000Z</time>
      </trkpt>
      <trkpt lat="44.6334" lon="5.19544">
        <ele>1372</ele>
        <time>2026-05-25T12:57:51.000Z</time>
      </trkpt>
      <trkpt lat="44.6334" lon="5.19544">
        <ele>1372</ele>
        <time>2026-05-25T12:57:52.000Z</time>
      </trkpt>
      <trkpt lat="44.6334" lon="5.19544">
        <ele>1372</ele>
        <time>2026-05-25T12:57:53.000Z</time>
      </trkpt>
      <trkpt lat="44.6334" lon="5.19544">
        <ele>1372</ele>
        <time>2026-05-25T12:57:54.000Z</time>
      </trkpt>
      <trkpt lat="44.6334" lon="5.19544">
        <ele>1372</ele>
        <time>2026-05-25T12:57:55.000Z</time>
      </trkpt>
      <trkpt lat="44.63339" lon="5.19544">
        <ele>1371</ele>
        <time>2026-05-25T12:57:56.000Z</time>
      </trkpt>
      <trkpt lat="44.63339" lon="5.19544">
        <ele>1371</ele>
        <time>2026-05-25T12:57:57.000Z</time>
      </trkpt>
      <trkpt lat="44.63339" lon="5.19544">
        <ele>1371</ele>
        <time>2026-05-25T12:57:58.000Z</time>
      </trkpt>
      <trkpt lat="44.63339" lon="5.19545">
        <ele>1370</ele>
        <time>2026-05-25T12:57:59.000Z</time>
      </trkpt>
      <trkpt lat="44.63339" lon="5.19545">
        <ele>1370</ele>
        <time>2026-05-25T12:58:00.000Z</time>
      </trkpt>
      <trkpt lat="44.63339" lon="5.19545">
        <ele>1370</ele>
        <time>2026-05-25T12:58:01.000Z</time>
      </trkpt>
      <trkpt lat="44.63339" lon="5.19545">
        <ele>1370</ele>
        <time>2026-05-25T12:58:02.000Z</time>
      </trkpt>
      <trkpt lat="44.63339" lon="5.19545">
        <ele>1370</ele>
        <time>2026-05-25T12:58:03.000Z</time>
      </trkpt>
      <trkpt lat="44.63339" lon="5.19545">
        <ele>1370</ele>
        <time>2026-05-25T12:58:04.000Z</time>
      </trkpt>
      <trkpt lat="44.63339" lon="5.19545">
        <ele>1370</ele>
        <time>2026-05-25T12:58:05.000Z</time>
      </trkpt>
      <trkpt lat="44.63339" lon="5.19545">
        <ele>1370</ele>
        <time>2026-05-25T12:58:06.000Z</time>
      </trkpt>
      <trkpt lat="44.63339" lon="5.19545">
        <ele>1370</ele>
        <time>2026-05-25T12:58:07.000Z</time>
      </trkpt>
      <trkpt lat="44.63339" lon="5.19545">
        <ele>1370</ele>
        <time>2026-05-25T12:58:08.000Z</time>
      </trkpt>
      <trkpt lat="44.63339" lon="5.19545">
        <ele>1370</ele>
        <time>2026-05-25T12:58:09.000Z</time>
      </trkpt>
      <trkpt lat="44.63339" lon="5.19545">
        <ele>1370</ele>
        <time>2026-05-25T12:58:10.000Z</time>
      </trkpt>
      <trkpt lat="44.63339" lon="5.19545">
        <ele>1370</ele>
        <time>2026-05-25T12:58:11.000Z</time>
      </trkpt>
      <trkpt lat="44.63339" lon="5.19545">
        <ele>1370</ele>
        <time>2026-05-25T12:58:12.000Z</time>
      </trkpt>
      <trkpt lat="44.63339" lon="5.19545">
        <ele>1370</ele>
        <time>2026-05-25T12:58:13.000Z</time>
      </trkpt>
      <trkpt lat="44.6334" lon="5.19543">
        <ele>1371</ele>
        <time>2026-05-25T12:58:14.000Z</time>
      </trkpt>
      <trkpt lat="44.6334" lon="5.19543">
        <ele>1371</ele>
        <time>2026-05-25T12:58:15.000Z</time>
      </trkpt>
      <trkpt lat="44.6334" lon="5.19543">
        <ele>1371</ele>
        <time>2026-05-25T12:58:16.000Z</time>
      </trkpt>
      <trkpt lat="44.6334" lon="5.19543">
        <ele>1371</ele>
        <time>2026-05-25T12:58:17.000Z</time>
      </trkpt>
      <trkpt lat="44.6334" lon="5.19543">
        <ele>1371</ele>
        <time>2026-05-25T12:58:18.000Z</time>
      </trkpt>
      <trkpt lat="44.6334" lon="5.19543">
        <ele>1371</ele>
        <time>2026-05-25T12:58:19.000Z</time>
      </trkpt>
      <trkpt lat="44.6334" lon="5.19543">
        <ele>1371</ele>
        <time>2026-05-25T12:58:20.000Z</time>
      </trkpt>
      <trkpt lat="44.6334" lon="5.19543">
        <ele>1371</ele>
        <time>2026-05-25T12:58:21.000Z</time>
      </trkpt>
      <trkpt lat="44.6334" lon="5.19543">
        <ele>1371</ele>
        <time>2026-05-25T12:58:22.000Z</time>
      </trkpt>
      <trkpt lat="44.6334" lon="5.19543">
        <ele>1371</ele>
        <time>2026-05-25T12:58:23.000Z</time>
      </trkpt>
      <trkpt lat="44.6334" lon="5.19543">
        <ele>1371</ele>
        <time>2026-05-25T12:58:24.000Z</time>
      </trkpt>
      <trkpt lat="44.6334" lon="5.19543">
        <ele>1371</ele>
        <time>2026-05-25T12:58:25.000Z</time>
      </trkpt>
      <trkpt lat="44.6334" lon="5.19543">
        <ele>1371</ele>
        <time>2026-05-25T12:58:26.000Z</time>
      </trkpt>
      <trkpt lat="44.6334" lon="5.19543">
        <ele>1371</ele>
        <time>2026-05-25T12:58:27.000Z</time>
      </trkpt>
      <trkpt lat="44.6334" lon="5.19543">
        <ele>1371</ele>
        <time>2026-05-25T12:58:28.000Z</time>
      </trkpt>
      <trkpt lat="44.6334" lon="5.19543">
        <ele>1371</ele>
        <time>2026-05-25T12:58:29.000Z</time>
      </trkpt>
      <trkpt lat="44.6334" lon="5.19543">
        <ele>1371</ele>
        <time>2026-05-25T12:58:30.000Z</time>
      </trkpt>
      <trkpt lat="44.6334" lon="5.19543">
        <ele>1371</ele>
        <time>2026-05-25T12:58:31.000Z</time>
      </trkpt>
      <trkpt lat="44.6334" lon="5.19543">
        <ele>1371</ele>
        <time>2026-05-25T12:58:32.000Z</time>
      </trkpt>
      <trkpt lat="44.6334" lon="5.19543">
        <ele>1371</ele>
        <time>2026-05-25T12:58:33.000Z</time>
      </trkpt>
      <trkpt lat="44.6334" lon="5.19543">
        <ele>1371</ele>
        <time>2026-05-25T12:58:34.000Z</time>
      </trkpt>
      <trkpt lat="44.6334" lon="5.19543">
        <ele>1371</ele>
        <time>2026-05-25T12:58:35.000Z</time>
      </trkpt>
      <trkpt lat="44.6334" lon="5.19543">
        <ele>1371</ele>
        <time>2026-05-25T12:58:36.000Z</time>
      </trkpt>
      <trkpt lat="44.6334" lon="5.19543">
        <ele>1371</ele>
        <time>2026-05-25T12:58:37.000Z</time>
      </trkpt>
      <trkpt lat="44.6334" lon="5.19543">
        <ele>1371</ele>
        <time>2026-05-25T12:58:38.000Z</time>
      </trkpt>
      <trkpt lat="44.6334" lon="5.19543">
        <ele>1371</ele>
        <time>2026-05-25T12:58:39.000Z</time>
      </trkpt>
      <trkpt lat="44.6334" lon="5.19543">
        <ele>1371</ele>
        <time>2026-05-25T12:58:40.000Z</time>
      </trkpt>
      <trkpt lat="44.6334" lon="5.19545">
        <ele>1370</ele>
        <time>2026-05-25T12:58:41.000Z</time>
      </trkpt>
      <trkpt lat="44.63339" lon="5.19545">
        <ele>1371</ele>
        <time>2026-05-25T12:58:42.000Z</time>
      </trkpt>
      <trkpt lat="44.63338" lon="5.19545">
        <ele>1370</ele>
        <time>2026-05-25T12:58:43.000Z</time>
      </trkpt>
      <trkpt lat="44.63338" lon="5.19546">
        <ele>1371</ele>
        <time>2026-05-25T12:58:44.000Z</time>
      </trkpt>
      <trkpt lat="44.63338" lon="5.19547">
        <ele>1370</ele>
        <time>2026-05-25T12:58:45.000Z</time>
      </trkpt>
      <trkpt lat="44.63337" lon="5.19546">
        <ele>1370</ele>
        <time>2026-05-25T12:58:46.000Z</time>
      </trkpt>
      <trkpt lat="44.63338" lon="5.19546">
        <ele>1370</ele>
        <time>2026-05-25T12:58:47.000Z</time>
      </trkpt>
      <trkpt lat="44.63338" lon="5.19546">
        <ele>1370</ele>
        <time>2026-05-25T12:58:48.000Z</time>
      </trkpt>
      <trkpt lat="44.63338" lon="5.19546">
        <ele>1370</ele>
        <time>2026-05-25T12:58:49.000Z</time>
      </trkpt>
      <trkpt lat="44.63338" lon="5.19546">
        <ele>1370</ele>
        <time>2026-05-25T12:58:50.000Z</time>
      </trkpt>
      <trkpt lat="44.63338" lon="5.19546">
        <ele>1370</ele>
        <time>2026-05-25T12:58:51.000Z</time>
      </trkpt>
      <trkpt lat="44.63338" lon="5.19546">
        <ele>1370</ele>
        <time>2026-05-25T12:58:52.000Z</time>
      </trkpt>
      <trkpt lat="44.63338" lon="5.19546">
        <ele>1370</ele>
        <time>2026-05-25T12:58:53.000Z</time>
      </trkpt>
      <trkpt lat="44.63338" lon="5.19546">
        <ele>1370</ele>
        <time>2026-05-25T12:58:54.000Z</time>
      </trkpt>
      <trkpt lat="44.63338" lon="5.19546">
        <ele>1370</ele>
        <time>2026-05-25T12:58:55.000Z</time>
      </trkpt>
      <trkpt lat="44.63338" lon="5.19546">
        <ele>1370</ele>
        <time>2026-05-25T12:58:56.000Z</time>
      </trkpt>
      <trkpt lat="44.63338" lon="5.19546">
        <ele>1370</ele>
        <time>2026-05-25T12:58:57.000Z</time>
      </trkpt>
      <trkpt lat="44.63338" lon="5.19546">
        <ele>1370</ele>
        <time>2026-05-25T12:58:58.000Z</time>
      </trkpt>
      <trkpt lat="44.63338" lon="5.19546">
        <ele>1370</ele>
        <time>2026-05-25T12:58:59.000Z</time>
      </trkpt>
      <trkpt lat="44.63338" lon="5.19546">
        <ele>1370</ele>
        <time>2026-05-25T12:59:00.000Z</time>
      </trkpt>
      <trkpt lat="44.63338" lon="5.19546">
        <ele>1370</ele>
        <time>2026-05-25T12:59:01.000Z</time>
      </trkpt>
      <trkpt lat="44.63338" lon="5.19546">
        <ele>1370</ele>
        <time>2026-05-25T12:59:02.000Z</time>
      </trkpt>
      <trkpt lat="44.63338" lon="5.19546">
        <ele>1370</ele>
        <time>2026-05-25T12:59:03.000Z</time>
      </trkpt>
      <trkpt lat="44.63338" lon="5.19546">
        <ele>1370</ele>
        <time>2026-05-25T12:59:04.000Z</time>
      </trkpt>
      <trkpt lat="44.63338" lon="5.19546">
        <ele>1370</ele>
        <time>2026-05-25T12:59:05.000Z</time>
      </trkpt>
      <trkpt lat="44.63338" lon="5.19546">
        <ele>1370</ele>
        <time>2026-05-25T12:59:06.000Z</time>
      </trkpt>
      <trkpt lat="44.63338" lon="5.19546">
        <ele>1370</ele>
        <time>2026-05-25T12:59:07.000Z</time>
      </trkpt>
      <trkpt lat="44.63338" lon="5.19546">
        <ele>1370</ele>
        <time>2026-05-25T12:59:08.000Z</time>
      </trkpt>
      <trkpt lat="44.63338" lon="5.19546">
        <ele>1370</ele>
        <time>2026-05-25T12:59:09.000Z</time>
      </trkpt>
      <trkpt lat="44.63338" lon="5.19546">
        <ele>1370</ele>
        <time>2026-05-25T12:59:10.000Z</time>
      </trkpt>
      <trkpt lat="44.63338" lon="5.19546">
        <ele>1370</ele>
        <time>2026-05-25T12:59:11.000Z</time>
      </trkpt>
      <trkpt lat="44.63338" lon="5.19546">
        <ele>1370</ele>
        <time>2026-05-25T12:59:12.000Z</time>
      </trkpt>
      <trkpt lat="44.63338" lon="5.19546">
        <ele>1370</ele>
        <time>2026-05-25T12:59:13.000Z</time>
      </trkpt>
      <trkpt lat="44.63338" lon="5.19546">
        <ele>1370</ele>
        <time>2026-05-25T12:59:14.000Z</time>
      </trkpt>
      <trkpt lat="44.63338" lon="5.19546">
        <ele>1370</ele>
        <time>2026-05-25T12:59:15.000Z</time>
      </trkpt>
      <trkpt lat="44.63338" lon="5.19546">
        <ele>1370</ele>
        <time>2026-05-25T12:59:16.000Z</time>
      </trkpt>
      <trkpt lat="44.63338" lon="5.19546">
        <ele>1370</ele>
        <time>2026-05-25T12:59:17.000Z</time>
      </trkpt>
      <trkpt lat="44.63338" lon="5.19546">
        <ele>1370</ele>
        <time>2026-05-25T12:59:18.000Z</time>
      </trkpt>
      <trkpt lat="44.63338" lon="5.19546">
        <ele>1370</ele>
        <time>2026-05-25T12:59:19.000Z</time>
      </trkpt>
      <trkpt lat="44.63338" lon="5.19546">
        <ele>1370</ele>
        <time>2026-05-25T12:59:20.000Z</time>
      </trkpt>
      <trkpt lat="44.63338" lon="5.19546">
        <ele>1370</ele>
        <time>2026-05-25T12:59:21.000Z</time>
      </trkpt>
      <trkpt lat="44.63338" lon="5.19546">
        <ele>1370</ele>
        <time>2026-05-25T12:59:22.000Z</time>
      </trkpt>
      <trkpt lat="44.63338" lon="5.19546">
        <ele>1370</ele>
        <time>2026-05-25T12:59:23.000Z</time>
      </trkpt>
      <trkpt lat="44.63338" lon="5.19546">
        <ele>1370</ele>
        <time>2026-05-25T12:59:24.000Z</time>
      </trkpt>
      <trkpt lat="44.63338" lon="5.19546">
        <ele>1370</ele>
        <time>2026-05-25T12:59:25.000Z</time>
      </trkpt>
      <trkpt lat="44.63338" lon="5.19546">
        <ele>1370</ele>
        <time>2026-05-25T12:59:26.000Z</time>
      </trkpt>
      <trkpt lat="44.63338" lon="5.19546">
        <ele>1370</ele>
        <time>2026-05-25T12:59:27.000Z</time>
      </trkpt>
      <trkpt lat="44.63338" lon="5.19546">
        <ele>1370</ele>
        <time>2026-05-25T12:59:28.000Z</time>
      </trkpt>
      <trkpt lat="44.63338" lon="5.19546">
        <ele>1370</ele>
        <time>2026-05-25T12:59:29.000Z</time>
      </trkpt>
      <trkpt lat="44.63338" lon="5.19546">
        <ele>1370</ele>
        <time>2026-05-25T12:59:30.000Z</time>
      </trkpt>
      <trkpt lat="44.63338" lon="5.19546">
        <ele>1370</ele>
        <time>2026-05-25T12:59:31.000Z</time>
      </trkpt>
      <trkpt lat="44.63338" lon="5.19546">
        <ele>1370</ele>
        <time>2026-05-25T12:59:32.000Z</time>
      </trkpt>
      <trkpt lat="44.63338" lon="5.19546">
        <ele>1370</ele>
        <time>2026-05-25T12:59:33.000Z</time>
      </trkpt>
      <trkpt lat="44.63338" lon="5.19546">
        <ele>1370</ele>
        <time>2026-05-25T12:59:34.000Z</time>
      </trkpt>
      <trkpt lat="44.63338" lon="5.19546">
        <ele>1370</ele>
        <time>2026-05-25T12:59:35.000Z</time>
      </trkpt>
      <trkpt lat="44.63338" lon="5.19546">
        <ele>1370</ele>
        <time>2026-05-25T12:59:36.000Z</time>
      </trkpt>
      <trkpt lat="44.63338" lon="5.19546">
        <ele>1370</ele>
        <time>2026-05-25T12:59:37.000Z</time>
      </trkpt>
      <trkpt lat="44.63338" lon="5.19546">
        <ele>1370</ele>
        <time>2026-05-25T12:59:38.000Z</time>
      </trkpt>
      <trkpt lat="44.63338" lon="5.19546">
        <ele>1370</ele>
        <time>2026-05-25T12:59:39.000Z</time>
      </trkpt>
      <trkpt lat="44.63338" lon="5.19546">
        <ele>1370</ele>
        <time>2026-05-25T12:59:40.000Z</time>
      </trkpt>
      <trkpt lat="44.63338" lon="5.19546">
        <ele>1370</ele>
        <time>2026-05-25T12:59:41.000Z</time>
      </trkpt>
      <trkpt lat="44.63338" lon="5.19546">
        <ele>1370</ele>
        <time>2026-05-25T12:59:42.000Z</time>
      </trkpt>
      <trkpt lat="44.63338" lon="5.19546">
        <ele>1370</ele>
        <time>2026-05-25T12:59:43.000Z</time>
      </trkpt>
      <trkpt lat="44.63338" lon="5.19546">
        <ele>1370</ele>
        <time>2026-05-25T12:59:44.000Z</time>
      </trkpt>
      <trkpt lat="44.63338" lon="5.19546">
        <ele>1370</ele>
        <time>2026-05-25T12:59:45.000Z</time>
      </trkpt>
      <trkpt lat="44.63338" lon="5.19546">
        <ele>1370</ele>
        <time>2026-05-25T12:59:46.000Z</time>
      </trkpt>
      <trkpt lat="44.63338" lon="5.19546">
        <ele>1370</ele>
        <time>2026-05-25T12:59:47.000Z</time>
      </trkpt>
      <trkpt lat="44.63338" lon="5.19546">
        <ele>1370</ele>
        <time>2026-05-25T12:59:48.000Z</time>
      </trkpt>
      <trkpt lat="44.63338" lon="5.19546">
        <ele>1370</ele>
        <time>2026-05-25T12:59:49.000Z</time>
      </trkpt>
      <trkpt lat="44.63338" lon="5.19546">
        <ele>1370</ele>
        <time>2026-05-25T12:59:50.000Z</time>
      </trkpt>
      <trkpt lat="44.63338" lon="5.19546">
        <ele>1370</ele>
        <time>2026-05-25T12:59:51.000Z</time>
      </trkpt>
      <trkpt lat="44.63338" lon="5.19546">
        <ele>1370</ele>
        <time>2026-05-25T12:59:52.000Z</time>
      </trkpt>
      <trkpt lat="44.63338" lon="5.19546">
        <ele>1370</ele>
        <time>2026-05-25T12:59:53.000Z</time>
      </trkpt>
      <trkpt lat="44.63338" lon="5.19546">
        <ele>1370</ele>
        <time>2026-05-25T12:59:54.000Z</time>
      </trkpt>
      <trkpt lat="44.63338" lon="5.19546">
        <ele>1370</ele>
        <time>2026-05-25T12:59:55.000Z</time>
      </trkpt>
      <trkpt lat="44.63338" lon="5.19546">
        <ele>1370</ele>
        <time>2026-05-25T12:59:56.000Z</time>
      </trkpt>
      <trkpt lat="44.63338" lon="5.19546">
        <ele>1370</ele>
        <time>2026-05-25T12:59:57.000Z</time>
      </trkpt>
      <trkpt lat="44.63338" lon="5.19546">
        <ele>1370</ele>
        <time>2026-05-25T12:59:58.000Z</time>
      </trkpt>
      <trkpt lat="44.63338" lon="5.19546">
        <ele>1370</ele>
        <time>2026-05-25T12:59:59.000Z</time>
      </trkpt>
      <trkpt lat="44.63338" lon="5.19546">
        <ele>1370</ele>
        <time>2026-05-25T13:00:00.000Z</time>
      </trkpt>
      <trkpt lat="44.63338" lon="5.19546">
        <ele>1370</ele>
        <time>2026-05-25T13:00:01.000Z</time>
      </trkpt>
      <trkpt lat="44.63338" lon="5.19546">
        <ele>1370</ele>
        <time>2026-05-25T13:00:02.000Z</time>
      </trkpt>
      <trkpt lat="44.63338" lon="5.19546">
        <ele>1370</ele>
        <time>2026-05-25T13:00:03.000Z</time>
      </trkpt>
      <trkpt lat="44.63338" lon="5.19546">
        <ele>1370</ele>
        <time>2026-05-25T13:00:04.000Z</time>
      </trkpt>
      <trkpt lat="44.63338" lon="5.19546">
        <ele>1370</ele>
        <time>2026-05-25T13:00:05.000Z</time>
      </trkpt>
      <trkpt lat="44.63338" lon="5.19546">
        <ele>1370</ele>
        <time>2026-05-25T13:00:06.000Z</time>
      </trkpt>
      <trkpt lat="44.63338" lon="5.19546">
        <ele>1370</ele>
        <time>2026-05-25T13:00:07.000Z</time>
      </trkpt>
      <trkpt lat="44.63338" lon="5.19546">
        <ele>1370</ele>
        <time>2026-05-25T13:00:08.000Z</time>
      </trkpt>
      <trkpt lat="44.63338" lon="5.19546">
        <ele>1370</ele>
        <time>2026-05-25T13:00:09.000Z</time>
      </trkpt>
      <trkpt lat="44.63338" lon="5.19546">
        <ele>1370</ele>
        <time>2026-05-25T13:00:10.000Z</time>
      </trkpt>
      <trkpt lat="44.63338" lon="5.19546">
        <ele>1370</ele>
        <time>2026-05-25T13:00:11.000Z</time>
      </trkpt>
      <trkpt lat="44.63338" lon="5.19546">
        <ele>1370</ele>
        <time>2026-05-25T13:00:12.000Z</time>
      </trkpt>
      <trkpt lat="44.63338" lon="5.19546">
        <ele>1370</ele>
        <time>2026-05-25T13:00:13.000Z</time>
      </trkpt>
      <trkpt lat="44.63338" lon="5.19546">
        <ele>1370</ele>
        <time>2026-05-25T13:00:14.000Z</time>
      </trkpt>
      <trkpt lat="44.63338" lon="5.19546">
        <ele>1370</ele>
        <time>2026-05-25T13:00:15.000Z</time>
      </trkpt>
      <trkpt lat="44.63338" lon="5.19546">
        <ele>1370</ele>
        <time>2026-05-25T13:00:16.000Z</time>
      </trkpt>
      <trkpt lat="44.63338" lon="5.19546">
        <ele>1370</ele>
        <time>2026-05-25T13:00:17.000Z</time>
      </trkpt>
      <trkpt lat="44.63338" lon="5.19546">
        <ele>1370</ele>
        <time>2026-05-25T13:00:18.000Z</time>
      </trkpt>
      <trkpt lat="44.63338" lon="5.19546">
        <ele>1370</ele>
        <time>2026-05-25T13:00:19.000Z</time>
      </trkpt>
      <trkpt lat="44.63338" lon="5.19546">
        <ele>1370</ele>
        <time>2026-05-25T13:00:20.000Z</time>
      </trkpt>
      <trkpt lat="44.63338" lon="5.19546">
        <ele>1370</ele>
        <time>2026-05-25T13:00:21.000Z</time>
      </trkpt>
      <trkpt lat="44.63338" lon="5.19546">
        <ele>1370</ele>
        <time>2026-05-25T13:00:22.000Z</time>
      </trkpt>
      <trkpt lat="44.63338" lon="5.19546">
        <ele>1370</ele>
        <time>2026-05-25T13:00:23.000Z</time>
      </trkpt>
      <trkpt lat="44.63338" lon="5.19546">
        <ele>1370</ele>
        <time>2026-05-25T13:00:24.000Z</time>
      </trkpt>
      <trkpt lat="44.63338" lon="5.19546">
        <ele>1370</ele>
        <time>2026-05-25T13:00:25.000Z</time>
      </trkpt>
      <trkpt lat="44.63338" lon="5.19546">
        <ele>1370</ele>
        <time>2026-05-25T13:00:26.000Z</time>
      </trkpt>
      <trkpt lat="44.63338" lon="5.19546">
        <ele>1370</ele>
        <time>2026-05-25T13:00:27.000Z</time>
      </trkpt>
      <trkpt lat="44.63338" lon="5.19546">
        <ele>1370</ele>
        <time>2026-05-25T13:00:28.000Z</time>
      </trkpt>
      <trkpt lat="44.63338" lon="5.19546">
        <ele>1370</ele>
        <time>2026-05-25T13:00:29.000Z</time>
      </trkpt>
      <trkpt lat="44.63338" lon="5.19546">
        <ele>1370</ele>
        <time>2026-05-25T13:00:30.000Z</time>
      </trkpt>
      <trkpt lat="44.63338" lon="5.19546">
        <ele>1370</ele>
        <time>2026-05-25T13:00:31.000Z</time>
      </trkpt>
      <trkpt lat="44.63338" lon="5.19546">
        <ele>1370</ele>
        <time>2026-05-25T13:00:32.000Z</time>
      </trkpt>
      <trkpt lat="44.63338" lon="5.19546">
        <ele>1370</ele>
        <time>2026-05-25T13:00:33.000Z</time>
      </trkpt>
      <trkpt lat="44.63338" lon="5.19546">
        <ele>1370</ele>
        <time>2026-05-25T13:00:34.000Z</time>
      </trkpt>
      <trkpt lat="44.63338" lon="5.19546">
        <ele>1370</ele>
        <time>2026-05-25T13:00:35.000Z</time>
      </trkpt>
      <trkpt lat="44.63338" lon="5.19546">
        <ele>1370</ele>
        <time>2026-05-25T13:00:36.000Z</time>
      </trkpt>
      <trkpt lat="44.63338" lon="5.19546">
        <ele>1370</ele>
        <time>2026-05-25T13:00:37.000Z</time>
      </trkpt>
      <trkpt lat="44.63338" lon="5.19546">
        <ele>1370</ele>
        <time>2026-05-25T13:00:38.000Z</time>
      </trkpt>
      <trkpt lat="44.63338" lon="5.19546">
        <ele>1370</ele>
        <time>2026-05-25T13:00:39.000Z</time>
      </trkpt>
      <trkpt lat="44.63338" lon="5.19546">
        <ele>1370</ele>
        <time>2026-05-25T13:00:40.000Z</time>
      </trkpt>
      <trkpt lat="44.63338" lon="5.19546">
        <ele>1370</ele>
        <time>2026-05-25T13:00:41.000Z</time>
      </trkpt>
      <trkpt lat="44.63338" lon="5.19546">
        <ele>1370</ele>
        <time>2026-05-25T13:00:42.000Z</time>
      </trkpt>
      <trkpt lat="44.63338" lon="5.19546">
        <ele>1370</ele>
        <time>2026-05-25T13:00:43.000Z</time>
      </trkpt>
      <trkpt lat="44.63338" lon="5.19546">
        <ele>1370</ele>
        <time>2026-05-25T13:00:44.000Z</time>
      </trkpt>
      <trkpt lat="44.63338" lon="5.19546">
        <ele>1370</ele>
        <time>2026-05-25T13:00:45.000Z</time>
      </trkpt>
      <trkpt lat="44.63338" lon="5.19546">
        <ele>1370</ele>
        <time>2026-05-25T13:00:46.000Z</time>
      </trkpt>
      <trkpt lat="44.63338" lon="5.19546">
        <ele>1370</ele>
        <time>2026-05-25T13:00:47.000Z</time>
      </trkpt>
      <trkpt lat="44.63338" lon="5.19546">
        <ele>1370</ele>
        <time>2026-05-25T13:00:48.000Z</time>
      </trkpt>
      <trkpt lat="44.63338" lon="5.19546">
        <ele>1370</ele>
        <time>2026-05-25T13:00:49.000Z</time>
      </trkpt>
      <trkpt lat="44.63338" lon="5.19546">
        <ele>1370</ele>
        <time>2026-05-25T13:00:50.000Z</time>
      </trkpt>
      <trkpt lat="44.63338" lon="5.19546">
        <ele>1370</ele>
        <time>2026-05-25T13:00:51.000Z</time>
      </trkpt>
      <trkpt lat="44.63338" lon="5.19546">
        <ele>1370</ele>
        <time>2026-05-25T13:00:52.000Z</time>
      </trkpt>
      <trkpt lat="44.63338" lon="5.19546">
        <ele>1370</ele>
        <time>2026-05-25T13:00:53.000Z</time>
      </trkpt>
      <trkpt lat="44.63338" lon="5.19546">
        <ele>1370</ele>
        <time>2026-05-25T13:00:54.000Z</time>
      </trkpt>
      <trkpt lat="44.63338" lon="5.19546">
        <ele>1370</ele>
        <time>2026-05-25T13:00:55.000Z</time>
      </trkpt>
      <trkpt lat="44.63338" lon="5.19546">
        <ele>1370</ele>
        <time>2026-05-25T13:00:56.000Z</time>
      </trkpt>
      <trkpt lat="44.63338" lon="5.19546">
        <ele>1370</ele>
        <time>2026-05-25T13:00:57.000Z</time>
      </trkpt>
      <trkpt lat="44.63338" lon="5.19546">
        <ele>1370</ele>
        <time>2026-05-25T13:00:58.000Z</time>
      </trkpt>
      <trkpt lat="44.63338" lon="5.19546">
        <ele>1370</ele>
        <time>2026-05-25T13:00:59.000Z</time>
      </trkpt>
      <trkpt lat="44.63338" lon="5.19546">
        <ele>1370</ele>
        <time>2026-05-25T13:01:00.000Z</time>
      </trkpt>
      <trkpt lat="44.63338" lon="5.19546">
        <ele>1370</ele>
        <time>2026-05-25T13:01:01.000Z</time>
      </trkpt>
      <trkpt lat="44.63338" lon="5.19546">
        <ele>1370</ele>
        <time>2026-05-25T13:01:02.000Z</time>
      </trkpt>
      <trkpt lat="44.63338" lon="5.19546">
        <ele>1370</ele>
        <time>2026-05-25T13:01:03.000Z</time>
      </trkpt>
      <trkpt lat="44.63338" lon="5.19546">
        <ele>1370</ele>
        <time>2026-05-25T13:01:04.000Z</time>
      </trkpt>
      <trkpt lat="44.63338" lon="5.19546">
        <ele>1370</ele>
        <time>2026-05-25T13:01:05.000Z</time>
      </trkpt>
      <trkpt lat="44.63338" lon="5.19546">
        <ele>1370</ele>
        <time>2026-05-25T13:01:06.000Z</time>
      </trkpt>
      <trkpt lat="44.63338" lon="5.19546">
        <ele>1370</ele>
        <time>2026-05-25T13:01:07.000Z</time>
      </trkpt>
      <trkpt lat="44.63338" lon="5.19546">
        <ele>1370</ele>
        <time>2026-05-25T13:01:08.000Z</time>
      </trkpt>
      <trkpt lat="44.63338" lon="5.19546">
        <ele>1370</ele>
        <time>2026-05-25T13:01:09.000Z</time>
      </trkpt>
      <trkpt lat="44.63338" lon="5.19546">
        <ele>1370</ele>
        <time>2026-05-25T13:01:10.000Z</time>
      </trkpt>
      <trkpt lat="44.63338" lon="5.19546">
        <ele>1370</ele>
        <time>2026-05-25T13:01:11.000Z</time>
      </trkpt>
      <trkpt lat="44.63338" lon="5.19546">
        <ele>1370</ele>
        <time>2026-05-25T13:01:12.000Z</time>
      </trkpt>
      <trkpt lat="44.63338" lon="5.19546">
        <ele>1370</ele>
        <time>2026-05-25T13:01:13.000Z</time>
      </trkpt>
      <trkpt lat="44.63338" lon="5.19546">
        <ele>1370</ele>
        <time>2026-05-25T13:01:14.000Z</time>
      </trkpt>
      <trkpt lat="44.63338" lon="5.19546">
        <ele>1370</ele>
        <time>2026-05-25T13:01:15.000Z</time>
      </trkpt>
      <trkpt lat="44.63338" lon="5.19546">
        <ele>1370</ele>
        <time>2026-05-25T13:01:16.000Z</time>
      </trkpt>
      <trkpt lat="44.63338" lon="5.19546">
        <ele>1370</ele>
        <time>2026-05-25T13:01:17.000Z</time>
      </trkpt>
      <trkpt lat="44.63338" lon="5.19546">
        <ele>1370</ele>
        <time>2026-05-25T13:01:18.000Z</time>
      </trkpt>
      <trkpt lat="44.63338" lon="5.19546">
        <ele>1370</ele>
        <time>2026-05-25T13:01:19.000Z</time>
      </trkpt>
      <trkpt lat="44.63338" lon="5.19546">
        <ele>1370</ele>
        <time>2026-05-25T13:01:20.000Z</time>
      </trkpt>
      <trkpt lat="44.63338" lon="5.19546">
        <ele>1370</ele>
        <time>2026-05-25T13:01:21.000Z</time>
      </trkpt>
      <trkpt lat="44.63338" lon="5.19546">
        <ele>1370</ele>
        <time>2026-05-25T13:01:22.000Z</time>
      </trkpt>
      <trkpt lat="44.63338" lon="5.19546">
        <ele>1370</ele>
        <time>2026-05-25T13:01:23.000Z</time>
      </trkpt>
      <trkpt lat="44.63338" lon="5.19546">
        <ele>1370</ele>
        <time>2026-05-25T13:01:24.000Z</time>
      </trkpt>
      <trkpt lat="44.63338" lon="5.19546">
        <ele>1370</ele>
        <time>2026-05-25T13:01:25.000Z</time>
      </trkpt>
      <trkpt lat="44.63338" lon="5.19546">
        <ele>1370</ele>
        <time>2026-05-25T13:01:26.000Z</time>
      </trkpt>
      <trkpt lat="44.63338" lon="5.19546">
        <ele>1370</ele>
        <time>2026-05-25T13:01:27.000Z</time>
      </trkpt>
      <trkpt lat="44.63338" lon="5.19546">
        <ele>1370</ele>
        <time>2026-05-25T13:01:28.000Z</time>
      </trkpt>
      <trkpt lat="44.63338" lon="5.19546">
        <ele>1370</ele>
        <time>2026-05-25T13:01:29.000Z</time>
      </trkpt>
      <trkpt lat="44.63338" lon="5.19546">
        <ele>1370</ele>
        <time>2026-05-25T13:01:30.000Z</time>
      </trkpt>
      <trkpt lat="44.63338" lon="5.19546">
        <ele>1370</ele>
        <time>2026-05-25T13:01:31.000Z</time>
      </trkpt>
      <trkpt lat="44.63338" lon="5.19546">
        <ele>1370</ele>
        <time>2026-05-25T13:01:32.000Z</time>
      </trkpt>
      <trkpt lat="44.63338" lon="5.19546">
        <ele>1370</ele>
        <time>2026-05-25T13:01:33.000Z</time>
      </trkpt>
      <trkpt lat="44.63338" lon="5.19546">
        <ele>1370</ele>
        <time>2026-05-25T13:01:34.000Z</time>
      </trkpt>
      <trkpt lat="44.63338" lon="5.19546">
        <ele>1370</ele>
        <time>2026-05-25T13:01:35.000Z</time>
      </trkpt>
      <trkpt lat="44.63338" lon="5.19546">
        <ele>1370</ele>
        <time>2026-05-25T13:01:36.000Z</time>
      </trkpt>
      <trkpt lat="44.63338" lon="5.19546">
        <ele>1370</ele>
        <time>2026-05-25T13:01:37.000Z</time>
      </trkpt>
      <trkpt lat="44.63338" lon="5.19546">
        <ele>1370</ele>
        <time>2026-05-25T13:01:38.000Z</time>
      </trkpt>
      <trkpt lat="44.63338" lon="5.19546">
        <ele>1370</ele>
        <time>2026-05-25T13:01:39.000Z</time>
      </trkpt>
      <trkpt lat="44.63338" lon="5.19546">
        <ele>1370</ele>
        <time>2026-05-25T13:01:40.000Z</time>
      </trkpt>
      <trkpt lat="44.63338" lon="5.19546">
        <ele>1370</ele>
        <time>2026-05-25T13:01:41.000Z</time>
      </trkpt>
      <trkpt lat="44.63338" lon="5.19546">
        <ele>1370</ele>
        <time>2026-05-25T13:01:42.000Z</time>
      </trkpt>
      <trkpt lat="44.63338" lon="5.19546">
        <ele>1370</ele>
        <time>2026-05-25T13:01:43.000Z</time>
      </trkpt>
      <trkpt lat="44.63338" lon="5.19546">
        <ele>1370</ele>
        <time>2026-05-25T13:01:44.000Z</time>
      </trkpt>
      <trkpt lat="44.63338" lon="5.19546">
        <ele>1370</ele>
        <time>2026-05-25T13:01:45.000Z</time>
      </trkpt>
      <trkpt lat="44.63338" lon="5.19546">
        <ele>1370</ele>
        <time>2026-05-25T13:01:46.000Z</time>
      </trkpt>
      <trkpt lat="44.63338" lon="5.19546">
        <ele>1370</ele>
        <time>2026-05-25T13:01:47.000Z</time>
      </trkpt>
      <trkpt lat="44.63338" lon="5.19546">
        <ele>1370</ele>
        <time>2026-05-25T13:01:48.000Z</time>
      </trkpt>
      <trkpt lat="44.63338" lon="5.19546">
        <ele>1370</ele>
        <time>2026-05-25T13:01:49.000Z</time>
      </trkpt>
      <trkpt lat="44.63338" lon="5.19546">
        <ele>1370</ele>
        <time>2026-05-25T13:01:50.000Z</time>
      </trkpt>
      <trkpt lat="44.63338" lon="5.19546">
        <ele>1370</ele>
        <time>2026-05-25T13:01:51.000Z</time>
      </trkpt>
      <trkpt lat="44.63338" lon="5.19546">
        <ele>1370</ele>
        <time>2026-05-25T13:01:52.000Z</time>
      </trkpt>
      <trkpt lat="44.63338" lon="5.19546">
        <ele>1370</ele>
        <time>2026-05-25T13:01:53.000Z</time>
      </trkpt>
      <trkpt lat="44.63338" lon="5.19546">
        <ele>1370</ele>
        <time>2026-05-25T13:01:54.000Z</time>
      </trkpt>
      <trkpt lat="44.63338" lon="5.19546">
        <ele>1370</ele>
        <time>2026-05-25T13:01:55.000Z</time>
      </trkpt>
      <trkpt lat="44.63338" lon="5.19546">
        <ele>1370</ele>
        <time>2026-05-25T13:01:56.000Z</time>
      </trkpt>
      <trkpt lat="44.63338" lon="5.19546">
        <ele>1370</ele>
        <time>2026-05-25T13:01:57.000Z</time>
      </trkpt>
      <trkpt lat="44.63338" lon="5.19546">
        <ele>1370</ele>
        <time>2026-05-25T13:01:58.000Z</time>
      </trkpt>
      <trkpt lat="44.63338" lon="5.19546">
        <ele>1370</ele>
        <time>2026-05-25T13:01:59.000Z</time>
      </trkpt>
      <trkpt lat="44.63338" lon="5.19546">
        <ele>1370</ele>
        <time>2026-05-25T13:02:00.000Z</time>
      </trkpt>
      <trkpt lat="44.63338" lon="5.19546">
        <ele>1370</ele>
        <time>2026-05-25T13:02:01.000Z</time>
      </trkpt>
      <trkpt lat="44.63338" lon="5.19546">
        <ele>1370</ele>
        <time>2026-05-25T13:02:02.000Z</time>
      </trkpt>
      <trkpt lat="44.63338" lon="5.19546">
        <ele>1370</ele>
        <time>2026-05-25T13:02:03.000Z</time>
      </trkpt>
      <trkpt lat="44.63338" lon="5.19546">
        <ele>1370</ele>
        <time>2026-05-25T13:02:04.000Z</time>
      </trkpt>
      <trkpt lat="44.63338" lon="5.19546">
        <ele>1370</ele>
        <time>2026-05-25T13:02:05.000Z</time>
      </trkpt>
      <trkpt lat="44.63338" lon="5.19546">
        <ele>1370</ele>
        <time>2026-05-25T13:02:06.000Z</time>
      </trkpt>
      <trkpt lat="44.63338" lon="5.19546">
        <ele>1370</ele>
        <time>2026-05-25T13:02:07.000Z</time>
      </trkpt>
      <trkpt lat="44.63338" lon="5.19546">
        <ele>1370</ele>
        <time>2026-05-25T13:02:08.000Z</time>
      </trkpt>
      <trkpt lat="44.63338" lon="5.19546">
        <ele>1370</ele>
        <time>2026-05-25T13:02:09.000Z</time>
      </trkpt>
      <trkpt lat="44.63338" lon="5.19546">
        <ele>1370</ele>
        <time>2026-05-25T13:02:10.000Z</time>
      </trkpt>
      <trkpt lat="44.63338" lon="5.19546">
        <ele>1370</ele>
        <time>2026-05-25T13:02:11.000Z</time>
      </trkpt>
      <trkpt lat="44.63338" lon="5.19546">
        <ele>1370</ele>
        <time>2026-05-25T13:02:12.000Z</time>
      </trkpt>
      <trkpt lat="44.63338" lon="5.19546">
        <ele>1370</ele>
        <time>2026-05-25T13:02:13.000Z</time>
      </trkpt>
      <trkpt lat="44.63338" lon="5.19546">
        <ele>1370</ele>
        <time>2026-05-25T13:02:14.000Z</time>
      </trkpt>
      <trkpt lat="44.63338" lon="5.19546">
        <ele>1370</ele>
        <time>2026-05-25T13:02:15.000Z</time>
      </trkpt>
      <trkpt lat="44.63338" lon="5.19546">
        <ele>1370</ele>
        <time>2026-05-25T13:02:16.000Z</time>
      </trkpt>
      <trkpt lat="44.63338" lon="5.19546">
        <ele>1370</ele>
        <time>2026-05-25T13:02:17.000Z</time>
      </trkpt>
      <trkpt lat="44.63338" lon="5.19546">
        <ele>1370</ele>
        <time>2026-05-25T13:02:18.000Z</time>
      </trkpt>
      <trkpt lat="44.63338" lon="5.19546">
        <ele>1370</ele>
        <time>2026-05-25T13:02:19.000Z</time>
      </trkpt>
      <trkpt lat="44.63338" lon="5.19546">
        <ele>1370</ele>
        <time>2026-05-25T13:02:20.000Z</time>
      </trkpt>
      <trkpt lat="44.63338" lon="5.19546">
        <ele>1370</ele>
        <time>2026-05-25T13:02:21.000Z</time>
      </trkpt>
      <trkpt lat="44.63338" lon="5.19546">
        <ele>1370</ele>
        <time>2026-05-25T13:02:22.000Z</time>
      </trkpt>
      <trkpt lat="44.63338" lon="5.19546">
        <ele>1370</ele>
        <time>2026-05-25T13:02:23.000Z</time>
      </trkpt>
      <trkpt lat="44.63338" lon="5.19546">
        <ele>1370</ele>
        <time>2026-05-25T13:02:24.000Z</time>
      </trkpt>
      <trkpt lat="44.63338" lon="5.19546">
        <ele>1370</ele>
        <time>2026-05-25T13:02:25.000Z</time>
      </trkpt>
      <trkpt lat="44.63338" lon="5.19546">
        <ele>1370</ele>
        <time>2026-05-25T13:02:26.000Z</time>
      </trkpt>
      <trkpt lat="44.63338" lon="5.19546">
        <ele>1370</ele>
        <time>2026-05-25T13:02:27.000Z</time>
      </trkpt>
      <trkpt lat="44.63338" lon="5.19546">
        <ele>1370</ele>
        <time>2026-05-25T13:02:28.000Z</time>
      </trkpt>
      <trkpt lat="44.63338" lon="5.19546">
        <ele>1370</ele>
        <time>2026-05-25T13:02:29.000Z</time>
      </trkpt>
      <trkpt lat="44.63338" lon="5.19546">
        <ele>1370</ele>
        <time>2026-05-25T13:02:30.000Z</time>
      </trkpt>
      <trkpt lat="44.63338" lon="5.19546">
        <ele>1370</ele>
        <time>2026-05-25T13:02:31.000Z</time>
      </trkpt>
      <trkpt lat="44.63338" lon="5.19546">
        <ele>1370</ele>
        <time>2026-05-25T13:02:32.000Z</time>
      </trkpt>
      <trkpt lat="44.63338" lon="5.19546">
        <ele>1370</ele>
        <time>2026-05-25T13:02:33.000Z</time>
      </trkpt>
      <trkpt lat="44.63338" lon="5.19546">
        <ele>1370</ele>
        <time>2026-05-25T13:02:34.000Z</time>
      </trkpt>
      <trkpt lat="44.63338" lon="5.19546">
        <ele>1370</ele>
        <time>2026-05-25T13:02:35.000Z</time>
      </trkpt>
      <trkpt lat="44.63338" lon="5.19546">
        <ele>1370</ele>
        <time>2026-05-25T13:02:36.000Z</time>
      </trkpt>
      <trkpt lat="44.63338" lon="5.19546">
        <ele>1370</ele>
        <time>2026-05-25T13:02:37.000Z</time>
      </trkpt>
      <trkpt lat="44.63338" lon="5.19546">
        <ele>1370</ele>
        <time>2026-05-25T13:02:38.000Z</time>
      </trkpt>
      <trkpt lat="44.63338" lon="5.19546">
        <ele>1370</ele>
        <time>2026-05-25T13:02:39.000Z</time>
      </trkpt>
      <trkpt lat="44.63338" lon="5.19546">
        <ele>1370</ele>
        <time>2026-05-25T13:02:40.000Z</time>
      </trkpt>
      <trkpt lat="44.63338" lon="5.19546">
        <ele>1370</ele>
        <time>2026-05-25T13:02:41.000Z</time>
      </trkpt>
      <trkpt lat="44.63338" lon="5.19546">
        <ele>1370</ele>
        <time>2026-05-25T13:02:42.000Z</time>
      </trkpt>
      <trkpt lat="44.63338" lon="5.19546">
        <ele>1370</ele>
        <time>2026-05-25T13:02:43.000Z</time>
      </trkpt>
      <trkpt lat="44.63338" lon="5.19546">
        <ele>1370</ele>
        <time>2026-05-25T13:02:44.000Z</time>
      </trkpt>
      <trkpt lat="44.63338" lon="5.19546">
        <ele>1370</ele>
        <time>2026-05-25T13:02:45.000Z</time>
      </trkpt>
      <trkpt lat="44.63338" lon="5.19546">
        <ele>1370</ele>
        <time>2026-05-25T13:02:46.000Z</time>
      </trkpt>
      <trkpt lat="44.63338" lon="5.19546">
        <ele>1370</ele>
        <time>2026-05-25T13:02:47.000Z</time>
      </trkpt>
      <trkpt lat="44.63338" lon="5.19546">
        <ele>1370</ele>
        <time>2026-05-25T13:02:48.000Z</time>
      </trkpt>
      <trkpt lat="44.63338" lon="5.19546">
        <ele>1370</ele>
        <time>2026-05-25T13:02:49.000Z</time>
      </trkpt>
      <trkpt lat="44.63338" lon="5.19546">
        <ele>1370</ele>
        <time>2026-05-25T13:02:50.000Z</time>
      </trkpt>
      <trkpt lat="44.63338" lon="5.19546">
        <ele>1370</ele>
        <time>2026-05-25T13:02:51.000Z</time>
      </trkpt>
      <trkpt lat="44.63338" lon="5.19546">
        <ele>1370</ele>
        <time>2026-05-25T13:02:52.000Z</time>
      </trkpt>
      <trkpt lat="44.63338" lon="5.19546">
        <ele>1370</ele>
        <time>2026-05-25T13:02:53.000Z</time>
      </trkpt>
      <trkpt lat="44.63338" lon="5.19546">
        <ele>1370</ele>
        <time>2026-05-25T13:02:54.000Z</time>
      </trkpt>
      <trkpt lat="44.63338" lon="5.19546">
        <ele>1370</ele>
        <time>2026-05-25T13:02:55.000Z</time>
      </trkpt>
      <trkpt lat="44.63338" lon="5.19546">
        <ele>1370</ele>
        <time>2026-05-25T13:02:56.000Z</time>
      </trkpt>
      <trkpt lat="44.63338" lon="5.19546">
        <ele>1370</ele>
        <time>2026-05-25T13:02:57.000Z</time>
      </trkpt>
      <trkpt lat="44.63338" lon="5.19546">
        <ele>1370</ele>
        <time>2026-05-25T13:02:58.000Z</time>
      </trkpt>
      <trkpt lat="44.63338" lon="5.19546">
        <ele>1370</ele>
        <time>2026-05-25T13:02:59.000Z</time>
      </trkpt>
      <trkpt lat="44.63338" lon="5.19546">
        <ele>1370</ele>
        <time>2026-05-25T13:03:00.000Z</time>
      </trkpt>
      <trkpt lat="44.63338" lon="5.19546">
        <ele>1370</ele>
        <time>2026-05-25T13:03:01.000Z</time>
      </trkpt>
      <trkpt lat="44.63338" lon="5.19546">
        <ele>1370</ele>
        <time>2026-05-25T13:03:02.000Z</time>
      </trkpt>
      <trkpt lat="44.63338" lon="5.19546">
        <ele>1370</ele>
        <time>2026-05-25T13:03:03.000Z</time>
      </trkpt>
      <trkpt lat="44.63338" lon="5.19546">
        <ele>1370</ele>
        <time>2026-05-25T13:03:04.000Z</time>
      </trkpt>
      <trkpt lat="44.63338" lon="5.19546">
        <ele>1370</ele>
        <time>2026-05-25T13:03:05.000Z</time>
      </trkpt>
      <trkpt lat="44.63338" lon="5.19546">
        <ele>1370</ele>
        <time>2026-05-25T13:03:06.000Z</time>
      </trkpt>
      <trkpt lat="44.63338" lon="5.19546">
        <ele>1370</ele>
        <time>2026-05-25T13:03:07.000Z</time>
      </trkpt>
      <trkpt lat="44.63338" lon="5.19546">
        <ele>1370</ele>
        <time>2026-05-25T13:03:08.000Z</time>
      </trkpt>
      <trkpt lat="44.63338" lon="5.19546">
        <ele>1370</ele>
        <time>2026-05-25T13:03:09.000Z</time>
      </trkpt>
      <trkpt lat="44.63338" lon="5.19546">
        <ele>1370</ele>
        <time>2026-05-25T13:03:10.000Z</time>
      </trkpt>
      <trkpt lat="44.63338" lon="5.19546">
        <ele>1370</ele>
        <time>2026-05-25T13:03:11.000Z</time>
      </trkpt>
      <trkpt lat="44.63338" lon="5.19546">
        <ele>1370</ele>
        <time>2026-05-25T13:03:12.000Z</time>
      </trkpt>
      <trkpt lat="44.63338" lon="5.19546">
        <ele>1370</ele>
        <time>2026-05-25T13:03:13.000Z</time>
      </trkpt>
      <trkpt lat="44.63338" lon="5.19546">
        <ele>1370</ele>
        <time>2026-05-25T13:03:14.000Z</time>
      </trkpt>
      <trkpt lat="44.63338" lon="5.19546">
        <ele>1370</ele>
        <time>2026-05-25T13:03:15.000Z</time>
      </trkpt>
      <trkpt lat="44.63338" lon="5.19546">
        <ele>1370</ele>
        <time>2026-05-25T13:03:16.000Z</time>
      </trkpt>
      <trkpt lat="44.63338" lon="5.19546">
        <ele>1370</ele>
        <time>2026-05-25T13:03:17.000Z</time>
      </trkpt>
      <trkpt lat="44.63338" lon="5.19546">
        <ele>1370</ele>
        <time>2026-05-25T13:03:18.000Z</time>
      </trkpt>
      <trkpt lat="44.63338" lon="5.19546">
        <ele>1370</ele>
        <time>2026-05-25T13:03:19.000Z</time>
      </trkpt>
      <trkpt lat="44.63338" lon="5.19546">
        <ele>1370</ele>
        <time>2026-05-25T13:03:20.000Z</time>
      </trkpt>
      <trkpt lat="44.63338" lon="5.19546">
        <ele>1370</ele>
        <time>2026-05-25T13:03:21.000Z</time>
      </trkpt>
      <trkpt lat="44.63338" lon="5.19546">
        <ele>1370</ele>
        <time>2026-05-25T13:03:22.000Z</time>
      </trkpt>
      <trkpt lat="44.63338" lon="5.19546">
        <ele>1370</ele>
        <time>2026-05-25T13:03:23.000Z</time>
      </trkpt>
      <trkpt lat="44.63338" lon="5.19546">
        <ele>1370</ele>
        <time>2026-05-25T13:03:24.000Z</time>
      </trkpt>
      <trkpt lat="44.63338" lon="5.19546">
        <ele>1370</ele>
        <time>2026-05-25T13:03:25.000Z</time>
      </trkpt>
      <trkpt lat="44.63338" lon="5.19546">
        <ele>1370</ele>
        <time>2026-05-25T13:03:26.000Z</time>
      </trkpt>
      <trkpt lat="44.63338" lon="5.19546">
        <ele>1370</ele>
        <time>2026-05-25T13:03:27.000Z</time>
      </trkpt>
      <trkpt lat="44.63338" lon="5.19546">
        <ele>1370</ele>
        <time>2026-05-25T13:03:28.000Z</time>
      </trkpt>
      <trkpt lat="44.63338" lon="5.19546">
        <ele>1370</ele>
        <time>2026-05-25T13:03:29.000Z</time>
      </trkpt>
      <trkpt lat="44.63338" lon="5.19546">
        <ele>1370</ele>
        <time>2026-05-25T13:03:30.000Z</time>
      </trkpt>
      <trkpt lat="44.63338" lon="5.19546">
        <ele>1370</ele>
        <time>2026-05-25T13:03:31.000Z</time>
      </trkpt>
      <trkpt lat="44.63338" lon="5.19546">
        <ele>1370</ele>
        <time>2026-05-25T13:03:32.000Z</time>
      </trkpt>
      <trkpt lat="44.63338" lon="5.19546">
        <ele>1370</ele>
        <time>2026-05-25T13:03:33.000Z</time>
      </trkpt>
      <trkpt lat="44.63338" lon="5.19546">
        <ele>1370</ele>
        <time>2026-05-25T13:03:34.000Z</time>
      </trkpt>
      <trkpt lat="44.63338" lon="5.19546">
        <ele>1370</ele>
        <time>2026-05-25T13:03:35.000Z</time>
      </trkpt>
      <trkpt lat="44.63338" lon="5.19546">
        <ele>1370</ele>
        <time>2026-05-25T13:03:36.000Z</time>
      </trkpt>
      <trkpt lat="44.63338" lon="5.19546">
        <ele>1370</ele>
        <time>2026-05-25T13:03:37.000Z</time>
      </trkpt>
      <trkpt lat="44.63338" lon="5.19546">
        <ele>1370</ele>
        <time>2026-05-25T13:03:38.000Z</time>
      </trkpt>
      <trkpt lat="44.63338" lon="5.19546">
        <ele>1370</ele>
        <time>2026-05-25T13:03:39.000Z</time>
      </trkpt>
      <trkpt lat="44.63338" lon="5.19546">
        <ele>1370</ele>
        <time>2026-05-25T13:03:40.000Z</time>
      </trkpt>
      <trkpt lat="44.63338" lon="5.19546">
        <ele>1370</ele>
        <time>2026-05-25T13:03:41.000Z</time>
      </trkpt>
      <trkpt lat="44.63338" lon="5.19546">
        <ele>1370</ele>
        <time>2026-05-25T13:03:42.000Z</time>
      </trkpt>
      <trkpt lat="44.63338" lon="5.19546">
        <ele>1370</ele>
        <time>2026-05-25T13:03:43.000Z</time>
      </trkpt>
      <trkpt lat="44.63338" lon="5.19546">
        <ele>1370</ele>
        <time>2026-05-25T13:03:44.000Z</time>
      </trkpt>
      <trkpt lat="44.63338" lon="5.19546">
        <ele>1370</ele>
        <time>2026-05-25T13:03:45.000Z</time>
      </trkpt>
      <trkpt lat="44.63338" lon="5.19546">
        <ele>1370</ele>
        <time>2026-05-25T13:03:46.000Z</time>
      </trkpt>
      <trkpt lat="44.63338" lon="5.19546">
        <ele>1370</ele>
        <time>2026-05-25T13:03:47.000Z</time>
      </trkpt>
      <trkpt lat="44.63338" lon="5.19546">
        <ele>1370</ele>
        <time>2026-05-25T13:03:48.000Z</time>
      </trkpt>
      <trkpt lat="44.63338" lon="5.19546">
        <ele>1370</ele>
        <time>2026-05-25T13:03:49.000Z</time>
      </trkpt>
      <trkpt lat="44.63338" lon="5.19546">
        <ele>1370</ele>
        <time>2026-05-25T13:03:50.000Z</time>
      </trkpt>
      <trkpt lat="44.63338" lon="5.19546">
        <ele>1370</ele>
        <time>2026-05-25T13:03:51.000Z</time>
      </trkpt>
      <trkpt lat="44.63338" lon="5.19546">
        <ele>1370</ele>
        <time>2026-05-25T13:03:52.000Z</time>
      </trkpt>
      <trkpt lat="44.63338" lon="5.19546">
        <ele>1370</ele>
        <time>2026-05-25T13:03:53.000Z</time>
      </trkpt>
      <trkpt lat="44.63338" lon="5.19546">
        <ele>1370</ele>
        <time>2026-05-25T13:03:54.000Z</time>
      </trkpt>
      <trkpt lat="44.63338" lon="5.19546">
        <ele>1370</ele>
        <time>2026-05-25T13:03:55.000Z</time>
      </trkpt>
      <trkpt lat="44.63338" lon="5.19546">
        <ele>1370</ele>
        <time>2026-05-25T13:03:56.000Z</time>
      </trkpt>
      <trkpt lat="44.63338" lon="5.19546">
        <ele>1370</ele>
        <time>2026-05-25T13:03:57.000Z</time>
      </trkpt>
      <trkpt lat="44.63338" lon="5.19546">
        <ele>1370</ele>
        <time>2026-05-25T13:03:58.000Z</time>
      </trkpt>
      <trkpt lat="44.63338" lon="5.19546">
        <ele>1370</ele>
        <time>2026-05-25T13:03:59.000Z</time>
      </trkpt>
      <trkpt lat="44.63338" lon="5.19546">
        <ele>1370</ele>
        <time>2026-05-25T13:04:00.000Z</time>
      </trkpt>
      <trkpt lat="44.63338" lon="5.19546">
        <ele>1370</ele>
        <time>2026-05-25T13:04:01.000Z</time>
      </trkpt>
      <trkpt lat="44.63338" lon="5.19546">
        <ele>1370</ele>
        <time>2026-05-25T13:04:02.000Z</time>
      </trkpt>
      <trkpt lat="44.63338" lon="5.19546">
        <ele>1370</ele>
        <time>2026-05-25T13:04:03.000Z</time>
      </trkpt>
      <trkpt lat="44.63338" lon="5.19546">
        <ele>1370</ele>
        <time>2026-05-25T13:04:04.000Z</time>
      </trkpt>
      <trkpt lat="44.63338" lon="5.19546">
        <ele>1370</ele>
        <time>2026-05-25T13:04:05.000Z</time>
      </trkpt>
      <trkpt lat="44.63338" lon="5.19546">
        <ele>1370</ele>
        <time>2026-05-25T13:04:06.000Z</time>
      </trkpt>
      <trkpt lat="44.63338" lon="5.19546">
        <ele>1370</ele>
        <time>2026-05-25T13:04:07.000Z</time>
      </trkpt>
      <trkpt lat="44.63338" lon="5.19546">
        <ele>1370</ele>
        <time>2026-05-25T13:04:08.000Z</time>
      </trkpt>
      <trkpt lat="44.63338" lon="5.19546">
        <ele>1370</ele>
        <time>2026-05-25T13:04:09.000Z</time>
      </trkpt>
      <trkpt lat="44.63338" lon="5.19546">
        <ele>1370</ele>
        <time>2026-05-25T13:04:10.000Z</time>
      </trkpt>
      <trkpt lat="44.63338" lon="5.19546">
        <ele>1370</ele>
        <time>2026-05-25T13:04:11.000Z</time>
      </trkpt>
      <trkpt lat="44.63338" lon="5.19546">
        <ele>1370</ele>
        <time>2026-05-25T13:04:12.000Z</time>
      </trkpt>
      <trkpt lat="44.63338" lon="5.19546">
        <ele>1370</ele>
        <time>2026-05-25T13:04:13.000Z</time>
      </trkpt>
      <trkpt lat="44.63338" lon="5.19546">
        <ele>1370</ele>
        <time>2026-05-25T13:04:14.000Z</time>
      </trkpt>
      <trkpt lat="44.63338" lon="5.19546">
        <ele>1370</ele>
        <time>2026-05-25T13:04:15.000Z</time>
      </trkpt>
      <trkpt lat="44.63338" lon="5.19546">
        <ele>1370</ele>
        <time>2026-05-25T13:04:16.000Z</time>
      </trkpt>
      <trkpt lat="44.63338" lon="5.19546">
        <ele>1370</ele>
        <time>2026-05-25T13:04:17.000Z</time>
      </trkpt>
      <trkpt lat="44.63338" lon="5.19546">
        <ele>1370</ele>
        <time>2026-05-25T13:04:18.000Z</time>
      </trkpt>
      <trkpt lat="44.63338" lon="5.19546">
        <ele>1370</ele>
        <time>2026-05-25T13:04:19.000Z</time>
      </trkpt>
      <trkpt lat="44.63338" lon="5.19546">
        <ele>1370</ele>
        <time>2026-05-25T13:04:20.000Z</time>
      </trkpt>
      <trkpt lat="44.63338" lon="5.19546">
        <ele>1370</ele>
        <time>2026-05-25T13:04:21.000Z</time>
      </trkpt>
      <trkpt lat="44.63338" lon="5.19546">
        <ele>1370</ele>
        <time>2026-05-25T13:04:22.000Z</time>
      </trkpt>
      <trkpt lat="44.63338" lon="5.19546">
        <ele>1370</ele>
        <time>2026-05-25T13:04:23.000Z</time>
      </trkpt>
      <trkpt lat="44.63338" lon="5.19546">
        <ele>1370</ele>
        <time>2026-05-25T13:04:24.000Z</time>
      </trkpt>
      <trkpt lat="44.63338" lon="5.19546">
        <ele>1370</ele>
        <time>2026-05-25T13:04:25.000Z</time>
      </trkpt>
      <trkpt lat="44.63338" lon="5.19546">
        <ele>1370</ele>
        <time>2026-05-25T13:04:26.000Z</time>
      </trkpt>
      <trkpt lat="44.63338" lon="5.19546">
        <ele>1370</ele>
        <time>2026-05-25T13:04:27.000Z</time>
      </trkpt>
      <trkpt lat="44.63338" lon="5.19546">
        <ele>1370</ele>
        <time>2026-05-25T13:04:28.000Z</time>
      </trkpt>
      <trkpt lat="44.63338" lon="5.19546">
        <ele>1370</ele>
        <time>2026-05-25T13:04:29.000Z</time>
      </trkpt>
      <trkpt lat="44.63338" lon="5.19546">
        <ele>1370</ele>
        <time>2026-05-25T13:04:30.000Z</time>
      </trkpt>
      <trkpt lat="44.63338" lon="5.19546">
        <ele>1370</ele>
        <time>2026-05-25T13:04:31.000Z</time>
      </trkpt>
      <trkpt lat="44.63338" lon="5.19546">
        <ele>1370</ele>
        <time>2026-05-25T13:04:32.000Z</time>
      </trkpt>
      <trkpt lat="44.63338" lon="5.19546">
        <ele>1370</ele>
        <time>2026-05-25T13:04:33.000Z</time>
      </trkpt>
      <trkpt lat="44.63338" lon="5.19546">
        <ele>1370</ele>
        <time>2026-05-25T13:04:34.000Z</time>
      </trkpt>
      <trkpt lat="44.63338" lon="5.19546">
        <ele>1370</ele>
        <time>2026-05-25T13:04:35.000Z</time>
      </trkpt>
      <trkpt lat="44.63338" lon="5.19546">
        <ele>1370</ele>
        <time>2026-05-25T13:04:36.000Z</time>
      </trkpt>
      <trkpt lat="44.63338" lon="5.19546">
        <ele>1370</ele>
        <time>2026-05-25T13:04:37.000Z</time>
      </trkpt>
      <trkpt lat="44.63338" lon="5.19546">
        <ele>1370</ele>
        <time>2026-05-25T13:04:38.000Z</time>
      </trkpt>
      <trkpt lat="44.63338" lon="5.19546">
        <ele>1370</ele>
        <time>2026-05-25T13:04:39.000Z</time>
      </trkpt>
      <trkpt lat="44.63338" lon="5.19546">
        <ele>1370</ele>
        <time>2026-05-25T13:04:40.000Z</time>
      </trkpt>
      <trkpt lat="44.63338" lon="5.19546">
        <ele>1370</ele>
        <time>2026-05-25T13:04:41.000Z</time>
      </trkpt>
      <trkpt lat="44.63338" lon="5.19546">
        <ele>1370</ele>
        <time>2026-05-25T13:04:42.000Z</time>
      </trkpt>
      <trkpt lat="44.63338" lon="5.19546">
        <ele>1370</ele>
        <time>2026-05-25T13:04:43.000Z</time>
      </trkpt>
      <trkpt lat="44.63338" lon="5.19546">
        <ele>1370</ele>
        <time>2026-05-25T13:04:44.000Z</time>
      </trkpt>
      <trkpt lat="44.63338" lon="5.19546">
        <ele>1370</ele>
        <time>2026-05-25T13:04:45.000Z</time>
      </trkpt>
      <trkpt lat="44.63338" lon="5.19546">
        <ele>1370</ele>
        <time>2026-05-25T13:04:46.000Z</time>
      </trkpt>
      <trkpt lat="44.63338" lon="5.19546">
        <ele>1370</ele>
        <time>2026-05-25T13:04:47.000Z</time>
      </trkpt>
      <trkpt lat="44.63338" lon="5.19546">
        <ele>1370</ele>
        <time>2026-05-25T13:04:48.000Z</time>
      </trkpt>
      <trkpt lat="44.63338" lon="5.19546">
        <ele>1370</ele>
        <time>2026-05-25T13:04:49.000Z</time>
      </trkpt>
      <trkpt lat="44.63338" lon="5.19546">
        <ele>1370</ele>
        <time>2026-05-25T13:04:50.000Z</time>
      </trkpt>
      <trkpt lat="44.63338" lon="5.19546">
        <ele>1370</ele>
        <time>2026-05-25T13:04:51.000Z</time>
      </trkpt>
      <trkpt lat="44.63338" lon="5.19546">
        <ele>1370</ele>
        <time>2026-05-25T13:04:52.000Z</time>
      </trkpt>
      <trkpt lat="44.63338" lon="5.19546">
        <ele>1370</ele>
        <time>2026-05-25T13:04:53.000Z</time>
      </trkpt>
      <trkpt lat="44.63338" lon="5.19546">
        <ele>1370</ele>
        <time>2026-05-25T13:04:54.000Z</time>
      </trkpt>
      <trkpt lat="44.63338" lon="5.19546">
        <ele>1370</ele>
        <time>2026-05-25T13:04:55.000Z</time>
      </trkpt>
      <trkpt lat="44.63338" lon="5.19546">
        <ele>1370</ele>
        <time>2026-05-25T13:04:56.000Z</time>
      </trkpt>
      <trkpt lat="44.63338" lon="5.19546">
        <ele>1370</ele>
        <time>2026-05-25T13:04:57.000Z</time>
      </trkpt>
      <trkpt lat="44.63338" lon="5.19546">
        <ele>1370</ele>
        <time>2026-05-25T13:04:58.000Z</time>
      </trkpt>
      <trkpt lat="44.63338" lon="5.19546">
        <ele>1370</ele>
        <time>2026-05-25T13:04:59.000Z</time>
      </trkpt>
      <trkpt lat="44.63338" lon="5.19546">
        <ele>1370</ele>
        <time>2026-05-25T13:05:00.000Z</time>
      </trkpt>
      <trkpt lat="44.63338" lon="5.19546">
        <ele>1370</ele>
        <time>2026-05-25T13:05:01.000Z</time>
      </trkpt>
      <trkpt lat="44.63338" lon="5.19546">
        <ele>1370</ele>
        <time>2026-05-25T13:05:02.000Z</time>
      </trkpt>
      <trkpt lat="44.63338" lon="5.19546">
        <ele>1370</ele>
        <time>2026-05-25T13:05:03.000Z</time>
      </trkpt>
      <trkpt lat="44.63338" lon="5.19546">
        <ele>1370</ele>
        <time>2026-05-25T13:05:04.000Z</time>
      </trkpt>
      <trkpt lat="44.63338" lon="5.19546">
        <ele>1370</ele>
        <time>2026-05-25T13:05:05.000Z</time>
      </trkpt>
      <trkpt lat="44.63338" lon="5.19546">
        <ele>1370</ele>
        <time>2026-05-25T13:05:06.000Z</time>
      </trkpt>
      <trkpt lat="44.63338" lon="5.19546">
        <ele>1370</ele>
        <time>2026-05-25T13:05:07.000Z</time>
      </trkpt>
      <trkpt lat="44.63338" lon="5.19546">
        <ele>1370</ele>
        <time>2026-05-25T13:05:08.000Z</time>
      </trkpt>
      <trkpt lat="44.63338" lon="5.19546">
        <ele>1370</ele>
        <time>2026-05-25T13:05:09.000Z</time>
      </trkpt>
      <trkpt lat="44.63338" lon="5.19546">
        <ele>1370</ele>
        <time>2026-05-25T13:05:10.000Z</time>
      </trkpt>
      <trkpt lat="44.63338" lon="5.19546">
        <ele>1370</ele>
        <time>2026-05-25T13:05:11.000Z</time>
      </trkpt>
      <trkpt lat="44.63338" lon="5.19546">
        <ele>1370</ele>
        <time>2026-05-25T13:05:12.000Z</time>
      </trkpt>
      <trkpt lat="44.63338" lon="5.19546">
        <ele>1370</ele>
        <time>2026-05-25T13:05:13.000Z</time>
      </trkpt>
      <trkpt lat="44.63338" lon="5.19546">
        <ele>1370</ele>
        <time>2026-05-25T13:05:14.000Z</time>
      </trkpt>
      <trkpt lat="44.63338" lon="5.19546">
        <ele>1370</ele>
        <time>2026-05-25T13:05:15.000Z</time>
      </trkpt>
      <trkpt lat="44.63338" lon="5.19546">
        <ele>1370</ele>
        <time>2026-05-25T13:05:16.000Z</time>
      </trkpt>
      <trkpt lat="44.63338" lon="5.19546">
        <ele>1370</ele>
        <time>2026-05-25T13:05:17.000Z</time>
      </trkpt>
      <trkpt lat="44.63338" lon="5.19546">
        <ele>1370</ele>
        <time>2026-05-25T13:05:18.000Z</time>
      </trkpt>
      <trkpt lat="44.63338" lon="5.19546">
        <ele>1370</ele>
        <time>2026-05-25T13:05:19.000Z</time>
      </trkpt>
      <trkpt lat="44.63338" lon="5.19546">
        <ele>1370</ele>
        <time>2026-05-25T13:05:20.000Z</time>
      </trkpt>
      <trkpt lat="44.63338" lon="5.19546">
        <ele>1370</ele>
        <time>2026-05-25T13:05:21.000Z</time>
      </trkpt>
      <trkpt lat="44.63338" lon="5.19546">
        <ele>1370</ele>
        <time>2026-05-25T13:05:22.000Z</time>
      </trkpt>
      <trkpt lat="44.63338" lon="5.19546">
        <ele>1370</ele>
        <time>2026-05-25T13:05:23.000Z</time>
      </trkpt>
      <trkpt lat="44.63338" lon="5.19546">
        <ele>1370</ele>
        <time>2026-05-25T13:05:24.000Z</time>
      </trkpt>
      <trkpt lat="44.63338" lon="5.19546">
        <ele>1370</ele>
        <time>2026-05-25T13:05:25.000Z</time>
      </trkpt>
      <trkpt lat="44.63338" lon="5.19546">
        <ele>1370</ele>
        <time>2026-05-25T13:05:26.000Z</time>
      </trkpt>
      <trkpt lat="44.63338" lon="5.19546">
        <ele>1370</ele>
        <time>2026-05-25T13:05:27.000Z</time>
      </trkpt>
      <trkpt lat="44.63338" lon="5.19546">
        <ele>1370</ele>
        <time>2026-05-25T13:05:28.000Z</time>
      </trkpt>
      <trkpt lat="44.63338" lon="5.19546">
        <ele>1370</ele>
        <time>2026-05-25T13:05:29.000Z</time>
      </trkpt>
      <trkpt lat="44.63338" lon="5.19546">
        <ele>1370</ele>
        <time>2026-05-25T13:05:30.000Z</time>
      </trkpt>
      <trkpt lat="44.63338" lon="5.19546">
        <ele>1370</ele>
        <time>2026-05-25T13:05:31.000Z</time>
      </trkpt>
      <trkpt lat="44.63338" lon="5.19546">
        <ele>1370</ele>
        <time>2026-05-25T13:05:32.000Z</time>
      </trkpt>
      <trkpt lat="44.63338" lon="5.19546">
        <ele>1370</ele>
        <time>2026-05-25T13:05:33.000Z</time>
      </trkpt>
      <trkpt lat="44.63338" lon="5.19546">
        <ele>1370</ele>
        <time>2026-05-25T13:05:34.000Z</time>
      </trkpt>
      <trkpt lat="44.63338" lon="5.19546">
        <ele>1370</ele>
        <time>2026-05-25T13:05:35.000Z</time>
      </trkpt>
      <trkpt lat="44.63338" lon="5.19546">
        <ele>1370</ele>
        <time>2026-05-25T13:05:36.000Z</time>
      </trkpt>
      <trkpt lat="44.63338" lon="5.19546">
        <ele>1370</ele>
        <time>2026-05-25T13:05:37.000Z</time>
      </trkpt>
      <trkpt lat="44.63338" lon="5.19546">
        <ele>1370</ele>
        <time>2026-05-25T13:05:38.000Z</time>
      </trkpt>
      <trkpt lat="44.63338" lon="5.19546">
        <ele>1370</ele>
        <time>2026-05-25T13:05:39.000Z</time>
      </trkpt>
      <trkpt lat="44.63338" lon="5.19546">
        <ele>1370</ele>
        <time>2026-05-25T13:05:40.000Z</time>
      </trkpt>
      <trkpt lat="44.63338" lon="5.19546">
        <ele>1370</ele>
        <time>2026-05-25T13:05:41.000Z</time>
      </trkpt>
      <trkpt lat="44.63338" lon="5.19546">
        <ele>1370</ele>
        <time>2026-05-25T13:05:42.000Z</time>
      </trkpt>
      <trkpt lat="44.63338" lon="5.19546">
        <ele>1370</ele>
        <time>2026-05-25T13:05:43.000Z</time>
      </trkpt>
      <trkpt lat="44.63338" lon="5.19546">
        <ele>1370</ele>
        <time>2026-05-25T13:05:44.000Z</time>
      </trkpt>
      <trkpt lat="44.63338" lon="5.19546">
        <ele>1370</ele>
        <time>2026-05-25T13:05:45.000Z</time>
      </trkpt>
      <trkpt lat="44.63338" lon="5.19546">
        <ele>1370</ele>
        <time>2026-05-25T13:05:46.000Z</time>
      </trkpt>
      <trkpt lat="44.63338" lon="5.19546">
        <ele>1370</ele>
        <time>2026-05-25T13:05:47.000Z</time>
      </trkpt>
      <trkpt lat="44.63338" lon="5.19546">
        <ele>1370</ele>
        <time>2026-05-25T13:05:48.000Z</time>
      </trkpt>
      <trkpt lat="44.63338" lon="5.19546">
        <ele>1370</ele>
        <time>2026-05-25T13:05:49.000Z</time>
      </trkpt>
      <trkpt lat="44.63338" lon="5.19546">
        <ele>1370</ele>
        <time>2026-05-25T13:05:50.000Z</time>
      </trkpt>
      <trkpt lat="44.63338" lon="5.19546">
        <ele>1370</ele>
        <time>2026-05-25T13:05:51.000Z</time>
      </trkpt>
      <trkpt lat="44.63338" lon="5.19546">
        <ele>1370</ele>
        <time>2026-05-25T13:05:52.000Z</time>
      </trkpt>
      <trkpt lat="44.63338" lon="5.19546">
        <ele>1370</ele>
        <time>2026-05-25T13:05:53.000Z</time>
      </trkpt>
      <trkpt lat="44.63338" lon="5.19546">
        <ele>1370</ele>
        <time>2026-05-25T13:05:54.000Z</time>
      </trkpt>
      <trkpt lat="44.63338" lon="5.19546">
        <ele>1370</ele>
        <time>2026-05-25T13:05:55.000Z</time>
      </trkpt>
      <trkpt lat="44.63338" lon="5.19546">
        <ele>1370</ele>
        <time>2026-05-25T13:05:56.000Z</time>
      </trkpt>
      <trkpt lat="44.63338" lon="5.19546">
        <ele>1370</ele>
        <time>2026-05-25T13:05:57.000Z</time>
      </trkpt>
      <trkpt lat="44.63338" lon="5.19546">
        <ele>1370</ele>
        <time>2026-05-25T13:05:58.000Z</time>
      </trkpt>
      <trkpt lat="44.63338" lon="5.19546">
        <ele>1370</ele>
        <time>2026-05-25T13:05:59.000Z</time>
      </trkpt>
      <trkpt lat="44.63338" lon="5.19546">
        <ele>1370</ele>
        <time>2026-05-25T13:06:00.000Z</time>
      </trkpt>
      <trkpt lat="44.63338" lon="5.19546">
        <ele>1370</ele>
        <time>2026-05-25T13:06:01.000Z</time>
      </trkpt>
      <trkpt lat="44.63338" lon="5.19546">
        <ele>1370</ele>
        <time>2026-05-25T13:06:02.000Z</time>
      </trkpt>
      <trkpt lat="44.63338" lon="5.19546">
        <ele>1370</ele>
        <time>2026-05-25T13:06:03.000Z</time>
      </trkpt>
      <trkpt lat="44.63338" lon="5.19546">
        <ele>1370</ele>
        <time>2026-05-25T13:06:04.000Z</time>
      </trkpt>
      <trkpt lat="44.63338" lon="5.19546">
        <ele>1370</ele>
        <time>2026-05-25T13:06:05.000Z</time>
      </trkpt>
      <trkpt lat="44.63338" lon="5.19546">
        <ele>1370</ele>
        <time>2026-05-25T13:06:06.000Z</time>
      </trkpt>
      <trkpt lat="44.63338" lon="5.19546">
        <ele>1370</ele>
        <time>2026-05-25T13:06:07.000Z</time>
      </trkpt>
      <trkpt lat="44.63338" lon="5.19546">
        <ele>1370</ele>
        <time>2026-05-25T13:06:08.000Z</time>
      </trkpt>
      <trkpt lat="44.63338" lon="5.19546">
        <ele>1370</ele>
        <time>2026-05-25T13:06:09.000Z</time>
      </trkpt>
      <trkpt lat="44.63338" lon="5.19546">
        <ele>1370</ele>
        <time>2026-05-25T13:06:10.000Z</time>
      </trkpt>
      <trkpt lat="44.63338" lon="5.19546">
        <ele>1370</ele>
        <time>2026-05-25T13:06:11.000Z</time>
      </trkpt>
      <trkpt lat="44.63338" lon="5.19546">
        <ele>1370</ele>
        <time>2026-05-25T13:06:12.000Z</time>
      </trkpt>
      <trkpt lat="44.63338" lon="5.19546">
        <ele>1370</ele>
        <time>2026-05-25T13:06:13.000Z</time>
      </trkpt>
      <trkpt lat="44.63338" lon="5.19546">
        <ele>1370</ele>
        <time>2026-05-25T13:06:14.000Z</time>
      </trkpt>
      <trkpt lat="44.63338" lon="5.19546">
        <ele>1370</ele>
        <time>2026-05-25T13:06:15.000Z</time>
      </trkpt>
      <trkpt lat="44.63338" lon="5.19546">
        <ele>1370</ele>
        <time>2026-05-25T13:06:16.000Z</time>
      </trkpt>
      <trkpt lat="44.63338" lon="5.19546">
        <ele>1370</ele>
        <time>2026-05-25T13:06:17.000Z</time>
      </trkpt>
      <trkpt lat="44.63338" lon="5.19546">
        <ele>1370</ele>
        <time>2026-05-25T13:06:18.000Z</time>
      </trkpt>
      <trkpt lat="44.63338" lon="5.19546">
        <ele>1370</ele>
        <time>2026-05-25T13:06:19.000Z</time>
      </trkpt>
      <trkpt lat="44.63338" lon="5.19546">
        <ele>1370</ele>
        <time>2026-05-25T13:06:20.000Z</time>
      </trkpt>
      <trkpt lat="44.63338" lon="5.19546">
        <ele>1370</ele>
        <time>2026-05-25T13:06:21.000Z</time>
      </trkpt>
      <trkpt lat="44.63338" lon="5.19546">
        <ele>1370</ele>
        <time>2026-05-25T13:06:22.000Z</time>
      </trkpt>
      <trkpt lat="44.63338" lon="5.19546">
        <ele>1370</ele>
        <time>2026-05-25T13:06:23.000Z</time>
      </trkpt>
      <trkpt lat="44.63338" lon="5.19546">
        <ele>1370</ele>
        <time>2026-05-25T13:06:24.000Z</time>
      </trkpt>
      <trkpt lat="44.63338" lon="5.19546">
        <ele>1370</ele>
        <time>2026-05-25T13:06:25.000Z</time>
      </trkpt>
      <trkpt lat="44.63338" lon="5.19546">
        <ele>1370</ele>
        <time>2026-05-25T13:06:26.000Z</time>
      </trkpt>
      <trkpt lat="44.63338" lon="5.19546">
        <ele>1370</ele>
        <time>2026-05-25T13:06:27.000Z</time>
      </trkpt>
      <trkpt lat="44.63338" lon="5.19546">
        <ele>1370</ele>
        <time>2026-05-25T13:06:28.000Z</time>
      </trkpt>
      <trkpt lat="44.63338" lon="5.19546">
        <ele>1370</ele>
        <time>2026-05-25T13:06:29.000Z</time>
      </trkpt>
      <trkpt lat="44.63338" lon="5.19546">
        <ele>1370</ele>
        <time>2026-05-25T13:06:30.000Z</time>
      </trkpt>
      <trkpt lat="44.63338" lon="5.19546">
        <ele>1370</ele>
        <time>2026-05-25T13:06:31.000Z</time>
      </trkpt>
      <trkpt lat="44.63338" lon="5.19546">
        <ele>1370</ele>
        <time>2026-05-25T13:06:32.000Z</time>
      </trkpt>
      <trkpt lat="44.63338" lon="5.19546">
        <ele>1370</ele>
        <time>2026-05-25T13:06:33.000Z</time>
      </trkpt>
      <trkpt lat="44.63338" lon="5.19546">
        <ele>1370</ele>
        <time>2026-05-25T13:06:34.000Z</time>
      </trkpt>
      <trkpt lat="44.63338" lon="5.19546">
        <ele>1370</ele>
        <time>2026-05-25T13:06:35.000Z</time>
      </trkpt>
      <trkpt lat="44.63338" lon="5.19546">
        <ele>1370</ele>
        <time>2026-05-25T13:06:36.000Z</time>
      </trkpt>
      <trkpt lat="44.63338" lon="5.19546">
        <ele>1370</ele>
        <time>2026-05-25T13:06:37.000Z</time>
      </trkpt>
      <trkpt lat="44.63338" lon="5.19546">
        <ele>1370</ele>
        <time>2026-05-25T13:06:38.000Z</time>
      </trkpt>
      <trkpt lat="44.63338" lon="5.19546">
        <ele>1370</ele>
        <time>2026-05-25T13:06:39.000Z</time>
      </trkpt>
      <trkpt lat="44.63338" lon="5.19546">
        <ele>1370</ele>
        <time>2026-05-25T13:06:40.000Z</time>
      </trkpt>
      <trkpt lat="44.63338" lon="5.19546">
        <ele>1370</ele>
        <time>2026-05-25T13:06:41.000Z</time>
      </trkpt>
      <trkpt lat="44.63338" lon="5.19546">
        <ele>1370</ele>
        <time>2026-05-25T13:06:42.000Z</time>
      </trkpt>
      <trkpt lat="44.63338" lon="5.19546">
        <ele>1370</ele>
        <time>2026-05-25T13:06:43.000Z</time>
      </trkpt>
      <trkpt lat="44.63338" lon="5.19546">
        <ele>1370</ele>
        <time>2026-05-25T13:06:44.000Z</time>
      </trkpt>
      <trkpt lat="44.63338" lon="5.19546">
        <ele>1370</ele>
        <time>2026-05-25T13:06:45.000Z</time>
      </trkpt>
      <trkpt lat="44.63338" lon="5.19546">
        <ele>1370</ele>
        <time>2026-05-25T13:06:46.000Z</time>
      </trkpt>
      <trkpt lat="44.63338" lon="5.19546">
        <ele>1370</ele>
        <time>2026-05-25T13:06:47.000Z</time>
      </trkpt>
      <trkpt lat="44.63338" lon="5.19546">
        <ele>1370</ele>
        <time>2026-05-25T13:06:48.000Z</time>
      </trkpt>
      <trkpt lat="44.63338" lon="5.19546">
        <ele>1370</ele>
        <time>2026-05-25T13:06:49.000Z</time>
      </trkpt>
      <trkpt lat="44.63338" lon="5.19546">
        <ele>1370</ele>
        <time>2026-05-25T13:06:50.000Z</time>
      </trkpt>
      <trkpt lat="44.63338" lon="5.19546">
        <ele>1370</ele>
        <time>2026-05-25T13:06:51.000Z</time>
      </trkpt>
      <trkpt lat="44.63338" lon="5.19546">
        <ele>1370</ele>
        <time>2026-05-25T13:06:52.000Z</time>
      </trkpt>
      <trkpt lat="44.63338" lon="5.19546">
        <ele>1370</ele>
        <time>2026-05-25T13:06:53.000Z</time>
      </trkpt>
      <trkpt lat="44.63338" lon="5.19546">
        <ele>1370</ele>
        <time>2026-05-25T13:06:54.000Z</time>
      </trkpt>
      <trkpt lat="44.63338" lon="5.19546">
        <ele>1370</ele>
        <time>2026-05-25T13:06:55.000Z</time>
      </trkpt>
      <trkpt lat="44.63338" lon="5.19546">
        <ele>1370</ele>
        <time>2026-05-25T13:06:56.000Z</time>
      </trkpt>
      <trkpt lat="44.63338" lon="5.19546">
        <ele>1370</ele>
        <time>2026-05-25T13:06:57.000Z</time>
      </trkpt>
      <trkpt lat="44.63338" lon="5.19546">
        <ele>1370</ele>
        <time>2026-05-25T13:06:58.000Z</time>
      </trkpt>
      <trkpt lat="44.63338" lon="5.19546">
        <ele>1370</ele>
        <time>2026-05-25T13:06:59.000Z</time>
      </trkpt>
      <trkpt lat="44.63338" lon="5.19546">
        <ele>1370</ele>
        <time>2026-05-25T13:07:00.000Z</time>
      </trkpt>
      <trkpt lat="44.63338" lon="5.19546">
        <ele>1370</ele>
        <time>2026-05-25T13:07:01.000Z</time>
      </trkpt>
      <trkpt lat="44.63338" lon="5.19546">
        <ele>1370</ele>
        <time>2026-05-25T13:07:02.000Z</time>
      </trkpt>
      <trkpt lat="44.63338" lon="5.19546">
        <ele>1370</ele>
        <time>2026-05-25T13:07:03.000Z</time>
      </trkpt>
      <trkpt lat="44.63338" lon="5.19546">
        <ele>1370</ele>
        <time>2026-05-25T13:07:04.000Z</time>
      </trkpt>
      <trkpt lat="44.63338" lon="5.19546">
        <ele>1370</ele>
        <time>2026-05-25T13:07:05.000Z</time>
      </trkpt>
      <trkpt lat="44.63338" lon="5.19546">
        <ele>1370</ele>
        <time>2026-05-25T13:07:06.000Z</time>
      </trkpt>
      <trkpt lat="44.63338" lon="5.19546">
        <ele>1370</ele>
        <time>2026-05-25T13:07:07.000Z</time>
      </trkpt>
      <trkpt lat="44.63338" lon="5.19546">
        <ele>1370</ele>
        <time>2026-05-25T13:07:08.000Z</time>
      </trkpt>
      <trkpt lat="44.63338" lon="5.19546">
        <ele>1370</ele>
        <time>2026-05-25T13:07:09.000Z</time>
      </trkpt>
      <trkpt lat="44.63338" lon="5.19546">
        <ele>1370</ele>
        <time>2026-05-25T13:07:10.000Z</time>
      </trkpt>
      <trkpt lat="44.63338" lon="5.19546">
        <ele>1370</ele>
        <time>2026-05-25T13:07:11.000Z</time>
      </trkpt>
      <trkpt lat="44.63338" lon="5.19546">
        <ele>1370</ele>
        <time>2026-05-25T13:07:12.000Z</time>
      </trkpt>
      <trkpt lat="44.63338" lon="5.19546">
        <ele>1370</ele>
        <time>2026-05-25T13:07:13.000Z</time>
      </trkpt>
      <trkpt lat="44.63338" lon="5.19546">
        <ele>1370</ele>
        <time>2026-05-25T13:07:14.000Z</time>
      </trkpt>
      <trkpt lat="44.63338" lon="5.19546">
        <ele>1370</ele>
        <time>2026-05-25T13:07:15.000Z</time>
      </trkpt>
      <trkpt lat="44.63338" lon="5.19546">
        <ele>1370</ele>
        <time>2026-05-25T13:07:16.000Z</time>
      </trkpt>
      <trkpt lat="44.63338" lon="5.19546">
        <ele>1370</ele>
        <time>2026-05-25T13:07:17.000Z</time>
      </trkpt>
      <trkpt lat="44.63338" lon="5.19546">
        <ele>1370</ele>
        <time>2026-05-25T13:07:18.000Z</time>
      </trkpt>
      <trkpt lat="44.63338" lon="5.19546">
        <ele>1370</ele>
        <time>2026-05-25T13:07:19.000Z</time>
      </trkpt>
      <trkpt lat="44.63338" lon="5.19546">
        <ele>1370</ele>
        <time>2026-05-25T13:07:20.000Z</time>
      </trkpt>
      <trkpt lat="44.63338" lon="5.19546">
        <ele>1370</ele>
        <time>2026-05-25T13:07:21.000Z</time>
      </trkpt>
      <trkpt lat="44.63338" lon="5.19546">
        <ele>1370</ele>
        <time>2026-05-25T13:07:22.000Z</time>
      </trkpt>
      <trkpt lat="44.63338" lon="5.19546">
        <ele>1370</ele>
        <time>2026-05-25T13:07:23.000Z</time>
      </trkpt>
      <trkpt lat="44.63338" lon="5.19546">
        <ele>1370</ele>
        <time>2026-05-25T13:07:24.000Z</time>
      </trkpt>
      <trkpt lat="44.63338" lon="5.19546">
        <ele>1370</ele>
        <time>2026-05-25T13:07:25.000Z</time>
      </trkpt>
      <trkpt lat="44.63338" lon="5.19546">
        <ele>1370</ele>
        <time>2026-05-25T13:07:26.000Z</time>
      </trkpt>
      <trkpt lat="44.63338" lon="5.19546">
        <ele>1370</ele>
        <time>2026-05-25T13:07:27.000Z</time>
      </trkpt>
      <trkpt lat="44.63338" lon="5.19546">
        <ele>1370</ele>
        <time>2026-05-25T13:07:28.000Z</time>
      </trkpt>
      <trkpt lat="44.63338" lon="5.19546">
        <ele>1370</ele>
        <time>2026-05-25T13:07:29.000Z</time>
      </trkpt>
      <trkpt lat="44.63338" lon="5.19546">
        <ele>1370</ele>
        <time>2026-05-25T13:07:30.000Z</time>
      </trkpt>
      <trkpt lat="44.63338" lon="5.19546">
        <ele>1370</ele>
        <time>2026-05-25T13:07:31.000Z</time>
      </trkpt>
      <trkpt lat="44.63338" lon="5.19546">
        <ele>1370</ele>
        <time>2026-05-25T13:07:32.000Z</time>
      </trkpt>
      <trkpt lat="44.63338" lon="5.19546">
        <ele>1370</ele>
        <time>2026-05-25T13:07:33.000Z</time>
      </trkpt>
      <trkpt lat="44.63338" lon="5.19546">
        <ele>1370</ele>
        <time>2026-05-25T13:07:34.000Z</time>
      </trkpt>
      <trkpt lat="44.63338" lon="5.19546">
        <ele>1370</ele>
        <time>2026-05-25T13:07:35.000Z</time>
      </trkpt>
      <trkpt lat="44.63338" lon="5.19546">
        <ele>1370</ele>
        <time>2026-05-25T13:07:36.000Z</time>
      </trkpt>
      <trkpt lat="44.63338" lon="5.19546">
        <ele>1370</ele>
        <time>2026-05-25T13:07:37.000Z</time>
      </trkpt>
      <trkpt lat="44.63338" lon="5.19546">
        <ele>1370</ele>
        <time>2026-05-25T13:07:38.000Z</time>
      </trkpt>
      <trkpt lat="44.63338" lon="5.19546">
        <ele>1370</ele>
        <time>2026-05-25T13:07:39.000Z</time>
      </trkpt>
      <trkpt lat="44.63338" lon="5.19546">
        <ele>1370</ele>
        <time>2026-05-25T13:07:40.000Z</time>
      </trkpt>
      <trkpt lat="44.63338" lon="5.19546">
        <ele>1370</ele>
        <time>2026-05-25T13:07:41.000Z</time>
      </trkpt>
      <trkpt lat="44.63338" lon="5.19546">
        <ele>1370</ele>
        <time>2026-05-25T13:07:42.000Z</time>
      </trkpt>
      <trkpt lat="44.63338" lon="5.19546">
        <ele>1370</ele>
        <time>2026-05-25T13:07:43.000Z</time>
      </trkpt>
      <trkpt lat="44.63338" lon="5.19546">
        <ele>1370</ele>
        <time>2026-05-25T13:07:44.000Z</time>
      </trkpt>
      <trkpt lat="44.63338" lon="5.19546">
        <ele>1370</ele>
        <time>2026-05-25T13:07:45.000Z</time>
      </trkpt>
      <trkpt lat="44.63338" lon="5.19546">
        <ele>1370</ele>
        <time>2026-05-25T13:07:46.000Z</time>
      </trkpt>
      <trkpt lat="44.63338" lon="5.19546">
        <ele>1370</ele>
        <time>2026-05-25T13:07:47.000Z</time>
      </trkpt>
      <trkpt lat="44.63338" lon="5.19546">
        <ele>1370</ele>
        <time>2026-05-25T13:07:48.000Z</time>
      </trkpt>
      <trkpt lat="44.63338" lon="5.19546">
        <ele>1370</ele>
        <time>2026-05-25T13:07:49.000Z</time>
      </trkpt>
      <trkpt lat="44.63338" lon="5.19546">
        <ele>1370</ele>
        <time>2026-05-25T13:07:50.000Z</time>
      </trkpt>
      <trkpt lat="44.63338" lon="5.19546">
        <ele>1370</ele>
        <time>2026-05-25T13:07:51.000Z</time>
      </trkpt>
      <trkpt lat="44.63338" lon="5.19546">
        <ele>1370</ele>
        <time>2026-05-25T13:07:52.000Z</time>
      </trkpt>
      <trkpt lat="44.63338" lon="5.19546">
        <ele>1370</ele>
        <time>2026-05-25T13:07:53.000Z</time>
      </trkpt>
      <trkpt lat="44.63338" lon="5.19546">
        <ele>1370</ele>
        <time>2026-05-25T13:07:54.000Z</time>
      </trkpt>
      <trkpt lat="44.63338" lon="5.19546">
        <ele>1370</ele>
        <time>2026-05-25T13:07:55.000Z</time>
      </trkpt>
      <trkpt lat="44.63338" lon="5.19546">
        <ele>1370</ele>
        <time>2026-05-25T13:07:56.000Z</time>
      </trkpt>
      <trkpt lat="44.63338" lon="5.19546">
        <ele>1370</ele>
        <time>2026-05-25T13:07:57.000Z</time>
      </trkpt>
      <trkpt lat="44.63338" lon="5.19546">
        <ele>1370</ele>
        <time>2026-05-25T13:07:58.000Z</time>
      </trkpt>
      <trkpt lat="44.63338" lon="5.19546">
        <ele>1370</ele>
        <time>2026-05-25T13:07:59.000Z</time>
      </trkpt>
      <trkpt lat="44.63338" lon="5.19546">
        <ele>1370</ele>
        <time>2026-05-25T13:08:00.000Z</time>
      </trkpt>
      <trkpt lat="44.63338" lon="5.19546">
        <ele>1370</ele>
        <time>2026-05-25T13:08:01.000Z</time>
      </trkpt>
      <trkpt lat="44.63338" lon="5.19546">
        <ele>1370</ele>
        <time>2026-05-25T13:08:02.000Z</time>
      </trkpt>
      <trkpt lat="44.63338" lon="5.19546">
        <ele>1370</ele>
        <time>2026-05-25T13:08:03.000Z</time>
      </trkpt>
      <trkpt lat="44.63338" lon="5.19546">
        <ele>1370</ele>
        <time>2026-05-25T13:08:04.000Z</time>
      </trkpt>
      <trkpt lat="44.63338" lon="5.19546">
        <ele>1370</ele>
        <time>2026-05-25T13:08:05.000Z</time>
      </trkpt>
      <trkpt lat="44.63338" lon="5.19546">
        <ele>1370</ele>
        <time>2026-05-25T13:08:06.000Z</time>
      </trkpt>
      <trkpt lat="44.63338" lon="5.19546">
        <ele>1370</ele>
        <time>2026-05-25T13:08:07.000Z</time>
      </trkpt>
      <trkpt lat="44.63338" lon="5.19546">
        <ele>1370</ele>
        <time>2026-05-25T13:08:08.000Z</time>
      </trkpt>
      <trkpt lat="44.63338" lon="5.19546">
        <ele>1370</ele>
        <time>2026-05-25T13:08:09.000Z</time>
      </trkpt>
      <trkpt lat="44.63338" lon="5.19546">
        <ele>1370</ele>
        <time>2026-05-25T13:08:10.000Z</time>
      </trkpt>
      <trkpt lat="44.63338" lon="5.19546">
        <ele>1370</ele>
        <time>2026-05-25T13:08:11.000Z</time>
      </trkpt>
      <trkpt lat="44.63338" lon="5.19546">
        <ele>1370</ele>
        <time>2026-05-25T13:08:12.000Z</time>
      </trkpt>
      <trkpt lat="44.63338" lon="5.19546">
        <ele>1370</ele>
        <time>2026-05-25T13:08:13.000Z</time>
      </trkpt>
      <trkpt lat="44.63338" lon="5.19546">
        <ele>1370</ele>
        <time>2026-05-25T13:08:14.000Z</time>
      </trkpt>
      <trkpt lat="44.63338" lon="5.19546">
        <ele>1370</ele>
        <time>2026-05-25T13:08:15.000Z</time>
      </trkpt>
      <trkpt lat="44.63338" lon="5.19546">
        <ele>1370</ele>
        <time>2026-05-25T13:08:16.000Z</time>
      </trkpt>
      <trkpt lat="44.63338" lon="5.19546">
        <ele>1370</ele>
        <time>2026-05-25T13:08:17.000Z</time>
      </trkpt>
      <trkpt lat="44.63338" lon="5.19546">
        <ele>1370</ele>
        <time>2026-05-25T13:08:18.000Z</time>
      </trkpt>
      <trkpt lat="44.63338" lon="5.19546">
        <ele>1370</ele>
        <time>2026-05-25T13:08:19.000Z</time>
      </trkpt>
      <trkpt lat="44.63338" lon="5.19546">
        <ele>1370</ele>
        <time>2026-05-25T13:08:20.000Z</time>
      </trkpt>
      <trkpt lat="44.63338" lon="5.19546">
        <ele>1370</ele>
        <time>2026-05-25T13:08:21.000Z</time>
      </trkpt>
      <trkpt lat="44.63338" lon="5.19546">
        <ele>1370</ele>
        <time>2026-05-25T13:08:22.000Z</time>
      </trkpt>
      <trkpt lat="44.63338" lon="5.19546">
        <ele>1370</ele>
        <time>2026-05-25T13:08:23.000Z</time>
      </trkpt>
      <trkpt lat="44.63338" lon="5.19546">
        <ele>1370</ele>
        <time>2026-05-25T13:08:24.000Z</time>
      </trkpt>
      <trkpt lat="44.63338" lon="5.19546">
        <ele>1370</ele>
        <time>2026-05-25T13:08:25.000Z</time>
      </trkpt>
      <trkpt lat="44.63338" lon="5.19546">
        <ele>1370</ele>
        <time>2026-05-25T13:08:26.000Z</time>
      </trkpt>
      <trkpt lat="44.63338" lon="5.19546">
        <ele>1370</ele>
        <time>2026-05-25T13:08:27.000Z</time>
      </trkpt>
      <trkpt lat="44.63338" lon="5.19546">
        <ele>1370</ele>
        <time>2026-05-25T13:08:28.000Z</time>
      </trkpt>
      <trkpt lat="44.63338" lon="5.19546">
        <ele>1370</ele>
        <time>2026-05-25T13:08:29.000Z</time>
      </trkpt>
      <trkpt lat="44.63338" lon="5.19546">
        <ele>1370</ele>
        <time>2026-05-25T13:08:30.000Z</time>
      </trkpt>
      <trkpt lat="44.63338" lon="5.19546">
        <ele>1370</ele>
        <time>2026-05-25T13:08:31.000Z</time>
      </trkpt>
      <trkpt lat="44.63338" lon="5.19546">
        <ele>1370</ele>
        <time>2026-05-25T13:08:32.000Z</time>
      </trkpt>
      <trkpt lat="44.63338" lon="5.19546">
        <ele>1370</ele>
        <time>2026-05-25T13:08:33.000Z</time>
      </trkpt>
      <trkpt lat="44.63338" lon="5.19546">
        <ele>1370</ele>
        <time>2026-05-25T13:08:34.000Z</time>
      </trkpt>
      <trkpt lat="44.63338" lon="5.19546">
        <ele>1370</ele>
        <time>2026-05-25T13:08:35.000Z</time>
      </trkpt>
      <trkpt lat="44.63338" lon="5.19546">
        <ele>1370</ele>
        <time>2026-05-25T13:08:36.000Z</time>
      </trkpt>
      <trkpt lat="44.63338" lon="5.19546">
        <ele>1370</ele>
        <time>2026-05-25T13:08:37.000Z</time>
      </trkpt>
      <trkpt lat="44.63338" lon="5.19546">
        <ele>1370</ele>
        <time>2026-05-25T13:08:38.000Z</time>
      </trkpt>
      <trkpt lat="44.63338" lon="5.19546">
        <ele>1370</ele>
        <time>2026-05-25T13:08:39.000Z</time>
      </trkpt>
      <trkpt lat="44.63338" lon="5.19546">
        <ele>1370</ele>
        <time>2026-05-25T13:08:40.000Z</time>
      </trkpt>
      <trkpt lat="44.63338" lon="5.19546">
        <ele>1370</ele>
        <time>2026-05-25T13:08:41.000Z</time>
      </trkpt>
      <trkpt lat="44.63338" lon="5.19546">
        <ele>1370</ele>
        <time>2026-05-25T13:08:42.000Z</time>
      </trkpt>
      <trkpt lat="44.63338" lon="5.19546">
        <ele>1370</ele>
        <time>2026-05-25T13:08:43.000Z</time>
      </trkpt>
      <trkpt lat="44.63338" lon="5.19546">
        <ele>1370</ele>
        <time>2026-05-25T13:08:44.000Z</time>
      </trkpt>
      <trkpt lat="44.63338" lon="5.19546">
        <ele>1370</ele>
        <time>2026-05-25T13:08:45.000Z</time>
      </trkpt>
      <trkpt lat="44.63338" lon="5.19546">
        <ele>1370</ele>
        <time>2026-05-25T13:08:46.000Z</time>
      </trkpt>
      <trkpt lat="44.63338" lon="5.19546">
        <ele>1370</ele>
        <time>2026-05-25T13:08:47.000Z</time>
      </trkpt>
      <trkpt lat="44.63338" lon="5.19546">
        <ele>1370</ele>
        <time>2026-05-25T13:08:48.000Z</time>
      </trkpt>
      <trkpt lat="44.63338" lon="5.19546">
        <ele>1370</ele>
        <time>2026-05-25T13:08:49.000Z</time>
      </trkpt>
      <trkpt lat="44.63338" lon="5.19546">
        <ele>1370</ele>
        <time>2026-05-25T13:08:50.000Z</time>
      </trkpt>
      <trkpt lat="44.63338" lon="5.19546">
        <ele>1370</ele>
        <time>2026-05-25T13:08:51.000Z</time>
      </trkpt>
      <trkpt lat="44.63338" lon="5.19546">
        <ele>1370</ele>
        <time>2026-05-25T13:08:52.000Z</time>
      </trkpt>
      <trkpt lat="44.63338" lon="5.19546">
        <ele>1370</ele>
        <time>2026-05-25T13:08:53.000Z</time>
      </trkpt>
      <trkpt lat="44.63338" lon="5.19546">
        <ele>1370</ele>
        <time>2026-05-25T13:08:54.000Z</time>
      </trkpt>
      <trkpt lat="44.63338" lon="5.19546">
        <ele>1370</ele>
        <time>2026-05-25T13:08:55.000Z</time>
      </trkpt>
      <trkpt lat="44.63338" lon="5.19546">
        <ele>1370</ele>
        <time>2026-05-25T13:08:56.000Z</time>
      </trkpt>
      <trkpt lat="44.63338" lon="5.19546">
        <ele>1370</ele>
        <time>2026-05-25T13:08:57.000Z</time>
      </trkpt>
      <trkpt lat="44.63338" lon="5.19546">
        <ele>1370</ele>
        <time>2026-05-25T13:08:58.000Z</time>
      </trkpt>
      <trkpt lat="44.63338" lon="5.19546">
        <ele>1370</ele>
        <time>2026-05-25T13:08:59.000Z</time>
      </trkpt>
      <trkpt lat="44.63338" lon="5.19546">
        <ele>1370</ele>
        <time>2026-05-25T13:09:00.000Z</time>
      </trkpt>
      <trkpt lat="44.63338" lon="5.19546">
        <ele>1370</ele>
        <time>2026-05-25T13:09:01.000Z</time>
      </trkpt>
      <trkpt lat="44.63338" lon="5.19546">
        <ele>1370</ele>
        <time>2026-05-25T13:09:02.000Z</time>
      </trkpt>
      <trkpt lat="44.63338" lon="5.19546">
        <ele>1370</ele>
        <time>2026-05-25T13:09:03.000Z</time>
      </trkpt>
      <trkpt lat="44.63338" lon="5.19546">
        <ele>1370</ele>
        <time>2026-05-25T13:09:04.000Z</time>
      </trkpt>
      <trkpt lat="44.63338" lon="5.19546">
        <ele>1370</ele>
        <time>2026-05-25T13:09:05.000Z</time>
      </trkpt>
      <trkpt lat="44.63338" lon="5.19546">
        <ele>1370</ele>
        <time>2026-05-25T13:09:06.000Z</time>
      </trkpt>
      <trkpt lat="44.63338" lon="5.19546">
        <ele>1370</ele>
        <time>2026-05-25T13:09:07.000Z</time>
      </trkpt>
      <trkpt lat="44.63338" lon="5.19546">
        <ele>1370</ele>
        <time>2026-05-25T13:09:08.000Z</time>
      </trkpt>
      <trkpt lat="44.63338" lon="5.19546">
        <ele>1370</ele>
        <time>2026-05-25T13:09:09.000Z</time>
      </trkpt>
      <trkpt lat="44.63338" lon="5.19546">
        <ele>1370</ele>
        <time>2026-05-25T13:09:10.000Z</time>
      </trkpt>
      <trkpt lat="44.63338" lon="5.19546">
        <ele>1370</ele>
        <time>2026-05-25T13:09:11.000Z</time>
      </trkpt>
      <trkpt lat="44.63338" lon="5.19546">
        <ele>1370</ele>
        <time>2026-05-25T13:09:12.000Z</time>
      </trkpt>
      <trkpt lat="44.63338" lon="5.19546">
        <ele>1370</ele>
        <time>2026-05-25T13:09:13.000Z</time>
      </trkpt>
      <trkpt lat="44.63338" lon="5.19546">
        <ele>1370</ele>
        <time>2026-05-25T13:09:14.000Z</time>
      </trkpt>
      <trkpt lat="44.63338" lon="5.19546">
        <ele>1370</ele>
        <time>2026-05-25T13:09:15.000Z</time>
      </trkpt>
      <trkpt lat="44.63338" lon="5.19546">
        <ele>1370</ele>
        <time>2026-05-25T13:09:16.000Z</time>
      </trkpt>
      <trkpt lat="44.63338" lon="5.19546">
        <ele>1370</ele>
        <time>2026-05-25T13:09:17.000Z</time>
      </trkpt>
      <trkpt lat="44.63338" lon="5.19546">
        <ele>1370</ele>
        <time>2026-05-25T13:09:18.000Z</time>
      </trkpt>
      <trkpt lat="44.63338" lon="5.19546">
        <ele>1370</ele>
        <time>2026-05-25T13:09:19.000Z</time>
      </trkpt>
      <trkpt lat="44.63338" lon="5.19546">
        <ele>1370</ele>
        <time>2026-05-25T13:09:20.000Z</time>
      </trkpt>
      <trkpt lat="44.63338" lon="5.19546">
        <ele>1370</ele>
        <time>2026-05-25T13:09:21.000Z</time>
      </trkpt>
      <trkpt lat="44.63338" lon="5.19546">
        <ele>1370</ele>
        <time>2026-05-25T13:09:22.000Z</time>
      </trkpt>
      <trkpt lat="44.63338" lon="5.19546">
        <ele>1370</ele>
        <time>2026-05-25T13:09:23.000Z</time>
      </trkpt>
      <trkpt lat="44.63338" lon="5.19546">
        <ele>1370</ele>
        <time>2026-05-25T13:09:24.000Z</time>
      </trkpt>
      <trkpt lat="44.63339" lon="5.19546">
        <ele>1372</ele>
        <time>2026-05-25T13:09:25.000Z</time>
      </trkpt>
      <trkpt lat="44.63339" lon="5.19545">
        <ele>1372</ele>
        <time>2026-05-25T13:09:26.000Z</time>
      </trkpt>
      <trkpt lat="44.63339" lon="5.19545">
        <ele>1372</ele>
        <time>2026-05-25T13:09:27.000Z</time>
      </trkpt>
      <trkpt lat="44.63339" lon="5.19545">
        <ele>1372</ele>
        <time>2026-05-25T13:09:28.000Z</time>
      </trkpt>
      <trkpt lat="44.63339" lon="5.19545">
        <ele>1372</ele>
        <time>2026-05-25T13:09:29.000Z</time>
      </trkpt>
      <trkpt lat="44.63339" lon="5.19545">
        <ele>1372</ele>
        <time>2026-05-25T13:09:30.000Z</time>
      </trkpt>
      <trkpt lat="44.63339" lon="5.19545">
        <ele>1372</ele>
        <time>2026-05-25T13:09:31.000Z</time>
      </trkpt>
      <trkpt lat="44.63339" lon="5.19545">
        <ele>1372</ele>
        <time>2026-05-25T13:09:32.000Z</time>
      </trkpt>
      <trkpt lat="44.63339" lon="5.19545">
        <ele>1372</ele>
        <time>2026-05-25T13:09:33.000Z</time>
      </trkpt>
      <trkpt lat="44.63339" lon="5.19545">
        <ele>1372</ele>
        <time>2026-05-25T13:09:34.000Z</time>
      </trkpt>
      <trkpt lat="44.63339" lon="5.19545">
        <ele>1372</ele>
        <time>2026-05-25T13:09:35.000Z</time>
      </trkpt>
      <trkpt lat="44.63339" lon="5.19545">
        <ele>1372</ele>
        <time>2026-05-25T13:09:36.000Z</time>
      </trkpt>
      <trkpt lat="44.63339" lon="5.19545">
        <ele>1372</ele>
        <time>2026-05-25T13:09:37.000Z</time>
      </trkpt>
      <trkpt lat="44.63339" lon="5.19545">
        <ele>1372</ele>
        <time>2026-05-25T13:09:38.000Z</time>
      </trkpt>
      <trkpt lat="44.63339" lon="5.19545">
        <ele>1372</ele>
        <time>2026-05-25T13:09:39.000Z</time>
      </trkpt>
      <trkpt lat="44.63339" lon="5.19545">
        <ele>1372</ele>
        <time>2026-05-25T13:09:40.000Z</time>
      </trkpt>
      <trkpt lat="44.63339" lon="5.19545">
        <ele>1372</ele>
        <time>2026-05-25T13:09:41.000Z</time>
      </trkpt>
      <trkpt lat="44.63339" lon="5.19545">
        <ele>1372</ele>
        <time>2026-05-25T13:09:42.000Z</time>
      </trkpt>
      <trkpt lat="44.63339" lon="5.19545">
        <ele>1372</ele>
        <time>2026-05-25T13:09:43.000Z</time>
      </trkpt>
      <trkpt lat="44.63339" lon="5.19545">
        <ele>1372</ele>
        <time>2026-05-25T13:09:44.000Z</time>
      </trkpt>
      <trkpt lat="44.63339" lon="5.19545">
        <ele>1372</ele>
        <time>2026-05-25T13:09:45.000Z</time>
      </trkpt>
      <trkpt lat="44.63339" lon="5.19545">
        <ele>1372</ele>
        <time>2026-05-25T13:09:46.000Z</time>
      </trkpt>
      <trkpt lat="44.63339" lon="5.19545">
        <ele>1372</ele>
        <time>2026-05-25T13:09:47.000Z</time>
      </trkpt>
      <trkpt lat="44.63339" lon="5.19545">
        <ele>1372</ele>
        <time>2026-05-25T13:09:48.000Z</time>
      </trkpt>
      <trkpt lat="44.63339" lon="5.19545">
        <ele>1372</ele>
        <time>2026-05-25T13:09:49.000Z</time>
      </trkpt>
      <trkpt lat="44.63339" lon="5.19545">
        <ele>1372</ele>
        <time>2026-05-25T13:09:50.000Z</time>
      </trkpt>
      <trkpt lat="44.63339" lon="5.19545">
        <ele>1372</ele>
        <time>2026-05-25T13:09:51.000Z</time>
      </trkpt>
      <trkpt lat="44.63339" lon="5.19545">
        <ele>1372</ele>
        <time>2026-05-25T13:09:52.000Z</time>
      </trkpt>
      <trkpt lat="44.63339" lon="5.19545">
        <ele>1372</ele>
        <time>2026-05-25T13:09:53.000Z</time>
      </trkpt>
      <trkpt lat="44.63339" lon="5.19545">
        <ele>1372</ele>
        <time>2026-05-25T13:09:54.000Z</time>
      </trkpt>
      <trkpt lat="44.63339" lon="5.19545">
        <ele>1372</ele>
        <time>2026-05-25T13:09:55.000Z</time>
      </trkpt>
      <trkpt lat="44.63339" lon="5.19545">
        <ele>1372</ele>
        <time>2026-05-25T13:09:56.000Z</time>
      </trkpt>
      <trkpt lat="44.63339" lon="5.19545">
        <ele>1372</ele>
        <time>2026-05-25T13:09:57.000Z</time>
      </trkpt>
      <trkpt lat="44.63339" lon="5.19545">
        <ele>1372</ele>
        <time>2026-05-25T13:09:58.000Z</time>
      </trkpt>
      <trkpt lat="44.63339" lon="5.19545">
        <ele>1372</ele>
        <time>2026-05-25T13:09:59.000Z</time>
      </trkpt>
      <trkpt lat="44.63339" lon="5.19545">
        <ele>1372</ele>
        <time>2026-05-25T13:10:00.000Z</time>
      </trkpt>
      <trkpt lat="44.63339" lon="5.19545">
        <ele>1372</ele>
        <time>2026-05-25T13:10:01.000Z</time>
      </trkpt>
      <trkpt lat="44.63339" lon="5.19545">
        <ele>1372</ele>
        <time>2026-05-25T13:10:02.000Z</time>
      </trkpt>
      <trkpt lat="44.63339" lon="5.19545">
        <ele>1372</ele>
        <time>2026-05-25T13:10:03.000Z</time>
      </trkpt>
      <trkpt lat="44.63339" lon="5.19545">
        <ele>1372</ele>
        <time>2026-05-25T13:10:04.000Z</time>
      </trkpt>
      <trkpt lat="44.63339" lon="5.19545">
        <ele>1372</ele>
        <time>2026-05-25T13:10:05.000Z</time>
      </trkpt>
      <trkpt lat="44.63339" lon="5.19545">
        <ele>1372</ele>
        <time>2026-05-25T13:10:06.000Z</time>
      </trkpt>
      <trkpt lat="44.63339" lon="5.19545">
        <ele>1372</ele>
        <time>2026-05-25T13:10:07.000Z</time>
      </trkpt>
      <trkpt lat="44.63339" lon="5.19545">
        <ele>1372</ele>
        <time>2026-05-25T13:10:08.000Z</time>
      </trkpt>
      <trkpt lat="44.63339" lon="5.19545">
        <ele>1372</ele>
        <time>2026-05-25T13:10:09.000Z</time>
      </trkpt>
      <trkpt lat="44.63339" lon="5.19545">
        <ele>1372</ele>
        <time>2026-05-25T13:10:10.000Z</time>
      </trkpt>
      <trkpt lat="44.63339" lon="5.19545">
        <ele>1372</ele>
        <time>2026-05-25T13:10:11.000Z</time>
      </trkpt>
      <trkpt lat="44.63339" lon="5.19545">
        <ele>1372</ele>
        <time>2026-05-25T13:10:12.000Z</time>
      </trkpt>
      <trkpt lat="44.63339" lon="5.19545">
        <ele>1372</ele>
        <time>2026-05-25T13:10:13.000Z</time>
      </trkpt>
      <trkpt lat="44.63339" lon="5.19545">
        <ele>1372</ele>
        <time>2026-05-25T13:10:14.000Z</time>
      </trkpt>
      <trkpt lat="44.63339" lon="5.19545">
        <ele>1372</ele>
        <time>2026-05-25T13:10:15.000Z</time>
      </trkpt>
      <trkpt lat="44.63339" lon="5.19545">
        <ele>1372</ele>
        <time>2026-05-25T13:10:16.000Z</time>
      </trkpt>
      <trkpt lat="44.63339" lon="5.19545">
        <ele>1372</ele>
        <time>2026-05-25T13:10:17.000Z</time>
      </trkpt>
      <trkpt lat="44.63339" lon="5.19545">
        <ele>1372</ele>
        <time>2026-05-25T13:10:18.000Z</time>
      </trkpt>
      <trkpt lat="44.63339" lon="5.19545">
        <ele>1372</ele>
        <time>2026-05-25T13:10:19.000Z</time>
      </trkpt>
      <trkpt lat="44.63339" lon="5.19545">
        <ele>1372</ele>
        <time>2026-05-25T13:10:20.000Z</time>
      </trkpt>
      <trkpt lat="44.63339" lon="5.19545">
        <ele>1372</ele>
        <time>2026-05-25T13:10:21.000Z</time>
      </trkpt>
      <trkpt lat="44.63339" lon="5.19545">
        <ele>1372</ele>
        <time>2026-05-25T13:10:22.000Z</time>
      </trkpt>
      <trkpt lat="44.63339" lon="5.19545">
        <ele>1372</ele>
        <time>2026-05-25T13:10:23.000Z</time>
      </trkpt>
      <trkpt lat="44.63339" lon="5.19545">
        <ele>1372</ele>
        <time>2026-05-25T13:10:24.000Z</time>
      </trkpt>
      <trkpt lat="44.63339" lon="5.19545">
        <ele>1372</ele>
        <time>2026-05-25T13:10:25.000Z</time>
      </trkpt>
      <trkpt lat="44.63339" lon="5.19545">
        <ele>1372</ele>
        <time>2026-05-25T13:10:26.000Z</time>
      </trkpt>
      <trkpt lat="44.63339" lon="5.19545">
        <ele>1372</ele>
        <time>2026-05-25T13:10:27.000Z</time>
      </trkpt>
      <trkpt lat="44.63339" lon="5.19545">
        <ele>1372</ele>
        <time>2026-05-25T13:10:28.000Z</time>
      </trkpt>
      <trkpt lat="44.63339" lon="5.19545">
        <ele>1372</ele>
        <time>2026-05-25T13:10:29.000Z</time>
      </trkpt>
      <trkpt lat="44.63339" lon="5.19545">
        <ele>1372</ele>
        <time>2026-05-25T13:10:30.000Z</time>
      </trkpt>
      <trkpt lat="44.63339" lon="5.19545">
        <ele>1372</ele>
        <time>2026-05-25T13:10:31.000Z</time>
      </trkpt>
      <trkpt lat="44.63339" lon="5.19545">
        <ele>1372</ele>
        <time>2026-05-25T13:10:32.000Z</time>
      </trkpt>
      <trkpt lat="44.63339" lon="5.19545">
        <ele>1372</ele>
        <time>2026-05-25T13:10:33.000Z</time>
      </trkpt>
      <trkpt lat="44.63339" lon="5.19545">
        <ele>1372</ele>
        <time>2026-05-25T13:10:34.000Z</time>
      </trkpt>
      <trkpt lat="44.63339" lon="5.19545">
        <ele>1372</ele>
        <time>2026-05-25T13:10:35.000Z</time>
      </trkpt>
      <trkpt lat="44.63339" lon="5.19545">
        <ele>1372</ele>
        <time>2026-05-25T13:10:36.000Z</time>
      </trkpt>
      <trkpt lat="44.63339" lon="5.19545">
        <ele>1372</ele>
        <time>2026-05-25T13:10:37.000Z</time>
      </trkpt>
      <trkpt lat="44.63339" lon="5.19545">
        <ele>1372</ele>
        <time>2026-05-25T13:10:38.000Z</time>
      </trkpt>
      <trkpt lat="44.63339" lon="5.19545">
        <ele>1372</ele>
        <time>2026-05-25T13:10:39.000Z</time>
      </trkpt>
      <trkpt lat="44.63339" lon="5.19545">
        <ele>1372</ele>
        <time>2026-05-25T13:10:40.000Z</time>
      </trkpt>
      <trkpt lat="44.63339" lon="5.19545">
        <ele>1372</ele>
        <time>2026-05-25T13:10:41.000Z</time>
      </trkpt>
      <trkpt lat="44.63339" lon="5.19545">
        <ele>1372</ele>
        <time>2026-05-25T13:10:42.000Z</time>
      </trkpt>
      <trkpt lat="44.63339" lon="5.19545">
        <ele>1372</ele>
        <time>2026-05-25T13:10:43.000Z</time>
      </trkpt>
      <trkpt lat="44.63339" lon="5.19545">
        <ele>1372</ele>
        <time>2026-05-25T13:10:44.000Z</time>
      </trkpt>
      <trkpt lat="44.63339" lon="5.19545">
        <ele>1372</ele>
        <time>2026-05-25T13:10:45.000Z</time>
      </trkpt>
      <trkpt lat="44.63339" lon="5.19545">
        <ele>1372</ele>
        <time>2026-05-25T13:10:46.000Z</time>
      </trkpt>
      <trkpt lat="44.63339" lon="5.19545">
        <ele>1372</ele>
        <time>2026-05-25T13:10:47.000Z</time>
      </trkpt>
      <trkpt lat="44.63339" lon="5.19545">
        <ele>1372</ele>
        <time>2026-05-25T13:10:48.000Z</time>
      </trkpt>
      <trkpt lat="44.63339" lon="5.19545">
        <ele>1372</ele>
        <time>2026-05-25T13:10:49.000Z</time>
      </trkpt>
      <trkpt lat="44.63339" lon="5.19545">
        <ele>1372</ele>
        <time>2026-05-25T13:10:50.000Z</time>
      </trkpt>
      <trkpt lat="44.63339" lon="5.19545">
        <ele>1372</ele>
        <time>2026-05-25T13:10:51.000Z</time>
      </trkpt>
      <trkpt lat="44.63339" lon="5.19545">
        <ele>1372</ele>
        <time>2026-05-25T13:10:52.000Z</time>
      </trkpt>
      <trkpt lat="44.63339" lon="5.19545">
        <ele>1372</ele>
        <time>2026-05-25T13:10:53.000Z</time>
      </trkpt>
      <trkpt lat="44.63339" lon="5.19545">
        <ele>1372</ele>
        <time>2026-05-25T13:10:54.000Z</time>
      </trkpt>
      <trkpt lat="44.63339" lon="5.19545">
        <ele>1372</ele>
        <time>2026-05-25T13:10:55.000Z</time>
      </trkpt>
      <trkpt lat="44.63339" lon="5.19545">
        <ele>1372</ele>
        <time>2026-05-25T13:10:56.000Z</time>
      </trkpt>
      <trkpt lat="44.63339" lon="5.19545">
        <ele>1372</ele>
        <time>2026-05-25T13:10:57.000Z</time>
      </trkpt>
      <trkpt lat="44.63339" lon="5.19545">
        <ele>1372</ele>
        <time>2026-05-25T13:10:58.000Z</time>
      </trkpt>
      <trkpt lat="44.63339" lon="5.19545">
        <ele>1372</ele>
        <time>2026-05-25T13:10:59.000Z</time>
      </trkpt>
      <trkpt lat="44.63339" lon="5.19545">
        <ele>1372</ele>
        <time>2026-05-25T13:11:00.000Z</time>
      </trkpt>
      <trkpt lat="44.63339" lon="5.19545">
        <ele>1372</ele>
        <time>2026-05-25T13:11:01.000Z</time>
      </trkpt>
      <trkpt lat="44.63339" lon="5.19545">
        <ele>1372</ele>
        <time>2026-05-25T13:11:02.000Z</time>
      </trkpt>
      <trkpt lat="44.63339" lon="5.19545">
        <ele>1372</ele>
        <time>2026-05-25T13:11:03.000Z</time>
      </trkpt>
      <trkpt lat="44.63339" lon="5.19545">
        <ele>1372</ele>
        <time>2026-05-25T13:11:04.000Z</time>
      </trkpt>
      <trkpt lat="44.63339" lon="5.19545">
        <ele>1372</ele>
        <time>2026-05-25T13:11:05.000Z</time>
      </trkpt>
      <trkpt lat="44.63339" lon="5.19545">
        <ele>1372</ele>
        <time>2026-05-25T13:11:06.000Z</time>
      </trkpt>
      <trkpt lat="44.63339" lon="5.19545">
        <ele>1372</ele>
        <time>2026-05-25T13:11:07.000Z</time>
      </trkpt>
      <trkpt lat="44.63339" lon="5.19545">
        <ele>1372</ele>
        <time>2026-05-25T13:11:08.000Z</time>
      </trkpt>
      <trkpt lat="44.63339" lon="5.19545">
        <ele>1372</ele>
        <time>2026-05-25T13:11:09.000Z</time>
      </trkpt>
      <trkpt lat="44.63339" lon="5.19545">
        <ele>1372</ele>
        <time>2026-05-25T13:11:10.000Z</time>
      </trkpt>
      <trkpt lat="44.63339" lon="5.19545">
        <ele>1372</ele>
        <time>2026-05-25T13:11:11.000Z</time>
      </trkpt>
      <trkpt lat="44.63339" lon="5.19545">
        <ele>1372</ele>
        <time>2026-05-25T13:11:12.000Z</time>
      </trkpt>
      <trkpt lat="44.63339" lon="5.19545">
        <ele>1372</ele>
        <time>2026-05-25T13:11:13.000Z</time>
      </trkpt>
      <trkpt lat="44.63339" lon="5.19545">
        <ele>1372</ele>
        <time>2026-05-25T13:11:14.000Z</time>
      </trkpt>
      <trkpt lat="44.63339" lon="5.19545">
        <ele>1372</ele>
        <time>2026-05-25T13:11:15.000Z</time>
      </trkpt>
      <trkpt lat="44.63339" lon="5.19545">
        <ele>1372</ele>
        <time>2026-05-25T13:11:16.000Z</time>
      </trkpt>
      <trkpt lat="44.63339" lon="5.19545">
        <ele>1372</ele>
        <time>2026-05-25T13:11:17.000Z</time>
      </trkpt>
      <trkpt lat="44.63339" lon="5.19545">
        <ele>1372</ele>
        <time>2026-05-25T13:11:18.000Z</time>
      </trkpt>
      <trkpt lat="44.63339" lon="5.19545">
        <ele>1372</ele>
        <time>2026-05-25T13:11:19.000Z</time>
      </trkpt>
      <trkpt lat="44.63339" lon="5.19545">
        <ele>1372</ele>
        <time>2026-05-25T13:11:20.000Z</time>
      </trkpt>
      <trkpt lat="44.63339" lon="5.19545">
        <ele>1372</ele>
        <time>2026-05-25T13:11:21.000Z</time>
      </trkpt>
      <trkpt lat="44.63339" lon="5.19545">
        <ele>1372</ele>
        <time>2026-05-25T13:11:22.000Z</time>
      </trkpt>
      <trkpt lat="44.63339" lon="5.19545">
        <ele>1372</ele>
        <time>2026-05-25T13:11:23.000Z</time>
      </trkpt>
      <trkpt lat="44.63339" lon="5.19545">
        <ele>1372</ele>
        <time>2026-05-25T13:11:24.000Z</time>
      </trkpt>
      <trkpt lat="44.63339" lon="5.19545">
        <ele>1372</ele>
        <time>2026-05-25T13:11:25.000Z</time>
      </trkpt>
      <trkpt lat="44.63339" lon="5.19545">
        <ele>1372</ele>
        <time>2026-05-25T13:11:26.000Z</time>
      </trkpt>
      <trkpt lat="44.63339" lon="5.19545">
        <ele>1372</ele>
        <time>2026-05-25T13:11:27.000Z</time>
      </trkpt>
      <trkpt lat="44.63339" lon="5.19545">
        <ele>1372</ele>
        <time>2026-05-25T13:11:28.000Z</time>
      </trkpt>
      <trkpt lat="44.63339" lon="5.19545">
        <ele>1372</ele>
        <time>2026-05-25T13:11:29.000Z</time>
      </trkpt>
      <trkpt lat="44.63339" lon="5.19545">
        <ele>1372</ele>
        <time>2026-05-25T13:11:30.000Z</time>
      </trkpt>
      <trkpt lat="44.63339" lon="5.19545">
        <ele>1372</ele>
        <time>2026-05-25T13:11:31.000Z</time>
      </trkpt>
      <trkpt lat="44.63339" lon="5.19545">
        <ele>1372</ele>
        <time>2026-05-25T13:11:32.000Z</time>
      </trkpt>
      <trkpt lat="44.63339" lon="5.19545">
        <ele>1372</ele>
        <time>2026-05-25T13:11:33.000Z</time>
      </trkpt>
      <trkpt lat="44.63339" lon="5.19545">
        <ele>1372</ele>
        <time>2026-05-25T13:11:34.000Z</time>
      </trkpt>
      <trkpt lat="44.63339" lon="5.19545">
        <ele>1372</ele>
        <time>2026-05-25T13:11:35.000Z</time>
      </trkpt>
      <trkpt lat="44.63339" lon="5.19545">
        <ele>1372</ele>
        <time>2026-05-25T13:11:36.000Z</time>
      </trkpt>
      <trkpt lat="44.63339" lon="5.19545">
        <ele>1372</ele>
        <time>2026-05-25T13:11:37.000Z</time>
      </trkpt>
      <trkpt lat="44.63339" lon="5.19545">
        <ele>1372</ele>
        <time>2026-05-25T13:11:38.000Z</time>
      </trkpt>
      <trkpt lat="44.63339" lon="5.19545">
        <ele>1372</ele>
        <time>2026-05-25T13:11:39.000Z</time>
      </trkpt>
      <trkpt lat="44.63339" lon="5.19545">
        <ele>1372</ele>
        <time>2026-05-25T13:11:40.000Z</time>
      </trkpt>
      <trkpt lat="44.63339" lon="5.19545">
        <ele>1372</ele>
        <time>2026-05-25T13:11:41.000Z</time>
      </trkpt>
      <trkpt lat="44.63339" lon="5.19545">
        <ele>1372</ele>
        <time>2026-05-25T13:11:42.000Z</time>
      </trkpt>
      <trkpt lat="44.63339" lon="5.19545">
        <ele>1372</ele>
        <time>2026-05-25T13:11:43.000Z</time>
      </trkpt>
      <trkpt lat="44.63339" lon="5.19545">
        <ele>1372</ele>
        <time>2026-05-25T13:11:44.000Z</time>
      </trkpt>
      <trkpt lat="44.63339" lon="5.19545">
        <ele>1372</ele>
        <time>2026-05-25T13:11:45.000Z</time>
      </trkpt>
      <trkpt lat="44.63339" lon="5.19545">
        <ele>1372</ele>
        <time>2026-05-25T13:11:46.000Z</time>
      </trkpt>
      <trkpt lat="44.63339" lon="5.19545">
        <ele>1372</ele>
        <time>2026-05-25T13:11:47.000Z</time>
      </trkpt>
      <trkpt lat="44.63339" lon="5.19545">
        <ele>1372</ele>
        <time>2026-05-25T13:11:48.000Z</time>
      </trkpt>
      <trkpt lat="44.63339" lon="5.19545">
        <ele>1372</ele>
        <time>2026-05-25T13:11:49.000Z</time>
      </trkpt>
      <trkpt lat="44.63339" lon="5.19545">
        <ele>1372</ele>
        <time>2026-05-25T13:11:50.000Z</time>
      </trkpt>
      <trkpt lat="44.63339" lon="5.19545">
        <ele>1372</ele>
        <time>2026-05-25T13:11:51.000Z</time>
      </trkpt>
      <trkpt lat="44.63339" lon="5.19545">
        <ele>1372</ele>
        <time>2026-05-25T13:11:52.000Z</time>
      </trkpt>
      <trkpt lat="44.63339" lon="5.19545">
        <ele>1372</ele>
        <time>2026-05-25T13:11:53.000Z</time>
      </trkpt>
      <trkpt lat="44.63339" lon="5.19545">
        <ele>1372</ele>
        <time>2026-05-25T13:11:54.000Z</time>
      </trkpt>
      <trkpt lat="44.63339" lon="5.19545">
        <ele>1372</ele>
        <time>2026-05-25T13:11:55.000Z</time>
      </trkpt>
      <trkpt lat="44.63339" lon="5.19545">
        <ele>1372</ele>
        <time>2026-05-25T13:11:56.000Z</time>
      </trkpt>
      <trkpt lat="44.63339" lon="5.19545">
        <ele>1372</ele>
        <time>2026-05-25T13:11:57.000Z</time>
      </trkpt>
      <trkpt lat="44.63339" lon="5.19545">
        <ele>1372</ele>
        <time>2026-05-25T13:11:58.000Z</time>
      </trkpt>
      <trkpt lat="44.63339" lon="5.19545">
        <ele>1372</ele>
        <time>2026-05-25T13:11:59.000Z</time>
      </trkpt>
      <trkpt lat="44.63339" lon="5.19545">
        <ele>1372</ele>
        <time>2026-05-25T13:12:00.000Z</time>
      </trkpt>
      <trkpt lat="44.63339" lon="5.19547">
        <ele>1374</ele>
        <time>2026-05-25T13:12:01.000Z</time>
      </trkpt>
      <trkpt lat="44.6334" lon="5.19547">
        <ele>1374</ele>
        <time>2026-05-25T13:12:02.000Z</time>
      </trkpt>
      <trkpt lat="44.6334" lon="5.19546">
        <ele>1375</ele>
        <time>2026-05-25T13:12:03.000Z</time>
      </trkpt>
      <trkpt lat="44.63341" lon="5.19546">
        <ele>1375</ele>
        <time>2026-05-25T13:12:04.000Z</time>
      </trkpt>
      <trkpt lat="44.63341" lon="5.19546">
        <ele>1376</ele>
        <time>2026-05-25T13:12:05.000Z</time>
      </trkpt>
      <trkpt lat="44.63341" lon="5.19546">
        <ele>1376</ele>
        <time>2026-05-25T13:12:06.000Z</time>
      </trkpt>
      <trkpt lat="44.63341" lon="5.19546">
        <ele>1376</ele>
        <time>2026-05-25T13:12:07.000Z</time>
      </trkpt>
      <trkpt lat="44.63341" lon="5.19547">
        <ele>1375</ele>
        <time>2026-05-25T13:12:08.000Z</time>
      </trkpt>
      <trkpt lat="44.63341" lon="5.19547">
        <ele>1373</ele>
        <time>2026-05-25T13:12:09.000Z</time>
      </trkpt>
      <trkpt lat="44.63341" lon="5.19547">
        <ele>1373</ele>
        <time>2026-05-25T13:12:10.000Z</time>
      </trkpt>
      <trkpt lat="44.63341" lon="5.19547">
        <ele>1373</ele>
        <time>2026-05-25T13:12:11.000Z</time>
      </trkpt>
      <trkpt lat="44.63341" lon="5.19547">
        <ele>1373</ele>
        <time>2026-05-25T13:12:12.000Z</time>
      </trkpt>
      <trkpt lat="44.63341" lon="5.19547">
        <ele>1373</ele>
        <time>2026-05-25T13:12:13.000Z</time>
      </trkpt>
      <trkpt lat="44.63341" lon="5.19547">
        <ele>1373</ele>
        <time>2026-05-25T13:12:14.000Z</time>
      </trkpt>
      <trkpt lat="44.63341" lon="5.19547">
        <ele>1373</ele>
        <time>2026-05-25T13:12:15.000Z</time>
      </trkpt>
      <trkpt lat="44.63341" lon="5.19547">
        <ele>1373</ele>
        <time>2026-05-25T13:12:16.000Z</time>
      </trkpt>
      <trkpt lat="44.63341" lon="5.19547">
        <ele>1373</ele>
        <time>2026-05-25T13:12:17.000Z</time>
      </trkpt>
      <trkpt lat="44.63341" lon="5.19547">
        <ele>1373</ele>
        <time>2026-05-25T13:12:18.000Z</time>
      </trkpt>
      <trkpt lat="44.63341" lon="5.19547">
        <ele>1373</ele>
        <time>2026-05-25T13:12:19.000Z</time>
      </trkpt>
      <trkpt lat="44.63341" lon="5.19547">
        <ele>1373</ele>
        <time>2026-05-25T13:12:20.000Z</time>
      </trkpt>
      <trkpt lat="44.63341" lon="5.19547">
        <ele>1373</ele>
        <time>2026-05-25T13:12:21.000Z</time>
      </trkpt>
      <trkpt lat="44.63341" lon="5.19547">
        <ele>1373</ele>
        <time>2026-05-25T13:12:22.000Z</time>
      </trkpt>
      <trkpt lat="44.63341" lon="5.19547">
        <ele>1373</ele>
        <time>2026-05-25T13:12:23.000Z</time>
      </trkpt>
      <trkpt lat="44.63341" lon="5.19547">
        <ele>1373</ele>
        <time>2026-05-25T13:12:24.000Z</time>
      </trkpt>
      <trkpt lat="44.63341" lon="5.19547">
        <ele>1373</ele>
        <time>2026-05-25T13:12:25.000Z</time>
      </trkpt>
      <trkpt lat="44.63341" lon="5.19547">
        <ele>1373</ele>
        <time>2026-05-25T13:12:26.000Z</time>
      </trkpt>
      <trkpt lat="44.63341" lon="5.19547">
        <ele>1373</ele>
        <time>2026-05-25T13:12:27.000Z</time>
      </trkpt>
      <trkpt lat="44.63341" lon="5.19547">
        <ele>1373</ele>
        <time>2026-05-25T13:12:28.000Z</time>
      </trkpt>
      <trkpt lat="44.63341" lon="5.19547">
        <ele>1373</ele>
        <time>2026-05-25T13:12:29.000Z</time>
      </trkpt>
      <trkpt lat="44.63341" lon="5.19547">
        <ele>1373</ele>
        <time>2026-05-25T13:12:30.000Z</time>
      </trkpt>
      <trkpt lat="44.63341" lon="5.19547">
        <ele>1373</ele>
        <time>2026-05-25T13:12:31.000Z</time>
      </trkpt>
      <trkpt lat="44.63341" lon="5.19547">
        <ele>1373</ele>
        <time>2026-05-25T13:12:32.000Z</time>
      </trkpt>
      <trkpt lat="44.63341" lon="5.19547">
        <ele>1373</ele>
        <time>2026-05-25T13:12:33.000Z</time>
      </trkpt>
      <trkpt lat="44.63341" lon="5.19547">
        <ele>1373</ele>
        <time>2026-05-25T13:12:34.000Z</time>
      </trkpt>
      <trkpt lat="44.63341" lon="5.19547">
        <ele>1373</ele>
        <time>2026-05-25T13:12:35.000Z</time>
      </trkpt>
      <trkpt lat="44.63341" lon="5.19547">
        <ele>1373</ele>
        <time>2026-05-25T13:12:36.000Z</time>
      </trkpt>
      <trkpt lat="44.63341" lon="5.19547">
        <ele>1373</ele>
        <time>2026-05-25T13:12:37.000Z</time>
      </trkpt>
      <trkpt lat="44.63341" lon="5.19547">
        <ele>1373</ele>
        <time>2026-05-25T13:12:38.000Z</time>
      </trkpt>
      <trkpt lat="44.63341" lon="5.19547">
        <ele>1373</ele>
        <time>2026-05-25T13:12:39.000Z</time>
      </trkpt>
      <trkpt lat="44.63341" lon="5.19547">
        <ele>1373</ele>
        <time>2026-05-25T13:12:40.000Z</time>
      </trkpt>
      <trkpt lat="44.63341" lon="5.19547">
        <ele>1373</ele>
        <time>2026-05-25T13:12:41.000Z</time>
      </trkpt>
      <trkpt lat="44.63341" lon="5.19547">
        <ele>1373</ele>
        <time>2026-05-25T13:12:42.000Z</time>
      </trkpt>
      <trkpt lat="44.63341" lon="5.19547">
        <ele>1373</ele>
        <time>2026-05-25T13:12:43.000Z</time>
      </trkpt>
      <trkpt lat="44.63341" lon="5.19547">
        <ele>1373</ele>
        <time>2026-05-25T13:12:44.000Z</time>
      </trkpt>
      <trkpt lat="44.63341" lon="5.19547">
        <ele>1373</ele>
        <time>2026-05-25T13:12:45.000Z</time>
      </trkpt>
      <trkpt lat="44.63341" lon="5.19547">
        <ele>1373</ele>
        <time>2026-05-25T13:12:46.000Z</time>
      </trkpt>
      <trkpt lat="44.63341" lon="5.19547">
        <ele>1373</ele>
        <time>2026-05-25T13:12:47.000Z</time>
      </trkpt>
      <trkpt lat="44.63341" lon="5.19547">
        <ele>1373</ele>
        <time>2026-05-25T13:12:48.000Z</time>
      </trkpt>
      <trkpt lat="44.63341" lon="5.19547">
        <ele>1373</ele>
        <time>2026-05-25T13:12:49.000Z</time>
      </trkpt>
      <trkpt lat="44.63341" lon="5.19547">
        <ele>1373</ele>
        <time>2026-05-25T13:12:50.000Z</time>
      </trkpt>
      <trkpt lat="44.63341" lon="5.19547">
        <ele>1373</ele>
        <time>2026-05-25T13:12:51.000Z</time>
      </trkpt>
      <trkpt lat="44.63341" lon="5.19547">
        <ele>1373</ele>
        <time>2026-05-25T13:12:52.000Z</time>
      </trkpt>
      <trkpt lat="44.63341" lon="5.19547">
        <ele>1373</ele>
        <time>2026-05-25T13:12:53.000Z</time>
      </trkpt>
      <trkpt lat="44.63341" lon="5.19547">
        <ele>1373</ele>
        <time>2026-05-25T13:12:54.000Z</time>
      </trkpt>
      <trkpt lat="44.63341" lon="5.19547">
        <ele>1373</ele>
        <time>2026-05-25T13:12:55.000Z</time>
      </trkpt>
      <trkpt lat="44.63341" lon="5.19547">
        <ele>1373</ele>
        <time>2026-05-25T13:12:56.000Z</time>
      </trkpt>
      <trkpt lat="44.63341" lon="5.19547">
        <ele>1373</ele>
        <time>2026-05-25T13:12:57.000Z</time>
      </trkpt>
      <trkpt lat="44.63341" lon="5.19547">
        <ele>1373</ele>
        <time>2026-05-25T13:12:58.000Z</time>
      </trkpt>
      <trkpt lat="44.63341" lon="5.19547">
        <ele>1373</ele>
        <time>2026-05-25T13:12:59.000Z</time>
      </trkpt>
      <trkpt lat="44.63341" lon="5.19547">
        <ele>1373</ele>
        <time>2026-05-25T13:13:00.000Z</time>
      </trkpt>
      <trkpt lat="44.63341" lon="5.19547">
        <ele>1373</ele>
        <time>2026-05-25T13:13:01.000Z</time>
      </trkpt>
      <trkpt lat="44.63341" lon="5.19547">
        <ele>1373</ele>
        <time>2026-05-25T13:13:02.000Z</time>
      </trkpt>
      <trkpt lat="44.63341" lon="5.19547">
        <ele>1373</ele>
        <time>2026-05-25T13:13:03.000Z</time>
      </trkpt>
      <trkpt lat="44.63341" lon="5.19547">
        <ele>1373</ele>
        <time>2026-05-25T13:13:04.000Z</time>
      </trkpt>
      <trkpt lat="44.63341" lon="5.19547">
        <ele>1373</ele>
        <time>2026-05-25T13:13:05.000Z</time>
      </trkpt>
      <trkpt lat="44.63341" lon="5.19547">
        <ele>1373</ele>
        <time>2026-05-25T13:13:06.000Z</time>
      </trkpt>
      <trkpt lat="44.63341" lon="5.19547">
        <ele>1373</ele>
        <time>2026-05-25T13:13:07.000Z</time>
      </trkpt>
      <trkpt lat="44.63341" lon="5.19547">
        <ele>1373</ele>
        <time>2026-05-25T13:13:08.000Z</time>
      </trkpt>
      <trkpt lat="44.63341" lon="5.19547">
        <ele>1373</ele>
        <time>2026-05-25T13:13:09.000Z</time>
      </trkpt>
      <trkpt lat="44.63341" lon="5.19547">
        <ele>1373</ele>
        <time>2026-05-25T13:13:10.000Z</time>
      </trkpt>
      <trkpt lat="44.63341" lon="5.19547">
        <ele>1373</ele>
        <time>2026-05-25T13:13:11.000Z</time>
      </trkpt>
      <trkpt lat="44.63341" lon="5.19547">
        <ele>1373</ele>
        <time>2026-05-25T13:13:12.000Z</time>
      </trkpt>
      <trkpt lat="44.63341" lon="5.19547">
        <ele>1373</ele>
        <time>2026-05-25T13:13:13.000Z</time>
      </trkpt>
      <trkpt lat="44.63341" lon="5.19547">
        <ele>1373</ele>
        <time>2026-05-25T13:13:14.000Z</time>
      </trkpt>
      <trkpt lat="44.63341" lon="5.19547">
        <ele>1373</ele>
        <time>2026-05-25T13:13:15.000Z</time>
      </trkpt>
      <trkpt lat="44.63341" lon="5.19547">
        <ele>1373</ele>
        <time>2026-05-25T13:13:16.000Z</time>
      </trkpt>
      <trkpt lat="44.63341" lon="5.19547">
        <ele>1373</ele>
        <time>2026-05-25T13:13:17.000Z</time>
      </trkpt>
      <trkpt lat="44.63341" lon="5.19547">
        <ele>1373</ele>
        <time>2026-05-25T13:13:18.000Z</time>
      </trkpt>
      <trkpt lat="44.63341" lon="5.19547">
        <ele>1373</ele>
        <time>2026-05-25T13:13:19.000Z</time>
      </trkpt>
      <trkpt lat="44.63341" lon="5.19547">
        <ele>1373</ele>
        <time>2026-05-25T13:13:20.000Z</time>
      </trkpt>
      <trkpt lat="44.63341" lon="5.19547">
        <ele>1373</ele>
        <time>2026-05-25T13:13:21.000Z</time>
      </trkpt>
      <trkpt lat="44.63341" lon="5.19547">
        <ele>1373</ele>
        <time>2026-05-25T13:13:22.000Z</time>
      </trkpt>
      <trkpt lat="44.63341" lon="5.19547">
        <ele>1373</ele>
        <time>2026-05-25T13:13:23.000Z</time>
      </trkpt>
      <trkpt lat="44.63341" lon="5.19548">
        <ele>1373</ele>
        <time>2026-05-25T13:13:24.000Z</time>
      </trkpt>
      <trkpt lat="44.63341" lon="5.19548">
        <ele>1373</ele>
        <time>2026-05-25T13:13:25.000Z</time>
      </trkpt>
      <trkpt lat="44.63341" lon="5.19548">
        <ele>1373</ele>
        <time>2026-05-25T13:13:26.000Z</time>
      </trkpt>
      <trkpt lat="44.63341" lon="5.19548">
        <ele>1373</ele>
        <time>2026-05-25T13:13:27.000Z</time>
      </trkpt>
      <trkpt lat="44.63341" lon="5.19548">
        <ele>1373</ele>
        <time>2026-05-25T13:13:28.000Z</time>
      </trkpt>
      <trkpt lat="44.63341" lon="5.19548">
        <ele>1373</ele>
        <time>2026-05-25T13:13:29.000Z</time>
      </trkpt>
      <trkpt lat="44.63341" lon="5.19548">
        <ele>1373</ele>
        <time>2026-05-25T13:13:30.000Z</time>
      </trkpt>
      <trkpt lat="44.63341" lon="5.19548">
        <ele>1373</ele>
        <time>2026-05-25T13:13:31.000Z</time>
      </trkpt>
      <trkpt lat="44.63341" lon="5.19548">
        <ele>1373</ele>
        <time>2026-05-25T13:13:32.000Z</time>
      </trkpt>
      <trkpt lat="44.63341" lon="5.19548">
        <ele>1373</ele>
        <time>2026-05-25T13:13:33.000Z</time>
      </trkpt>
      <trkpt lat="44.63341" lon="5.19548">
        <ele>1373</ele>
        <time>2026-05-25T13:13:34.000Z</time>
      </trkpt>
      <trkpt lat="44.63341" lon="5.19548">
        <ele>1373</ele>
        <time>2026-05-25T13:13:35.000Z</time>
      </trkpt>
      <trkpt lat="44.63341" lon="5.19548">
        <ele>1373</ele>
        <time>2026-05-25T13:13:36.000Z</time>
      </trkpt>
      <trkpt lat="44.63341" lon="5.19548">
        <ele>1373</ele>
        <time>2026-05-25T13:13:37.000Z</time>
      </trkpt>
      <trkpt lat="44.63341" lon="5.19548">
        <ele>1373</ele>
        <time>2026-05-25T13:13:38.000Z</time>
      </trkpt>
      <trkpt lat="44.63341" lon="5.19548">
        <ele>1373</ele>
        <time>2026-05-25T13:13:39.000Z</time>
      </trkpt>
      <trkpt lat="44.63341" lon="5.19548">
        <ele>1373</ele>
        <time>2026-05-25T13:13:40.000Z</time>
      </trkpt>
      <trkpt lat="44.63341" lon="5.19548">
        <ele>1373</ele>
        <time>2026-05-25T13:13:41.000Z</time>
      </trkpt>
      <trkpt lat="44.63341" lon="5.19548">
        <ele>1373</ele>
        <time>2026-05-25T13:13:42.000Z</time>
      </trkpt>
      <trkpt lat="44.63341" lon="5.19548">
        <ele>1373</ele>
        <time>2026-05-25T13:13:43.000Z</time>
      </trkpt>
      <trkpt lat="44.63341" lon="5.19548">
        <ele>1373</ele>
        <time>2026-05-25T13:13:44.000Z</time>
      </trkpt>
      <trkpt lat="44.63341" lon="5.19548">
        <ele>1373</ele>
        <time>2026-05-25T13:13:45.000Z</time>
      </trkpt>
      <trkpt lat="44.63341" lon="5.19548">
        <ele>1373</ele>
        <time>2026-05-25T13:13:46.000Z</time>
      </trkpt>
      <trkpt lat="44.63341" lon="5.19548">
        <ele>1373</ele>
        <time>2026-05-25T13:13:47.000Z</time>
      </trkpt>
      <trkpt lat="44.63341" lon="5.19548">
        <ele>1373</ele>
        <time>2026-05-25T13:13:48.000Z</time>
      </trkpt>
      <trkpt lat="44.63341" lon="5.19548">
        <ele>1373</ele>
        <time>2026-05-25T13:13:49.000Z</time>
      </trkpt>
      <trkpt lat="44.63341" lon="5.19548">
        <ele>1373</ele>
        <time>2026-05-25T13:13:50.000Z</time>
      </trkpt>
      <trkpt lat="44.63341" lon="5.19548">
        <ele>1373</ele>
        <time>2026-05-25T13:13:51.000Z</time>
      </trkpt>
      <trkpt lat="44.63341" lon="5.19548">
        <ele>1373</ele>
        <time>2026-05-25T13:13:52.000Z</time>
      </trkpt>
      <trkpt lat="44.63341" lon="5.19548">
        <ele>1373</ele>
        <time>2026-05-25T13:13:53.000Z</time>
      </trkpt>
      <trkpt lat="44.63341" lon="5.19548">
        <ele>1373</ele>
        <time>2026-05-25T13:13:54.000Z</time>
      </trkpt>
      <trkpt lat="44.63341" lon="5.19548">
        <ele>1373</ele>
        <time>2026-05-25T13:13:55.000Z</time>
      </trkpt>
      <trkpt lat="44.63341" lon="5.19548">
        <ele>1373</ele>
        <time>2026-05-25T13:13:56.000Z</time>
      </trkpt>
      <trkpt lat="44.63341" lon="5.19548">
        <ele>1373</ele>
        <time>2026-05-25T13:13:57.000Z</time>
      </trkpt>
      <trkpt lat="44.63341" lon="5.19548">
        <ele>1373</ele>
        <time>2026-05-25T13:13:58.000Z</time>
      </trkpt>
      <trkpt lat="44.63341" lon="5.19548">
        <ele>1373</ele>
        <time>2026-05-25T13:13:59.000Z</time>
      </trkpt>
      <trkpt lat="44.63341" lon="5.19548">
        <ele>1373</ele>
        <time>2026-05-25T13:14:00.000Z</time>
      </trkpt>
      <trkpt lat="44.63341" lon="5.19548">
        <ele>1373</ele>
        <time>2026-05-25T13:14:01.000Z</time>
      </trkpt>
      <trkpt lat="44.63341" lon="5.19548">
        <ele>1373</ele>
        <time>2026-05-25T13:14:02.000Z</time>
      </trkpt>
      <trkpt lat="44.63341" lon="5.19548">
        <ele>1373</ele>
        <time>2026-05-25T13:14:03.000Z</time>
      </trkpt>
      <trkpt lat="44.63341" lon="5.19548">
        <ele>1373</ele>
        <time>2026-05-25T13:14:04.000Z</time>
      </trkpt>
      <trkpt lat="44.63341" lon="5.19548">
        <ele>1373</ele>
        <time>2026-05-25T13:14:05.000Z</time>
      </trkpt>
      <trkpt lat="44.63341" lon="5.19548">
        <ele>1373</ele>
        <time>2026-05-25T13:14:06.000Z</time>
      </trkpt>
      <trkpt lat="44.63341" lon="5.19548">
        <ele>1373</ele>
        <time>2026-05-25T13:14:07.000Z</time>
      </trkpt>
      <trkpt lat="44.63341" lon="5.19548">
        <ele>1373</ele>
        <time>2026-05-25T13:14:08.000Z</time>
      </trkpt>
      <trkpt lat="44.63341" lon="5.19548">
        <ele>1373</ele>
        <time>2026-05-25T13:14:09.000Z</time>
      </trkpt>
      <trkpt lat="44.63341" lon="5.19548">
        <ele>1373</ele>
        <time>2026-05-25T13:14:10.000Z</time>
      </trkpt>
      <trkpt lat="44.63341" lon="5.19548">
        <ele>1373</ele>
        <time>2026-05-25T13:14:11.000Z</time>
      </trkpt>
      <trkpt lat="44.63341" lon="5.19548">
        <ele>1373</ele>
        <time>2026-05-25T13:14:12.000Z</time>
      </trkpt>
      <trkpt lat="44.63341" lon="5.19548">
        <ele>1373</ele>
        <time>2026-05-25T13:14:13.000Z</time>
      </trkpt>
      <trkpt lat="44.63341" lon="5.19548">
        <ele>1373</ele>
        <time>2026-05-25T13:14:14.000Z</time>
      </trkpt>
      <trkpt lat="44.63341" lon="5.19548">
        <ele>1373</ele>
        <time>2026-05-25T13:14:15.000Z</time>
      </trkpt>
      <trkpt lat="44.63341" lon="5.19548">
        <ele>1373</ele>
        <time>2026-05-25T13:14:16.000Z</time>
      </trkpt>
      <trkpt lat="44.63341" lon="5.19548">
        <ele>1373</ele>
        <time>2026-05-25T13:14:17.000Z</time>
      </trkpt>
      <trkpt lat="44.63341" lon="5.19548">
        <ele>1373</ele>
        <time>2026-05-25T13:14:18.000Z</time>
      </trkpt>
      <trkpt lat="44.63341" lon="5.19548">
        <ele>1373</ele>
        <time>2026-05-25T13:14:19.000Z</time>
      </trkpt>
      <trkpt lat="44.63341" lon="5.19548">
        <ele>1373</ele>
        <time>2026-05-25T13:14:20.000Z</time>
      </trkpt>
      <trkpt lat="44.63341" lon="5.19548">
        <ele>1373</ele>
        <time>2026-05-25T13:14:21.000Z</time>
      </trkpt>
      <trkpt lat="44.63341" lon="5.19548">
        <ele>1373</ele>
        <time>2026-05-25T13:14:22.000Z</time>
      </trkpt>
      <trkpt lat="44.63341" lon="5.19548">
        <ele>1373</ele>
        <time>2026-05-25T13:14:23.000Z</time>
      </trkpt>
      <trkpt lat="44.63341" lon="5.19548">
        <ele>1373</ele>
        <time>2026-05-25T13:14:24.000Z</time>
      </trkpt>
      <trkpt lat="44.63341" lon="5.19548">
        <ele>1373</ele>
        <time>2026-05-25T13:14:25.000Z</time>
      </trkpt>
      <trkpt lat="44.63341" lon="5.19548">
        <ele>1373</ele>
        <time>2026-05-25T13:14:26.000Z</time>
      </trkpt>
      <trkpt lat="44.63341" lon="5.19548">
        <ele>1373</ele>
        <time>2026-05-25T13:14:27.000Z</time>
      </trkpt>
      <trkpt lat="44.63341" lon="5.19548">
        <ele>1373</ele>
        <time>2026-05-25T13:14:28.000Z</time>
      </trkpt>
      <trkpt lat="44.63341" lon="5.19548">
        <ele>1373</ele>
        <time>2026-05-25T13:14:29.000Z</time>
      </trkpt>
      <trkpt lat="44.63341" lon="5.19548">
        <ele>1371</ele>
        <time>2026-05-25T13:14:30.000Z</time>
      </trkpt>
      <trkpt lat="44.63341" lon="5.19548">
        <ele>1371</ele>
        <time>2026-05-25T13:14:31.000Z</time>
      </trkpt>
      <trkpt lat="44.63341" lon="5.19548">
        <ele>1371</ele>
        <time>2026-05-25T13:14:32.000Z</time>
      </trkpt>
      <trkpt lat="44.63341" lon="5.19548">
        <ele>1371</ele>
        <time>2026-05-25T13:14:33.000Z</time>
      </trkpt>
      <trkpt lat="44.63341" lon="5.19548">
        <ele>1371</ele>
        <time>2026-05-25T13:14:34.000Z</time>
      </trkpt>
      <trkpt lat="44.63341" lon="5.19548">
        <ele>1371</ele>
        <time>2026-05-25T13:14:35.000Z</time>
      </trkpt>
      <trkpt lat="44.63341" lon="5.19548">
        <ele>1371</ele>
        <time>2026-05-25T13:14:36.000Z</time>
      </trkpt>
      <trkpt lat="44.63341" lon="5.19548">
        <ele>1371</ele>
        <time>2026-05-25T13:14:37.000Z</time>
      </trkpt>
      <trkpt lat="44.63341" lon="5.19548">
        <ele>1371</ele>
        <time>2026-05-25T13:14:38.000Z</time>
      </trkpt>
      <trkpt lat="44.63341" lon="5.19548">
        <ele>1371</ele>
        <time>2026-05-25T13:14:39.000Z</time>
      </trkpt>
      <trkpt lat="44.63341" lon="5.19548">
        <ele>1371</ele>
        <time>2026-05-25T13:14:40.000Z</time>
      </trkpt>
      <trkpt lat="44.63341" lon="5.19548">
        <ele>1371</ele>
        <time>2026-05-25T13:14:41.000Z</time>
      </trkpt>
      <trkpt lat="44.63341" lon="5.19548">
        <ele>1371</ele>
        <time>2026-05-25T13:14:42.000Z</time>
      </trkpt>
      <trkpt lat="44.63341" lon="5.19548">
        <ele>1371</ele>
        <time>2026-05-25T13:14:43.000Z</time>
      </trkpt>
      <trkpt lat="44.63341" lon="5.19548">
        <ele>1371</ele>
        <time>2026-05-25T13:14:44.000Z</time>
      </trkpt>
      <trkpt lat="44.63341" lon="5.19548">
        <ele>1371</ele>
        <time>2026-05-25T13:14:45.000Z</time>
      </trkpt>
      <trkpt lat="44.63341" lon="5.19548">
        <ele>1371</ele>
        <time>2026-05-25T13:14:46.000Z</time>
      </trkpt>
      <trkpt lat="44.63341" lon="5.19548">
        <ele>1371</ele>
        <time>2026-05-25T13:14:47.000Z</time>
      </trkpt>
      <trkpt lat="44.63341" lon="5.19548">
        <ele>1371</ele>
        <time>2026-05-25T13:14:48.000Z</time>
      </trkpt>
      <trkpt lat="44.63341" lon="5.19548">
        <ele>1371</ele>
        <time>2026-05-25T13:14:49.000Z</time>
      </trkpt>
      <trkpt lat="44.63341" lon="5.19548">
        <ele>1371</ele>
        <time>2026-05-25T13:14:50.000Z</time>
      </trkpt>
      <trkpt lat="44.63341" lon="5.19548">
        <ele>1371</ele>
        <time>2026-05-25T13:14:51.000Z</time>
      </trkpt>
      <trkpt lat="44.63341" lon="5.19548">
        <ele>1371</ele>
        <time>2026-05-25T13:14:52.000Z</time>
      </trkpt>
      <trkpt lat="44.63341" lon="5.19548">
        <ele>1371</ele>
        <time>2026-05-25T13:14:53.000Z</time>
      </trkpt>
      <trkpt lat="44.63341" lon="5.19548">
        <ele>1371</ele>
        <time>2026-05-25T13:14:54.000Z</time>
      </trkpt>
      <trkpt lat="44.63341" lon="5.19548">
        <ele>1371</ele>
        <time>2026-05-25T13:14:55.000Z</time>
      </trkpt>
      <trkpt lat="44.63341" lon="5.19548">
        <ele>1371</ele>
        <time>2026-05-25T13:14:56.000Z</time>
      </trkpt>
      <trkpt lat="44.63341" lon="5.19548">
        <ele>1371</ele>
        <time>2026-05-25T13:14:57.000Z</time>
      </trkpt>
      <trkpt lat="44.63341" lon="5.19548">
        <ele>1371</ele>
        <time>2026-05-25T13:14:58.000Z</time>
      </trkpt>
      <trkpt lat="44.63341" lon="5.19548">
        <ele>1371</ele>
        <time>2026-05-25T13:14:59.000Z</time>
      </trkpt>
      <trkpt lat="44.63341" lon="5.19548">
        <ele>1371</ele>
        <time>2026-05-25T13:15:00.000Z</time>
      </trkpt>
      <trkpt lat="44.63341" lon="5.19548">
        <ele>1371</ele>
        <time>2026-05-25T13:15:01.000Z</time>
      </trkpt>
      <trkpt lat="44.63341" lon="5.19548">
        <ele>1371</ele>
        <time>2026-05-25T13:15:02.000Z</time>
      </trkpt>
      <trkpt lat="44.63341" lon="5.19548">
        <ele>1371</ele>
        <time>2026-05-25T13:15:03.000Z</time>
      </trkpt>
      <trkpt lat="44.63341" lon="5.19548">
        <ele>1371</ele>
        <time>2026-05-25T13:15:04.000Z</time>
      </trkpt>
      <trkpt lat="44.63341" lon="5.19548">
        <ele>1371</ele>
        <time>2026-05-25T13:15:05.000Z</time>
      </trkpt>
      <trkpt lat="44.63341" lon="5.19548">
        <ele>1371</ele>
        <time>2026-05-25T13:15:06.000Z</time>
      </trkpt>
      <trkpt lat="44.63341" lon="5.19548">
        <ele>1371</ele>
        <time>2026-05-25T13:15:07.000Z</time>
      </trkpt>
      <trkpt lat="44.63341" lon="5.19548">
        <ele>1371</ele>
        <time>2026-05-25T13:15:08.000Z</time>
      </trkpt>
      <trkpt lat="44.63341" lon="5.19548">
        <ele>1371</ele>
        <time>2026-05-25T13:15:09.000Z</time>
      </trkpt>
      <trkpt lat="44.63341" lon="5.19548">
        <ele>1371</ele>
        <time>2026-05-25T13:15:10.000Z</time>
      </trkpt>
      <trkpt lat="44.63341" lon="5.19548">
        <ele>1371</ele>
        <time>2026-05-25T13:15:11.000Z</time>
      </trkpt>
      <trkpt lat="44.63341" lon="5.19548">
        <ele>1371</ele>
        <time>2026-05-25T13:15:12.000Z</time>
      </trkpt>
      <trkpt lat="44.63341" lon="5.19548">
        <ele>1371</ele>
        <time>2026-05-25T13:15:13.000Z</time>
      </trkpt>
      <trkpt lat="44.63341" lon="5.19548">
        <ele>1371</ele>
        <time>2026-05-25T13:15:14.000Z</time>
      </trkpt>
      <trkpt lat="44.63341" lon="5.19548">
        <ele>1371</ele>
        <time>2026-05-25T13:15:15.000Z</time>
      </trkpt>
      <trkpt lat="44.63341" lon="5.19548">
        <ele>1371</ele>
        <time>2026-05-25T13:15:16.000Z</time>
      </trkpt>
      <trkpt lat="44.63341" lon="5.19548">
        <ele>1371</ele>
        <time>2026-05-25T13:15:17.000Z</time>
      </trkpt>
      <trkpt lat="44.63341" lon="5.19548">
        <ele>1371</ele>
        <time>2026-05-25T13:15:18.000Z</time>
      </trkpt>
      <trkpt lat="44.63341" lon="5.19548">
        <ele>1371</ele>
        <time>2026-05-25T13:15:19.000Z</time>
      </trkpt>
      <trkpt lat="44.63341" lon="5.19548">
        <ele>1371</ele>
        <time>2026-05-25T13:15:20.000Z</time>
      </trkpt>
      <trkpt lat="44.63341" lon="5.19548">
        <ele>1371</ele>
        <time>2026-05-25T13:15:21.000Z</time>
      </trkpt>
      <trkpt lat="44.63341" lon="5.19548">
        <ele>1371</ele>
        <time>2026-05-25T13:15:22.000Z</time>
      </trkpt>
      <trkpt lat="44.63341" lon="5.19548">
        <ele>1371</ele>
        <time>2026-05-25T13:15:23.000Z</time>
      </trkpt>
      <trkpt lat="44.63341" lon="5.19548">
        <ele>1371</ele>
        <time>2026-05-25T13:15:24.000Z</time>
      </trkpt>
      <trkpt lat="44.63341" lon="5.19548">
        <ele>1371</ele>
        <time>2026-05-25T13:15:25.000Z</time>
      </trkpt>
      <trkpt lat="44.63341" lon="5.19548">
        <ele>1371</ele>
        <time>2026-05-25T13:15:26.000Z</time>
      </trkpt>
      <trkpt lat="44.63341" lon="5.19548">
        <ele>1371</ele>
        <time>2026-05-25T13:15:27.000Z</time>
      </trkpt>
      <trkpt lat="44.63341" lon="5.19548">
        <ele>1371</ele>
        <time>2026-05-25T13:15:28.000Z</time>
      </trkpt>
      <trkpt lat="44.63341" lon="5.19548">
        <ele>1371</ele>
        <time>2026-05-25T13:15:29.000Z</time>
      </trkpt>
      <trkpt lat="44.63341" lon="5.19548">
        <ele>1371</ele>
        <time>2026-05-25T13:15:30.000Z</time>
      </trkpt>
      <trkpt lat="44.63341" lon="5.19548">
        <ele>1371</ele>
        <time>2026-05-25T13:15:31.000Z</time>
      </trkpt>
      <trkpt lat="44.63341" lon="5.19548">
        <ele>1371</ele>
        <time>2026-05-25T13:15:32.000Z</time>
      </trkpt>
      <trkpt lat="44.63341" lon="5.19548">
        <ele>1371</ele>
        <time>2026-05-25T13:15:33.000Z</time>
      </trkpt>
      <trkpt lat="44.63341" lon="5.19548">
        <ele>1371</ele>
        <time>2026-05-25T13:15:34.000Z</time>
      </trkpt>
      <trkpt lat="44.63341" lon="5.19548">
        <ele>1371</ele>
        <time>2026-05-25T13:15:35.000Z</time>
      </trkpt>
      <trkpt lat="44.63341" lon="5.19548">
        <ele>1371</ele>
        <time>2026-05-25T13:15:36.000Z</time>
      </trkpt>
      <trkpt lat="44.63341" lon="5.19548">
        <ele>1371</ele>
        <time>2026-05-25T13:15:37.000Z</time>
      </trkpt>
      <trkpt lat="44.63341" lon="5.19548">
        <ele>1371</ele>
        <time>2026-05-25T13:15:38.000Z</time>
      </trkpt>
      <trkpt lat="44.63341" lon="5.19548">
        <ele>1371</ele>
        <time>2026-05-25T13:15:39.000Z</time>
      </trkpt>
      <trkpt lat="44.63341" lon="5.19548">
        <ele>1371</ele>
        <time>2026-05-25T13:15:40.000Z</time>
      </trkpt>
      <trkpt lat="44.63341" lon="5.19548">
        <ele>1371</ele>
        <time>2026-05-25T13:15:41.000Z</time>
      </trkpt>
      <trkpt lat="44.63341" lon="5.19548">
        <ele>1371</ele>
        <time>2026-05-25T13:15:42.000Z</time>
      </trkpt>
      <trkpt lat="44.63341" lon="5.19548">
        <ele>1371</ele>
        <time>2026-05-25T13:15:43.000Z</time>
      </trkpt>
      <trkpt lat="44.63341" lon="5.19548">
        <ele>1371</ele>
        <time>2026-05-25T13:15:44.000Z</time>
      </trkpt>
      <trkpt lat="44.63341" lon="5.19548">
        <ele>1371</ele>
        <time>2026-05-25T13:15:45.000Z</time>
      </trkpt>
      <trkpt lat="44.63341" lon="5.19548">
        <ele>1371</ele>
        <time>2026-05-25T13:15:46.000Z</time>
      </trkpt>
      <trkpt lat="44.63341" lon="5.19548">
        <ele>1371</ele>
        <time>2026-05-25T13:15:47.000Z</time>
      </trkpt>
      <trkpt lat="44.63341" lon="5.19548">
        <ele>1371</ele>
        <time>2026-05-25T13:15:48.000Z</time>
      </trkpt>
      <trkpt lat="44.63341" lon="5.19548">
        <ele>1371</ele>
        <time>2026-05-25T13:15:49.000Z</time>
      </trkpt>
      <trkpt lat="44.63341" lon="5.19548">
        <ele>1371</ele>
        <time>2026-05-25T13:15:50.000Z</time>
      </trkpt>
      <trkpt lat="44.63341" lon="5.19548">
        <ele>1371</ele>
        <time>2026-05-25T13:15:51.000Z</time>
      </trkpt>
      <trkpt lat="44.63341" lon="5.19548">
        <ele>1371</ele>
        <time>2026-05-25T13:15:52.000Z</time>
      </trkpt>
      <trkpt lat="44.63341" lon="5.19548">
        <ele>1371</ele>
        <time>2026-05-25T13:15:53.000Z</time>
      </trkpt>
      <trkpt lat="44.63341" lon="5.19548">
        <ele>1371</ele>
        <time>2026-05-25T13:15:54.000Z</time>
      </trkpt>
      <trkpt lat="44.63341" lon="5.19548">
        <ele>1371</ele>
        <time>2026-05-25T13:15:55.000Z</time>
      </trkpt>
      <trkpt lat="44.63341" lon="5.19548">
        <ele>1371</ele>
        <time>2026-05-25T13:15:56.000Z</time>
      </trkpt>
      <trkpt lat="44.63341" lon="5.19548">
        <ele>1371</ele>
        <time>2026-05-25T13:15:57.000Z</time>
      </trkpt>
      <trkpt lat="44.63341" lon="5.19548">
        <ele>1371</ele>
        <time>2026-05-25T13:15:58.000Z</time>
      </trkpt>
      <trkpt lat="44.63341" lon="5.19548">
        <ele>1371</ele>
        <time>2026-05-25T13:15:59.000Z</time>
      </trkpt>
      <trkpt lat="44.63341" lon="5.19548">
        <ele>1371</ele>
        <time>2026-05-25T13:16:00.000Z</time>
      </trkpt>
      <trkpt lat="44.63341" lon="5.19548">
        <ele>1371</ele>
        <time>2026-05-25T13:16:01.000Z</time>
      </trkpt>
      <trkpt lat="44.63341" lon="5.19548">
        <ele>1371</ele>
        <time>2026-05-25T13:16:02.000Z</time>
      </trkpt>
      <trkpt lat="44.63341" lon="5.19548">
        <ele>1371</ele>
        <time>2026-05-25T13:16:03.000Z</time>
      </trkpt>
      <trkpt lat="44.63341" lon="5.19548">
        <ele>1371</ele>
        <time>2026-05-25T13:16:04.000Z</time>
      </trkpt>
      <trkpt lat="44.63342" lon="5.19548">
        <ele>1370</ele>
        <time>2026-05-25T13:16:05.000Z</time>
      </trkpt>
      <trkpt lat="44.63342" lon="5.19548">
        <ele>1370</ele>
        <time>2026-05-25T13:16:06.000Z</time>
      </trkpt>
      <trkpt lat="44.63342" lon="5.19548">
        <ele>1370</ele>
        <time>2026-05-25T13:16:07.000Z</time>
      </trkpt>
      <trkpt lat="44.63342" lon="5.19548">
        <ele>1370</ele>
        <time>2026-05-25T13:16:08.000Z</time>
      </trkpt>
      <trkpt lat="44.63342" lon="5.19548">
        <ele>1370</ele>
        <time>2026-05-25T13:16:09.000Z</time>
      </trkpt>
      <trkpt lat="44.63342" lon="5.19548">
        <ele>1370</ele>
        <time>2026-05-25T13:16:10.000Z</time>
      </trkpt>
      <trkpt lat="44.63342" lon="5.19548">
        <ele>1370</ele>
        <time>2026-05-25T13:16:11.000Z</time>
      </trkpt>
      <trkpt lat="44.63342" lon="5.19548">
        <ele>1370</ele>
        <time>2026-05-25T13:16:12.000Z</time>
      </trkpt>
      <trkpt lat="44.63342" lon="5.19548">
        <ele>1370</ele>
        <time>2026-05-25T13:16:13.000Z</time>
      </trkpt>
      <trkpt lat="44.63342" lon="5.19548">
        <ele>1370</ele>
        <time>2026-05-25T13:16:14.000Z</time>
      </trkpt>
      <trkpt lat="44.63342" lon="5.19548">
        <ele>1370</ele>
        <time>2026-05-25T13:16:15.000Z</time>
      </trkpt>
      <trkpt lat="44.63342" lon="5.19548">
        <ele>1370</ele>
        <time>2026-05-25T13:16:16.000Z</time>
      </trkpt>
      <trkpt lat="44.63342" lon="5.19548">
        <ele>1370</ele>
        <time>2026-05-25T13:16:17.000Z</time>
      </trkpt>
      <trkpt lat="44.63342" lon="5.19548">
        <ele>1370</ele>
        <time>2026-05-25T13:16:18.000Z</time>
      </trkpt>
      <trkpt lat="44.63342" lon="5.19548">
        <ele>1370</ele>
        <time>2026-05-25T13:16:19.000Z</time>
      </trkpt>
      <trkpt lat="44.63342" lon="5.19548">
        <ele>1370</ele>
        <time>2026-05-25T13:16:20.000Z</time>
      </trkpt>
      <trkpt lat="44.63342" lon="5.19548">
        <ele>1370</ele>
        <time>2026-05-25T13:16:21.000Z</time>
      </trkpt>
      <trkpt lat="44.63342" lon="5.19548">
        <ele>1370</ele>
        <time>2026-05-25T13:16:22.000Z</time>
      </trkpt>
      <trkpt lat="44.63342" lon="5.19548">
        <ele>1370</ele>
        <time>2026-05-25T13:16:23.000Z</time>
      </trkpt>
      <trkpt lat="44.63342" lon="5.19548">
        <ele>1370</ele>
        <time>2026-05-25T13:16:24.000Z</time>
      </trkpt>
      <trkpt lat="44.63342" lon="5.19548">
        <ele>1370</ele>
        <time>2026-05-25T13:16:25.000Z</time>
      </trkpt>
      <trkpt lat="44.63342" lon="5.19548">
        <ele>1370</ele>
        <time>2026-05-25T13:16:26.000Z</time>
      </trkpt>
      <trkpt lat="44.63342" lon="5.19548">
        <ele>1370</ele>
        <time>2026-05-25T13:16:27.000Z</time>
      </trkpt>
      <trkpt lat="44.63342" lon="5.19548">
        <ele>1370</ele>
        <time>2026-05-25T13:16:28.000Z</time>
      </trkpt>
      <trkpt lat="44.6334" lon="5.19548">
        <ele>1370</ele>
        <time>2026-05-25T13:16:29.000Z</time>
      </trkpt>
      <trkpt lat="44.63339" lon="5.19547">
        <ele>1370</ele>
        <time>2026-05-25T13:16:30.000Z</time>
      </trkpt>
      <trkpt lat="44.63338" lon="5.19547">
        <ele>1370</ele>
        <time>2026-05-25T13:16:31.000Z</time>
      </trkpt>
      <trkpt lat="44.63337" lon="5.19545">
        <ele>1371</ele>
        <time>2026-05-25T13:16:32.000Z</time>
      </trkpt>
      <trkpt lat="44.63337" lon="5.19545">
        <ele>1371</ele>
        <time>2026-05-25T13:16:33.000Z</time>
      </trkpt>
      <trkpt lat="44.63337" lon="5.19545">
        <ele>1371</ele>
        <time>2026-05-25T13:16:34.000Z</time>
      </trkpt>
      <trkpt lat="44.63337" lon="5.19545">
        <ele>1370</ele>
        <time>2026-05-25T13:16:35.000Z</time>
      </trkpt>
      <trkpt lat="44.63337" lon="5.19545">
        <ele>1370</ele>
        <time>2026-05-25T13:16:36.000Z</time>
      </trkpt>
      <trkpt lat="44.63337" lon="5.19545">
        <ele>1370</ele>
        <time>2026-05-25T13:16:37.000Z</time>
      </trkpt>
      <trkpt lat="44.63337" lon="5.19545">
        <ele>1370</ele>
        <time>2026-05-25T13:16:38.000Z</time>
      </trkpt>
      <trkpt lat="44.63337" lon="5.19545">
        <ele>1370</ele>
        <time>2026-05-25T13:16:39.000Z</time>
      </trkpt>
      <trkpt lat="44.63337" lon="5.19545">
        <ele>1370</ele>
        <time>2026-05-25T13:16:40.000Z</time>
      </trkpt>
      <trkpt lat="44.63337" lon="5.19545">
        <ele>1370</ele>
        <time>2026-05-25T13:16:41.000Z</time>
      </trkpt>
      <trkpt lat="44.63337" lon="5.19545">
        <ele>1370</ele>
        <time>2026-05-25T13:16:42.000Z</time>
      </trkpt>
      <trkpt lat="44.63337" lon="5.19545">
        <ele>1370</ele>
        <time>2026-05-25T13:16:43.000Z</time>
      </trkpt>
      <trkpt lat="44.63338" lon="5.19545">
        <ele>1370</ele>
        <time>2026-05-25T13:16:44.000Z</time>
      </trkpt>
      <trkpt lat="44.63338" lon="5.19546">
        <ele>1370</ele>
        <time>2026-05-25T13:16:45.000Z</time>
      </trkpt>
      <trkpt lat="44.63338" lon="5.19546">
        <ele>1370</ele>
        <time>2026-05-25T13:16:46.000Z</time>
      </trkpt>
      <trkpt lat="44.63337" lon="5.19546">
        <ele>1370</ele>
        <time>2026-05-25T13:16:47.000Z</time>
      </trkpt>
      <trkpt lat="44.63338" lon="5.19546">
        <ele>1369</ele>
        <time>2026-05-25T13:16:48.000Z</time>
      </trkpt>
      <trkpt lat="44.63338" lon="5.19548">
        <ele>1367</ele>
        <time>2026-05-25T13:16:49.000Z</time>
      </trkpt>
      <trkpt lat="44.63338" lon="5.1955">
        <ele>1367</ele>
        <time>2026-05-25T13:16:50.000Z</time>
      </trkpt>
      <trkpt lat="44.63338" lon="5.1955">
        <ele>1368</ele>
        <time>2026-05-25T13:16:51.000Z</time>
      </trkpt>
      <trkpt lat="44.63338" lon="5.1955">
        <ele>1368</ele>
        <time>2026-05-25T13:16:52.000Z</time>
      </trkpt>
      <trkpt lat="44.63338" lon="5.19549">
        <ele>1368</ele>
        <time>2026-05-25T13:16:53.000Z</time>
      </trkpt>
      <trkpt lat="44.63338" lon="5.19549">
        <ele>1368</ele>
        <time>2026-05-25T13:16:54.000Z</time>
      </trkpt>
      <trkpt lat="44.63338" lon="5.19549">
        <ele>1368</ele>
        <time>2026-05-25T13:16:55.000Z</time>
      </trkpt>
      <trkpt lat="44.63338" lon="5.19549">
        <ele>1368</ele>
        <time>2026-05-25T13:16:56.000Z</time>
      </trkpt>
      <trkpt lat="44.63338" lon="5.19549">
        <ele>1368</ele>
        <time>2026-05-25T13:16:57.000Z</time>
      </trkpt>
      <trkpt lat="44.63338" lon="5.19549">
        <ele>1368</ele>
        <time>2026-05-25T13:16:58.000Z</time>
      </trkpt>
      <trkpt lat="44.63338" lon="5.19549">
        <ele>1368</ele>
        <time>2026-05-25T13:16:59.000Z</time>
      </trkpt>
      <trkpt lat="44.63338" lon="5.19549">
        <ele>1368</ele>
        <time>2026-05-25T13:17:00.000Z</time>
      </trkpt>
      <trkpt lat="44.63338" lon="5.19549">
        <ele>1368</ele>
        <time>2026-05-25T13:17:01.000Z</time>
      </trkpt>
      <trkpt lat="44.63338" lon="5.19549">
        <ele>1368</ele>
        <time>2026-05-25T13:17:02.000Z</time>
      </trkpt>
      <trkpt lat="44.63338" lon="5.19549">
        <ele>1368</ele>
        <time>2026-05-25T13:17:03.000Z</time>
      </trkpt>
      <trkpt lat="44.63338" lon="5.19549">
        <ele>1368</ele>
        <time>2026-05-25T13:17:04.000Z</time>
      </trkpt>
      <trkpt lat="44.63338" lon="5.19549">
        <ele>1368</ele>
        <time>2026-05-25T13:17:05.000Z</time>
      </trkpt>
      <trkpt lat="44.63338" lon="5.19549">
        <ele>1368</ele>
        <time>2026-05-25T13:17:06.000Z</time>
      </trkpt>
      <trkpt lat="44.63338" lon="5.19549">
        <ele>1368</ele>
        <time>2026-05-25T13:17:07.000Z</time>
      </trkpt>
      <trkpt lat="44.63338" lon="5.19549">
        <ele>1368</ele>
        <time>2026-05-25T13:17:08.000Z</time>
      </trkpt>
      <trkpt lat="44.63338" lon="5.19549">
        <ele>1368</ele>
        <time>2026-05-25T13:17:09.000Z</time>
      </trkpt>
      <trkpt lat="44.63338" lon="5.19549">
        <ele>1368</ele>
        <time>2026-05-25T13:17:10.000Z</time>
      </trkpt>
      <trkpt lat="44.63338" lon="5.19549">
        <ele>1368</ele>
        <time>2026-05-25T13:17:11.000Z</time>
      </trkpt>
      <trkpt lat="44.63338" lon="5.19549">
        <ele>1368</ele>
        <time>2026-05-25T13:17:12.000Z</time>
      </trkpt>
      <trkpt lat="44.63338" lon="5.19549">
        <ele>1368</ele>
        <time>2026-05-25T13:17:13.000Z</time>
      </trkpt>
      <trkpt lat="44.63337" lon="5.19549">
        <ele>1369</ele>
        <time>2026-05-25T13:17:14.000Z</time>
      </trkpt>
      <trkpt lat="44.63337" lon="5.19549">
        <ele>1369</ele>
        <time>2026-05-25T13:17:15.000Z</time>
      </trkpt>
      <trkpt lat="44.63337" lon="5.19548">
        <ele>1370</ele>
        <time>2026-05-25T13:17:16.000Z</time>
      </trkpt>
      <trkpt lat="44.63337" lon="5.19547">
        <ele>1370</ele>
        <time>2026-05-25T13:17:17.000Z</time>
      </trkpt>
      <trkpt lat="44.63338" lon="5.19546">
        <ele>1372</ele>
        <time>2026-05-25T13:17:18.000Z</time>
      </trkpt>
      <trkpt lat="44.63338" lon="5.19546">
        <ele>1372</ele>
        <time>2026-05-25T13:17:19.000Z</time>
      </trkpt>
      <trkpt lat="44.63338" lon="5.19546">
        <ele>1372</ele>
        <time>2026-05-25T13:17:20.000Z</time>
      </trkpt>
      <trkpt lat="44.63338" lon="5.19546">
        <ele>1372</ele>
        <time>2026-05-25T13:17:21.000Z</time>
      </trkpt>
      <trkpt lat="44.63338" lon="5.19546">
        <ele>1372</ele>
        <time>2026-05-25T13:17:22.000Z</time>
      </trkpt>
      <trkpt lat="44.63338" lon="5.19546">
        <ele>1372</ele>
        <time>2026-05-25T13:17:23.000Z</time>
      </trkpt>
      <trkpt lat="44.63338" lon="5.19546">
        <ele>1372</ele>
        <time>2026-05-25T13:17:24.000Z</time>
      </trkpt>
      <trkpt lat="44.63338" lon="5.19546">
        <ele>1372</ele>
        <time>2026-05-25T13:17:25.000Z</time>
      </trkpt>
      <trkpt lat="44.63338" lon="5.19546">
        <ele>1372</ele>
        <time>2026-05-25T13:17:26.000Z</time>
      </trkpt>
      <trkpt lat="44.63338" lon="5.19546">
        <ele>1372</ele>
        <time>2026-05-25T13:17:27.000Z</time>
      </trkpt>
      <trkpt lat="44.63338" lon="5.19547">
        <ele>1373</ele>
        <time>2026-05-25T13:17:28.000Z</time>
      </trkpt>
      <trkpt lat="44.63337" lon="5.19548">
        <ele>1373</ele>
        <time>2026-05-25T13:17:29.000Z</time>
      </trkpt>
      <trkpt lat="44.6334" lon="5.19547">
        <ele>1374</ele>
        <time>2026-05-25T13:17:30.000Z</time>
      </trkpt>
      <trkpt lat="44.63341" lon="5.19548">
        <ele>1374</ele>
        <time>2026-05-25T13:17:31.000Z</time>
      </trkpt>
      <trkpt lat="44.63341" lon="5.19547">
        <ele>1374</ele>
        <time>2026-05-25T13:17:32.000Z</time>
      </trkpt>
      <trkpt lat="44.6334" lon="5.19548">
        <ele>1373</ele>
        <time>2026-05-25T13:17:33.000Z</time>
      </trkpt>
      <trkpt lat="44.63339" lon="5.19547">
        <ele>1373</ele>
        <time>2026-05-25T13:17:34.000Z</time>
      </trkpt>
      <trkpt lat="44.63339" lon="5.19547">
        <ele>1373</ele>
        <time>2026-05-25T13:17:35.000Z</time>
      </trkpt>
      <trkpt lat="44.63339" lon="5.19547">
        <ele>1373</ele>
        <time>2026-05-25T13:17:36.000Z</time>
      </trkpt>
      <trkpt lat="44.63339" lon="5.19547">
        <ele>1373</ele>
        <time>2026-05-25T13:17:37.000Z</time>
      </trkpt>
      <trkpt lat="44.63339" lon="5.19547">
        <ele>1373</ele>
        <time>2026-05-25T13:17:38.000Z</time>
      </trkpt>
      <trkpt lat="44.63339" lon="5.19547">
        <ele>1373</ele>
        <time>2026-05-25T13:17:39.000Z</time>
      </trkpt>
      <trkpt lat="44.63339" lon="5.19547">
        <ele>1373</ele>
        <time>2026-05-25T13:17:40.000Z</time>
      </trkpt>
      <trkpt lat="44.63339" lon="5.19547">
        <ele>1373</ele>
        <time>2026-05-25T13:17:41.000Z</time>
      </trkpt>
      <trkpt lat="44.63339" lon="5.19547">
        <ele>1373</ele>
        <time>2026-05-25T13:17:42.000Z</time>
      </trkpt>
      <trkpt lat="44.63339" lon="5.19547">
        <ele>1373</ele>
        <time>2026-05-25T13:17:43.000Z</time>
      </trkpt>
      <trkpt lat="44.63339" lon="5.19547">
        <ele>1373</ele>
        <time>2026-05-25T13:17:44.000Z</time>
      </trkpt>
      <trkpt lat="44.63339" lon="5.19547">
        <ele>1373</ele>
        <time>2026-05-25T13:17:45.000Z</time>
      </trkpt>
      <trkpt lat="44.63339" lon="5.19547">
        <ele>1373</ele>
        <time>2026-05-25T13:17:46.000Z</time>
      </trkpt>
      <trkpt lat="44.63339" lon="5.19547">
        <ele>1373</ele>
        <time>2026-05-25T13:17:47.000Z</time>
      </trkpt>
      <trkpt lat="44.63339" lon="5.19547">
        <ele>1373</ele>
        <time>2026-05-25T13:17:48.000Z</time>
      </trkpt>
      <trkpt lat="44.63339" lon="5.19547">
        <ele>1373</ele>
        <time>2026-05-25T13:17:49.000Z</time>
      </trkpt>
      <trkpt lat="44.63339" lon="5.19547">
        <ele>1373</ele>
        <time>2026-05-25T13:17:50.000Z</time>
      </trkpt>
      <trkpt lat="44.63339" lon="5.19546">
        <ele>1373</ele>
        <time>2026-05-25T13:17:51.000Z</time>
      </trkpt>
      <trkpt lat="44.63339" lon="5.19546">
        <ele>1373</ele>
        <time>2026-05-25T13:17:52.000Z</time>
      </trkpt>
      <trkpt lat="44.63339" lon="5.19546">
        <ele>1373</ele>
        <time>2026-05-25T13:17:53.000Z</time>
      </trkpt>
      <trkpt lat="44.63339" lon="5.19546">
        <ele>1373</ele>
        <time>2026-05-25T13:17:54.000Z</time>
      </trkpt>
      <trkpt lat="44.63339" lon="5.19546">
        <ele>1373</ele>
        <time>2026-05-25T13:17:55.000Z</time>
      </trkpt>
      <trkpt lat="44.63339" lon="5.19546">
        <ele>1373</ele>
        <time>2026-05-25T13:17:56.000Z</time>
      </trkpt>
      <trkpt lat="44.63339" lon="5.19546">
        <ele>1373</ele>
        <time>2026-05-25T13:17:57.000Z</time>
      </trkpt>
      <trkpt lat="44.63339" lon="5.19546">
        <ele>1373</ele>
        <time>2026-05-25T13:17:58.000Z</time>
      </trkpt>
      <trkpt lat="44.63339" lon="5.19546">
        <ele>1373</ele>
        <time>2026-05-25T13:17:59.000Z</time>
      </trkpt>
      <trkpt lat="44.63339" lon="5.19546">
        <ele>1373</ele>
        <time>2026-05-25T13:18:00.000Z</time>
      </trkpt>
      <trkpt lat="44.63339" lon="5.19546">
        <ele>1373</ele>
        <time>2026-05-25T13:18:01.000Z</time>
      </trkpt>
      <trkpt lat="44.63339" lon="5.19546">
        <ele>1373</ele>
        <time>2026-05-25T13:18:02.000Z</time>
      </trkpt>
      <trkpt lat="44.63339" lon="5.19546">
        <ele>1373</ele>
        <time>2026-05-25T13:18:03.000Z</time>
      </trkpt>
      <trkpt lat="44.6334" lon="5.19546">
        <ele>1373</ele>
        <time>2026-05-25T13:18:04.000Z</time>
      </trkpt>
      <trkpt lat="44.63341" lon="5.19547">
        <ele>1373</ele>
        <time>2026-05-25T13:18:05.000Z</time>
      </trkpt>
      <trkpt lat="44.63342" lon="5.19547">
        <ele>1373</ele>
        <time>2026-05-25T13:18:06.000Z</time>
      </trkpt>
      <trkpt lat="44.63341" lon="5.19548">
        <ele>1373</ele>
        <time>2026-05-25T13:18:07.000Z</time>
      </trkpt>
      <trkpt lat="44.63341" lon="5.19548">
        <ele>1373</ele>
        <time>2026-05-25T13:18:08.000Z</time>
      </trkpt>
      <trkpt lat="44.63341" lon="5.19548">
        <ele>1373</ele>
        <time>2026-05-25T13:18:09.000Z</time>
      </trkpt>
      <trkpt lat="44.63341" lon="5.19548">
        <ele>1373</ele>
        <time>2026-05-25T13:18:10.000Z</time>
      </trkpt>
      <trkpt lat="44.63341" lon="5.19548">
        <ele>1373</ele>
        <time>2026-05-25T13:18:11.000Z</time>
      </trkpt>
      <trkpt lat="44.63341" lon="5.19548">
        <ele>1373</ele>
        <time>2026-05-25T13:18:12.000Z</time>
      </trkpt>
      <trkpt lat="44.63341" lon="5.19548">
        <ele>1373</ele>
        <time>2026-05-25T13:18:13.000Z</time>
      </trkpt>
      <trkpt lat="44.6334" lon="5.19548">
        <ele>1372</ele>
        <time>2026-05-25T13:18:14.000Z</time>
      </trkpt>
      <trkpt lat="44.63339" lon="5.19547">
        <ele>1372</ele>
        <time>2026-05-25T13:18:15.000Z</time>
      </trkpt>
      <trkpt lat="44.63338" lon="5.19547">
        <ele>1371</ele>
        <time>2026-05-25T13:18:16.000Z</time>
      </trkpt>
      <trkpt lat="44.63338" lon="5.19546">
        <ele>1371</ele>
        <time>2026-05-25T13:18:17.000Z</time>
      </trkpt>
      <trkpt lat="44.63337" lon="5.19546">
        <ele>1370</ele>
        <time>2026-05-25T13:18:18.000Z</time>
      </trkpt>
      <trkpt lat="44.63337" lon="5.19547">
        <ele>1370</ele>
        <time>2026-05-25T13:18:19.000Z</time>
      </trkpt>
      <trkpt lat="44.63337" lon="5.19547">
        <ele>1370</ele>
        <time>2026-05-25T13:18:20.000Z</time>
      </trkpt>
      <trkpt lat="44.63337" lon="5.19547">
        <ele>1370</ele>
        <time>2026-05-25T13:18:21.000Z</time>
      </trkpt>
      <trkpt lat="44.63337" lon="5.19547">
        <ele>1370</ele>
        <time>2026-05-25T13:18:22.000Z</time>
      </trkpt>
      <trkpt lat="44.63337" lon="5.19547">
        <ele>1370</ele>
        <time>2026-05-25T13:18:23.000Z</time>
      </trkpt>
      <trkpt lat="44.63337" lon="5.19547">
        <ele>1370</ele>
        <time>2026-05-25T13:18:24.000Z</time>
      </trkpt>
      <trkpt lat="44.63337" lon="5.19547">
        <ele>1370</ele>
        <time>2026-05-25T13:18:25.000Z</time>
      </trkpt>
      <trkpt lat="44.63337" lon="5.19547">
        <ele>1370</ele>
        <time>2026-05-25T13:18:26.000Z</time>
      </trkpt>
      <trkpt lat="44.63337" lon="5.19547">
        <ele>1370</ele>
        <time>2026-05-25T13:18:27.000Z</time>
      </trkpt>
      <trkpt lat="44.63337" lon="5.19547">
        <ele>1370</ele>
        <time>2026-05-25T13:18:28.000Z</time>
      </trkpt>
      <trkpt lat="44.63337" lon="5.19547">
        <ele>1370</ele>
        <time>2026-05-25T13:18:29.000Z</time>
      </trkpt>
      <trkpt lat="44.63337" lon="5.19547">
        <ele>1370</ele>
        <time>2026-05-25T13:18:30.000Z</time>
      </trkpt>
      <trkpt lat="44.63337" lon="5.19547">
        <ele>1370</ele>
        <time>2026-05-25T13:18:31.000Z</time>
      </trkpt>
      <trkpt lat="44.63337" lon="5.19547">
        <ele>1370</ele>
        <time>2026-05-25T13:18:32.000Z</time>
      </trkpt>
      <trkpt lat="44.63337" lon="5.19547">
        <ele>1370</ele>
        <time>2026-05-25T13:18:33.000Z</time>
      </trkpt>
      <trkpt lat="44.63337" lon="5.19545">
        <ele>1370</ele>
        <time>2026-05-25T13:18:34.000Z</time>
      </trkpt>
      <trkpt lat="44.63337" lon="5.19546">
        <ele>1370</ele>
        <time>2026-05-25T13:18:35.000Z</time>
      </trkpt>
      <trkpt lat="44.63337" lon="5.19546">
        <ele>1370</ele>
        <time>2026-05-25T13:18:36.000Z</time>
      </trkpt>
      <trkpt lat="44.63337" lon="5.19546">
        <ele>1370</ele>
        <time>2026-05-25T13:18:37.000Z</time>
      </trkpt>
      <trkpt lat="44.63337" lon="5.19546">
        <ele>1370</ele>
        <time>2026-05-25T13:18:38.000Z</time>
      </trkpt>
      <trkpt lat="44.63337" lon="5.19546">
        <ele>1370</ele>
        <time>2026-05-25T13:18:39.000Z</time>
      </trkpt>
      <trkpt lat="44.63336" lon="5.19546">
        <ele>1369</ele>
        <time>2026-05-25T13:18:40.000Z</time>
      </trkpt>
      <trkpt lat="44.63336" lon="5.19546">
        <ele>1369</ele>
        <time>2026-05-25T13:18:41.000Z</time>
      </trkpt>
      <trkpt lat="44.63336" lon="5.19546">
        <ele>1369</ele>
        <time>2026-05-25T13:18:42.000Z</time>
      </trkpt>
      <trkpt lat="44.63336" lon="5.19546">
        <ele>1369</ele>
        <time>2026-05-25T13:18:43.000Z</time>
      </trkpt>
      <trkpt lat="44.63336" lon="5.19546">
        <ele>1369</ele>
        <time>2026-05-25T13:18:44.000Z</time>
      </trkpt>
      <trkpt lat="44.63336" lon="5.19546">
        <ele>1369</ele>
        <time>2026-05-25T13:18:45.000Z</time>
      </trkpt>
      <trkpt lat="44.63336" lon="5.19546">
        <ele>1369</ele>
        <time>2026-05-25T13:18:46.000Z</time>
      </trkpt>
      <trkpt lat="44.63336" lon="5.19546">
        <ele>1369</ele>
        <time>2026-05-25T13:18:47.000Z</time>
      </trkpt>
      <trkpt lat="44.63336" lon="5.19546">
        <ele>1369</ele>
        <time>2026-05-25T13:18:48.000Z</time>
      </trkpt>
      <trkpt lat="44.63336" lon="5.19546">
        <ele>1370</ele>
        <time>2026-05-25T13:18:49.000Z</time>
      </trkpt>
      <trkpt lat="44.63336" lon="5.19546">
        <ele>1370</ele>
        <time>2026-05-25T13:18:50.000Z</time>
      </trkpt>
      <trkpt lat="44.63336" lon="5.19545">
        <ele>1370</ele>
        <time>2026-05-25T13:18:51.000Z</time>
      </trkpt>
      <trkpt lat="44.63336" lon="5.19546">
        <ele>1370</ele>
        <time>2026-05-25T13:18:52.000Z</time>
      </trkpt>
      <trkpt lat="44.63336" lon="5.19546">
        <ele>1370</ele>
        <time>2026-05-25T13:18:53.000Z</time>
      </trkpt>
      <trkpt lat="44.63336" lon="5.19546">
        <ele>1370</ele>
        <time>2026-05-25T13:18:54.000Z</time>
      </trkpt>
      <trkpt lat="44.63336" lon="5.19546">
        <ele>1371</ele>
        <time>2026-05-25T13:18:55.000Z</time>
      </trkpt>
      <trkpt lat="44.63337" lon="5.19546">
        <ele>1370</ele>
        <time>2026-05-25T13:18:56.000Z</time>
      </trkpt>
      <trkpt lat="44.63337" lon="5.19545">
        <ele>1371</ele>
        <time>2026-05-25T13:18:57.000Z</time>
      </trkpt>
      <trkpt lat="44.63337" lon="5.19545">
        <ele>1371</ele>
        <time>2026-05-25T13:18:58.000Z</time>
      </trkpt>
      <trkpt lat="44.63338" lon="5.19545">
        <ele>1371</ele>
        <time>2026-05-25T13:18:59.000Z</time>
      </trkpt>
      <trkpt lat="44.63338" lon="5.19546">
        <ele>1371</ele>
        <time>2026-05-25T13:19:00.000Z</time>
      </trkpt>
      <trkpt lat="44.63338" lon="5.19547">
        <ele>1371</ele>
        <time>2026-05-25T13:19:01.000Z</time>
      </trkpt>
      <trkpt lat="44.63338" lon="5.19547">
        <ele>1372</ele>
        <time>2026-05-25T13:19:02.000Z</time>
      </trkpt>
      <trkpt lat="44.63337" lon="5.19549">
        <ele>1372</ele>
        <time>2026-05-25T13:19:03.000Z</time>
      </trkpt>
      <trkpt lat="44.63337" lon="5.19549">
        <ele>1372</ele>
        <time>2026-05-25T13:19:04.000Z</time>
      </trkpt>
      <trkpt lat="44.63337" lon="5.19548">
        <ele>1372</ele>
        <time>2026-05-25T13:19:05.000Z</time>
      </trkpt>
      <trkpt lat="44.63337" lon="5.19547">
        <ele>1372</ele>
        <time>2026-05-25T13:19:06.000Z</time>
      </trkpt>
      <trkpt lat="44.63337" lon="5.19547">
        <ele>1371</ele>
        <time>2026-05-25T13:19:07.000Z</time>
      </trkpt>
      <trkpt lat="44.63337" lon="5.19548">
        <ele>1371</ele>
        <time>2026-05-25T13:19:08.000Z</time>
      </trkpt>
      <trkpt lat="44.63337" lon="5.19548">
        <ele>1371</ele>
        <time>2026-05-25T13:19:09.000Z</time>
      </trkpt>
      <trkpt lat="44.63337" lon="5.19547">
        <ele>1371</ele>
        <time>2026-05-25T13:19:10.000Z</time>
      </trkpt>
      <trkpt lat="44.63337" lon="5.19547">
        <ele>1371</ele>
        <time>2026-05-25T13:19:11.000Z</time>
      </trkpt>
      <trkpt lat="44.63337" lon="5.19547">
        <ele>1371</ele>
        <time>2026-05-25T13:19:12.000Z</time>
      </trkpt>
      <trkpt lat="44.63337" lon="5.19547">
        <ele>1371</ele>
        <time>2026-05-25T13:19:13.000Z</time>
      </trkpt>
      <trkpt lat="44.63337" lon="5.19547">
        <ele>1371</ele>
        <time>2026-05-25T13:19:14.000Z</time>
      </trkpt>
      <trkpt lat="44.63337" lon="5.19547">
        <ele>1371</ele>
        <time>2026-05-25T13:19:15.000Z</time>
      </trkpt>
      <trkpt lat="44.63337" lon="5.19547">
        <ele>1371</ele>
        <time>2026-05-25T13:19:16.000Z</time>
      </trkpt>
      <trkpt lat="44.63337" lon="5.19547">
        <ele>1371</ele>
        <time>2026-05-25T13:19:17.000Z</time>
      </trkpt>
      <trkpt lat="44.63337" lon="5.19547">
        <ele>1371</ele>
        <time>2026-05-25T13:19:18.000Z</time>
      </trkpt>
      <trkpt lat="44.63337" lon="5.19547">
        <ele>1371</ele>
        <time>2026-05-25T13:19:19.000Z</time>
      </trkpt>
      <trkpt lat="44.63337" lon="5.19547">
        <ele>1371</ele>
        <time>2026-05-25T13:19:20.000Z</time>
      </trkpt>
      <trkpt lat="44.63337" lon="5.19547">
        <ele>1371</ele>
        <time>2026-05-25T13:19:21.000Z</time>
      </trkpt>
      <trkpt lat="44.63337" lon="5.19547">
        <ele>1371</ele>
        <time>2026-05-25T13:19:22.000Z</time>
      </trkpt>
      <trkpt lat="44.63337" lon="5.19547">
        <ele>1371</ele>
        <time>2026-05-25T13:19:23.000Z</time>
      </trkpt>
      <trkpt lat="44.63337" lon="5.19547">
        <ele>1371</ele>
        <time>2026-05-25T13:19:24.000Z</time>
      </trkpt>
      <trkpt lat="44.63337" lon="5.19547">
        <ele>1371</ele>
        <time>2026-05-25T13:19:25.000Z</time>
      </trkpt>
      <trkpt lat="44.63337" lon="5.19547">
        <ele>1371</ele>
        <time>2026-05-25T13:19:26.000Z</time>
      </trkpt>
      <trkpt lat="44.63337" lon="5.19547">
        <ele>1371</ele>
        <time>2026-05-25T13:19:27.000Z</time>
      </trkpt>
      <trkpt lat="44.63337" lon="5.19547">
        <ele>1371</ele>
        <time>2026-05-25T13:19:28.000Z</time>
      </trkpt>
      <trkpt lat="44.63337" lon="5.19547">
        <ele>1371</ele>
        <time>2026-05-25T13:19:29.000Z</time>
      </trkpt>
      <trkpt lat="44.63337" lon="5.19547">
        <ele>1371</ele>
        <time>2026-05-25T13:19:30.000Z</time>
      </trkpt>
      <trkpt lat="44.63337" lon="5.19547">
        <ele>1371</ele>
        <time>2026-05-25T13:19:31.000Z</time>
      </trkpt>
      <trkpt lat="44.63337" lon="5.19547">
        <ele>1371</ele>
        <time>2026-05-25T13:19:32.000Z</time>
      </trkpt>
      <trkpt lat="44.63337" lon="5.19547">
        <ele>1371</ele>
        <time>2026-05-25T13:19:33.000Z</time>
      </trkpt>
      <trkpt lat="44.63337" lon="5.19547">
        <ele>1371</ele>
        <time>2026-05-25T13:19:34.000Z</time>
      </trkpt>
      <trkpt lat="44.63337" lon="5.19547">
        <ele>1371</ele>
        <time>2026-05-25T13:19:35.000Z</time>
      </trkpt>
      <trkpt lat="44.63337" lon="5.19547">
        <ele>1371</ele>
        <time>2026-05-25T13:19:36.000Z</time>
      </trkpt>
      <trkpt lat="44.63337" lon="5.19547">
        <ele>1371</ele>
        <time>2026-05-25T13:19:37.000Z</time>
      </trkpt>
      <trkpt lat="44.63337" lon="5.19547">
        <ele>1371</ele>
        <time>2026-05-25T13:19:38.000Z</time>
      </trkpt>
      <trkpt lat="44.63337" lon="5.19547">
        <ele>1371</ele>
        <time>2026-05-25T13:19:39.000Z</time>
      </trkpt>
      <trkpt lat="44.63337" lon="5.19547">
        <ele>1371</ele>
        <time>2026-05-25T13:19:40.000Z</time>
      </trkpt>
      <trkpt lat="44.63337" lon="5.19547">
        <ele>1371</ele>
        <time>2026-05-25T13:19:41.000Z</time>
      </trkpt>
      <trkpt lat="44.63337" lon="5.19547">
        <ele>1371</ele>
        <time>2026-05-25T13:19:42.000Z</time>
      </trkpt>
      <trkpt lat="44.63337" lon="5.19547">
        <ele>1371</ele>
        <time>2026-05-25T13:19:43.000Z</time>
      </trkpt>
      <trkpt lat="44.63337" lon="5.19547">
        <ele>1371</ele>
        <time>2026-05-25T13:19:44.000Z</time>
      </trkpt>
      <trkpt lat="44.63337" lon="5.19547">
        <ele>1371</ele>
        <time>2026-05-25T13:19:45.000Z</time>
      </trkpt>
      <trkpt lat="44.63337" lon="5.19547">
        <ele>1371</ele>
        <time>2026-05-25T13:19:46.000Z</time>
      </trkpt>
      <trkpt lat="44.63337" lon="5.19547">
        <ele>1371</ele>
        <time>2026-05-25T13:19:47.000Z</time>
      </trkpt>
      <trkpt lat="44.63337" lon="5.19547">
        <ele>1371</ele>
        <time>2026-05-25T13:19:48.000Z</time>
      </trkpt>
      <trkpt lat="44.63337" lon="5.19547">
        <ele>1371</ele>
        <time>2026-05-25T13:19:49.000Z</time>
      </trkpt>
      <trkpt lat="44.63337" lon="5.19547">
        <ele>1371</ele>
        <time>2026-05-25T13:19:50.000Z</time>
      </trkpt>
      <trkpt lat="44.63337" lon="5.19547">
        <ele>1371</ele>
        <time>2026-05-25T13:19:51.000Z</time>
      </trkpt>
      <trkpt lat="44.63337" lon="5.19547">
        <ele>1371</ele>
        <time>2026-05-25T13:19:52.000Z</time>
      </trkpt>
      <trkpt lat="44.63337" lon="5.19547">
        <ele>1371</ele>
        <time>2026-05-25T13:19:53.000Z</time>
      </trkpt>
      <trkpt lat="44.63338" lon="5.19546">
        <ele>1373</ele>
        <time>2026-05-25T13:19:54.000Z</time>
      </trkpt>
      <trkpt lat="44.63339" lon="5.19547">
        <ele>1373</ele>
        <time>2026-05-25T13:19:55.000Z</time>
      </trkpt>
      <trkpt lat="44.6334" lon="5.19546">
        <ele>1374</ele>
        <time>2026-05-25T13:19:56.000Z</time>
      </trkpt>
      <trkpt lat="44.6334" lon="5.19547">
        <ele>1375</ele>
        <time>2026-05-25T13:19:57.000Z</time>
      </trkpt>
      <trkpt lat="44.63341" lon="5.19548">
        <ele>1375</ele>
        <time>2026-05-25T13:19:58.000Z</time>
      </trkpt>
      <trkpt lat="44.63341" lon="5.19548">
        <ele>1375</ele>
        <time>2026-05-25T13:19:59.000Z</time>
      </trkpt>
      <trkpt lat="44.63341" lon="5.19549">
        <ele>1375</ele>
        <time>2026-05-25T13:20:00.000Z</time>
      </trkpt>
      <trkpt lat="44.63341" lon="5.19548">
        <ele>1375</ele>
        <time>2026-05-25T13:20:01.000Z</time>
      </trkpt>
      <trkpt lat="44.63342" lon="5.19549">
        <ele>1374</ele>
        <time>2026-05-25T13:20:02.000Z</time>
      </trkpt>
      <trkpt lat="44.63342" lon="5.19549">
        <ele>1374</ele>
        <time>2026-05-25T13:20:03.000Z</time>
      </trkpt>
      <trkpt lat="44.63342" lon="5.19549">
        <ele>1374</ele>
        <time>2026-05-25T13:20:04.000Z</time>
      </trkpt>
      <trkpt lat="44.63342" lon="5.19549">
        <ele>1374</ele>
        <time>2026-05-25T13:20:05.000Z</time>
      </trkpt>
      <trkpt lat="44.63342" lon="5.19549">
        <ele>1374</ele>
        <time>2026-05-25T13:20:06.000Z</time>
      </trkpt>
      <trkpt lat="44.63342" lon="5.19549">
        <ele>1374</ele>
        <time>2026-05-25T13:20:07.000Z</time>
      </trkpt>
      <trkpt lat="44.63342" lon="5.19549">
        <ele>1374</ele>
        <time>2026-05-25T13:20:08.000Z</time>
      </trkpt>
      <trkpt lat="44.63342" lon="5.19549">
        <ele>1374</ele>
        <time>2026-05-25T13:20:09.000Z</time>
      </trkpt>
      <trkpt lat="44.63342" lon="5.19549">
        <ele>1374</ele>
        <time>2026-05-25T13:20:10.000Z</time>
      </trkpt>
      <trkpt lat="44.63342" lon="5.19549">
        <ele>1374</ele>
        <time>2026-05-25T13:20:11.000Z</time>
      </trkpt>
      <trkpt lat="44.63342" lon="5.19549">
        <ele>1374</ele>
        <time>2026-05-25T13:20:12.000Z</time>
      </trkpt>
      <trkpt lat="44.63342" lon="5.19549">
        <ele>1374</ele>
        <time>2026-05-25T13:20:13.000Z</time>
      </trkpt>
      <trkpt lat="44.63342" lon="5.19549">
        <ele>1374</ele>
        <time>2026-05-25T13:20:14.000Z</time>
      </trkpt>
      <trkpt lat="44.63342" lon="5.19549">
        <ele>1374</ele>
        <time>2026-05-25T13:20:15.000Z</time>
      </trkpt>
      <trkpt lat="44.63342" lon="5.19549">
        <ele>1374</ele>
        <time>2026-05-25T13:20:16.000Z</time>
      </trkpt>
      <trkpt lat="44.63342" lon="5.19549">
        <ele>1374</ele>
        <time>2026-05-25T13:20:17.000Z</time>
      </trkpt>
      <trkpt lat="44.63342" lon="5.19549">
        <ele>1374</ele>
        <time>2026-05-25T13:20:18.000Z</time>
      </trkpt>
      <trkpt lat="44.63342" lon="5.19549">
        <ele>1374</ele>
        <time>2026-05-25T13:20:19.000Z</time>
      </trkpt>
      <trkpt lat="44.63342" lon="5.19549">
        <ele>1374</ele>
        <time>2026-05-25T13:20:20.000Z</time>
      </trkpt>
      <trkpt lat="44.63342" lon="5.19549">
        <ele>1374</ele>
        <time>2026-05-25T13:20:21.000Z</time>
      </trkpt>
      <trkpt lat="44.63342" lon="5.19549">
        <ele>1374</ele>
        <time>2026-05-25T13:20:22.000Z</time>
      </trkpt>
      <trkpt lat="44.63342" lon="5.19549">
        <ele>1374</ele>
        <time>2026-05-25T13:20:23.000Z</time>
      </trkpt>
      <trkpt lat="44.63342" lon="5.19549">
        <ele>1374</ele>
        <time>2026-05-25T13:20:24.000Z</time>
      </trkpt>
      <trkpt lat="44.63342" lon="5.19549">
        <ele>1374</ele>
        <time>2026-05-25T13:20:25.000Z</time>
      </trkpt>
      <trkpt lat="44.63342" lon="5.19549">
        <ele>1374</ele>
        <time>2026-05-25T13:20:26.000Z</time>
      </trkpt>
      <trkpt lat="44.63342" lon="5.19549">
        <ele>1374</ele>
        <time>2026-05-25T13:20:27.000Z</time>
      </trkpt>
      <trkpt lat="44.63342" lon="5.19549">
        <ele>1374</ele>
        <time>2026-05-25T13:20:28.000Z</time>
      </trkpt>
      <trkpt lat="44.63342" lon="5.19549">
        <ele>1374</ele>
        <time>2026-05-25T13:20:29.000Z</time>
      </trkpt>
      <trkpt lat="44.63342" lon="5.19549">
        <ele>1374</ele>
        <time>2026-05-25T13:20:30.000Z</time>
      </trkpt>
      <trkpt lat="44.63342" lon="5.19549">
        <ele>1374</ele>
        <time>2026-05-25T13:20:31.000Z</time>
      </trkpt>
      <trkpt lat="44.63342" lon="5.19549">
        <ele>1374</ele>
        <time>2026-05-25T13:20:32.000Z</time>
      </trkpt>
      <trkpt lat="44.63342" lon="5.19549">
        <ele>1374</ele>
        <time>2026-05-25T13:20:33.000Z</time>
      </trkpt>
      <trkpt lat="44.63342" lon="5.19549">
        <ele>1374</ele>
        <time>2026-05-25T13:20:34.000Z</time>
      </trkpt>
      <trkpt lat="44.63342" lon="5.19549">
        <ele>1374</ele>
        <time>2026-05-25T13:20:35.000Z</time>
      </trkpt>
      <trkpt lat="44.63342" lon="5.19549">
        <ele>1374</ele>
        <time>2026-05-25T13:20:36.000Z</time>
      </trkpt>
      <trkpt lat="44.63342" lon="5.19549">
        <ele>1374</ele>
        <time>2026-05-25T13:20:37.000Z</time>
      </trkpt>
      <trkpt lat="44.63342" lon="5.19549">
        <ele>1374</ele>
        <time>2026-05-25T13:20:38.000Z</time>
      </trkpt>
      <trkpt lat="44.63342" lon="5.19549">
        <ele>1374</ele>
        <time>2026-05-25T13:20:39.000Z</time>
      </trkpt>
      <trkpt lat="44.63342" lon="5.19549">
        <ele>1374</ele>
        <time>2026-05-25T13:20:40.000Z</time>
      </trkpt>
      <trkpt lat="44.63342" lon="5.19549">
        <ele>1374</ele>
        <time>2026-05-25T13:20:41.000Z</time>
      </trkpt>
      <trkpt lat="44.63342" lon="5.19549">
        <ele>1374</ele>
        <time>2026-05-25T13:20:42.000Z</time>
      </trkpt>
      <trkpt lat="44.63342" lon="5.19549">
        <ele>1374</ele>
        <time>2026-05-25T13:20:43.000Z</time>
      </trkpt>
      <trkpt lat="44.63342" lon="5.19549">
        <ele>1374</ele>
        <time>2026-05-25T13:20:44.000Z</time>
      </trkpt>
      <trkpt lat="44.63342" lon="5.19549">
        <ele>1374</ele>
        <time>2026-05-25T13:20:45.000Z</time>
      </trkpt>
      <trkpt lat="44.63342" lon="5.19549">
        <ele>1374</ele>
        <time>2026-05-25T13:20:46.000Z</time>
      </trkpt>
      <trkpt lat="44.63342" lon="5.19549">
        <ele>1374</ele>
        <time>2026-05-25T13:20:47.000Z</time>
      </trkpt>
      <trkpt lat="44.63342" lon="5.19549">
        <ele>1374</ele>
        <time>2026-05-25T13:20:48.000Z</time>
      </trkpt>
      <trkpt lat="44.63342" lon="5.19549">
        <ele>1374</ele>
        <time>2026-05-25T13:20:49.000Z</time>
      </trkpt>
      <trkpt lat="44.63342" lon="5.19549">
        <ele>1374</ele>
        <time>2026-05-25T13:20:50.000Z</time>
      </trkpt>
      <trkpt lat="44.63342" lon="5.19549">
        <ele>1374</ele>
        <time>2026-05-25T13:20:51.000Z</time>
      </trkpt>
      <trkpt lat="44.63342" lon="5.19549">
        <ele>1374</ele>
        <time>2026-05-25T13:20:52.000Z</time>
      </trkpt>
      <trkpt lat="44.63342" lon="5.19549">
        <ele>1374</ele>
        <time>2026-05-25T13:20:53.000Z</time>
      </trkpt>
      <trkpt lat="44.63342" lon="5.19549">
        <ele>1374</ele>
        <time>2026-05-25T13:20:54.000Z</time>
      </trkpt>
      <trkpt lat="44.63342" lon="5.19549">
        <ele>1374</ele>
        <time>2026-05-25T13:20:55.000Z</time>
      </trkpt>
      <trkpt lat="44.63342" lon="5.19549">
        <ele>1374</ele>
        <time>2026-05-25T13:20:56.000Z</time>
      </trkpt>
      <trkpt lat="44.63342" lon="5.19549">
        <ele>1374</ele>
        <time>2026-05-25T13:20:57.000Z</time>
      </trkpt>
      <trkpt lat="44.63342" lon="5.19549">
        <ele>1374</ele>
        <time>2026-05-25T13:20:58.000Z</time>
      </trkpt>
      <trkpt lat="44.63342" lon="5.19549">
        <ele>1374</ele>
        <time>2026-05-25T13:20:59.000Z</time>
      </trkpt>
      <trkpt lat="44.63342" lon="5.19549">
        <ele>1374</ele>
        <time>2026-05-25T13:21:00.000Z</time>
      </trkpt>
      <trkpt lat="44.63342" lon="5.19549">
        <ele>1374</ele>
        <time>2026-05-25T13:21:01.000Z</time>
      </trkpt>
      <trkpt lat="44.63342" lon="5.19549">
        <ele>1374</ele>
        <time>2026-05-25T13:21:02.000Z</time>
      </trkpt>
      <trkpt lat="44.63342" lon="5.19549">
        <ele>1374</ele>
        <time>2026-05-25T13:21:03.000Z</time>
      </trkpt>
      <trkpt lat="44.63342" lon="5.19549">
        <ele>1374</ele>
        <time>2026-05-25T13:21:04.000Z</time>
      </trkpt>
      <trkpt lat="44.63342" lon="5.19549">
        <ele>1374</ele>
        <time>2026-05-25T13:21:05.000Z</time>
      </trkpt>
      <trkpt lat="44.63342" lon="5.19549">
        <ele>1374</ele>
        <time>2026-05-25T13:21:06.000Z</time>
      </trkpt>
      <trkpt lat="44.63342" lon="5.19549">
        <ele>1374</ele>
        <time>2026-05-25T13:21:07.000Z</time>
      </trkpt>
      <trkpt lat="44.63342" lon="5.19549">
        <ele>1374</ele>
        <time>2026-05-25T13:21:08.000Z</time>
      </trkpt>
      <trkpt lat="44.63342" lon="5.19549">
        <ele>1374</ele>
        <time>2026-05-25T13:21:09.000Z</time>
      </trkpt>
      <trkpt lat="44.63342" lon="5.19549">
        <ele>1374</ele>
        <time>2026-05-25T13:21:10.000Z</time>
      </trkpt>
      <trkpt lat="44.63342" lon="5.19549">
        <ele>1374</ele>
        <time>2026-05-25T13:21:11.000Z</time>
      </trkpt>
      <trkpt lat="44.63342" lon="5.19549">
        <ele>1374</ele>
        <time>2026-05-25T13:21:12.000Z</time>
      </trkpt>
      <trkpt lat="44.63342" lon="5.19549">
        <ele>1374</ele>
        <time>2026-05-25T13:21:13.000Z</time>
      </trkpt>
      <trkpt lat="44.63341" lon="5.19547">
        <ele>1373</ele>
        <time>2026-05-25T13:21:14.000Z</time>
      </trkpt>
      <trkpt lat="44.63341" lon="5.19547">
        <ele>1373</ele>
        <time>2026-05-25T13:21:15.000Z</time>
      </trkpt>
      <trkpt lat="44.63341" lon="5.19547">
        <ele>1372</ele>
        <time>2026-05-25T13:21:16.000Z</time>
      </trkpt>
      <trkpt lat="44.63341" lon="5.19547">
        <ele>1372</ele>
        <time>2026-05-25T13:21:17.000Z</time>
      </trkpt>
      <trkpt lat="44.63341" lon="5.19547">
        <ele>1372</ele>
        <time>2026-05-25T13:21:18.000Z</time>
      </trkpt>
      <trkpt lat="44.63341" lon="5.19547">
        <ele>1372</ele>
        <time>2026-05-25T13:21:19.000Z</time>
      </trkpt>
      <trkpt lat="44.63341" lon="5.19547">
        <ele>1372</ele>
        <time>2026-05-25T13:21:20.000Z</time>
      </trkpt>
      <trkpt lat="44.63341" lon="5.19547">
        <ele>1372</ele>
        <time>2026-05-25T13:21:21.000Z</time>
      </trkpt>
      <trkpt lat="44.63341" lon="5.19547">
        <ele>1372</ele>
        <time>2026-05-25T13:21:22.000Z</time>
      </trkpt>
      <trkpt lat="44.63341" lon="5.19547">
        <ele>1372</ele>
        <time>2026-05-25T13:21:23.000Z</time>
      </trkpt>
      <trkpt lat="44.63341" lon="5.19547">
        <ele>1372</ele>
        <time>2026-05-25T13:21:24.000Z</time>
      </trkpt>
      <trkpt lat="44.63341" lon="5.19547">
        <ele>1372</ele>
        <time>2026-05-25T13:21:25.000Z</time>
      </trkpt>
      <trkpt lat="44.63341" lon="5.19547">
        <ele>1372</ele>
        <time>2026-05-25T13:21:26.000Z</time>
      </trkpt>
      <trkpt lat="44.63341" lon="5.19547">
        <ele>1372</ele>
        <time>2026-05-25T13:21:27.000Z</time>
      </trkpt>
      <trkpt lat="44.63341" lon="5.19547">
        <ele>1372</ele>
        <time>2026-05-25T13:21:28.000Z</time>
      </trkpt>
      <trkpt lat="44.63341" lon="5.19547">
        <ele>1372</ele>
        <time>2026-05-25T13:21:29.000Z</time>
      </trkpt>
      <trkpt lat="44.63341" lon="5.19547">
        <ele>1372</ele>
        <time>2026-05-25T13:21:30.000Z</time>
      </trkpt>
      <trkpt lat="44.63341" lon="5.19547">
        <ele>1372</ele>
        <time>2026-05-25T13:21:31.000Z</time>
      </trkpt>
      <trkpt lat="44.63341" lon="5.19547">
        <ele>1372</ele>
        <time>2026-05-25T13:21:32.000Z</time>
      </trkpt>
      <trkpt lat="44.63341" lon="5.19547">
        <ele>1372</ele>
        <time>2026-05-25T13:21:33.000Z</time>
      </trkpt>
      <trkpt lat="44.63341" lon="5.19547">
        <ele>1372</ele>
        <time>2026-05-25T13:21:34.000Z</time>
      </trkpt>
      <trkpt lat="44.63341" lon="5.19547">
        <ele>1372</ele>
        <time>2026-05-25T13:21:35.000Z</time>
      </trkpt>
      <trkpt lat="44.63341" lon="5.19547">
        <ele>1372</ele>
        <time>2026-05-25T13:21:36.000Z</time>
      </trkpt>
      <trkpt lat="44.63341" lon="5.19547">
        <ele>1372</ele>
        <time>2026-05-25T13:21:37.000Z</time>
      </trkpt>
      <trkpt lat="44.63341" lon="5.19547">
        <ele>1372</ele>
        <time>2026-05-25T13:21:38.000Z</time>
      </trkpt>
      <trkpt lat="44.63341" lon="5.19547">
        <ele>1372</ele>
        <time>2026-05-25T13:21:39.000Z</time>
      </trkpt>
      <trkpt lat="44.63341" lon="5.19547">
        <ele>1372</ele>
        <time>2026-05-25T13:21:40.000Z</time>
      </trkpt>
      <trkpt lat="44.63341" lon="5.19547">
        <ele>1372</ele>
        <time>2026-05-25T13:21:41.000Z</time>
      </trkpt>
      <trkpt lat="44.63341" lon="5.19547">
        <ele>1372</ele>
        <time>2026-05-25T13:21:42.000Z</time>
      </trkpt>
      <trkpt lat="44.63341" lon="5.19547">
        <ele>1372</ele>
        <time>2026-05-25T13:21:43.000Z</time>
      </trkpt>
      <trkpt lat="44.63341" lon="5.19547">
        <ele>1372</ele>
        <time>2026-05-25T13:21:44.000Z</time>
      </trkpt>
      <trkpt lat="44.63341" lon="5.19547">
        <ele>1372</ele>
        <time>2026-05-25T13:21:45.000Z</time>
      </trkpt>
      <trkpt lat="44.63341" lon="5.19547">
        <ele>1372</ele>
        <time>2026-05-25T13:21:46.000Z</time>
      </trkpt>
      <trkpt lat="44.63341" lon="5.19547">
        <ele>1372</ele>
        <time>2026-05-25T13:21:47.000Z</time>
      </trkpt>
      <trkpt lat="44.63341" lon="5.19547">
        <ele>1372</ele>
        <time>2026-05-25T13:21:48.000Z</time>
      </trkpt>
      <trkpt lat="44.63341" lon="5.19547">
        <ele>1372</ele>
        <time>2026-05-25T13:21:49.000Z</time>
      </trkpt>
      <trkpt lat="44.63341" lon="5.19547">
        <ele>1372</ele>
        <time>2026-05-25T13:21:50.000Z</time>
      </trkpt>
      <trkpt lat="44.63341" lon="5.19547">
        <ele>1372</ele>
        <time>2026-05-25T13:21:51.000Z</time>
      </trkpt>
      <trkpt lat="44.63341" lon="5.19547">
        <ele>1372</ele>
        <time>2026-05-25T13:21:52.000Z</time>
      </trkpt>
      <trkpt lat="44.63341" lon="5.19547">
        <ele>1372</ele>
        <time>2026-05-25T13:21:53.000Z</time>
      </trkpt>
      <trkpt lat="44.63341" lon="5.19547">
        <ele>1372</ele>
        <time>2026-05-25T13:21:54.000Z</time>
      </trkpt>
      <trkpt lat="44.63341" lon="5.19547">
        <ele>1372</ele>
        <time>2026-05-25T13:21:55.000Z</time>
      </trkpt>
      <trkpt lat="44.63341" lon="5.19547">
        <ele>1372</ele>
        <time>2026-05-25T13:21:56.000Z</time>
      </trkpt>
      <trkpt lat="44.63341" lon="5.19547">
        <ele>1372</ele>
        <time>2026-05-25T13:21:57.000Z</time>
      </trkpt>
      <trkpt lat="44.63341" lon="5.19547">
        <ele>1372</ele>
        <time>2026-05-25T13:21:58.000Z</time>
      </trkpt>
      <trkpt lat="44.63341" lon="5.19547">
        <ele>1372</ele>
        <time>2026-05-25T13:21:59.000Z</time>
      </trkpt>
      <trkpt lat="44.63341" lon="5.19547">
        <ele>1372</ele>
        <time>2026-05-25T13:22:00.000Z</time>
      </trkpt>
      <trkpt lat="44.63341" lon="5.19547">
        <ele>1372</ele>
        <time>2026-05-25T13:22:01.000Z</time>
      </trkpt>
      <trkpt lat="44.63341" lon="5.19547">
        <ele>1372</ele>
        <time>2026-05-25T13:22:02.000Z</time>
      </trkpt>
      <trkpt lat="44.63341" lon="5.19547">
        <ele>1372</ele>
        <time>2026-05-25T13:22:03.000Z</time>
      </trkpt>
      <trkpt lat="44.63341" lon="5.19547">
        <ele>1372</ele>
        <time>2026-05-25T13:22:04.000Z</time>
      </trkpt>
      <trkpt lat="44.63341" lon="5.19547">
        <ele>1372</ele>
        <time>2026-05-25T13:22:05.000Z</time>
      </trkpt>
      <trkpt lat="44.63341" lon="5.19547">
        <ele>1372</ele>
        <time>2026-05-25T13:22:06.000Z</time>
      </trkpt>
      <trkpt lat="44.63341" lon="5.19547">
        <ele>1372</ele>
        <time>2026-05-25T13:22:07.000Z</time>
      </trkpt>
      <trkpt lat="44.63341" lon="5.19547">
        <ele>1372</ele>
        <time>2026-05-25T13:22:08.000Z</time>
      </trkpt>
      <trkpt lat="44.63341" lon="5.19547">
        <ele>1372</ele>
        <time>2026-05-25T13:22:09.000Z</time>
      </trkpt>
      <trkpt lat="44.63341" lon="5.19547">
        <ele>1372</ele>
        <time>2026-05-25T13:22:10.000Z</time>
      </trkpt>
      <trkpt lat="44.63341" lon="5.19547">
        <ele>1372</ele>
        <time>2026-05-25T13:22:11.000Z</time>
      </trkpt>
      <trkpt lat="44.63341" lon="5.19547">
        <ele>1372</ele>
        <time>2026-05-25T13:22:12.000Z</time>
      </trkpt>
      <trkpt lat="44.63341" lon="5.19547">
        <ele>1372</ele>
        <time>2026-05-25T13:22:13.000Z</time>
      </trkpt>
      <trkpt lat="44.63341" lon="5.19547">
        <ele>1372</ele>
        <time>2026-05-25T13:22:14.000Z</time>
      </trkpt>
      <trkpt lat="44.63341" lon="5.19547">
        <ele>1372</ele>
        <time>2026-05-25T13:22:15.000Z</time>
      </trkpt>
      <trkpt lat="44.63341" lon="5.19547">
        <ele>1372</ele>
        <time>2026-05-25T13:22:16.000Z</time>
      </trkpt>
      <trkpt lat="44.63341" lon="5.19547">
        <ele>1372</ele>
        <time>2026-05-25T13:22:17.000Z</time>
      </trkpt>
      <trkpt lat="44.63341" lon="5.19547">
        <ele>1372</ele>
        <time>2026-05-25T13:22:18.000Z</time>
      </trkpt>
      <trkpt lat="44.63341" lon="5.19547">
        <ele>1372</ele>
        <time>2026-05-25T13:22:19.000Z</time>
      </trkpt>
      <trkpt lat="44.63341" lon="5.19547">
        <ele>1372</ele>
        <time>2026-05-25T13:22:20.000Z</time>
      </trkpt>
      <trkpt lat="44.63341" lon="5.19547">
        <ele>1372</ele>
        <time>2026-05-25T13:22:21.000Z</time>
      </trkpt>
      <trkpt lat="44.63341" lon="5.19547">
        <ele>1372</ele>
        <time>2026-05-25T13:22:22.000Z</time>
      </trkpt>
      <trkpt lat="44.63341" lon="5.19547">
        <ele>1372</ele>
        <time>2026-05-25T13:22:23.000Z</time>
      </trkpt>
      <trkpt lat="44.63341" lon="5.19547">
        <ele>1372</ele>
        <time>2026-05-25T13:22:24.000Z</time>
      </trkpt>
      <trkpt lat="44.63341" lon="5.19547">
        <ele>1372</ele>
        <time>2026-05-25T13:22:25.000Z</time>
      </trkpt>
      <trkpt lat="44.63341" lon="5.19547">
        <ele>1372</ele>
        <time>2026-05-25T13:22:26.000Z</time>
      </trkpt>
      <trkpt lat="44.63341" lon="5.19547">
        <ele>1372</ele>
        <time>2026-05-25T13:22:27.000Z</time>
      </trkpt>
      <trkpt lat="44.63341" lon="5.19547">
        <ele>1372</ele>
        <time>2026-05-25T13:22:28.000Z</time>
      </trkpt>
      <trkpt lat="44.63341" lon="5.19547">
        <ele>1372</ele>
        <time>2026-05-25T13:22:29.000Z</time>
      </trkpt>
      <trkpt lat="44.63341" lon="5.19547">
        <ele>1372</ele>
        <time>2026-05-25T13:22:30.000Z</time>
      </trkpt>
      <trkpt lat="44.63341" lon="5.19547">
        <ele>1372</ele>
        <time>2026-05-25T13:22:31.000Z</time>
      </trkpt>
      <trkpt lat="44.63341" lon="5.19547">
        <ele>1372</ele>
        <time>2026-05-25T13:22:32.000Z</time>
      </trkpt>
      <trkpt lat="44.63341" lon="5.19547">
        <ele>1372</ele>
        <time>2026-05-25T13:22:33.000Z</time>
      </trkpt>
      <trkpt lat="44.63341" lon="5.19547">
        <ele>1372</ele>
        <time>2026-05-25T13:22:34.000Z</time>
      </trkpt>
      <trkpt lat="44.63341" lon="5.19547">
        <ele>1372</ele>
        <time>2026-05-25T13:22:35.000Z</time>
      </trkpt>
      <trkpt lat="44.63341" lon="5.19547">
        <ele>1372</ele>
        <time>2026-05-25T13:22:36.000Z</time>
      </trkpt>
      <trkpt lat="44.63341" lon="5.19547">
        <ele>1372</ele>
        <time>2026-05-25T13:22:37.000Z</time>
      </trkpt>
      <trkpt lat="44.63341" lon="5.19547">
        <ele>1372</ele>
        <time>2026-05-25T13:22:38.000Z</time>
      </trkpt>
      <trkpt lat="44.63341" lon="5.19547">
        <ele>1372</ele>
        <time>2026-05-25T13:22:39.000Z</time>
      </trkpt>
      <trkpt lat="44.63341" lon="5.19547">
        <ele>1372</ele>
        <time>2026-05-25T13:22:40.000Z</time>
      </trkpt>
      <trkpt lat="44.63341" lon="5.19547">
        <ele>1372</ele>
        <time>2026-05-25T13:22:41.000Z</time>
      </trkpt>
      <trkpt lat="44.63341" lon="5.19547">
        <ele>1372</ele>
        <time>2026-05-25T13:22:42.000Z</time>
      </trkpt>
      <trkpt lat="44.63341" lon="5.19547">
        <ele>1372</ele>
        <time>2026-05-25T13:22:43.000Z</time>
      </trkpt>
      <trkpt lat="44.63341" lon="5.19547">
        <ele>1372</ele>
        <time>2026-05-25T13:22:44.000Z</time>
      </trkpt>
      <trkpt lat="44.63341" lon="5.19547">
        <ele>1372</ele>
        <time>2026-05-25T13:22:45.000Z</time>
      </trkpt>
      <trkpt lat="44.63341" lon="5.19547">
        <ele>1372</ele>
        <time>2026-05-25T13:22:46.000Z</time>
      </trkpt>
      <trkpt lat="44.63341" lon="5.19547">
        <ele>1372</ele>
        <time>2026-05-25T13:22:47.000Z</time>
      </trkpt>
      <trkpt lat="44.63341" lon="5.19547">
        <ele>1372</ele>
        <time>2026-05-25T13:22:48.000Z</time>
      </trkpt>
      <trkpt lat="44.63341" lon="5.19547">
        <ele>1372</ele>
        <time>2026-05-25T13:22:49.000Z</time>
      </trkpt>
      <trkpt lat="44.63341" lon="5.19547">
        <ele>1372</ele>
        <time>2026-05-25T13:22:50.000Z</time>
      </trkpt>
      <trkpt lat="44.63341" lon="5.19547">
        <ele>1372</ele>
        <time>2026-05-25T13:22:51.000Z</time>
      </trkpt>
      <trkpt lat="44.63341" lon="5.19547">
        <ele>1372</ele>
        <time>2026-05-25T13:22:52.000Z</time>
      </trkpt>
      <trkpt lat="44.63341" lon="5.19547">
        <ele>1372</ele>
        <time>2026-05-25T13:22:53.000Z</time>
      </trkpt>
      <trkpt lat="44.63341" lon="5.19547">
        <ele>1372</ele>
        <time>2026-05-25T13:22:54.000Z</time>
      </trkpt>
      <trkpt lat="44.63341" lon="5.19547">
        <ele>1372</ele>
        <time>2026-05-25T13:22:55.000Z</time>
      </trkpt>
      <trkpt lat="44.63341" lon="5.19547">
        <ele>1372</ele>
        <time>2026-05-25T13:22:56.000Z</time>
      </trkpt>
      <trkpt lat="44.63341" lon="5.19547">
        <ele>1372</ele>
        <time>2026-05-25T13:22:57.000Z</time>
      </trkpt>
      <trkpt lat="44.63341" lon="5.19547">
        <ele>1372</ele>
        <time>2026-05-25T13:22:58.000Z</time>
      </trkpt>
      <trkpt lat="44.63341" lon="5.19547">
        <ele>1372</ele>
        <time>2026-05-25T13:22:59.000Z</time>
      </trkpt>
      <trkpt lat="44.63341" lon="5.19547">
        <ele>1372</ele>
        <time>2026-05-25T13:23:00.000Z</time>
      </trkpt>
      <trkpt lat="44.63341" lon="5.19547">
        <ele>1372</ele>
        <time>2026-05-25T13:23:01.000Z</time>
      </trkpt>
      <trkpt lat="44.63341" lon="5.19547">
        <ele>1372</ele>
        <time>2026-05-25T13:23:02.000Z</time>
      </trkpt>
      <trkpt lat="44.63341" lon="5.19547">
        <ele>1372</ele>
        <time>2026-05-25T13:23:03.000Z</time>
      </trkpt>
      <trkpt lat="44.63341" lon="5.19547">
        <ele>1372</ele>
        <time>2026-05-25T13:23:04.000Z</time>
      </trkpt>
      <trkpt lat="44.63341" lon="5.19547">
        <ele>1372</ele>
        <time>2026-05-25T13:23:05.000Z</time>
      </trkpt>
      <trkpt lat="44.63341" lon="5.19547">
        <ele>1372</ele>
        <time>2026-05-25T13:23:06.000Z</time>
      </trkpt>
      <trkpt lat="44.63341" lon="5.19547">
        <ele>1372</ele>
        <time>2026-05-25T13:23:07.000Z</time>
      </trkpt>
      <trkpt lat="44.63341" lon="5.19547">
        <ele>1372</ele>
        <time>2026-05-25T13:23:08.000Z</time>
      </trkpt>
      <trkpt lat="44.63341" lon="5.19547">
        <ele>1372</ele>
        <time>2026-05-25T13:23:09.000Z</time>
      </trkpt>
      <trkpt lat="44.63341" lon="5.19547">
        <ele>1372</ele>
        <time>2026-05-25T13:23:10.000Z</time>
      </trkpt>
      <trkpt lat="44.63341" lon="5.19547">
        <ele>1372</ele>
        <time>2026-05-25T13:23:11.000Z</time>
      </trkpt>
      <trkpt lat="44.63341" lon="5.19547">
        <ele>1372</ele>
        <time>2026-05-25T13:23:12.000Z</time>
      </trkpt>
      <trkpt lat="44.63341" lon="5.19547">
        <ele>1372</ele>
        <time>2026-05-25T13:23:13.000Z</time>
      </trkpt>
      <trkpt lat="44.63341" lon="5.19547">
        <ele>1372</ele>
        <time>2026-05-25T13:23:14.000Z</time>
      </trkpt>
      <trkpt lat="44.63341" lon="5.19547">
        <ele>1372</ele>
        <time>2026-05-25T13:23:15.000Z</time>
      </trkpt>
      <trkpt lat="44.63341" lon="5.19547">
        <ele>1372</ele>
        <time>2026-05-25T13:23:16.000Z</time>
      </trkpt>
      <trkpt lat="44.63341" lon="5.19547">
        <ele>1372</ele>
        <time>2026-05-25T13:23:17.000Z</time>
      </trkpt>
      <trkpt lat="44.63341" lon="5.19547">
        <ele>1372</ele>
        <time>2026-05-25T13:23:18.000Z</time>
      </trkpt>
      <trkpt lat="44.63341" lon="5.19547">
        <ele>1372</ele>
        <time>2026-05-25T13:23:19.000Z</time>
      </trkpt>
      <trkpt lat="44.63341" lon="5.19547">
        <ele>1372</ele>
        <time>2026-05-25T13:23:20.000Z</time>
      </trkpt>
      <trkpt lat="44.63341" lon="5.19547">
        <ele>1372</ele>
        <time>2026-05-25T13:23:21.000Z</time>
      </trkpt>
      <trkpt lat="44.63341" lon="5.19547">
        <ele>1372</ele>
        <time>2026-05-25T13:23:22.000Z</time>
      </trkpt>
      <trkpt lat="44.63341" lon="5.19547">
        <ele>1372</ele>
        <time>2026-05-25T13:23:23.000Z</time>
      </trkpt>
      <trkpt lat="44.63341" lon="5.19547">
        <ele>1372</ele>
        <time>2026-05-25T13:23:24.000Z</time>
      </trkpt>
      <trkpt lat="44.63341" lon="5.19547">
        <ele>1372</ele>
        <time>2026-05-25T13:23:25.000Z</time>
      </trkpt>
      <trkpt lat="44.63341" lon="5.19547">
        <ele>1372</ele>
        <time>2026-05-25T13:23:26.000Z</time>
      </trkpt>
      <trkpt lat="44.63341" lon="5.19547">
        <ele>1372</ele>
        <time>2026-05-25T13:23:27.000Z</time>
      </trkpt>
      <trkpt lat="44.63341" lon="5.19547">
        <ele>1372</ele>
        <time>2026-05-25T13:23:28.000Z</time>
      </trkpt>
      <trkpt lat="44.63341" lon="5.19547">
        <ele>1372</ele>
        <time>2026-05-25T13:23:29.000Z</time>
      </trkpt>
      <trkpt lat="44.63341" lon="5.19547">
        <ele>1372</ele>
        <time>2026-05-25T13:23:30.000Z</time>
      </trkpt>
      <trkpt lat="44.63341" lon="5.19547">
        <ele>1372</ele>
        <time>2026-05-25T13:23:31.000Z</time>
      </trkpt>
      <trkpt lat="44.63341" lon="5.19547">
        <ele>1372</ele>
        <time>2026-05-25T13:23:32.000Z</time>
      </trkpt>
      <trkpt lat="44.63341" lon="5.19547">
        <ele>1372</ele>
        <time>2026-05-25T13:23:33.000Z</time>
      </trkpt>
      <trkpt lat="44.63341" lon="5.19547">
        <ele>1372</ele>
        <time>2026-05-25T13:23:34.000Z</time>
      </trkpt>
      <trkpt lat="44.63341" lon="5.19547">
        <ele>1372</ele>
        <time>2026-05-25T13:23:35.000Z</time>
      </trkpt>
      <trkpt lat="44.63341" lon="5.19547">
        <ele>1372</ele>
        <time>2026-05-25T13:23:36.000Z</time>
      </trkpt>
      <trkpt lat="44.63341" lon="5.19547">
        <ele>1372</ele>
        <time>2026-05-25T13:23:37.000Z</time>
      </trkpt>
      <trkpt lat="44.63341" lon="5.19547">
        <ele>1372</ele>
        <time>2026-05-25T13:23:38.000Z</time>
      </trkpt>
      <trkpt lat="44.63341" lon="5.19547">
        <ele>1372</ele>
        <time>2026-05-25T13:23:39.000Z</time>
      </trkpt>
      <trkpt lat="44.63341" lon="5.19547">
        <ele>1372</ele>
        <time>2026-05-25T13:23:40.000Z</time>
      </trkpt>
      <trkpt lat="44.63341" lon="5.19547">
        <ele>1372</ele>
        <time>2026-05-25T13:23:41.000Z</time>
      </trkpt>
      <trkpt lat="44.63341" lon="5.19547">
        <ele>1372</ele>
        <time>2026-05-25T13:23:42.000Z</time>
      </trkpt>
      <trkpt lat="44.63341" lon="5.19547">
        <ele>1372</ele>
        <time>2026-05-25T13:23:43.000Z</time>
      </trkpt>
      <trkpt lat="44.63341" lon="5.19547">
        <ele>1372</ele>
        <time>2026-05-25T13:23:44.000Z</time>
      </trkpt>
      <trkpt lat="44.63341" lon="5.19547">
        <ele>1372</ele>
        <time>2026-05-25T13:23:45.000Z</time>
      </trkpt>
      <trkpt lat="44.63341" lon="5.19547">
        <ele>1372</ele>
        <time>2026-05-25T13:23:46.000Z</time>
      </trkpt>
      <trkpt lat="44.63341" lon="5.19547">
        <ele>1372</ele>
        <time>2026-05-25T13:23:47.000Z</time>
      </trkpt>
      <trkpt lat="44.63341" lon="5.19547">
        <ele>1372</ele>
        <time>2026-05-25T13:23:48.000Z</time>
      </trkpt>
      <trkpt lat="44.63341" lon="5.19547">
        <ele>1372</ele>
        <time>2026-05-25T13:23:49.000Z</time>
      </trkpt>
      <trkpt lat="44.63341" lon="5.19547">
        <ele>1372</ele>
        <time>2026-05-25T13:23:50.000Z</time>
      </trkpt>
      <trkpt lat="44.63341" lon="5.19547">
        <ele>1372</ele>
        <time>2026-05-25T13:23:51.000Z</time>
      </trkpt>
      <trkpt lat="44.63341" lon="5.19547">
        <ele>1372</ele>
        <time>2026-05-25T13:23:52.000Z</time>
      </trkpt>
      <trkpt lat="44.63341" lon="5.19547">
        <ele>1372</ele>
        <time>2026-05-25T13:23:53.000Z</time>
      </trkpt>
      <trkpt lat="44.63341" lon="5.19547">
        <ele>1372</ele>
        <time>2026-05-25T13:23:54.000Z</time>
      </trkpt>
      <trkpt lat="44.63341" lon="5.19547">
        <ele>1372</ele>
        <time>2026-05-25T13:23:55.000Z</time>
      </trkpt>
      <trkpt lat="44.63341" lon="5.19547">
        <ele>1372</ele>
        <time>2026-05-25T13:23:56.000Z</time>
      </trkpt>
      <trkpt lat="44.63341" lon="5.19547">
        <ele>1372</ele>
        <time>2026-05-25T13:23:57.000Z</time>
      </trkpt>
      <trkpt lat="44.63341" lon="5.19547">
        <ele>1372</ele>
        <time>2026-05-25T13:23:58.000Z</time>
      </trkpt>
      <trkpt lat="44.63341" lon="5.19547">
        <ele>1372</ele>
        <time>2026-05-25T13:23:59.000Z</time>
      </trkpt>
      <trkpt lat="44.63341" lon="5.19547">
        <ele>1372</ele>
        <time>2026-05-25T13:24:00.000Z</time>
      </trkpt>
      <trkpt lat="44.63341" lon="5.19547">
        <ele>1372</ele>
        <time>2026-05-25T13:24:01.000Z</time>
      </trkpt>
      <trkpt lat="44.63341" lon="5.19547">
        <ele>1372</ele>
        <time>2026-05-25T13:24:02.000Z</time>
      </trkpt>
      <trkpt lat="44.63341" lon="5.19547">
        <ele>1372</ele>
        <time>2026-05-25T13:24:03.000Z</time>
      </trkpt>
      <trkpt lat="44.63341" lon="5.19547">
        <ele>1372</ele>
        <time>2026-05-25T13:24:04.000Z</time>
      </trkpt>
      <trkpt lat="44.63341" lon="5.19547">
        <ele>1372</ele>
        <time>2026-05-25T13:24:05.000Z</time>
      </trkpt>
      <trkpt lat="44.63341" lon="5.19547">
        <ele>1372</ele>
        <time>2026-05-25T13:24:06.000Z</time>
      </trkpt>
      <trkpt lat="44.63341" lon="5.19547">
        <ele>1372</ele>
        <time>2026-05-25T13:24:07.000Z</time>
      </trkpt>
      <trkpt lat="44.6334" lon="5.19547">
        <ele>1372</ele>
        <time>2026-05-25T13:24:08.000Z</time>
      </trkpt>
      <trkpt lat="44.6334" lon="5.19547">
        <ele>1371</ele>
        <time>2026-05-25T13:24:09.000Z</time>
      </trkpt>
      <trkpt lat="44.6334" lon="5.19546">
        <ele>1371</ele>
        <time>2026-05-25T13:24:10.000Z</time>
      </trkpt>
      <trkpt lat="44.63339" lon="5.19545">
        <ele>1370</ele>
        <time>2026-05-25T13:24:11.000Z</time>
      </trkpt>
      <trkpt lat="44.63338" lon="5.19545">
        <ele>1369</ele>
        <time>2026-05-25T13:24:12.000Z</time>
      </trkpt>
      <trkpt lat="44.63337" lon="5.19544">
        <ele>1369</ele>
        <time>2026-05-25T13:24:13.000Z</time>
      </trkpt>
      <trkpt lat="44.63337" lon="5.19545">
        <ele>1369</ele>
        <time>2026-05-25T13:24:14.000Z</time>
      </trkpt>
      <trkpt lat="44.63337" lon="5.19544">
        <ele>1370</ele>
        <time>2026-05-25T13:24:15.000Z</time>
      </trkpt>
      <trkpt lat="44.63337" lon="5.19545">
        <ele>1370</ele>
        <time>2026-05-25T13:24:16.000Z</time>
      </trkpt>
      <trkpt lat="44.63337" lon="5.19545">
        <ele>1370</ele>
        <time>2026-05-25T13:24:17.000Z</time>
      </trkpt>
      <trkpt lat="44.63337" lon="5.19545">
        <ele>1370</ele>
        <time>2026-05-25T13:24:18.000Z</time>
      </trkpt>
      <trkpt lat="44.63337" lon="5.19545">
        <ele>1370</ele>
        <time>2026-05-25T13:24:19.000Z</time>
      </trkpt>
      <trkpt lat="44.63337" lon="5.19545">
        <ele>1370</ele>
        <time>2026-05-25T13:24:20.000Z</time>
      </trkpt>
      <trkpt lat="44.63337" lon="5.19545">
        <ele>1370</ele>
        <time>2026-05-25T13:24:21.000Z</time>
      </trkpt>
      <trkpt lat="44.63337" lon="5.19545">
        <ele>1370</ele>
        <time>2026-05-25T13:24:22.000Z</time>
      </trkpt>
      <trkpt lat="44.63337" lon="5.19545">
        <ele>1370</ele>
        <time>2026-05-25T13:24:23.000Z</time>
      </trkpt>
      <trkpt lat="44.63337" lon="5.19545">
        <ele>1370</ele>
        <time>2026-05-25T13:24:24.000Z</time>
      </trkpt>
      <trkpt lat="44.63337" lon="5.19545">
        <ele>1370</ele>
        <time>2026-05-25T13:24:25.000Z</time>
      </trkpt>
      <trkpt lat="44.63337" lon="5.19545">
        <ele>1370</ele>
        <time>2026-05-25T13:24:26.000Z</time>
      </trkpt>
      <trkpt lat="44.63337" lon="5.19545">
        <ele>1370</ele>
        <time>2026-05-25T13:24:27.000Z</time>
      </trkpt>
      <trkpt lat="44.63337" lon="5.19545">
        <ele>1370</ele>
        <time>2026-05-25T13:24:28.000Z</time>
      </trkpt>
      <trkpt lat="44.63337" lon="5.19545">
        <ele>1370</ele>
        <time>2026-05-25T13:24:29.000Z</time>
      </trkpt>
      <trkpt lat="44.63337" lon="5.19545">
        <ele>1370</ele>
        <time>2026-05-25T13:24:30.000Z</time>
      </trkpt>
      <trkpt lat="44.63337" lon="5.19545">
        <ele>1370</ele>
        <time>2026-05-25T13:24:31.000Z</time>
      </trkpt>
      <trkpt lat="44.63337" lon="5.19545">
        <ele>1370</ele>
        <time>2026-05-25T13:24:32.000Z</time>
      </trkpt>
      <trkpt lat="44.63337" lon="5.19545">
        <ele>1370</ele>
        <time>2026-05-25T13:24:33.000Z</time>
      </trkpt>
      <trkpt lat="44.63337" lon="5.19545">
        <ele>1370</ele>
        <time>2026-05-25T13:24:34.000Z</time>
      </trkpt>
      <trkpt lat="44.63337" lon="5.19545">
        <ele>1370</ele>
        <time>2026-05-25T13:24:35.000Z</time>
      </trkpt>
      <trkpt lat="44.63337" lon="5.19545">
        <ele>1370</ele>
        <time>2026-05-25T13:24:36.000Z</time>
      </trkpt>
      <trkpt lat="44.63337" lon="5.19545">
        <ele>1370</ele>
        <time>2026-05-25T13:24:37.000Z</time>
      </trkpt>
      <trkpt lat="44.63337" lon="5.19545">
        <ele>1370</ele>
        <time>2026-05-25T13:24:38.000Z</time>
      </trkpt>
      <trkpt lat="44.63337" lon="5.19545">
        <ele>1370</ele>
        <time>2026-05-25T13:24:39.000Z</time>
      </trkpt>
      <trkpt lat="44.63337" lon="5.19545">
        <ele>1370</ele>
        <time>2026-05-25T13:24:40.000Z</time>
      </trkpt>
      <trkpt lat="44.63337" lon="5.19545">
        <ele>1370</ele>
        <time>2026-05-25T13:24:41.000Z</time>
      </trkpt>
      <trkpt lat="44.63337" lon="5.19545">
        <ele>1371</ele>
        <time>2026-05-25T13:24:42.000Z</time>
      </trkpt>
      <trkpt lat="44.63337" lon="5.19545">
        <ele>1371</ele>
        <time>2026-05-25T13:24:43.000Z</time>
      </trkpt>
      <trkpt lat="44.63337" lon="5.19545">
        <ele>1371</ele>
        <time>2026-05-25T13:24:44.000Z</time>
      </trkpt>
      <trkpt lat="44.63337" lon="5.19545">
        <ele>1372</ele>
        <time>2026-05-25T13:24:45.000Z</time>
      </trkpt>
      <trkpt lat="44.63337" lon="5.19545">
        <ele>1372</ele>
        <time>2026-05-25T13:24:46.000Z</time>
      </trkpt>
      <trkpt lat="44.63338" lon="5.19546">
        <ele>1372</ele>
        <time>2026-05-25T13:24:47.000Z</time>
      </trkpt>
      <trkpt lat="44.63338" lon="5.19547">
        <ele>1372</ele>
        <time>2026-05-25T13:24:48.000Z</time>
      </trkpt>
      <trkpt lat="44.63338" lon="5.19548">
        <ele>1372</ele>
        <time>2026-05-25T13:24:49.000Z</time>
      </trkpt>
      <trkpt lat="44.63338" lon="5.19549">
        <ele>1372</ele>
        <time>2026-05-25T13:24:50.000Z</time>
      </trkpt>
      <trkpt lat="44.63338" lon="5.19551">
        <ele>1372</ele>
        <time>2026-05-25T13:24:51.000Z</time>
      </trkpt>
      <trkpt lat="44.63338" lon="5.19553">
        <ele>1372</ele>
        <time>2026-05-25T13:24:52.000Z</time>
      </trkpt>
      <trkpt lat="44.63337" lon="5.19554">
        <ele>1372</ele>
        <time>2026-05-25T13:24:53.000Z</time>
      </trkpt>
      <trkpt lat="44.63337" lon="5.19555">
        <ele>1372</ele>
        <time>2026-05-25T13:24:54.000Z</time>
      </trkpt>
      <trkpt lat="44.63336" lon="5.19556">
        <ele>1372</ele>
        <time>2026-05-25T13:24:55.000Z</time>
      </trkpt>
      <trkpt lat="44.63336" lon="5.19558">
        <ele>1372</ele>
        <time>2026-05-25T13:24:56.000Z</time>
      </trkpt>
      <trkpt lat="44.63336" lon="5.19559">
        <ele>1372</ele>
        <time>2026-05-25T13:24:57.000Z</time>
      </trkpt>
      <trkpt lat="44.63336" lon="5.1956">
        <ele>1372</ele>
        <time>2026-05-25T13:24:58.000Z</time>
      </trkpt>
      <trkpt lat="44.63336" lon="5.1956">
        <ele>1372</ele>
        <time>2026-05-25T13:24:59.000Z</time>
      </trkpt>
      <trkpt lat="44.63336" lon="5.19562">
        <ele>1371</ele>
        <time>2026-05-25T13:25:00.000Z</time>
      </trkpt>
      <trkpt lat="44.63336" lon="5.19562">
        <ele>1372</ele>
        <time>2026-05-25T13:25:01.000Z</time>
      </trkpt>
      <trkpt lat="44.63336" lon="5.19563">
        <ele>1372</ele>
        <time>2026-05-25T13:25:02.000Z</time>
      </trkpt>
      <trkpt lat="44.63337" lon="5.19564">
        <ele>1372</ele>
        <time>2026-05-25T13:25:03.000Z</time>
      </trkpt>
      <trkpt lat="44.63337" lon="5.19565">
        <ele>1372</ele>
        <time>2026-05-25T13:25:04.000Z</time>
      </trkpt>
      <trkpt lat="44.63337" lon="5.19566">
        <ele>1373</ele>
        <time>2026-05-25T13:25:05.000Z</time>
      </trkpt>
      <trkpt lat="44.63337" lon="5.19567">
        <ele>1373</ele>
        <time>2026-05-25T13:25:06.000Z</time>
      </trkpt>
      <trkpt lat="44.63338" lon="5.19568">
        <ele>1373</ele>
        <time>2026-05-25T13:25:07.000Z</time>
      </trkpt>
      <trkpt lat="44.63338" lon="5.19568">
        <ele>1374</ele>
        <time>2026-05-25T13:25:08.000Z</time>
      </trkpt>
      <trkpt lat="44.63338" lon="5.19569">
        <ele>1374</ele>
        <time>2026-05-25T13:25:09.000Z</time>
      </trkpt>
      <trkpt lat="44.63338" lon="5.1957">
        <ele>1374</ele>
        <time>2026-05-25T13:25:10.000Z</time>
      </trkpt>
      <trkpt lat="44.63338" lon="5.19572">
        <ele>1374</ele>
        <time>2026-05-25T13:25:11.000Z</time>
      </trkpt>
      <trkpt lat="44.63338" lon="5.19573">
        <ele>1374</ele>
        <time>2026-05-25T13:25:12.000Z</time>
      </trkpt>
      <trkpt lat="44.63338" lon="5.19574">
        <ele>1374</ele>
        <time>2026-05-25T13:25:13.000Z</time>
      </trkpt>
      <trkpt lat="44.63338" lon="5.19575">
        <ele>1373</ele>
        <time>2026-05-25T13:25:14.000Z</time>
      </trkpt>
      <trkpt lat="44.63339" lon="5.19576">
        <ele>1373</ele>
        <time>2026-05-25T13:25:15.000Z</time>
      </trkpt>
      <trkpt lat="44.63339" lon="5.19577">
        <ele>1373</ele>
        <time>2026-05-25T13:25:16.000Z</time>
      </trkpt>
      <trkpt lat="44.63339" lon="5.19578">
        <ele>1373</ele>
        <time>2026-05-25T13:25:17.000Z</time>
      </trkpt>
      <trkpt lat="44.63339" lon="5.19579">
        <ele>1373</ele>
        <time>2026-05-25T13:25:18.000Z</time>
      </trkpt>
      <trkpt lat="44.63339" lon="5.1958">
        <ele>1372</ele>
        <time>2026-05-25T13:25:19.000Z</time>
      </trkpt>
      <trkpt lat="44.63339" lon="5.1958">
        <ele>1372</ele>
        <time>2026-05-25T13:25:20.000Z</time>
      </trkpt>
      <trkpt lat="44.63339" lon="5.19581">
        <ele>1372</ele>
        <time>2026-05-25T13:25:21.000Z</time>
      </trkpt>
      <trkpt lat="44.63339" lon="5.19582">
        <ele>1372</ele>
        <time>2026-05-25T13:25:22.000Z</time>
      </trkpt>
      <trkpt lat="44.63339" lon="5.19584">
        <ele>1372</ele>
        <time>2026-05-25T13:25:23.000Z</time>
      </trkpt>
      <trkpt lat="44.6334" lon="5.19585">
        <ele>1372</ele>
        <time>2026-05-25T13:25:24.000Z</time>
      </trkpt>
      <trkpt lat="44.6334" lon="5.19585">
        <ele>1372</ele>
        <time>2026-05-25T13:25:25.000Z</time>
      </trkpt>
      <trkpt lat="44.6334" lon="5.19585">
        <ele>1372</ele>
        <time>2026-05-25T13:25:26.000Z</time>
      </trkpt>
      <trkpt lat="44.6334" lon="5.19586">
        <ele>1372</ele>
        <time>2026-05-25T13:25:27.000Z</time>
      </trkpt>
      <trkpt lat="44.63341" lon="5.19588">
        <ele>1373</ele>
        <time>2026-05-25T13:25:28.000Z</time>
      </trkpt>
      <trkpt lat="44.63341" lon="5.19589">
        <ele>1373</ele>
        <time>2026-05-25T13:25:29.000Z</time>
      </trkpt>
      <trkpt lat="44.63341" lon="5.1959">
        <ele>1372</ele>
        <time>2026-05-25T13:25:30.000Z</time>
      </trkpt>
      <trkpt lat="44.63341" lon="5.1959">
        <ele>1372</ele>
        <time>2026-05-25T13:25:31.000Z</time>
      </trkpt>
      <trkpt lat="44.6334" lon="5.19591">
        <ele>1372</ele>
        <time>2026-05-25T13:25:32.000Z</time>
      </trkpt>
      <trkpt lat="44.63341" lon="5.19591">
        <ele>1372</ele>
        <time>2026-05-25T13:25:33.000Z</time>
      </trkpt>
      <trkpt lat="44.63341" lon="5.19592">
        <ele>1373</ele>
        <time>2026-05-25T13:25:34.000Z</time>
      </trkpt>
      <trkpt lat="44.63341" lon="5.19593">
        <ele>1373</ele>
        <time>2026-05-25T13:25:35.000Z</time>
      </trkpt>
      <trkpt lat="44.63341" lon="5.19594">
        <ele>1374</ele>
        <time>2026-05-25T13:25:36.000Z</time>
      </trkpt>
      <trkpt lat="44.63341" lon="5.19595">
        <ele>1374</ele>
        <time>2026-05-25T13:25:37.000Z</time>
      </trkpt>
      <trkpt lat="44.63341" lon="5.19597">
        <ele>1374</ele>
        <time>2026-05-25T13:25:38.000Z</time>
      </trkpt>
      <trkpt lat="44.6334" lon="5.19597">
        <ele>1374</ele>
        <time>2026-05-25T13:25:39.000Z</time>
      </trkpt>
      <trkpt lat="44.63339" lon="5.19598">
        <ele>1374</ele>
        <time>2026-05-25T13:25:40.000Z</time>
      </trkpt>
      <trkpt lat="44.63339" lon="5.19599">
        <ele>1374</ele>
        <time>2026-05-25T13:25:41.000Z</time>
      </trkpt>
      <trkpt lat="44.63339" lon="5.196">
        <ele>1373</ele>
        <time>2026-05-25T13:25:42.000Z</time>
      </trkpt>
      <trkpt lat="44.63338" lon="5.19602">
        <ele>1373</ele>
        <time>2026-05-25T13:25:43.000Z</time>
      </trkpt>
      <trkpt lat="44.63338" lon="5.19603">
        <ele>1372</ele>
        <time>2026-05-25T13:25:44.000Z</time>
      </trkpt>
      <trkpt lat="44.63338" lon="5.19604">
        <ele>1373</ele>
        <time>2026-05-25T13:25:45.000Z</time>
      </trkpt>
      <trkpt lat="44.63337" lon="5.19605">
        <ele>1373</ele>
        <time>2026-05-25T13:25:46.000Z</time>
      </trkpt>
      <trkpt lat="44.63337" lon="5.19607">
        <ele>1373</ele>
        <time>2026-05-25T13:25:47.000Z</time>
      </trkpt>
      <trkpt lat="44.63337" lon="5.19608">
        <ele>1373</ele>
        <time>2026-05-25T13:25:48.000Z</time>
      </trkpt>
      <trkpt lat="44.63337" lon="5.1961">
        <ele>1373</ele>
        <time>2026-05-25T13:25:49.000Z</time>
      </trkpt>
      <trkpt lat="44.63337" lon="5.19612">
        <ele>1372</ele>
        <time>2026-05-25T13:25:50.000Z</time>
      </trkpt>
      <trkpt lat="44.63336" lon="5.19613">
        <ele>1372</ele>
        <time>2026-05-25T13:25:51.000Z</time>
      </trkpt>
      <trkpt lat="44.63336" lon="5.19614">
        <ele>1373</ele>
        <time>2026-05-25T13:25:52.000Z</time>
      </trkpt>
      <trkpt lat="44.63337" lon="5.19615">
        <ele>1373</ele>
        <time>2026-05-25T13:25:53.000Z</time>
      </trkpt>
      <trkpt lat="44.63337" lon="5.19616">
        <ele>1373</ele>
        <time>2026-05-25T13:25:54.000Z</time>
      </trkpt>
      <trkpt lat="44.63337" lon="5.19618">
        <ele>1373</ele>
        <time>2026-05-25T13:25:55.000Z</time>
      </trkpt>
      <trkpt lat="44.63337" lon="5.19619">
        <ele>1373</ele>
        <time>2026-05-25T13:25:56.000Z</time>
      </trkpt>
      <trkpt lat="44.63337" lon="5.19621">
        <ele>1374</ele>
        <time>2026-05-25T13:25:57.000Z</time>
      </trkpt>
      <trkpt lat="44.63338" lon="5.19622">
        <ele>1374</ele>
        <time>2026-05-25T13:25:58.000Z</time>
      </trkpt>
      <trkpt lat="44.63338" lon="5.19624">
        <ele>1374</ele>
        <time>2026-05-25T13:25:59.000Z</time>
      </trkpt>
      <trkpt lat="44.63338" lon="5.19625">
        <ele>1374</ele>
        <time>2026-05-25T13:26:00.000Z</time>
      </trkpt>
      <trkpt lat="44.63338" lon="5.19626">
        <ele>1375</ele>
        <time>2026-05-25T13:26:01.000Z</time>
      </trkpt>
      <trkpt lat="44.63339" lon="5.19627">
        <ele>1375</ele>
        <time>2026-05-25T13:26:02.000Z</time>
      </trkpt>
      <trkpt lat="44.63339" lon="5.19627">
        <ele>1375</ele>
        <time>2026-05-25T13:26:03.000Z</time>
      </trkpt>
      <trkpt lat="44.63339" lon="5.19627">
        <ele>1374</ele>
        <time>2026-05-25T13:26:04.000Z</time>
      </trkpt>
      <trkpt lat="44.63339" lon="5.19627">
        <ele>1374</ele>
        <time>2026-05-25T13:26:05.000Z</time>
      </trkpt>
      <trkpt lat="44.63339" lon="5.19628">
        <ele>1374</ele>
        <time>2026-05-25T13:26:06.000Z</time>
      </trkpt>
      <trkpt lat="44.6334" lon="5.19629">
        <ele>1374</ele>
        <time>2026-05-25T13:26:07.000Z</time>
      </trkpt>
      <trkpt lat="44.63341" lon="5.1963">
        <ele>1373</ele>
        <time>2026-05-25T13:26:08.000Z</time>
      </trkpt>
      <trkpt lat="44.63341" lon="5.19631">
        <ele>1373</ele>
        <time>2026-05-25T13:26:09.000Z</time>
      </trkpt>
      <trkpt lat="44.63342" lon="5.19631">
        <ele>1374</ele>
        <time>2026-05-25T13:26:10.000Z</time>
      </trkpt>
      <trkpt lat="44.63344" lon="5.19632">
        <ele>1374</ele>
        <time>2026-05-25T13:26:11.000Z</time>
      </trkpt>
      <trkpt lat="44.63345" lon="5.19633">
        <ele>1373</ele>
        <time>2026-05-25T13:26:12.000Z</time>
      </trkpt>
      <trkpt lat="44.63345" lon="5.19634">
        <ele>1373</ele>
        <time>2026-05-25T13:26:13.000Z</time>
      </trkpt>
      <trkpt lat="44.63345" lon="5.19635">
        <ele>1373</ele>
        <time>2026-05-25T13:26:14.000Z</time>
      </trkpt>
      <trkpt lat="44.63345" lon="5.19636">
        <ele>1373</ele>
        <time>2026-05-25T13:26:15.000Z</time>
      </trkpt>
      <trkpt lat="44.63345" lon="5.19636">
        <ele>1374</ele>
        <time>2026-05-25T13:26:16.000Z</time>
      </trkpt>
      <trkpt lat="44.63345" lon="5.19638">
        <ele>1374</ele>
        <time>2026-05-25T13:26:17.000Z</time>
      </trkpt>
      <trkpt lat="44.63346" lon="5.19639">
        <ele>1373</ele>
        <time>2026-05-25T13:26:18.000Z</time>
      </trkpt>
      <trkpt lat="44.63346" lon="5.19641">
        <ele>1374</ele>
        <time>2026-05-25T13:26:19.000Z</time>
      </trkpt>
      <trkpt lat="44.63347" lon="5.19642">
        <ele>1374</ele>
        <time>2026-05-25T13:26:20.000Z</time>
      </trkpt>
      <trkpt lat="44.63347" lon="5.19643">
        <ele>1374</ele>
        <time>2026-05-25T13:26:21.000Z</time>
      </trkpt>
      <trkpt lat="44.63347" lon="5.19645">
        <ele>1374</ele>
        <time>2026-05-25T13:26:22.000Z</time>
      </trkpt>
      <trkpt lat="44.63347" lon="5.19646">
        <ele>1374</ele>
        <time>2026-05-25T13:26:23.000Z</time>
      </trkpt>
      <trkpt lat="44.63347" lon="5.19646">
        <ele>1374</ele>
        <time>2026-05-25T13:26:24.000Z</time>
      </trkpt>
      <trkpt lat="44.63347" lon="5.19647">
        <ele>1374</ele>
        <time>2026-05-25T13:26:25.000Z</time>
      </trkpt>
      <trkpt lat="44.63347" lon="5.19646">
        <ele>1374</ele>
        <time>2026-05-25T13:26:26.000Z</time>
      </trkpt>
      <trkpt lat="44.63348" lon="5.19648">
        <ele>1374</ele>
        <time>2026-05-25T13:26:27.000Z</time>
      </trkpt>
      <trkpt lat="44.63348" lon="5.19649">
        <ele>1375</ele>
        <time>2026-05-25T13:26:28.000Z</time>
      </trkpt>
      <trkpt lat="44.63349" lon="5.1965">
        <ele>1375</ele>
        <time>2026-05-25T13:26:29.000Z</time>
      </trkpt>
      <trkpt lat="44.6335" lon="5.19651">
        <ele>1375</ele>
        <time>2026-05-25T13:26:30.000Z</time>
      </trkpt>
      <trkpt lat="44.6335" lon="5.19652">
        <ele>1375</ele>
        <time>2026-05-25T13:26:31.000Z</time>
      </trkpt>
      <trkpt lat="44.63351" lon="5.19652">
        <ele>1375</ele>
        <time>2026-05-25T13:26:32.000Z</time>
      </trkpt>
      <trkpt lat="44.63351" lon="5.19652">
        <ele>1374</ele>
        <time>2026-05-25T13:26:33.000Z</time>
      </trkpt>
      <trkpt lat="44.63351" lon="5.19652">
        <ele>1374</ele>
        <time>2026-05-25T13:26:34.000Z</time>
      </trkpt>
      <trkpt lat="44.63351" lon="5.19653">
        <ele>1376</ele>
        <time>2026-05-25T13:26:35.000Z</time>
      </trkpt>
      <trkpt lat="44.63351" lon="5.19654">
        <ele>1377</ele>
        <time>2026-05-25T13:26:36.000Z</time>
      </trkpt>
      <trkpt lat="44.63352" lon="5.19655">
        <ele>1377</ele>
        <time>2026-05-25T13:26:37.000Z</time>
      </trkpt>
      <trkpt lat="44.63352" lon="5.19656">
        <ele>1376</ele>
        <time>2026-05-25T13:26:38.000Z</time>
      </trkpt>
      <trkpt lat="44.63351" lon="5.19658">
        <ele>1376</ele>
        <time>2026-05-25T13:26:39.000Z</time>
      </trkpt>
      <trkpt lat="44.63351" lon="5.19659">
        <ele>1376</ele>
        <time>2026-05-25T13:26:40.000Z</time>
      </trkpt>
      <trkpt lat="44.63351" lon="5.19659">
        <ele>1376</ele>
        <time>2026-05-25T13:26:41.000Z</time>
      </trkpt>
      <trkpt lat="44.63351" lon="5.19659">
        <ele>1376</ele>
        <time>2026-05-25T13:26:42.000Z</time>
      </trkpt>
      <trkpt lat="44.63351" lon="5.19659">
        <ele>1376</ele>
        <time>2026-05-25T13:26:43.000Z</time>
      </trkpt>
      <trkpt lat="44.63351" lon="5.19659">
        <ele>1376</ele>
        <time>2026-05-25T13:26:44.000Z</time>
      </trkpt>
      <trkpt lat="44.63351" lon="5.19661">
        <ele>1375</ele>
        <time>2026-05-25T13:26:45.000Z</time>
      </trkpt>
      <trkpt lat="44.63351" lon="5.19661">
        <ele>1375</ele>
        <time>2026-05-25T13:26:46.000Z</time>
      </trkpt>
      <trkpt lat="44.63351" lon="5.19662">
        <ele>1375</ele>
        <time>2026-05-25T13:26:47.000Z</time>
      </trkpt>
      <trkpt lat="44.63351" lon="5.19663">
        <ele>1375</ele>
        <time>2026-05-25T13:26:48.000Z</time>
      </trkpt>
      <trkpt lat="44.63351" lon="5.19663">
        <ele>1375</ele>
        <time>2026-05-25T13:26:49.000Z</time>
      </trkpt>
      <trkpt lat="44.63351" lon="5.19663">
        <ele>1375</ele>
        <time>2026-05-25T13:26:50.000Z</time>
      </trkpt>
      <trkpt lat="44.63351" lon="5.19665">
        <ele>1374</ele>
        <time>2026-05-25T13:26:51.000Z</time>
      </trkpt>
      <trkpt lat="44.63351" lon="5.19666">
        <ele>1373</ele>
        <time>2026-05-25T13:26:52.000Z</time>
      </trkpt>
      <trkpt lat="44.63351" lon="5.19667">
        <ele>1373</ele>
        <time>2026-05-25T13:26:53.000Z</time>
      </trkpt>
      <trkpt lat="44.6335" lon="5.19667">
        <ele>1373</ele>
        <time>2026-05-25T13:26:54.000Z</time>
      </trkpt>
      <trkpt lat="44.6335" lon="5.19668">
        <ele>1373</ele>
        <time>2026-05-25T13:26:55.000Z</time>
      </trkpt>
      <trkpt lat="44.6335" lon="5.19667">
        <ele>1372</ele>
        <time>2026-05-25T13:26:56.000Z</time>
      </trkpt>
      <trkpt lat="44.6335" lon="5.19667">
        <ele>1372</ele>
        <time>2026-05-25T13:26:57.000Z</time>
      </trkpt>
      <trkpt lat="44.6335" lon="5.19667">
        <ele>1372</ele>
        <time>2026-05-25T13:26:58.000Z</time>
      </trkpt>
      <trkpt lat="44.63348" lon="5.19669">
        <ele>1371</ele>
        <time>2026-05-25T13:26:59.000Z</time>
      </trkpt>
      <trkpt lat="44.63348" lon="5.1967">
        <ele>1371</ele>
        <time>2026-05-25T13:27:00.000Z</time>
      </trkpt>
      <trkpt lat="44.63347" lon="5.19671">
        <ele>1370</ele>
        <time>2026-05-25T13:27:01.000Z</time>
      </trkpt>
      <trkpt lat="44.63348" lon="5.19672">
        <ele>1370</ele>
        <time>2026-05-25T13:27:02.000Z</time>
      </trkpt>
      <trkpt lat="44.63347" lon="5.19673">
        <ele>1370</ele>
        <time>2026-05-25T13:27:03.000Z</time>
      </trkpt>
      <trkpt lat="44.63347" lon="5.19675">
        <ele>1370</ele>
        <time>2026-05-25T13:27:04.000Z</time>
      </trkpt>
      <trkpt lat="44.63347" lon="5.19676">
        <ele>1370</ele>
        <time>2026-05-25T13:27:05.000Z</time>
      </trkpt>
      <trkpt lat="44.63347" lon="5.19677">
        <ele>1370</ele>
        <time>2026-05-25T13:27:06.000Z</time>
      </trkpt>
      <trkpt lat="44.63347" lon="5.19678">
        <ele>1370</ele>
        <time>2026-05-25T13:27:07.000Z</time>
      </trkpt>
      <trkpt lat="44.63347" lon="5.19679">
        <ele>1370</ele>
        <time>2026-05-25T13:27:08.000Z</time>
      </trkpt>
      <trkpt lat="44.63347" lon="5.1968">
        <ele>1370</ele>
        <time>2026-05-25T13:27:09.000Z</time>
      </trkpt>
      <trkpt lat="44.63347" lon="5.1968">
        <ele>1371</ele>
        <time>2026-05-25T13:27:10.000Z</time>
      </trkpt>
      <trkpt lat="44.63347" lon="5.19681">
        <ele>1371</ele>
        <time>2026-05-25T13:27:11.000Z</time>
      </trkpt>
      <trkpt lat="44.63347" lon="5.19681">
        <ele>1371</ele>
        <time>2026-05-25T13:27:12.000Z</time>
      </trkpt>
      <trkpt lat="44.63347" lon="5.19681">
        <ele>1371</ele>
        <time>2026-05-25T13:27:13.000Z</time>
      </trkpt>
      <trkpt lat="44.63347" lon="5.19681">
        <ele>1371</ele>
        <time>2026-05-25T13:27:14.000Z</time>
      </trkpt>
      <trkpt lat="44.63347" lon="5.19681">
        <ele>1371</ele>
        <time>2026-05-25T13:27:15.000Z</time>
      </trkpt>
      <trkpt lat="44.63348" lon="5.19682">
        <ele>1371</ele>
        <time>2026-05-25T13:27:16.000Z</time>
      </trkpt>
      <trkpt lat="44.63348" lon="5.19683">
        <ele>1370</ele>
        <time>2026-05-25T13:27:17.000Z</time>
      </trkpt>
      <trkpt lat="44.63348" lon="5.19685">
        <ele>1370</ele>
        <time>2026-05-25T13:27:18.000Z</time>
      </trkpt>
      <trkpt lat="44.63348" lon="5.19686">
        <ele>1370</ele>
        <time>2026-05-25T13:27:19.000Z</time>
      </trkpt>
      <trkpt lat="44.63348" lon="5.19687">
        <ele>1370</ele>
        <time>2026-05-25T13:27:20.000Z</time>
      </trkpt>
      <trkpt lat="44.63348" lon="5.19688">
        <ele>1369</ele>
        <time>2026-05-25T13:27:21.000Z</time>
      </trkpt>
      <trkpt lat="44.63348" lon="5.19689">
        <ele>1369</ele>
        <time>2026-05-25T13:27:22.000Z</time>
      </trkpt>
      <trkpt lat="44.63348" lon="5.19689">
        <ele>1369</ele>
        <time>2026-05-25T13:27:23.000Z</time>
      </trkpt>
      <trkpt lat="44.63348" lon="5.19689">
        <ele>1369</ele>
        <time>2026-05-25T13:27:24.000Z</time>
      </trkpt>
      <trkpt lat="44.63348" lon="5.19691">
        <ele>1369</ele>
        <time>2026-05-25T13:27:25.000Z</time>
      </trkpt>
      <trkpt lat="44.63348" lon="5.19691">
        <ele>1369</ele>
        <time>2026-05-25T13:27:26.000Z</time>
      </trkpt>
      <trkpt lat="44.63348" lon="5.19691">
        <ele>1369</ele>
        <time>2026-05-25T13:27:27.000Z</time>
      </trkpt>
      <trkpt lat="44.63348" lon="5.19691">
        <ele>1369</ele>
        <time>2026-05-25T13:27:28.000Z</time>
      </trkpt>
      <trkpt lat="44.63348" lon="5.19691">
        <ele>1369</ele>
        <time>2026-05-25T13:27:29.000Z</time>
      </trkpt>
      <trkpt lat="44.63348" lon="5.19691">
        <ele>1369</ele>
        <time>2026-05-25T13:27:30.000Z</time>
      </trkpt>
      <trkpt lat="44.63348" lon="5.19691">
        <ele>1369</ele>
        <time>2026-05-25T13:27:31.000Z</time>
      </trkpt>
      <trkpt lat="44.63348" lon="5.19691">
        <ele>1369</ele>
        <time>2026-05-25T13:27:32.000Z</time>
      </trkpt>
      <trkpt lat="44.63347" lon="5.19691">
        <ele>1369</ele>
        <time>2026-05-25T13:27:33.000Z</time>
      </trkpt>
      <trkpt lat="44.63348" lon="5.19692">
        <ele>1368</ele>
        <time>2026-05-25T13:27:34.000Z</time>
      </trkpt>
      <trkpt lat="44.63348" lon="5.19692">
        <ele>1369</ele>
        <time>2026-05-25T13:27:35.000Z</time>
      </trkpt>
      <trkpt lat="44.63347" lon="5.19692">
        <ele>1368</ele>
        <time>2026-05-25T13:27:36.000Z</time>
      </trkpt>
      <trkpt lat="44.63347" lon="5.19693">
        <ele>1368</ele>
        <time>2026-05-25T13:27:37.000Z</time>
      </trkpt>
      <trkpt lat="44.63346" lon="5.19695">
        <ele>1368</ele>
        <time>2026-05-25T13:27:38.000Z</time>
      </trkpt>
      <trkpt lat="44.63346" lon="5.19696">
        <ele>1368</ele>
        <time>2026-05-25T13:27:39.000Z</time>
      </trkpt>
      <trkpt lat="44.63345" lon="5.19697">
        <ele>1367</ele>
        <time>2026-05-25T13:27:40.000Z</time>
      </trkpt>
      <trkpt lat="44.63344" lon="5.19698">
        <ele>1367</ele>
        <time>2026-05-25T13:27:41.000Z</time>
      </trkpt>
      <trkpt lat="44.63343" lon="5.19699">
        <ele>1367</ele>
        <time>2026-05-25T13:27:42.000Z</time>
      </trkpt>
      <trkpt lat="44.63342" lon="5.197">
        <ele>1366</ele>
        <time>2026-05-25T13:27:43.000Z</time>
      </trkpt>
      <trkpt lat="44.63342" lon="5.19702">
        <ele>1367</ele>
        <time>2026-05-25T13:27:44.000Z</time>
      </trkpt>
      <trkpt lat="44.63341" lon="5.19703">
        <ele>1367</ele>
        <time>2026-05-25T13:27:45.000Z</time>
      </trkpt>
      <trkpt lat="44.6334" lon="5.19704">
        <ele>1366</ele>
        <time>2026-05-25T13:27:46.000Z</time>
      </trkpt>
      <trkpt lat="44.6334" lon="5.19705">
        <ele>1367</ele>
        <time>2026-05-25T13:27:47.000Z</time>
      </trkpt>
      <trkpt lat="44.63339" lon="5.19707">
        <ele>1367</ele>
        <time>2026-05-25T13:27:48.000Z</time>
      </trkpt>
      <trkpt lat="44.63338" lon="5.19707">
        <ele>1366</ele>
        <time>2026-05-25T13:27:49.000Z</time>
      </trkpt>
      <trkpt lat="44.63337" lon="5.19708">
        <ele>1366</ele>
        <time>2026-05-25T13:27:50.000Z</time>
      </trkpt>
      <trkpt lat="44.63336" lon="5.19708">
        <ele>1366</ele>
        <time>2026-05-25T13:27:51.000Z</time>
      </trkpt>
      <trkpt lat="44.63336" lon="5.19708">
        <ele>1366</ele>
        <time>2026-05-25T13:27:52.000Z</time>
      </trkpt>
      <trkpt lat="44.63336" lon="5.19709">
        <ele>1365</ele>
        <time>2026-05-25T13:27:53.000Z</time>
      </trkpt>
      <trkpt lat="44.63336" lon="5.19711">
        <ele>1365</ele>
        <time>2026-05-25T13:27:54.000Z</time>
      </trkpt>
      <trkpt lat="44.63335" lon="5.19712">
        <ele>1365</ele>
        <time>2026-05-25T13:27:55.000Z</time>
      </trkpt>
      <trkpt lat="44.63335" lon="5.19713">
        <ele>1366</ele>
        <time>2026-05-25T13:27:56.000Z</time>
      </trkpt>
      <trkpt lat="44.63336" lon="5.19714">
        <ele>1366</ele>
        <time>2026-05-25T13:27:57.000Z</time>
      </trkpt>
      <trkpt lat="44.63336" lon="5.19716">
        <ele>1366</ele>
        <time>2026-05-25T13:27:58.000Z</time>
      </trkpt>
      <trkpt lat="44.63336" lon="5.19717">
        <ele>1366</ele>
        <time>2026-05-25T13:27:59.000Z</time>
      </trkpt>
      <trkpt lat="44.63336" lon="5.19718">
        <ele>1366</ele>
        <time>2026-05-25T13:28:00.000Z</time>
      </trkpt>
      <trkpt lat="44.63335" lon="5.19719">
        <ele>1366</ele>
        <time>2026-05-25T13:28:01.000Z</time>
      </trkpt>
      <trkpt lat="44.63335" lon="5.1972">
        <ele>1366</ele>
        <time>2026-05-25T13:28:02.000Z</time>
      </trkpt>
      <trkpt lat="44.63335" lon="5.19721">
        <ele>1367</ele>
        <time>2026-05-25T13:28:03.000Z</time>
      </trkpt>
      <trkpt lat="44.63335" lon="5.19722">
        <ele>1366</ele>
        <time>2026-05-25T13:28:04.000Z</time>
      </trkpt>
      <trkpt lat="44.63335" lon="5.19721">
        <ele>1366</ele>
        <time>2026-05-25T13:28:05.000Z</time>
      </trkpt>
      <trkpt lat="44.63334" lon="5.19721">
        <ele>1367</ele>
        <time>2026-05-25T13:28:06.000Z</time>
      </trkpt>
      <trkpt lat="44.63334" lon="5.19722">
        <ele>1367</ele>
        <time>2026-05-25T13:28:07.000Z</time>
      </trkpt>
      <trkpt lat="44.63333" lon="5.19722">
        <ele>1367</ele>
        <time>2026-05-25T13:28:08.000Z</time>
      </trkpt>
      <trkpt lat="44.63333" lon="5.19722">
        <ele>1367</ele>
        <time>2026-05-25T13:28:09.000Z</time>
      </trkpt>
      <trkpt lat="44.63333" lon="5.19722">
        <ele>1367</ele>
        <time>2026-05-25T13:28:10.000Z</time>
      </trkpt>
      <trkpt lat="44.63333" lon="5.19722">
        <ele>1367</ele>
        <time>2026-05-25T13:28:11.000Z</time>
      </trkpt>
      <trkpt lat="44.63333" lon="5.19722">
        <ele>1367</ele>
        <time>2026-05-25T13:28:12.000Z</time>
      </trkpt>
      <trkpt lat="44.63333" lon="5.19723">
        <ele>1366</ele>
        <time>2026-05-25T13:28:13.000Z</time>
      </trkpt>
      <trkpt lat="44.63333" lon="5.19723">
        <ele>1366</ele>
        <time>2026-05-25T13:28:14.000Z</time>
      </trkpt>
      <trkpt lat="44.63333" lon="5.19723">
        <ele>1367</ele>
        <time>2026-05-25T13:28:15.000Z</time>
      </trkpt>
      <trkpt lat="44.63333" lon="5.19724">
        <ele>1367</ele>
        <time>2026-05-25T13:28:16.000Z</time>
      </trkpt>
      <trkpt lat="44.63333" lon="5.19724">
        <ele>1367</ele>
        <time>2026-05-25T13:28:17.000Z</time>
      </trkpt>
      <trkpt lat="44.63333" lon="5.19724">
        <ele>1367</ele>
        <time>2026-05-25T13:28:18.000Z</time>
      </trkpt>
      <trkpt lat="44.63333" lon="5.19724">
        <ele>1367</ele>
        <time>2026-05-25T13:28:19.000Z</time>
      </trkpt>
      <trkpt lat="44.63333" lon="5.19724">
        <ele>1367</ele>
        <time>2026-05-25T13:28:20.000Z</time>
      </trkpt>
      <trkpt lat="44.63333" lon="5.19724">
        <ele>1367</ele>
        <time>2026-05-25T13:28:21.000Z</time>
      </trkpt>
      <trkpt lat="44.63332" lon="5.19725">
        <ele>1366</ele>
        <time>2026-05-25T13:28:22.000Z</time>
      </trkpt>
      <trkpt lat="44.63332" lon="5.19725">
        <ele>1366</ele>
        <time>2026-05-25T13:28:23.000Z</time>
      </trkpt>
      <trkpt lat="44.63332" lon="5.19725">
        <ele>1366</ele>
        <time>2026-05-25T13:28:24.000Z</time>
      </trkpt>
      <trkpt lat="44.63333" lon="5.19725">
        <ele>1366</ele>
        <time>2026-05-25T13:28:25.000Z</time>
      </trkpt>
      <trkpt lat="44.63333" lon="5.19725">
        <ele>1366</ele>
        <time>2026-05-25T13:28:26.000Z</time>
      </trkpt>
      <trkpt lat="44.63333" lon="5.19725">
        <ele>1366</ele>
        <time>2026-05-25T13:28:27.000Z</time>
      </trkpt>
      <trkpt lat="44.63333" lon="5.19725">
        <ele>1366</ele>
        <time>2026-05-25T13:28:28.000Z</time>
      </trkpt>
      <trkpt lat="44.63333" lon="5.19725">
        <ele>1366</ele>
        <time>2026-05-25T13:28:29.000Z</time>
      </trkpt>
      <trkpt lat="44.63333" lon="5.19725">
        <ele>1366</ele>
        <time>2026-05-25T13:28:30.000Z</time>
      </trkpt>
      <trkpt lat="44.63333" lon="5.19725">
        <ele>1366</ele>
        <time>2026-05-25T13:28:31.000Z</time>
      </trkpt>
      <trkpt lat="44.63333" lon="5.19725">
        <ele>1366</ele>
        <time>2026-05-25T13:28:32.000Z</time>
      </trkpt>
      <trkpt lat="44.63333" lon="5.19725">
        <ele>1366</ele>
        <time>2026-05-25T13:28:33.000Z</time>
      </trkpt>
      <trkpt lat="44.63333" lon="5.19725">
        <ele>1366</ele>
        <time>2026-05-25T13:28:34.000Z</time>
      </trkpt>
      <trkpt lat="44.63333" lon="5.19725">
        <ele>1366</ele>
        <time>2026-05-25T13:28:35.000Z</time>
      </trkpt>
      <trkpt lat="44.63333" lon="5.19725">
        <ele>1366</ele>
        <time>2026-05-25T13:28:36.000Z</time>
      </trkpt>
      <trkpt lat="44.63331" lon="5.19724">
        <ele>1365</ele>
        <time>2026-05-25T13:28:37.000Z</time>
      </trkpt>
      <trkpt lat="44.63331" lon="5.19724">
        <ele>1365</ele>
        <time>2026-05-25T13:28:38.000Z</time>
      </trkpt>
      <trkpt lat="44.6333" lon="5.19724">
        <ele>1364</ele>
        <time>2026-05-25T13:28:39.000Z</time>
      </trkpt>
      <trkpt lat="44.63329" lon="5.19725">
        <ele>1364</ele>
        <time>2026-05-25T13:28:40.000Z</time>
      </trkpt>
      <trkpt lat="44.63329" lon="5.19725">
        <ele>1364</ele>
        <time>2026-05-25T13:28:41.000Z</time>
      </trkpt>
      <trkpt lat="44.63329" lon="5.19725">
        <ele>1364</ele>
        <time>2026-05-25T13:28:42.000Z</time>
      </trkpt>
      <trkpt lat="44.63329" lon="5.19725">
        <ele>1364</ele>
        <time>2026-05-25T13:28:43.000Z</time>
      </trkpt>
      <trkpt lat="44.63329" lon="5.19725">
        <ele>1364</ele>
        <time>2026-05-25T13:28:44.000Z</time>
      </trkpt>
      <trkpt lat="44.63329" lon="5.19725">
        <ele>1363</ele>
        <time>2026-05-25T13:28:45.000Z</time>
      </trkpt>
      <trkpt lat="44.63328" lon="5.19726">
        <ele>1363</ele>
        <time>2026-05-25T13:28:46.000Z</time>
      </trkpt>
      <trkpt lat="44.63328" lon="5.19728">
        <ele>1363</ele>
        <time>2026-05-25T13:28:47.000Z</time>
      </trkpt>
      <trkpt lat="44.63327" lon="5.1973">
        <ele>1364</ele>
        <time>2026-05-25T13:28:48.000Z</time>
      </trkpt>
      <trkpt lat="44.63327" lon="5.19731">
        <ele>1364</ele>
        <time>2026-05-25T13:28:49.000Z</time>
      </trkpt>
      <trkpt lat="44.63327" lon="5.19733">
        <ele>1364</ele>
        <time>2026-05-25T13:28:50.000Z</time>
      </trkpt>
      <trkpt lat="44.63326" lon="5.19734">
        <ele>1364</ele>
        <time>2026-05-25T13:28:51.000Z</time>
      </trkpt>
      <trkpt lat="44.63326" lon="5.19736">
        <ele>1364</ele>
        <time>2026-05-25T13:28:52.000Z</time>
      </trkpt>
      <trkpt lat="44.63326" lon="5.19738">
        <ele>1363</ele>
        <time>2026-05-25T13:28:53.000Z</time>
      </trkpt>
      <trkpt lat="44.63325" lon="5.19738">
        <ele>1363</ele>
        <time>2026-05-25T13:28:54.000Z</time>
      </trkpt>
      <trkpt lat="44.63325" lon="5.19739">
        <ele>1363</ele>
        <time>2026-05-25T13:28:55.000Z</time>
      </trkpt>
      <trkpt lat="44.63325" lon="5.1974">
        <ele>1362</ele>
        <time>2026-05-25T13:28:56.000Z</time>
      </trkpt>
      <trkpt lat="44.63325" lon="5.19739">
        <ele>1362</ele>
        <time>2026-05-25T13:28:57.000Z</time>
      </trkpt>
      <trkpt lat="44.63325" lon="5.1974">
        <ele>1362</ele>
        <time>2026-05-25T13:28:58.000Z</time>
      </trkpt>
      <trkpt lat="44.63324" lon="5.19741">
        <ele>1362</ele>
        <time>2026-05-25T13:28:59.000Z</time>
      </trkpt>
      <trkpt lat="44.63324" lon="5.19742">
        <ele>1363</ele>
        <time>2026-05-25T13:29:00.000Z</time>
      </trkpt>
      <trkpt lat="44.63323" lon="5.19743">
        <ele>1362</ele>
        <time>2026-05-25T13:29:01.000Z</time>
      </trkpt>
      <trkpt lat="44.63323" lon="5.19744">
        <ele>1362</ele>
        <time>2026-05-25T13:29:02.000Z</time>
      </trkpt>
      <trkpt lat="44.63322" lon="5.19745">
        <ele>1362</ele>
        <time>2026-05-25T13:29:03.000Z</time>
      </trkpt>
      <trkpt lat="44.63322" lon="5.19746">
        <ele>1362</ele>
        <time>2026-05-25T13:29:04.000Z</time>
      </trkpt>
      <trkpt lat="44.63322" lon="5.19747">
        <ele>1362</ele>
        <time>2026-05-25T13:29:05.000Z</time>
      </trkpt>
      <trkpt lat="44.63322" lon="5.19749">
        <ele>1363</ele>
        <time>2026-05-25T13:29:06.000Z</time>
      </trkpt>
      <trkpt lat="44.63322" lon="5.1975">
        <ele>1363</ele>
        <time>2026-05-25T13:29:07.000Z</time>
      </trkpt>
      <trkpt lat="44.63322" lon="5.1975">
        <ele>1363</ele>
        <time>2026-05-25T13:29:08.000Z</time>
      </trkpt>
      <trkpt lat="44.63322" lon="5.1975">
        <ele>1363</ele>
        <time>2026-05-25T13:29:09.000Z</time>
      </trkpt>
      <trkpt lat="44.63323" lon="5.19752">
        <ele>1362</ele>
        <time>2026-05-25T13:29:10.000Z</time>
      </trkpt>
      <trkpt lat="44.63322" lon="5.19752">
        <ele>1362</ele>
        <time>2026-05-25T13:29:11.000Z</time>
      </trkpt>
      <trkpt lat="44.63321" lon="5.19753">
        <ele>1362</ele>
        <time>2026-05-25T13:29:12.000Z</time>
      </trkpt>
      <trkpt lat="44.63321" lon="5.19755">
        <ele>1362</ele>
        <time>2026-05-25T13:29:13.000Z</time>
      </trkpt>
      <trkpt lat="44.6332" lon="5.19757">
        <ele>1362</ele>
        <time>2026-05-25T13:29:14.000Z</time>
      </trkpt>
      <trkpt lat="44.6332" lon="5.19758">
        <ele>1363</ele>
        <time>2026-05-25T13:29:15.000Z</time>
      </trkpt>
      <trkpt lat="44.63319" lon="5.19758">
        <ele>1363</ele>
        <time>2026-05-25T13:29:16.000Z</time>
      </trkpt>
      <trkpt lat="44.63319" lon="5.1976">
        <ele>1362</ele>
        <time>2026-05-25T13:29:17.000Z</time>
      </trkpt>
      <trkpt lat="44.63319" lon="5.1976">
        <ele>1362</ele>
        <time>2026-05-25T13:29:18.000Z</time>
      </trkpt>
      <trkpt lat="44.63319" lon="5.19761">
        <ele>1362</ele>
        <time>2026-05-25T13:29:19.000Z</time>
      </trkpt>
      <trkpt lat="44.63319" lon="5.19762">
        <ele>1362</ele>
        <time>2026-05-25T13:29:20.000Z</time>
      </trkpt>
      <trkpt lat="44.63319" lon="5.19764">
        <ele>1362</ele>
        <time>2026-05-25T13:29:21.000Z</time>
      </trkpt>
      <trkpt lat="44.63319" lon="5.19765">
        <ele>1362</ele>
        <time>2026-05-25T13:29:22.000Z</time>
      </trkpt>
      <trkpt lat="44.63319" lon="5.19765">
        <ele>1362</ele>
        <time>2026-05-25T13:29:23.000Z</time>
      </trkpt>
      <trkpt lat="44.63319" lon="5.19766">
        <ele>1361</ele>
        <time>2026-05-25T13:29:24.000Z</time>
      </trkpt>
      <trkpt lat="44.63319" lon="5.19766">
        <ele>1361</ele>
        <time>2026-05-25T13:29:25.000Z</time>
      </trkpt>
      <trkpt lat="44.63319" lon="5.19766">
        <ele>1361</ele>
        <time>2026-05-25T13:29:26.000Z</time>
      </trkpt>
      <trkpt lat="44.63319" lon="5.19766">
        <ele>1361</ele>
        <time>2026-05-25T13:29:27.000Z</time>
      </trkpt>
      <trkpt lat="44.63319" lon="5.19766">
        <ele>1361</ele>
        <time>2026-05-25T13:29:28.000Z</time>
      </trkpt>
      <trkpt lat="44.63318" lon="5.19769">
        <ele>1359</ele>
        <time>2026-05-25T13:29:29.000Z</time>
      </trkpt>
      <trkpt lat="44.63317" lon="5.19769">
        <ele>1359</ele>
        <time>2026-05-25T13:29:30.000Z</time>
      </trkpt>
      <trkpt lat="44.63317" lon="5.1977">
        <ele>1360</ele>
        <time>2026-05-25T13:29:31.000Z</time>
      </trkpt>
      <trkpt lat="44.63316" lon="5.19771">
        <ele>1360</ele>
        <time>2026-05-25T13:29:32.000Z</time>
      </trkpt>
      <trkpt lat="44.63316" lon="5.19771">
        <ele>1360</ele>
        <time>2026-05-25T13:29:33.000Z</time>
      </trkpt>
      <trkpt lat="44.63316" lon="5.19771">
        <ele>1360</ele>
        <time>2026-05-25T13:29:34.000Z</time>
      </trkpt>
      <trkpt lat="44.63316" lon="5.19771">
        <ele>1360</ele>
        <time>2026-05-25T13:29:35.000Z</time>
      </trkpt>
      <trkpt lat="44.63316" lon="5.19771">
        <ele>1360</ele>
        <time>2026-05-25T13:29:36.000Z</time>
      </trkpt>
      <trkpt lat="44.63316" lon="5.19771">
        <ele>1360</ele>
        <time>2026-05-25T13:29:37.000Z</time>
      </trkpt>
      <trkpt lat="44.63316" lon="5.19771">
        <ele>1360</ele>
        <time>2026-05-25T13:29:38.000Z</time>
      </trkpt>
      <trkpt lat="44.63316" lon="5.19771">
        <ele>1360</ele>
        <time>2026-05-25T13:29:39.000Z</time>
      </trkpt>
      <trkpt lat="44.63316" lon="5.19774">
        <ele>1358</ele>
        <time>2026-05-25T13:29:40.000Z</time>
      </trkpt>
      <trkpt lat="44.63316" lon="5.19774">
        <ele>1358</ele>
        <time>2026-05-25T13:29:41.000Z</time>
      </trkpt>
      <trkpt lat="44.63317" lon="5.19775">
        <ele>1358</ele>
        <time>2026-05-25T13:29:42.000Z</time>
      </trkpt>
      <trkpt lat="44.63316" lon="5.19775">
        <ele>1358</ele>
        <time>2026-05-25T13:29:43.000Z</time>
      </trkpt>
      <trkpt lat="44.63316" lon="5.19775">
        <ele>1358</ele>
        <time>2026-05-25T13:29:44.000Z</time>
      </trkpt>
      <trkpt lat="44.63316" lon="5.19775">
        <ele>1358</ele>
        <time>2026-05-25T13:29:45.000Z</time>
      </trkpt>
      <trkpt lat="44.63316" lon="5.19775">
        <ele>1358</ele>
        <time>2026-05-25T13:29:46.000Z</time>
      </trkpt>
      <trkpt lat="44.63316" lon="5.19775">
        <ele>1358</ele>
        <time>2026-05-25T13:29:47.000Z</time>
      </trkpt>
      <trkpt lat="44.63316" lon="5.19775">
        <ele>1358</ele>
        <time>2026-05-25T13:29:48.000Z</time>
      </trkpt>
      <trkpt lat="44.63316" lon="5.19775">
        <ele>1358</ele>
        <time>2026-05-25T13:29:49.000Z</time>
      </trkpt>
      <trkpt lat="44.63316" lon="5.19775">
        <ele>1358</ele>
        <time>2026-05-25T13:29:50.000Z</time>
      </trkpt>
      <trkpt lat="44.63316" lon="5.19775">
        <ele>1358</ele>
        <time>2026-05-25T13:29:51.000Z</time>
      </trkpt>
      <trkpt lat="44.63316" lon="5.19775">
        <ele>1358</ele>
        <time>2026-05-25T13:29:52.000Z</time>
      </trkpt>
      <trkpt lat="44.63312" lon="5.19777">
        <ele>1359</ele>
        <time>2026-05-25T13:29:53.000Z</time>
      </trkpt>
      <trkpt lat="44.63311" lon="5.19778">
        <ele>1359</ele>
        <time>2026-05-25T13:29:54.000Z</time>
      </trkpt>
      <trkpt lat="44.63311" lon="5.19779">
        <ele>1358</ele>
        <time>2026-05-25T13:29:55.000Z</time>
      </trkpt>
      <trkpt lat="44.6331" lon="5.19778">
        <ele>1357</ele>
        <time>2026-05-25T13:29:56.000Z</time>
      </trkpt>
      <trkpt lat="44.6331" lon="5.19778">
        <ele>1357</ele>
        <time>2026-05-25T13:29:57.000Z</time>
      </trkpt>
      <trkpt lat="44.6331" lon="5.19778">
        <ele>1357</ele>
        <time>2026-05-25T13:29:58.000Z</time>
      </trkpt>
      <trkpt lat="44.6331" lon="5.19778">
        <ele>1357</ele>
        <time>2026-05-25T13:29:59.000Z</time>
      </trkpt>
      <trkpt lat="44.63308" lon="5.19781">
        <ele>1355</ele>
        <time>2026-05-25T13:30:00.000Z</time>
      </trkpt>
      <trkpt lat="44.63308" lon="5.19781">
        <ele>1355</ele>
        <time>2026-05-25T13:30:01.000Z</time>
      </trkpt>
      <trkpt lat="44.63308" lon="5.19782">
        <ele>1355</ele>
        <time>2026-05-25T13:30:02.000Z</time>
      </trkpt>
      <trkpt lat="44.63307" lon="5.19783">
        <ele>1355</ele>
        <time>2026-05-25T13:30:03.000Z</time>
      </trkpt>
      <trkpt lat="44.63307" lon="5.19783">
        <ele>1355</ele>
        <time>2026-05-25T13:30:04.000Z</time>
      </trkpt>
      <trkpt lat="44.63307" lon="5.19783">
        <ele>1355</ele>
        <time>2026-05-25T13:30:05.000Z</time>
      </trkpt>
      <trkpt lat="44.63307" lon="5.19782">
        <ele>1353</ele>
        <time>2026-05-25T13:30:06.000Z</time>
      </trkpt>
      <trkpt lat="44.63306" lon="5.19782">
        <ele>1353</ele>
        <time>2026-05-25T13:30:07.000Z</time>
      </trkpt>
      <trkpt lat="44.63305" lon="5.19784">
        <ele>1353</ele>
        <time>2026-05-25T13:30:08.000Z</time>
      </trkpt>
      <trkpt lat="44.63305" lon="5.19785">
        <ele>1352</ele>
        <time>2026-05-25T13:30:09.000Z</time>
      </trkpt>
      <trkpt lat="44.63305" lon="5.19785">
        <ele>1352</ele>
        <time>2026-05-25T13:30:10.000Z</time>
      </trkpt>
      <trkpt lat="44.63305" lon="5.19785">
        <ele>1352</ele>
        <time>2026-05-25T13:30:11.000Z</time>
      </trkpt>
      <trkpt lat="44.63303" lon="5.19787">
        <ele>1352</ele>
        <time>2026-05-25T13:30:12.000Z</time>
      </trkpt>
      <trkpt lat="44.63303" lon="5.19787">
        <ele>1351</ele>
        <time>2026-05-25T13:30:13.000Z</time>
      </trkpt>
      <trkpt lat="44.63302" lon="5.19788">
        <ele>1352</ele>
        <time>2026-05-25T13:30:14.000Z</time>
      </trkpt>
      <trkpt lat="44.63302" lon="5.19788">
        <ele>1351</ele>
        <time>2026-05-25T13:30:15.000Z</time>
      </trkpt>
      <trkpt lat="44.63302" lon="5.19788">
        <ele>1351</ele>
        <time>2026-05-25T13:30:16.000Z</time>
      </trkpt>
      <trkpt lat="44.63301" lon="5.1979">
        <ele>1351</ele>
        <time>2026-05-25T13:30:17.000Z</time>
      </trkpt>
      <trkpt lat="44.63301" lon="5.19792">
        <ele>1351</ele>
        <time>2026-05-25T13:30:18.000Z</time>
      </trkpt>
      <trkpt lat="44.633" lon="5.19793">
        <ele>1351</ele>
        <time>2026-05-25T13:30:19.000Z</time>
      </trkpt>
      <trkpt lat="44.633" lon="5.19793">
        <ele>1351</ele>
        <time>2026-05-25T13:30:20.000Z</time>
      </trkpt>
      <trkpt lat="44.633" lon="5.19793">
        <ele>1351</ele>
        <time>2026-05-25T13:30:21.000Z</time>
      </trkpt>
      <trkpt lat="44.63299" lon="5.19796">
        <ele>1351</ele>
        <time>2026-05-25T13:30:22.000Z</time>
      </trkpt>
      <trkpt lat="44.63299" lon="5.19796">
        <ele>1351</ele>
        <time>2026-05-25T13:30:23.000Z</time>
      </trkpt>
      <trkpt lat="44.63298" lon="5.19797">
        <ele>1350</ele>
        <time>2026-05-25T13:30:24.000Z</time>
      </trkpt>
      <trkpt lat="44.63297" lon="5.19797">
        <ele>1351</ele>
        <time>2026-05-25T13:30:25.000Z</time>
      </trkpt>
      <trkpt lat="44.63297" lon="5.19798">
        <ele>1351</ele>
        <time>2026-05-25T13:30:26.000Z</time>
      </trkpt>
      <trkpt lat="44.63297" lon="5.19798">
        <ele>1352</ele>
        <time>2026-05-25T13:30:27.000Z</time>
      </trkpt>
      <trkpt lat="44.63297" lon="5.19799">
        <ele>1352</ele>
        <time>2026-05-25T13:30:28.000Z</time>
      </trkpt>
      <trkpt lat="44.63297" lon="5.19799">
        <ele>1352</ele>
        <time>2026-05-25T13:30:29.000Z</time>
      </trkpt>
      <trkpt lat="44.63297" lon="5.198">
        <ele>1351</ele>
        <time>2026-05-25T13:30:30.000Z</time>
      </trkpt>
      <trkpt lat="44.63296" lon="5.19801">
        <ele>1351</ele>
        <time>2026-05-25T13:30:31.000Z</time>
      </trkpt>
      <trkpt lat="44.63296" lon="5.19801">
        <ele>1350</ele>
        <time>2026-05-25T13:30:32.000Z</time>
      </trkpt>
      <trkpt lat="44.63295" lon="5.19802">
        <ele>1349</ele>
        <time>2026-05-25T13:30:33.000Z</time>
      </trkpt>
      <trkpt lat="44.63295" lon="5.19803">
        <ele>1348</ele>
        <time>2026-05-25T13:30:34.000Z</time>
      </trkpt>
      <trkpt lat="44.63295" lon="5.19803">
        <ele>1348</ele>
        <time>2026-05-25T13:30:35.000Z</time>
      </trkpt>
      <trkpt lat="44.63295" lon="5.19803">
        <ele>1349</ele>
        <time>2026-05-25T13:30:36.000Z</time>
      </trkpt>
      <trkpt lat="44.63294" lon="5.19802">
        <ele>1348</ele>
        <time>2026-05-25T13:30:37.000Z</time>
      </trkpt>
      <trkpt lat="44.63294" lon="5.19801">
        <ele>1348</ele>
        <time>2026-05-25T13:30:38.000Z</time>
      </trkpt>
      <trkpt lat="44.63293" lon="5.19801">
        <ele>1349</ele>
        <time>2026-05-25T13:30:39.000Z</time>
      </trkpt>
      <trkpt lat="44.63292" lon="5.19801">
        <ele>1349</ele>
        <time>2026-05-25T13:30:40.000Z</time>
      </trkpt>
      <trkpt lat="44.63291" lon="5.19801">
        <ele>1349</ele>
        <time>2026-05-25T13:30:41.000Z</time>
      </trkpt>
      <trkpt lat="44.6329" lon="5.19802">
        <ele>1349</ele>
        <time>2026-05-25T13:30:42.000Z</time>
      </trkpt>
      <trkpt lat="44.6329" lon="5.19803">
        <ele>1350</ele>
        <time>2026-05-25T13:30:43.000Z</time>
      </trkpt>
      <trkpt lat="44.63289" lon="5.19804">
        <ele>1349</ele>
        <time>2026-05-25T13:30:44.000Z</time>
      </trkpt>
      <trkpt lat="44.63288" lon="5.19805">
        <ele>1349</ele>
        <time>2026-05-25T13:30:45.000Z</time>
      </trkpt>
      <trkpt lat="44.63288" lon="5.19806">
        <ele>1348</ele>
        <time>2026-05-25T13:30:46.000Z</time>
      </trkpt>
      <trkpt lat="44.63287" lon="5.19807">
        <ele>1349</ele>
        <time>2026-05-25T13:30:47.000Z</time>
      </trkpt>
      <trkpt lat="44.63285" lon="5.19808">
        <ele>1348</ele>
        <time>2026-05-25T13:30:48.000Z</time>
      </trkpt>
      <trkpt lat="44.63285" lon="5.19809">
        <ele>1347</ele>
        <time>2026-05-25T13:30:49.000Z</time>
      </trkpt>
      <trkpt lat="44.63284" lon="5.19811">
        <ele>1347</ele>
        <time>2026-05-25T13:30:50.000Z</time>
      </trkpt>
      <trkpt lat="44.63284" lon="5.19812">
        <ele>1347</ele>
        <time>2026-05-25T13:30:51.000Z</time>
      </trkpt>
      <trkpt lat="44.63283" lon="5.19813">
        <ele>1348</ele>
        <time>2026-05-25T13:30:52.000Z</time>
      </trkpt>
      <trkpt lat="44.63283" lon="5.19815">
        <ele>1347</ele>
        <time>2026-05-25T13:30:53.000Z</time>
      </trkpt>
      <trkpt lat="44.63283" lon="5.19816">
        <ele>1347</ele>
        <time>2026-05-25T13:30:54.000Z</time>
      </trkpt>
      <trkpt lat="44.63283" lon="5.19818">
        <ele>1346</ele>
        <time>2026-05-25T13:30:55.000Z</time>
      </trkpt>
      <trkpt lat="44.63282" lon="5.19819">
        <ele>1346</ele>
        <time>2026-05-25T13:30:56.000Z</time>
      </trkpt>
      <trkpt lat="44.63282" lon="5.19821">
        <ele>1346</ele>
        <time>2026-05-25T13:30:57.000Z</time>
      </trkpt>
      <trkpt lat="44.63282" lon="5.19822">
        <ele>1346</ele>
        <time>2026-05-25T13:30:58.000Z</time>
      </trkpt>
      <trkpt lat="44.63282" lon="5.19823">
        <ele>1346</ele>
        <time>2026-05-25T13:30:59.000Z</time>
      </trkpt>
      <trkpt lat="44.63282" lon="5.19823">
        <ele>1346</ele>
        <time>2026-05-25T13:31:00.000Z</time>
      </trkpt>
      <trkpt lat="44.63282" lon="5.19823">
        <ele>1346</ele>
        <time>2026-05-25T13:31:01.000Z</time>
      </trkpt>
      <trkpt lat="44.63282" lon="5.19823">
        <ele>1346</ele>
        <time>2026-05-25T13:31:02.000Z</time>
      </trkpt>
      <trkpt lat="44.63281" lon="5.19824">
        <ele>1346</ele>
        <time>2026-05-25T13:31:03.000Z</time>
      </trkpt>
      <trkpt lat="44.6328" lon="5.19825">
        <ele>1347</ele>
        <time>2026-05-25T13:31:04.000Z</time>
      </trkpt>
      <trkpt lat="44.6328" lon="5.19826">
        <ele>1347</ele>
        <time>2026-05-25T13:31:05.000Z</time>
      </trkpt>
      <trkpt lat="44.6328" lon="5.19828">
        <ele>1346</ele>
        <time>2026-05-25T13:31:06.000Z</time>
      </trkpt>
      <trkpt lat="44.6328" lon="5.19829">
        <ele>1347</ele>
        <time>2026-05-25T13:31:07.000Z</time>
      </trkpt>
      <trkpt lat="44.6328" lon="5.1983">
        <ele>1347</ele>
        <time>2026-05-25T13:31:08.000Z</time>
      </trkpt>
      <trkpt lat="44.6328" lon="5.1983">
        <ele>1347</ele>
        <time>2026-05-25T13:31:09.000Z</time>
      </trkpt>
      <trkpt lat="44.63279" lon="5.1983">
        <ele>1347</ele>
        <time>2026-05-25T13:31:10.000Z</time>
      </trkpt>
      <trkpt lat="44.63279" lon="5.19831">
        <ele>1347</ele>
        <time>2026-05-25T13:31:11.000Z</time>
      </trkpt>
      <trkpt lat="44.63279" lon="5.19832">
        <ele>1346</ele>
        <time>2026-05-25T13:31:12.000Z</time>
      </trkpt>
      <trkpt lat="44.63279" lon="5.19833">
        <ele>1346</ele>
        <time>2026-05-25T13:31:13.000Z</time>
      </trkpt>
      <trkpt lat="44.63278" lon="5.19834">
        <ele>1345</ele>
        <time>2026-05-25T13:31:14.000Z</time>
      </trkpt>
      <trkpt lat="44.63278" lon="5.19835">
        <ele>1345</ele>
        <time>2026-05-25T13:31:15.000Z</time>
      </trkpt>
      <trkpt lat="44.63278" lon="5.19835">
        <ele>1345</ele>
        <time>2026-05-25T13:31:16.000Z</time>
      </trkpt>
      <trkpt lat="44.63277" lon="5.19836">
        <ele>1345</ele>
        <time>2026-05-25T13:31:17.000Z</time>
      </trkpt>
      <trkpt lat="44.63277" lon="5.19836">
        <ele>1345</ele>
        <time>2026-05-25T13:31:18.000Z</time>
      </trkpt>
      <trkpt lat="44.63277" lon="5.19836">
        <ele>1345</ele>
        <time>2026-05-25T13:31:19.000Z</time>
      </trkpt>
      <trkpt lat="44.63276" lon="5.19838">
        <ele>1344</ele>
        <time>2026-05-25T13:31:20.000Z</time>
      </trkpt>
      <trkpt lat="44.63276" lon="5.19838">
        <ele>1344</ele>
        <time>2026-05-25T13:31:21.000Z</time>
      </trkpt>
      <trkpt lat="44.63276" lon="5.19839">
        <ele>1343</ele>
        <time>2026-05-25T13:31:22.000Z</time>
      </trkpt>
      <trkpt lat="44.63275" lon="5.19841">
        <ele>1343</ele>
        <time>2026-05-25T13:31:23.000Z</time>
      </trkpt>
      <trkpt lat="44.63276" lon="5.19843">
        <ele>1343</ele>
        <time>2026-05-25T13:31:24.000Z</time>
      </trkpt>
      <trkpt lat="44.63276" lon="5.19844">
        <ele>1343</ele>
        <time>2026-05-25T13:31:25.000Z</time>
      </trkpt>
      <trkpt lat="44.63276" lon="5.19846">
        <ele>1344</ele>
        <time>2026-05-25T13:31:26.000Z</time>
      </trkpt>
      <trkpt lat="44.63276" lon="5.19847">
        <ele>1344</ele>
        <time>2026-05-25T13:31:27.000Z</time>
      </trkpt>
      <trkpt lat="44.63276" lon="5.19848">
        <ele>1344</ele>
        <time>2026-05-25T13:31:28.000Z</time>
      </trkpt>
      <trkpt lat="44.63276" lon="5.19849">
        <ele>1344</ele>
        <time>2026-05-25T13:31:29.000Z</time>
      </trkpt>
      <trkpt lat="44.63276" lon="5.1985">
        <ele>1345</ele>
        <time>2026-05-25T13:31:30.000Z</time>
      </trkpt>
      <trkpt lat="44.63276" lon="5.19851">
        <ele>1345</ele>
        <time>2026-05-25T13:31:31.000Z</time>
      </trkpt>
      <trkpt lat="44.63277" lon="5.19852">
        <ele>1345</ele>
        <time>2026-05-25T13:31:32.000Z</time>
      </trkpt>
      <trkpt lat="44.63277" lon="5.19852">
        <ele>1344</ele>
        <time>2026-05-25T13:31:33.000Z</time>
      </trkpt>
      <trkpt lat="44.63277" lon="5.19852">
        <ele>1344</ele>
        <time>2026-05-25T13:31:34.000Z</time>
      </trkpt>
      <trkpt lat="44.63277" lon="5.19852">
        <ele>1344</ele>
        <time>2026-05-25T13:31:35.000Z</time>
      </trkpt>
      <trkpt lat="44.63277" lon="5.19852">
        <ele>1344</ele>
        <time>2026-05-25T13:31:36.000Z</time>
      </trkpt>
      <trkpt lat="44.63277" lon="5.19853">
        <ele>1344</ele>
        <time>2026-05-25T13:31:37.000Z</time>
      </trkpt>
      <trkpt lat="44.63277" lon="5.19853">
        <ele>1344</ele>
        <time>2026-05-25T13:31:38.000Z</time>
      </trkpt>
      <trkpt lat="44.63278" lon="5.19852">
        <ele>1345</ele>
        <time>2026-05-25T13:31:39.000Z</time>
      </trkpt>
      <trkpt lat="44.63279" lon="5.19853">
        <ele>1345</ele>
        <time>2026-05-25T13:31:40.000Z</time>
      </trkpt>
      <trkpt lat="44.63279" lon="5.19854">
        <ele>1345</ele>
        <time>2026-05-25T13:31:41.000Z</time>
      </trkpt>
      <trkpt lat="44.63278" lon="5.19856">
        <ele>1344</ele>
        <time>2026-05-25T13:31:42.000Z</time>
      </trkpt>
      <trkpt lat="44.63277" lon="5.19855">
        <ele>1343</ele>
        <time>2026-05-25T13:31:43.000Z</time>
      </trkpt>
      <trkpt lat="44.63277" lon="5.19855">
        <ele>1343</ele>
        <time>2026-05-25T13:31:44.000Z</time>
      </trkpt>
      <trkpt lat="44.63277" lon="5.19855">
        <ele>1343</ele>
        <time>2026-05-25T13:31:45.000Z</time>
      </trkpt>
      <trkpt lat="44.63277" lon="5.19855">
        <ele>1343</ele>
        <time>2026-05-25T13:31:46.000Z</time>
      </trkpt>
      <trkpt lat="44.63277" lon="5.19856">
        <ele>1343</ele>
        <time>2026-05-25T13:31:47.000Z</time>
      </trkpt>
      <trkpt lat="44.63276" lon="5.19856">
        <ele>1343</ele>
        <time>2026-05-25T13:31:48.000Z</time>
      </trkpt>
      <trkpt lat="44.63276" lon="5.19856">
        <ele>1343</ele>
        <time>2026-05-25T13:31:49.000Z</time>
      </trkpt>
      <trkpt lat="44.63276" lon="5.19856">
        <ele>1343</ele>
        <time>2026-05-25T13:31:50.000Z</time>
      </trkpt>
      <trkpt lat="44.63276" lon="5.19856">
        <ele>1343</ele>
        <time>2026-05-25T13:31:51.000Z</time>
      </trkpt>
      <trkpt lat="44.63276" lon="5.19856">
        <ele>1343</ele>
        <time>2026-05-25T13:31:52.000Z</time>
      </trkpt>
      <trkpt lat="44.63274" lon="5.19858">
        <ele>1342</ele>
        <time>2026-05-25T13:31:53.000Z</time>
      </trkpt>
      <trkpt lat="44.63273" lon="5.19859">
        <ele>1341</ele>
        <time>2026-05-25T13:31:54.000Z</time>
      </trkpt>
      <trkpt lat="44.63273" lon="5.19859">
        <ele>1341</ele>
        <time>2026-05-25T13:31:55.000Z</time>
      </trkpt>
      <trkpt lat="44.63273" lon="5.1986">
        <ele>1340</ele>
        <time>2026-05-25T13:31:56.000Z</time>
      </trkpt>
      <trkpt lat="44.63272" lon="5.1986">
        <ele>1340</ele>
        <time>2026-05-25T13:31:57.000Z</time>
      </trkpt>
      <trkpt lat="44.63272" lon="5.1986">
        <ele>1340</ele>
        <time>2026-05-25T13:31:58.000Z</time>
      </trkpt>
      <trkpt lat="44.63272" lon="5.1986">
        <ele>1340</ele>
        <time>2026-05-25T13:31:59.000Z</time>
      </trkpt>
      <trkpt lat="44.63272" lon="5.1986">
        <ele>1340</ele>
        <time>2026-05-25T13:32:00.000Z</time>
      </trkpt>
      <trkpt lat="44.63272" lon="5.19861">
        <ele>1339</ele>
        <time>2026-05-25T13:32:01.000Z</time>
      </trkpt>
      <trkpt lat="44.63272" lon="5.19861">
        <ele>1339</ele>
        <time>2026-05-25T13:32:02.000Z</time>
      </trkpt>
      <trkpt lat="44.63271" lon="5.19862">
        <ele>1338</ele>
        <time>2026-05-25T13:32:03.000Z</time>
      </trkpt>
      <trkpt lat="44.63271" lon="5.19862">
        <ele>1338</ele>
        <time>2026-05-25T13:32:04.000Z</time>
      </trkpt>
      <trkpt lat="44.63271" lon="5.19863">
        <ele>1338</ele>
        <time>2026-05-25T13:32:05.000Z</time>
      </trkpt>
      <trkpt lat="44.6327" lon="5.19864">
        <ele>1337</ele>
        <time>2026-05-25T13:32:06.000Z</time>
      </trkpt>
      <trkpt lat="44.6327" lon="5.19864">
        <ele>1337</ele>
        <time>2026-05-25T13:32:07.000Z</time>
      </trkpt>
      <trkpt lat="44.6327" lon="5.19864">
        <ele>1337</ele>
        <time>2026-05-25T13:32:08.000Z</time>
      </trkpt>
      <trkpt lat="44.6327" lon="5.19865">
        <ele>1336</ele>
        <time>2026-05-25T13:32:09.000Z</time>
      </trkpt>
      <trkpt lat="44.6327" lon="5.19865">
        <ele>1336</ele>
        <time>2026-05-25T13:32:10.000Z</time>
      </trkpt>
      <trkpt lat="44.6327" lon="5.19865">
        <ele>1335</ele>
        <time>2026-05-25T13:32:11.000Z</time>
      </trkpt>
      <trkpt lat="44.63269" lon="5.19866">
        <ele>1335</ele>
        <time>2026-05-25T13:32:12.000Z</time>
      </trkpt>
      <trkpt lat="44.63269" lon="5.19866">
        <ele>1335</ele>
        <time>2026-05-25T13:32:13.000Z</time>
      </trkpt>
      <trkpt lat="44.63269" lon="5.19866">
        <ele>1335</ele>
        <time>2026-05-25T13:32:14.000Z</time>
      </trkpt>
      <trkpt lat="44.63269" lon="5.19866">
        <ele>1335</ele>
        <time>2026-05-25T13:32:15.000Z</time>
      </trkpt>
      <trkpt lat="44.63269" lon="5.19866">
        <ele>1335</ele>
        <time>2026-05-25T13:32:16.000Z</time>
      </trkpt>
      <trkpt lat="44.63268" lon="5.19867">
        <ele>1334</ele>
        <time>2026-05-25T13:32:17.000Z</time>
      </trkpt>
      <trkpt lat="44.63268" lon="5.19868">
        <ele>1334</ele>
        <time>2026-05-25T13:32:18.000Z</time>
      </trkpt>
      <trkpt lat="44.63268" lon="5.19869">
        <ele>1334</ele>
        <time>2026-05-25T13:32:19.000Z</time>
      </trkpt>
      <trkpt lat="44.63267" lon="5.1987">
        <ele>1334</ele>
        <time>2026-05-25T13:32:20.000Z</time>
      </trkpt>
      <trkpt lat="44.63268" lon="5.19871">
        <ele>1334</ele>
        <time>2026-05-25T13:32:21.000Z</time>
      </trkpt>
      <trkpt lat="44.63268" lon="5.19872">
        <ele>1333</ele>
        <time>2026-05-25T13:32:22.000Z</time>
      </trkpt>
      <trkpt lat="44.63267" lon="5.19872">
        <ele>1334</ele>
        <time>2026-05-25T13:32:23.000Z</time>
      </trkpt>
      <trkpt lat="44.63267" lon="5.19872">
        <ele>1334</ele>
        <time>2026-05-25T13:32:24.000Z</time>
      </trkpt>
      <trkpt lat="44.63267" lon="5.19872">
        <ele>1334</ele>
        <time>2026-05-25T13:32:25.000Z</time>
      </trkpt>
      <trkpt lat="44.63266" lon="5.19873">
        <ele>1333</ele>
        <time>2026-05-25T13:32:26.000Z</time>
      </trkpt>
      <trkpt lat="44.63265" lon="5.19874">
        <ele>1333</ele>
        <time>2026-05-25T13:32:27.000Z</time>
      </trkpt>
      <trkpt lat="44.63265" lon="5.19875">
        <ele>1334</ele>
        <time>2026-05-25T13:32:28.000Z</time>
      </trkpt>
      <trkpt lat="44.63265" lon="5.19876">
        <ele>1333</ele>
        <time>2026-05-25T13:32:29.000Z</time>
      </trkpt>
      <trkpt lat="44.63265" lon="5.19877">
        <ele>1333</ele>
        <time>2026-05-25T13:32:30.000Z</time>
      </trkpt>
      <trkpt lat="44.63264" lon="5.19878">
        <ele>1333</ele>
        <time>2026-05-25T13:32:31.000Z</time>
      </trkpt>
      <trkpt lat="44.63264" lon="5.19879">
        <ele>1333</ele>
        <time>2026-05-25T13:32:32.000Z</time>
      </trkpt>
      <trkpt lat="44.63264" lon="5.1988">
        <ele>1332</ele>
        <time>2026-05-25T13:32:33.000Z</time>
      </trkpt>
      <trkpt lat="44.63263" lon="5.1988">
        <ele>1332</ele>
        <time>2026-05-25T13:32:34.000Z</time>
      </trkpt>
      <trkpt lat="44.63263" lon="5.1988">
        <ele>1332</ele>
        <time>2026-05-25T13:32:35.000Z</time>
      </trkpt>
      <trkpt lat="44.63263" lon="5.1988">
        <ele>1332</ele>
        <time>2026-05-25T13:32:36.000Z</time>
      </trkpt>
      <trkpt lat="44.63262" lon="5.19881">
        <ele>1331</ele>
        <time>2026-05-25T13:32:37.000Z</time>
      </trkpt>
      <trkpt lat="44.63261" lon="5.19882">
        <ele>1331</ele>
        <time>2026-05-25T13:32:38.000Z</time>
      </trkpt>
      <trkpt lat="44.63261" lon="5.19883">
        <ele>1331</ele>
        <time>2026-05-25T13:32:39.000Z</time>
      </trkpt>
      <trkpt lat="44.6326" lon="5.19884">
        <ele>1331</ele>
        <time>2026-05-25T13:32:40.000Z</time>
      </trkpt>
      <trkpt lat="44.6326" lon="5.19885">
        <ele>1331</ele>
        <time>2026-05-25T13:32:41.000Z</time>
      </trkpt>
      <trkpt lat="44.63259" lon="5.19886">
        <ele>1331</ele>
        <time>2026-05-25T13:32:42.000Z</time>
      </trkpt>
      <trkpt lat="44.63259" lon="5.19887">
        <ele>1331</ele>
        <time>2026-05-25T13:32:43.000Z</time>
      </trkpt>
      <trkpt lat="44.63259" lon="5.19888">
        <ele>1331</ele>
        <time>2026-05-25T13:32:44.000Z</time>
      </trkpt>
      <trkpt lat="44.63259" lon="5.19888">
        <ele>1331</ele>
        <time>2026-05-25T13:32:45.000Z</time>
      </trkpt>
      <trkpt lat="44.63259" lon="5.19888">
        <ele>1331</ele>
        <time>2026-05-25T13:32:46.000Z</time>
      </trkpt>
      <trkpt lat="44.63259" lon="5.19889">
        <ele>1331</ele>
        <time>2026-05-25T13:32:47.000Z</time>
      </trkpt>
      <trkpt lat="44.63259" lon="5.19889">
        <ele>1331</ele>
        <time>2026-05-25T13:32:48.000Z</time>
      </trkpt>
      <trkpt lat="44.63259" lon="5.19889">
        <ele>1331</ele>
        <time>2026-05-25T13:32:49.000Z</time>
      </trkpt>
      <trkpt lat="44.63259" lon="5.19889">
        <ele>1331</ele>
        <time>2026-05-25T13:32:50.000Z</time>
      </trkpt>
      <trkpt lat="44.63259" lon="5.19889">
        <ele>1331</ele>
        <time>2026-05-25T13:32:51.000Z</time>
      </trkpt>
      <trkpt lat="44.63259" lon="5.19889">
        <ele>1331</ele>
        <time>2026-05-25T13:32:52.000Z</time>
      </trkpt>
      <trkpt lat="44.63257" lon="5.19891">
        <ele>1331</ele>
        <time>2026-05-25T13:32:53.000Z</time>
      </trkpt>
      <trkpt lat="44.63257" lon="5.19892">
        <ele>1330</ele>
        <time>2026-05-25T13:32:54.000Z</time>
      </trkpt>
      <trkpt lat="44.63257" lon="5.19893">
        <ele>1330</ele>
        <time>2026-05-25T13:32:55.000Z</time>
      </trkpt>
      <trkpt lat="44.63257" lon="5.19893">
        <ele>1330</ele>
        <time>2026-05-25T13:32:56.000Z</time>
      </trkpt>
      <trkpt lat="44.63257" lon="5.19893">
        <ele>1330</ele>
        <time>2026-05-25T13:32:57.000Z</time>
      </trkpt>
      <trkpt lat="44.63257" lon="5.19893">
        <ele>1330</ele>
        <time>2026-05-25T13:32:58.000Z</time>
      </trkpt>
      <trkpt lat="44.63257" lon="5.19893">
        <ele>1330</ele>
        <time>2026-05-25T13:32:59.000Z</time>
      </trkpt>
      <trkpt lat="44.63257" lon="5.19893">
        <ele>1330</ele>
        <time>2026-05-25T13:33:00.000Z</time>
      </trkpt>
      <trkpt lat="44.63256" lon="5.19895">
        <ele>1329</ele>
        <time>2026-05-25T13:33:01.000Z</time>
      </trkpt>
      <trkpt lat="44.63256" lon="5.19895">
        <ele>1329</ele>
        <time>2026-05-25T13:33:02.000Z</time>
      </trkpt>
      <trkpt lat="44.63255" lon="5.19896">
        <ele>1329</ele>
        <time>2026-05-25T13:33:03.000Z</time>
      </trkpt>
      <trkpt lat="44.63255" lon="5.19897">
        <ele>1328</ele>
        <time>2026-05-25T13:33:04.000Z</time>
      </trkpt>
      <trkpt lat="44.63255" lon="5.19898">
        <ele>1328</ele>
        <time>2026-05-25T13:33:05.000Z</time>
      </trkpt>
      <trkpt lat="44.63255" lon="5.199">
        <ele>1328</ele>
        <time>2026-05-25T13:33:06.000Z</time>
      </trkpt>
      <trkpt lat="44.63256" lon="5.19902">
        <ele>1328</ele>
        <time>2026-05-25T13:33:07.000Z</time>
      </trkpt>
      <trkpt lat="44.63256" lon="5.19903">
        <ele>1328</ele>
        <time>2026-05-25T13:33:08.000Z</time>
      </trkpt>
      <trkpt lat="44.63256" lon="5.19905">
        <ele>1328</ele>
        <time>2026-05-25T13:33:09.000Z</time>
      </trkpt>
      <trkpt lat="44.63256" lon="5.19907">
        <ele>1328</ele>
        <time>2026-05-25T13:33:10.000Z</time>
      </trkpt>
      <trkpt lat="44.63257" lon="5.19908">
        <ele>1328</ele>
        <time>2026-05-25T13:33:11.000Z</time>
      </trkpt>
      <trkpt lat="44.63257" lon="5.19909">
        <ele>1328</ele>
        <time>2026-05-25T13:33:12.000Z</time>
      </trkpt>
      <trkpt lat="44.63258" lon="5.1991">
        <ele>1329</ele>
        <time>2026-05-25T13:33:13.000Z</time>
      </trkpt>
      <trkpt lat="44.63258" lon="5.19911">
        <ele>1329</ele>
        <time>2026-05-25T13:33:14.000Z</time>
      </trkpt>
      <trkpt lat="44.63259" lon="5.19912">
        <ele>1329</ele>
        <time>2026-05-25T13:33:15.000Z</time>
      </trkpt>
      <trkpt lat="44.63259" lon="5.19914">
        <ele>1328</ele>
        <time>2026-05-25T13:33:16.000Z</time>
      </trkpt>
      <trkpt lat="44.6326" lon="5.19915">
        <ele>1329</ele>
        <time>2026-05-25T13:33:17.000Z</time>
      </trkpt>
      <trkpt lat="44.63261" lon="5.19916">
        <ele>1329</ele>
        <time>2026-05-25T13:33:18.000Z</time>
      </trkpt>
      <trkpt lat="44.63261" lon="5.19916">
        <ele>1329</ele>
        <time>2026-05-25T13:33:19.000Z</time>
      </trkpt>
      <trkpt lat="44.63262" lon="5.19917">
        <ele>1328</ele>
        <time>2026-05-25T13:33:20.000Z</time>
      </trkpt>
      <trkpt lat="44.63263" lon="5.19918">
        <ele>1329</ele>
        <time>2026-05-25T13:33:21.000Z</time>
      </trkpt>
      <trkpt lat="44.63263" lon="5.19919">
        <ele>1329</ele>
        <time>2026-05-25T13:33:22.000Z</time>
      </trkpt>
      <trkpt lat="44.63264" lon="5.1992">
        <ele>1329</ele>
        <time>2026-05-25T13:33:23.000Z</time>
      </trkpt>
      <trkpt lat="44.63265" lon="5.19921">
        <ele>1329</ele>
        <time>2026-05-25T13:33:24.000Z</time>
      </trkpt>
      <trkpt lat="44.63265" lon="5.19922">
        <ele>1329</ele>
        <time>2026-05-25T13:33:25.000Z</time>
      </trkpt>
      <trkpt lat="44.63265" lon="5.19923">
        <ele>1329</ele>
        <time>2026-05-25T13:33:26.000Z</time>
      </trkpt>
      <trkpt lat="44.63266" lon="5.19924">
        <ele>1329</ele>
        <time>2026-05-25T13:33:27.000Z</time>
      </trkpt>
      <trkpt lat="44.63266" lon="5.19925">
        <ele>1329</ele>
        <time>2026-05-25T13:33:28.000Z</time>
      </trkpt>
      <trkpt lat="44.63267" lon="5.19926">
        <ele>1329</ele>
        <time>2026-05-25T13:33:29.000Z</time>
      </trkpt>
      <trkpt lat="44.63268" lon="5.19927">
        <ele>1328</ele>
        <time>2026-05-25T13:33:30.000Z</time>
      </trkpt>
      <trkpt lat="44.63268" lon="5.19928">
        <ele>1328</ele>
        <time>2026-05-25T13:33:31.000Z</time>
      </trkpt>
      <trkpt lat="44.63268" lon="5.19929">
        <ele>1329</ele>
        <time>2026-05-25T13:33:32.000Z</time>
      </trkpt>
      <trkpt lat="44.63269" lon="5.19931">
        <ele>1328</ele>
        <time>2026-05-25T13:33:33.000Z</time>
      </trkpt>
      <trkpt lat="44.63269" lon="5.19932">
        <ele>1328</ele>
        <time>2026-05-25T13:33:34.000Z</time>
      </trkpt>
      <trkpt lat="44.63269" lon="5.19933">
        <ele>1328</ele>
        <time>2026-05-25T13:33:35.000Z</time>
      </trkpt>
      <trkpt lat="44.6327" lon="5.19935">
        <ele>1328</ele>
        <time>2026-05-25T13:33:36.000Z</time>
      </trkpt>
      <trkpt lat="44.6327" lon="5.19935">
        <ele>1328</ele>
        <time>2026-05-25T13:33:37.000Z</time>
      </trkpt>
      <trkpt lat="44.63271" lon="5.19937">
        <ele>1328</ele>
        <time>2026-05-25T13:33:38.000Z</time>
      </trkpt>
      <trkpt lat="44.63271" lon="5.19939">
        <ele>1328</ele>
        <time>2026-05-25T13:33:39.000Z</time>
      </trkpt>
      <trkpt lat="44.63271" lon="5.1994">
        <ele>1328</ele>
        <time>2026-05-25T13:33:40.000Z</time>
      </trkpt>
      <trkpt lat="44.63271" lon="5.19941">
        <ele>1328</ele>
        <time>2026-05-25T13:33:41.000Z</time>
      </trkpt>
      <trkpt lat="44.63271" lon="5.19942">
        <ele>1328</ele>
        <time>2026-05-25T13:33:42.000Z</time>
      </trkpt>
      <trkpt lat="44.63272" lon="5.19943">
        <ele>1328</ele>
        <time>2026-05-25T13:33:43.000Z</time>
      </trkpt>
      <trkpt lat="44.63273" lon="5.19945">
        <ele>1328</ele>
        <time>2026-05-25T13:33:44.000Z</time>
      </trkpt>
      <trkpt lat="44.63273" lon="5.19946">
        <ele>1329</ele>
        <time>2026-05-25T13:33:45.000Z</time>
      </trkpt>
      <trkpt lat="44.63273" lon="5.19948">
        <ele>1329</ele>
        <time>2026-05-25T13:33:46.000Z</time>
      </trkpt>
      <trkpt lat="44.63273" lon="5.19949">
        <ele>1328</ele>
        <time>2026-05-25T13:33:47.000Z</time>
      </trkpt>
      <trkpt lat="44.63274" lon="5.1995">
        <ele>1328</ele>
        <time>2026-05-25T13:33:48.000Z</time>
      </trkpt>
      <trkpt lat="44.63274" lon="5.19951">
        <ele>1328</ele>
        <time>2026-05-25T13:33:49.000Z</time>
      </trkpt>
      <trkpt lat="44.63274" lon="5.19952">
        <ele>1327</ele>
        <time>2026-05-25T13:33:50.000Z</time>
      </trkpt>
      <trkpt lat="44.63274" lon="5.19952">
        <ele>1327</ele>
        <time>2026-05-25T13:33:51.000Z</time>
      </trkpt>
      <trkpt lat="44.63274" lon="5.19953">
        <ele>1327</ele>
        <time>2026-05-25T13:33:52.000Z</time>
      </trkpt>
      <trkpt lat="44.63274" lon="5.19954">
        <ele>1327</ele>
        <time>2026-05-25T13:33:53.000Z</time>
      </trkpt>
      <trkpt lat="44.63274" lon="5.19955">
        <ele>1327</ele>
        <time>2026-05-25T13:33:54.000Z</time>
      </trkpt>
      <trkpt lat="44.63274" lon="5.19956">
        <ele>1327</ele>
        <time>2026-05-25T13:33:55.000Z</time>
      </trkpt>
      <trkpt lat="44.63274" lon="5.19957">
        <ele>1327</ele>
        <time>2026-05-25T13:33:56.000Z</time>
      </trkpt>
      <trkpt lat="44.63274" lon="5.19958">
        <ele>1327</ele>
        <time>2026-05-25T13:33:57.000Z</time>
      </trkpt>
      <trkpt lat="44.63274" lon="5.19959">
        <ele>1327</ele>
        <time>2026-05-25T13:33:58.000Z</time>
      </trkpt>
      <trkpt lat="44.63274" lon="5.19959">
        <ele>1327</ele>
        <time>2026-05-25T13:33:59.000Z</time>
      </trkpt>
      <trkpt lat="44.63274" lon="5.1996">
        <ele>1326</ele>
        <time>2026-05-25T13:34:00.000Z</time>
      </trkpt>
      <trkpt lat="44.63273" lon="5.19961">
        <ele>1326</ele>
        <time>2026-05-25T13:34:01.000Z</time>
      </trkpt>
      <trkpt lat="44.63273" lon="5.19961">
        <ele>1326</ele>
        <time>2026-05-25T13:34:02.000Z</time>
      </trkpt>
      <trkpt lat="44.63273" lon="5.19962">
        <ele>1325</ele>
        <time>2026-05-25T13:34:03.000Z</time>
      </trkpt>
      <trkpt lat="44.63272" lon="5.19962">
        <ele>1325</ele>
        <time>2026-05-25T13:34:04.000Z</time>
      </trkpt>
      <trkpt lat="44.63272" lon="5.19963">
        <ele>1325</ele>
        <time>2026-05-25T13:34:05.000Z</time>
      </trkpt>
      <trkpt lat="44.63272" lon="5.19964">
        <ele>1325</ele>
        <time>2026-05-25T13:34:06.000Z</time>
      </trkpt>
      <trkpt lat="44.63271" lon="5.19965">
        <ele>1325</ele>
        <time>2026-05-25T13:34:07.000Z</time>
      </trkpt>
      <trkpt lat="44.63271" lon="5.19966">
        <ele>1325</ele>
        <time>2026-05-25T13:34:08.000Z</time>
      </trkpt>
      <trkpt lat="44.63271" lon="5.19967">
        <ele>1324</ele>
        <time>2026-05-25T13:34:09.000Z</time>
      </trkpt>
      <trkpt lat="44.63272" lon="5.19967">
        <ele>1325</ele>
        <time>2026-05-25T13:34:10.000Z</time>
      </trkpt>
      <trkpt lat="44.63271" lon="5.19968">
        <ele>1324</ele>
        <time>2026-05-25T13:34:11.000Z</time>
      </trkpt>
      <trkpt lat="44.63271" lon="5.19969">
        <ele>1324</ele>
        <time>2026-05-25T13:34:12.000Z</time>
      </trkpt>
      <trkpt lat="44.63271" lon="5.19969">
        <ele>1325</ele>
        <time>2026-05-25T13:34:13.000Z</time>
      </trkpt>
      <trkpt lat="44.63271" lon="5.1997">
        <ele>1324</ele>
        <time>2026-05-25T13:34:14.000Z</time>
      </trkpt>
      <trkpt lat="44.63271" lon="5.1997">
        <ele>1324</ele>
        <time>2026-05-25T13:34:15.000Z</time>
      </trkpt>
      <trkpt lat="44.63271" lon="5.1997">
        <ele>1324</ele>
        <time>2026-05-25T13:34:16.000Z</time>
      </trkpt>
      <trkpt lat="44.63271" lon="5.19972">
        <ele>1324</ele>
        <time>2026-05-25T13:34:17.000Z</time>
      </trkpt>
      <trkpt lat="44.63271" lon="5.19974">
        <ele>1324</ele>
        <time>2026-05-25T13:34:18.000Z</time>
      </trkpt>
      <trkpt lat="44.63271" lon="5.19975">
        <ele>1324</ele>
        <time>2026-05-25T13:34:19.000Z</time>
      </trkpt>
      <trkpt lat="44.63271" lon="5.19975">
        <ele>1323</ele>
        <time>2026-05-25T13:34:20.000Z</time>
      </trkpt>
      <trkpt lat="44.63271" lon="5.19976">
        <ele>1323</ele>
        <time>2026-05-25T13:34:21.000Z</time>
      </trkpt>
      <trkpt lat="44.63271" lon="5.19977">
        <ele>1323</ele>
        <time>2026-05-25T13:34:22.000Z</time>
      </trkpt>
      <trkpt lat="44.63271" lon="5.19978">
        <ele>1323</ele>
        <time>2026-05-25T13:34:23.000Z</time>
      </trkpt>
      <trkpt lat="44.63272" lon="5.19979">
        <ele>1323</ele>
        <time>2026-05-25T13:34:24.000Z</time>
      </trkpt>
      <trkpt lat="44.63272" lon="5.1998">
        <ele>1323</ele>
        <time>2026-05-25T13:34:25.000Z</time>
      </trkpt>
      <trkpt lat="44.63271" lon="5.19982">
        <ele>1323</ele>
        <time>2026-05-25T13:34:26.000Z</time>
      </trkpt>
      <trkpt lat="44.63271" lon="5.19982">
        <ele>1323</ele>
        <time>2026-05-25T13:34:27.000Z</time>
      </trkpt>
      <trkpt lat="44.63271" lon="5.19983">
        <ele>1323</ele>
        <time>2026-05-25T13:34:28.000Z</time>
      </trkpt>
      <trkpt lat="44.63272" lon="5.19984">
        <ele>1323</ele>
        <time>2026-05-25T13:34:29.000Z</time>
      </trkpt>
      <trkpt lat="44.63272" lon="5.19984">
        <ele>1323</ele>
        <time>2026-05-25T13:34:30.000Z</time>
      </trkpt>
      <trkpt lat="44.63272" lon="5.19984">
        <ele>1323</ele>
        <time>2026-05-25T13:34:31.000Z</time>
      </trkpt>
      <trkpt lat="44.63272" lon="5.19985">
        <ele>1323</ele>
        <time>2026-05-25T13:34:32.000Z</time>
      </trkpt>
      <trkpt lat="44.63272" lon="5.19986">
        <ele>1322</ele>
        <time>2026-05-25T13:34:33.000Z</time>
      </trkpt>
      <trkpt lat="44.63271" lon="5.19986">
        <ele>1322</ele>
        <time>2026-05-25T13:34:34.000Z</time>
      </trkpt>
      <trkpt lat="44.63271" lon="5.19987">
        <ele>1322</ele>
        <time>2026-05-25T13:34:35.000Z</time>
      </trkpt>
      <trkpt lat="44.63271" lon="5.19988">
        <ele>1321</ele>
        <time>2026-05-25T13:34:36.000Z</time>
      </trkpt>
      <trkpt lat="44.63271" lon="5.19988">
        <ele>1321</ele>
        <time>2026-05-25T13:34:37.000Z</time>
      </trkpt>
      <trkpt lat="44.63271" lon="5.19988">
        <ele>1321</ele>
        <time>2026-05-25T13:34:38.000Z</time>
      </trkpt>
      <trkpt lat="44.63271" lon="5.19988">
        <ele>1320</ele>
        <time>2026-05-25T13:34:39.000Z</time>
      </trkpt>
      <trkpt lat="44.6327" lon="5.19988">
        <ele>1320</ele>
        <time>2026-05-25T13:34:40.000Z</time>
      </trkpt>
      <trkpt lat="44.63269" lon="5.19988">
        <ele>1319</ele>
        <time>2026-05-25T13:34:41.000Z</time>
      </trkpt>
      <trkpt lat="44.63268" lon="5.19989">
        <ele>1319</ele>
        <time>2026-05-25T13:34:42.000Z</time>
      </trkpt>
      <trkpt lat="44.63267" lon="5.1999">
        <ele>1319</ele>
        <time>2026-05-25T13:34:43.000Z</time>
      </trkpt>
      <trkpt lat="44.63267" lon="5.1999">
        <ele>1319</ele>
        <time>2026-05-25T13:34:44.000Z</time>
      </trkpt>
      <trkpt lat="44.63266" lon="5.1999">
        <ele>1319</ele>
        <time>2026-05-25T13:34:45.000Z</time>
      </trkpt>
      <trkpt lat="44.63266" lon="5.19991">
        <ele>1319</ele>
        <time>2026-05-25T13:34:46.000Z</time>
      </trkpt>
      <trkpt lat="44.63266" lon="5.1999">
        <ele>1318</ele>
        <time>2026-05-25T13:34:47.000Z</time>
      </trkpt>
      <trkpt lat="44.63265" lon="5.1999">
        <ele>1318</ele>
        <time>2026-05-25T13:34:48.000Z</time>
      </trkpt>
      <trkpt lat="44.63264" lon="5.19991">
        <ele>1318</ele>
        <time>2026-05-25T13:34:49.000Z</time>
      </trkpt>
      <trkpt lat="44.63264" lon="5.19991">
        <ele>1318</ele>
        <time>2026-05-25T13:34:50.000Z</time>
      </trkpt>
      <trkpt lat="44.63263" lon="5.19991">
        <ele>1318</ele>
        <time>2026-05-25T13:34:51.000Z</time>
      </trkpt>
      <trkpt lat="44.63263" lon="5.19992">
        <ele>1318</ele>
        <time>2026-05-25T13:34:52.000Z</time>
      </trkpt>
      <trkpt lat="44.63262" lon="5.19992">
        <ele>1318</ele>
        <time>2026-05-25T13:34:53.000Z</time>
      </trkpt>
      <trkpt lat="44.63262" lon="5.19993">
        <ele>1317</ele>
        <time>2026-05-25T13:34:54.000Z</time>
      </trkpt>
      <trkpt lat="44.63262" lon="5.19993">
        <ele>1317</ele>
        <time>2026-05-25T13:34:55.000Z</time>
      </trkpt>
      <trkpt lat="44.63261" lon="5.19994">
        <ele>1317</ele>
        <time>2026-05-25T13:34:56.000Z</time>
      </trkpt>
      <trkpt lat="44.63261" lon="5.19995">
        <ele>1316</ele>
        <time>2026-05-25T13:34:57.000Z</time>
      </trkpt>
      <trkpt lat="44.6326" lon="5.19996">
        <ele>1315</ele>
        <time>2026-05-25T13:34:58.000Z</time>
      </trkpt>
      <trkpt lat="44.6326" lon="5.19997">
        <ele>1314</ele>
        <time>2026-05-25T13:34:59.000Z</time>
      </trkpt>
      <trkpt lat="44.63259" lon="5.19998">
        <ele>1314</ele>
        <time>2026-05-25T13:35:00.000Z</time>
      </trkpt>
      <trkpt lat="44.63258" lon="5.19999">
        <ele>1314</ele>
        <time>2026-05-25T13:35:01.000Z</time>
      </trkpt>
      <trkpt lat="44.63257" lon="5.2">
        <ele>1314</ele>
        <time>2026-05-25T13:35:02.000Z</time>
      </trkpt>
      <trkpt lat="44.63256" lon="5.20001">
        <ele>1314</ele>
        <time>2026-05-25T13:35:03.000Z</time>
      </trkpt>
      <trkpt lat="44.63256" lon="5.20002">
        <ele>1314</ele>
        <time>2026-05-25T13:35:04.000Z</time>
      </trkpt>
      <trkpt lat="44.63255" lon="5.20003">
        <ele>1314</ele>
        <time>2026-05-25T13:35:05.000Z</time>
      </trkpt>
      <trkpt lat="44.63254" lon="5.20004">
        <ele>1314</ele>
        <time>2026-05-25T13:35:06.000Z</time>
      </trkpt>
      <trkpt lat="44.63254" lon="5.20005">
        <ele>1314</ele>
        <time>2026-05-25T13:35:07.000Z</time>
      </trkpt>
      <trkpt lat="44.63253" lon="5.20006">
        <ele>1314</ele>
        <time>2026-05-25T13:35:08.000Z</time>
      </trkpt>
      <trkpt lat="44.63252" lon="5.20007">
        <ele>1314</ele>
        <time>2026-05-25T13:35:09.000Z</time>
      </trkpt>
      <trkpt lat="44.63252" lon="5.20008">
        <ele>1314</ele>
        <time>2026-05-25T13:35:10.000Z</time>
      </trkpt>
      <trkpt lat="44.63251" lon="5.20009">
        <ele>1314</ele>
        <time>2026-05-25T13:35:11.000Z</time>
      </trkpt>
      <trkpt lat="44.63251" lon="5.20011">
        <ele>1314</ele>
        <time>2026-05-25T13:35:12.000Z</time>
      </trkpt>
      <trkpt lat="44.6325" lon="5.20012">
        <ele>1314</ele>
        <time>2026-05-25T13:35:13.000Z</time>
      </trkpt>
      <trkpt lat="44.6325" lon="5.20013">
        <ele>1314</ele>
        <time>2026-05-25T13:35:14.000Z</time>
      </trkpt>
      <trkpt lat="44.6325" lon="5.20014">
        <ele>1313</ele>
        <time>2026-05-25T13:35:15.000Z</time>
      </trkpt>
      <trkpt lat="44.63251" lon="5.20015">
        <ele>1313</ele>
        <time>2026-05-25T13:35:16.000Z</time>
      </trkpt>
      <trkpt lat="44.63251" lon="5.20016">
        <ele>1313</ele>
        <time>2026-05-25T13:35:17.000Z</time>
      </trkpt>
      <trkpt lat="44.63251" lon="5.20016">
        <ele>1313</ele>
        <time>2026-05-25T13:35:18.000Z</time>
      </trkpt>
      <trkpt lat="44.63251" lon="5.20016">
        <ele>1313</ele>
        <time>2026-05-25T13:35:19.000Z</time>
      </trkpt>
      <trkpt lat="44.63251" lon="5.20016">
        <ele>1313</ele>
        <time>2026-05-25T13:35:20.000Z</time>
      </trkpt>
      <trkpt lat="44.63251" lon="5.20016">
        <ele>1313</ele>
        <time>2026-05-25T13:35:21.000Z</time>
      </trkpt>
      <trkpt lat="44.63251" lon="5.20016">
        <ele>1313</ele>
        <time>2026-05-25T13:35:22.000Z</time>
      </trkpt>
      <trkpt lat="44.63251" lon="5.20016">
        <ele>1313</ele>
        <time>2026-05-25T13:35:23.000Z</time>
      </trkpt>
      <trkpt lat="44.63251" lon="5.20016">
        <ele>1313</ele>
        <time>2026-05-25T13:35:24.000Z</time>
      </trkpt>
      <trkpt lat="44.63249" lon="5.20017">
        <ele>1311</ele>
        <time>2026-05-25T13:35:25.000Z</time>
      </trkpt>
      <trkpt lat="44.63249" lon="5.20018">
        <ele>1311</ele>
        <time>2026-05-25T13:35:26.000Z</time>
      </trkpt>
      <trkpt lat="44.63248" lon="5.2002">
        <ele>1311</ele>
        <time>2026-05-25T13:35:27.000Z</time>
      </trkpt>
      <trkpt lat="44.63248" lon="5.20021">
        <ele>1310</ele>
        <time>2026-05-25T13:35:28.000Z</time>
      </trkpt>
      <trkpt lat="44.63247" lon="5.20022">
        <ele>1311</ele>
        <time>2026-05-25T13:35:29.000Z</time>
      </trkpt>
      <trkpt lat="44.63247" lon="5.20023">
        <ele>1310</ele>
        <time>2026-05-25T13:35:30.000Z</time>
      </trkpt>
      <trkpt lat="44.63247" lon="5.20023">
        <ele>1310</ele>
        <time>2026-05-25T13:35:31.000Z</time>
      </trkpt>
      <trkpt lat="44.63247" lon="5.20024">
        <ele>1311</ele>
        <time>2026-05-25T13:35:32.000Z</time>
      </trkpt>
      <trkpt lat="44.63247" lon="5.20024">
        <ele>1310</ele>
        <time>2026-05-25T13:35:33.000Z</time>
      </trkpt>
      <trkpt lat="44.63247" lon="5.20024">
        <ele>1311</ele>
        <time>2026-05-25T13:35:34.000Z</time>
      </trkpt>
      <trkpt lat="44.63247" lon="5.20024">
        <ele>1311</ele>
        <time>2026-05-25T13:35:35.000Z</time>
      </trkpt>
      <trkpt lat="44.63247" lon="5.20024">
        <ele>1311</ele>
        <time>2026-05-25T13:35:36.000Z</time>
      </trkpt>
      <trkpt lat="44.63247" lon="5.20024">
        <ele>1311</ele>
        <time>2026-05-25T13:35:37.000Z</time>
      </trkpt>
      <trkpt lat="44.63247" lon="5.20024">
        <ele>1311</ele>
        <time>2026-05-25T13:35:38.000Z</time>
      </trkpt>
      <trkpt lat="44.63247" lon="5.20024">
        <ele>1311</ele>
        <time>2026-05-25T13:35:39.000Z</time>
      </trkpt>
      <trkpt lat="44.63247" lon="5.20024">
        <ele>1311</ele>
        <time>2026-05-25T13:35:40.000Z</time>
      </trkpt>
      <trkpt lat="44.63246" lon="5.20023">
        <ele>1310</ele>
        <time>2026-05-25T13:35:41.000Z</time>
      </trkpt>
      <trkpt lat="44.63244" lon="5.20022">
        <ele>1310</ele>
        <time>2026-05-25T13:35:42.000Z</time>
      </trkpt>
      <trkpt lat="44.63244" lon="5.20022">
        <ele>1310</ele>
        <time>2026-05-25T13:35:43.000Z</time>
      </trkpt>
      <trkpt lat="44.63244" lon="5.20023">
        <ele>1310</ele>
        <time>2026-05-25T13:35:44.000Z</time>
      </trkpt>
      <trkpt lat="44.63244" lon="5.20023">
        <ele>1309</ele>
        <time>2026-05-25T13:35:45.000Z</time>
      </trkpt>
      <trkpt lat="44.63244" lon="5.20023">
        <ele>1309</ele>
        <time>2026-05-25T13:35:46.000Z</time>
      </trkpt>
      <trkpt lat="44.63244" lon="5.20023">
        <ele>1309</ele>
        <time>2026-05-25T13:35:47.000Z</time>
      </trkpt>
      <trkpt lat="44.63244" lon="5.20023">
        <ele>1309</ele>
        <time>2026-05-25T13:35:48.000Z</time>
      </trkpt>
      <trkpt lat="44.63244" lon="5.20023">
        <ele>1309</ele>
        <time>2026-05-25T13:35:49.000Z</time>
      </trkpt>
      <trkpt lat="44.63244" lon="5.20023">
        <ele>1309</ele>
        <time>2026-05-25T13:35:50.000Z</time>
      </trkpt>
      <trkpt lat="44.63244" lon="5.20023">
        <ele>1309</ele>
        <time>2026-05-25T13:35:51.000Z</time>
      </trkpt>
      <trkpt lat="44.63242" lon="5.20023">
        <ele>1308</ele>
        <time>2026-05-25T13:35:52.000Z</time>
      </trkpt>
      <trkpt lat="44.63242" lon="5.20023">
        <ele>1307</ele>
        <time>2026-05-25T13:35:53.000Z</time>
      </trkpt>
      <trkpt lat="44.63241" lon="5.20024">
        <ele>1307</ele>
        <time>2026-05-25T13:35:54.000Z</time>
      </trkpt>
      <trkpt lat="44.63241" lon="5.20024">
        <ele>1306</ele>
        <time>2026-05-25T13:35:55.000Z</time>
      </trkpt>
      <trkpt lat="44.63241" lon="5.20025">
        <ele>1306</ele>
        <time>2026-05-25T13:35:56.000Z</time>
      </trkpt>
      <trkpt lat="44.6324" lon="5.20025">
        <ele>1306</ele>
        <time>2026-05-25T13:35:57.000Z</time>
      </trkpt>
      <trkpt lat="44.6324" lon="5.20025">
        <ele>1306</ele>
        <time>2026-05-25T13:35:58.000Z</time>
      </trkpt>
      <trkpt lat="44.6324" lon="5.20025">
        <ele>1306</ele>
        <time>2026-05-25T13:35:59.000Z</time>
      </trkpt>
      <trkpt lat="44.63239" lon="5.20022">
        <ele>1304</ele>
        <time>2026-05-25T13:36:00.000Z</time>
      </trkpt>
      <trkpt lat="44.63239" lon="5.20022">
        <ele>1304</ele>
        <time>2026-05-25T13:36:01.000Z</time>
      </trkpt>
      <trkpt lat="44.63239" lon="5.20024">
        <ele>1304</ele>
        <time>2026-05-25T13:36:02.000Z</time>
      </trkpt>
      <trkpt lat="44.63239" lon="5.20025">
        <ele>1305</ele>
        <time>2026-05-25T13:36:03.000Z</time>
      </trkpt>
      <trkpt lat="44.63239" lon="5.20027">
        <ele>1305</ele>
        <time>2026-05-25T13:36:04.000Z</time>
      </trkpt>
      <trkpt lat="44.63239" lon="5.20028">
        <ele>1305</ele>
        <time>2026-05-25T13:36:05.000Z</time>
      </trkpt>
      <trkpt lat="44.63239" lon="5.2003">
        <ele>1305</ele>
        <time>2026-05-25T13:36:06.000Z</time>
      </trkpt>
      <trkpt lat="44.63239" lon="5.20031">
        <ele>1305</ele>
        <time>2026-05-25T13:36:07.000Z</time>
      </trkpt>
      <trkpt lat="44.63239" lon="5.20032">
        <ele>1305</ele>
        <time>2026-05-25T13:36:08.000Z</time>
      </trkpt>
      <trkpt lat="44.63238" lon="5.20033">
        <ele>1305</ele>
        <time>2026-05-25T13:36:09.000Z</time>
      </trkpt>
      <trkpt lat="44.63238" lon="5.20034">
        <ele>1305</ele>
        <time>2026-05-25T13:36:10.000Z</time>
      </trkpt>
      <trkpt lat="44.63238" lon="5.20035">
        <ele>1304</ele>
        <time>2026-05-25T13:36:11.000Z</time>
      </trkpt>
      <trkpt lat="44.63238" lon="5.20036">
        <ele>1304</ele>
        <time>2026-05-25T13:36:12.000Z</time>
      </trkpt>
      <trkpt lat="44.63238" lon="5.20037">
        <ele>1304</ele>
        <time>2026-05-25T13:36:13.000Z</time>
      </trkpt>
      <trkpt lat="44.63238" lon="5.20038">
        <ele>1304</ele>
        <time>2026-05-25T13:36:14.000Z</time>
      </trkpt>
      <trkpt lat="44.63238" lon="5.20038">
        <ele>1305</ele>
        <time>2026-05-25T13:36:15.000Z</time>
      </trkpt>
      <trkpt lat="44.63238" lon="5.20038">
        <ele>1305</ele>
        <time>2026-05-25T13:36:16.000Z</time>
      </trkpt>
      <trkpt lat="44.63238" lon="5.20038">
        <ele>1305</ele>
        <time>2026-05-25T13:36:17.000Z</time>
      </trkpt>
      <trkpt lat="44.63238" lon="5.20038">
        <ele>1305</ele>
        <time>2026-05-25T13:36:18.000Z</time>
      </trkpt>
      <trkpt lat="44.63239" lon="5.2004">
        <ele>1304</ele>
        <time>2026-05-25T13:36:19.000Z</time>
      </trkpt>
      <trkpt lat="44.63239" lon="5.20041">
        <ele>1303</ele>
        <time>2026-05-25T13:36:20.000Z</time>
      </trkpt>
      <trkpt lat="44.63239" lon="5.20041">
        <ele>1303</ele>
        <time>2026-05-25T13:36:21.000Z</time>
      </trkpt>
      <trkpt lat="44.63239" lon="5.20042">
        <ele>1303</ele>
        <time>2026-05-25T13:36:22.000Z</time>
      </trkpt>
      <trkpt lat="44.63239" lon="5.20042">
        <ele>1303</ele>
        <time>2026-05-25T13:36:23.000Z</time>
      </trkpt>
      <trkpt lat="44.63239" lon="5.20042">
        <ele>1303</ele>
        <time>2026-05-25T13:36:24.000Z</time>
      </trkpt>
      <trkpt lat="44.63239" lon="5.20042">
        <ele>1303</ele>
        <time>2026-05-25T13:36:25.000Z</time>
      </trkpt>
      <trkpt lat="44.63239" lon="5.20042">
        <ele>1303</ele>
        <time>2026-05-25T13:36:26.000Z</time>
      </trkpt>
      <trkpt lat="44.63238" lon="5.20042">
        <ele>1302</ele>
        <time>2026-05-25T13:36:27.000Z</time>
      </trkpt>
      <trkpt lat="44.63238" lon="5.20043">
        <ele>1302</ele>
        <time>2026-05-25T13:36:28.000Z</time>
      </trkpt>
      <trkpt lat="44.63237" lon="5.20042">
        <ele>1301</ele>
        <time>2026-05-25T13:36:29.000Z</time>
      </trkpt>
      <trkpt lat="44.63237" lon="5.20042">
        <ele>1300</ele>
        <time>2026-05-25T13:36:30.000Z</time>
      </trkpt>
      <trkpt lat="44.63237" lon="5.20042">
        <ele>1300</ele>
        <time>2026-05-25T13:36:31.000Z</time>
      </trkpt>
      <trkpt lat="44.63237" lon="5.20042">
        <ele>1300</ele>
        <time>2026-05-25T13:36:32.000Z</time>
      </trkpt>
      <trkpt lat="44.63237" lon="5.20043">
        <ele>1301</ele>
        <time>2026-05-25T13:36:33.000Z</time>
      </trkpt>
      <trkpt lat="44.63237" lon="5.20043">
        <ele>1300</ele>
        <time>2026-05-25T13:36:34.000Z</time>
      </trkpt>
      <trkpt lat="44.63236" lon="5.20043">
        <ele>1299</ele>
        <time>2026-05-25T13:36:35.000Z</time>
      </trkpt>
      <trkpt lat="44.63236" lon="5.20042">
        <ele>1299</ele>
        <time>2026-05-25T13:36:36.000Z</time>
      </trkpt>
      <trkpt lat="44.63235" lon="5.20041">
        <ele>1298</ele>
        <time>2026-05-25T13:36:37.000Z</time>
      </trkpt>
      <trkpt lat="44.63234" lon="5.20042">
        <ele>1298</ele>
        <time>2026-05-25T13:36:38.000Z</time>
      </trkpt>
      <trkpt lat="44.63234" lon="5.20043">
        <ele>1298</ele>
        <time>2026-05-25T13:36:39.000Z</time>
      </trkpt>
      <trkpt lat="44.63234" lon="5.20043">
        <ele>1298</ele>
        <time>2026-05-25T13:36:40.000Z</time>
      </trkpt>
      <trkpt lat="44.63234" lon="5.20043">
        <ele>1297</ele>
        <time>2026-05-25T13:36:41.000Z</time>
      </trkpt>
      <trkpt lat="44.63233" lon="5.20043">
        <ele>1297</ele>
        <time>2026-05-25T13:36:42.000Z</time>
      </trkpt>
      <trkpt lat="44.63233" lon="5.20043">
        <ele>1297</ele>
        <time>2026-05-25T13:36:43.000Z</time>
      </trkpt>
      <trkpt lat="44.63232" lon="5.20042">
        <ele>1297</ele>
        <time>2026-05-25T13:36:44.000Z</time>
      </trkpt>
      <trkpt lat="44.63232" lon="5.20042">
        <ele>1297</ele>
        <time>2026-05-25T13:36:45.000Z</time>
      </trkpt>
      <trkpt lat="44.63232" lon="5.20042">
        <ele>1297</ele>
        <time>2026-05-25T13:36:46.000Z</time>
      </trkpt>
      <trkpt lat="44.63231" lon="5.20042">
        <ele>1296</ele>
        <time>2026-05-25T13:36:47.000Z</time>
      </trkpt>
      <trkpt lat="44.63231" lon="5.20042">
        <ele>1296</ele>
        <time>2026-05-25T13:36:48.000Z</time>
      </trkpt>
      <trkpt lat="44.63231" lon="5.20042">
        <ele>1296</ele>
        <time>2026-05-25T13:36:49.000Z</time>
      </trkpt>
      <trkpt lat="44.6323" lon="5.20043">
        <ele>1295</ele>
        <time>2026-05-25T13:36:50.000Z</time>
      </trkpt>
      <trkpt lat="44.6323" lon="5.20044">
        <ele>1295</ele>
        <time>2026-05-25T13:36:51.000Z</time>
      </trkpt>
      <trkpt lat="44.6323" lon="5.20043">
        <ele>1295</ele>
        <time>2026-05-25T13:36:52.000Z</time>
      </trkpt>
      <trkpt lat="44.63229" lon="5.20042">
        <ele>1295</ele>
        <time>2026-05-25T13:36:53.000Z</time>
      </trkpt>
      <trkpt lat="44.63229" lon="5.20042">
        <ele>1295</ele>
        <time>2026-05-25T13:36:54.000Z</time>
      </trkpt>
      <trkpt lat="44.63228" lon="5.20041">
        <ele>1295</ele>
        <time>2026-05-25T13:36:55.000Z</time>
      </trkpt>
      <trkpt lat="44.63227" lon="5.20042">
        <ele>1295</ele>
        <time>2026-05-25T13:36:56.000Z</time>
      </trkpt>
      <trkpt lat="44.63227" lon="5.20042">
        <ele>1294</ele>
        <time>2026-05-25T13:36:57.000Z</time>
      </trkpt>
      <trkpt lat="44.63227" lon="5.20043">
        <ele>1294</ele>
        <time>2026-05-25T13:36:58.000Z</time>
      </trkpt>
      <trkpt lat="44.63226" lon="5.20044">
        <ele>1294</ele>
        <time>2026-05-25T13:36:59.000Z</time>
      </trkpt>
      <trkpt lat="44.63225" lon="5.20045">
        <ele>1294</ele>
        <time>2026-05-25T13:37:00.000Z</time>
      </trkpt>
      <trkpt lat="44.63225" lon="5.20045">
        <ele>1293</ele>
        <time>2026-05-25T13:37:01.000Z</time>
      </trkpt>
      <trkpt lat="44.63225" lon="5.20045">
        <ele>1293</ele>
        <time>2026-05-25T13:37:02.000Z</time>
      </trkpt>
      <trkpt lat="44.63224" lon="5.20044">
        <ele>1293</ele>
        <time>2026-05-25T13:37:03.000Z</time>
      </trkpt>
      <trkpt lat="44.63224" lon="5.20044">
        <ele>1292</ele>
        <time>2026-05-25T13:37:04.000Z</time>
      </trkpt>
      <trkpt lat="44.63224" lon="5.20044">
        <ele>1292</ele>
        <time>2026-05-25T13:37:05.000Z</time>
      </trkpt>
      <trkpt lat="44.63223" lon="5.20044">
        <ele>1291</ele>
        <time>2026-05-25T13:37:06.000Z</time>
      </trkpt>
      <trkpt lat="44.63222" lon="5.20045">
        <ele>1291</ele>
        <time>2026-05-25T13:37:07.000Z</time>
      </trkpt>
      <trkpt lat="44.63222" lon="5.20045">
        <ele>1291</ele>
        <time>2026-05-25T13:37:08.000Z</time>
      </trkpt>
      <trkpt lat="44.63222" lon="5.20045">
        <ele>1290</ele>
        <time>2026-05-25T13:37:09.000Z</time>
      </trkpt>
      <trkpt lat="44.63222" lon="5.20045">
        <ele>1290</ele>
        <time>2026-05-25T13:37:10.000Z</time>
      </trkpt>
      <trkpt lat="44.63222" lon="5.20045">
        <ele>1290</ele>
        <time>2026-05-25T13:37:11.000Z</time>
      </trkpt>
      <trkpt lat="44.63222" lon="5.20045">
        <ele>1290</ele>
        <time>2026-05-25T13:37:12.000Z</time>
      </trkpt>
      <trkpt lat="44.6322" lon="5.20046">
        <ele>1290</ele>
        <time>2026-05-25T13:37:13.000Z</time>
      </trkpt>
      <trkpt lat="44.6322" lon="5.20046">
        <ele>1290</ele>
        <time>2026-05-25T13:37:14.000Z</time>
      </trkpt>
      <trkpt lat="44.63219" lon="5.20045">
        <ele>1290</ele>
        <time>2026-05-25T13:37:15.000Z</time>
      </trkpt>
      <trkpt lat="44.63219" lon="5.20045">
        <ele>1290</ele>
        <time>2026-05-25T13:37:16.000Z</time>
      </trkpt>
      <trkpt lat="44.63218" lon="5.20044">
        <ele>1290</ele>
        <time>2026-05-25T13:37:17.000Z</time>
      </trkpt>
      <trkpt lat="44.63218" lon="5.20044">
        <ele>1290</ele>
        <time>2026-05-25T13:37:18.000Z</time>
      </trkpt>
      <trkpt lat="44.63218" lon="5.20044">
        <ele>1290</ele>
        <time>2026-05-25T13:37:19.000Z</time>
      </trkpt>
      <trkpt lat="44.63218" lon="5.20044">
        <ele>1290</ele>
        <time>2026-05-25T13:37:20.000Z</time>
      </trkpt>
      <trkpt lat="44.63218" lon="5.20045">
        <ele>1290</ele>
        <time>2026-05-25T13:37:21.000Z</time>
      </trkpt>
      <trkpt lat="44.63218" lon="5.20045">
        <ele>1289</ele>
        <time>2026-05-25T13:37:22.000Z</time>
      </trkpt>
      <trkpt lat="44.63217" lon="5.20046">
        <ele>1289</ele>
        <time>2026-05-25T13:37:23.000Z</time>
      </trkpt>
      <trkpt lat="44.63216" lon="5.20047">
        <ele>1289</ele>
        <time>2026-05-25T13:37:24.000Z</time>
      </trkpt>
      <trkpt lat="44.63216" lon="5.20046">
        <ele>1288</ele>
        <time>2026-05-25T13:37:25.000Z</time>
      </trkpt>
      <trkpt lat="44.63215" lon="5.20046">
        <ele>1288</ele>
        <time>2026-05-25T13:37:26.000Z</time>
      </trkpt>
      <trkpt lat="44.63214" lon="5.20046">
        <ele>1288</ele>
        <time>2026-05-25T13:37:27.000Z</time>
      </trkpt>
      <trkpt lat="44.63213" lon="5.20045">
        <ele>1288</ele>
        <time>2026-05-25T13:37:28.000Z</time>
      </trkpt>
      <trkpt lat="44.63213" lon="5.20045">
        <ele>1288</ele>
        <time>2026-05-25T13:37:29.000Z</time>
      </trkpt>
      <trkpt lat="44.63213" lon="5.20046">
        <ele>1287</ele>
        <time>2026-05-25T13:37:30.000Z</time>
      </trkpt>
      <trkpt lat="44.63213" lon="5.20046">
        <ele>1287</ele>
        <time>2026-05-25T13:37:31.000Z</time>
      </trkpt>
      <trkpt lat="44.63213" lon="5.20047">
        <ele>1287</ele>
        <time>2026-05-25T13:37:32.000Z</time>
      </trkpt>
      <trkpt lat="44.63213" lon="5.20048">
        <ele>1286</ele>
        <time>2026-05-25T13:37:33.000Z</time>
      </trkpt>
      <trkpt lat="44.63213" lon="5.20049">
        <ele>1286</ele>
        <time>2026-05-25T13:37:34.000Z</time>
      </trkpt>
      <trkpt lat="44.63212" lon="5.20049">
        <ele>1286</ele>
        <time>2026-05-25T13:37:35.000Z</time>
      </trkpt>
      <trkpt lat="44.63211" lon="5.20048">
        <ele>1285</ele>
        <time>2026-05-25T13:37:36.000Z</time>
      </trkpt>
      <trkpt lat="44.6321" lon="5.20048">
        <ele>1285</ele>
        <time>2026-05-25T13:37:37.000Z</time>
      </trkpt>
      <trkpt lat="44.63209" lon="5.20047">
        <ele>1285</ele>
        <time>2026-05-25T13:37:38.000Z</time>
      </trkpt>
      <trkpt lat="44.63208" lon="5.20048">
        <ele>1284</ele>
        <time>2026-05-25T13:37:39.000Z</time>
      </trkpt>
      <trkpt lat="44.63208" lon="5.20049">
        <ele>1284</ele>
        <time>2026-05-25T13:37:40.000Z</time>
      </trkpt>
      <trkpt lat="44.63207" lon="5.20051">
        <ele>1283</ele>
        <time>2026-05-25T13:37:41.000Z</time>
      </trkpt>
      <trkpt lat="44.63207" lon="5.20052">
        <ele>1283</ele>
        <time>2026-05-25T13:37:42.000Z</time>
      </trkpt>
      <trkpt lat="44.63207" lon="5.20054">
        <ele>1283</ele>
        <time>2026-05-25T13:37:43.000Z</time>
      </trkpt>
      <trkpt lat="44.63206" lon="5.20055">
        <ele>1283</ele>
        <time>2026-05-25T13:37:44.000Z</time>
      </trkpt>
      <trkpt lat="44.63205" lon="5.20055">
        <ele>1283</ele>
        <time>2026-05-25T13:37:45.000Z</time>
      </trkpt>
      <trkpt lat="44.63204" lon="5.20056">
        <ele>1282</ele>
        <time>2026-05-25T13:37:46.000Z</time>
      </trkpt>
      <trkpt lat="44.63203" lon="5.20056">
        <ele>1282</ele>
        <time>2026-05-25T13:37:47.000Z</time>
      </trkpt>
      <trkpt lat="44.63201" lon="5.20056">
        <ele>1282</ele>
        <time>2026-05-25T13:37:48.000Z</time>
      </trkpt>
      <trkpt lat="44.63201" lon="5.20056">
        <ele>1282</ele>
        <time>2026-05-25T13:37:49.000Z</time>
      </trkpt>
      <trkpt lat="44.632" lon="5.20056">
        <ele>1282</ele>
        <time>2026-05-25T13:37:50.000Z</time>
      </trkpt>
      <trkpt lat="44.63199" lon="5.20056">
        <ele>1281</ele>
        <time>2026-05-25T13:37:51.000Z</time>
      </trkpt>
      <trkpt lat="44.63198" lon="5.20055">
        <ele>1281</ele>
        <time>2026-05-25T13:37:52.000Z</time>
      </trkpt>
      <trkpt lat="44.63197" lon="5.20055">
        <ele>1281</ele>
        <time>2026-05-25T13:37:53.000Z</time>
      </trkpt>
      <trkpt lat="44.63196" lon="5.20055">
        <ele>1281</ele>
        <time>2026-05-25T13:37:54.000Z</time>
      </trkpt>
      <trkpt lat="44.63196" lon="5.20056">
        <ele>1282</ele>
        <time>2026-05-25T13:37:55.000Z</time>
      </trkpt>
      <trkpt lat="44.63196" lon="5.20058">
        <ele>1282</ele>
        <time>2026-05-25T13:37:56.000Z</time>
      </trkpt>
      <trkpt lat="44.63197" lon="5.20059">
        <ele>1282</ele>
        <time>2026-05-25T13:37:57.000Z</time>
      </trkpt>
      <trkpt lat="44.63197" lon="5.2006">
        <ele>1282</ele>
        <time>2026-05-25T13:37:58.000Z</time>
      </trkpt>
      <trkpt lat="44.63197" lon="5.2006">
        <ele>1282</ele>
        <time>2026-05-25T13:37:59.000Z</time>
      </trkpt>
      <trkpt lat="44.63197" lon="5.2006">
        <ele>1282</ele>
        <time>2026-05-25T13:38:00.000Z</time>
      </trkpt>
      <trkpt lat="44.63197" lon="5.2006">
        <ele>1282</ele>
        <time>2026-05-25T13:38:01.000Z</time>
      </trkpt>
      <trkpt lat="44.63197" lon="5.2006">
        <ele>1282</ele>
        <time>2026-05-25T13:38:02.000Z</time>
      </trkpt>
      <trkpt lat="44.63197" lon="5.2006">
        <ele>1282</ele>
        <time>2026-05-25T13:38:03.000Z</time>
      </trkpt>
      <trkpt lat="44.63197" lon="5.2006">
        <ele>1282</ele>
        <time>2026-05-25T13:38:04.000Z</time>
      </trkpt>
      <trkpt lat="44.63197" lon="5.2006">
        <ele>1282</ele>
        <time>2026-05-25T13:38:05.000Z</time>
      </trkpt>
      <trkpt lat="44.63197" lon="5.2006">
        <ele>1282</ele>
        <time>2026-05-25T13:38:06.000Z</time>
      </trkpt>
      <trkpt lat="44.63197" lon="5.2006">
        <ele>1282</ele>
        <time>2026-05-25T13:38:07.000Z</time>
      </trkpt>
      <trkpt lat="44.63197" lon="5.2006">
        <ele>1282</ele>
        <time>2026-05-25T13:38:08.000Z</time>
      </trkpt>
      <trkpt lat="44.63197" lon="5.2006">
        <ele>1282</ele>
        <time>2026-05-25T13:38:09.000Z</time>
      </trkpt>
      <trkpt lat="44.63198" lon="5.2006">
        <ele>1281</ele>
        <time>2026-05-25T13:38:10.000Z</time>
      </trkpt>
      <trkpt lat="44.63198" lon="5.2006">
        <ele>1281</ele>
        <time>2026-05-25T13:38:11.000Z</time>
      </trkpt>
      <trkpt lat="44.63198" lon="5.20061">
        <ele>1281</ele>
        <time>2026-05-25T13:38:12.000Z</time>
      </trkpt>
      <trkpt lat="44.63199" lon="5.20061">
        <ele>1282</ele>
        <time>2026-05-25T13:38:13.000Z</time>
      </trkpt>
      <trkpt lat="44.63199" lon="5.20062">
        <ele>1282</ele>
        <time>2026-05-25T13:38:14.000Z</time>
      </trkpt>
      <trkpt lat="44.63199" lon="5.20062">
        <ele>1282</ele>
        <time>2026-05-25T13:38:15.000Z</time>
      </trkpt>
      <trkpt lat="44.63199" lon="5.20062">
        <ele>1282</ele>
        <time>2026-05-25T13:38:16.000Z</time>
      </trkpt>
      <trkpt lat="44.63199" lon="5.20063">
        <ele>1282</ele>
        <time>2026-05-25T13:38:17.000Z</time>
      </trkpt>
      <trkpt lat="44.63199" lon="5.20064">
        <ele>1282</ele>
        <time>2026-05-25T13:38:18.000Z</time>
      </trkpt>
      <trkpt lat="44.632" lon="5.20065">
        <ele>1282</ele>
        <time>2026-05-25T13:38:19.000Z</time>
      </trkpt>
      <trkpt lat="44.63201" lon="5.20066">
        <ele>1281</ele>
        <time>2026-05-25T13:38:20.000Z</time>
      </trkpt>
      <trkpt lat="44.63201" lon="5.20066">
        <ele>1281</ele>
        <time>2026-05-25T13:38:21.000Z</time>
      </trkpt>
      <trkpt lat="44.632" lon="5.20068">
        <ele>1281</ele>
        <time>2026-05-25T13:38:22.000Z</time>
      </trkpt>
      <trkpt lat="44.63201" lon="5.20069">
        <ele>1281</ele>
        <time>2026-05-25T13:38:23.000Z</time>
      </trkpt>
      <trkpt lat="44.63202" lon="5.20069">
        <ele>1281</ele>
        <time>2026-05-25T13:38:24.000Z</time>
      </trkpt>
      <trkpt lat="44.63202" lon="5.2007">
        <ele>1281</ele>
        <time>2026-05-25T13:38:25.000Z</time>
      </trkpt>
      <trkpt lat="44.63203" lon="5.20071">
        <ele>1281</ele>
        <time>2026-05-25T13:38:26.000Z</time>
      </trkpt>
      <trkpt lat="44.63203" lon="5.20072">
        <ele>1280</ele>
        <time>2026-05-25T13:38:27.000Z</time>
      </trkpt>
      <trkpt lat="44.63203" lon="5.20073">
        <ele>1280</ele>
        <time>2026-05-25T13:38:28.000Z</time>
      </trkpt>
      <trkpt lat="44.63204" lon="5.20073">
        <ele>1280</ele>
        <time>2026-05-25T13:38:29.000Z</time>
      </trkpt>
      <trkpt lat="44.63204" lon="5.20073">
        <ele>1280</ele>
        <time>2026-05-25T13:38:30.000Z</time>
      </trkpt>
      <trkpt lat="44.63205" lon="5.20074">
        <ele>1280</ele>
        <time>2026-05-25T13:38:31.000Z</time>
      </trkpt>
      <trkpt lat="44.63206" lon="5.20075">
        <ele>1279</ele>
        <time>2026-05-25T13:38:32.000Z</time>
      </trkpt>
      <trkpt lat="44.63207" lon="5.20076">
        <ele>1279</ele>
        <time>2026-05-25T13:38:33.000Z</time>
      </trkpt>
      <trkpt lat="44.63207" lon="5.20076">
        <ele>1279</ele>
        <time>2026-05-25T13:38:34.000Z</time>
      </trkpt>
      <trkpt lat="44.63208" lon="5.20076">
        <ele>1278</ele>
        <time>2026-05-25T13:38:35.000Z</time>
      </trkpt>
      <trkpt lat="44.63209" lon="5.20076">
        <ele>1278</ele>
        <time>2026-05-25T13:38:36.000Z</time>
      </trkpt>
      <trkpt lat="44.63209" lon="5.20077">
        <ele>1278</ele>
        <time>2026-05-25T13:38:37.000Z</time>
      </trkpt>
      <trkpt lat="44.6321" lon="5.20077">
        <ele>1278</ele>
        <time>2026-05-25T13:38:38.000Z</time>
      </trkpt>
      <trkpt lat="44.63211" lon="5.20078">
        <ele>1278</ele>
        <time>2026-05-25T13:38:39.000Z</time>
      </trkpt>
      <trkpt lat="44.63211" lon="5.20078">
        <ele>1278</ele>
        <time>2026-05-25T13:38:40.000Z</time>
      </trkpt>
      <trkpt lat="44.63211" lon="5.20079">
        <ele>1278</ele>
        <time>2026-05-25T13:38:41.000Z</time>
      </trkpt>
      <trkpt lat="44.63211" lon="5.20079">
        <ele>1278</ele>
        <time>2026-05-25T13:38:42.000Z</time>
      </trkpt>
      <trkpt lat="44.63211" lon="5.20079">
        <ele>1278</ele>
        <time>2026-05-25T13:38:43.000Z</time>
      </trkpt>
      <trkpt lat="44.63211" lon="5.20079">
        <ele>1278</ele>
        <time>2026-05-25T13:38:44.000Z</time>
      </trkpt>
      <trkpt lat="44.63211" lon="5.20079">
        <ele>1278</ele>
        <time>2026-05-25T13:38:45.000Z</time>
      </trkpt>
      <trkpt lat="44.63211" lon="5.20079">
        <ele>1278</ele>
        <time>2026-05-25T13:38:46.000Z</time>
      </trkpt>
      <trkpt lat="44.63211" lon="5.20079">
        <ele>1278</ele>
        <time>2026-05-25T13:38:47.000Z</time>
      </trkpt>
      <trkpt lat="44.63211" lon="5.20079">
        <ele>1278</ele>
        <time>2026-05-25T13:38:48.000Z</time>
      </trkpt>
      <trkpt lat="44.63212" lon="5.20082">
        <ele>1278</ele>
        <time>2026-05-25T13:38:49.000Z</time>
      </trkpt>
      <trkpt lat="44.63212" lon="5.20083">
        <ele>1277</ele>
        <time>2026-05-25T13:38:50.000Z</time>
      </trkpt>
      <trkpt lat="44.63212" lon="5.20083">
        <ele>1277</ele>
        <time>2026-05-25T13:38:51.000Z</time>
      </trkpt>
      <trkpt lat="44.63213" lon="5.20084">
        <ele>1277</ele>
        <time>2026-05-25T13:38:52.000Z</time>
      </trkpt>
      <trkpt lat="44.63213" lon="5.20084">
        <ele>1277</ele>
        <time>2026-05-25T13:38:53.000Z</time>
      </trkpt>
      <trkpt lat="44.63213" lon="5.20084">
        <ele>1277</ele>
        <time>2026-05-25T13:38:54.000Z</time>
      </trkpt>
      <trkpt lat="44.63213" lon="5.20084">
        <ele>1277</ele>
        <time>2026-05-25T13:38:55.000Z</time>
      </trkpt>
      <trkpt lat="44.63213" lon="5.20084">
        <ele>1277</ele>
        <time>2026-05-25T13:38:56.000Z</time>
      </trkpt>
      <trkpt lat="44.63213" lon="5.20084">
        <ele>1277</ele>
        <time>2026-05-25T13:38:57.000Z</time>
      </trkpt>
      <trkpt lat="44.63213" lon="5.20084">
        <ele>1277</ele>
        <time>2026-05-25T13:38:58.000Z</time>
      </trkpt>
      <trkpt lat="44.63213" lon="5.20084">
        <ele>1277</ele>
        <time>2026-05-25T13:38:59.000Z</time>
      </trkpt>
      <trkpt lat="44.63213" lon="5.20084">
        <ele>1277</ele>
        <time>2026-05-25T13:39:00.000Z</time>
      </trkpt>
      <trkpt lat="44.63213" lon="5.20085">
        <ele>1275</ele>
        <time>2026-05-25T13:39:01.000Z</time>
      </trkpt>
      <trkpt lat="44.63214" lon="5.20086">
        <ele>1275</ele>
        <time>2026-05-25T13:39:02.000Z</time>
      </trkpt>
      <trkpt lat="44.63214" lon="5.20087">
        <ele>1275</ele>
        <time>2026-05-25T13:39:03.000Z</time>
      </trkpt>
      <trkpt lat="44.63213" lon="5.20088">
        <ele>1274</ele>
        <time>2026-05-25T13:39:04.000Z</time>
      </trkpt>
      <trkpt lat="44.63213" lon="5.20089">
        <ele>1273</ele>
        <time>2026-05-25T13:39:05.000Z</time>
      </trkpt>
      <trkpt lat="44.63213" lon="5.20089">
        <ele>1273</ele>
        <time>2026-05-25T13:39:06.000Z</time>
      </trkpt>
      <trkpt lat="44.63212" lon="5.20089">
        <ele>1273</ele>
        <time>2026-05-25T13:39:07.000Z</time>
      </trkpt>
      <trkpt lat="44.63211" lon="5.2009">
        <ele>1272</ele>
        <time>2026-05-25T13:39:08.000Z</time>
      </trkpt>
      <trkpt lat="44.63211" lon="5.20091">
        <ele>1273</ele>
        <time>2026-05-25T13:39:09.000Z</time>
      </trkpt>
      <trkpt lat="44.63211" lon="5.20092">
        <ele>1272</ele>
        <time>2026-05-25T13:39:10.000Z</time>
      </trkpt>
      <trkpt lat="44.63212" lon="5.20092">
        <ele>1273</ele>
        <time>2026-05-25T13:39:11.000Z</time>
      </trkpt>
      <trkpt lat="44.63212" lon="5.20093">
        <ele>1273</ele>
        <time>2026-05-25T13:39:12.000Z</time>
      </trkpt>
      <trkpt lat="44.63212" lon="5.20093">
        <ele>1273</ele>
        <time>2026-05-25T13:39:13.000Z</time>
      </trkpt>
      <trkpt lat="44.63212" lon="5.20093">
        <ele>1273</ele>
        <time>2026-05-25T13:39:14.000Z</time>
      </trkpt>
      <trkpt lat="44.63213" lon="5.20094">
        <ele>1273</ele>
        <time>2026-05-25T13:39:15.000Z</time>
      </trkpt>
      <trkpt lat="44.63214" lon="5.20095">
        <ele>1273</ele>
        <time>2026-05-25T13:39:16.000Z</time>
      </trkpt>
      <trkpt lat="44.63214" lon="5.20095">
        <ele>1273</ele>
        <time>2026-05-25T13:39:17.000Z</time>
      </trkpt>
      <trkpt lat="44.63214" lon="5.20095">
        <ele>1273</ele>
        <time>2026-05-25T13:39:18.000Z</time>
      </trkpt>
      <trkpt lat="44.63214" lon="5.20095">
        <ele>1273</ele>
        <time>2026-05-25T13:39:19.000Z</time>
      </trkpt>
      <trkpt lat="44.63214" lon="5.20095">
        <ele>1273</ele>
        <time>2026-05-25T13:39:20.000Z</time>
      </trkpt>
      <trkpt lat="44.63213" lon="5.20095">
        <ele>1271</ele>
        <time>2026-05-25T13:39:21.000Z</time>
      </trkpt>
      <trkpt lat="44.63212" lon="5.20096">
        <ele>1271</ele>
        <time>2026-05-25T13:39:22.000Z</time>
      </trkpt>
      <trkpt lat="44.63212" lon="5.20096">
        <ele>1271</ele>
        <time>2026-05-25T13:39:23.000Z</time>
      </trkpt>
      <trkpt lat="44.63212" lon="5.20096">
        <ele>1270</ele>
        <time>2026-05-25T13:39:24.000Z</time>
      </trkpt>
      <trkpt lat="44.63212" lon="5.20097">
        <ele>1270</ele>
        <time>2026-05-25T13:39:25.000Z</time>
      </trkpt>
      <trkpt lat="44.63213" lon="5.20098">
        <ele>1270</ele>
        <time>2026-05-25T13:39:26.000Z</time>
      </trkpt>
      <trkpt lat="44.63213" lon="5.20098">
        <ele>1270</ele>
        <time>2026-05-25T13:39:27.000Z</time>
      </trkpt>
      <trkpt lat="44.63213" lon="5.20098">
        <ele>1270</ele>
        <time>2026-05-25T13:39:28.000Z</time>
      </trkpt>
      <trkpt lat="44.63213" lon="5.20098">
        <ele>1270</ele>
        <time>2026-05-25T13:39:29.000Z</time>
      </trkpt>
      <trkpt lat="44.63213" lon="5.20098">
        <ele>1270</ele>
        <time>2026-05-25T13:39:30.000Z</time>
      </trkpt>
      <trkpt lat="44.63213" lon="5.20098">
        <ele>1270</ele>
        <time>2026-05-25T13:39:31.000Z</time>
      </trkpt>
      <trkpt lat="44.63213" lon="5.20098">
        <ele>1270</ele>
        <time>2026-05-25T13:39:32.000Z</time>
      </trkpt>
      <trkpt lat="44.63213" lon="5.20098">
        <ele>1270</ele>
        <time>2026-05-25T13:39:33.000Z</time>
      </trkpt>
      <trkpt lat="44.63213" lon="5.20098">
        <ele>1270</ele>
        <time>2026-05-25T13:39:34.000Z</time>
      </trkpt>
      <trkpt lat="44.63213" lon="5.20098">
        <ele>1270</ele>
        <time>2026-05-25T13:39:35.000Z</time>
      </trkpt>
      <trkpt lat="44.63211" lon="5.20101">
        <ele>1270</ele>
        <time>2026-05-25T13:39:36.000Z</time>
      </trkpt>
      <trkpt lat="44.63211" lon="5.20101">
        <ele>1269</ele>
        <time>2026-05-25T13:39:37.000Z</time>
      </trkpt>
      <trkpt lat="44.6321" lon="5.20102">
        <ele>1268</ele>
        <time>2026-05-25T13:39:38.000Z</time>
      </trkpt>
      <trkpt lat="44.6321" lon="5.20102">
        <ele>1268</ele>
        <time>2026-05-25T13:39:39.000Z</time>
      </trkpt>
      <trkpt lat="44.6321" lon="5.20102">
        <ele>1268</ele>
        <time>2026-05-25T13:39:40.000Z</time>
      </trkpt>
      <trkpt lat="44.6321" lon="5.20102">
        <ele>1268</ele>
        <time>2026-05-25T13:39:41.000Z</time>
      </trkpt>
      <trkpt lat="44.6321" lon="5.20102">
        <ele>1268</ele>
        <time>2026-05-25T13:39:42.000Z</time>
      </trkpt>
      <trkpt lat="44.6321" lon="5.20102">
        <ele>1268</ele>
        <time>2026-05-25T13:39:43.000Z</time>
      </trkpt>
      <trkpt lat="44.6321" lon="5.20102">
        <ele>1268</ele>
        <time>2026-05-25T13:39:44.000Z</time>
      </trkpt>
      <trkpt lat="44.6321" lon="5.20102">
        <ele>1268</ele>
        <time>2026-05-25T13:39:45.000Z</time>
      </trkpt>
      <trkpt lat="44.6321" lon="5.20102">
        <ele>1268</ele>
        <time>2026-05-25T13:39:46.000Z</time>
      </trkpt>
      <trkpt lat="44.63211" lon="5.20105">
        <ele>1266</ele>
        <time>2026-05-25T13:39:47.000Z</time>
      </trkpt>
      <trkpt lat="44.63211" lon="5.20106">
        <ele>1266</ele>
        <time>2026-05-25T13:39:48.000Z</time>
      </trkpt>
      <trkpt lat="44.63211" lon="5.20107">
        <ele>1265</ele>
        <time>2026-05-25T13:39:49.000Z</time>
      </trkpt>
      <trkpt lat="44.63211" lon="5.20108">
        <ele>1265</ele>
        <time>2026-05-25T13:39:50.000Z</time>
      </trkpt>
      <trkpt lat="44.63211" lon="5.20108">
        <ele>1265</ele>
        <time>2026-05-25T13:39:51.000Z</time>
      </trkpt>
      <trkpt lat="44.63211" lon="5.20108">
        <ele>1265</ele>
        <time>2026-05-25T13:39:52.000Z</time>
      </trkpt>
      <trkpt lat="44.63211" lon="5.20108">
        <ele>1265</ele>
        <time>2026-05-25T13:39:53.000Z</time>
      </trkpt>
      <trkpt lat="44.63211" lon="5.20108">
        <ele>1265</ele>
        <time>2026-05-25T13:39:54.000Z</time>
      </trkpt>
      <trkpt lat="44.63211" lon="5.20108">
        <ele>1265</ele>
        <time>2026-05-25T13:39:55.000Z</time>
      </trkpt>
      <trkpt lat="44.63211" lon="5.20108">
        <ele>1265</ele>
        <time>2026-05-25T13:39:56.000Z</time>
      </trkpt>
      <trkpt lat="44.63211" lon="5.20108">
        <ele>1265</ele>
        <time>2026-05-25T13:39:57.000Z</time>
      </trkpt>
      <trkpt lat="44.63211" lon="5.20108">
        <ele>1265</ele>
        <time>2026-05-25T13:39:58.000Z</time>
      </trkpt>
      <trkpt lat="44.63211" lon="5.20108">
        <ele>1265</ele>
        <time>2026-05-25T13:39:59.000Z</time>
      </trkpt>
      <trkpt lat="44.63211" lon="5.20108">
        <ele>1265</ele>
        <time>2026-05-25T13:40:00.000Z</time>
      </trkpt>
      <trkpt lat="44.63211" lon="5.20108">
        <ele>1265</ele>
        <time>2026-05-25T13:40:01.000Z</time>
      </trkpt>
      <trkpt lat="44.63211" lon="5.20108">
        <ele>1265</ele>
        <time>2026-05-25T13:40:02.000Z</time>
      </trkpt>
      <trkpt lat="44.63211" lon="5.20108">
        <ele>1265</ele>
        <time>2026-05-25T13:40:03.000Z</time>
      </trkpt>
      <trkpt lat="44.63211" lon="5.20108">
        <ele>1265</ele>
        <time>2026-05-25T13:40:04.000Z</time>
      </trkpt>
      <trkpt lat="44.63211" lon="5.20108">
        <ele>1265</ele>
        <time>2026-05-25T13:40:05.000Z</time>
      </trkpt>
      <trkpt lat="44.63211" lon="5.20108">
        <ele>1265</ele>
        <time>2026-05-25T13:40:06.000Z</time>
      </trkpt>
      <trkpt lat="44.63211" lon="5.20108">
        <ele>1265</ele>
        <time>2026-05-25T13:40:07.000Z</time>
      </trkpt>
      <trkpt lat="44.63211" lon="5.20108">
        <ele>1265</ele>
        <time>2026-05-25T13:40:08.000Z</time>
      </trkpt>
      <trkpt lat="44.63211" lon="5.20108">
        <ele>1265</ele>
        <time>2026-05-25T13:40:09.000Z</time>
      </trkpt>
      <trkpt lat="44.63211" lon="5.20108">
        <ele>1265</ele>
        <time>2026-05-25T13:40:10.000Z</time>
      </trkpt>
      <trkpt lat="44.63211" lon="5.20108">
        <ele>1265</ele>
        <time>2026-05-25T13:40:11.000Z</time>
      </trkpt>
      <trkpt lat="44.63211" lon="5.20108">
        <ele>1265</ele>
        <time>2026-05-25T13:40:12.000Z</time>
      </trkpt>
      <trkpt lat="44.63211" lon="5.20108">
        <ele>1265</ele>
        <time>2026-05-25T13:40:13.000Z</time>
      </trkpt>
      <trkpt lat="44.63211" lon="5.20108">
        <ele>1265</ele>
        <time>2026-05-25T13:40:14.000Z</time>
      </trkpt>
      <trkpt lat="44.63211" lon="5.20108">
        <ele>1265</ele>
        <time>2026-05-25T13:40:15.000Z</time>
      </trkpt>
      <trkpt lat="44.63211" lon="5.20108">
        <ele>1265</ele>
        <time>2026-05-25T13:40:16.000Z</time>
      </trkpt>
      <trkpt lat="44.63211" lon="5.20108">
        <ele>1265</ele>
        <time>2026-05-25T13:40:17.000Z</time>
      </trkpt>
      <trkpt lat="44.63211" lon="5.20108">
        <ele>1265</ele>
        <time>2026-05-25T13:40:18.000Z</time>
      </trkpt>
      <trkpt lat="44.63211" lon="5.2011">
        <ele>1265</ele>
        <time>2026-05-25T13:40:19.000Z</time>
      </trkpt>
      <trkpt lat="44.63211" lon="5.20111">
        <ele>1264</ele>
        <time>2026-05-25T13:40:20.000Z</time>
      </trkpt>
      <trkpt lat="44.63212" lon="5.20112">
        <ele>1264</ele>
        <time>2026-05-25T13:40:21.000Z</time>
      </trkpt>
      <trkpt lat="44.63211" lon="5.20112">
        <ele>1264</ele>
        <time>2026-05-25T13:40:22.000Z</time>
      </trkpt>
      <trkpt lat="44.63211" lon="5.20112">
        <ele>1264</ele>
        <time>2026-05-25T13:40:23.000Z</time>
      </trkpt>
      <trkpt lat="44.63211" lon="5.20112">
        <ele>1264</ele>
        <time>2026-05-25T13:40:24.000Z</time>
      </trkpt>
      <trkpt lat="44.63211" lon="5.20112">
        <ele>1264</ele>
        <time>2026-05-25T13:40:25.000Z</time>
      </trkpt>
      <trkpt lat="44.63211" lon="5.20112">
        <ele>1264</ele>
        <time>2026-05-25T13:40:26.000Z</time>
      </trkpt>
      <trkpt lat="44.63211" lon="5.20112">
        <ele>1264</ele>
        <time>2026-05-25T13:40:27.000Z</time>
      </trkpt>
      <trkpt lat="44.63211" lon="5.20112">
        <ele>1264</ele>
        <time>2026-05-25T13:40:28.000Z</time>
      </trkpt>
      <trkpt lat="44.63211" lon="5.20115">
        <ele>1262</ele>
        <time>2026-05-25T13:40:29.000Z</time>
      </trkpt>
      <trkpt lat="44.63211" lon="5.20116">
        <ele>1261</ele>
        <time>2026-05-25T13:40:30.000Z</time>
      </trkpt>
      <trkpt lat="44.63211" lon="5.20116">
        <ele>1261</ele>
        <time>2026-05-25T13:40:31.000Z</time>
      </trkpt>
      <trkpt lat="44.63211" lon="5.20117">
        <ele>1261</ele>
        <time>2026-05-25T13:40:32.000Z</time>
      </trkpt>
      <trkpt lat="44.63211" lon="5.20117">
        <ele>1261</ele>
        <time>2026-05-25T13:40:33.000Z</time>
      </trkpt>
      <trkpt lat="44.63211" lon="5.20117">
        <ele>1261</ele>
        <time>2026-05-25T13:40:34.000Z</time>
      </trkpt>
      <trkpt lat="44.63212" lon="5.20119">
        <ele>1261</ele>
        <time>2026-05-25T13:40:35.000Z</time>
      </trkpt>
      <trkpt lat="44.63212" lon="5.2012">
        <ele>1260</ele>
        <time>2026-05-25T13:40:36.000Z</time>
      </trkpt>
      <trkpt lat="44.63213" lon="5.20121">
        <ele>1260</ele>
        <time>2026-05-25T13:40:37.000Z</time>
      </trkpt>
      <trkpt lat="44.63213" lon="5.20122">
        <ele>1260</ele>
        <time>2026-05-25T13:40:38.000Z</time>
      </trkpt>
      <trkpt lat="44.63213" lon="5.20122">
        <ele>1260</ele>
        <time>2026-05-25T13:40:39.000Z</time>
      </trkpt>
      <trkpt lat="44.63213" lon="5.20122">
        <ele>1260</ele>
        <time>2026-05-25T13:40:40.000Z</time>
      </trkpt>
      <trkpt lat="44.63215" lon="5.20124">
        <ele>1261</ele>
        <time>2026-05-25T13:40:41.000Z</time>
      </trkpt>
      <trkpt lat="44.63216" lon="5.20124">
        <ele>1261</ele>
        <time>2026-05-25T13:40:42.000Z</time>
      </trkpt>
      <trkpt lat="44.63216" lon="5.20125">
        <ele>1261</ele>
        <time>2026-05-25T13:40:43.000Z</time>
      </trkpt>
      <trkpt lat="44.63217" lon="5.20125">
        <ele>1261</ele>
        <time>2026-05-25T13:40:44.000Z</time>
      </trkpt>
      <trkpt lat="44.63217" lon="5.20125">
        <ele>1261</ele>
        <time>2026-05-25T13:40:45.000Z</time>
      </trkpt>
      <trkpt lat="44.63218" lon="5.20126">
        <ele>1260</ele>
        <time>2026-05-25T13:40:46.000Z</time>
      </trkpt>
      <trkpt lat="44.63218" lon="5.20127">
        <ele>1260</ele>
        <time>2026-05-25T13:40:47.000Z</time>
      </trkpt>
      <trkpt lat="44.63218" lon="5.20128">
        <ele>1260</ele>
        <time>2026-05-25T13:40:48.000Z</time>
      </trkpt>
      <trkpt lat="44.63218" lon="5.20128">
        <ele>1260</ele>
        <time>2026-05-25T13:40:49.000Z</time>
      </trkpt>
      <trkpt lat="44.63218" lon="5.20128">
        <ele>1260</ele>
        <time>2026-05-25T13:40:50.000Z</time>
      </trkpt>
      <trkpt lat="44.63218" lon="5.20129">
        <ele>1260</ele>
        <time>2026-05-25T13:40:51.000Z</time>
      </trkpt>
      <trkpt lat="44.63218" lon="5.20129">
        <ele>1260</ele>
        <time>2026-05-25T13:40:52.000Z</time>
      </trkpt>
      <trkpt lat="44.63218" lon="5.20129">
        <ele>1260</ele>
        <time>2026-05-25T13:40:53.000Z</time>
      </trkpt>
      <trkpt lat="44.63218" lon="5.20129">
        <ele>1259</ele>
        <time>2026-05-25T13:40:54.000Z</time>
      </trkpt>
      <trkpt lat="44.63218" lon="5.20129">
        <ele>1259</ele>
        <time>2026-05-25T13:40:55.000Z</time>
      </trkpt>
      <trkpt lat="44.63218" lon="5.20129">
        <ele>1259</ele>
        <time>2026-05-25T13:40:56.000Z</time>
      </trkpt>
      <trkpt lat="44.63218" lon="5.20129">
        <ele>1259</ele>
        <time>2026-05-25T13:40:57.000Z</time>
      </trkpt>
      <trkpt lat="44.63218" lon="5.20129">
        <ele>1259</ele>
        <time>2026-05-25T13:40:58.000Z</time>
      </trkpt>
      <trkpt lat="44.63218" lon="5.20129">
        <ele>1259</ele>
        <time>2026-05-25T13:40:59.000Z</time>
      </trkpt>
      <trkpt lat="44.63218" lon="5.20132">
        <ele>1259</ele>
        <time>2026-05-25T13:41:00.000Z</time>
      </trkpt>
      <trkpt lat="44.63218" lon="5.20133">
        <ele>1259</ele>
        <time>2026-05-25T13:41:01.000Z</time>
      </trkpt>
      <trkpt lat="44.63219" lon="5.20133">
        <ele>1258</ele>
        <time>2026-05-25T13:41:02.000Z</time>
      </trkpt>
      <trkpt lat="44.63219" lon="5.20135">
        <ele>1258</ele>
        <time>2026-05-25T13:41:03.000Z</time>
      </trkpt>
      <trkpt lat="44.6322" lon="5.20136">
        <ele>1257</ele>
        <time>2026-05-25T13:41:04.000Z</time>
      </trkpt>
      <trkpt lat="44.6322" lon="5.20136">
        <ele>1257</ele>
        <time>2026-05-25T13:41:05.000Z</time>
      </trkpt>
      <trkpt lat="44.63221" lon="5.20137">
        <ele>1256</ele>
        <time>2026-05-25T13:41:06.000Z</time>
      </trkpt>
      <trkpt lat="44.63221" lon="5.20138">
        <ele>1256</ele>
        <time>2026-05-25T13:41:07.000Z</time>
      </trkpt>
      <trkpt lat="44.63222" lon="5.20139">
        <ele>1256</ele>
        <time>2026-05-25T13:41:08.000Z</time>
      </trkpt>
      <trkpt lat="44.63223" lon="5.2014">
        <ele>1255</ele>
        <time>2026-05-25T13:41:09.000Z</time>
      </trkpt>
      <trkpt lat="44.63224" lon="5.2014">
        <ele>1255</ele>
        <time>2026-05-25T13:41:10.000Z</time>
      </trkpt>
      <trkpt lat="44.63224" lon="5.20141">
        <ele>1255</ele>
        <time>2026-05-25T13:41:11.000Z</time>
      </trkpt>
      <trkpt lat="44.63224" lon="5.20142">
        <ele>1255</ele>
        <time>2026-05-25T13:41:12.000Z</time>
      </trkpt>
      <trkpt lat="44.63224" lon="5.20143">
        <ele>1255</ele>
        <time>2026-05-25T13:41:13.000Z</time>
      </trkpt>
      <trkpt lat="44.63224" lon="5.20143">
        <ele>1255</ele>
        <time>2026-05-25T13:41:14.000Z</time>
      </trkpt>
      <trkpt lat="44.63225" lon="5.20144">
        <ele>1255</ele>
        <time>2026-05-25T13:41:15.000Z</time>
      </trkpt>
      <trkpt lat="44.63225" lon="5.20144">
        <ele>1255</ele>
        <time>2026-05-25T13:41:16.000Z</time>
      </trkpt>
      <trkpt lat="44.63225" lon="5.20145">
        <ele>1256</ele>
        <time>2026-05-25T13:41:17.000Z</time>
      </trkpt>
      <trkpt lat="44.63225" lon="5.20146">
        <ele>1256</ele>
        <time>2026-05-25T13:41:18.000Z</time>
      </trkpt>
      <trkpt lat="44.63225" lon="5.20147">
        <ele>1255</ele>
        <time>2026-05-25T13:41:19.000Z</time>
      </trkpt>
      <trkpt lat="44.63225" lon="5.20149">
        <ele>1256</ele>
        <time>2026-05-25T13:41:20.000Z</time>
      </trkpt>
      <trkpt lat="44.63225" lon="5.20149">
        <ele>1256</ele>
        <time>2026-05-25T13:41:21.000Z</time>
      </trkpt>
      <trkpt lat="44.63226" lon="5.2015">
        <ele>1256</ele>
        <time>2026-05-25T13:41:22.000Z</time>
      </trkpt>
      <trkpt lat="44.63227" lon="5.20151">
        <ele>1256</ele>
        <time>2026-05-25T13:41:23.000Z</time>
      </trkpt>
      <trkpt lat="44.63227" lon="5.20151">
        <ele>1256</ele>
        <time>2026-05-25T13:41:24.000Z</time>
      </trkpt>
      <trkpt lat="44.63228" lon="5.20152">
        <ele>1255</ele>
        <time>2026-05-25T13:41:25.000Z</time>
      </trkpt>
      <trkpt lat="44.63228" lon="5.20153">
        <ele>1254</ele>
        <time>2026-05-25T13:41:26.000Z</time>
      </trkpt>
      <trkpt lat="44.63229" lon="5.20154">
        <ele>1255</ele>
        <time>2026-05-25T13:41:27.000Z</time>
      </trkpt>
      <trkpt lat="44.63229" lon="5.20154">
        <ele>1255</ele>
        <time>2026-05-25T13:41:28.000Z</time>
      </trkpt>
      <trkpt lat="44.6323" lon="5.20154">
        <ele>1254</ele>
        <time>2026-05-25T13:41:29.000Z</time>
      </trkpt>
      <trkpt lat="44.6323" lon="5.20154">
        <ele>1254</ele>
        <time>2026-05-25T13:41:30.000Z</time>
      </trkpt>
      <trkpt lat="44.6323" lon="5.20155">
        <ele>1254</ele>
        <time>2026-05-25T13:41:31.000Z</time>
      </trkpt>
      <trkpt lat="44.6323" lon="5.20155">
        <ele>1253</ele>
        <time>2026-05-25T13:41:32.000Z</time>
      </trkpt>
      <trkpt lat="44.6323" lon="5.20157">
        <ele>1254</ele>
        <time>2026-05-25T13:41:33.000Z</time>
      </trkpt>
      <trkpt lat="44.6323" lon="5.20156">
        <ele>1254</ele>
        <time>2026-05-25T13:41:34.000Z</time>
      </trkpt>
      <trkpt lat="44.6323" lon="5.20157">
        <ele>1254</ele>
        <time>2026-05-25T13:41:35.000Z</time>
      </trkpt>
      <trkpt lat="44.63229" lon="5.20159">
        <ele>1254</ele>
        <time>2026-05-25T13:41:36.000Z</time>
      </trkpt>
      <trkpt lat="44.63229" lon="5.20159">
        <ele>1253</ele>
        <time>2026-05-25T13:41:37.000Z</time>
      </trkpt>
      <trkpt lat="44.63229" lon="5.2016">
        <ele>1253</ele>
        <time>2026-05-25T13:41:38.000Z</time>
      </trkpt>
      <trkpt lat="44.63228" lon="5.20161">
        <ele>1253</ele>
        <time>2026-05-25T13:41:39.000Z</time>
      </trkpt>
      <trkpt lat="44.63228" lon="5.20162">
        <ele>1252</ele>
        <time>2026-05-25T13:41:40.000Z</time>
      </trkpt>
      <trkpt lat="44.63228" lon="5.20164">
        <ele>1252</ele>
        <time>2026-05-25T13:41:41.000Z</time>
      </trkpt>
      <trkpt lat="44.63227" lon="5.20165">
        <ele>1252</ele>
        <time>2026-05-25T13:41:42.000Z</time>
      </trkpt>
      <trkpt lat="44.63226" lon="5.20166">
        <ele>1252</ele>
        <time>2026-05-25T13:41:43.000Z</time>
      </trkpt>
      <trkpt lat="44.63226" lon="5.20167">
        <ele>1251</ele>
        <time>2026-05-25T13:41:44.000Z</time>
      </trkpt>
      <trkpt lat="44.63226" lon="5.20168">
        <ele>1251</ele>
        <time>2026-05-25T13:41:45.000Z</time>
      </trkpt>
      <trkpt lat="44.63226" lon="5.20168">
        <ele>1251</ele>
        <time>2026-05-25T13:41:46.000Z</time>
      </trkpt>
      <trkpt lat="44.63226" lon="5.20168">
        <ele>1251</ele>
        <time>2026-05-25T13:41:47.000Z</time>
      </trkpt>
      <trkpt lat="44.63226" lon="5.20169">
        <ele>1251</ele>
        <time>2026-05-25T13:41:48.000Z</time>
      </trkpt>
      <trkpt lat="44.63225" lon="5.2017">
        <ele>1251</ele>
        <time>2026-05-25T13:41:49.000Z</time>
      </trkpt>
      <trkpt lat="44.63225" lon="5.20171">
        <ele>1251</ele>
        <time>2026-05-25T13:41:50.000Z</time>
      </trkpt>
      <trkpt lat="44.63225" lon="5.20172">
        <ele>1251</ele>
        <time>2026-05-25T13:41:51.000Z</time>
      </trkpt>
      <trkpt lat="44.63225" lon="5.20173">
        <ele>1251</ele>
        <time>2026-05-25T13:41:52.000Z</time>
      </trkpt>
      <trkpt lat="44.63225" lon="5.20174">
        <ele>1251</ele>
        <time>2026-05-25T13:41:53.000Z</time>
      </trkpt>
      <trkpt lat="44.63224" lon="5.20175">
        <ele>1251</ele>
        <time>2026-05-25T13:41:54.000Z</time>
      </trkpt>
      <trkpt lat="44.63224" lon="5.20176">
        <ele>1251</ele>
        <time>2026-05-25T13:41:55.000Z</time>
      </trkpt>
      <trkpt lat="44.63224" lon="5.20178">
        <ele>1251</ele>
        <time>2026-05-25T13:41:56.000Z</time>
      </trkpt>
      <trkpt lat="44.63224" lon="5.20179">
        <ele>1251</ele>
        <time>2026-05-25T13:41:57.000Z</time>
      </trkpt>
      <trkpt lat="44.63223" lon="5.2018">
        <ele>1250</ele>
        <time>2026-05-25T13:41:58.000Z</time>
      </trkpt>
      <trkpt lat="44.63223" lon="5.20182">
        <ele>1250</ele>
        <time>2026-05-25T13:41:59.000Z</time>
      </trkpt>
      <trkpt lat="44.63224" lon="5.20183">
        <ele>1251</ele>
        <time>2026-05-25T13:42:00.000Z</time>
      </trkpt>
      <trkpt lat="44.63225" lon="5.20184">
        <ele>1251</ele>
        <time>2026-05-25T13:42:01.000Z</time>
      </trkpt>
      <trkpt lat="44.63226" lon="5.20185">
        <ele>1251</ele>
        <time>2026-05-25T13:42:02.000Z</time>
      </trkpt>
      <trkpt lat="44.63227" lon="5.20187">
        <ele>1250</ele>
        <time>2026-05-25T13:42:03.000Z</time>
      </trkpt>
      <trkpt lat="44.63227" lon="5.20187">
        <ele>1251</ele>
        <time>2026-05-25T13:42:04.000Z</time>
      </trkpt>
      <trkpt lat="44.63228" lon="5.20188">
        <ele>1250</ele>
        <time>2026-05-25T13:42:05.000Z</time>
      </trkpt>
      <trkpt lat="44.63229" lon="5.20189">
        <ele>1250</ele>
        <time>2026-05-25T13:42:06.000Z</time>
      </trkpt>
      <trkpt lat="44.63229" lon="5.20191">
        <ele>1250</ele>
        <time>2026-05-25T13:42:07.000Z</time>
      </trkpt>
      <trkpt lat="44.63229" lon="5.20192">
        <ele>1250</ele>
        <time>2026-05-25T13:42:08.000Z</time>
      </trkpt>
      <trkpt lat="44.63229" lon="5.20194">
        <ele>1251</ele>
        <time>2026-05-25T13:42:09.000Z</time>
      </trkpt>
      <trkpt lat="44.63229" lon="5.20196">
        <ele>1251</ele>
        <time>2026-05-25T13:42:10.000Z</time>
      </trkpt>
      <trkpt lat="44.63229" lon="5.20197">
        <ele>1251</ele>
        <time>2026-05-25T13:42:11.000Z</time>
      </trkpt>
      <trkpt lat="44.63229" lon="5.20198">
        <ele>1250</ele>
        <time>2026-05-25T13:42:12.000Z</time>
      </trkpt>
      <trkpt lat="44.6323" lon="5.20199">
        <ele>1250</ele>
        <time>2026-05-25T13:42:13.000Z</time>
      </trkpt>
      <trkpt lat="44.6323" lon="5.202">
        <ele>1250</ele>
        <time>2026-05-25T13:42:14.000Z</time>
      </trkpt>
      <trkpt lat="44.6323" lon="5.20201">
        <ele>1251</ele>
        <time>2026-05-25T13:42:15.000Z</time>
      </trkpt>
      <trkpt lat="44.6323" lon="5.20202">
        <ele>1251</ele>
        <time>2026-05-25T13:42:16.000Z</time>
      </trkpt>
      <trkpt lat="44.6323" lon="5.20203">
        <ele>1250</ele>
        <time>2026-05-25T13:42:17.000Z</time>
      </trkpt>
      <trkpt lat="44.6323" lon="5.20203">
        <ele>1250</ele>
        <time>2026-05-25T13:42:18.000Z</time>
      </trkpt>
      <trkpt lat="44.6323" lon="5.20203">
        <ele>1250</ele>
        <time>2026-05-25T13:42:19.000Z</time>
      </trkpt>
      <trkpt lat="44.63229" lon="5.20205">
        <ele>1250</ele>
        <time>2026-05-25T13:42:20.000Z</time>
      </trkpt>
      <trkpt lat="44.63229" lon="5.20205">
        <ele>1250</ele>
        <time>2026-05-25T13:42:21.000Z</time>
      </trkpt>
      <trkpt lat="44.63229" lon="5.20206">
        <ele>1250</ele>
        <time>2026-05-25T13:42:22.000Z</time>
      </trkpt>
      <trkpt lat="44.63229" lon="5.20207">
        <ele>1250</ele>
        <time>2026-05-25T13:42:23.000Z</time>
      </trkpt>
      <trkpt lat="44.63229" lon="5.20209">
        <ele>1250</ele>
        <time>2026-05-25T13:42:24.000Z</time>
      </trkpt>
      <trkpt lat="44.6323" lon="5.2021">
        <ele>1250</ele>
        <time>2026-05-25T13:42:25.000Z</time>
      </trkpt>
      <trkpt lat="44.6323" lon="5.20211">
        <ele>1251</ele>
        <time>2026-05-25T13:42:26.000Z</time>
      </trkpt>
      <trkpt lat="44.63231" lon="5.20212">
        <ele>1250</ele>
        <time>2026-05-25T13:42:27.000Z</time>
      </trkpt>
      <trkpt lat="44.63231" lon="5.20213">
        <ele>1249</ele>
        <time>2026-05-25T13:42:28.000Z</time>
      </trkpt>
      <trkpt lat="44.63231" lon="5.20214">
        <ele>1249</ele>
        <time>2026-05-25T13:42:29.000Z</time>
      </trkpt>
      <trkpt lat="44.63231" lon="5.20215">
        <ele>1249</ele>
        <time>2026-05-25T13:42:30.000Z</time>
      </trkpt>
      <trkpt lat="44.63232" lon="5.20216">
        <ele>1249</ele>
        <time>2026-05-25T13:42:31.000Z</time>
      </trkpt>
      <trkpt lat="44.63232" lon="5.20218">
        <ele>1249</ele>
        <time>2026-05-25T13:42:32.000Z</time>
      </trkpt>
      <trkpt lat="44.63232" lon="5.20219">
        <ele>1249</ele>
        <time>2026-05-25T13:42:33.000Z</time>
      </trkpt>
      <trkpt lat="44.63232" lon="5.2022">
        <ele>1249</ele>
        <time>2026-05-25T13:42:34.000Z</time>
      </trkpt>
      <trkpt lat="44.63232" lon="5.20222">
        <ele>1249</ele>
        <time>2026-05-25T13:42:35.000Z</time>
      </trkpt>
      <trkpt lat="44.63233" lon="5.20223">
        <ele>1249</ele>
        <time>2026-05-25T13:42:36.000Z</time>
      </trkpt>
      <trkpt lat="44.63234" lon="5.20224">
        <ele>1249</ele>
        <time>2026-05-25T13:42:37.000Z</time>
      </trkpt>
      <trkpt lat="44.63235" lon="5.20225">
        <ele>1249</ele>
        <time>2026-05-25T13:42:38.000Z</time>
      </trkpt>
      <trkpt lat="44.63235" lon="5.20226">
        <ele>1249</ele>
        <time>2026-05-25T13:42:39.000Z</time>
      </trkpt>
      <trkpt lat="44.63235" lon="5.20227">
        <ele>1248</ele>
        <time>2026-05-25T13:42:40.000Z</time>
      </trkpt>
      <trkpt lat="44.63235" lon="5.20227">
        <ele>1249</ele>
        <time>2026-05-25T13:42:41.000Z</time>
      </trkpt>
      <trkpt lat="44.63236" lon="5.20228">
        <ele>1249</ele>
        <time>2026-05-25T13:42:42.000Z</time>
      </trkpt>
      <trkpt lat="44.63236" lon="5.20229">
        <ele>1248</ele>
        <time>2026-05-25T13:42:43.000Z</time>
      </trkpt>
      <trkpt lat="44.63236" lon="5.20229">
        <ele>1248</ele>
        <time>2026-05-25T13:42:44.000Z</time>
      </trkpt>
      <trkpt lat="44.63236" lon="5.20229">
        <ele>1248</ele>
        <time>2026-05-25T13:42:45.000Z</time>
      </trkpt>
      <trkpt lat="44.63237" lon="5.20231">
        <ele>1248</ele>
        <time>2026-05-25T13:42:46.000Z</time>
      </trkpt>
      <trkpt lat="44.63237" lon="5.20231">
        <ele>1248</ele>
        <time>2026-05-25T13:42:47.000Z</time>
      </trkpt>
      <trkpt lat="44.63237" lon="5.20232">
        <ele>1248</ele>
        <time>2026-05-25T13:42:48.000Z</time>
      </trkpt>
      <trkpt lat="44.63237" lon="5.20232">
        <ele>1247</ele>
        <time>2026-05-25T13:42:49.000Z</time>
      </trkpt>
      <trkpt lat="44.63237" lon="5.20232">
        <ele>1247</ele>
        <time>2026-05-25T13:42:50.000Z</time>
      </trkpt>
      <trkpt lat="44.63237" lon="5.20232">
        <ele>1247</ele>
        <time>2026-05-25T13:42:51.000Z</time>
      </trkpt>
      <trkpt lat="44.63237" lon="5.20232">
        <ele>1247</ele>
        <time>2026-05-25T13:42:52.000Z</time>
      </trkpt>
      <trkpt lat="44.63238" lon="5.20235">
        <ele>1247</ele>
        <time>2026-05-25T13:42:53.000Z</time>
      </trkpt>
      <trkpt lat="44.63238" lon="5.20235">
        <ele>1247</ele>
        <time>2026-05-25T13:42:54.000Z</time>
      </trkpt>
      <trkpt lat="44.63238" lon="5.20236">
        <ele>1246</ele>
        <time>2026-05-25T13:42:55.000Z</time>
      </trkpt>
      <trkpt lat="44.63238" lon="5.20236">
        <ele>1246</ele>
        <time>2026-05-25T13:42:56.000Z</time>
      </trkpt>
      <trkpt lat="44.63238" lon="5.20236">
        <ele>1246</ele>
        <time>2026-05-25T13:42:57.000Z</time>
      </trkpt>
      <trkpt lat="44.63238" lon="5.20238">
        <ele>1245</ele>
        <time>2026-05-25T13:42:58.000Z</time>
      </trkpt>
      <trkpt lat="44.63239" lon="5.20238">
        <ele>1246</ele>
        <time>2026-05-25T13:42:59.000Z</time>
      </trkpt>
      <trkpt lat="44.63239" lon="5.20239">
        <ele>1246</ele>
        <time>2026-05-25T13:43:00.000Z</time>
      </trkpt>
      <trkpt lat="44.63239" lon="5.20239">
        <ele>1246</ele>
        <time>2026-05-25T13:43:01.000Z</time>
      </trkpt>
      <trkpt lat="44.6324" lon="5.2024">
        <ele>1245</ele>
        <time>2026-05-25T13:43:02.000Z</time>
      </trkpt>
      <trkpt lat="44.63241" lon="5.20242">
        <ele>1245</ele>
        <time>2026-05-25T13:43:03.000Z</time>
      </trkpt>
      <trkpt lat="44.63241" lon="5.20243">
        <ele>1245</ele>
        <time>2026-05-25T13:43:04.000Z</time>
      </trkpt>
      <trkpt lat="44.63241" lon="5.20244">
        <ele>1244</ele>
        <time>2026-05-25T13:43:05.000Z</time>
      </trkpt>
      <trkpt lat="44.6324" lon="5.20245">
        <ele>1244</ele>
        <time>2026-05-25T13:43:06.000Z</time>
      </trkpt>
      <trkpt lat="44.6324" lon="5.20245">
        <ele>1243</ele>
        <time>2026-05-25T13:43:07.000Z</time>
      </trkpt>
      <trkpt lat="44.6324" lon="5.20245">
        <ele>1243</ele>
        <time>2026-05-25T13:43:08.000Z</time>
      </trkpt>
      <trkpt lat="44.6324" lon="5.20245">
        <ele>1243</ele>
        <time>2026-05-25T13:43:09.000Z</time>
      </trkpt>
      <trkpt lat="44.6324" lon="5.20245">
        <ele>1243</ele>
        <time>2026-05-25T13:43:10.000Z</time>
      </trkpt>
      <trkpt lat="44.63239" lon="5.20243">
        <ele>1243</ele>
        <time>2026-05-25T13:43:11.000Z</time>
      </trkpt>
      <trkpt lat="44.63239" lon="5.20243">
        <ele>1243</ele>
        <time>2026-05-25T13:43:12.000Z</time>
      </trkpt>
      <trkpt lat="44.63238" lon="5.20242">
        <ele>1242</ele>
        <time>2026-05-25T13:43:13.000Z</time>
      </trkpt>
      <trkpt lat="44.63238" lon="5.20241">
        <ele>1242</ele>
        <time>2026-05-25T13:43:14.000Z</time>
      </trkpt>
      <trkpt lat="44.63238" lon="5.2024">
        <ele>1241</ele>
        <time>2026-05-25T13:43:15.000Z</time>
      </trkpt>
      <trkpt lat="44.63236" lon="5.20239">
        <ele>1241</ele>
        <time>2026-05-25T13:43:16.000Z</time>
      </trkpt>
      <trkpt lat="44.63235" lon="5.20238">
        <ele>1241</ele>
        <time>2026-05-25T13:43:17.000Z</time>
      </trkpt>
      <trkpt lat="44.63235" lon="5.20237">
        <ele>1241</ele>
        <time>2026-05-25T13:43:18.000Z</time>
      </trkpt>
      <trkpt lat="44.63235" lon="5.20237">
        <ele>1241</ele>
        <time>2026-05-25T13:43:19.000Z</time>
      </trkpt>
      <trkpt lat="44.63235" lon="5.20237">
        <ele>1241</ele>
        <time>2026-05-25T13:43:20.000Z</time>
      </trkpt>
      <trkpt lat="44.63234" lon="5.20235">
        <ele>1240</ele>
        <time>2026-05-25T13:43:21.000Z</time>
      </trkpt>
      <trkpt lat="44.63233" lon="5.20235">
        <ele>1240</ele>
        <time>2026-05-25T13:43:22.000Z</time>
      </trkpt>
      <trkpt lat="44.63233" lon="5.20235">
        <ele>1240</ele>
        <time>2026-05-25T13:43:23.000Z</time>
      </trkpt>
      <trkpt lat="44.63232" lon="5.20235">
        <ele>1239</ele>
        <time>2026-05-25T13:43:24.000Z</time>
      </trkpt>
      <trkpt lat="44.63232" lon="5.20235">
        <ele>1239</ele>
        <time>2026-05-25T13:43:25.000Z</time>
      </trkpt>
      <trkpt lat="44.63232" lon="5.20235">
        <ele>1239</ele>
        <time>2026-05-25T13:43:26.000Z</time>
      </trkpt>
      <trkpt lat="44.63229" lon="5.20234">
        <ele>1239</ele>
        <time>2026-05-25T13:43:27.000Z</time>
      </trkpt>
      <trkpt lat="44.63229" lon="5.20234">
        <ele>1239</ele>
        <time>2026-05-25T13:43:28.000Z</time>
      </trkpt>
      <trkpt lat="44.63229" lon="5.20235">
        <ele>1239</ele>
        <time>2026-05-25T13:43:29.000Z</time>
      </trkpt>
      <trkpt lat="44.63228" lon="5.20238">
        <ele>1239</ele>
        <time>2026-05-25T13:43:30.000Z</time>
      </trkpt>
      <trkpt lat="44.63228" lon="5.20239">
        <ele>1238</ele>
        <time>2026-05-25T13:43:31.000Z</time>
      </trkpt>
      <trkpt lat="44.63229" lon="5.2024">
        <ele>1239</ele>
        <time>2026-05-25T13:43:32.000Z</time>
      </trkpt>
      <trkpt lat="44.63229" lon="5.20241">
        <ele>1239</ele>
        <time>2026-05-25T13:43:33.000Z</time>
      </trkpt>
      <trkpt lat="44.63229" lon="5.20242">
        <ele>1238</ele>
        <time>2026-05-25T13:43:34.000Z</time>
      </trkpt>
      <trkpt lat="44.63228" lon="5.20242">
        <ele>1238</ele>
        <time>2026-05-25T13:43:35.000Z</time>
      </trkpt>
      <trkpt lat="44.63229" lon="5.20241">
        <ele>1238</ele>
        <time>2026-05-25T13:43:36.000Z</time>
      </trkpt>
      <trkpt lat="44.63229" lon="5.20241">
        <ele>1238</ele>
        <time>2026-05-25T13:43:37.000Z</time>
      </trkpt>
      <trkpt lat="44.63229" lon="5.20241">
        <ele>1238</ele>
        <time>2026-05-25T13:43:38.000Z</time>
      </trkpt>
      <trkpt lat="44.63228" lon="5.20241">
        <ele>1238</ele>
        <time>2026-05-25T13:43:39.000Z</time>
      </trkpt>
      <trkpt lat="44.63227" lon="5.20241">
        <ele>1238</ele>
        <time>2026-05-25T13:43:40.000Z</time>
      </trkpt>
      <trkpt lat="44.63227" lon="5.2024">
        <ele>1237</ele>
        <time>2026-05-25T13:43:41.000Z</time>
      </trkpt>
      <trkpt lat="44.63227" lon="5.2024">
        <ele>1237</ele>
        <time>2026-05-25T13:43:42.000Z</time>
      </trkpt>
      <trkpt lat="44.63226" lon="5.2024">
        <ele>1237</ele>
        <time>2026-05-25T13:43:43.000Z</time>
      </trkpt>
      <trkpt lat="44.63225" lon="5.2024">
        <ele>1235</ele>
        <time>2026-05-25T13:43:44.000Z</time>
      </trkpt>
      <trkpt lat="44.63225" lon="5.20239">
        <ele>1235</ele>
        <time>2026-05-25T13:43:45.000Z</time>
      </trkpt>
      <trkpt lat="44.63225" lon="5.20239">
        <ele>1235</ele>
        <time>2026-05-25T13:43:46.000Z</time>
      </trkpt>
      <trkpt lat="44.63225" lon="5.20239">
        <ele>1235</ele>
        <time>2026-05-25T13:43:47.000Z</time>
      </trkpt>
      <trkpt lat="44.63225" lon="5.20239">
        <ele>1235</ele>
        <time>2026-05-25T13:43:48.000Z</time>
      </trkpt>
      <trkpt lat="44.63223" lon="5.20236">
        <ele>1235</ele>
        <time>2026-05-25T13:43:49.000Z</time>
      </trkpt>
      <trkpt lat="44.63223" lon="5.20236">
        <ele>1235</ele>
        <time>2026-05-25T13:43:50.000Z</time>
      </trkpt>
      <trkpt lat="44.63222" lon="5.20235">
        <ele>1236</ele>
        <time>2026-05-25T13:43:51.000Z</time>
      </trkpt>
      <trkpt lat="44.63221" lon="5.20234">
        <ele>1235</ele>
        <time>2026-05-25T13:43:52.000Z</time>
      </trkpt>
      <trkpt lat="44.63221" lon="5.20233">
        <ele>1234</ele>
        <time>2026-05-25T13:43:53.000Z</time>
      </trkpt>
      <trkpt lat="44.63221" lon="5.20233">
        <ele>1234</ele>
        <time>2026-05-25T13:43:54.000Z</time>
      </trkpt>
      <trkpt lat="44.63221" lon="5.20233">
        <ele>1234</ele>
        <time>2026-05-25T13:43:55.000Z</time>
      </trkpt>
      <trkpt lat="44.6322" lon="5.20233">
        <ele>1234</ele>
        <time>2026-05-25T13:43:56.000Z</time>
      </trkpt>
      <trkpt lat="44.63219" lon="5.20233">
        <ele>1233</ele>
        <time>2026-05-25T13:43:57.000Z</time>
      </trkpt>
      <trkpt lat="44.63218" lon="5.20234">
        <ele>1233</ele>
        <time>2026-05-25T13:43:58.000Z</time>
      </trkpt>
      <trkpt lat="44.63218" lon="5.20236">
        <ele>1233</ele>
        <time>2026-05-25T13:43:59.000Z</time>
      </trkpt>
      <trkpt lat="44.63218" lon="5.20237">
        <ele>1233</ele>
        <time>2026-05-25T13:44:00.000Z</time>
      </trkpt>
      <trkpt lat="44.63218" lon="5.20238">
        <ele>1233</ele>
        <time>2026-05-25T13:44:01.000Z</time>
      </trkpt>
      <trkpt lat="44.63218" lon="5.20239">
        <ele>1233</ele>
        <time>2026-05-25T13:44:02.000Z</time>
      </trkpt>
      <trkpt lat="44.63217" lon="5.20238">
        <ele>1232</ele>
        <time>2026-05-25T13:44:03.000Z</time>
      </trkpt>
      <trkpt lat="44.63217" lon="5.20238">
        <ele>1232</ele>
        <time>2026-05-25T13:44:04.000Z</time>
      </trkpt>
      <trkpt lat="44.63217" lon="5.20239">
        <ele>1232</ele>
        <time>2026-05-25T13:44:05.000Z</time>
      </trkpt>
      <trkpt lat="44.63217" lon="5.20237">
        <ele>1232</ele>
        <time>2026-05-25T13:44:06.000Z</time>
      </trkpt>
      <trkpt lat="44.63217" lon="5.20236">
        <ele>1232</ele>
        <time>2026-05-25T13:44:07.000Z</time>
      </trkpt>
      <trkpt lat="44.63217" lon="5.20235">
        <ele>1232</ele>
        <time>2026-05-25T13:44:08.000Z</time>
      </trkpt>
      <trkpt lat="44.63217" lon="5.20235">
        <ele>1230</ele>
        <time>2026-05-25T13:44:09.000Z</time>
      </trkpt>
      <trkpt lat="44.63216" lon="5.20234">
        <ele>1231</ele>
        <time>2026-05-25T13:44:10.000Z</time>
      </trkpt>
      <trkpt lat="44.63216" lon="5.20234">
        <ele>1230</ele>
        <time>2026-05-25T13:44:11.000Z</time>
      </trkpt>
      <trkpt lat="44.63215" lon="5.20233">
        <ele>1229</ele>
        <time>2026-05-25T13:44:12.000Z</time>
      </trkpt>
      <trkpt lat="44.63215" lon="5.20233">
        <ele>1229</ele>
        <time>2026-05-25T13:44:13.000Z</time>
      </trkpt>
      <trkpt lat="44.63215" lon="5.20231">
        <ele>1228</ele>
        <time>2026-05-25T13:44:14.000Z</time>
      </trkpt>
      <trkpt lat="44.63215" lon="5.20229">
        <ele>1228</ele>
        <time>2026-05-25T13:44:15.000Z</time>
      </trkpt>
      <trkpt lat="44.63215" lon="5.20228">
        <ele>1228</ele>
        <time>2026-05-25T13:44:16.000Z</time>
      </trkpt>
      <trkpt lat="44.63215" lon="5.20227">
        <ele>1228</ele>
        <time>2026-05-25T13:44:17.000Z</time>
      </trkpt>
      <trkpt lat="44.63215" lon="5.20227">
        <ele>1228</ele>
        <time>2026-05-25T13:44:18.000Z</time>
      </trkpt>
      <trkpt lat="44.63216" lon="5.20225">
        <ele>1228</ele>
        <time>2026-05-25T13:44:19.000Z</time>
      </trkpt>
      <trkpt lat="44.63216" lon="5.20224">
        <ele>1228</ele>
        <time>2026-05-25T13:44:20.000Z</time>
      </trkpt>
      <trkpt lat="44.63216" lon="5.20223">
        <ele>1228</ele>
        <time>2026-05-25T13:44:21.000Z</time>
      </trkpt>
      <trkpt lat="44.63215" lon="5.20222">
        <ele>1228</ele>
        <time>2026-05-25T13:44:22.000Z</time>
      </trkpt>
      <trkpt lat="44.63215" lon="5.20221">
        <ele>1227</ele>
        <time>2026-05-25T13:44:23.000Z</time>
      </trkpt>
      <trkpt lat="44.63214" lon="5.20222">
        <ele>1227</ele>
        <time>2026-05-25T13:44:24.000Z</time>
      </trkpt>
      <trkpt lat="44.63213" lon="5.20221">
        <ele>1227</ele>
        <time>2026-05-25T13:44:25.000Z</time>
      </trkpt>
      <trkpt lat="44.63213" lon="5.20221">
        <ele>1227</ele>
        <time>2026-05-25T13:44:26.000Z</time>
      </trkpt>
      <trkpt lat="44.63213" lon="5.20221">
        <ele>1227</ele>
        <time>2026-05-25T13:44:27.000Z</time>
      </trkpt>
      <trkpt lat="44.63212" lon="5.20223">
        <ele>1227</ele>
        <time>2026-05-25T13:44:28.000Z</time>
      </trkpt>
      <trkpt lat="44.63212" lon="5.20224">
        <ele>1226</ele>
        <time>2026-05-25T13:44:29.000Z</time>
      </trkpt>
      <trkpt lat="44.63212" lon="5.20223">
        <ele>1227</ele>
        <time>2026-05-25T13:44:30.000Z</time>
      </trkpt>
      <trkpt lat="44.63212" lon="5.20223">
        <ele>1227</ele>
        <time>2026-05-25T13:44:31.000Z</time>
      </trkpt>
      <trkpt lat="44.63212" lon="5.20223">
        <ele>1227</ele>
        <time>2026-05-25T13:44:32.000Z</time>
      </trkpt>
      <trkpt lat="44.63212" lon="5.20223">
        <ele>1227</ele>
        <time>2026-05-25T13:44:33.000Z</time>
      </trkpt>
      <trkpt lat="44.63212" lon="5.20223">
        <ele>1227</ele>
        <time>2026-05-25T13:44:34.000Z</time>
      </trkpt>
      <trkpt lat="44.63212" lon="5.20223">
        <ele>1227</ele>
        <time>2026-05-25T13:44:35.000Z</time>
      </trkpt>
      <trkpt lat="44.63211" lon="5.20223">
        <ele>1226</ele>
        <time>2026-05-25T13:44:36.000Z</time>
      </trkpt>
      <trkpt lat="44.63211" lon="5.20223">
        <ele>1225</ele>
        <time>2026-05-25T13:44:37.000Z</time>
      </trkpt>
      <trkpt lat="44.63211" lon="5.20223">
        <ele>1225</ele>
        <time>2026-05-25T13:44:38.000Z</time>
      </trkpt>
      <trkpt lat="44.63211" lon="5.20223">
        <ele>1225</ele>
        <time>2026-05-25T13:44:39.000Z</time>
      </trkpt>
      <trkpt lat="44.63211" lon="5.20223">
        <ele>1225</ele>
        <time>2026-05-25T13:44:40.000Z</time>
      </trkpt>
      <trkpt lat="44.63211" lon="5.20223">
        <ele>1225</ele>
        <time>2026-05-25T13:44:41.000Z</time>
      </trkpt>
      <trkpt lat="44.63211" lon="5.20224">
        <ele>1222</ele>
        <time>2026-05-25T13:44:42.000Z</time>
      </trkpt>
      <trkpt lat="44.6321" lon="5.20224">
        <ele>1223</ele>
        <time>2026-05-25T13:44:43.000Z</time>
      </trkpt>
      <trkpt lat="44.63208" lon="5.20225">
        <ele>1223</ele>
        <time>2026-05-25T13:44:44.000Z</time>
      </trkpt>
      <trkpt lat="44.63207" lon="5.20225">
        <ele>1224</ele>
        <time>2026-05-25T13:44:45.000Z</time>
      </trkpt>
      <trkpt lat="44.63206" lon="5.20226">
        <ele>1224</ele>
        <time>2026-05-25T13:44:46.000Z</time>
      </trkpt>
      <trkpt lat="44.63207" lon="5.20227">
        <ele>1225</ele>
        <time>2026-05-25T13:44:47.000Z</time>
      </trkpt>
      <trkpt lat="44.63207" lon="5.20227">
        <ele>1224</ele>
        <time>2026-05-25T13:44:48.000Z</time>
      </trkpt>
      <trkpt lat="44.63206" lon="5.20228">
        <ele>1224</ele>
        <time>2026-05-25T13:44:49.000Z</time>
      </trkpt>
      <trkpt lat="44.63206" lon="5.20228">
        <ele>1223</ele>
        <time>2026-05-25T13:44:50.000Z</time>
      </trkpt>
      <trkpt lat="44.63206" lon="5.20228">
        <ele>1223</ele>
        <time>2026-05-25T13:44:51.000Z</time>
      </trkpt>
      <trkpt lat="44.63205" lon="5.20228">
        <ele>1223</ele>
        <time>2026-05-25T13:44:52.000Z</time>
      </trkpt>
      <trkpt lat="44.63204" lon="5.20229">
        <ele>1223</ele>
        <time>2026-05-25T13:44:53.000Z</time>
      </trkpt>
      <trkpt lat="44.63204" lon="5.20229">
        <ele>1223</ele>
        <time>2026-05-25T13:44:54.000Z</time>
      </trkpt>
      <trkpt lat="44.63204" lon="5.2023">
        <ele>1223</ele>
        <time>2026-05-25T13:44:55.000Z</time>
      </trkpt>
      <trkpt lat="44.63204" lon="5.20231">
        <ele>1223</ele>
        <time>2026-05-25T13:44:56.000Z</time>
      </trkpt>
      <trkpt lat="44.63204" lon="5.20232">
        <ele>1223</ele>
        <time>2026-05-25T13:44:57.000Z</time>
      </trkpt>
      <trkpt lat="44.63204" lon="5.20233">
        <ele>1223</ele>
        <time>2026-05-25T13:44:58.000Z</time>
      </trkpt>
      <trkpt lat="44.63204" lon="5.20234">
        <ele>1223</ele>
        <time>2026-05-25T13:44:59.000Z</time>
      </trkpt>
      <trkpt lat="44.63204" lon="5.20234">
        <ele>1223</ele>
        <time>2026-05-25T13:45:00.000Z</time>
      </trkpt>
      <trkpt lat="44.63204" lon="5.20235">
        <ele>1223</ele>
        <time>2026-05-25T13:45:01.000Z</time>
      </trkpt>
      <trkpt lat="44.63204" lon="5.20236">
        <ele>1224</ele>
        <time>2026-05-25T13:45:02.000Z</time>
      </trkpt>
      <trkpt lat="44.63204" lon="5.20237">
        <ele>1223</ele>
        <time>2026-05-25T13:45:03.000Z</time>
      </trkpt>
      <trkpt lat="44.63204" lon="5.20237">
        <ele>1224</ele>
        <time>2026-05-25T13:45:04.000Z</time>
      </trkpt>
      <trkpt lat="44.63203" lon="5.20238">
        <ele>1224</ele>
        <time>2026-05-25T13:45:05.000Z</time>
      </trkpt>
      <trkpt lat="44.63203" lon="5.2024">
        <ele>1224</ele>
        <time>2026-05-25T13:45:06.000Z</time>
      </trkpt>
      <trkpt lat="44.63203" lon="5.20241">
        <ele>1225</ele>
        <time>2026-05-25T13:45:07.000Z</time>
      </trkpt>
      <trkpt lat="44.63202" lon="5.20241">
        <ele>1224</ele>
        <time>2026-05-25T13:45:08.000Z</time>
      </trkpt>
      <trkpt lat="44.63203" lon="5.20241">
        <ele>1225</ele>
        <time>2026-05-25T13:45:09.000Z</time>
      </trkpt>
      <trkpt lat="44.63202" lon="5.20242">
        <ele>1224</ele>
        <time>2026-05-25T13:45:10.000Z</time>
      </trkpt>
      <trkpt lat="44.63202" lon="5.20242">
        <ele>1224</ele>
        <time>2026-05-25T13:45:11.000Z</time>
      </trkpt>
      <trkpt lat="44.63202" lon="5.20242">
        <ele>1224</ele>
        <time>2026-05-25T13:45:12.000Z</time>
      </trkpt>
      <trkpt lat="44.63202" lon="5.20245">
        <ele>1223</ele>
        <time>2026-05-25T13:45:13.000Z</time>
      </trkpt>
      <trkpt lat="44.63202" lon="5.20245">
        <ele>1223</ele>
        <time>2026-05-25T13:45:14.000Z</time>
      </trkpt>
      <trkpt lat="44.63202" lon="5.20245">
        <ele>1222</ele>
        <time>2026-05-25T13:45:15.000Z</time>
      </trkpt>
      <trkpt lat="44.63202" lon="5.20245">
        <ele>1222</ele>
        <time>2026-05-25T13:45:16.000Z</time>
      </trkpt>
      <trkpt lat="44.63202" lon="5.20245">
        <ele>1222</ele>
        <time>2026-05-25T13:45:17.000Z</time>
      </trkpt>
      <trkpt lat="44.63202" lon="5.20245">
        <ele>1222</ele>
        <time>2026-05-25T13:45:18.000Z</time>
      </trkpt>
      <trkpt lat="44.63201" lon="5.20243">
        <ele>1221</ele>
        <time>2026-05-25T13:45:19.000Z</time>
      </trkpt>
      <trkpt lat="44.63201" lon="5.20241">
        <ele>1219</ele>
        <time>2026-05-25T13:45:20.000Z</time>
      </trkpt>
      <trkpt lat="44.63201" lon="5.20241">
        <ele>1219</ele>
        <time>2026-05-25T13:45:21.000Z</time>
      </trkpt>
      <trkpt lat="44.63201" lon="5.2024">
        <ele>1219</ele>
        <time>2026-05-25T13:45:22.000Z</time>
      </trkpt>
      <trkpt lat="44.632" lon="5.2024">
        <ele>1219</ele>
        <time>2026-05-25T13:45:23.000Z</time>
      </trkpt>
      <trkpt lat="44.632" lon="5.2024">
        <ele>1219</ele>
        <time>2026-05-25T13:45:24.000Z</time>
      </trkpt>
      <trkpt lat="44.632" lon="5.2024">
        <ele>1219</ele>
        <time>2026-05-25T13:45:25.000Z</time>
      </trkpt>
      <trkpt lat="44.632" lon="5.2024">
        <ele>1219</ele>
        <time>2026-05-25T13:45:26.000Z</time>
      </trkpt>
      <trkpt lat="44.632" lon="5.2024">
        <ele>1219</ele>
        <time>2026-05-25T13:45:27.000Z</time>
      </trkpt>
      <trkpt lat="44.632" lon="5.2024">
        <ele>1219</ele>
        <time>2026-05-25T13:45:28.000Z</time>
      </trkpt>
      <trkpt lat="44.63199" lon="5.20236">
        <ele>1216</ele>
        <time>2026-05-25T13:45:29.000Z</time>
      </trkpt>
      <trkpt lat="44.63199" lon="5.20235">
        <ele>1215</ele>
        <time>2026-05-25T13:45:30.000Z</time>
      </trkpt>
      <trkpt lat="44.63198" lon="5.20235">
        <ele>1215</ele>
        <time>2026-05-25T13:45:31.000Z</time>
      </trkpt>
      <trkpt lat="44.63196" lon="5.20237">
        <ele>1214</ele>
        <time>2026-05-25T13:45:32.000Z</time>
      </trkpt>
      <trkpt lat="44.63195" lon="5.20238">
        <ele>1213</ele>
        <time>2026-05-25T13:45:33.000Z</time>
      </trkpt>
      <trkpt lat="44.63195" lon="5.2024">
        <ele>1215</ele>
        <time>2026-05-25T13:45:34.000Z</time>
      </trkpt>
      <trkpt lat="44.63196" lon="5.20243">
        <ele>1215</ele>
        <time>2026-05-25T13:45:35.000Z</time>
      </trkpt>
      <trkpt lat="44.63195" lon="5.20244">
        <ele>1217</ele>
        <time>2026-05-25T13:45:36.000Z</time>
      </trkpt>
      <trkpt lat="44.63196" lon="5.20245">
        <ele>1218</ele>
        <time>2026-05-25T13:45:37.000Z</time>
      </trkpt>
      <trkpt lat="44.63195" lon="5.20246">
        <ele>1217</ele>
        <time>2026-05-25T13:45:38.000Z</time>
      </trkpt>
      <trkpt lat="44.63195" lon="5.20247">
        <ele>1217</ele>
        <time>2026-05-25T13:45:39.000Z</time>
      </trkpt>
      <trkpt lat="44.63195" lon="5.20249">
        <ele>1217</ele>
        <time>2026-05-25T13:45:40.000Z</time>
      </trkpt>
      <trkpt lat="44.63196" lon="5.2025">
        <ele>1218</ele>
        <time>2026-05-25T13:45:41.000Z</time>
      </trkpt>
      <trkpt lat="44.63196" lon="5.20251">
        <ele>1218</ele>
        <time>2026-05-25T13:45:42.000Z</time>
      </trkpt>
      <trkpt lat="44.63196" lon="5.20253">
        <ele>1218</ele>
        <time>2026-05-25T13:45:43.000Z</time>
      </trkpt>
      <trkpt lat="44.63197" lon="5.20254">
        <ele>1217</ele>
        <time>2026-05-25T13:45:44.000Z</time>
      </trkpt>
      <trkpt lat="44.63196" lon="5.20255">
        <ele>1217</ele>
        <time>2026-05-25T13:45:45.000Z</time>
      </trkpt>
      <trkpt lat="44.63197" lon="5.20256">
        <ele>1217</ele>
        <time>2026-05-25T13:45:46.000Z</time>
      </trkpt>
      <trkpt lat="44.63197" lon="5.20258">
        <ele>1218</ele>
        <time>2026-05-25T13:45:47.000Z</time>
      </trkpt>
      <trkpt lat="44.63197" lon="5.20259">
        <ele>1217</ele>
        <time>2026-05-25T13:45:48.000Z</time>
      </trkpt>
      <trkpt lat="44.63197" lon="5.2026">
        <ele>1217</ele>
        <time>2026-05-25T13:45:49.000Z</time>
      </trkpt>
      <trkpt lat="44.63197" lon="5.20261">
        <ele>1218</ele>
        <time>2026-05-25T13:45:50.000Z</time>
      </trkpt>
      <trkpt lat="44.63197" lon="5.20262">
        <ele>1218</ele>
        <time>2026-05-25T13:45:51.000Z</time>
      </trkpt>
      <trkpt lat="44.63198" lon="5.20263">
        <ele>1218</ele>
        <time>2026-05-25T13:45:52.000Z</time>
      </trkpt>
      <trkpt lat="44.63198" lon="5.20264">
        <ele>1217</ele>
        <time>2026-05-25T13:45:53.000Z</time>
      </trkpt>
      <trkpt lat="44.63198" lon="5.20265">
        <ele>1217</ele>
        <time>2026-05-25T13:45:54.000Z</time>
      </trkpt>
      <trkpt lat="44.63198" lon="5.20266">
        <ele>1217</ele>
        <time>2026-05-25T13:45:55.000Z</time>
      </trkpt>
      <trkpt lat="44.63198" lon="5.20267">
        <ele>1217</ele>
        <time>2026-05-25T13:45:56.000Z</time>
      </trkpt>
      <trkpt lat="44.63198" lon="5.20269">
        <ele>1217</ele>
        <time>2026-05-25T13:45:57.000Z</time>
      </trkpt>
      <trkpt lat="44.63198" lon="5.2027">
        <ele>1217</ele>
        <time>2026-05-25T13:45:58.000Z</time>
      </trkpt>
      <trkpt lat="44.63199" lon="5.20271">
        <ele>1217</ele>
        <time>2026-05-25T13:45:59.000Z</time>
      </trkpt>
      <trkpt lat="44.632" lon="5.20272">
        <ele>1217</ele>
        <time>2026-05-25T13:46:00.000Z</time>
      </trkpt>
      <trkpt lat="44.63201" lon="5.20273">
        <ele>1217</ele>
        <time>2026-05-25T13:46:01.000Z</time>
      </trkpt>
      <trkpt lat="44.63201" lon="5.20274">
        <ele>1216</ele>
        <time>2026-05-25T13:46:02.000Z</time>
      </trkpt>
      <trkpt lat="44.63202" lon="5.20275">
        <ele>1216</ele>
        <time>2026-05-25T13:46:03.000Z</time>
      </trkpt>
      <trkpt lat="44.63202" lon="5.20276">
        <ele>1215</ele>
        <time>2026-05-25T13:46:04.000Z</time>
      </trkpt>
      <trkpt lat="44.63202" lon="5.20277">
        <ele>1215</ele>
        <time>2026-05-25T13:46:05.000Z</time>
      </trkpt>
      <trkpt lat="44.63202" lon="5.20277">
        <ele>1215</ele>
        <time>2026-05-25T13:46:06.000Z</time>
      </trkpt>
      <trkpt lat="44.63202" lon="5.20277">
        <ele>1215</ele>
        <time>2026-05-25T13:46:07.000Z</time>
      </trkpt>
      <trkpt lat="44.63202" lon="5.20277">
        <ele>1215</ele>
        <time>2026-05-25T13:46:08.000Z</time>
      </trkpt>
      <trkpt lat="44.63201" lon="5.20275">
        <ele>1214</ele>
        <time>2026-05-25T13:46:09.000Z</time>
      </trkpt>
      <trkpt lat="44.632" lon="5.20275">
        <ele>1213</ele>
        <time>2026-05-25T13:46:10.000Z</time>
      </trkpt>
      <trkpt lat="44.632" lon="5.20275">
        <ele>1211</ele>
        <time>2026-05-25T13:46:11.000Z</time>
      </trkpt>
      <trkpt lat="44.632" lon="5.20274">
        <ele>1212</ele>
        <time>2026-05-25T13:46:12.000Z</time>
      </trkpt>
      <trkpt lat="44.632" lon="5.20274">
        <ele>1212</ele>
        <time>2026-05-25T13:46:13.000Z</time>
      </trkpt>
      <trkpt lat="44.632" lon="5.20272">
        <ele>1212</ele>
        <time>2026-05-25T13:46:14.000Z</time>
      </trkpt>
      <trkpt lat="44.632" lon="5.20271">
        <ele>1211</ele>
        <time>2026-05-25T13:46:15.000Z</time>
      </trkpt>
      <trkpt lat="44.63199" lon="5.20271">
        <ele>1211</ele>
        <time>2026-05-25T13:46:16.000Z</time>
      </trkpt>
      <trkpt lat="44.63198" lon="5.20271">
        <ele>1210</ele>
        <time>2026-05-25T13:46:17.000Z</time>
      </trkpt>
      <trkpt lat="44.63197" lon="5.2027">
        <ele>1210</ele>
        <time>2026-05-25T13:46:18.000Z</time>
      </trkpt>
      <trkpt lat="44.63197" lon="5.20268">
        <ele>1209</ele>
        <time>2026-05-25T13:46:19.000Z</time>
      </trkpt>
      <trkpt lat="44.63196" lon="5.20268">
        <ele>1208</ele>
        <time>2026-05-25T13:46:20.000Z</time>
      </trkpt>
      <trkpt lat="44.63196" lon="5.20268">
        <ele>1208</ele>
        <time>2026-05-25T13:46:21.000Z</time>
      </trkpt>
      <trkpt lat="44.63195" lon="5.20267">
        <ele>1208</ele>
        <time>2026-05-25T13:46:22.000Z</time>
      </trkpt>
      <trkpt lat="44.63194" lon="5.20267">
        <ele>1208</ele>
        <time>2026-05-25T13:46:23.000Z</time>
      </trkpt>
      <trkpt lat="44.63194" lon="5.20267">
        <ele>1208</ele>
        <time>2026-05-25T13:46:24.000Z</time>
      </trkpt>
      <trkpt lat="44.63194" lon="5.20267">
        <ele>1208</ele>
        <time>2026-05-25T13:46:25.000Z</time>
      </trkpt>
      <trkpt lat="44.63192" lon="5.20269">
        <ele>1208</ele>
        <time>2026-05-25T13:46:26.000Z</time>
      </trkpt>
      <trkpt lat="44.63192" lon="5.2027">
        <ele>1208</ele>
        <time>2026-05-25T13:46:27.000Z</time>
      </trkpt>
      <trkpt lat="44.63191" lon="5.20271">
        <ele>1208</ele>
        <time>2026-05-25T13:46:28.000Z</time>
      </trkpt>
      <trkpt lat="44.63191" lon="5.20272">
        <ele>1209</ele>
        <time>2026-05-25T13:46:29.000Z</time>
      </trkpt>
      <trkpt lat="44.63191" lon="5.20272">
        <ele>1209</ele>
        <time>2026-05-25T13:46:30.000Z</time>
      </trkpt>
      <trkpt lat="44.63191" lon="5.20272">
        <ele>1209</ele>
        <time>2026-05-25T13:46:31.000Z</time>
      </trkpt>
      <trkpt lat="44.63192" lon="5.20274">
        <ele>1208</ele>
        <time>2026-05-25T13:46:32.000Z</time>
      </trkpt>
      <trkpt lat="44.63192" lon="5.20275">
        <ele>1209</ele>
        <time>2026-05-25T13:46:33.000Z</time>
      </trkpt>
      <trkpt lat="44.63192" lon="5.20277">
        <ele>1209</ele>
        <time>2026-05-25T13:46:34.000Z</time>
      </trkpt>
      <trkpt lat="44.63192" lon="5.20278">
        <ele>1209</ele>
        <time>2026-05-25T13:46:35.000Z</time>
      </trkpt>
      <trkpt lat="44.63192" lon="5.20279">
        <ele>1209</ele>
        <time>2026-05-25T13:46:36.000Z</time>
      </trkpt>
      <trkpt lat="44.63192" lon="5.20281">
        <ele>1209</ele>
        <time>2026-05-25T13:46:37.000Z</time>
      </trkpt>
      <trkpt lat="44.63192" lon="5.20282">
        <ele>1209</ele>
        <time>2026-05-25T13:46:38.000Z</time>
      </trkpt>
      <trkpt lat="44.63193" lon="5.20283">
        <ele>1209</ele>
        <time>2026-05-25T13:46:39.000Z</time>
      </trkpt>
      <trkpt lat="44.63193" lon="5.20285">
        <ele>1208</ele>
        <time>2026-05-25T13:46:40.000Z</time>
      </trkpt>
      <trkpt lat="44.63194" lon="5.20286">
        <ele>1208</ele>
        <time>2026-05-25T13:46:41.000Z</time>
      </trkpt>
      <trkpt lat="44.63194" lon="5.20287">
        <ele>1208</ele>
        <time>2026-05-25T13:46:42.000Z</time>
      </trkpt>
      <trkpt lat="44.63194" lon="5.20288">
        <ele>1208</ele>
        <time>2026-05-25T13:46:43.000Z</time>
      </trkpt>
      <trkpt lat="44.63195" lon="5.20289">
        <ele>1207</ele>
        <time>2026-05-25T13:46:44.000Z</time>
      </trkpt>
      <trkpt lat="44.63195" lon="5.2029">
        <ele>1208</ele>
        <time>2026-05-25T13:46:45.000Z</time>
      </trkpt>
      <trkpt lat="44.63195" lon="5.20291">
        <ele>1208</ele>
        <time>2026-05-25T13:46:46.000Z</time>
      </trkpt>
      <trkpt lat="44.63196" lon="5.20292">
        <ele>1208</ele>
        <time>2026-05-25T13:46:47.000Z</time>
      </trkpt>
      <trkpt lat="44.63196" lon="5.20292">
        <ele>1208</ele>
        <time>2026-05-25T13:46:48.000Z</time>
      </trkpt>
      <trkpt lat="44.63196" lon="5.20292">
        <ele>1207</ele>
        <time>2026-05-25T13:46:49.000Z</time>
      </trkpt>
      <trkpt lat="44.63196" lon="5.20292">
        <ele>1207</ele>
        <time>2026-05-25T13:46:50.000Z</time>
      </trkpt>
      <trkpt lat="44.63195" lon="5.20292">
        <ele>1207</ele>
        <time>2026-05-25T13:46:51.000Z</time>
      </trkpt>
      <trkpt lat="44.63194" lon="5.20292">
        <ele>1207</ele>
        <time>2026-05-25T13:46:52.000Z</time>
      </trkpt>
      <trkpt lat="44.63194" lon="5.20291">
        <ele>1207</ele>
        <time>2026-05-25T13:46:53.000Z</time>
      </trkpt>
      <trkpt lat="44.63194" lon="5.2029">
        <ele>1207</ele>
        <time>2026-05-25T13:46:54.000Z</time>
      </trkpt>
      <trkpt lat="44.63194" lon="5.2029">
        <ele>1207</ele>
        <time>2026-05-25T13:46:55.000Z</time>
      </trkpt>
      <trkpt lat="44.63194" lon="5.2029">
        <ele>1207</ele>
        <time>2026-05-25T13:46:56.000Z</time>
      </trkpt>
      <trkpt lat="44.63192" lon="5.20288">
        <ele>1205</ele>
        <time>2026-05-25T13:46:57.000Z</time>
      </trkpt>
      <trkpt lat="44.63191" lon="5.20288">
        <ele>1205</ele>
        <time>2026-05-25T13:46:58.000Z</time>
      </trkpt>
      <trkpt lat="44.63191" lon="5.20287">
        <ele>1204</ele>
        <time>2026-05-25T13:46:59.000Z</time>
      </trkpt>
      <trkpt lat="44.63191" lon="5.20286">
        <ele>1204</ele>
        <time>2026-05-25T13:47:00.000Z</time>
      </trkpt>
      <trkpt lat="44.6319" lon="5.20286">
        <ele>1203</ele>
        <time>2026-05-25T13:47:01.000Z</time>
      </trkpt>
      <trkpt lat="44.6319" lon="5.20285">
        <ele>1203</ele>
        <time>2026-05-25T13:47:02.000Z</time>
      </trkpt>
      <trkpt lat="44.63189" lon="5.20284">
        <ele>1202</ele>
        <time>2026-05-25T13:47:03.000Z</time>
      </trkpt>
      <trkpt lat="44.63188" lon="5.20284">
        <ele>1202</ele>
        <time>2026-05-25T13:47:04.000Z</time>
      </trkpt>
      <trkpt lat="44.63187" lon="5.20283">
        <ele>1202</ele>
        <time>2026-05-25T13:47:05.000Z</time>
      </trkpt>
      <trkpt lat="44.63187" lon="5.20282">
        <ele>1202</ele>
        <time>2026-05-25T13:47:06.000Z</time>
      </trkpt>
      <trkpt lat="44.63186" lon="5.20281">
        <ele>1202</ele>
        <time>2026-05-25T13:47:07.000Z</time>
      </trkpt>
      <trkpt lat="44.63186" lon="5.2028">
        <ele>1202</ele>
        <time>2026-05-25T13:47:08.000Z</time>
      </trkpt>
      <trkpt lat="44.63185" lon="5.20278">
        <ele>1202</ele>
        <time>2026-05-25T13:47:09.000Z</time>
      </trkpt>
      <trkpt lat="44.63185" lon="5.20277">
        <ele>1201</ele>
        <time>2026-05-25T13:47:10.000Z</time>
      </trkpt>
      <trkpt lat="44.63184" lon="5.20276">
        <ele>1200</ele>
        <time>2026-05-25T13:47:11.000Z</time>
      </trkpt>
      <trkpt lat="44.63183" lon="5.20276">
        <ele>1201</ele>
        <time>2026-05-25T13:47:12.000Z</time>
      </trkpt>
      <trkpt lat="44.63183" lon="5.20275">
        <ele>1201</ele>
        <time>2026-05-25T13:47:13.000Z</time>
      </trkpt>
      <trkpt lat="44.63183" lon="5.20274">
        <ele>1201</ele>
        <time>2026-05-25T13:47:14.000Z</time>
      </trkpt>
      <trkpt lat="44.63182" lon="5.20273">
        <ele>1201</ele>
        <time>2026-05-25T13:47:15.000Z</time>
      </trkpt>
      <trkpt lat="44.63181" lon="5.20273">
        <ele>1202</ele>
        <time>2026-05-25T13:47:16.000Z</time>
      </trkpt>
      <trkpt lat="44.6318" lon="5.20272">
        <ele>1202</ele>
        <time>2026-05-25T13:47:17.000Z</time>
      </trkpt>
      <trkpt lat="44.6318" lon="5.20271">
        <ele>1200</ele>
        <time>2026-05-25T13:47:18.000Z</time>
      </trkpt>
      <trkpt lat="44.63179" lon="5.2027">
        <ele>1200</ele>
        <time>2026-05-25T13:47:19.000Z</time>
      </trkpt>
      <trkpt lat="44.63179" lon="5.2027">
        <ele>1200</ele>
        <time>2026-05-25T13:47:20.000Z</time>
      </trkpt>
      <trkpt lat="44.63178" lon="5.2027">
        <ele>1200</ele>
        <time>2026-05-25T13:47:21.000Z</time>
      </trkpt>
      <trkpt lat="44.63177" lon="5.20271">
        <ele>1201</ele>
        <time>2026-05-25T13:47:22.000Z</time>
      </trkpt>
      <trkpt lat="44.63177" lon="5.20272">
        <ele>1201</ele>
        <time>2026-05-25T13:47:23.000Z</time>
      </trkpt>
      <trkpt lat="44.63178" lon="5.20273">
        <ele>1200</ele>
        <time>2026-05-25T13:47:24.000Z</time>
      </trkpt>
      <trkpt lat="44.63178" lon="5.20274">
        <ele>1201</ele>
        <time>2026-05-25T13:47:25.000Z</time>
      </trkpt>
      <trkpt lat="44.63177" lon="5.20275">
        <ele>1201</ele>
        <time>2026-05-25T13:47:26.000Z</time>
      </trkpt>
      <trkpt lat="44.63177" lon="5.20277">
        <ele>1201</ele>
        <time>2026-05-25T13:47:27.000Z</time>
      </trkpt>
      <trkpt lat="44.63177" lon="5.20278">
        <ele>1201</ele>
        <time>2026-05-25T13:47:28.000Z</time>
      </trkpt>
      <trkpt lat="44.63178" lon="5.20279">
        <ele>1201</ele>
        <time>2026-05-25T13:47:29.000Z</time>
      </trkpt>
      <trkpt lat="44.63178" lon="5.2028">
        <ele>1201</ele>
        <time>2026-05-25T13:47:30.000Z</time>
      </trkpt>
      <trkpt lat="44.63178" lon="5.20281">
        <ele>1200</ele>
        <time>2026-05-25T13:47:31.000Z</time>
      </trkpt>
      <trkpt lat="44.63178" lon="5.20282">
        <ele>1200</ele>
        <time>2026-05-25T13:47:32.000Z</time>
      </trkpt>
      <trkpt lat="44.63178" lon="5.20283">
        <ele>1200</ele>
        <time>2026-05-25T13:47:33.000Z</time>
      </trkpt>
      <trkpt lat="44.63178" lon="5.20285">
        <ele>1201</ele>
        <time>2026-05-25T13:47:34.000Z</time>
      </trkpt>
      <trkpt lat="44.63178" lon="5.20286">
        <ele>1201</ele>
        <time>2026-05-25T13:47:35.000Z</time>
      </trkpt>
      <trkpt lat="44.63178" lon="5.20287">
        <ele>1201</ele>
        <time>2026-05-25T13:47:36.000Z</time>
      </trkpt>
      <trkpt lat="44.63178" lon="5.20289">
        <ele>1201</ele>
        <time>2026-05-25T13:47:37.000Z</time>
      </trkpt>
      <trkpt lat="44.63178" lon="5.2029">
        <ele>1202</ele>
        <time>2026-05-25T13:47:38.000Z</time>
      </trkpt>
      <trkpt lat="44.63179" lon="5.20291">
        <ele>1202</ele>
        <time>2026-05-25T13:47:39.000Z</time>
      </trkpt>
      <trkpt lat="44.63179" lon="5.20292">
        <ele>1201</ele>
        <time>2026-05-25T13:47:40.000Z</time>
      </trkpt>
      <trkpt lat="44.63179" lon="5.20293">
        <ele>1201</ele>
        <time>2026-05-25T13:47:41.000Z</time>
      </trkpt>
      <trkpt lat="44.63179" lon="5.20294">
        <ele>1201</ele>
        <time>2026-05-25T13:47:42.000Z</time>
      </trkpt>
      <trkpt lat="44.6318" lon="5.20294">
        <ele>1201</ele>
        <time>2026-05-25T13:47:43.000Z</time>
      </trkpt>
      <trkpt lat="44.6318" lon="5.20295">
        <ele>1200</ele>
        <time>2026-05-25T13:47:44.000Z</time>
      </trkpt>
      <trkpt lat="44.6318" lon="5.20296">
        <ele>1200</ele>
        <time>2026-05-25T13:47:45.000Z</time>
      </trkpt>
      <trkpt lat="44.6318" lon="5.20298">
        <ele>1199</ele>
        <time>2026-05-25T13:47:46.000Z</time>
      </trkpt>
      <trkpt lat="44.63181" lon="5.20299">
        <ele>1199</ele>
        <time>2026-05-25T13:47:47.000Z</time>
      </trkpt>
      <trkpt lat="44.63181" lon="5.203">
        <ele>1199</ele>
        <time>2026-05-25T13:47:48.000Z</time>
      </trkpt>
      <trkpt lat="44.63181" lon="5.20301">
        <ele>1199</ele>
        <time>2026-05-25T13:47:49.000Z</time>
      </trkpt>
      <trkpt lat="44.63182" lon="5.20302">
        <ele>1199</ele>
        <time>2026-05-25T13:47:50.000Z</time>
      </trkpt>
      <trkpt lat="44.63182" lon="5.20302">
        <ele>1198</ele>
        <time>2026-05-25T13:47:51.000Z</time>
      </trkpt>
      <trkpt lat="44.63181" lon="5.20303">
        <ele>1198</ele>
        <time>2026-05-25T13:47:52.000Z</time>
      </trkpt>
      <trkpt lat="44.63181" lon="5.20303">
        <ele>1198</ele>
        <time>2026-05-25T13:47:53.000Z</time>
      </trkpt>
      <trkpt lat="44.63181" lon="5.20303">
        <ele>1197</ele>
        <time>2026-05-25T13:47:54.000Z</time>
      </trkpt>
      <trkpt lat="44.63181" lon="5.20303">
        <ele>1197</ele>
        <time>2026-05-25T13:47:55.000Z</time>
      </trkpt>
      <trkpt lat="44.6318" lon="5.20303">
        <ele>1197</ele>
        <time>2026-05-25T13:47:56.000Z</time>
      </trkpt>
      <trkpt lat="44.6318" lon="5.20302">
        <ele>1196</ele>
        <time>2026-05-25T13:47:57.000Z</time>
      </trkpt>
      <trkpt lat="44.63179" lon="5.20302">
        <ele>1196</ele>
        <time>2026-05-25T13:47:58.000Z</time>
      </trkpt>
      <trkpt lat="44.63178" lon="5.20302">
        <ele>1196</ele>
        <time>2026-05-25T13:47:59.000Z</time>
      </trkpt>
      <trkpt lat="44.63176" lon="5.203">
        <ele>1195</ele>
        <time>2026-05-25T13:48:00.000Z</time>
      </trkpt>
      <trkpt lat="44.63176" lon="5.20298">
        <ele>1195</ele>
        <time>2026-05-25T13:48:01.000Z</time>
      </trkpt>
      <trkpt lat="44.63176" lon="5.20297">
        <ele>1195</ele>
        <time>2026-05-25T13:48:02.000Z</time>
      </trkpt>
      <trkpt lat="44.63175" lon="5.20296">
        <ele>1194</ele>
        <time>2026-05-25T13:48:03.000Z</time>
      </trkpt>
      <trkpt lat="44.63175" lon="5.20294">
        <ele>1194</ele>
        <time>2026-05-25T13:48:04.000Z</time>
      </trkpt>
      <trkpt lat="44.63174" lon="5.20294">
        <ele>1194</ele>
        <time>2026-05-25T13:48:05.000Z</time>
      </trkpt>
      <trkpt lat="44.63174" lon="5.20293">
        <ele>1194</ele>
        <time>2026-05-25T13:48:06.000Z</time>
      </trkpt>
      <trkpt lat="44.63173" lon="5.20292">
        <ele>1194</ele>
        <time>2026-05-25T13:48:07.000Z</time>
      </trkpt>
      <trkpt lat="44.63173" lon="5.20292">
        <ele>1194</ele>
        <time>2026-05-25T13:48:08.000Z</time>
      </trkpt>
      <trkpt lat="44.63173" lon="5.20292">
        <ele>1194</ele>
        <time>2026-05-25T13:48:09.000Z</time>
      </trkpt>
      <trkpt lat="44.63172" lon="5.20291">
        <ele>1193</ele>
        <time>2026-05-25T13:48:10.000Z</time>
      </trkpt>
      <trkpt lat="44.63172" lon="5.2029">
        <ele>1193</ele>
        <time>2026-05-25T13:48:11.000Z</time>
      </trkpt>
      <trkpt lat="44.63171" lon="5.2029">
        <ele>1192</ele>
        <time>2026-05-25T13:48:12.000Z</time>
      </trkpt>
      <trkpt lat="44.63171" lon="5.2029">
        <ele>1192</ele>
        <time>2026-05-25T13:48:13.000Z</time>
      </trkpt>
      <trkpt lat="44.6317" lon="5.20291">
        <ele>1192</ele>
        <time>2026-05-25T13:48:14.000Z</time>
      </trkpt>
      <trkpt lat="44.6317" lon="5.20292">
        <ele>1192</ele>
        <time>2026-05-25T13:48:15.000Z</time>
      </trkpt>
      <trkpt lat="44.6317" lon="5.20292">
        <ele>1192</ele>
        <time>2026-05-25T13:48:16.000Z</time>
      </trkpt>
      <trkpt lat="44.6317" lon="5.20292">
        <ele>1192</ele>
        <time>2026-05-25T13:48:17.000Z</time>
      </trkpt>
      <trkpt lat="44.63171" lon="5.20295">
        <ele>1191</ele>
        <time>2026-05-25T13:48:18.000Z</time>
      </trkpt>
      <trkpt lat="44.6317" lon="5.20296">
        <ele>1191</ele>
        <time>2026-05-25T13:48:19.000Z</time>
      </trkpt>
      <trkpt lat="44.63171" lon="5.20297">
        <ele>1190</ele>
        <time>2026-05-25T13:48:20.000Z</time>
      </trkpt>
      <trkpt lat="44.63171" lon="5.20298">
        <ele>1191</ele>
        <time>2026-05-25T13:48:21.000Z</time>
      </trkpt>
      <trkpt lat="44.63171" lon="5.20298">
        <ele>1191</ele>
        <time>2026-05-25T13:48:22.000Z</time>
      </trkpt>
      <trkpt lat="44.63171" lon="5.20298">
        <ele>1191</ele>
        <time>2026-05-25T13:48:23.000Z</time>
      </trkpt>
      <trkpt lat="44.6317" lon="5.20301">
        <ele>1191</ele>
        <time>2026-05-25T13:48:24.000Z</time>
      </trkpt>
      <trkpt lat="44.6317" lon="5.20302">
        <ele>1191</ele>
        <time>2026-05-25T13:48:25.000Z</time>
      </trkpt>
      <trkpt lat="44.6317" lon="5.20303">
        <ele>1190</ele>
        <time>2026-05-25T13:48:26.000Z</time>
      </trkpt>
      <trkpt lat="44.6317" lon="5.20304">
        <ele>1190</ele>
        <time>2026-05-25T13:48:27.000Z</time>
      </trkpt>
      <trkpt lat="44.6317" lon="5.20305">
        <ele>1190</ele>
        <time>2026-05-25T13:48:28.000Z</time>
      </trkpt>
      <trkpt lat="44.6317" lon="5.20305">
        <ele>1190</ele>
        <time>2026-05-25T13:48:29.000Z</time>
      </trkpt>
      <trkpt lat="44.6317" lon="5.20305">
        <ele>1190</ele>
        <time>2026-05-25T13:48:30.000Z</time>
      </trkpt>
      <trkpt lat="44.63169" lon="5.20304">
        <ele>1190</ele>
        <time>2026-05-25T13:48:31.000Z</time>
      </trkpt>
      <trkpt lat="44.63169" lon="5.20304">
        <ele>1190</ele>
        <time>2026-05-25T13:48:32.000Z</time>
      </trkpt>
      <trkpt lat="44.63169" lon="5.20304">
        <ele>1189</ele>
        <time>2026-05-25T13:48:33.000Z</time>
      </trkpt>
      <trkpt lat="44.63168" lon="5.20303">
        <ele>1189</ele>
        <time>2026-05-25T13:48:34.000Z</time>
      </trkpt>
      <trkpt lat="44.63168" lon="5.20302">
        <ele>1188</ele>
        <time>2026-05-25T13:48:35.000Z</time>
      </trkpt>
      <trkpt lat="44.63167" lon="5.20301">
        <ele>1188</ele>
        <time>2026-05-25T13:48:36.000Z</time>
      </trkpt>
      <trkpt lat="44.63167" lon="5.20299">
        <ele>1188</ele>
        <time>2026-05-25T13:48:37.000Z</time>
      </trkpt>
      <trkpt lat="44.63166" lon="5.20298">
        <ele>1187</ele>
        <time>2026-05-25T13:48:38.000Z</time>
      </trkpt>
      <trkpt lat="44.63166" lon="5.20296">
        <ele>1187</ele>
        <time>2026-05-25T13:48:39.000Z</time>
      </trkpt>
      <trkpt lat="44.63165" lon="5.20296">
        <ele>1187</ele>
        <time>2026-05-25T13:48:40.000Z</time>
      </trkpt>
      <trkpt lat="44.63164" lon="5.20296">
        <ele>1187</ele>
        <time>2026-05-25T13:48:41.000Z</time>
      </trkpt>
      <trkpt lat="44.63164" lon="5.20295">
        <ele>1188</ele>
        <time>2026-05-25T13:48:42.000Z</time>
      </trkpt>
      <trkpt lat="44.63164" lon="5.20295">
        <ele>1188</ele>
        <time>2026-05-25T13:48:43.000Z</time>
      </trkpt>
      <trkpt lat="44.63164" lon="5.20295">
        <ele>1186</ele>
        <time>2026-05-25T13:48:44.000Z</time>
      </trkpt>
      <trkpt lat="44.63164" lon="5.20294">
        <ele>1186</ele>
        <time>2026-05-25T13:48:45.000Z</time>
      </trkpt>
      <trkpt lat="44.63165" lon="5.20294">
        <ele>1185</ele>
        <time>2026-05-25T13:48:46.000Z</time>
      </trkpt>
      <trkpt lat="44.63164" lon="5.20294">
        <ele>1184</ele>
        <time>2026-05-25T13:48:47.000Z</time>
      </trkpt>
      <trkpt lat="44.63164" lon="5.20294">
        <ele>1184</ele>
        <time>2026-05-25T13:48:48.000Z</time>
      </trkpt>
      <trkpt lat="44.63164" lon="5.20294">
        <ele>1184</ele>
        <time>2026-05-25T13:48:49.000Z</time>
      </trkpt>
      <trkpt lat="44.63162" lon="5.20294">
        <ele>1183</ele>
        <time>2026-05-25T13:48:50.000Z</time>
      </trkpt>
      <trkpt lat="44.63162" lon="5.20294">
        <ele>1182</ele>
        <time>2026-05-25T13:48:51.000Z</time>
      </trkpt>
      <trkpt lat="44.63162" lon="5.20293">
        <ele>1183</ele>
        <time>2026-05-25T13:48:52.000Z</time>
      </trkpt>
      <trkpt lat="44.63161" lon="5.20293">
        <ele>1182</ele>
        <time>2026-05-25T13:48:53.000Z</time>
      </trkpt>
      <trkpt lat="44.63161" lon="5.20293">
        <ele>1182</ele>
        <time>2026-05-25T13:48:54.000Z</time>
      </trkpt>
      <trkpt lat="44.63161" lon="5.20293">
        <ele>1182</ele>
        <time>2026-05-25T13:48:55.000Z</time>
      </trkpt>
      <trkpt lat="44.63161" lon="5.20293">
        <ele>1182</ele>
        <time>2026-05-25T13:48:56.000Z</time>
      </trkpt>
      <trkpt lat="44.63161" lon="5.20293">
        <ele>1182</ele>
        <time>2026-05-25T13:48:57.000Z</time>
      </trkpt>
      <trkpt lat="44.63161" lon="5.20293">
        <ele>1182</ele>
        <time>2026-05-25T13:48:58.000Z</time>
      </trkpt>
      <trkpt lat="44.63161" lon="5.20293">
        <ele>1182</ele>
        <time>2026-05-25T13:48:59.000Z</time>
      </trkpt>
      <trkpt lat="44.63161" lon="5.20293">
        <ele>1182</ele>
        <time>2026-05-25T13:49:00.000Z</time>
      </trkpt>
      <trkpt lat="44.63161" lon="5.20293">
        <ele>1182</ele>
        <time>2026-05-25T13:49:01.000Z</time>
      </trkpt>
      <trkpt lat="44.63161" lon="5.20293">
        <ele>1182</ele>
        <time>2026-05-25T13:49:02.000Z</time>
      </trkpt>
      <trkpt lat="44.63161" lon="5.20293">
        <ele>1182</ele>
        <time>2026-05-25T13:49:03.000Z</time>
      </trkpt>
      <trkpt lat="44.63161" lon="5.20293">
        <ele>1182</ele>
        <time>2026-05-25T13:49:04.000Z</time>
      </trkpt>
      <trkpt lat="44.63161" lon="5.20293">
        <ele>1182</ele>
        <time>2026-05-25T13:49:05.000Z</time>
      </trkpt>
      <trkpt lat="44.63161" lon="5.20293">
        <ele>1182</ele>
        <time>2026-05-25T13:49:06.000Z</time>
      </trkpt>
      <trkpt lat="44.63161" lon="5.20293">
        <ele>1182</ele>
        <time>2026-05-25T13:49:07.000Z</time>
      </trkpt>
      <trkpt lat="44.63157" lon="5.2029">
        <ele>1182</ele>
        <time>2026-05-25T13:49:08.000Z</time>
      </trkpt>
      <trkpt lat="44.63157" lon="5.2029">
        <ele>1182</ele>
        <time>2026-05-25T13:49:09.000Z</time>
      </trkpt>
      <trkpt lat="44.63157" lon="5.20288">
        <ele>1182</ele>
        <time>2026-05-25T13:49:10.000Z</time>
      </trkpt>
      <trkpt lat="44.63156" lon="5.20287">
        <ele>1182</ele>
        <time>2026-05-25T13:49:11.000Z</time>
      </trkpt>
      <trkpt lat="44.63156" lon="5.20287">
        <ele>1182</ele>
        <time>2026-05-25T13:49:12.000Z</time>
      </trkpt>
      <trkpt lat="44.63156" lon="5.20287">
        <ele>1182</ele>
        <time>2026-05-25T13:49:13.000Z</time>
      </trkpt>
      <trkpt lat="44.63156" lon="5.20285">
        <ele>1181</ele>
        <time>2026-05-25T13:49:14.000Z</time>
      </trkpt>
      <trkpt lat="44.63156" lon="5.20283">
        <ele>1181</ele>
        <time>2026-05-25T13:49:15.000Z</time>
      </trkpt>
      <trkpt lat="44.63155" lon="5.20282">
        <ele>1180</ele>
        <time>2026-05-25T13:49:16.000Z</time>
      </trkpt>
      <trkpt lat="44.63153" lon="5.20281">
        <ele>1180</ele>
        <time>2026-05-25T13:49:17.000Z</time>
      </trkpt>
      <trkpt lat="44.63153" lon="5.20281">
        <ele>1180</ele>
        <time>2026-05-25T13:49:18.000Z</time>
      </trkpt>
      <trkpt lat="44.63152" lon="5.20281">
        <ele>1179</ele>
        <time>2026-05-25T13:49:19.000Z</time>
      </trkpt>
      <trkpt lat="44.63152" lon="5.20281">
        <ele>1179</ele>
        <time>2026-05-25T13:49:20.000Z</time>
      </trkpt>
      <trkpt lat="44.63152" lon="5.20281">
        <ele>1178</ele>
        <time>2026-05-25T13:49:21.000Z</time>
      </trkpt>
      <trkpt lat="44.63152" lon="5.20279">
        <ele>1178</ele>
        <time>2026-05-25T13:49:22.000Z</time>
      </trkpt>
      <trkpt lat="44.63152" lon="5.20277">
        <ele>1177</ele>
        <time>2026-05-25T13:49:23.000Z</time>
      </trkpt>
      <trkpt lat="44.63151" lon="5.20275">
        <ele>1176</ele>
        <time>2026-05-25T13:49:24.000Z</time>
      </trkpt>
      <trkpt lat="44.63151" lon="5.20272">
        <ele>1175</ele>
        <time>2026-05-25T13:49:25.000Z</time>
      </trkpt>
      <trkpt lat="44.6315" lon="5.20271">
        <ele>1175</ele>
        <time>2026-05-25T13:49:26.000Z</time>
      </trkpt>
      <trkpt lat="44.63149" lon="5.20271">
        <ele>1174</ele>
        <time>2026-05-25T13:49:27.000Z</time>
      </trkpt>
      <trkpt lat="44.63149" lon="5.2027">
        <ele>1174</ele>
        <time>2026-05-25T13:49:28.000Z</time>
      </trkpt>
      <trkpt lat="44.63147" lon="5.20269">
        <ele>1174</ele>
        <time>2026-05-25T13:49:29.000Z</time>
      </trkpt>
      <trkpt lat="44.63146" lon="5.20271">
        <ele>1173</ele>
        <time>2026-05-25T13:49:30.000Z</time>
      </trkpt>
      <trkpt lat="44.63146" lon="5.2027">
        <ele>1173</ele>
        <time>2026-05-25T13:49:31.000Z</time>
      </trkpt>
      <trkpt lat="44.63145" lon="5.20271">
        <ele>1173</ele>
        <time>2026-05-25T13:49:32.000Z</time>
      </trkpt>
      <trkpt lat="44.63144" lon="5.20272">
        <ele>1173</ele>
        <time>2026-05-25T13:49:33.000Z</time>
      </trkpt>
      <trkpt lat="44.63144" lon="5.20272">
        <ele>1173</ele>
        <time>2026-05-25T13:49:34.000Z</time>
      </trkpt>
      <trkpt lat="44.63142" lon="5.20273">
        <ele>1173</ele>
        <time>2026-05-25T13:49:35.000Z</time>
      </trkpt>
      <trkpt lat="44.63142" lon="5.20273">
        <ele>1173</ele>
        <time>2026-05-25T13:49:36.000Z</time>
      </trkpt>
      <trkpt lat="44.63141" lon="5.20272">
        <ele>1173</ele>
        <time>2026-05-25T13:49:37.000Z</time>
      </trkpt>
      <trkpt lat="44.6314" lon="5.20272">
        <ele>1173</ele>
        <time>2026-05-25T13:49:38.000Z</time>
      </trkpt>
      <trkpt lat="44.63138" lon="5.20272">
        <ele>1174</ele>
        <time>2026-05-25T13:49:39.000Z</time>
      </trkpt>
      <trkpt lat="44.63138" lon="5.20272">
        <ele>1174</ele>
        <time>2026-05-25T13:49:40.000Z</time>
      </trkpt>
      <trkpt lat="44.63137" lon="5.20272">
        <ele>1173</ele>
        <time>2026-05-25T13:49:41.000Z</time>
      </trkpt>
      <trkpt lat="44.63136" lon="5.20272">
        <ele>1173</ele>
        <time>2026-05-25T13:49:42.000Z</time>
      </trkpt>
      <trkpt lat="44.63136" lon="5.20272">
        <ele>1172</ele>
        <time>2026-05-25T13:49:43.000Z</time>
      </trkpt>
      <trkpt lat="44.63135" lon="5.20271">
        <ele>1172</ele>
        <time>2026-05-25T13:49:44.000Z</time>
      </trkpt>
      <trkpt lat="44.63135" lon="5.20271">
        <ele>1173</ele>
        <time>2026-05-25T13:49:45.000Z</time>
      </trkpt>
      <trkpt lat="44.63135" lon="5.20271">
        <ele>1172</ele>
        <time>2026-05-25T13:49:46.000Z</time>
      </trkpt>
      <trkpt lat="44.63133" lon="5.2027">
        <ele>1172</ele>
        <time>2026-05-25T13:49:47.000Z</time>
      </trkpt>
      <trkpt lat="44.63133" lon="5.2027">
        <ele>1171</ele>
        <time>2026-05-25T13:49:48.000Z</time>
      </trkpt>
      <trkpt lat="44.63133" lon="5.2027">
        <ele>1171</ele>
        <time>2026-05-25T13:49:49.000Z</time>
      </trkpt>
      <trkpt lat="44.63132" lon="5.20269">
        <ele>1171</ele>
        <time>2026-05-25T13:49:50.000Z</time>
      </trkpt>
      <trkpt lat="44.63132" lon="5.20269">
        <ele>1171</ele>
        <time>2026-05-25T13:49:51.000Z</time>
      </trkpt>
      <trkpt lat="44.63132" lon="5.20269">
        <ele>1171</ele>
        <time>2026-05-25T13:49:52.000Z</time>
      </trkpt>
      <trkpt lat="44.63132" lon="5.20269">
        <ele>1170</ele>
        <time>2026-05-25T13:49:53.000Z</time>
      </trkpt>
      <trkpt lat="44.63131" lon="5.20269">
        <ele>1170</ele>
        <time>2026-05-25T13:49:54.000Z</time>
      </trkpt>
      <trkpt lat="44.63131" lon="5.20268">
        <ele>1171</ele>
        <time>2026-05-25T13:49:55.000Z</time>
      </trkpt>
      <trkpt lat="44.63131" lon="5.20267">
        <ele>1170</ele>
        <time>2026-05-25T13:49:56.000Z</time>
      </trkpt>
      <trkpt lat="44.63131" lon="5.20267">
        <ele>1170</ele>
        <time>2026-05-25T13:49:57.000Z</time>
      </trkpt>
      <trkpt lat="44.63131" lon="5.20267">
        <ele>1170</ele>
        <time>2026-05-25T13:49:58.000Z</time>
      </trkpt>
      <trkpt lat="44.63131" lon="5.20267">
        <ele>1170</ele>
        <time>2026-05-25T13:49:59.000Z</time>
      </trkpt>
      <trkpt lat="44.63131" lon="5.20267">
        <ele>1170</ele>
        <time>2026-05-25T13:50:00.000Z</time>
      </trkpt>
      <trkpt lat="44.63131" lon="5.20267">
        <ele>1170</ele>
        <time>2026-05-25T13:50:01.000Z</time>
      </trkpt>
      <trkpt lat="44.63131" lon="5.20267">
        <ele>1170</ele>
        <time>2026-05-25T13:50:02.000Z</time>
      </trkpt>
      <trkpt lat="44.63128" lon="5.20266">
        <ele>1170</ele>
        <time>2026-05-25T13:50:03.000Z</time>
      </trkpt>
      <trkpt lat="44.63128" lon="5.20265">
        <ele>1170</ele>
        <time>2026-05-25T13:50:04.000Z</time>
      </trkpt>
      <trkpt lat="44.63128" lon="5.20264">
        <ele>1169</ele>
        <time>2026-05-25T13:50:05.000Z</time>
      </trkpt>
      <trkpt lat="44.63127" lon="5.20264">
        <ele>1169</ele>
        <time>2026-05-25T13:50:06.000Z</time>
      </trkpt>
      <trkpt lat="44.63127" lon="5.20264">
        <ele>1169</ele>
        <time>2026-05-25T13:50:07.000Z</time>
      </trkpt>
      <trkpt lat="44.63127" lon="5.20264">
        <ele>1169</ele>
        <time>2026-05-25T13:50:08.000Z</time>
      </trkpt>
      <trkpt lat="44.63126" lon="5.20262">
        <ele>1169</ele>
        <time>2026-05-25T13:50:09.000Z</time>
      </trkpt>
      <trkpt lat="44.63125" lon="5.20261">
        <ele>1170</ele>
        <time>2026-05-25T13:50:10.000Z</time>
      </trkpt>
      <trkpt lat="44.63125" lon="5.2026">
        <ele>1171</ele>
        <time>2026-05-25T13:50:11.000Z</time>
      </trkpt>
      <trkpt lat="44.63125" lon="5.20259">
        <ele>1171</ele>
        <time>2026-05-25T13:50:12.000Z</time>
      </trkpt>
      <trkpt lat="44.63125" lon="5.20259">
        <ele>1169</ele>
        <time>2026-05-25T13:50:13.000Z</time>
      </trkpt>
      <trkpt lat="44.63124" lon="5.20258">
        <ele>1167</ele>
        <time>2026-05-25T13:50:14.000Z</time>
      </trkpt>
      <trkpt lat="44.63124" lon="5.20258">
        <ele>1167</ele>
        <time>2026-05-25T13:50:15.000Z</time>
      </trkpt>
      <trkpt lat="44.63124" lon="5.20258">
        <ele>1167</ele>
        <time>2026-05-25T13:50:16.000Z</time>
      </trkpt>
      <trkpt lat="44.63122" lon="5.20258">
        <ele>1167</ele>
        <time>2026-05-25T13:50:17.000Z</time>
      </trkpt>
      <trkpt lat="44.63122" lon="5.20257">
        <ele>1168</ele>
        <time>2026-05-25T13:50:18.000Z</time>
      </trkpt>
      <trkpt lat="44.63122" lon="5.20256">
        <ele>1168</ele>
        <time>2026-05-25T13:50:19.000Z</time>
      </trkpt>
      <trkpt lat="44.63122" lon="5.20257">
        <ele>1166</ele>
        <time>2026-05-25T13:50:20.000Z</time>
      </trkpt>
      <trkpt lat="44.63122" lon="5.20257">
        <ele>1166</ele>
        <time>2026-05-25T13:50:21.000Z</time>
      </trkpt>
      <trkpt lat="44.6312" lon="5.20255">
        <ele>1165</ele>
        <time>2026-05-25T13:50:22.000Z</time>
      </trkpt>
      <trkpt lat="44.6312" lon="5.20254">
        <ele>1165</ele>
        <time>2026-05-25T13:50:23.000Z</time>
      </trkpt>
      <trkpt lat="44.6312" lon="5.20253">
        <ele>1165</ele>
        <time>2026-05-25T13:50:24.000Z</time>
      </trkpt>
      <trkpt lat="44.63119" lon="5.20252">
        <ele>1165</ele>
        <time>2026-05-25T13:50:25.000Z</time>
      </trkpt>
      <trkpt lat="44.63119" lon="5.20251">
        <ele>1165</ele>
        <time>2026-05-25T13:50:26.000Z</time>
      </trkpt>
      <trkpt lat="44.63119" lon="5.2025">
        <ele>1164</ele>
        <time>2026-05-25T13:50:27.000Z</time>
      </trkpt>
      <trkpt lat="44.63118" lon="5.2025">
        <ele>1164</ele>
        <time>2026-05-25T13:50:28.000Z</time>
      </trkpt>
      <trkpt lat="44.63118" lon="5.20249">
        <ele>1164</ele>
        <time>2026-05-25T13:50:29.000Z</time>
      </trkpt>
      <trkpt lat="44.63118" lon="5.20248">
        <ele>1164</ele>
        <time>2026-05-25T13:50:30.000Z</time>
      </trkpt>
      <trkpt lat="44.63118" lon="5.20247">
        <ele>1164</ele>
        <time>2026-05-25T13:50:31.000Z</time>
      </trkpt>
      <trkpt lat="44.63118" lon="5.20246">
        <ele>1164</ele>
        <time>2026-05-25T13:50:32.000Z</time>
      </trkpt>
      <trkpt lat="44.63118" lon="5.20245">
        <ele>1164</ele>
        <time>2026-05-25T13:50:33.000Z</time>
      </trkpt>
      <trkpt lat="44.63117" lon="5.20245">
        <ele>1163</ele>
        <time>2026-05-25T13:50:34.000Z</time>
      </trkpt>
      <trkpt lat="44.63116" lon="5.20245">
        <ele>1162</ele>
        <time>2026-05-25T13:50:35.000Z</time>
      </trkpt>
      <trkpt lat="44.63116" lon="5.20245">
        <ele>1162</ele>
        <time>2026-05-25T13:50:36.000Z</time>
      </trkpt>
      <trkpt lat="44.63116" lon="5.20245">
        <ele>1162</ele>
        <time>2026-05-25T13:50:37.000Z</time>
      </trkpt>
      <trkpt lat="44.63114" lon="5.20245">
        <ele>1163</ele>
        <time>2026-05-25T13:50:38.000Z</time>
      </trkpt>
      <trkpt lat="44.63114" lon="5.20245">
        <ele>1162</ele>
        <time>2026-05-25T13:50:39.000Z</time>
      </trkpt>
      <trkpt lat="44.63113" lon="5.20245">
        <ele>1162</ele>
        <time>2026-05-25T13:50:40.000Z</time>
      </trkpt>
      <trkpt lat="44.63113" lon="5.20246">
        <ele>1162</ele>
        <time>2026-05-25T13:50:41.000Z</time>
      </trkpt>
      <trkpt lat="44.63112" lon="5.20247">
        <ele>1162</ele>
        <time>2026-05-25T13:50:42.000Z</time>
      </trkpt>
      <trkpt lat="44.63112" lon="5.20248">
        <ele>1162</ele>
        <time>2026-05-25T13:50:43.000Z</time>
      </trkpt>
      <trkpt lat="44.63112" lon="5.2025">
        <ele>1163</ele>
        <time>2026-05-25T13:50:44.000Z</time>
      </trkpt>
      <trkpt lat="44.63111" lon="5.2025">
        <ele>1163</ele>
        <time>2026-05-25T13:50:45.000Z</time>
      </trkpt>
      <trkpt lat="44.63111" lon="5.20252">
        <ele>1164</ele>
        <time>2026-05-25T13:50:46.000Z</time>
      </trkpt>
      <trkpt lat="44.63111" lon="5.20253">
        <ele>1164</ele>
        <time>2026-05-25T13:50:47.000Z</time>
      </trkpt>
      <trkpt lat="44.63112" lon="5.20255">
        <ele>1164</ele>
        <time>2026-05-25T13:50:48.000Z</time>
      </trkpt>
      <trkpt lat="44.63112" lon="5.20255">
        <ele>1164</ele>
        <time>2026-05-25T13:50:49.000Z</time>
      </trkpt>
      <trkpt lat="44.63112" lon="5.20255">
        <ele>1164</ele>
        <time>2026-05-25T13:50:50.000Z</time>
      </trkpt>
      <trkpt lat="44.63112" lon="5.20256">
        <ele>1164</ele>
        <time>2026-05-25T13:50:51.000Z</time>
      </trkpt>
      <trkpt lat="44.63111" lon="5.20257">
        <ele>1164</ele>
        <time>2026-05-25T13:50:52.000Z</time>
      </trkpt>
      <trkpt lat="44.63111" lon="5.20258">
        <ele>1164</ele>
        <time>2026-05-25T13:50:53.000Z</time>
      </trkpt>
      <trkpt lat="44.63111" lon="5.20258">
        <ele>1164</ele>
        <time>2026-05-25T13:50:54.000Z</time>
      </trkpt>
      <trkpt lat="44.63111" lon="5.20259">
        <ele>1164</ele>
        <time>2026-05-25T13:50:55.000Z</time>
      </trkpt>
      <trkpt lat="44.63111" lon="5.20259">
        <ele>1163</ele>
        <time>2026-05-25T13:50:56.000Z</time>
      </trkpt>
      <trkpt lat="44.63111" lon="5.20261">
        <ele>1163</ele>
        <time>2026-05-25T13:50:57.000Z</time>
      </trkpt>
      <trkpt lat="44.63111" lon="5.20262">
        <ele>1164</ele>
        <time>2026-05-25T13:50:58.000Z</time>
      </trkpt>
      <trkpt lat="44.63111" lon="5.20263">
        <ele>1164</ele>
        <time>2026-05-25T13:50:59.000Z</time>
      </trkpt>
      <trkpt lat="44.63112" lon="5.20265">
        <ele>1164</ele>
        <time>2026-05-25T13:51:00.000Z</time>
      </trkpt>
      <trkpt lat="44.63112" lon="5.20265">
        <ele>1163</ele>
        <time>2026-05-25T13:51:01.000Z</time>
      </trkpt>
      <trkpt lat="44.63112" lon="5.20266">
        <ele>1163</ele>
        <time>2026-05-25T13:51:02.000Z</time>
      </trkpt>
      <trkpt lat="44.63112" lon="5.20266">
        <ele>1163</ele>
        <time>2026-05-25T13:51:03.000Z</time>
      </trkpt>
      <trkpt lat="44.63112" lon="5.20266">
        <ele>1163</ele>
        <time>2026-05-25T13:51:04.000Z</time>
      </trkpt>
      <trkpt lat="44.63113" lon="5.20268">
        <ele>1164</ele>
        <time>2026-05-25T13:51:05.000Z</time>
      </trkpt>
      <trkpt lat="44.63112" lon="5.20269">
        <ele>1164</ele>
        <time>2026-05-25T13:51:06.000Z</time>
      </trkpt>
      <trkpt lat="44.63113" lon="5.2027">
        <ele>1164</ele>
        <time>2026-05-25T13:51:07.000Z</time>
      </trkpt>
      <trkpt lat="44.63112" lon="5.2027">
        <ele>1164</ele>
        <time>2026-05-25T13:51:08.000Z</time>
      </trkpt>
      <trkpt lat="44.63111" lon="5.2027">
        <ele>1163</ele>
        <time>2026-05-25T13:51:09.000Z</time>
      </trkpt>
      <trkpt lat="44.63111" lon="5.2027">
        <ele>1163</ele>
        <time>2026-05-25T13:51:10.000Z</time>
      </trkpt>
      <trkpt lat="44.63111" lon="5.20269">
        <ele>1163</ele>
        <time>2026-05-25T13:51:11.000Z</time>
      </trkpt>
      <trkpt lat="44.6311" lon="5.20268">
        <ele>1163</ele>
        <time>2026-05-25T13:51:12.000Z</time>
      </trkpt>
      <trkpt lat="44.6311" lon="5.20266">
        <ele>1162</ele>
        <time>2026-05-25T13:51:13.000Z</time>
      </trkpt>
      <trkpt lat="44.6311" lon="5.20265">
        <ele>1162</ele>
        <time>2026-05-25T13:51:14.000Z</time>
      </trkpt>
      <trkpt lat="44.6311" lon="5.20264">
        <ele>1161</ele>
        <time>2026-05-25T13:51:15.000Z</time>
      </trkpt>
      <trkpt lat="44.63109" lon="5.20263">
        <ele>1162</ele>
        <time>2026-05-25T13:51:16.000Z</time>
      </trkpt>
      <trkpt lat="44.63109" lon="5.20262">
        <ele>1161</ele>
        <time>2026-05-25T13:51:17.000Z</time>
      </trkpt>
      <trkpt lat="44.63108" lon="5.20262">
        <ele>1161</ele>
        <time>2026-05-25T13:51:18.000Z</time>
      </trkpt>
      <trkpt lat="44.63108" lon="5.20261">
        <ele>1161</ele>
        <time>2026-05-25T13:51:19.000Z</time>
      </trkpt>
      <trkpt lat="44.63107" lon="5.20261">
        <ele>1160</ele>
        <time>2026-05-25T13:51:20.000Z</time>
      </trkpt>
      <trkpt lat="44.63107" lon="5.2026">
        <ele>1160</ele>
        <time>2026-05-25T13:51:21.000Z</time>
      </trkpt>
      <trkpt lat="44.63106" lon="5.20259">
        <ele>1159</ele>
        <time>2026-05-25T13:51:22.000Z</time>
      </trkpt>
      <trkpt lat="44.63105" lon="5.20258">
        <ele>1159</ele>
        <time>2026-05-25T13:51:23.000Z</time>
      </trkpt>
      <trkpt lat="44.63105" lon="5.20258">
        <ele>1159</ele>
        <time>2026-05-25T13:51:24.000Z</time>
      </trkpt>
      <trkpt lat="44.63104" lon="5.20259">
        <ele>1159</ele>
        <time>2026-05-25T13:51:25.000Z</time>
      </trkpt>
      <trkpt lat="44.63104" lon="5.2026">
        <ele>1158</ele>
        <time>2026-05-25T13:51:26.000Z</time>
      </trkpt>
      <trkpt lat="44.63104" lon="5.20261">
        <ele>1159</ele>
        <time>2026-05-25T13:51:27.000Z</time>
      </trkpt>
      <trkpt lat="44.63104" lon="5.20263">
        <ele>1159</ele>
        <time>2026-05-25T13:51:28.000Z</time>
      </trkpt>
      <trkpt lat="44.63105" lon="5.20264">
        <ele>1159</ele>
        <time>2026-05-25T13:51:29.000Z</time>
      </trkpt>
      <trkpt lat="44.63105" lon="5.20266">
        <ele>1158</ele>
        <time>2026-05-25T13:51:30.000Z</time>
      </trkpt>
      <trkpt lat="44.63105" lon="5.20268">
        <ele>1158</ele>
        <time>2026-05-25T13:51:31.000Z</time>
      </trkpt>
      <trkpt lat="44.63105" lon="5.20269">
        <ele>1158</ele>
        <time>2026-05-25T13:51:32.000Z</time>
      </trkpt>
      <trkpt lat="44.63105" lon="5.20271">
        <ele>1158</ele>
        <time>2026-05-25T13:51:33.000Z</time>
      </trkpt>
      <trkpt lat="44.63106" lon="5.20272">
        <ele>1158</ele>
        <time>2026-05-25T13:51:34.000Z</time>
      </trkpt>
      <trkpt lat="44.63106" lon="5.20273">
        <ele>1158</ele>
        <time>2026-05-25T13:51:35.000Z</time>
      </trkpt>
      <trkpt lat="44.63106" lon="5.20275">
        <ele>1157</ele>
        <time>2026-05-25T13:51:36.000Z</time>
      </trkpt>
      <trkpt lat="44.63106" lon="5.20277">
        <ele>1157</ele>
        <time>2026-05-25T13:51:37.000Z</time>
      </trkpt>
      <trkpt lat="44.63106" lon="5.20278">
        <ele>1157</ele>
        <time>2026-05-25T13:51:38.000Z</time>
      </trkpt>
      <trkpt lat="44.63106" lon="5.20279">
        <ele>1157</ele>
        <time>2026-05-25T13:51:39.000Z</time>
      </trkpt>
      <trkpt lat="44.63106" lon="5.20279">
        <ele>1157</ele>
        <time>2026-05-25T13:51:40.000Z</time>
      </trkpt>
      <trkpt lat="44.63106" lon="5.20279">
        <ele>1157</ele>
        <time>2026-05-25T13:51:41.000Z</time>
      </trkpt>
      <trkpt lat="44.63106" lon="5.20278">
        <ele>1157</ele>
        <time>2026-05-25T13:51:42.000Z</time>
      </trkpt>
      <trkpt lat="44.63106" lon="5.20278">
        <ele>1157</ele>
        <time>2026-05-25T13:51:43.000Z</time>
      </trkpt>
      <trkpt lat="44.63106" lon="5.20278">
        <ele>1157</ele>
        <time>2026-05-25T13:51:44.000Z</time>
      </trkpt>
      <trkpt lat="44.63107" lon="5.20279">
        <ele>1156</ele>
        <time>2026-05-25T13:51:45.000Z</time>
      </trkpt>
      <trkpt lat="44.63108" lon="5.20281">
        <ele>1157</ele>
        <time>2026-05-25T13:51:46.000Z</time>
      </trkpt>
      <trkpt lat="44.63108" lon="5.20282">
        <ele>1157</ele>
        <time>2026-05-25T13:51:47.000Z</time>
      </trkpt>
      <trkpt lat="44.63109" lon="5.20283">
        <ele>1157</ele>
        <time>2026-05-25T13:51:48.000Z</time>
      </trkpt>
      <trkpt lat="44.6311" lon="5.20284">
        <ele>1157</ele>
        <time>2026-05-25T13:51:49.000Z</time>
      </trkpt>
      <trkpt lat="44.6311" lon="5.20286">
        <ele>1157</ele>
        <time>2026-05-25T13:51:50.000Z</time>
      </trkpt>
      <trkpt lat="44.6311" lon="5.20287">
        <ele>1157</ele>
        <time>2026-05-25T13:51:51.000Z</time>
      </trkpt>
      <trkpt lat="44.63111" lon="5.20288">
        <ele>1156</ele>
        <time>2026-05-25T13:51:52.000Z</time>
      </trkpt>
      <trkpt lat="44.63111" lon="5.20289">
        <ele>1156</ele>
        <time>2026-05-25T13:51:53.000Z</time>
      </trkpt>
      <trkpt lat="44.63111" lon="5.2029">
        <ele>1157</ele>
        <time>2026-05-25T13:51:54.000Z</time>
      </trkpt>
      <trkpt lat="44.63111" lon="5.20291">
        <ele>1157</ele>
        <time>2026-05-25T13:51:55.000Z</time>
      </trkpt>
      <trkpt lat="44.63111" lon="5.20292">
        <ele>1156</ele>
        <time>2026-05-25T13:51:56.000Z</time>
      </trkpt>
      <trkpt lat="44.63111" lon="5.20293">
        <ele>1156</ele>
        <time>2026-05-25T13:51:57.000Z</time>
      </trkpt>
      <trkpt lat="44.6311" lon="5.20294">
        <ele>1156</ele>
        <time>2026-05-25T13:51:58.000Z</time>
      </trkpt>
      <trkpt lat="44.6311" lon="5.20294">
        <ele>1156</ele>
        <time>2026-05-25T13:51:59.000Z</time>
      </trkpt>
      <trkpt lat="44.63109" lon="5.20294">
        <ele>1156</ele>
        <time>2026-05-25T13:52:00.000Z</time>
      </trkpt>
      <trkpt lat="44.63109" lon="5.20293">
        <ele>1156</ele>
        <time>2026-05-25T13:52:01.000Z</time>
      </trkpt>
      <trkpt lat="44.63109" lon="5.20292">
        <ele>1156</ele>
        <time>2026-05-25T13:52:02.000Z</time>
      </trkpt>
      <trkpt lat="44.63108" lon="5.20291">
        <ele>1155</ele>
        <time>2026-05-25T13:52:03.000Z</time>
      </trkpt>
      <trkpt lat="44.63108" lon="5.2029">
        <ele>1155</ele>
        <time>2026-05-25T13:52:04.000Z</time>
      </trkpt>
      <trkpt lat="44.63107" lon="5.20289">
        <ele>1155</ele>
        <time>2026-05-25T13:52:05.000Z</time>
      </trkpt>
      <trkpt lat="44.63107" lon="5.20287">
        <ele>1155</ele>
        <time>2026-05-25T13:52:06.000Z</time>
      </trkpt>
      <trkpt lat="44.63106" lon="5.20286">
        <ele>1155</ele>
        <time>2026-05-25T13:52:07.000Z</time>
      </trkpt>
      <trkpt lat="44.63106" lon="5.20285">
        <ele>1154</ele>
        <time>2026-05-25T13:52:08.000Z</time>
      </trkpt>
      <trkpt lat="44.63105" lon="5.20284">
        <ele>1154</ele>
        <time>2026-05-25T13:52:09.000Z</time>
      </trkpt>
      <trkpt lat="44.63104" lon="5.20283">
        <ele>1154</ele>
        <time>2026-05-25T13:52:10.000Z</time>
      </trkpt>
      <trkpt lat="44.63103" lon="5.20282">
        <ele>1154</ele>
        <time>2026-05-25T13:52:11.000Z</time>
      </trkpt>
      <trkpt lat="44.63102" lon="5.20281">
        <ele>1154</ele>
        <time>2026-05-25T13:52:12.000Z</time>
      </trkpt>
      <trkpt lat="44.63101" lon="5.2028">
        <ele>1153</ele>
        <time>2026-05-25T13:52:13.000Z</time>
      </trkpt>
      <trkpt lat="44.631" lon="5.20279">
        <ele>1154</ele>
        <time>2026-05-25T13:52:14.000Z</time>
      </trkpt>
      <trkpt lat="44.63099" lon="5.20278">
        <ele>1154</ele>
        <time>2026-05-25T13:52:15.000Z</time>
      </trkpt>
      <trkpt lat="44.63098" lon="5.20277">
        <ele>1154</ele>
        <time>2026-05-25T13:52:16.000Z</time>
      </trkpt>
      <trkpt lat="44.63097" lon="5.20276">
        <ele>1153</ele>
        <time>2026-05-25T13:52:17.000Z</time>
      </trkpt>
      <trkpt lat="44.63097" lon="5.20276">
        <ele>1153</ele>
        <time>2026-05-25T13:52:18.000Z</time>
      </trkpt>
      <trkpt lat="44.63096" lon="5.20276">
        <ele>1153</ele>
        <time>2026-05-25T13:52:19.000Z</time>
      </trkpt>
      <trkpt lat="44.63096" lon="5.20277">
        <ele>1153</ele>
        <time>2026-05-25T13:52:20.000Z</time>
      </trkpt>
      <trkpt lat="44.63096" lon="5.20278">
        <ele>1152</ele>
        <time>2026-05-25T13:52:21.000Z</time>
      </trkpt>
      <trkpt lat="44.63096" lon="5.20279">
        <ele>1152</ele>
        <time>2026-05-25T13:52:22.000Z</time>
      </trkpt>
      <trkpt lat="44.63096" lon="5.20279">
        <ele>1152</ele>
        <time>2026-05-25T13:52:23.000Z</time>
      </trkpt>
      <trkpt lat="44.63096" lon="5.20279">
        <ele>1152</ele>
        <time>2026-05-25T13:52:24.000Z</time>
      </trkpt>
      <trkpt lat="44.63096" lon="5.20279">
        <ele>1152</ele>
        <time>2026-05-25T13:52:25.000Z</time>
      </trkpt>
      <trkpt lat="44.63097" lon="5.20282">
        <ele>1151</ele>
        <time>2026-05-25T13:52:26.000Z</time>
      </trkpt>
      <trkpt lat="44.63097" lon="5.20283">
        <ele>1151</ele>
        <time>2026-05-25T13:52:27.000Z</time>
      </trkpt>
      <trkpt lat="44.63097" lon="5.20284">
        <ele>1151</ele>
        <time>2026-05-25T13:52:28.000Z</time>
      </trkpt>
      <trkpt lat="44.63097" lon="5.20286">
        <ele>1151</ele>
        <time>2026-05-25T13:52:29.000Z</time>
      </trkpt>
      <trkpt lat="44.63098" lon="5.20288">
        <ele>1151</ele>
        <time>2026-05-25T13:52:30.000Z</time>
      </trkpt>
      <trkpt lat="44.63098" lon="5.20289">
        <ele>1151</ele>
        <time>2026-05-25T13:52:31.000Z</time>
      </trkpt>
      <trkpt lat="44.63098" lon="5.2029">
        <ele>1151</ele>
        <time>2026-05-25T13:52:32.000Z</time>
      </trkpt>
      <trkpt lat="44.63099" lon="5.20291">
        <ele>1151</ele>
        <time>2026-05-25T13:52:33.000Z</time>
      </trkpt>
      <trkpt lat="44.63099" lon="5.20293">
        <ele>1151</ele>
        <time>2026-05-25T13:52:34.000Z</time>
      </trkpt>
      <trkpt lat="44.63099" lon="5.20293">
        <ele>1150</ele>
        <time>2026-05-25T13:52:35.000Z</time>
      </trkpt>
      <trkpt lat="44.63099" lon="5.20294">
        <ele>1150</ele>
        <time>2026-05-25T13:52:36.000Z</time>
      </trkpt>
      <trkpt lat="44.63098" lon="5.20295">
        <ele>1150</ele>
        <time>2026-05-25T13:52:37.000Z</time>
      </trkpt>
      <trkpt lat="44.63097" lon="5.20296">
        <ele>1150</ele>
        <time>2026-05-25T13:52:38.000Z</time>
      </trkpt>
      <trkpt lat="44.63097" lon="5.20296">
        <ele>1149</ele>
        <time>2026-05-25T13:52:39.000Z</time>
      </trkpt>
      <trkpt lat="44.63096" lon="5.20297">
        <ele>1149</ele>
        <time>2026-05-25T13:52:40.000Z</time>
      </trkpt>
      <trkpt lat="44.63096" lon="5.20298">
        <ele>1148</ele>
        <time>2026-05-25T13:52:41.000Z</time>
      </trkpt>
      <trkpt lat="44.63096" lon="5.20299">
        <ele>1148</ele>
        <time>2026-05-25T13:52:42.000Z</time>
      </trkpt>
      <trkpt lat="44.63095" lon="5.20301">
        <ele>1148</ele>
        <time>2026-05-25T13:52:43.000Z</time>
      </trkpt>
      <trkpt lat="44.63095" lon="5.20303">
        <ele>1147</ele>
        <time>2026-05-25T13:52:44.000Z</time>
      </trkpt>
      <trkpt lat="44.63095" lon="5.20304">
        <ele>1147</ele>
        <time>2026-05-25T13:52:45.000Z</time>
      </trkpt>
      <trkpt lat="44.63095" lon="5.20306">
        <ele>1147</ele>
        <time>2026-05-25T13:52:46.000Z</time>
      </trkpt>
      <trkpt lat="44.63095" lon="5.20308">
        <ele>1148</ele>
        <time>2026-05-25T13:52:47.000Z</time>
      </trkpt>
      <trkpt lat="44.63096" lon="5.2031">
        <ele>1148</ele>
        <time>2026-05-25T13:52:48.000Z</time>
      </trkpt>
      <trkpt lat="44.63097" lon="5.20311">
        <ele>1147</ele>
        <time>2026-05-25T13:52:49.000Z</time>
      </trkpt>
      <trkpt lat="44.63097" lon="5.20313">
        <ele>1147</ele>
        <time>2026-05-25T13:52:50.000Z</time>
      </trkpt>
      <trkpt lat="44.63097" lon="5.20314">
        <ele>1147</ele>
        <time>2026-05-25T13:52:51.000Z</time>
      </trkpt>
      <trkpt lat="44.63097" lon="5.20315">
        <ele>1147</ele>
        <time>2026-05-25T13:52:52.000Z</time>
      </trkpt>
      <trkpt lat="44.63098" lon="5.20316">
        <ele>1147</ele>
        <time>2026-05-25T13:52:53.000Z</time>
      </trkpt>
      <trkpt lat="44.63098" lon="5.20317">
        <ele>1148</ele>
        <time>2026-05-25T13:52:54.000Z</time>
      </trkpt>
      <trkpt lat="44.63098" lon="5.20318">
        <ele>1148</ele>
        <time>2026-05-25T13:52:55.000Z</time>
      </trkpt>
      <trkpt lat="44.63098" lon="5.20319">
        <ele>1147</ele>
        <time>2026-05-25T13:52:56.000Z</time>
      </trkpt>
      <trkpt lat="44.63098" lon="5.2032">
        <ele>1147</ele>
        <time>2026-05-25T13:52:57.000Z</time>
      </trkpt>
      <trkpt lat="44.63098" lon="5.2032">
        <ele>1146</ele>
        <time>2026-05-25T13:52:58.000Z</time>
      </trkpt>
      <trkpt lat="44.63098" lon="5.20321">
        <ele>1146</ele>
        <time>2026-05-25T13:52:59.000Z</time>
      </trkpt>
      <trkpt lat="44.63098" lon="5.20322">
        <ele>1146</ele>
        <time>2026-05-25T13:53:00.000Z</time>
      </trkpt>
      <trkpt lat="44.63099" lon="5.20323">
        <ele>1146</ele>
        <time>2026-05-25T13:53:01.000Z</time>
      </trkpt>
      <trkpt lat="44.63099" lon="5.20324">
        <ele>1146</ele>
        <time>2026-05-25T13:53:02.000Z</time>
      </trkpt>
      <trkpt lat="44.63099" lon="5.20324">
        <ele>1146</ele>
        <time>2026-05-25T13:53:03.000Z</time>
      </trkpt>
      <trkpt lat="44.63099" lon="5.20325">
        <ele>1146</ele>
        <time>2026-05-25T13:53:04.000Z</time>
      </trkpt>
      <trkpt lat="44.63098" lon="5.20326">
        <ele>1145</ele>
        <time>2026-05-25T13:53:05.000Z</time>
      </trkpt>
      <trkpt lat="44.63097" lon="5.20327">
        <ele>1145</ele>
        <time>2026-05-25T13:53:06.000Z</time>
      </trkpt>
      <trkpt lat="44.63096" lon="5.20327">
        <ele>1145</ele>
        <time>2026-05-25T13:53:07.000Z</time>
      </trkpt>
      <trkpt lat="44.63095" lon="5.20326">
        <ele>1144</ele>
        <time>2026-05-25T13:53:08.000Z</time>
      </trkpt>
      <trkpt lat="44.63094" lon="5.20325">
        <ele>1144</ele>
        <time>2026-05-25T13:53:09.000Z</time>
      </trkpt>
      <trkpt lat="44.63093" lon="5.20323">
        <ele>1143</ele>
        <time>2026-05-25T13:53:10.000Z</time>
      </trkpt>
      <trkpt lat="44.63092" lon="5.20323">
        <ele>1143</ele>
        <time>2026-05-25T13:53:11.000Z</time>
      </trkpt>
      <trkpt lat="44.63091" lon="5.20322">
        <ele>1143</ele>
        <time>2026-05-25T13:53:12.000Z</time>
      </trkpt>
      <trkpt lat="44.6309" lon="5.20321">
        <ele>1143</ele>
        <time>2026-05-25T13:53:13.000Z</time>
      </trkpt>
      <trkpt lat="44.63089" lon="5.2032">
        <ele>1142</ele>
        <time>2026-05-25T13:53:14.000Z</time>
      </trkpt>
      <trkpt lat="44.63088" lon="5.20318">
        <ele>1141</ele>
        <time>2026-05-25T13:53:15.000Z</time>
      </trkpt>
      <trkpt lat="44.63087" lon="5.20318">
        <ele>1141</ele>
        <time>2026-05-25T13:53:16.000Z</time>
      </trkpt>
      <trkpt lat="44.63087" lon="5.20316">
        <ele>1141</ele>
        <time>2026-05-25T13:53:17.000Z</time>
      </trkpt>
      <trkpt lat="44.63086" lon="5.20316">
        <ele>1141</ele>
        <time>2026-05-25T13:53:18.000Z</time>
      </trkpt>
      <trkpt lat="44.63085" lon="5.20316">
        <ele>1141</ele>
        <time>2026-05-25T13:53:19.000Z</time>
      </trkpt>
      <trkpt lat="44.63085" lon="5.20317">
        <ele>1141</ele>
        <time>2026-05-25T13:53:20.000Z</time>
      </trkpt>
      <trkpt lat="44.63085" lon="5.20319">
        <ele>1141</ele>
        <time>2026-05-25T13:53:21.000Z</time>
      </trkpt>
      <trkpt lat="44.63085" lon="5.2032">
        <ele>1142</ele>
        <time>2026-05-25T13:53:22.000Z</time>
      </trkpt>
      <trkpt lat="44.63086" lon="5.20321">
        <ele>1142</ele>
        <time>2026-05-25T13:53:23.000Z</time>
      </trkpt>
      <trkpt lat="44.63086" lon="5.20322">
        <ele>1142</ele>
        <time>2026-05-25T13:53:24.000Z</time>
      </trkpt>
      <trkpt lat="44.63086" lon="5.20324">
        <ele>1141</ele>
        <time>2026-05-25T13:53:25.000Z</time>
      </trkpt>
      <trkpt lat="44.63086" lon="5.20325">
        <ele>1141</ele>
        <time>2026-05-25T13:53:26.000Z</time>
      </trkpt>
      <trkpt lat="44.63086" lon="5.20327">
        <ele>1141</ele>
        <time>2026-05-25T13:53:27.000Z</time>
      </trkpt>
      <trkpt lat="44.63087" lon="5.20329">
        <ele>1141</ele>
        <time>2026-05-25T13:53:28.000Z</time>
      </trkpt>
      <trkpt lat="44.63087" lon="5.2033">
        <ele>1141</ele>
        <time>2026-05-25T13:53:29.000Z</time>
      </trkpt>
      <trkpt lat="44.63087" lon="5.20332">
        <ele>1141</ele>
        <time>2026-05-25T13:53:30.000Z</time>
      </trkpt>
      <trkpt lat="44.63087" lon="5.20333">
        <ele>1141</ele>
        <time>2026-05-25T13:53:31.000Z</time>
      </trkpt>
      <trkpt lat="44.63087" lon="5.20334">
        <ele>1141</ele>
        <time>2026-05-25T13:53:32.000Z</time>
      </trkpt>
      <trkpt lat="44.63087" lon="5.20334">
        <ele>1141</ele>
        <time>2026-05-25T13:53:33.000Z</time>
      </trkpt>
      <trkpt lat="44.63088" lon="5.20335">
        <ele>1141</ele>
        <time>2026-05-25T13:53:34.000Z</time>
      </trkpt>
      <trkpt lat="44.63088" lon="5.20337">
        <ele>1142</ele>
        <time>2026-05-25T13:53:35.000Z</time>
      </trkpt>
      <trkpt lat="44.63087" lon="5.20338">
        <ele>1142</ele>
        <time>2026-05-25T13:53:36.000Z</time>
      </trkpt>
      <trkpt lat="44.63087" lon="5.20339">
        <ele>1141</ele>
        <time>2026-05-25T13:53:37.000Z</time>
      </trkpt>
      <trkpt lat="44.63087" lon="5.2034">
        <ele>1141</ele>
        <time>2026-05-25T13:53:38.000Z</time>
      </trkpt>
      <trkpt lat="44.63087" lon="5.20341">
        <ele>1141</ele>
        <time>2026-05-25T13:53:39.000Z</time>
      </trkpt>
      <trkpt lat="44.63087" lon="5.20343">
        <ele>1141</ele>
        <time>2026-05-25T13:53:40.000Z</time>
      </trkpt>
      <trkpt lat="44.63087" lon="5.20344">
        <ele>1140</ele>
        <time>2026-05-25T13:53:41.000Z</time>
      </trkpt>
      <trkpt lat="44.63087" lon="5.20345">
        <ele>1141</ele>
        <time>2026-05-25T13:53:42.000Z</time>
      </trkpt>
      <trkpt lat="44.63087" lon="5.20346">
        <ele>1141</ele>
        <time>2026-05-25T13:53:43.000Z</time>
      </trkpt>
      <trkpt lat="44.63087" lon="5.20348">
        <ele>1140</ele>
        <time>2026-05-25T13:53:44.000Z</time>
      </trkpt>
      <trkpt lat="44.63087" lon="5.20349">
        <ele>1140</ele>
        <time>2026-05-25T13:53:45.000Z</time>
      </trkpt>
      <trkpt lat="44.63086" lon="5.2035">
        <ele>1141</ele>
        <time>2026-05-25T13:53:46.000Z</time>
      </trkpt>
      <trkpt lat="44.63086" lon="5.2035">
        <ele>1141</ele>
        <time>2026-05-25T13:53:47.000Z</time>
      </trkpt>
      <trkpt lat="44.63085" lon="5.2035">
        <ele>1140</ele>
        <time>2026-05-25T13:53:48.000Z</time>
      </trkpt>
      <trkpt lat="44.63084" lon="5.2035">
        <ele>1140</ele>
        <time>2026-05-25T13:53:49.000Z</time>
      </trkpt>
      <trkpt lat="44.63084" lon="5.20348">
        <ele>1140</ele>
        <time>2026-05-25T13:53:50.000Z</time>
      </trkpt>
      <trkpt lat="44.63083" lon="5.20347">
        <ele>1139</ele>
        <time>2026-05-25T13:53:51.000Z</time>
      </trkpt>
      <trkpt lat="44.63082" lon="5.20345">
        <ele>1138</ele>
        <time>2026-05-25T13:53:52.000Z</time>
      </trkpt>
      <trkpt lat="44.63082" lon="5.20345">
        <ele>1138</ele>
        <time>2026-05-25T13:53:53.000Z</time>
      </trkpt>
      <trkpt lat="44.63081" lon="5.20346">
        <ele>1138</ele>
        <time>2026-05-25T13:53:54.000Z</time>
      </trkpt>
      <trkpt lat="44.6308" lon="5.20348">
        <ele>1138</ele>
        <time>2026-05-25T13:53:55.000Z</time>
      </trkpt>
      <trkpt lat="44.6308" lon="5.2035">
        <ele>1137</ele>
        <time>2026-05-25T13:53:56.000Z</time>
      </trkpt>
      <trkpt lat="44.6308" lon="5.20351">
        <ele>1137</ele>
        <time>2026-05-25T13:53:57.000Z</time>
      </trkpt>
      <trkpt lat="44.63081" lon="5.20352">
        <ele>1136</ele>
        <time>2026-05-25T13:53:58.000Z</time>
      </trkpt>
      <trkpt lat="44.63081" lon="5.20353">
        <ele>1136</ele>
        <time>2026-05-25T13:53:59.000Z</time>
      </trkpt>
      <trkpt lat="44.63081" lon="5.20353">
        <ele>1136</ele>
        <time>2026-05-25T13:54:00.000Z</time>
      </trkpt>
      <trkpt lat="44.63081" lon="5.20353">
        <ele>1136</ele>
        <time>2026-05-25T13:54:01.000Z</time>
      </trkpt>
      <trkpt lat="44.63081" lon="5.20353">
        <ele>1136</ele>
        <time>2026-05-25T13:54:02.000Z</time>
      </trkpt>
      <trkpt lat="44.63082" lon="5.20354">
        <ele>1136</ele>
        <time>2026-05-25T13:54:03.000Z</time>
      </trkpt>
      <trkpt lat="44.63082" lon="5.20356">
        <ele>1135</ele>
        <time>2026-05-25T13:54:04.000Z</time>
      </trkpt>
      <trkpt lat="44.63083" lon="5.20357">
        <ele>1135</ele>
        <time>2026-05-25T13:54:05.000Z</time>
      </trkpt>
      <trkpt lat="44.63083" lon="5.20358">
        <ele>1135</ele>
        <time>2026-05-25T13:54:06.000Z</time>
      </trkpt>
      <trkpt lat="44.63084" lon="5.20358">
        <ele>1136</ele>
        <time>2026-05-25T13:54:07.000Z</time>
      </trkpt>
      <trkpt lat="44.63084" lon="5.2036">
        <ele>1136</ele>
        <time>2026-05-25T13:54:08.000Z</time>
      </trkpt>
      <trkpt lat="44.63084" lon="5.20361">
        <ele>1136</ele>
        <time>2026-05-25T13:54:09.000Z</time>
      </trkpt>
      <trkpt lat="44.63085" lon="5.20362">
        <ele>1135</ele>
        <time>2026-05-25T13:54:10.000Z</time>
      </trkpt>
      <trkpt lat="44.63085" lon="5.20362">
        <ele>1135</ele>
        <time>2026-05-25T13:54:11.000Z</time>
      </trkpt>
      <trkpt lat="44.63085" lon="5.20364">
        <ele>1134</ele>
        <time>2026-05-25T13:54:12.000Z</time>
      </trkpt>
      <trkpt lat="44.63085" lon="5.20365">
        <ele>1135</ele>
        <time>2026-05-25T13:54:13.000Z</time>
      </trkpt>
      <trkpt lat="44.63084" lon="5.20365">
        <ele>1135</ele>
        <time>2026-05-25T13:54:14.000Z</time>
      </trkpt>
      <trkpt lat="44.63085" lon="5.20366">
        <ele>1135</ele>
        <time>2026-05-25T13:54:15.000Z</time>
      </trkpt>
      <trkpt lat="44.63085" lon="5.20366">
        <ele>1135</ele>
        <time>2026-05-25T13:54:16.000Z</time>
      </trkpt>
      <trkpt lat="44.63085" lon="5.20368">
        <ele>1134</ele>
        <time>2026-05-25T13:54:17.000Z</time>
      </trkpt>
      <trkpt lat="44.63085" lon="5.20369">
        <ele>1134</ele>
        <time>2026-05-25T13:54:18.000Z</time>
      </trkpt>
      <trkpt lat="44.63085" lon="5.2037">
        <ele>1134</ele>
        <time>2026-05-25T13:54:19.000Z</time>
      </trkpt>
      <trkpt lat="44.63085" lon="5.20372">
        <ele>1134</ele>
        <time>2026-05-25T13:54:20.000Z</time>
      </trkpt>
      <trkpt lat="44.63085" lon="5.20373">
        <ele>1134</ele>
        <time>2026-05-25T13:54:21.000Z</time>
      </trkpt>
      <trkpt lat="44.63086" lon="5.20374">
        <ele>1134</ele>
        <time>2026-05-25T13:54:22.000Z</time>
      </trkpt>
      <trkpt lat="44.63086" lon="5.20375">
        <ele>1135</ele>
        <time>2026-05-25T13:54:23.000Z</time>
      </trkpt>
      <trkpt lat="44.63087" lon="5.20376">
        <ele>1135</ele>
        <time>2026-05-25T13:54:24.000Z</time>
      </trkpt>
      <trkpt lat="44.63087" lon="5.20377">
        <ele>1134</ele>
        <time>2026-05-25T13:54:25.000Z</time>
      </trkpt>
      <trkpt lat="44.63087" lon="5.20378">
        <ele>1134</ele>
        <time>2026-05-25T13:54:26.000Z</time>
      </trkpt>
      <trkpt lat="44.63088" lon="5.20379">
        <ele>1134</ele>
        <time>2026-05-25T13:54:27.000Z</time>
      </trkpt>
      <trkpt lat="44.63088" lon="5.2038">
        <ele>1134</ele>
        <time>2026-05-25T13:54:28.000Z</time>
      </trkpt>
      <trkpt lat="44.63088" lon="5.20381">
        <ele>1134</ele>
        <time>2026-05-25T13:54:29.000Z</time>
      </trkpt>
      <trkpt lat="44.63088" lon="5.20383">
        <ele>1133</ele>
        <time>2026-05-25T13:54:30.000Z</time>
      </trkpt>
      <trkpt lat="44.63088" lon="5.20384">
        <ele>1133</ele>
        <time>2026-05-25T13:54:31.000Z</time>
      </trkpt>
      <trkpt lat="44.63088" lon="5.20386">
        <ele>1133</ele>
        <time>2026-05-25T13:54:32.000Z</time>
      </trkpt>
      <trkpt lat="44.63088" lon="5.20387">
        <ele>1133</ele>
        <time>2026-05-25T13:54:33.000Z</time>
      </trkpt>
      <trkpt lat="44.63089" lon="5.20388">
        <ele>1132</ele>
        <time>2026-05-25T13:54:34.000Z</time>
      </trkpt>
      <trkpt lat="44.63089" lon="5.2039">
        <ele>1132</ele>
        <time>2026-05-25T13:54:35.000Z</time>
      </trkpt>
      <trkpt lat="44.63089" lon="5.20391">
        <ele>1132</ele>
        <time>2026-05-25T13:54:36.000Z</time>
      </trkpt>
      <trkpt lat="44.63089" lon="5.20392">
        <ele>1132</ele>
        <time>2026-05-25T13:54:37.000Z</time>
      </trkpt>
      <trkpt lat="44.63089" lon="5.20393">
        <ele>1132</ele>
        <time>2026-05-25T13:54:38.000Z</time>
      </trkpt>
      <trkpt lat="44.63089" lon="5.20394">
        <ele>1131</ele>
        <time>2026-05-25T13:54:39.000Z</time>
      </trkpt>
      <trkpt lat="44.63089" lon="5.20394">
        <ele>1131</ele>
        <time>2026-05-25T13:54:40.000Z</time>
      </trkpt>
      <trkpt lat="44.63089" lon="5.20394">
        <ele>1131</ele>
        <time>2026-05-25T13:54:41.000Z</time>
      </trkpt>
      <trkpt lat="44.63087" lon="5.20393">
        <ele>1132</ele>
        <time>2026-05-25T13:54:42.000Z</time>
      </trkpt>
      <trkpt lat="44.63086" lon="5.20392">
        <ele>1131</ele>
        <time>2026-05-25T13:54:43.000Z</time>
      </trkpt>
      <trkpt lat="44.63086" lon="5.20392">
        <ele>1130</ele>
        <time>2026-05-25T13:54:44.000Z</time>
      </trkpt>
      <trkpt lat="44.63085" lon="5.20391">
        <ele>1129</ele>
        <time>2026-05-25T13:54:45.000Z</time>
      </trkpt>
      <trkpt lat="44.63085" lon="5.20391">
        <ele>1129</ele>
        <time>2026-05-25T13:54:46.000Z</time>
      </trkpt>
      <trkpt lat="44.63085" lon="5.20391">
        <ele>1129</ele>
        <time>2026-05-25T13:54:47.000Z</time>
      </trkpt>
      <trkpt lat="44.63085" lon="5.20391">
        <ele>1129</ele>
        <time>2026-05-25T13:54:48.000Z</time>
      </trkpt>
      <trkpt lat="44.63085" lon="5.20391">
        <ele>1129</ele>
        <time>2026-05-25T13:54:49.000Z</time>
      </trkpt>
      <trkpt lat="44.63085" lon="5.20394">
        <ele>1125</ele>
        <time>2026-05-25T13:54:50.000Z</time>
      </trkpt>
      <trkpt lat="44.63085" lon="5.20395">
        <ele>1126</ele>
        <time>2026-05-25T13:54:51.000Z</time>
      </trkpt>
      <trkpt lat="44.63085" lon="5.20396">
        <ele>1126</ele>
        <time>2026-05-25T13:54:52.000Z</time>
      </trkpt>
      <trkpt lat="44.63085" lon="5.20397">
        <ele>1125</ele>
        <time>2026-05-25T13:54:53.000Z</time>
      </trkpt>
      <trkpt lat="44.63085" lon="5.20398">
        <ele>1125</ele>
        <time>2026-05-25T13:54:54.000Z</time>
      </trkpt>
      <trkpt lat="44.63086" lon="5.20399">
        <ele>1125</ele>
        <time>2026-05-25T13:54:55.000Z</time>
      </trkpt>
      <trkpt lat="44.63086" lon="5.204">
        <ele>1125</ele>
        <time>2026-05-25T13:54:56.000Z</time>
      </trkpt>
      <trkpt lat="44.63086" lon="5.20401">
        <ele>1125</ele>
        <time>2026-05-25T13:54:57.000Z</time>
      </trkpt>
      <trkpt lat="44.63086" lon="5.20401">
        <ele>1125</ele>
        <time>2026-05-25T13:54:58.000Z</time>
      </trkpt>
      <trkpt lat="44.63086" lon="5.20401">
        <ele>1125</ele>
        <time>2026-05-25T13:54:59.000Z</time>
      </trkpt>
      <trkpt lat="44.63085" lon="5.20402">
        <ele>1126</ele>
        <time>2026-05-25T13:55:00.000Z</time>
      </trkpt>
      <trkpt lat="44.63084" lon="5.20402">
        <ele>1125</ele>
        <time>2026-05-25T13:55:01.000Z</time>
      </trkpt>
      <trkpt lat="44.63083" lon="5.204">
        <ele>1125</ele>
        <time>2026-05-25T13:55:02.000Z</time>
      </trkpt>
      <trkpt lat="44.63082" lon="5.204">
        <ele>1125</ele>
        <time>2026-05-25T13:55:03.000Z</time>
      </trkpt>
      <trkpt lat="44.63082" lon="5.204">
        <ele>1125</ele>
        <time>2026-05-25T13:55:04.000Z</time>
      </trkpt>
      <trkpt lat="44.63081" lon="5.204">
        <ele>1125</ele>
        <time>2026-05-25T13:55:05.000Z</time>
      </trkpt>
      <trkpt lat="44.63081" lon="5.20401">
        <ele>1125</ele>
        <time>2026-05-25T13:55:06.000Z</time>
      </trkpt>
      <trkpt lat="44.63081" lon="5.204">
        <ele>1125</ele>
        <time>2026-05-25T13:55:07.000Z</time>
      </trkpt>
      <trkpt lat="44.6308" lon="5.204">
        <ele>1124</ele>
        <time>2026-05-25T13:55:08.000Z</time>
      </trkpt>
      <trkpt lat="44.63079" lon="5.20399">
        <ele>1124</ele>
        <time>2026-05-25T13:55:09.000Z</time>
      </trkpt>
      <trkpt lat="44.63078" lon="5.20399">
        <ele>1124</ele>
        <time>2026-05-25T13:55:10.000Z</time>
      </trkpt>
      <trkpt lat="44.63078" lon="5.20398">
        <ele>1124</ele>
        <time>2026-05-25T13:55:11.000Z</time>
      </trkpt>
      <trkpt lat="44.63078" lon="5.20398">
        <ele>1124</ele>
        <time>2026-05-25T13:55:12.000Z</time>
      </trkpt>
      <trkpt lat="44.63078" lon="5.20398">
        <ele>1124</ele>
        <time>2026-05-25T13:55:13.000Z</time>
      </trkpt>
      <trkpt lat="44.63078" lon="5.20398">
        <ele>1124</ele>
        <time>2026-05-25T13:55:14.000Z</time>
      </trkpt>
      <trkpt lat="44.63078" lon="5.20398">
        <ele>1124</ele>
        <time>2026-05-25T13:55:15.000Z</time>
      </trkpt>
      <trkpt lat="44.63078" lon="5.20398">
        <ele>1124</ele>
        <time>2026-05-25T13:55:16.000Z</time>
      </trkpt>
      <trkpt lat="44.63078" lon="5.20398">
        <ele>1124</ele>
        <time>2026-05-25T13:55:17.000Z</time>
      </trkpt>
      <trkpt lat="44.63078" lon="5.20398">
        <ele>1124</ele>
        <time>2026-05-25T13:55:18.000Z</time>
      </trkpt>
      <trkpt lat="44.63078" lon="5.20398">
        <ele>1124</ele>
        <time>2026-05-25T13:55:19.000Z</time>
      </trkpt>
      <trkpt lat="44.63078" lon="5.20398">
        <ele>1124</ele>
        <time>2026-05-25T13:55:20.000Z</time>
      </trkpt>
      <trkpt lat="44.63078" lon="5.20398">
        <ele>1124</ele>
        <time>2026-05-25T13:55:21.000Z</time>
      </trkpt>
      <trkpt lat="44.63078" lon="5.20398">
        <ele>1124</ele>
        <time>2026-05-25T13:55:22.000Z</time>
      </trkpt>
      <trkpt lat="44.63078" lon="5.20398">
        <ele>1124</ele>
        <time>2026-05-25T13:55:23.000Z</time>
      </trkpt>
      <trkpt lat="44.63078" lon="5.20398">
        <ele>1124</ele>
        <time>2026-05-25T13:55:24.000Z</time>
      </trkpt>
      <trkpt lat="44.63078" lon="5.20398">
        <ele>1124</ele>
        <time>2026-05-25T13:55:25.000Z</time>
      </trkpt>
      <trkpt lat="44.63078" lon="5.20398">
        <ele>1124</ele>
        <time>2026-05-25T13:55:26.000Z</time>
      </trkpt>
      <trkpt lat="44.63078" lon="5.20398">
        <ele>1124</ele>
        <time>2026-05-25T13:55:27.000Z</time>
      </trkpt>
      <trkpt lat="44.63078" lon="5.20398">
        <ele>1124</ele>
        <time>2026-05-25T13:55:28.000Z</time>
      </trkpt>
      <trkpt lat="44.63078" lon="5.20398">
        <ele>1124</ele>
        <time>2026-05-25T13:55:29.000Z</time>
      </trkpt>
      <trkpt lat="44.63078" lon="5.20398">
        <ele>1124</ele>
        <time>2026-05-25T13:55:30.000Z</time>
      </trkpt>
      <trkpt lat="44.63078" lon="5.20398">
        <ele>1124</ele>
        <time>2026-05-25T13:55:31.000Z</time>
      </trkpt>
      <trkpt lat="44.63078" lon="5.20398">
        <ele>1124</ele>
        <time>2026-05-25T13:55:32.000Z</time>
      </trkpt>
      <trkpt lat="44.63078" lon="5.20398">
        <ele>1124</ele>
        <time>2026-05-25T13:55:33.000Z</time>
      </trkpt>
      <trkpt lat="44.63078" lon="5.20398">
        <ele>1124</ele>
        <time>2026-05-25T13:55:34.000Z</time>
      </trkpt>
      <trkpt lat="44.63078" lon="5.20398">
        <ele>1124</ele>
        <time>2026-05-25T13:55:35.000Z</time>
      </trkpt>
      <trkpt lat="44.63078" lon="5.20398">
        <ele>1124</ele>
        <time>2026-05-25T13:55:36.000Z</time>
      </trkpt>
      <trkpt lat="44.63078" lon="5.20398">
        <ele>1124</ele>
        <time>2026-05-25T13:55:37.000Z</time>
      </trkpt>
      <trkpt lat="44.63078" lon="5.20398">
        <ele>1124</ele>
        <time>2026-05-25T13:55:38.000Z</time>
      </trkpt>
      <trkpt lat="44.63078" lon="5.20398">
        <ele>1124</ele>
        <time>2026-05-25T13:55:39.000Z</time>
      </trkpt>
      <trkpt lat="44.63078" lon="5.20398">
        <ele>1124</ele>
        <time>2026-05-25T13:55:40.000Z</time>
      </trkpt>
      <trkpt lat="44.63078" lon="5.20398">
        <ele>1124</ele>
        <time>2026-05-25T13:55:41.000Z</time>
      </trkpt>
      <trkpt lat="44.63078" lon="5.20398">
        <ele>1124</ele>
        <time>2026-05-25T13:55:42.000Z</time>
      </trkpt>
      <trkpt lat="44.63078" lon="5.20398">
        <ele>1124</ele>
        <time>2026-05-25T13:55:43.000Z</time>
      </trkpt>
      <trkpt lat="44.63078" lon="5.20398">
        <ele>1124</ele>
        <time>2026-05-25T13:55:44.000Z</time>
      </trkpt>
      <trkpt lat="44.63078" lon="5.20398">
        <ele>1124</ele>
        <time>2026-05-25T13:55:45.000Z</time>
      </trkpt>
      <trkpt lat="44.63078" lon="5.20398">
        <ele>1124</ele>
        <time>2026-05-25T13:55:46.000Z</time>
      </trkpt>
      <trkpt lat="44.63078" lon="5.20398">
        <ele>1124</ele>
        <time>2026-05-25T13:55:47.000Z</time>
      </trkpt>
      <trkpt lat="44.63078" lon="5.20398">
        <ele>1124</ele>
        <time>2026-05-25T13:55:48.000Z</time>
      </trkpt>
      <trkpt lat="44.63078" lon="5.20398">
        <ele>1124</ele>
        <time>2026-05-25T13:55:49.000Z</time>
      </trkpt>
      <trkpt lat="44.63078" lon="5.20398">
        <ele>1124</ele>
        <time>2026-05-25T13:55:50.000Z</time>
      </trkpt>
      <trkpt lat="44.63078" lon="5.20398">
        <ele>1124</ele>
        <time>2026-05-25T13:55:51.000Z</time>
      </trkpt>
      <trkpt lat="44.63078" lon="5.20398">
        <ele>1124</ele>
        <time>2026-05-25T13:55:52.000Z</time>
      </trkpt>
      <trkpt lat="44.63078" lon="5.20398">
        <ele>1124</ele>
        <time>2026-05-25T13:55:53.000Z</time>
      </trkpt>
      <trkpt lat="44.63078" lon="5.20398">
        <ele>1124</ele>
        <time>2026-05-25T13:55:54.000Z</time>
      </trkpt>
      <trkpt lat="44.63076" lon="5.20397">
        <ele>1123</ele>
        <time>2026-05-25T13:55:55.000Z</time>
      </trkpt>
      <trkpt lat="44.63075" lon="5.20396">
        <ele>1122</ele>
        <time>2026-05-25T13:55:56.000Z</time>
      </trkpt>
      <trkpt lat="44.63074" lon="5.20395">
        <ele>1122</ele>
        <time>2026-05-25T13:55:57.000Z</time>
      </trkpt>
      <trkpt lat="44.63073" lon="5.20395">
        <ele>1122</ele>
        <time>2026-05-25T13:55:58.000Z</time>
      </trkpt>
      <trkpt lat="44.63072" lon="5.20395">
        <ele>1122</ele>
        <time>2026-05-25T13:55:59.000Z</time>
      </trkpt>
      <trkpt lat="44.63071" lon="5.20395">
        <ele>1121</ele>
        <time>2026-05-25T13:56:00.000Z</time>
      </trkpt>
      <trkpt lat="44.6307" lon="5.20395">
        <ele>1121</ele>
        <time>2026-05-25T13:56:01.000Z</time>
      </trkpt>
      <trkpt lat="44.63069" lon="5.20395">
        <ele>1121</ele>
        <time>2026-05-25T13:56:02.000Z</time>
      </trkpt>
      <trkpt lat="44.63068" lon="5.20395">
        <ele>1121</ele>
        <time>2026-05-25T13:56:03.000Z</time>
      </trkpt>
      <trkpt lat="44.63067" lon="5.20395">
        <ele>1120</ele>
        <time>2026-05-25T13:56:04.000Z</time>
      </trkpt>
      <trkpt lat="44.63066" lon="5.20396">
        <ele>1120</ele>
        <time>2026-05-25T13:56:05.000Z</time>
      </trkpt>
      <trkpt lat="44.63065" lon="5.20396">
        <ele>1120</ele>
        <time>2026-05-25T13:56:06.000Z</time>
      </trkpt>
      <trkpt lat="44.63065" lon="5.20396">
        <ele>1120</ele>
        <time>2026-05-25T13:56:07.000Z</time>
      </trkpt>
      <trkpt lat="44.63064" lon="5.20396">
        <ele>1120</ele>
        <time>2026-05-25T13:56:08.000Z</time>
      </trkpt>
      <trkpt lat="44.63063" lon="5.20397">
        <ele>1121</ele>
        <time>2026-05-25T13:56:09.000Z</time>
      </trkpt>
      <trkpt lat="44.63062" lon="5.20397">
        <ele>1121</ele>
        <time>2026-05-25T13:56:10.000Z</time>
      </trkpt>
      <trkpt lat="44.63061" lon="5.20398">
        <ele>1121</ele>
        <time>2026-05-25T13:56:11.000Z</time>
      </trkpt>
      <trkpt lat="44.6306" lon="5.20398">
        <ele>1121</ele>
        <time>2026-05-25T13:56:12.000Z</time>
      </trkpt>
      <trkpt lat="44.63059" lon="5.20399">
        <ele>1120</ele>
        <time>2026-05-25T13:56:13.000Z</time>
      </trkpt>
      <trkpt lat="44.63058" lon="5.20399">
        <ele>1121</ele>
        <time>2026-05-25T13:56:14.000Z</time>
      </trkpt>
      <trkpt lat="44.63057" lon="5.204">
        <ele>1120</ele>
        <time>2026-05-25T13:56:15.000Z</time>
      </trkpt>
      <trkpt lat="44.63057" lon="5.204">
        <ele>1120</ele>
        <time>2026-05-25T13:56:16.000Z</time>
      </trkpt>
      <trkpt lat="44.63056" lon="5.204">
        <ele>1120</ele>
        <time>2026-05-25T13:56:17.000Z</time>
      </trkpt>
      <trkpt lat="44.63055" lon="5.204">
        <ele>1120</ele>
        <time>2026-05-25T13:56:18.000Z</time>
      </trkpt>
      <trkpt lat="44.63054" lon="5.20401">
        <ele>1120</ele>
        <time>2026-05-25T13:56:19.000Z</time>
      </trkpt>
      <trkpt lat="44.63053" lon="5.20402">
        <ele>1120</ele>
        <time>2026-05-25T13:56:20.000Z</time>
      </trkpt>
      <trkpt lat="44.63052" lon="5.20403">
        <ele>1120</ele>
        <time>2026-05-25T13:56:21.000Z</time>
      </trkpt>
      <trkpt lat="44.63051" lon="5.20403">
        <ele>1120</ele>
        <time>2026-05-25T13:56:22.000Z</time>
      </trkpt>
      <trkpt lat="44.63051" lon="5.20404">
        <ele>1120</ele>
        <time>2026-05-25T13:56:23.000Z</time>
      </trkpt>
      <trkpt lat="44.6305" lon="5.20404">
        <ele>1119</ele>
        <time>2026-05-25T13:56:24.000Z</time>
      </trkpt>
      <trkpt lat="44.63049" lon="5.20404">
        <ele>1120</ele>
        <time>2026-05-25T13:56:25.000Z</time>
      </trkpt>
      <trkpt lat="44.63048" lon="5.20405">
        <ele>1120</ele>
        <time>2026-05-25T13:56:26.000Z</time>
      </trkpt>
      <trkpt lat="44.63046" lon="5.20405">
        <ele>1119</ele>
        <time>2026-05-25T13:56:27.000Z</time>
      </trkpt>
      <trkpt lat="44.63046" lon="5.20406">
        <ele>1119</ele>
        <time>2026-05-25T13:56:28.000Z</time>
      </trkpt>
      <trkpt lat="44.63045" lon="5.20406">
        <ele>1119</ele>
        <time>2026-05-25T13:56:29.000Z</time>
      </trkpt>
      <trkpt lat="44.63044" lon="5.20406">
        <ele>1119</ele>
        <time>2026-05-25T13:56:30.000Z</time>
      </trkpt>
      <trkpt lat="44.63044" lon="5.20406">
        <ele>1120</ele>
        <time>2026-05-25T13:56:31.000Z</time>
      </trkpt>
      <trkpt lat="44.63042" lon="5.20407">
        <ele>1120</ele>
        <time>2026-05-25T13:56:32.000Z</time>
      </trkpt>
      <trkpt lat="44.63041" lon="5.20408">
        <ele>1120</ele>
        <time>2026-05-25T13:56:33.000Z</time>
      </trkpt>
      <trkpt lat="44.6304" lon="5.20408">
        <ele>1120</ele>
        <time>2026-05-25T13:56:34.000Z</time>
      </trkpt>
      <trkpt lat="44.63039" lon="5.20409">
        <ele>1120</ele>
        <time>2026-05-25T13:56:35.000Z</time>
      </trkpt>
      <trkpt lat="44.63039" lon="5.2041">
        <ele>1119</ele>
        <time>2026-05-25T13:56:36.000Z</time>
      </trkpt>
      <trkpt lat="44.63038" lon="5.2041">
        <ele>1119</ele>
        <time>2026-05-25T13:56:37.000Z</time>
      </trkpt>
      <trkpt lat="44.63037" lon="5.20411">
        <ele>1119</ele>
        <time>2026-05-25T13:56:38.000Z</time>
      </trkpt>
      <trkpt lat="44.63037" lon="5.20411">
        <ele>1118</ele>
        <time>2026-05-25T13:56:39.000Z</time>
      </trkpt>
      <trkpt lat="44.63036" lon="5.20412">
        <ele>1118</ele>
        <time>2026-05-25T13:56:40.000Z</time>
      </trkpt>
      <trkpt lat="44.63035" lon="5.20413">
        <ele>1118</ele>
        <time>2026-05-25T13:56:41.000Z</time>
      </trkpt>
      <trkpt lat="44.63034" lon="5.20413">
        <ele>1118</ele>
        <time>2026-05-25T13:56:42.000Z</time>
      </trkpt>
      <trkpt lat="44.63034" lon="5.20414">
        <ele>1117</ele>
        <time>2026-05-25T13:56:43.000Z</time>
      </trkpt>
      <trkpt lat="44.63033" lon="5.20414">
        <ele>1117</ele>
        <time>2026-05-25T13:56:44.000Z</time>
      </trkpt>
      <trkpt lat="44.63032" lon="5.20415">
        <ele>1117</ele>
        <time>2026-05-25T13:56:45.000Z</time>
      </trkpt>
      <trkpt lat="44.63032" lon="5.20415">
        <ele>1117</ele>
        <time>2026-05-25T13:56:46.000Z</time>
      </trkpt>
      <trkpt lat="44.63031" lon="5.20416">
        <ele>1117</ele>
        <time>2026-05-25T13:56:47.000Z</time>
      </trkpt>
      <trkpt lat="44.63031" lon="5.20417">
        <ele>1117</ele>
        <time>2026-05-25T13:56:48.000Z</time>
      </trkpt>
      <trkpt lat="44.6303" lon="5.20419">
        <ele>1117</ele>
        <time>2026-05-25T13:56:49.000Z</time>
      </trkpt>
      <trkpt lat="44.6303" lon="5.20419">
        <ele>1116</ele>
        <time>2026-05-25T13:56:50.000Z</time>
      </trkpt>
      <trkpt lat="44.6303" lon="5.2042">
        <ele>1116</ele>
        <time>2026-05-25T13:56:51.000Z</time>
      </trkpt>
      <trkpt lat="44.63029" lon="5.2042">
        <ele>1116</ele>
        <time>2026-05-25T13:56:52.000Z</time>
      </trkpt>
      <trkpt lat="44.63029" lon="5.2042">
        <ele>1116</ele>
        <time>2026-05-25T13:56:53.000Z</time>
      </trkpt>
      <trkpt lat="44.63029" lon="5.2042">
        <ele>1116</ele>
        <time>2026-05-25T13:56:54.000Z</time>
      </trkpt>
      <trkpt lat="44.63028" lon="5.2042">
        <ele>1116</ele>
        <time>2026-05-25T13:56:55.000Z</time>
      </trkpt>
      <trkpt lat="44.63028" lon="5.2042">
        <ele>1116</ele>
        <time>2026-05-25T13:56:56.000Z</time>
      </trkpt>
      <trkpt lat="44.63028" lon="5.20421">
        <ele>1116</ele>
        <time>2026-05-25T13:56:57.000Z</time>
      </trkpt>
      <trkpt lat="44.63027" lon="5.20422">
        <ele>1116</ele>
        <time>2026-05-25T13:56:58.000Z</time>
      </trkpt>
      <trkpt lat="44.63027" lon="5.20423">
        <ele>1116</ele>
        <time>2026-05-25T13:56:59.000Z</time>
      </trkpt>
      <trkpt lat="44.63026" lon="5.20423">
        <ele>1116</ele>
        <time>2026-05-25T13:57:00.000Z</time>
      </trkpt>
      <trkpt lat="44.63025" lon="5.20425">
        <ele>1115</ele>
        <time>2026-05-25T13:57:01.000Z</time>
      </trkpt>
      <trkpt lat="44.63024" lon="5.20426">
        <ele>1115</ele>
        <time>2026-05-25T13:57:02.000Z</time>
      </trkpt>
      <trkpt lat="44.63024" lon="5.20426">
        <ele>1114</ele>
        <time>2026-05-25T13:57:03.000Z</time>
      </trkpt>
      <trkpt lat="44.63023" lon="5.20428">
        <ele>1113</ele>
        <time>2026-05-25T13:57:04.000Z</time>
      </trkpt>
      <trkpt lat="44.63022" lon="5.20428">
        <ele>1113</ele>
        <time>2026-05-25T13:57:05.000Z</time>
      </trkpt>
      <trkpt lat="44.63022" lon="5.20429">
        <ele>1113</ele>
        <time>2026-05-25T13:57:06.000Z</time>
      </trkpt>
      <trkpt lat="44.63022" lon="5.2043">
        <ele>1113</ele>
        <time>2026-05-25T13:57:07.000Z</time>
      </trkpt>
      <trkpt lat="44.63021" lon="5.2043">
        <ele>1113</ele>
        <time>2026-05-25T13:57:08.000Z</time>
      </trkpt>
      <trkpt lat="44.6302" lon="5.2043">
        <ele>1113</ele>
        <time>2026-05-25T13:57:09.000Z</time>
      </trkpt>
      <trkpt lat="44.63019" lon="5.20431">
        <ele>1113</ele>
        <time>2026-05-25T13:57:10.000Z</time>
      </trkpt>
      <trkpt lat="44.63018" lon="5.20431">
        <ele>1113</ele>
        <time>2026-05-25T13:57:11.000Z</time>
      </trkpt>
      <trkpt lat="44.63018" lon="5.20431">
        <ele>1112</ele>
        <time>2026-05-25T13:57:12.000Z</time>
      </trkpt>
      <trkpt lat="44.63016" lon="5.20432">
        <ele>1113</ele>
        <time>2026-05-25T13:57:13.000Z</time>
      </trkpt>
      <trkpt lat="44.63015" lon="5.20432">
        <ele>1112</ele>
        <time>2026-05-25T13:57:14.000Z</time>
      </trkpt>
      <trkpt lat="44.63014" lon="5.20433">
        <ele>1111</ele>
        <time>2026-05-25T13:57:15.000Z</time>
      </trkpt>
      <trkpt lat="44.63013" lon="5.20433">
        <ele>1111</ele>
        <time>2026-05-25T13:57:16.000Z</time>
      </trkpt>
      <trkpt lat="44.63014" lon="5.20433">
        <ele>1111</ele>
        <time>2026-05-25T13:57:17.000Z</time>
      </trkpt>
      <trkpt lat="44.63014" lon="5.20434">
        <ele>1111</ele>
        <time>2026-05-25T13:57:18.000Z</time>
      </trkpt>
      <trkpt lat="44.63015" lon="5.20435">
        <ele>1111</ele>
        <time>2026-05-25T13:57:19.000Z</time>
      </trkpt>
      <trkpt lat="44.63016" lon="5.20436">
        <ele>1111</ele>
        <time>2026-05-25T13:57:20.000Z</time>
      </trkpt>
      <trkpt lat="44.63017" lon="5.20436">
        <ele>1111</ele>
        <time>2026-05-25T13:57:21.000Z</time>
      </trkpt>
      <trkpt lat="44.63018" lon="5.20436">
        <ele>1110</ele>
        <time>2026-05-25T13:57:22.000Z</time>
      </trkpt>
      <trkpt lat="44.63019" lon="5.20436">
        <ele>1110</ele>
        <time>2026-05-25T13:57:23.000Z</time>
      </trkpt>
      <trkpt lat="44.6302" lon="5.20435">
        <ele>1110</ele>
        <time>2026-05-25T13:57:24.000Z</time>
      </trkpt>
      <trkpt lat="44.63022" lon="5.20434">
        <ele>1110</ele>
        <time>2026-05-25T13:57:25.000Z</time>
      </trkpt>
      <trkpt lat="44.63022" lon="5.20434">
        <ele>1110</ele>
        <time>2026-05-25T13:57:26.000Z</time>
      </trkpt>
      <trkpt lat="44.63023" lon="5.20434">
        <ele>1110</ele>
        <time>2026-05-25T13:57:27.000Z</time>
      </trkpt>
      <trkpt lat="44.63024" lon="5.20433">
        <ele>1110</ele>
        <time>2026-05-25T13:57:28.000Z</time>
      </trkpt>
      <trkpt lat="44.63025" lon="5.20433">
        <ele>1109</ele>
        <time>2026-05-25T13:57:29.000Z</time>
      </trkpt>
      <trkpt lat="44.63025" lon="5.20433">
        <ele>1109</ele>
        <time>2026-05-25T13:57:30.000Z</time>
      </trkpt>
      <trkpt lat="44.63026" lon="5.20433">
        <ele>1109</ele>
        <time>2026-05-25T13:57:31.000Z</time>
      </trkpt>
      <trkpt lat="44.63027" lon="5.20433">
        <ele>1109</ele>
        <time>2026-05-25T13:57:32.000Z</time>
      </trkpt>
      <trkpt lat="44.63027" lon="5.20434">
        <ele>1109</ele>
        <time>2026-05-25T13:57:33.000Z</time>
      </trkpt>
      <trkpt lat="44.63027" lon="5.20435">
        <ele>1110</ele>
        <time>2026-05-25T13:57:34.000Z</time>
      </trkpt>
      <trkpt lat="44.63028" lon="5.20436">
        <ele>1109</ele>
        <time>2026-05-25T13:57:35.000Z</time>
      </trkpt>
      <trkpt lat="44.63027" lon="5.20436">
        <ele>1109</ele>
        <time>2026-05-25T13:57:36.000Z</time>
      </trkpt>
      <trkpt lat="44.63027" lon="5.20437">
        <ele>1109</ele>
        <time>2026-05-25T13:57:37.000Z</time>
      </trkpt>
      <trkpt lat="44.63026" lon="5.20437">
        <ele>1109</ele>
        <time>2026-05-25T13:57:38.000Z</time>
      </trkpt>
      <trkpt lat="44.63025" lon="5.20438">
        <ele>1108</ele>
        <time>2026-05-25T13:57:39.000Z</time>
      </trkpt>
      <trkpt lat="44.63025" lon="5.20438">
        <ele>1108</ele>
        <time>2026-05-25T13:57:40.000Z</time>
      </trkpt>
      <trkpt lat="44.63024" lon="5.20438">
        <ele>1108</ele>
        <time>2026-05-25T13:57:41.000Z</time>
      </trkpt>
      <trkpt lat="44.63024" lon="5.20438">
        <ele>1107</ele>
        <time>2026-05-25T13:57:42.000Z</time>
      </trkpt>
      <trkpt lat="44.63023" lon="5.20439">
        <ele>1107</ele>
        <time>2026-05-25T13:57:43.000Z</time>
      </trkpt>
      <trkpt lat="44.63022" lon="5.2044">
        <ele>1107</ele>
        <time>2026-05-25T13:57:44.000Z</time>
      </trkpt>
      <trkpt lat="44.63021" lon="5.2044">
        <ele>1107</ele>
        <time>2026-05-25T13:57:45.000Z</time>
      </trkpt>
      <trkpt lat="44.63021" lon="5.2044">
        <ele>1107</ele>
        <time>2026-05-25T13:57:46.000Z</time>
      </trkpt>
      <trkpt lat="44.6302" lon="5.2044">
        <ele>1106</ele>
        <time>2026-05-25T13:57:47.000Z</time>
      </trkpt>
      <trkpt lat="44.6302" lon="5.2044">
        <ele>1106</ele>
        <time>2026-05-25T13:57:48.000Z</time>
      </trkpt>
      <trkpt lat="44.63019" lon="5.20441">
        <ele>1105</ele>
        <time>2026-05-25T13:57:49.000Z</time>
      </trkpt>
      <trkpt lat="44.63019" lon="5.20442">
        <ele>1105</ele>
        <time>2026-05-25T13:57:50.000Z</time>
      </trkpt>
      <trkpt lat="44.63018" lon="5.20442">
        <ele>1106</ele>
        <time>2026-05-25T13:57:51.000Z</time>
      </trkpt>
      <trkpt lat="44.63018" lon="5.20442">
        <ele>1106</ele>
        <time>2026-05-25T13:57:52.000Z</time>
      </trkpt>
      <trkpt lat="44.63018" lon="5.20442">
        <ele>1106</ele>
        <time>2026-05-25T13:57:53.000Z</time>
      </trkpt>
      <trkpt lat="44.63016" lon="5.20444">
        <ele>1106</ele>
        <time>2026-05-25T13:57:54.000Z</time>
      </trkpt>
      <trkpt lat="44.63015" lon="5.20444">
        <ele>1105</ele>
        <time>2026-05-25T13:57:55.000Z</time>
      </trkpt>
      <trkpt lat="44.63015" lon="5.20445">
        <ele>1105</ele>
        <time>2026-05-25T13:57:56.000Z</time>
      </trkpt>
      <trkpt lat="44.63014" lon="5.20446">
        <ele>1105</ele>
        <time>2026-05-25T13:57:57.000Z</time>
      </trkpt>
      <trkpt lat="44.63014" lon="5.20447">
        <ele>1106</ele>
        <time>2026-05-25T13:57:58.000Z</time>
      </trkpt>
      <trkpt lat="44.63013" lon="5.20448">
        <ele>1106</ele>
        <time>2026-05-25T13:57:59.000Z</time>
      </trkpt>
      <trkpt lat="44.63012" lon="5.20447">
        <ele>1106</ele>
        <time>2026-05-25T13:58:00.000Z</time>
      </trkpt>
      <trkpt lat="44.63012" lon="5.20448">
        <ele>1105</ele>
        <time>2026-05-25T13:58:01.000Z</time>
      </trkpt>
      <trkpt lat="44.63012" lon="5.20448">
        <ele>1105</ele>
        <time>2026-05-25T13:58:02.000Z</time>
      </trkpt>
      <trkpt lat="44.63011" lon="5.20448">
        <ele>1104</ele>
        <time>2026-05-25T13:58:03.000Z</time>
      </trkpt>
      <trkpt lat="44.6301" lon="5.20449">
        <ele>1103</ele>
        <time>2026-05-25T13:58:04.000Z</time>
      </trkpt>
      <trkpt lat="44.6301" lon="5.2045">
        <ele>1103</ele>
        <time>2026-05-25T13:58:05.000Z</time>
      </trkpt>
      <trkpt lat="44.6301" lon="5.20451">
        <ele>1103</ele>
        <time>2026-05-25T13:58:06.000Z</time>
      </trkpt>
      <trkpt lat="44.63011" lon="5.20453">
        <ele>1103</ele>
        <time>2026-05-25T13:58:07.000Z</time>
      </trkpt>
      <trkpt lat="44.63011" lon="5.20454">
        <ele>1103</ele>
        <time>2026-05-25T13:58:08.000Z</time>
      </trkpt>
      <trkpt lat="44.63011" lon="5.20455">
        <ele>1103</ele>
        <time>2026-05-25T13:58:09.000Z</time>
      </trkpt>
      <trkpt lat="44.63012" lon="5.20456">
        <ele>1103</ele>
        <time>2026-05-25T13:58:10.000Z</time>
      </trkpt>
      <trkpt lat="44.63012" lon="5.20457">
        <ele>1103</ele>
        <time>2026-05-25T13:58:11.000Z</time>
      </trkpt>
      <trkpt lat="44.63013" lon="5.20458">
        <ele>1103</ele>
        <time>2026-05-25T13:58:12.000Z</time>
      </trkpt>
      <trkpt lat="44.63014" lon="5.20459">
        <ele>1102</ele>
        <time>2026-05-25T13:58:13.000Z</time>
      </trkpt>
      <trkpt lat="44.63014" lon="5.2046">
        <ele>1102</ele>
        <time>2026-05-25T13:58:14.000Z</time>
      </trkpt>
      <trkpt lat="44.63015" lon="5.20461">
        <ele>1102</ele>
        <time>2026-05-25T13:58:15.000Z</time>
      </trkpt>
      <trkpt lat="44.63015" lon="5.20462">
        <ele>1102</ele>
        <time>2026-05-25T13:58:16.000Z</time>
      </trkpt>
      <trkpt lat="44.63016" lon="5.20462">
        <ele>1102</ele>
        <time>2026-05-25T13:58:17.000Z</time>
      </trkpt>
      <trkpt lat="44.63016" lon="5.20463">
        <ele>1102</ele>
        <time>2026-05-25T13:58:18.000Z</time>
      </trkpt>
      <trkpt lat="44.63017" lon="5.20463">
        <ele>1102</ele>
        <time>2026-05-25T13:58:19.000Z</time>
      </trkpt>
      <trkpt lat="44.63018" lon="5.20464">
        <ele>1102</ele>
        <time>2026-05-25T13:58:20.000Z</time>
      </trkpt>
      <trkpt lat="44.63019" lon="5.20465">
        <ele>1102</ele>
        <time>2026-05-25T13:58:21.000Z</time>
      </trkpt>
      <trkpt lat="44.6302" lon="5.20466">
        <ele>1102</ele>
        <time>2026-05-25T13:58:22.000Z</time>
      </trkpt>
      <trkpt lat="44.6302" lon="5.20466">
        <ele>1102</ele>
        <time>2026-05-25T13:58:23.000Z</time>
      </trkpt>
      <trkpt lat="44.6302" lon="5.20466">
        <ele>1102</ele>
        <time>2026-05-25T13:58:24.000Z</time>
      </trkpt>
      <trkpt lat="44.6302" lon="5.20466">
        <ele>1102</ele>
        <time>2026-05-25T13:58:25.000Z</time>
      </trkpt>
      <trkpt lat="44.6302" lon="5.20466">
        <ele>1102</ele>
        <time>2026-05-25T13:58:26.000Z</time>
      </trkpt>
      <trkpt lat="44.6302" lon="5.20466">
        <ele>1102</ele>
        <time>2026-05-25T13:58:27.000Z</time>
      </trkpt>
      <trkpt lat="44.63021" lon="5.20467">
        <ele>1101</ele>
        <time>2026-05-25T13:58:28.000Z</time>
      </trkpt>
      <trkpt lat="44.63022" lon="5.20467">
        <ele>1100</ele>
        <time>2026-05-25T13:58:29.000Z</time>
      </trkpt>
      <trkpt lat="44.63022" lon="5.20467">
        <ele>1101</ele>
        <time>2026-05-25T13:58:30.000Z</time>
      </trkpt>
      <trkpt lat="44.63021" lon="5.20465">
        <ele>1101</ele>
        <time>2026-05-25T13:58:31.000Z</time>
      </trkpt>
      <trkpt lat="44.63022" lon="5.20464">
        <ele>1101</ele>
        <time>2026-05-25T13:58:32.000Z</time>
      </trkpt>
      <trkpt lat="44.63021" lon="5.20463">
        <ele>1100</ele>
        <time>2026-05-25T13:58:33.000Z</time>
      </trkpt>
      <trkpt lat="44.6302" lon="5.20463">
        <ele>1100</ele>
        <time>2026-05-25T13:58:34.000Z</time>
      </trkpt>
      <trkpt lat="44.6302" lon="5.20463">
        <ele>1100</ele>
        <time>2026-05-25T13:58:35.000Z</time>
      </trkpt>
      <trkpt lat="44.6302" lon="5.20463">
        <ele>1100</ele>
        <time>2026-05-25T13:58:36.000Z</time>
      </trkpt>
      <trkpt lat="44.6302" lon="5.20463">
        <ele>1100</ele>
        <time>2026-05-25T13:58:37.000Z</time>
      </trkpt>
      <trkpt lat="44.63018" lon="5.20463">
        <ele>1100</ele>
        <time>2026-05-25T13:58:38.000Z</time>
      </trkpt>
      <trkpt lat="44.63017" lon="5.20463">
        <ele>1100</ele>
        <time>2026-05-25T13:58:39.000Z</time>
      </trkpt>
      <trkpt lat="44.63016" lon="5.20463">
        <ele>1100</ele>
        <time>2026-05-25T13:58:40.000Z</time>
      </trkpt>
      <trkpt lat="44.63014" lon="5.20463">
        <ele>1099</ele>
        <time>2026-05-25T13:58:41.000Z</time>
      </trkpt>
      <trkpt lat="44.63013" lon="5.20463">
        <ele>1099</ele>
        <time>2026-05-25T13:58:42.000Z</time>
      </trkpt>
      <trkpt lat="44.63012" lon="5.20463">
        <ele>1099</ele>
        <time>2026-05-25T13:58:43.000Z</time>
      </trkpt>
      <trkpt lat="44.63011" lon="5.20464">
        <ele>1098</ele>
        <time>2026-05-25T13:58:44.000Z</time>
      </trkpt>
      <trkpt lat="44.6301" lon="5.20464">
        <ele>1098</ele>
        <time>2026-05-25T13:58:45.000Z</time>
      </trkpt>
      <trkpt lat="44.63009" lon="5.20463">
        <ele>1098</ele>
        <time>2026-05-25T13:58:46.000Z</time>
      </trkpt>
      <trkpt lat="44.63008" lon="5.20463">
        <ele>1098</ele>
        <time>2026-05-25T13:58:47.000Z</time>
      </trkpt>
      <trkpt lat="44.63007" lon="5.20463">
        <ele>1097</ele>
        <time>2026-05-25T13:58:48.000Z</time>
      </trkpt>
      <trkpt lat="44.63006" lon="5.20463">
        <ele>1098</ele>
        <time>2026-05-25T13:58:49.000Z</time>
      </trkpt>
      <trkpt lat="44.63006" lon="5.20463">
        <ele>1098</ele>
        <time>2026-05-25T13:58:50.000Z</time>
      </trkpt>
      <trkpt lat="44.63005" lon="5.20463">
        <ele>1097</ele>
        <time>2026-05-25T13:58:51.000Z</time>
      </trkpt>
      <trkpt lat="44.63005" lon="5.20463">
        <ele>1096</ele>
        <time>2026-05-25T13:58:52.000Z</time>
      </trkpt>
      <trkpt lat="44.63004" lon="5.20463">
        <ele>1096</ele>
        <time>2026-05-25T13:58:53.000Z</time>
      </trkpt>
      <trkpt lat="44.63003" lon="5.20463">
        <ele>1096</ele>
        <time>2026-05-25T13:58:54.000Z</time>
      </trkpt>
      <trkpt lat="44.63001" lon="5.20463">
        <ele>1096</ele>
        <time>2026-05-25T13:58:55.000Z</time>
      </trkpt>
      <trkpt lat="44.63001" lon="5.20463">
        <ele>1096</ele>
        <time>2026-05-25T13:58:56.000Z</time>
      </trkpt>
      <trkpt lat="44.63" lon="5.20464">
        <ele>1096</ele>
        <time>2026-05-25T13:58:57.000Z</time>
      </trkpt>
      <trkpt lat="44.62999" lon="5.20463">
        <ele>1096</ele>
        <time>2026-05-25T13:58:58.000Z</time>
      </trkpt>
      <trkpt lat="44.62998" lon="5.20463">
        <ele>1096</ele>
        <time>2026-05-25T13:58:59.000Z</time>
      </trkpt>
      <trkpt lat="44.62997" lon="5.20462">
        <ele>1096</ele>
        <time>2026-05-25T13:59:00.000Z</time>
      </trkpt>
      <trkpt lat="44.62996" lon="5.20462">
        <ele>1096</ele>
        <time>2026-05-25T13:59:01.000Z</time>
      </trkpt>
      <trkpt lat="44.62996" lon="5.20461">
        <ele>1096</ele>
        <time>2026-05-25T13:59:02.000Z</time>
      </trkpt>
      <trkpt lat="44.62995" lon="5.20461">
        <ele>1096</ele>
        <time>2026-05-25T13:59:03.000Z</time>
      </trkpt>
      <trkpt lat="44.62994" lon="5.2046">
        <ele>1096</ele>
        <time>2026-05-25T13:59:04.000Z</time>
      </trkpt>
      <trkpt lat="44.62993" lon="5.2046">
        <ele>1096</ele>
        <time>2026-05-25T13:59:05.000Z</time>
      </trkpt>
      <trkpt lat="44.62993" lon="5.2046">
        <ele>1096</ele>
        <time>2026-05-25T13:59:06.000Z</time>
      </trkpt>
      <trkpt lat="44.62992" lon="5.2046">
        <ele>1096</ele>
        <time>2026-05-25T13:59:07.000Z</time>
      </trkpt>
      <trkpt lat="44.62992" lon="5.2046">
        <ele>1095</ele>
        <time>2026-05-25T13:59:08.000Z</time>
      </trkpt>
      <trkpt lat="44.62992" lon="5.2046">
        <ele>1095</ele>
        <time>2026-05-25T13:59:09.000Z</time>
      </trkpt>
      <trkpt lat="44.62992" lon="5.2046">
        <ele>1095</ele>
        <time>2026-05-25T13:59:10.000Z</time>
      </trkpt>
      <trkpt lat="44.6299" lon="5.2046">
        <ele>1095</ele>
        <time>2026-05-25T13:59:11.000Z</time>
      </trkpt>
      <trkpt lat="44.6299" lon="5.2046">
        <ele>1095</ele>
        <time>2026-05-25T13:59:12.000Z</time>
      </trkpt>
      <trkpt lat="44.62989" lon="5.20461">
        <ele>1095</ele>
        <time>2026-05-25T13:59:13.000Z</time>
      </trkpt>
      <trkpt lat="44.62988" lon="5.20461">
        <ele>1095</ele>
        <time>2026-05-25T13:59:14.000Z</time>
      </trkpt>
      <trkpt lat="44.62988" lon="5.20462">
        <ele>1095</ele>
        <time>2026-05-25T13:59:15.000Z</time>
      </trkpt>
      <trkpt lat="44.62988" lon="5.20462">
        <ele>1095</ele>
        <time>2026-05-25T13:59:16.000Z</time>
      </trkpt>
      <trkpt lat="44.62988" lon="5.20462">
        <ele>1095</ele>
        <time>2026-05-25T13:59:17.000Z</time>
      </trkpt>
      <trkpt lat="44.62987" lon="5.20463">
        <ele>1094</ele>
        <time>2026-05-25T13:59:18.000Z</time>
      </trkpt>
      <trkpt lat="44.62987" lon="5.20463">
        <ele>1094</ele>
        <time>2026-05-25T13:59:19.000Z</time>
      </trkpt>
      <trkpt lat="44.62987" lon="5.20463">
        <ele>1093</ele>
        <time>2026-05-25T13:59:20.000Z</time>
      </trkpt>
      <trkpt lat="44.62986" lon="5.20462">
        <ele>1092</ele>
        <time>2026-05-25T13:59:21.000Z</time>
      </trkpt>
      <trkpt lat="44.62985" lon="5.20462">
        <ele>1091</ele>
        <time>2026-05-25T13:59:22.000Z</time>
      </trkpt>
      <trkpt lat="44.62985" lon="5.20462">
        <ele>1091</ele>
        <time>2026-05-25T13:59:23.000Z</time>
      </trkpt>
      <trkpt lat="44.62985" lon="5.20462">
        <ele>1091</ele>
        <time>2026-05-25T13:59:24.000Z</time>
      </trkpt>
      <trkpt lat="44.62985" lon="5.20462">
        <ele>1091</ele>
        <time>2026-05-25T13:59:25.000Z</time>
      </trkpt>
      <trkpt lat="44.62985" lon="5.20462">
        <ele>1091</ele>
        <time>2026-05-25T13:59:26.000Z</time>
      </trkpt>
      <trkpt lat="44.62983" lon="5.20463">
        <ele>1091</ele>
        <time>2026-05-25T13:59:27.000Z</time>
      </trkpt>
      <trkpt lat="44.62982" lon="5.20463">
        <ele>1091</ele>
        <time>2026-05-25T13:59:28.000Z</time>
      </trkpt>
      <trkpt lat="44.62982" lon="5.20463">
        <ele>1091</ele>
        <time>2026-05-25T13:59:29.000Z</time>
      </trkpt>
      <trkpt lat="44.62981" lon="5.20463">
        <ele>1090</ele>
        <time>2026-05-25T13:59:30.000Z</time>
      </trkpt>
      <trkpt lat="44.6298" lon="5.20464">
        <ele>1090</ele>
        <time>2026-05-25T13:59:31.000Z</time>
      </trkpt>
      <trkpt lat="44.62979" lon="5.20464">
        <ele>1091</ele>
        <time>2026-05-25T13:59:32.000Z</time>
      </trkpt>
      <trkpt lat="44.62977" lon="5.20464">
        <ele>1091</ele>
        <time>2026-05-25T13:59:33.000Z</time>
      </trkpt>
      <trkpt lat="44.62976" lon="5.20465">
        <ele>1090</ele>
        <time>2026-05-25T13:59:34.000Z</time>
      </trkpt>
      <trkpt lat="44.62976" lon="5.20465">
        <ele>1090</ele>
        <time>2026-05-25T13:59:35.000Z</time>
      </trkpt>
      <trkpt lat="44.62975" lon="5.20467">
        <ele>1089</ele>
        <time>2026-05-25T13:59:36.000Z</time>
      </trkpt>
      <trkpt lat="44.62975" lon="5.20468">
        <ele>1090</ele>
        <time>2026-05-25T13:59:37.000Z</time>
      </trkpt>
      <trkpt lat="44.62975" lon="5.20469">
        <ele>1089</ele>
        <time>2026-05-25T13:59:38.000Z</time>
      </trkpt>
      <trkpt lat="44.62976" lon="5.2047">
        <ele>1089</ele>
        <time>2026-05-25T13:59:39.000Z</time>
      </trkpt>
      <trkpt lat="44.62976" lon="5.20471">
        <ele>1089</ele>
        <time>2026-05-25T13:59:40.000Z</time>
      </trkpt>
      <trkpt lat="44.62976" lon="5.20471">
        <ele>1089</ele>
        <time>2026-05-25T13:59:41.000Z</time>
      </trkpt>
      <trkpt lat="44.62976" lon="5.20471">
        <ele>1089</ele>
        <time>2026-05-25T13:59:42.000Z</time>
      </trkpt>
      <trkpt lat="44.62976" lon="5.20471">
        <ele>1089</ele>
        <time>2026-05-25T13:59:43.000Z</time>
      </trkpt>
      <trkpt lat="44.62976" lon="5.20471">
        <ele>1089</ele>
        <time>2026-05-25T13:59:44.000Z</time>
      </trkpt>
      <trkpt lat="44.62976" lon="5.20471">
        <ele>1089</ele>
        <time>2026-05-25T13:59:45.000Z</time>
      </trkpt>
      <trkpt lat="44.62975" lon="5.20474">
        <ele>1089</ele>
        <time>2026-05-25T13:59:46.000Z</time>
      </trkpt>
      <trkpt lat="44.62975" lon="5.20475">
        <ele>1089</ele>
        <time>2026-05-25T13:59:47.000Z</time>
      </trkpt>
      <trkpt lat="44.62975" lon="5.20476">
        <ele>1089</ele>
        <time>2026-05-25T13:59:48.000Z</time>
      </trkpt>
      <trkpt lat="44.62975" lon="5.20477">
        <ele>1089</ele>
        <time>2026-05-25T13:59:49.000Z</time>
      </trkpt>
      <trkpt lat="44.62975" lon="5.20477">
        <ele>1089</ele>
        <time>2026-05-25T13:59:50.000Z</time>
      </trkpt>
      <trkpt lat="44.62975" lon="5.20477">
        <ele>1089</ele>
        <time>2026-05-25T13:59:51.000Z</time>
      </trkpt>
      <trkpt lat="44.62974" lon="5.20478">
        <ele>1088</ele>
        <time>2026-05-25T13:59:52.000Z</time>
      </trkpt>
      <trkpt lat="44.62973" lon="5.20478">
        <ele>1088</ele>
        <time>2026-05-25T13:59:53.000Z</time>
      </trkpt>
      <trkpt lat="44.62973" lon="5.20478">
        <ele>1088</ele>
        <time>2026-05-25T13:59:54.000Z</time>
      </trkpt>
      <trkpt lat="44.62972" lon="5.20478">
        <ele>1087</ele>
        <time>2026-05-25T13:59:55.000Z</time>
      </trkpt>
      <trkpt lat="44.6297" lon="5.20476">
        <ele>1087</ele>
        <time>2026-05-25T13:59:56.000Z</time>
      </trkpt>
      <trkpt lat="44.62969" lon="5.20474">
        <ele>1087</ele>
        <time>2026-05-25T13:59:57.000Z</time>
      </trkpt>
      <trkpt lat="44.62968" lon="5.20474">
        <ele>1086</ele>
        <time>2026-05-25T13:59:58.000Z</time>
      </trkpt>
      <trkpt lat="44.62968" lon="5.20473">
        <ele>1086</ele>
        <time>2026-05-25T13:59:59.000Z</time>
      </trkpt>
      <trkpt lat="44.62966" lon="5.20472">
        <ele>1086</ele>
        <time>2026-05-25T14:00:00.000Z</time>
      </trkpt>
      <trkpt lat="44.62965" lon="5.20471">
        <ele>1086</ele>
        <time>2026-05-25T14:00:01.000Z</time>
      </trkpt>
      <trkpt lat="44.62965" lon="5.2047">
        <ele>1086</ele>
        <time>2026-05-25T14:00:02.000Z</time>
      </trkpt>
      <trkpt lat="44.62965" lon="5.20468">
        <ele>1086</ele>
        <time>2026-05-25T14:00:03.000Z</time>
      </trkpt>
      <trkpt lat="44.62964" lon="5.20467">
        <ele>1086</ele>
        <time>2026-05-25T14:00:04.000Z</time>
      </trkpt>
      <trkpt lat="44.62963" lon="5.20466">
        <ele>1086</ele>
        <time>2026-05-25T14:00:05.000Z</time>
      </trkpt>
      <trkpt lat="44.62962" lon="5.20465">
        <ele>1087</ele>
        <time>2026-05-25T14:00:06.000Z</time>
      </trkpt>
      <trkpt lat="44.62961" lon="5.20463">
        <ele>1087</ele>
        <time>2026-05-25T14:00:07.000Z</time>
      </trkpt>
      <trkpt lat="44.62961" lon="5.20462">
        <ele>1087</ele>
        <time>2026-05-25T14:00:08.000Z</time>
      </trkpt>
      <trkpt lat="44.6296" lon="5.20461">
        <ele>1087</ele>
        <time>2026-05-25T14:00:09.000Z</time>
      </trkpt>
      <trkpt lat="44.62959" lon="5.20459">
        <ele>1087</ele>
        <time>2026-05-25T14:00:10.000Z</time>
      </trkpt>
      <trkpt lat="44.62958" lon="5.20458">
        <ele>1086</ele>
        <time>2026-05-25T14:00:11.000Z</time>
      </trkpt>
      <trkpt lat="44.62958" lon="5.20456">
        <ele>1086</ele>
        <time>2026-05-25T14:00:12.000Z</time>
      </trkpt>
      <trkpt lat="44.62957" lon="5.20455">
        <ele>1085</ele>
        <time>2026-05-25T14:00:13.000Z</time>
      </trkpt>
      <trkpt lat="44.62956" lon="5.20454">
        <ele>1085</ele>
        <time>2026-05-25T14:00:14.000Z</time>
      </trkpt>
      <trkpt lat="44.62955" lon="5.20453">
        <ele>1084</ele>
        <time>2026-05-25T14:00:15.000Z</time>
      </trkpt>
      <trkpt lat="44.62954" lon="5.20451">
        <ele>1084</ele>
        <time>2026-05-25T14:00:16.000Z</time>
      </trkpt>
      <trkpt lat="44.62953" lon="5.2045">
        <ele>1084</ele>
        <time>2026-05-25T14:00:17.000Z</time>
      </trkpt>
      <trkpt lat="44.62952" lon="5.2045">
        <ele>1084</ele>
        <time>2026-05-25T14:00:18.000Z</time>
      </trkpt>
      <trkpt lat="44.62951" lon="5.20448">
        <ele>1084</ele>
        <time>2026-05-25T14:00:19.000Z</time>
      </trkpt>
      <trkpt lat="44.62951" lon="5.20447">
        <ele>1084</ele>
        <time>2026-05-25T14:00:20.000Z</time>
      </trkpt>
      <trkpt lat="44.6295" lon="5.20446">
        <ele>1084</ele>
        <time>2026-05-25T14:00:21.000Z</time>
      </trkpt>
      <trkpt lat="44.62948" lon="5.20445">
        <ele>1084</ele>
        <time>2026-05-25T14:00:22.000Z</time>
      </trkpt>
      <trkpt lat="44.62947" lon="5.20445">
        <ele>1084</ele>
        <time>2026-05-25T14:00:23.000Z</time>
      </trkpt>
      <trkpt lat="44.62945" lon="5.20445">
        <ele>1083</ele>
        <time>2026-05-25T14:00:24.000Z</time>
      </trkpt>
      <trkpt lat="44.62945" lon="5.20444">
        <ele>1083</ele>
        <time>2026-05-25T14:00:25.000Z</time>
      </trkpt>
      <trkpt lat="44.62944" lon="5.20443">
        <ele>1083</ele>
        <time>2026-05-25T14:00:26.000Z</time>
      </trkpt>
      <trkpt lat="44.62943" lon="5.20443">
        <ele>1082</ele>
        <time>2026-05-25T14:00:27.000Z</time>
      </trkpt>
      <trkpt lat="44.62942" lon="5.20443">
        <ele>1082</ele>
        <time>2026-05-25T14:00:28.000Z</time>
      </trkpt>
      <trkpt lat="44.62941" lon="5.20443">
        <ele>1082</ele>
        <time>2026-05-25T14:00:29.000Z</time>
      </trkpt>
      <trkpt lat="44.6294" lon="5.20443">
        <ele>1082</ele>
        <time>2026-05-25T14:00:30.000Z</time>
      </trkpt>
      <trkpt lat="44.62939" lon="5.20443">
        <ele>1082</ele>
        <time>2026-05-25T14:00:31.000Z</time>
      </trkpt>
      <trkpt lat="44.62938" lon="5.20443">
        <ele>1082</ele>
        <time>2026-05-25T14:00:32.000Z</time>
      </trkpt>
      <trkpt lat="44.62937" lon="5.20443">
        <ele>1081</ele>
        <time>2026-05-25T14:00:33.000Z</time>
      </trkpt>
      <trkpt lat="44.62936" lon="5.20443">
        <ele>1081</ele>
        <time>2026-05-25T14:00:34.000Z</time>
      </trkpt>
      <trkpt lat="44.62934" lon="5.20444">
        <ele>1081</ele>
        <time>2026-05-25T14:00:35.000Z</time>
      </trkpt>
      <trkpt lat="44.62933" lon="5.20444">
        <ele>1081</ele>
        <time>2026-05-25T14:00:36.000Z</time>
      </trkpt>
      <trkpt lat="44.62932" lon="5.20444">
        <ele>1081</ele>
        <time>2026-05-25T14:00:37.000Z</time>
      </trkpt>
      <trkpt lat="44.62931" lon="5.20444">
        <ele>1081</ele>
        <time>2026-05-25T14:00:38.000Z</time>
      </trkpt>
      <trkpt lat="44.62929" lon="5.20445">
        <ele>1082</ele>
        <time>2026-05-25T14:00:39.000Z</time>
      </trkpt>
      <trkpt lat="44.62928" lon="5.20446">
        <ele>1082</ele>
        <time>2026-05-25T14:00:40.000Z</time>
      </trkpt>
      <trkpt lat="44.62926" lon="5.20446">
        <ele>1082</ele>
        <time>2026-05-25T14:00:41.000Z</time>
      </trkpt>
      <trkpt lat="44.62925" lon="5.20447">
        <ele>1082</ele>
        <time>2026-05-25T14:00:42.000Z</time>
      </trkpt>
      <trkpt lat="44.62924" lon="5.20449">
        <ele>1082</ele>
        <time>2026-05-25T14:00:43.000Z</time>
      </trkpt>
      <trkpt lat="44.62922" lon="5.2045">
        <ele>1082</ele>
        <time>2026-05-25T14:00:44.000Z</time>
      </trkpt>
      <trkpt lat="44.62921" lon="5.20451">
        <ele>1082</ele>
        <time>2026-05-25T14:00:45.000Z</time>
      </trkpt>
      <trkpt lat="44.6292" lon="5.20453">
        <ele>1082</ele>
        <time>2026-05-25T14:00:46.000Z</time>
      </trkpt>
      <trkpt lat="44.62919" lon="5.20454">
        <ele>1082</ele>
        <time>2026-05-25T14:00:47.000Z</time>
      </trkpt>
      <trkpt lat="44.62918" lon="5.20455">
        <ele>1082</ele>
        <time>2026-05-25T14:00:48.000Z</time>
      </trkpt>
      <trkpt lat="44.62918" lon="5.20457">
        <ele>1082</ele>
        <time>2026-05-25T14:00:49.000Z</time>
      </trkpt>
      <trkpt lat="44.62918" lon="5.20459">
        <ele>1083</ele>
        <time>2026-05-25T14:00:50.000Z</time>
      </trkpt>
      <trkpt lat="44.62918" lon="5.20462">
        <ele>1082</ele>
        <time>2026-05-25T14:00:51.000Z</time>
      </trkpt>
      <trkpt lat="44.62918" lon="5.20464">
        <ele>1083</ele>
        <time>2026-05-25T14:00:52.000Z</time>
      </trkpt>
      <trkpt lat="44.62918" lon="5.20466">
        <ele>1082</ele>
        <time>2026-05-25T14:00:53.000Z</time>
      </trkpt>
      <trkpt lat="44.62918" lon="5.20468">
        <ele>1082</ele>
        <time>2026-05-25T14:00:54.000Z</time>
      </trkpt>
      <trkpt lat="44.62919" lon="5.20469">
        <ele>1082</ele>
        <time>2026-05-25T14:00:55.000Z</time>
      </trkpt>
      <trkpt lat="44.62919" lon="5.20471">
        <ele>1082</ele>
        <time>2026-05-25T14:00:56.000Z</time>
      </trkpt>
      <trkpt lat="44.62919" lon="5.20474">
        <ele>1082</ele>
        <time>2026-05-25T14:00:57.000Z</time>
      </trkpt>
      <trkpt lat="44.62919" lon="5.20475">
        <ele>1082</ele>
        <time>2026-05-25T14:00:58.000Z</time>
      </trkpt>
      <trkpt lat="44.6292" lon="5.20477">
        <ele>1082</ele>
        <time>2026-05-25T14:00:59.000Z</time>
      </trkpt>
      <trkpt lat="44.6292" lon="5.20478">
        <ele>1082</ele>
        <time>2026-05-25T14:01:00.000Z</time>
      </trkpt>
      <trkpt lat="44.62921" lon="5.2048">
        <ele>1082</ele>
        <time>2026-05-25T14:01:01.000Z</time>
      </trkpt>
      <trkpt lat="44.62921" lon="5.20482">
        <ele>1082</ele>
        <time>2026-05-25T14:01:02.000Z</time>
      </trkpt>
      <trkpt lat="44.62922" lon="5.20483">
        <ele>1082</ele>
        <time>2026-05-25T14:01:03.000Z</time>
      </trkpt>
      <trkpt lat="44.62922" lon="5.20485">
        <ele>1082</ele>
        <time>2026-05-25T14:01:04.000Z</time>
      </trkpt>
      <trkpt lat="44.62923" lon="5.20486">
        <ele>1082</ele>
        <time>2026-05-25T14:01:05.000Z</time>
      </trkpt>
      <trkpt lat="44.62924" lon="5.20488">
        <ele>1082</ele>
        <time>2026-05-25T14:01:06.000Z</time>
      </trkpt>
      <trkpt lat="44.62924" lon="5.20489">
        <ele>1082</ele>
        <time>2026-05-25T14:01:07.000Z</time>
      </trkpt>
      <trkpt lat="44.62925" lon="5.20491">
        <ele>1082</ele>
        <time>2026-05-25T14:01:08.000Z</time>
      </trkpt>
      <trkpt lat="44.62925" lon="5.20492">
        <ele>1082</ele>
        <time>2026-05-25T14:01:09.000Z</time>
      </trkpt>
      <trkpt lat="44.62926" lon="5.20493">
        <ele>1082</ele>
        <time>2026-05-25T14:01:10.000Z</time>
      </trkpt>
      <trkpt lat="44.62926" lon="5.20494">
        <ele>1082</ele>
        <time>2026-05-25T14:01:11.000Z</time>
      </trkpt>
      <trkpt lat="44.62927" lon="5.20495">
        <ele>1082</ele>
        <time>2026-05-25T14:01:12.000Z</time>
      </trkpt>
      <trkpt lat="44.62928" lon="5.20497">
        <ele>1082</ele>
        <time>2026-05-25T14:01:13.000Z</time>
      </trkpt>
      <trkpt lat="44.62929" lon="5.20498">
        <ele>1082</ele>
        <time>2026-05-25T14:01:14.000Z</time>
      </trkpt>
      <trkpt lat="44.6293" lon="5.20498">
        <ele>1082</ele>
        <time>2026-05-25T14:01:15.000Z</time>
      </trkpt>
      <trkpt lat="44.62931" lon="5.20499">
        <ele>1082</ele>
        <time>2026-05-25T14:01:16.000Z</time>
      </trkpt>
      <trkpt lat="44.62932" lon="5.20499">
        <ele>1082</ele>
        <time>2026-05-25T14:01:17.000Z</time>
      </trkpt>
      <trkpt lat="44.62933" lon="5.205">
        <ele>1081</ele>
        <time>2026-05-25T14:01:18.000Z</time>
      </trkpt>
      <trkpt lat="44.62934" lon="5.205">
        <ele>1081</ele>
        <time>2026-05-25T14:01:19.000Z</time>
      </trkpt>
      <trkpt lat="44.62935" lon="5.20501">
        <ele>1081</ele>
        <time>2026-05-25T14:01:20.000Z</time>
      </trkpt>
      <trkpt lat="44.62936" lon="5.20502">
        <ele>1081</ele>
        <time>2026-05-25T14:01:21.000Z</time>
      </trkpt>
      <trkpt lat="44.62936" lon="5.20503">
        <ele>1080</ele>
        <time>2026-05-25T14:01:22.000Z</time>
      </trkpt>
      <trkpt lat="44.62937" lon="5.20504">
        <ele>1080</ele>
        <time>2026-05-25T14:01:23.000Z</time>
      </trkpt>
      <trkpt lat="44.62938" lon="5.20504">
        <ele>1079</ele>
        <time>2026-05-25T14:01:24.000Z</time>
      </trkpt>
      <trkpt lat="44.62938" lon="5.20504">
        <ele>1078</ele>
        <time>2026-05-25T14:01:25.000Z</time>
      </trkpt>
      <trkpt lat="44.62938" lon="5.20504">
        <ele>1078</ele>
        <time>2026-05-25T14:01:26.000Z</time>
      </trkpt>
      <trkpt lat="44.62938" lon="5.20504">
        <ele>1078</ele>
        <time>2026-05-25T14:01:27.000Z</time>
      </trkpt>
      <trkpt lat="44.62938" lon="5.20504">
        <ele>1078</ele>
        <time>2026-05-25T14:01:28.000Z</time>
      </trkpt>
      <trkpt lat="44.62938" lon="5.20504">
        <ele>1078</ele>
        <time>2026-05-25T14:01:29.000Z</time>
      </trkpt>
      <trkpt lat="44.62938" lon="5.20503">
        <ele>1078</ele>
        <time>2026-05-25T14:01:30.000Z</time>
      </trkpt>
      <trkpt lat="44.62938" lon="5.20503">
        <ele>1078</ele>
        <time>2026-05-25T14:01:31.000Z</time>
      </trkpt>
      <trkpt lat="44.62938" lon="5.20503">
        <ele>1078</ele>
        <time>2026-05-25T14:01:32.000Z</time>
      </trkpt>
      <trkpt lat="44.62938" lon="5.20503">
        <ele>1078</ele>
        <time>2026-05-25T14:01:33.000Z</time>
      </trkpt>
      <trkpt lat="44.62938" lon="5.20503">
        <ele>1078</ele>
        <time>2026-05-25T14:01:34.000Z</time>
      </trkpt>
      <trkpt lat="44.62938" lon="5.20503">
        <ele>1078</ele>
        <time>2026-05-25T14:01:35.000Z</time>
      </trkpt>
      <trkpt lat="44.62938" lon="5.20503">
        <ele>1078</ele>
        <time>2026-05-25T14:01:36.000Z</time>
      </trkpt>
      <trkpt lat="44.62938" lon="5.20502">
        <ele>1078</ele>
        <time>2026-05-25T14:01:37.000Z</time>
      </trkpt>
      <trkpt lat="44.62938" lon="5.205">
        <ele>1078</ele>
        <time>2026-05-25T14:01:38.000Z</time>
      </trkpt>
      <trkpt lat="44.62938" lon="5.20499">
        <ele>1078</ele>
        <time>2026-05-25T14:01:39.000Z</time>
      </trkpt>
      <trkpt lat="44.62937" lon="5.20499">
        <ele>1078</ele>
        <time>2026-05-25T14:01:40.000Z</time>
      </trkpt>
      <trkpt lat="44.62937" lon="5.205">
        <ele>1079</ele>
        <time>2026-05-25T14:01:41.000Z</time>
      </trkpt>
      <trkpt lat="44.62937" lon="5.205">
        <ele>1079</ele>
        <time>2026-05-25T14:01:42.000Z</time>
      </trkpt>
      <trkpt lat="44.62937" lon="5.205">
        <ele>1079</ele>
        <time>2026-05-25T14:01:43.000Z</time>
      </trkpt>
      <trkpt lat="44.62937" lon="5.205">
        <ele>1079</ele>
        <time>2026-05-25T14:01:44.000Z</time>
      </trkpt>
      <trkpt lat="44.62937" lon="5.205">
        <ele>1079</ele>
        <time>2026-05-25T14:01:45.000Z</time>
      </trkpt>
      <trkpt lat="44.62937" lon="5.205">
        <ele>1079</ele>
        <time>2026-05-25T14:01:46.000Z</time>
      </trkpt>
      <trkpt lat="44.62937" lon="5.205">
        <ele>1079</ele>
        <time>2026-05-25T14:01:47.000Z</time>
      </trkpt>
      <trkpt lat="44.62937" lon="5.205">
        <ele>1079</ele>
        <time>2026-05-25T14:01:48.000Z</time>
      </trkpt>
      <trkpt lat="44.62937" lon="5.205">
        <ele>1079</ele>
        <time>2026-05-25T14:01:49.000Z</time>
      </trkpt>
      <trkpt lat="44.62937" lon="5.205">
        <ele>1079</ele>
        <time>2026-05-25T14:01:50.000Z</time>
      </trkpt>
      <trkpt lat="44.62938" lon="5.20501">
        <ele>1080</ele>
        <time>2026-05-25T14:01:51.000Z</time>
      </trkpt>
      <trkpt lat="44.62938" lon="5.20503">
        <ele>1080</ele>
        <time>2026-05-25T14:01:52.000Z</time>
      </trkpt>
      <trkpt lat="44.62938" lon="5.20503">
        <ele>1080</ele>
        <time>2026-05-25T14:01:53.000Z</time>
      </trkpt>
      <trkpt lat="44.62938" lon="5.20503">
        <ele>1080</ele>
        <time>2026-05-25T14:01:54.000Z</time>
      </trkpt>
      <trkpt lat="44.62938" lon="5.20503">
        <ele>1080</ele>
        <time>2026-05-25T14:01:55.000Z</time>
      </trkpt>
      <trkpt lat="44.62938" lon="5.20503">
        <ele>1080</ele>
        <time>2026-05-25T14:01:56.000Z</time>
      </trkpt>
      <trkpt lat="44.62938" lon="5.20503">
        <ele>1080</ele>
        <time>2026-05-25T14:01:57.000Z</time>
      </trkpt>
      <trkpt lat="44.62938" lon="5.20503">
        <ele>1080</ele>
        <time>2026-05-25T14:01:58.000Z</time>
      </trkpt>
      <trkpt lat="44.62938" lon="5.20503">
        <ele>1080</ele>
        <time>2026-05-25T14:01:59.000Z</time>
      </trkpt>
      <trkpt lat="44.62938" lon="5.20503">
        <ele>1080</ele>
        <time>2026-05-25T14:02:00.000Z</time>
      </trkpt>
      <trkpt lat="44.62937" lon="5.20503">
        <ele>1080</ele>
        <time>2026-05-25T14:02:01.000Z</time>
      </trkpt>
      <trkpt lat="44.62937" lon="5.20504">
        <ele>1080</ele>
        <time>2026-05-25T14:02:02.000Z</time>
      </trkpt>
      <trkpt lat="44.62937" lon="5.20504">
        <ele>1080</ele>
        <time>2026-05-25T14:02:03.000Z</time>
      </trkpt>
      <trkpt lat="44.62937" lon="5.20504">
        <ele>1079</ele>
        <time>2026-05-25T14:02:04.000Z</time>
      </trkpt>
      <trkpt lat="44.62937" lon="5.20504">
        <ele>1079</ele>
        <time>2026-05-25T14:02:05.000Z</time>
      </trkpt>
      <trkpt lat="44.62937" lon="5.20504">
        <ele>1079</ele>
        <time>2026-05-25T14:02:06.000Z</time>
      </trkpt>
      <trkpt lat="44.62937" lon="5.20503">
        <ele>1078</ele>
        <time>2026-05-25T14:02:07.000Z</time>
      </trkpt>
      <trkpt lat="44.62938" lon="5.20503">
        <ele>1079</ele>
        <time>2026-05-25T14:02:08.000Z</time>
      </trkpt>
      <trkpt lat="44.62938" lon="5.20503">
        <ele>1079</ele>
        <time>2026-05-25T14:02:09.000Z</time>
      </trkpt>
      <trkpt lat="44.62938" lon="5.20503">
        <ele>1079</ele>
        <time>2026-05-25T14:02:10.000Z</time>
      </trkpt>
      <trkpt lat="44.62937" lon="5.20502">
        <ele>1079</ele>
        <time>2026-05-25T14:02:11.000Z</time>
      </trkpt>
      <trkpt lat="44.62937" lon="5.20502">
        <ele>1079</ele>
        <time>2026-05-25T14:02:12.000Z</time>
      </trkpt>
      <trkpt lat="44.62937" lon="5.20502">
        <ele>1079</ele>
        <time>2026-05-25T14:02:13.000Z</time>
      </trkpt>
      <trkpt lat="44.62937" lon="5.20502">
        <ele>1079</ele>
        <time>2026-05-25T14:02:14.000Z</time>
      </trkpt>
      <trkpt lat="44.62937" lon="5.20502">
        <ele>1079</ele>
        <time>2026-05-25T14:02:15.000Z</time>
      </trkpt>
      <trkpt lat="44.62937" lon="5.20502">
        <ele>1079</ele>
        <time>2026-05-25T14:02:16.000Z</time>
      </trkpt>
      <trkpt lat="44.62937" lon="5.20502">
        <ele>1079</ele>
        <time>2026-05-25T14:02:17.000Z</time>
      </trkpt>
      <trkpt lat="44.62937" lon="5.20502">
        <ele>1079</ele>
        <time>2026-05-25T14:02:18.000Z</time>
      </trkpt>
      <trkpt lat="44.62937" lon="5.20502">
        <ele>1079</ele>
        <time>2026-05-25T14:02:19.000Z</time>
      </trkpt>
      <trkpt lat="44.62937" lon="5.20502">
        <ele>1079</ele>
        <time>2026-05-25T14:02:20.000Z</time>
      </trkpt>
      <trkpt lat="44.62937" lon="5.20502">
        <ele>1079</ele>
        <time>2026-05-25T14:02:21.000Z</time>
      </trkpt>
      <trkpt lat="44.62937" lon="5.20502">
        <ele>1079</ele>
        <time>2026-05-25T14:02:22.000Z</time>
      </trkpt>
      <trkpt lat="44.62937" lon="5.20503">
        <ele>1079</ele>
        <time>2026-05-25T14:02:23.000Z</time>
      </trkpt>
      <trkpt lat="44.62937" lon="5.20503">
        <ele>1079</ele>
        <time>2026-05-25T14:02:24.000Z</time>
      </trkpt>
      <trkpt lat="44.62937" lon="5.20503">
        <ele>1079</ele>
        <time>2026-05-25T14:02:25.000Z</time>
      </trkpt>
      <trkpt lat="44.62937" lon="5.20503">
        <ele>1079</ele>
        <time>2026-05-25T14:02:26.000Z</time>
      </trkpt>
      <trkpt lat="44.62937" lon="5.20503">
        <ele>1079</ele>
        <time>2026-05-25T14:02:27.000Z</time>
      </trkpt>
      <trkpt lat="44.62937" lon="5.20503">
        <ele>1079</ele>
        <time>2026-05-25T14:02:28.000Z</time>
      </trkpt>
      <trkpt lat="44.62937" lon="5.20503">
        <ele>1079</ele>
        <time>2026-05-25T14:02:29.000Z</time>
      </trkpt>
      <trkpt lat="44.62937" lon="5.20503">
        <ele>1079</ele>
        <time>2026-05-25T14:02:30.000Z</time>
      </trkpt>
      <trkpt lat="44.62937" lon="5.20503">
        <ele>1079</ele>
        <time>2026-05-25T14:02:31.000Z</time>
      </trkpt>
      <trkpt lat="44.62937" lon="5.20503">
        <ele>1079</ele>
        <time>2026-05-25T14:02:32.000Z</time>
      </trkpt>
      <trkpt lat="44.62937" lon="5.20503">
        <ele>1079</ele>
        <time>2026-05-25T14:02:33.000Z</time>
      </trkpt>
      <trkpt lat="44.62937" lon="5.20503">
        <ele>1079</ele>
        <time>2026-05-25T14:02:34.000Z</time>
      </trkpt>
      <trkpt lat="44.62937" lon="5.20503">
        <ele>1079</ele>
        <time>2026-05-25T14:02:35.000Z</time>
      </trkpt>
      <trkpt lat="44.62937" lon="5.20503">
        <ele>1079</ele>
        <time>2026-05-25T14:02:36.000Z</time>
      </trkpt>
      <trkpt lat="44.62937" lon="5.20503">
        <ele>1079</ele>
        <time>2026-05-25T14:02:37.000Z</time>
      </trkpt>
      <trkpt lat="44.62937" lon="5.20503">
        <ele>1079</ele>
        <time>2026-05-25T14:02:38.000Z</time>
      </trkpt>
      <trkpt lat="44.62938" lon="5.20501">
        <ele>1079</ele>
        <time>2026-05-25T14:02:39.000Z</time>
      </trkpt>
      <trkpt lat="44.62938" lon="5.20501">
        <ele>1079</ele>
        <time>2026-05-25T14:02:40.000Z</time>
      </trkpt>
      <trkpt lat="44.62938" lon="5.20501">
        <ele>1079</ele>
        <time>2026-05-25T14:02:41.000Z</time>
      </trkpt>
      <trkpt lat="44.62938" lon="5.20501">
        <ele>1079</ele>
        <time>2026-05-25T14:02:42.000Z</time>
      </trkpt>
      <trkpt lat="44.62938" lon="5.20501">
        <ele>1078</ele>
        <time>2026-05-25T14:02:43.000Z</time>
      </trkpt>
      <trkpt lat="44.62938" lon="5.20501">
        <ele>1078</ele>
        <time>2026-05-25T14:02:44.000Z</time>
      </trkpt>
      <trkpt lat="44.62938" lon="5.20501">
        <ele>1078</ele>
        <time>2026-05-25T14:02:45.000Z</time>
      </trkpt>
      <trkpt lat="44.62938" lon="5.20501">
        <ele>1078</ele>
        <time>2026-05-25T14:02:46.000Z</time>
      </trkpt>
      <trkpt lat="44.62938" lon="5.20501">
        <ele>1078</ele>
        <time>2026-05-25T14:02:47.000Z</time>
      </trkpt>
      <trkpt lat="44.62938" lon="5.20503">
        <ele>1076</ele>
        <time>2026-05-25T14:02:48.000Z</time>
      </trkpt>
      <trkpt lat="44.62938" lon="5.20503">
        <ele>1075</ele>
        <time>2026-05-25T14:02:49.000Z</time>
      </trkpt>
      <trkpt lat="44.62938" lon="5.20502">
        <ele>1075</ele>
        <time>2026-05-25T14:02:50.000Z</time>
      </trkpt>
      <trkpt lat="44.62938" lon="5.20502">
        <ele>1075</ele>
        <time>2026-05-25T14:02:51.000Z</time>
      </trkpt>
      <trkpt lat="44.62938" lon="5.20502">
        <ele>1075</ele>
        <time>2026-05-25T14:02:52.000Z</time>
      </trkpt>
      <trkpt lat="44.62938" lon="5.20501">
        <ele>1076</ele>
        <time>2026-05-25T14:02:53.000Z</time>
      </trkpt>
      <trkpt lat="44.62938" lon="5.20501">
        <ele>1076</ele>
        <time>2026-05-25T14:02:54.000Z</time>
      </trkpt>
      <trkpt lat="44.62938" lon="5.20501">
        <ele>1076</ele>
        <time>2026-05-25T14:02:55.000Z</time>
      </trkpt>
      <trkpt lat="44.62938" lon="5.20501">
        <ele>1076</ele>
        <time>2026-05-25T14:02:56.000Z</time>
      </trkpt>
      <trkpt lat="44.62938" lon="5.20501">
        <ele>1076</ele>
        <time>2026-05-25T14:02:57.000Z</time>
      </trkpt>
      <trkpt lat="44.62938" lon="5.20501">
        <ele>1076</ele>
        <time>2026-05-25T14:02:58.000Z</time>
      </trkpt>
      <trkpt lat="44.62938" lon="5.20501">
        <ele>1076</ele>
        <time>2026-05-25T14:02:59.000Z</time>
      </trkpt>
      <trkpt lat="44.62938" lon="5.20501">
        <ele>1076</ele>
        <time>2026-05-25T14:03:00.000Z</time>
      </trkpt>
    </trkseg>
  </trk>
</gpx>